<?xml version="1.0" encoding="UTF-8" standalone="no" ?>
<gpx xmlns="http://www.topografix.com/GPX/1/1" xmlns:xsi="http://www.w3.org/2001/XMLSchema-instance" xsi:schemaLocation="http://www.topografix.com/GPX/1/1 http://www.topografix.com/GPX/1/1/gpx.xsd" version="1.1" creator="VisuGPX - https://www.visugpx.com">
  <metadata>
    <name>2017-08-25 Bike ride-Amberieux en Dombes O via Monthieux</name>
    <desc><![CDATA[2017-08-25 Bike ride-Amberieux en Dombes O via Monthieux]]></desc>
  </metadata>
  <wpt lat="45.92467" lon="4.73704">
    <ele>174</ele>
    <name><![CDATA[2017-08-25 10:04 (Start)]]></name>
  </wpt>
  <wpt lat="45.92462" lon="4.73713">
    <ele>174</ele>
    <name><![CDATA[2017-08-25 10:04 (End)]]></name>
    <desc><![CDATA[Created by Google My Tracks on Android  Name: 2017-08-25 10:04 Activity type: biking Description: - Total distance: 46.52 km (28.9 mi) Total time: 2:29:07 Moving time: 2:20:47 Average speed: 18.72 km/h (11.6 mi/h) Average moving speed: 19.83 km/h (12.3 mi/h) Max speed: 46.06 km/h (28.6 mi/h) Average pace: 3:12 min/km (5:09 min/mi) Average moving pace: 3:02 min/km (4:52 min/mi) Fastest pace: 1:18 min/km (2:06 min/mi) Max elevation: 338 m (1110 ft) Min elevation: 159 m (523 ft) Elevation gain: 711 m (2332 ft) Max grade: 39 % Min grade: -17 % Recorded: 25/08/2017 10:04]]></desc>
  </wpt>
  <trk>
    <name><![CDATA[2017-08-25 10:04]]></name>
    <trkseg>
      <trkpt lat="45.92467" lon="4.73704">
        <ele>174</ele>
        <time>2017-08-25T08:04:34.184Z</time>
      </trkpt>
      <trkpt lat="45.92468" lon="4.73691">
        <ele>174</ele>
        <time>2017-08-25T08:06:11Z</time>
      </trkpt>
      <trkpt lat="45.92468" lon="4.73689">
        <ele>174</ele>
        <time>2017-08-25T08:06:12Z</time>
      </trkpt>
      <trkpt lat="45.92469" lon="4.73678">
        <ele>174</ele>
        <time>2017-08-25T08:06:16Z</time>
      </trkpt>
      <trkpt lat="45.92469" lon="4.73675">
        <ele>174</ele>
        <time>2017-08-25T08:06:17Z</time>
      </trkpt>
      <trkpt lat="45.9247" lon="4.73664">
        <ele>174</ele>
        <time>2017-08-25T08:06:20Z</time>
      </trkpt>
      <trkpt lat="45.9247" lon="4.7366">
        <ele>174</ele>
        <time>2017-08-25T08:06:21Z</time>
      </trkpt>
      <trkpt lat="45.92472" lon="4.73651">
        <ele>174</ele>
        <time>2017-08-25T08:06:23Z</time>
      </trkpt>
      <trkpt lat="45.92473" lon="4.73647">
        <ele>174</ele>
        <time>2017-08-25T08:06:24Z</time>
      </trkpt>
      <trkpt lat="45.92479" lon="4.73641">
        <ele>174</ele>
        <time>2017-08-25T08:06:26Z</time>
      </trkpt>
      <trkpt lat="45.92483" lon="4.7364">
        <ele>174</ele>
        <time>2017-08-25T08:06:27Z</time>
      </trkpt>
      <trkpt lat="45.92491" lon="4.73639">
        <ele>174</ele>
        <time>2017-08-25T08:06:29Z</time>
      </trkpt>
      <trkpt lat="45.92495" lon="4.7364">
        <ele>174</ele>
        <time>2017-08-25T08:06:30Z</time>
      </trkpt>
      <trkpt lat="45.92503" lon="4.73639">
        <ele>174</ele>
        <time>2017-08-25T08:06:32Z</time>
      </trkpt>
      <trkpt lat="45.92508" lon="4.73639">
        <ele>174</ele>
        <time>2017-08-25T08:06:33Z</time>
      </trkpt>
      <trkpt lat="45.92512" lon="4.73639">
        <ele>174</ele>
        <time>2017-08-25T08:06:34Z</time>
      </trkpt>
      <trkpt lat="45.92517" lon="4.73639">
        <ele>173</ele>
        <time>2017-08-25T08:06:35Z</time>
      </trkpt>
      <trkpt lat="45.92522" lon="4.73639">
        <ele>173</ele>
        <time>2017-08-25T08:06:36Z</time>
      </trkpt>
      <trkpt lat="45.92527" lon="4.73638">
        <ele>173</ele>
        <time>2017-08-25T08:06:37Z</time>
      </trkpt>
      <trkpt lat="45.92532" lon="4.73638">
        <ele>173</ele>
        <time>2017-08-25T08:06:38Z</time>
      </trkpt>
      <trkpt lat="45.92538" lon="4.73637">
        <ele>173</ele>
        <time>2017-08-25T08:06:39Z</time>
      </trkpt>
      <trkpt lat="45.92543" lon="4.73636">
        <ele>173</ele>
        <time>2017-08-25T08:06:40Z</time>
      </trkpt>
      <trkpt lat="45.92548" lon="4.73634">
        <ele>173</ele>
        <time>2017-08-25T08:06:41Z</time>
      </trkpt>
      <trkpt lat="45.92553" lon="4.73632">
        <ele>173</ele>
        <time>2017-08-25T08:06:42Z</time>
      </trkpt>
      <trkpt lat="45.92559" lon="4.73631">
        <ele>173</ele>
        <time>2017-08-25T08:06:43Z</time>
      </trkpt>
      <trkpt lat="45.92563" lon="4.73629">
        <ele>173</ele>
        <time>2017-08-25T08:06:44Z</time>
      </trkpt>
      <trkpt lat="45.92567" lon="4.73628">
        <ele>173</ele>
        <time>2017-08-25T08:06:45Z</time>
      </trkpt>
      <trkpt lat="45.92576" lon="4.73626">
        <ele>173</ele>
        <time>2017-08-25T08:06:47Z</time>
      </trkpt>
      <trkpt lat="45.9258" lon="4.73625">
        <ele>173</ele>
        <time>2017-08-25T08:06:48Z</time>
      </trkpt>
      <trkpt lat="45.92588" lon="4.73624">
        <ele>172</ele>
        <time>2017-08-25T08:06:50Z</time>
      </trkpt>
      <trkpt lat="45.92592" lon="4.73624">
        <ele>173</ele>
        <time>2017-08-25T08:06:51Z</time>
      </trkpt>
      <trkpt lat="45.92597" lon="4.73624">
        <ele>173</ele>
        <time>2017-08-25T08:06:52Z</time>
      </trkpt>
      <trkpt lat="45.92602" lon="4.73624">
        <ele>173</ele>
        <time>2017-08-25T08:06:53Z</time>
      </trkpt>
      <trkpt lat="45.92606" lon="4.73624">
        <ele>173</ele>
        <time>2017-08-25T08:06:54Z</time>
      </trkpt>
      <trkpt lat="45.92611" lon="4.73627">
        <ele>173</ele>
        <time>2017-08-25T08:06:55Z</time>
      </trkpt>
      <trkpt lat="45.92615" lon="4.73632">
        <ele>173</ele>
        <time>2017-08-25T08:06:56Z</time>
      </trkpt>
      <trkpt lat="45.92619" lon="4.73639">
        <ele>173</ele>
        <time>2017-08-25T08:06:57Z</time>
      </trkpt>
      <trkpt lat="45.92622" lon="4.73647">
        <ele>173</ele>
        <time>2017-08-25T08:06:58Z</time>
      </trkpt>
      <trkpt lat="45.92625" lon="4.73654">
        <ele>173</ele>
        <time>2017-08-25T08:06:59Z</time>
      </trkpt>
      <trkpt lat="45.92628" lon="4.73662">
        <ele>173</ele>
        <time>2017-08-25T08:07:00Z</time>
      </trkpt>
      <trkpt lat="45.92631" lon="4.73669">
        <ele>173</ele>
        <time>2017-08-25T08:07:01Z</time>
      </trkpt>
      <trkpt lat="45.92635" lon="4.73675">
        <ele>173</ele>
        <time>2017-08-25T08:07:02Z</time>
      </trkpt>
      <trkpt lat="45.92639" lon="4.73681">
        <ele>173</ele>
        <time>2017-08-25T08:07:03Z</time>
      </trkpt>
      <trkpt lat="45.92643" lon="4.73687">
        <ele>173</ele>
        <time>2017-08-25T08:07:04Z</time>
      </trkpt>
      <trkpt lat="45.92648" lon="4.73693">
        <ele>173</ele>
        <time>2017-08-25T08:07:05Z</time>
      </trkpt>
      <trkpt lat="45.92653" lon="4.73698">
        <ele>173</ele>
        <time>2017-08-25T08:07:06Z</time>
      </trkpt>
      <trkpt lat="45.92658" lon="4.73702">
        <ele>173</ele>
        <time>2017-08-25T08:07:07Z</time>
      </trkpt>
      <trkpt lat="45.92664" lon="4.73706">
        <ele>173</ele>
        <time>2017-08-25T08:07:08Z</time>
      </trkpt>
      <trkpt lat="45.9267" lon="4.73708">
        <ele>174</ele>
        <time>2017-08-25T08:07:09Z</time>
      </trkpt>
      <trkpt lat="45.92676" lon="4.7371">
        <ele>174</ele>
        <time>2017-08-25T08:07:10Z</time>
      </trkpt>
      <trkpt lat="45.92681" lon="4.73711">
        <ele>173</ele>
        <time>2017-08-25T08:07:11Z</time>
      </trkpt>
      <trkpt lat="45.92687" lon="4.73712">
        <ele>173</ele>
        <time>2017-08-25T08:07:12Z</time>
      </trkpt>
      <trkpt lat="45.92692" lon="4.73714">
        <ele>173</ele>
        <time>2017-08-25T08:07:13Z</time>
      </trkpt>
      <trkpt lat="45.92697" lon="4.73715">
        <ele>173</ele>
        <time>2017-08-25T08:07:14Z</time>
      </trkpt>
      <trkpt lat="45.92702" lon="4.73717">
        <ele>173</ele>
        <time>2017-08-25T08:07:15Z</time>
      </trkpt>
      <trkpt lat="45.92707" lon="4.73719">
        <ele>173</ele>
        <time>2017-08-25T08:07:16Z</time>
      </trkpt>
      <trkpt lat="45.92712" lon="4.7372">
        <ele>173</ele>
        <time>2017-08-25T08:07:17Z</time>
      </trkpt>
      <trkpt lat="45.92717" lon="4.73722">
        <ele>173</ele>
        <time>2017-08-25T08:07:18Z</time>
      </trkpt>
      <trkpt lat="45.92723" lon="4.73723">
        <ele>173</ele>
        <time>2017-08-25T08:07:19Z</time>
      </trkpt>
      <trkpt lat="45.92728" lon="4.73725">
        <ele>173</ele>
        <time>2017-08-25T08:07:20Z</time>
      </trkpt>
      <trkpt lat="45.92733" lon="4.73726">
        <ele>173</ele>
        <time>2017-08-25T08:07:21Z</time>
      </trkpt>
      <trkpt lat="45.92739" lon="4.73727">
        <ele>173</ele>
        <time>2017-08-25T08:07:22Z</time>
      </trkpt>
      <trkpt lat="45.92744" lon="4.73728">
        <ele>173</ele>
        <time>2017-08-25T08:07:23Z</time>
      </trkpt>
      <trkpt lat="45.92749" lon="4.73729">
        <ele>173</ele>
        <time>2017-08-25T08:07:24Z</time>
      </trkpt>
      <trkpt lat="45.92754" lon="4.7373">
        <ele>172</ele>
        <time>2017-08-25T08:07:25Z</time>
      </trkpt>
      <trkpt lat="45.92759" lon="4.73733">
        <ele>172</ele>
        <time>2017-08-25T08:07:26Z</time>
      </trkpt>
      <trkpt lat="45.92762" lon="4.73735">
        <ele>172</ele>
        <time>2017-08-25T08:07:27Z</time>
      </trkpt>
      <trkpt lat="45.92771" lon="4.73738">
        <ele>172</ele>
        <time>2017-08-25T08:07:29Z</time>
      </trkpt>
      <trkpt lat="45.92775" lon="4.73735">
        <ele>172</ele>
        <time>2017-08-25T08:07:30Z</time>
      </trkpt>
      <trkpt lat="45.92778" lon="4.7373">
        <ele>172</ele>
        <time>2017-08-25T08:07:31Z</time>
      </trkpt>
      <trkpt lat="45.92781" lon="4.73724">
        <ele>172</ele>
        <time>2017-08-25T08:07:32Z</time>
      </trkpt>
      <trkpt lat="45.92783" lon="4.73712">
        <ele>172</ele>
        <time>2017-08-25T08:07:34Z</time>
      </trkpt>
      <trkpt lat="45.92784" lon="4.73704">
        <ele>172</ele>
        <time>2017-08-25T08:07:35Z</time>
      </trkpt>
      <trkpt lat="45.92786" lon="4.73697">
        <ele>172</ele>
        <time>2017-08-25T08:07:36Z</time>
      </trkpt>
      <trkpt lat="45.92787" lon="4.73689">
        <ele>172</ele>
        <time>2017-08-25T08:07:37Z</time>
      </trkpt>
      <trkpt lat="45.92789" lon="4.73682">
        <ele>172</ele>
        <time>2017-08-25T08:07:38Z</time>
      </trkpt>
      <trkpt lat="45.9279" lon="4.73674">
        <ele>172</ele>
        <time>2017-08-25T08:07:39Z</time>
      </trkpt>
      <trkpt lat="45.92791" lon="4.73668">
        <ele>172</ele>
        <time>2017-08-25T08:07:40Z</time>
      </trkpt>
      <trkpt lat="45.92793" lon="4.73661">
        <ele>172</ele>
        <time>2017-08-25T08:07:41Z</time>
      </trkpt>
      <trkpt lat="45.92795" lon="4.73654">
        <ele>172</ele>
        <time>2017-08-25T08:07:42Z</time>
      </trkpt>
      <trkpt lat="45.92799" lon="4.73648">
        <ele>172</ele>
        <time>2017-08-25T08:07:43Z</time>
      </trkpt>
      <trkpt lat="45.92804" lon="4.73643">
        <ele>172</ele>
        <time>2017-08-25T08:07:44Z</time>
      </trkpt>
      <trkpt lat="45.92807" lon="4.73638">
        <ele>172</ele>
        <time>2017-08-25T08:07:45Z</time>
      </trkpt>
      <trkpt lat="45.92813" lon="4.73631">
        <ele>172</ele>
        <time>2017-08-25T08:07:47Z</time>
      </trkpt>
      <trkpt lat="45.92815" lon="4.73625">
        <ele>172</ele>
        <time>2017-08-25T08:07:48Z</time>
      </trkpt>
      <trkpt lat="45.92817" lon="4.73619">
        <ele>172</ele>
        <time>2017-08-25T08:07:49Z</time>
      </trkpt>
      <trkpt lat="45.92817" lon="4.73612">
        <ele>172</ele>
        <time>2017-08-25T08:07:50Z</time>
      </trkpt>
      <trkpt lat="45.92817" lon="4.73604">
        <ele>172</ele>
        <time>2017-08-25T08:07:51Z</time>
      </trkpt>
      <trkpt lat="45.92818" lon="4.73597">
        <ele>171</ele>
        <time>2017-08-25T08:07:52Z</time>
      </trkpt>
      <trkpt lat="45.92818" lon="4.7359">
        <ele>171</ele>
        <time>2017-08-25T08:07:53Z</time>
      </trkpt>
      <trkpt lat="45.92819" lon="4.73582">
        <ele>171</ele>
        <time>2017-08-25T08:07:54Z</time>
      </trkpt>
      <trkpt lat="45.92819" lon="4.73574">
        <ele>171</ele>
        <time>2017-08-25T08:07:55Z</time>
      </trkpt>
      <trkpt lat="45.9282" lon="4.73566">
        <ele>171</ele>
        <time>2017-08-25T08:07:56Z</time>
      </trkpt>
      <trkpt lat="45.92821" lon="4.73558">
        <ele>171</ele>
        <time>2017-08-25T08:07:57Z</time>
      </trkpt>
      <trkpt lat="45.92821" lon="4.7355">
        <ele>171</ele>
        <time>2017-08-25T08:07:58Z</time>
      </trkpt>
      <trkpt lat="45.92822" lon="4.73542">
        <ele>171</ele>
        <time>2017-08-25T08:07:59Z</time>
      </trkpt>
      <trkpt lat="45.92823" lon="4.73534">
        <ele>172</ele>
        <time>2017-08-25T08:08:00Z</time>
      </trkpt>
      <trkpt lat="45.92823" lon="4.73525">
        <ele>172</ele>
        <time>2017-08-25T08:08:01Z</time>
      </trkpt>
      <trkpt lat="45.92824" lon="4.73517">
        <ele>172</ele>
        <time>2017-08-25T08:08:02Z</time>
      </trkpt>
      <trkpt lat="45.92825" lon="4.73508">
        <ele>172</ele>
        <time>2017-08-25T08:08:03Z</time>
      </trkpt>
      <trkpt lat="45.92825" lon="4.735">
        <ele>172</ele>
        <time>2017-08-25T08:08:04Z</time>
      </trkpt>
      <trkpt lat="45.92826" lon="4.73491">
        <ele>172</ele>
        <time>2017-08-25T08:08:05Z</time>
      </trkpt>
      <trkpt lat="45.92827" lon="4.73483">
        <ele>172</ele>
        <time>2017-08-25T08:08:06Z</time>
      </trkpt>
      <trkpt lat="45.92828" lon="4.73474">
        <ele>172</ele>
        <time>2017-08-25T08:08:07Z</time>
      </trkpt>
      <trkpt lat="45.92829" lon="4.73466">
        <ele>172</ele>
        <time>2017-08-25T08:08:08Z</time>
      </trkpt>
      <trkpt lat="45.9283" lon="4.73457">
        <ele>172</ele>
        <time>2017-08-25T08:08:09Z</time>
      </trkpt>
      <trkpt lat="45.92831" lon="4.73449">
        <ele>172</ele>
        <time>2017-08-25T08:08:10Z</time>
      </trkpt>
      <trkpt lat="45.92832" lon="4.7344">
        <ele>172</ele>
        <time>2017-08-25T08:08:11Z</time>
      </trkpt>
      <trkpt lat="45.92833" lon="4.73432">
        <ele>172</ele>
        <time>2017-08-25T08:08:12Z</time>
      </trkpt>
      <trkpt lat="45.92834" lon="4.73424">
        <ele>172</ele>
        <time>2017-08-25T08:08:13Z</time>
      </trkpt>
      <trkpt lat="45.92835" lon="4.73416">
        <ele>172</ele>
        <time>2017-08-25T08:08:14Z</time>
      </trkpt>
      <trkpt lat="45.92835" lon="4.73407">
        <ele>172</ele>
        <time>2017-08-25T08:08:15Z</time>
      </trkpt>
      <trkpt lat="45.92836" lon="4.73399">
        <ele>172</ele>
        <time>2017-08-25T08:08:16Z</time>
      </trkpt>
      <trkpt lat="45.92838" lon="4.73391">
        <ele>172</ele>
        <time>2017-08-25T08:08:17Z</time>
      </trkpt>
      <trkpt lat="45.92839" lon="4.73382">
        <ele>172</ele>
        <time>2017-08-25T08:08:18Z</time>
      </trkpt>
      <trkpt lat="45.9284" lon="4.73374">
        <ele>171</ele>
        <time>2017-08-25T08:08:19Z</time>
      </trkpt>
      <trkpt lat="45.92841" lon="4.73365">
        <ele>171</ele>
        <time>2017-08-25T08:08:20Z</time>
      </trkpt>
      <trkpt lat="45.92843" lon="4.73357">
        <ele>171</ele>
        <time>2017-08-25T08:08:21Z</time>
      </trkpt>
      <trkpt lat="45.92844" lon="4.73348">
        <ele>171</ele>
        <time>2017-08-25T08:08:22Z</time>
      </trkpt>
      <trkpt lat="45.92846" lon="4.73339">
        <ele>171</ele>
        <time>2017-08-25T08:08:23Z</time>
      </trkpt>
      <trkpt lat="45.92847" lon="4.73329">
        <ele>171</ele>
        <time>2017-08-25T08:08:24Z</time>
      </trkpt>
      <trkpt lat="45.92848" lon="4.7332">
        <ele>171</ele>
        <time>2017-08-25T08:08:25Z</time>
      </trkpt>
      <trkpt lat="45.9285" lon="4.73311">
        <ele>171</ele>
        <time>2017-08-25T08:08:26Z</time>
      </trkpt>
      <trkpt lat="45.92851" lon="4.73302">
        <ele>171</ele>
        <time>2017-08-25T08:08:27Z</time>
      </trkpt>
      <trkpt lat="45.92852" lon="4.73293">
        <ele>171</ele>
        <time>2017-08-25T08:08:28Z</time>
      </trkpt>
      <trkpt lat="45.92853" lon="4.73285">
        <ele>171</ele>
        <time>2017-08-25T08:08:29Z</time>
      </trkpt>
      <trkpt lat="45.92854" lon="4.73276">
        <ele>171</ele>
        <time>2017-08-25T08:08:30Z</time>
      </trkpt>
      <trkpt lat="45.92854" lon="4.73269">
        <ele>171</ele>
        <time>2017-08-25T08:08:31Z</time>
      </trkpt>
      <trkpt lat="45.92855" lon="4.73261">
        <ele>171</ele>
        <time>2017-08-25T08:08:32Z</time>
      </trkpt>
      <trkpt lat="45.92857" lon="4.73254">
        <ele>171</ele>
        <time>2017-08-25T08:08:33Z</time>
      </trkpt>
      <trkpt lat="45.92857" lon="4.73246">
        <ele>171</ele>
        <time>2017-08-25T08:08:34Z</time>
      </trkpt>
      <trkpt lat="45.92858" lon="4.73238">
        <ele>171</ele>
        <time>2017-08-25T08:08:35Z</time>
      </trkpt>
      <trkpt lat="45.9286" lon="4.7323">
        <ele>171</ele>
        <time>2017-08-25T08:08:36Z</time>
      </trkpt>
      <trkpt lat="45.92861" lon="4.73221">
        <ele>171</ele>
        <time>2017-08-25T08:08:37Z</time>
      </trkpt>
      <trkpt lat="45.92862" lon="4.73213">
        <ele>171</ele>
        <time>2017-08-25T08:08:38Z</time>
      </trkpt>
      <trkpt lat="45.92863" lon="4.73204">
        <ele>171</ele>
        <time>2017-08-25T08:08:39Z</time>
      </trkpt>
      <trkpt lat="45.92864" lon="4.73195">
        <ele>171</ele>
        <time>2017-08-25T08:08:40Z</time>
      </trkpt>
      <trkpt lat="45.92865" lon="4.73186">
        <ele>171</ele>
        <time>2017-08-25T08:08:41Z</time>
      </trkpt>
      <trkpt lat="45.92866" lon="4.73177">
        <ele>171</ele>
        <time>2017-08-25T08:08:42Z</time>
      </trkpt>
      <trkpt lat="45.92867" lon="4.73168">
        <ele>171</ele>
        <time>2017-08-25T08:08:43Z</time>
      </trkpt>
      <trkpt lat="45.92869" lon="4.73158">
        <ele>171</ele>
        <time>2017-08-25T08:08:44Z</time>
      </trkpt>
      <trkpt lat="45.9287" lon="4.73149">
        <ele>171</ele>
        <time>2017-08-25T08:08:45Z</time>
      </trkpt>
      <trkpt lat="45.92871" lon="4.7314">
        <ele>171</ele>
        <time>2017-08-25T08:08:46Z</time>
      </trkpt>
      <trkpt lat="45.92873" lon="4.73132">
        <ele>171</ele>
        <time>2017-08-25T08:08:47Z</time>
      </trkpt>
      <trkpt lat="45.92875" lon="4.73123">
        <ele>172</ele>
        <time>2017-08-25T08:08:48Z</time>
      </trkpt>
      <trkpt lat="45.92877" lon="4.73115">
        <ele>172</ele>
        <time>2017-08-25T08:08:49Z</time>
      </trkpt>
      <trkpt lat="45.92879" lon="4.73107">
        <ele>172</ele>
        <time>2017-08-25T08:08:50Z</time>
      </trkpt>
      <trkpt lat="45.92882" lon="4.731">
        <ele>172</ele>
        <time>2017-08-25T08:08:51Z</time>
      </trkpt>
      <trkpt lat="45.92884" lon="4.73093">
        <ele>172</ele>
        <time>2017-08-25T08:08:52Z</time>
      </trkpt>
      <trkpt lat="45.92887" lon="4.73086">
        <ele>172</ele>
        <time>2017-08-25T08:08:53Z</time>
      </trkpt>
      <trkpt lat="45.9289" lon="4.73079">
        <ele>172</ele>
        <time>2017-08-25T08:08:54Z</time>
      </trkpt>
      <trkpt lat="45.92894" lon="4.73072">
        <ele>172</ele>
        <time>2017-08-25T08:08:55Z</time>
      </trkpt>
      <trkpt lat="45.92897" lon="4.73065">
        <ele>172</ele>
        <time>2017-08-25T08:08:56Z</time>
      </trkpt>
      <trkpt lat="45.929" lon="4.73058">
        <ele>172</ele>
        <time>2017-08-25T08:08:57Z</time>
      </trkpt>
      <trkpt lat="45.92904" lon="4.73052">
        <ele>172</ele>
        <time>2017-08-25T08:08:58Z</time>
      </trkpt>
      <trkpt lat="45.92908" lon="4.73045">
        <ele>172</ele>
        <time>2017-08-25T08:08:59Z</time>
      </trkpt>
      <trkpt lat="45.92912" lon="4.73039">
        <ele>172</ele>
        <time>2017-08-25T08:09:00Z</time>
      </trkpt>
      <trkpt lat="45.92916" lon="4.73032">
        <ele>172</ele>
        <time>2017-08-25T08:09:01Z</time>
      </trkpt>
      <trkpt lat="45.92921" lon="4.73026">
        <ele>171</ele>
        <time>2017-08-25T08:09:02Z</time>
      </trkpt>
      <trkpt lat="45.92926" lon="4.7302">
        <ele>171</ele>
        <time>2017-08-25T08:09:03Z</time>
      </trkpt>
      <trkpt lat="45.92931" lon="4.73014">
        <ele>171</ele>
        <time>2017-08-25T08:09:04Z</time>
      </trkpt>
      <trkpt lat="45.92935" lon="4.73009">
        <ele>171</ele>
        <time>2017-08-25T08:09:05Z</time>
      </trkpt>
      <trkpt lat="45.9294" lon="4.73004">
        <ele>171</ele>
        <time>2017-08-25T08:09:06Z</time>
      </trkpt>
      <trkpt lat="45.92944" lon="4.72999">
        <ele>171</ele>
        <time>2017-08-25T08:09:07Z</time>
      </trkpt>
      <trkpt lat="45.92949" lon="4.72994">
        <ele>171</ele>
        <time>2017-08-25T08:09:08Z</time>
      </trkpt>
      <trkpt lat="45.92952" lon="4.72989">
        <ele>171</ele>
        <time>2017-08-25T08:09:09Z</time>
      </trkpt>
      <trkpt lat="45.92956" lon="4.72984">
        <ele>171</ele>
        <time>2017-08-25T08:09:10Z</time>
      </trkpt>
      <trkpt lat="45.9296" lon="4.72979">
        <ele>171</ele>
        <time>2017-08-25T08:09:11Z</time>
      </trkpt>
      <trkpt lat="45.92964" lon="4.72973">
        <ele>171</ele>
        <time>2017-08-25T08:09:12Z</time>
      </trkpt>
      <trkpt lat="45.92968" lon="4.72968">
        <ele>171</ele>
        <time>2017-08-25T08:09:13Z</time>
      </trkpt>
      <trkpt lat="45.92972" lon="4.72963">
        <ele>171</ele>
        <time>2017-08-25T08:09:14Z</time>
      </trkpt>
      <trkpt lat="45.92976" lon="4.72957">
        <ele>171</ele>
        <time>2017-08-25T08:09:15Z</time>
      </trkpt>
      <trkpt lat="45.9298" lon="4.72951">
        <ele>171</ele>
        <time>2017-08-25T08:09:16Z</time>
      </trkpt>
      <trkpt lat="45.92984" lon="4.72945">
        <ele>171</ele>
        <time>2017-08-25T08:09:17Z</time>
      </trkpt>
      <trkpt lat="45.92989" lon="4.7294">
        <ele>171</ele>
        <time>2017-08-25T08:09:18Z</time>
      </trkpt>
      <trkpt lat="45.92995" lon="4.72934">
        <ele>171</ele>
        <time>2017-08-25T08:09:19Z</time>
      </trkpt>
      <trkpt lat="45.93" lon="4.72928">
        <ele>170</ele>
        <time>2017-08-25T08:09:20Z</time>
      </trkpt>
      <trkpt lat="45.93006" lon="4.72922">
        <ele>171</ele>
        <time>2017-08-25T08:09:21Z</time>
      </trkpt>
      <trkpt lat="45.93011" lon="4.72915">
        <ele>171</ele>
        <time>2017-08-25T08:09:22Z</time>
      </trkpt>
      <trkpt lat="45.93016" lon="4.72909">
        <ele>171</ele>
        <time>2017-08-25T08:09:23Z</time>
      </trkpt>
      <trkpt lat="45.93022" lon="4.72903">
        <ele>172</ele>
        <time>2017-08-25T08:09:24Z</time>
      </trkpt>
      <trkpt lat="45.93026" lon="4.72897">
        <ele>172</ele>
        <time>2017-08-25T08:09:25Z</time>
      </trkpt>
      <trkpt lat="45.93031" lon="4.7289">
        <ele>172</ele>
        <time>2017-08-25T08:09:26Z</time>
      </trkpt>
      <trkpt lat="45.93036" lon="4.72885">
        <ele>172</ele>
        <time>2017-08-25T08:09:27Z</time>
      </trkpt>
      <trkpt lat="45.93041" lon="4.72879">
        <ele>172</ele>
        <time>2017-08-25T08:09:28Z</time>
      </trkpt>
      <trkpt lat="45.93046" lon="4.72874">
        <ele>172</ele>
        <time>2017-08-25T08:09:29Z</time>
      </trkpt>
      <trkpt lat="45.93051" lon="4.72868">
        <ele>172</ele>
        <time>2017-08-25T08:09:30Z</time>
      </trkpt>
      <trkpt lat="45.93055" lon="4.72863">
        <ele>172</ele>
        <time>2017-08-25T08:09:31Z</time>
      </trkpt>
      <trkpt lat="45.9306" lon="4.72857">
        <ele>172</ele>
        <time>2017-08-25T08:09:32Z</time>
      </trkpt>
      <trkpt lat="45.93067" lon="4.72848">
        <ele>172</ele>
        <time>2017-08-25T08:09:33Z</time>
      </trkpt>
      <trkpt lat="45.93071" lon="4.72842">
        <ele>173</ele>
        <time>2017-08-25T08:09:34Z</time>
      </trkpt>
      <trkpt lat="45.93075" lon="4.72837">
        <ele>173</ele>
        <time>2017-08-25T08:09:35Z</time>
      </trkpt>
      <trkpt lat="45.93078" lon="4.72831">
        <ele>173</ele>
        <time>2017-08-25T08:09:36Z</time>
      </trkpt>
      <trkpt lat="45.93081" lon="4.72825">
        <ele>173</ele>
        <time>2017-08-25T08:09:37Z</time>
      </trkpt>
      <trkpt lat="45.93085" lon="4.72819">
        <ele>172</ele>
        <time>2017-08-25T08:09:38Z</time>
      </trkpt>
      <trkpt lat="45.93088" lon="4.72812">
        <ele>172</ele>
        <time>2017-08-25T08:09:39Z</time>
      </trkpt>
      <trkpt lat="45.9309" lon="4.72808">
        <ele>172</ele>
        <time>2017-08-25T08:09:40Z</time>
      </trkpt>
      <trkpt lat="45.93097" lon="4.72806">
        <ele>171</ele>
        <time>2017-08-25T08:09:41Z</time>
      </trkpt>
      <trkpt lat="45.93103" lon="4.72804">
        <ele>171</ele>
        <time>2017-08-25T08:09:42Z</time>
      </trkpt>
      <trkpt lat="45.93109" lon="4.728">
        <ele>171</ele>
        <time>2017-08-25T08:09:43Z</time>
      </trkpt>
      <trkpt lat="45.93115" lon="4.72795">
        <ele>171</ele>
        <time>2017-08-25T08:09:44Z</time>
      </trkpt>
      <trkpt lat="45.93121" lon="4.7279">
        <ele>171</ele>
        <time>2017-08-25T08:09:45Z</time>
      </trkpt>
      <trkpt lat="45.93126" lon="4.72784">
        <ele>171</ele>
        <time>2017-08-25T08:09:46Z</time>
      </trkpt>
      <trkpt lat="45.93131" lon="4.72779">
        <ele>171</ele>
        <time>2017-08-25T08:09:47Z</time>
      </trkpt>
      <trkpt lat="45.93135" lon="4.72773">
        <ele>171</ele>
        <time>2017-08-25T08:09:48Z</time>
      </trkpt>
      <trkpt lat="45.9314" lon="4.72767">
        <ele>171</ele>
        <time>2017-08-25T08:09:49Z</time>
      </trkpt>
      <trkpt lat="45.93145" lon="4.72761">
        <ele>171</ele>
        <time>2017-08-25T08:09:50Z</time>
      </trkpt>
      <trkpt lat="45.93149" lon="4.72755">
        <ele>170</ele>
        <time>2017-08-25T08:09:51Z</time>
      </trkpt>
      <trkpt lat="45.93154" lon="4.7275">
        <ele>170</ele>
        <time>2017-08-25T08:09:52Z</time>
      </trkpt>
      <trkpt lat="45.93159" lon="4.72745">
        <ele>170</ele>
        <time>2017-08-25T08:09:53Z</time>
      </trkpt>
      <trkpt lat="45.93163" lon="4.72739">
        <ele>170</ele>
        <time>2017-08-25T08:09:54Z</time>
      </trkpt>
      <trkpt lat="45.93167" lon="4.72734">
        <ele>170</ele>
        <time>2017-08-25T08:09:55Z</time>
      </trkpt>
      <trkpt lat="45.93171" lon="4.72729">
        <ele>170</ele>
        <time>2017-08-25T08:09:56Z</time>
      </trkpt>
      <trkpt lat="45.93175" lon="4.72723">
        <ele>170</ele>
        <time>2017-08-25T08:09:57Z</time>
      </trkpt>
      <trkpt lat="45.9318" lon="4.72718">
        <ele>169</ele>
        <time>2017-08-25T08:09:58Z</time>
      </trkpt>
      <trkpt lat="45.93184" lon="4.72712">
        <ele>169</ele>
        <time>2017-08-25T08:09:59Z</time>
      </trkpt>
      <trkpt lat="45.93188" lon="4.72707">
        <ele>169</ele>
        <time>2017-08-25T08:10:00Z</time>
      </trkpt>
      <trkpt lat="45.93193" lon="4.72702">
        <ele>169</ele>
        <time>2017-08-25T08:10:01Z</time>
      </trkpt>
      <trkpt lat="45.93198" lon="4.72696">
        <ele>169</ele>
        <time>2017-08-25T08:10:02Z</time>
      </trkpt>
      <trkpt lat="45.93203" lon="4.7269">
        <ele>169</ele>
        <time>2017-08-25T08:10:03Z</time>
      </trkpt>
      <trkpt lat="45.93208" lon="4.72684">
        <ele>169</ele>
        <time>2017-08-25T08:10:04Z</time>
      </trkpt>
      <trkpt lat="45.93213" lon="4.72677">
        <ele>169</ele>
        <time>2017-08-25T08:10:05Z</time>
      </trkpt>
      <trkpt lat="45.93218" lon="4.7267">
        <ele>169</ele>
        <time>2017-08-25T08:10:06Z</time>
      </trkpt>
      <trkpt lat="45.93224" lon="4.72664">
        <ele>170</ele>
        <time>2017-08-25T08:10:07Z</time>
      </trkpt>
      <trkpt lat="45.9323" lon="4.72659">
        <ele>169</ele>
        <time>2017-08-25T08:10:08Z</time>
      </trkpt>
      <trkpt lat="45.93235" lon="4.72653">
        <ele>169</ele>
        <time>2017-08-25T08:10:09Z</time>
      </trkpt>
      <trkpt lat="45.9324" lon="4.72648">
        <ele>170</ele>
        <time>2017-08-25T08:10:10Z</time>
      </trkpt>
      <trkpt lat="45.93245" lon="4.72642">
        <ele>170</ele>
        <time>2017-08-25T08:10:11Z</time>
      </trkpt>
      <trkpt lat="45.9325" lon="4.72637">
        <ele>170</ele>
        <time>2017-08-25T08:10:12Z</time>
      </trkpt>
      <trkpt lat="45.93255" lon="4.72632">
        <ele>170</ele>
        <time>2017-08-25T08:10:13Z</time>
      </trkpt>
      <trkpt lat="45.9326" lon="4.72626">
        <ele>170</ele>
        <time>2017-08-25T08:10:14Z</time>
      </trkpt>
      <trkpt lat="45.93264" lon="4.72621">
        <ele>170</ele>
        <time>2017-08-25T08:10:15Z</time>
      </trkpt>
      <trkpt lat="45.93269" lon="4.72615">
        <ele>170</ele>
        <time>2017-08-25T08:10:16Z</time>
      </trkpt>
      <trkpt lat="45.93273" lon="4.7261">
        <ele>170</ele>
        <time>2017-08-25T08:10:17Z</time>
      </trkpt>
      <trkpt lat="45.93278" lon="4.72605">
        <ele>170</ele>
        <time>2017-08-25T08:10:18Z</time>
      </trkpt>
      <trkpt lat="45.93282" lon="4.726">
        <ele>170</ele>
        <time>2017-08-25T08:10:19Z</time>
      </trkpt>
      <trkpt lat="45.93287" lon="4.72594">
        <ele>170</ele>
        <time>2017-08-25T08:10:20Z</time>
      </trkpt>
      <trkpt lat="45.93291" lon="4.72588">
        <ele>170</ele>
        <time>2017-08-25T08:10:21Z</time>
      </trkpt>
      <trkpt lat="45.93296" lon="4.72583">
        <ele>171</ele>
        <time>2017-08-25T08:10:22Z</time>
      </trkpt>
      <trkpt lat="45.93301" lon="4.72577">
        <ele>171</ele>
        <time>2017-08-25T08:10:23Z</time>
      </trkpt>
      <trkpt lat="45.93306" lon="4.72571">
        <ele>171</ele>
        <time>2017-08-25T08:10:24Z</time>
      </trkpt>
      <trkpt lat="45.9331" lon="4.72565">
        <ele>171</ele>
        <time>2017-08-25T08:10:25Z</time>
      </trkpt>
      <trkpt lat="45.93315" lon="4.7256">
        <ele>171</ele>
        <time>2017-08-25T08:10:26Z</time>
      </trkpt>
      <trkpt lat="45.9332" lon="4.72554">
        <ele>172</ele>
        <time>2017-08-25T08:10:27Z</time>
      </trkpt>
      <trkpt lat="45.93325" lon="4.72549">
        <ele>172</ele>
        <time>2017-08-25T08:10:28Z</time>
      </trkpt>
      <trkpt lat="45.93329" lon="4.72544">
        <ele>172</ele>
        <time>2017-08-25T08:10:29Z</time>
      </trkpt>
      <trkpt lat="45.93333" lon="4.72539">
        <ele>172</ele>
        <time>2017-08-25T08:10:30Z</time>
      </trkpt>
      <trkpt lat="45.93338" lon="4.72535">
        <ele>172</ele>
        <time>2017-08-25T08:10:31Z</time>
      </trkpt>
      <trkpt lat="45.93342" lon="4.72531">
        <ele>172</ele>
        <time>2017-08-25T08:10:32Z</time>
      </trkpt>
      <trkpt lat="45.93346" lon="4.72526">
        <ele>172</ele>
        <time>2017-08-25T08:10:33Z</time>
      </trkpt>
      <trkpt lat="45.9335" lon="4.7252">
        <ele>172</ele>
        <time>2017-08-25T08:10:34Z</time>
      </trkpt>
      <trkpt lat="45.93353" lon="4.72514">
        <ele>172</ele>
        <time>2017-08-25T08:10:35Z</time>
      </trkpt>
      <trkpt lat="45.93358" lon="4.72509">
        <ele>172</ele>
        <time>2017-08-25T08:10:36Z</time>
      </trkpt>
      <trkpt lat="45.93362" lon="4.72504">
        <ele>172</ele>
        <time>2017-08-25T08:10:37Z</time>
      </trkpt>
      <trkpt lat="45.93367" lon="4.72499">
        <ele>173</ele>
        <time>2017-08-25T08:10:38Z</time>
      </trkpt>
      <trkpt lat="45.93371" lon="4.72494">
        <ele>173</ele>
        <time>2017-08-25T08:10:39Z</time>
      </trkpt>
      <trkpt lat="45.93376" lon="4.72488">
        <ele>173</ele>
        <time>2017-08-25T08:10:40Z</time>
      </trkpt>
      <trkpt lat="45.93381" lon="4.72483">
        <ele>173</ele>
        <time>2017-08-25T08:10:41Z</time>
      </trkpt>
      <trkpt lat="45.93385" lon="4.72477">
        <ele>173</ele>
        <time>2017-08-25T08:10:42Z</time>
      </trkpt>
      <trkpt lat="45.93389" lon="4.7247">
        <ele>173</ele>
        <time>2017-08-25T08:10:43Z</time>
      </trkpt>
      <trkpt lat="45.93393" lon="4.72464">
        <ele>173</ele>
        <time>2017-08-25T08:10:44Z</time>
      </trkpt>
      <trkpt lat="45.93395" lon="4.72456">
        <ele>173</ele>
        <time>2017-08-25T08:10:45Z</time>
      </trkpt>
      <trkpt lat="45.93398" lon="4.72448">
        <ele>173</ele>
        <time>2017-08-25T08:10:46Z</time>
      </trkpt>
      <trkpt lat="45.93399" lon="4.72441">
        <ele>173</ele>
        <time>2017-08-25T08:10:47Z</time>
      </trkpt>
      <trkpt lat="45.93402" lon="4.72434">
        <ele>173</ele>
        <time>2017-08-25T08:10:48Z</time>
      </trkpt>
      <trkpt lat="45.93405" lon="4.72428">
        <ele>173</ele>
        <time>2017-08-25T08:10:49Z</time>
      </trkpt>
      <trkpt lat="45.9341" lon="4.72423">
        <ele>174</ele>
        <time>2017-08-25T08:10:50Z</time>
      </trkpt>
      <trkpt lat="45.93414" lon="4.72418">
        <ele>174</ele>
        <time>2017-08-25T08:10:51Z</time>
      </trkpt>
      <trkpt lat="45.9342" lon="4.72414">
        <ele>174</ele>
        <time>2017-08-25T08:10:52Z</time>
      </trkpt>
      <trkpt lat="45.93425" lon="4.72411">
        <ele>174</ele>
        <time>2017-08-25T08:10:53Z</time>
      </trkpt>
      <trkpt lat="45.93431" lon="4.72407">
        <ele>174</ele>
        <time>2017-08-25T08:10:54Z</time>
      </trkpt>
      <trkpt lat="45.93436" lon="4.72404">
        <ele>174</ele>
        <time>2017-08-25T08:10:55Z</time>
      </trkpt>
      <trkpt lat="45.93443" lon="4.72401">
        <ele>173</ele>
        <time>2017-08-25T08:10:56Z</time>
      </trkpt>
      <trkpt lat="45.93449" lon="4.72397">
        <ele>173</ele>
        <time>2017-08-25T08:10:57Z</time>
      </trkpt>
      <trkpt lat="45.93454" lon="4.72392">
        <ele>173</ele>
        <time>2017-08-25T08:10:58Z</time>
      </trkpt>
      <trkpt lat="45.9346" lon="4.72387">
        <ele>173</ele>
        <time>2017-08-25T08:10:59Z</time>
      </trkpt>
      <trkpt lat="45.93465" lon="4.72381">
        <ele>173</ele>
        <time>2017-08-25T08:11:00Z</time>
      </trkpt>
      <trkpt lat="45.93469" lon="4.72376">
        <ele>173</ele>
        <time>2017-08-25T08:11:01Z</time>
      </trkpt>
      <trkpt lat="45.93474" lon="4.72369">
        <ele>173</ele>
        <time>2017-08-25T08:11:02Z</time>
      </trkpt>
      <trkpt lat="45.93477" lon="4.72363">
        <ele>173</ele>
        <time>2017-08-25T08:11:03Z</time>
      </trkpt>
      <trkpt lat="45.93481" lon="4.72358">
        <ele>173</ele>
        <time>2017-08-25T08:11:04Z</time>
      </trkpt>
      <trkpt lat="45.93485" lon="4.72352">
        <ele>173</ele>
        <time>2017-08-25T08:11:05Z</time>
      </trkpt>
      <trkpt lat="45.93487" lon="4.72346">
        <ele>173</ele>
        <time>2017-08-25T08:11:06Z</time>
      </trkpt>
      <trkpt lat="45.93491" lon="4.7234">
        <ele>173</ele>
        <time>2017-08-25T08:11:07Z</time>
      </trkpt>
      <trkpt lat="45.93495" lon="4.72334">
        <ele>173</ele>
        <time>2017-08-25T08:11:08Z</time>
      </trkpt>
      <trkpt lat="45.935" lon="4.72328">
        <ele>173</ele>
        <time>2017-08-25T08:11:09Z</time>
      </trkpt>
      <trkpt lat="45.93504" lon="4.72322">
        <ele>173</ele>
        <time>2017-08-25T08:11:10Z</time>
      </trkpt>
      <trkpt lat="45.93508" lon="4.72316">
        <ele>173</ele>
        <time>2017-08-25T08:11:11Z</time>
      </trkpt>
      <trkpt lat="45.93512" lon="4.7231">
        <ele>173</ele>
        <time>2017-08-25T08:11:12Z</time>
      </trkpt>
      <trkpt lat="45.93517" lon="4.72304">
        <ele>173</ele>
        <time>2017-08-25T08:11:13Z</time>
      </trkpt>
      <trkpt lat="45.9352" lon="4.72297">
        <ele>172</ele>
        <time>2017-08-25T08:11:14Z</time>
      </trkpt>
      <trkpt lat="45.93524" lon="4.7229">
        <ele>172</ele>
        <time>2017-08-25T08:11:15Z</time>
      </trkpt>
      <trkpt lat="45.93527" lon="4.72284">
        <ele>172</ele>
        <time>2017-08-25T08:11:16Z</time>
      </trkpt>
      <trkpt lat="45.9353" lon="4.72276">
        <ele>172</ele>
        <time>2017-08-25T08:11:17Z</time>
      </trkpt>
      <trkpt lat="45.93533" lon="4.72269">
        <ele>172</ele>
        <time>2017-08-25T08:11:18Z</time>
      </trkpt>
      <trkpt lat="45.93536" lon="4.72262">
        <ele>172</ele>
        <time>2017-08-25T08:11:19Z</time>
      </trkpt>
      <trkpt lat="45.93539" lon="4.72256">
        <ele>172</ele>
        <time>2017-08-25T08:11:20Z</time>
      </trkpt>
      <trkpt lat="45.93542" lon="4.72249">
        <ele>172</ele>
        <time>2017-08-25T08:11:21Z</time>
      </trkpt>
      <trkpt lat="45.93545" lon="4.72242">
        <ele>172</ele>
        <time>2017-08-25T08:11:22Z</time>
      </trkpt>
      <trkpt lat="45.93547" lon="4.72236">
        <ele>172</ele>
        <time>2017-08-25T08:11:23Z</time>
      </trkpt>
      <trkpt lat="45.93551" lon="4.7223">
        <ele>172</ele>
        <time>2017-08-25T08:11:24Z</time>
      </trkpt>
      <trkpt lat="45.93555" lon="4.72226">
        <ele>173</ele>
        <time>2017-08-25T08:11:25Z</time>
      </trkpt>
      <trkpt lat="45.93561" lon="4.72224">
        <ele>173</ele>
        <time>2017-08-25T08:11:26Z</time>
      </trkpt>
      <trkpt lat="45.93567" lon="4.72226">
        <ele>173</ele>
        <time>2017-08-25T08:11:27Z</time>
      </trkpt>
      <trkpt lat="45.93572" lon="4.7223">
        <ele>173</ele>
        <time>2017-08-25T08:11:28Z</time>
      </trkpt>
      <trkpt lat="45.93576" lon="4.72236">
        <ele>173</ele>
        <time>2017-08-25T08:11:29Z</time>
      </trkpt>
      <trkpt lat="45.9358" lon="4.72241">
        <ele>173</ele>
        <time>2017-08-25T08:11:30Z</time>
      </trkpt>
      <trkpt lat="45.93585" lon="4.72246">
        <ele>173</ele>
        <time>2017-08-25T08:11:31Z</time>
      </trkpt>
      <trkpt lat="45.93588" lon="4.7225">
        <ele>173</ele>
        <time>2017-08-25T08:11:32Z</time>
      </trkpt>
      <trkpt lat="45.93592" lon="4.72253">
        <ele>173</ele>
        <time>2017-08-25T08:11:33Z</time>
      </trkpt>
      <trkpt lat="45.93596" lon="4.72258">
        <ele>173</ele>
        <time>2017-08-25T08:11:34Z</time>
      </trkpt>
      <trkpt lat="45.936" lon="4.72262">
        <ele>173</ele>
        <time>2017-08-25T08:11:35Z</time>
      </trkpt>
      <trkpt lat="45.93604" lon="4.72266">
        <ele>173</ele>
        <time>2017-08-25T08:11:36Z</time>
      </trkpt>
      <trkpt lat="45.93606" lon="4.72271">
        <ele>172</ele>
        <time>2017-08-25T08:11:37Z</time>
      </trkpt>
      <trkpt lat="45.93611" lon="4.72275">
        <ele>172</ele>
        <time>2017-08-25T08:11:38Z</time>
      </trkpt>
      <trkpt lat="45.93616" lon="4.72279">
        <ele>172</ele>
        <time>2017-08-25T08:11:39Z</time>
      </trkpt>
      <trkpt lat="45.9362" lon="4.72286">
        <ele>172</ele>
        <time>2017-08-25T08:11:40Z</time>
      </trkpt>
      <trkpt lat="45.93626" lon="4.72291">
        <ele>172</ele>
        <time>2017-08-25T08:11:41Z</time>
      </trkpt>
      <trkpt lat="45.93631" lon="4.72296">
        <ele>172</ele>
        <time>2017-08-25T08:11:42Z</time>
      </trkpt>
      <trkpt lat="45.93635" lon="4.72301">
        <ele>172</ele>
        <time>2017-08-25T08:11:43Z</time>
      </trkpt>
      <trkpt lat="45.9364" lon="4.72306">
        <ele>172</ele>
        <time>2017-08-25T08:11:44Z</time>
      </trkpt>
      <trkpt lat="45.93645" lon="4.7231">
        <ele>172</ele>
        <time>2017-08-25T08:11:45Z</time>
      </trkpt>
      <trkpt lat="45.9365" lon="4.72315">
        <ele>172</ele>
        <time>2017-08-25T08:11:46Z</time>
      </trkpt>
      <trkpt lat="45.93655" lon="4.72321">
        <ele>172</ele>
        <time>2017-08-25T08:11:47Z</time>
      </trkpt>
      <trkpt lat="45.93659" lon="4.72325">
        <ele>171</ele>
        <time>2017-08-25T08:11:48Z</time>
      </trkpt>
      <trkpt lat="45.93663" lon="4.7233">
        <ele>171</ele>
        <time>2017-08-25T08:11:49Z</time>
      </trkpt>
      <trkpt lat="45.93668" lon="4.72336">
        <ele>171</ele>
        <time>2017-08-25T08:11:50Z</time>
      </trkpt>
      <trkpt lat="45.93674" lon="4.72341">
        <ele>171</ele>
        <time>2017-08-25T08:11:51Z</time>
      </trkpt>
      <trkpt lat="45.93679" lon="4.72345">
        <ele>171</ele>
        <time>2017-08-25T08:11:52Z</time>
      </trkpt>
      <trkpt lat="45.93683" lon="4.72349">
        <ele>171</ele>
        <time>2017-08-25T08:11:53Z</time>
      </trkpt>
      <trkpt lat="45.93688" lon="4.72352">
        <ele>171</ele>
        <time>2017-08-25T08:11:54Z</time>
      </trkpt>
      <trkpt lat="45.93693" lon="4.72356">
        <ele>171</ele>
        <time>2017-08-25T08:11:55Z</time>
      </trkpt>
      <trkpt lat="45.93697" lon="4.72362">
        <ele>171</ele>
        <time>2017-08-25T08:11:56Z</time>
      </trkpt>
      <trkpt lat="45.93702" lon="4.72368">
        <ele>171</ele>
        <time>2017-08-25T08:11:57Z</time>
      </trkpt>
      <trkpt lat="45.93707" lon="4.72375">
        <ele>171</ele>
        <time>2017-08-25T08:11:58Z</time>
      </trkpt>
      <trkpt lat="45.93711" lon="4.72381">
        <ele>171</ele>
        <time>2017-08-25T08:11:59Z</time>
      </trkpt>
      <trkpt lat="45.93717" lon="4.72386">
        <ele>171</ele>
        <time>2017-08-25T08:12:00Z</time>
      </trkpt>
      <trkpt lat="45.93722" lon="4.7239">
        <ele>171</ele>
        <time>2017-08-25T08:12:01Z</time>
      </trkpt>
      <trkpt lat="45.93727" lon="4.72394">
        <ele>171</ele>
        <time>2017-08-25T08:12:02Z</time>
      </trkpt>
      <trkpt lat="45.93732" lon="4.72398">
        <ele>171</ele>
        <time>2017-08-25T08:12:03Z</time>
      </trkpt>
      <trkpt lat="45.93736" lon="4.72402">
        <ele>171</ele>
        <time>2017-08-25T08:12:04Z</time>
      </trkpt>
      <trkpt lat="45.93741" lon="4.72407">
        <ele>171</ele>
        <time>2017-08-25T08:12:05Z</time>
      </trkpt>
      <trkpt lat="45.93745" lon="4.72411">
        <ele>171</ele>
        <time>2017-08-25T08:12:06Z</time>
      </trkpt>
      <trkpt lat="45.9375" lon="4.72415">
        <ele>171</ele>
        <time>2017-08-25T08:12:07Z</time>
      </trkpt>
      <trkpt lat="45.93756" lon="4.72418">
        <ele>171</ele>
        <time>2017-08-25T08:12:08Z</time>
      </trkpt>
      <trkpt lat="45.93761" lon="4.72423">
        <ele>171</ele>
        <time>2017-08-25T08:12:09Z</time>
      </trkpt>
      <trkpt lat="45.93766" lon="4.72428">
        <ele>171</ele>
        <time>2017-08-25T08:12:10Z</time>
      </trkpt>
      <trkpt lat="45.93771" lon="4.72432">
        <ele>171</ele>
        <time>2017-08-25T08:12:11Z</time>
      </trkpt>
      <trkpt lat="45.93776" lon="4.72437">
        <ele>172</ele>
        <time>2017-08-25T08:12:12Z</time>
      </trkpt>
      <trkpt lat="45.93781" lon="4.72442">
        <ele>172</ele>
        <time>2017-08-25T08:12:13Z</time>
      </trkpt>
      <trkpt lat="45.93786" lon="4.72446">
        <ele>172</ele>
        <time>2017-08-25T08:12:14Z</time>
      </trkpt>
      <trkpt lat="45.93791" lon="4.72451">
        <ele>172</ele>
        <time>2017-08-25T08:12:15Z</time>
      </trkpt>
      <trkpt lat="45.93796" lon="4.72456">
        <ele>172</ele>
        <time>2017-08-25T08:12:16Z</time>
      </trkpt>
      <trkpt lat="45.938" lon="4.72461">
        <ele>172</ele>
        <time>2017-08-25T08:12:17Z</time>
      </trkpt>
      <trkpt lat="45.93804" lon="4.72466">
        <ele>172</ele>
        <time>2017-08-25T08:12:18Z</time>
      </trkpt>
      <trkpt lat="45.93808" lon="4.7247">
        <ele>172</ele>
        <time>2017-08-25T08:12:19Z</time>
      </trkpt>
      <trkpt lat="45.93813" lon="4.72474">
        <ele>172</ele>
        <time>2017-08-25T08:12:20Z</time>
      </trkpt>
      <trkpt lat="45.93817" lon="4.72478">
        <ele>172</ele>
        <time>2017-08-25T08:12:21Z</time>
      </trkpt>
      <trkpt lat="45.93822" lon="4.72482">
        <ele>173</ele>
        <time>2017-08-25T08:12:22Z</time>
      </trkpt>
      <trkpt lat="45.93826" lon="4.72485">
        <ele>173</ele>
        <time>2017-08-25T08:12:23Z</time>
      </trkpt>
      <trkpt lat="45.93831" lon="4.72488">
        <ele>173</ele>
        <time>2017-08-25T08:12:24Z</time>
      </trkpt>
      <trkpt lat="45.93835" lon="4.7249">
        <ele>173</ele>
        <time>2017-08-25T08:12:25Z</time>
      </trkpt>
      <trkpt lat="45.9384" lon="4.72489">
        <ele>173</ele>
        <time>2017-08-25T08:12:26Z</time>
      </trkpt>
      <trkpt lat="45.93849" lon="4.72498">
        <ele>173</ele>
        <time>2017-08-25T08:12:27Z</time>
      </trkpt>
      <trkpt lat="45.93858" lon="4.72507">
        <ele>173</ele>
        <time>2017-08-25T08:12:28Z</time>
      </trkpt>
      <trkpt lat="45.93868" lon="4.7251">
        <ele>173</ele>
        <time>2017-08-25T08:12:29Z</time>
      </trkpt>
      <trkpt lat="45.93872" lon="4.72514">
        <ele>173</ele>
        <time>2017-08-25T08:12:30Z</time>
      </trkpt>
      <trkpt lat="45.93877" lon="4.72515">
        <ele>173</ele>
        <time>2017-08-25T08:12:31Z</time>
      </trkpt>
      <trkpt lat="45.93882" lon="4.72514">
        <ele>173</ele>
        <time>2017-08-25T08:12:32Z</time>
      </trkpt>
      <trkpt lat="45.93887" lon="4.72511">
        <ele>173</ele>
        <time>2017-08-25T08:12:33Z</time>
      </trkpt>
      <trkpt lat="45.93891" lon="4.72505">
        <ele>173</ele>
        <time>2017-08-25T08:12:34Z</time>
      </trkpt>
      <trkpt lat="45.93895" lon="4.725">
        <ele>172</ele>
        <time>2017-08-25T08:12:35Z</time>
      </trkpt>
      <trkpt lat="45.939" lon="4.72495">
        <ele>172</ele>
        <time>2017-08-25T08:12:36Z</time>
      </trkpt>
      <trkpt lat="45.93905" lon="4.72489">
        <ele>172</ele>
        <time>2017-08-25T08:12:37Z</time>
      </trkpt>
      <trkpt lat="45.93909" lon="4.72483">
        <ele>172</ele>
        <time>2017-08-25T08:12:38Z</time>
      </trkpt>
      <trkpt lat="45.93913" lon="4.72479">
        <ele>172</ele>
        <time>2017-08-25T08:12:39Z</time>
      </trkpt>
      <trkpt lat="45.93918" lon="4.72474">
        <ele>171</ele>
        <time>2017-08-25T08:12:40Z</time>
      </trkpt>
      <trkpt lat="45.93923" lon="4.72468">
        <ele>171</ele>
        <time>2017-08-25T08:12:41Z</time>
      </trkpt>
      <trkpt lat="45.93928" lon="4.72461">
        <ele>171</ele>
        <time>2017-08-25T08:12:42Z</time>
      </trkpt>
      <trkpt lat="45.93933" lon="4.72455">
        <ele>171</ele>
        <time>2017-08-25T08:12:43Z</time>
      </trkpt>
      <trkpt lat="45.93939" lon="4.72449">
        <ele>171</ele>
        <time>2017-08-25T08:12:44Z</time>
      </trkpt>
      <trkpt lat="45.93944" lon="4.72443">
        <ele>171</ele>
        <time>2017-08-25T08:12:45Z</time>
      </trkpt>
      <trkpt lat="45.93949" lon="4.72437">
        <ele>171</ele>
        <time>2017-08-25T08:12:46Z</time>
      </trkpt>
      <trkpt lat="45.93954" lon="4.72431">
        <ele>171</ele>
        <time>2017-08-25T08:12:47Z</time>
      </trkpt>
      <trkpt lat="45.93958" lon="4.72425">
        <ele>171</ele>
        <time>2017-08-25T08:12:48Z</time>
      </trkpt>
      <trkpt lat="45.93963" lon="4.72419">
        <ele>171</ele>
        <time>2017-08-25T08:12:49Z</time>
      </trkpt>
      <trkpt lat="45.93968" lon="4.72413">
        <ele>171</ele>
        <time>2017-08-25T08:12:50Z</time>
      </trkpt>
      <trkpt lat="45.93973" lon="4.72407">
        <ele>171</ele>
        <time>2017-08-25T08:12:51Z</time>
      </trkpt>
      <trkpt lat="45.93978" lon="4.72402">
        <ele>171</ele>
        <time>2017-08-25T08:12:52Z</time>
      </trkpt>
      <trkpt lat="45.93983" lon="4.72396">
        <ele>171</ele>
        <time>2017-08-25T08:12:53Z</time>
      </trkpt>
      <trkpt lat="45.93988" lon="4.72391">
        <ele>171</ele>
        <time>2017-08-25T08:12:54Z</time>
      </trkpt>
      <trkpt lat="45.93993" lon="4.72386">
        <ele>171</ele>
        <time>2017-08-25T08:12:55Z</time>
      </trkpt>
      <trkpt lat="45.93997" lon="4.7238">
        <ele>171</ele>
        <time>2017-08-25T08:12:56Z</time>
      </trkpt>
      <trkpt lat="45.94002" lon="4.72375">
        <ele>171</ele>
        <time>2017-08-25T08:12:57Z</time>
      </trkpt>
      <trkpt lat="45.94006" lon="4.72369">
        <ele>171</ele>
        <time>2017-08-25T08:12:58Z</time>
      </trkpt>
      <trkpt lat="45.9401" lon="4.72364">
        <ele>171</ele>
        <time>2017-08-25T08:12:59Z</time>
      </trkpt>
      <trkpt lat="45.94013" lon="4.72359">
        <ele>171</ele>
        <time>2017-08-25T08:13:00Z</time>
      </trkpt>
      <trkpt lat="45.94017" lon="4.72354">
        <ele>171</ele>
        <time>2017-08-25T08:13:01Z</time>
      </trkpt>
      <trkpt lat="45.94021" lon="4.72349">
        <ele>171</ele>
        <time>2017-08-25T08:13:02Z</time>
      </trkpt>
      <trkpt lat="45.94025" lon="4.72343">
        <ele>171</ele>
        <time>2017-08-25T08:13:03Z</time>
      </trkpt>
      <trkpt lat="45.94029" lon="4.72337">
        <ele>171</ele>
        <time>2017-08-25T08:13:04Z</time>
      </trkpt>
      <trkpt lat="45.94034" lon="4.72331">
        <ele>171</ele>
        <time>2017-08-25T08:13:05Z</time>
      </trkpt>
      <trkpt lat="45.94038" lon="4.72325">
        <ele>171</ele>
        <time>2017-08-25T08:13:06Z</time>
      </trkpt>
      <trkpt lat="45.94043" lon="4.7232">
        <ele>171</ele>
        <time>2017-08-25T08:13:07Z</time>
      </trkpt>
      <trkpt lat="45.94047" lon="4.72314">
        <ele>171</ele>
        <time>2017-08-25T08:13:08Z</time>
      </trkpt>
      <trkpt lat="45.94052" lon="4.72308">
        <ele>171</ele>
        <time>2017-08-25T08:13:09Z</time>
      </trkpt>
      <trkpt lat="45.94055" lon="4.72301">
        <ele>171</ele>
        <time>2017-08-25T08:13:10Z</time>
      </trkpt>
      <trkpt lat="45.9406" lon="4.72295">
        <ele>171</ele>
        <time>2017-08-25T08:13:11Z</time>
      </trkpt>
      <trkpt lat="45.94063" lon="4.7229">
        <ele>171</ele>
        <time>2017-08-25T08:13:12Z</time>
      </trkpt>
      <trkpt lat="45.94068" lon="4.72285">
        <ele>171</ele>
        <time>2017-08-25T08:13:13Z</time>
      </trkpt>
      <trkpt lat="45.94072" lon="4.72281">
        <ele>171</ele>
        <time>2017-08-25T08:13:14Z</time>
      </trkpt>
      <trkpt lat="45.94076" lon="4.72277">
        <ele>171</ele>
        <time>2017-08-25T08:13:15Z</time>
      </trkpt>
      <trkpt lat="45.9408" lon="4.72274">
        <ele>171</ele>
        <time>2017-08-25T08:13:16Z</time>
      </trkpt>
      <trkpt lat="45.94085" lon="4.72273">
        <ele>171</ele>
        <time>2017-08-25T08:13:17Z</time>
      </trkpt>
      <trkpt lat="45.9409" lon="4.72271">
        <ele>171</ele>
        <time>2017-08-25T08:13:18Z</time>
      </trkpt>
      <trkpt lat="45.94094" lon="4.72271">
        <ele>171</ele>
        <time>2017-08-25T08:13:19Z</time>
      </trkpt>
      <trkpt lat="45.94103" lon="4.72272">
        <ele>171</ele>
        <time>2017-08-25T08:13:21Z</time>
      </trkpt>
      <trkpt lat="45.94108" lon="4.72273">
        <ele>171</ele>
        <time>2017-08-25T08:13:22Z</time>
      </trkpt>
      <trkpt lat="45.94114" lon="4.72275">
        <ele>171</ele>
        <time>2017-08-25T08:13:23Z</time>
      </trkpt>
      <trkpt lat="45.94119" lon="4.72276">
        <ele>171</ele>
        <time>2017-08-25T08:13:24Z</time>
      </trkpt>
      <trkpt lat="45.94125" lon="4.72278">
        <ele>171</ele>
        <time>2017-08-25T08:13:25Z</time>
      </trkpt>
      <trkpt lat="45.9413" lon="4.72281">
        <ele>171</ele>
        <time>2017-08-25T08:13:26Z</time>
      </trkpt>
      <trkpt lat="45.94136" lon="4.72283">
        <ele>171</ele>
        <time>2017-08-25T08:13:27Z</time>
      </trkpt>
      <trkpt lat="45.94141" lon="4.72285">
        <ele>171</ele>
        <time>2017-08-25T08:13:28Z</time>
      </trkpt>
      <trkpt lat="45.94147" lon="4.72287">
        <ele>171</ele>
        <time>2017-08-25T08:13:29Z</time>
      </trkpt>
      <trkpt lat="45.94153" lon="4.72288">
        <ele>171</ele>
        <time>2017-08-25T08:13:30Z</time>
      </trkpt>
      <trkpt lat="45.94159" lon="4.72289">
        <ele>171</ele>
        <time>2017-08-25T08:13:31Z</time>
      </trkpt>
      <trkpt lat="45.94165" lon="4.7229">
        <ele>171</ele>
        <time>2017-08-25T08:13:32Z</time>
      </trkpt>
      <trkpt lat="45.94171" lon="4.7229">
        <ele>171</ele>
        <time>2017-08-25T08:13:33Z</time>
      </trkpt>
      <trkpt lat="45.94176" lon="4.72291">
        <ele>171</ele>
        <time>2017-08-25T08:13:34Z</time>
      </trkpt>
      <trkpt lat="45.94182" lon="4.72292">
        <ele>171</ele>
        <time>2017-08-25T08:13:35Z</time>
      </trkpt>
      <trkpt lat="45.94187" lon="4.72292">
        <ele>171</ele>
        <time>2017-08-25T08:13:36Z</time>
      </trkpt>
      <trkpt lat="45.94193" lon="4.72292">
        <ele>171</ele>
        <time>2017-08-25T08:13:37Z</time>
      </trkpt>
      <trkpt lat="45.94198" lon="4.72291">
        <ele>171</ele>
        <time>2017-08-25T08:13:38Z</time>
      </trkpt>
      <trkpt lat="45.94203" lon="4.72291">
        <ele>171</ele>
        <time>2017-08-25T08:13:39Z</time>
      </trkpt>
      <trkpt lat="45.94207" lon="4.7229">
        <ele>171</ele>
        <time>2017-08-25T08:13:40Z</time>
      </trkpt>
      <trkpt lat="45.94212" lon="4.7229">
        <ele>171</ele>
        <time>2017-08-25T08:13:41Z</time>
      </trkpt>
      <trkpt lat="45.94217" lon="4.7229">
        <ele>171</ele>
        <time>2017-08-25T08:13:42Z</time>
      </trkpt>
      <trkpt lat="45.94223" lon="4.72288">
        <ele>171</ele>
        <time>2017-08-25T08:13:43Z</time>
      </trkpt>
      <trkpt lat="45.94229" lon="4.72286">
        <ele>171</ele>
        <time>2017-08-25T08:13:44Z</time>
      </trkpt>
      <trkpt lat="45.94235" lon="4.72285">
        <ele>171</ele>
        <time>2017-08-25T08:13:45Z</time>
      </trkpt>
      <trkpt lat="45.9424" lon="4.72283">
        <ele>171</ele>
        <time>2017-08-25T08:13:46Z</time>
      </trkpt>
      <trkpt lat="45.94245" lon="4.72282">
        <ele>171</ele>
        <time>2017-08-25T08:13:47Z</time>
      </trkpt>
      <trkpt lat="45.9425" lon="4.72281">
        <ele>171</ele>
        <time>2017-08-25T08:13:48Z</time>
      </trkpt>
      <trkpt lat="45.94256" lon="4.72279">
        <ele>171</ele>
        <time>2017-08-25T08:13:49Z</time>
      </trkpt>
      <trkpt lat="45.94261" lon="4.72277">
        <ele>171</ele>
        <time>2017-08-25T08:13:50Z</time>
      </trkpt>
      <trkpt lat="45.94266" lon="4.72275">
        <ele>171</ele>
        <time>2017-08-25T08:13:51Z</time>
      </trkpt>
      <trkpt lat="45.94271" lon="4.72275">
        <ele>171</ele>
        <time>2017-08-25T08:13:52Z</time>
      </trkpt>
      <trkpt lat="45.94279" lon="4.72279">
        <ele>171</ele>
        <time>2017-08-25T08:13:54Z</time>
      </trkpt>
      <trkpt lat="45.94281" lon="4.72286">
        <ele>171</ele>
        <time>2017-08-25T08:13:55Z</time>
      </trkpt>
      <trkpt lat="45.94283" lon="4.72293">
        <ele>171</ele>
        <time>2017-08-25T08:13:56Z</time>
      </trkpt>
      <trkpt lat="45.94285" lon="4.723">
        <ele>171</ele>
        <time>2017-08-25T08:13:57Z</time>
      </trkpt>
      <trkpt lat="45.94288" lon="4.72306">
        <ele>171</ele>
        <time>2017-08-25T08:13:58Z</time>
      </trkpt>
      <trkpt lat="45.94291" lon="4.72313">
        <ele>171</ele>
        <time>2017-08-25T08:13:59Z</time>
      </trkpt>
      <trkpt lat="45.94294" lon="4.7232">
        <ele>171</ele>
        <time>2017-08-25T08:14:00Z</time>
      </trkpt>
      <trkpt lat="45.94297" lon="4.72326">
        <ele>171</ele>
        <time>2017-08-25T08:14:01Z</time>
      </trkpt>
      <trkpt lat="45.943" lon="4.72332">
        <ele>171</ele>
        <time>2017-08-25T08:14:02Z</time>
      </trkpt>
      <trkpt lat="45.94303" lon="4.72338">
        <ele>172</ele>
        <time>2017-08-25T08:14:03Z</time>
      </trkpt>
      <trkpt lat="45.94306" lon="4.72345">
        <ele>172</ele>
        <time>2017-08-25T08:14:04Z</time>
      </trkpt>
      <trkpt lat="45.94309" lon="4.72352">
        <ele>172</ele>
        <time>2017-08-25T08:14:05Z</time>
      </trkpt>
      <trkpt lat="45.94312" lon="4.72359">
        <ele>172</ele>
        <time>2017-08-25T08:14:06Z</time>
      </trkpt>
      <trkpt lat="45.94315" lon="4.72365">
        <ele>172</ele>
        <time>2017-08-25T08:14:07Z</time>
      </trkpt>
      <trkpt lat="45.94317" lon="4.72372">
        <ele>172</ele>
        <time>2017-08-25T08:14:08Z</time>
      </trkpt>
      <trkpt lat="45.9432" lon="4.72378">
        <ele>172</ele>
        <time>2017-08-25T08:14:09Z</time>
      </trkpt>
      <trkpt lat="45.94323" lon="4.72383">
        <ele>172</ele>
        <time>2017-08-25T08:14:10Z</time>
      </trkpt>
      <trkpt lat="45.94325" lon="4.72389">
        <ele>172</ele>
        <time>2017-08-25T08:14:11Z</time>
      </trkpt>
      <trkpt lat="45.94327" lon="4.72396">
        <ele>172</ele>
        <time>2017-08-25T08:14:12Z</time>
      </trkpt>
      <trkpt lat="45.9433" lon="4.72403">
        <ele>173</ele>
        <time>2017-08-25T08:14:13Z</time>
      </trkpt>
      <trkpt lat="45.94334" lon="4.72409">
        <ele>173</ele>
        <time>2017-08-25T08:14:14Z</time>
      </trkpt>
      <trkpt lat="45.94336" lon="4.72416">
        <ele>173</ele>
        <time>2017-08-25T08:14:15Z</time>
      </trkpt>
      <trkpt lat="45.94339" lon="4.72423">
        <ele>173</ele>
        <time>2017-08-25T08:14:16Z</time>
      </trkpt>
      <trkpt lat="45.94342" lon="4.7243">
        <ele>173</ele>
        <time>2017-08-25T08:14:17Z</time>
      </trkpt>
      <trkpt lat="45.94345" lon="4.72437">
        <ele>173</ele>
        <time>2017-08-25T08:14:18Z</time>
      </trkpt>
      <trkpt lat="45.94348" lon="4.72445">
        <ele>173</ele>
        <time>2017-08-25T08:14:19Z</time>
      </trkpt>
      <trkpt lat="45.94351" lon="4.72452">
        <ele>173</ele>
        <time>2017-08-25T08:14:20Z</time>
      </trkpt>
      <trkpt lat="45.94354" lon="4.72459">
        <ele>173</ele>
        <time>2017-08-25T08:14:21Z</time>
      </trkpt>
      <trkpt lat="45.94357" lon="4.72465">
        <ele>173</ele>
        <time>2017-08-25T08:14:22Z</time>
      </trkpt>
      <trkpt lat="45.9436" lon="4.72472">
        <ele>173</ele>
        <time>2017-08-25T08:14:23Z</time>
      </trkpt>
      <trkpt lat="45.94362" lon="4.72479">
        <ele>173</ele>
        <time>2017-08-25T08:14:24Z</time>
      </trkpt>
      <trkpt lat="45.94365" lon="4.72485">
        <ele>173</ele>
        <time>2017-08-25T08:14:25Z</time>
      </trkpt>
      <trkpt lat="45.94368" lon="4.72491">
        <ele>173</ele>
        <time>2017-08-25T08:14:26Z</time>
      </trkpt>
      <trkpt lat="45.9437" lon="4.72498">
        <ele>173</ele>
        <time>2017-08-25T08:14:27Z</time>
      </trkpt>
      <trkpt lat="45.94372" lon="4.72505">
        <ele>173</ele>
        <time>2017-08-25T08:14:28Z</time>
      </trkpt>
      <trkpt lat="45.94374" lon="4.72511">
        <ele>173</ele>
        <time>2017-08-25T08:14:29Z</time>
      </trkpt>
      <trkpt lat="45.94378" lon="4.72522">
        <ele>174</ele>
        <time>2017-08-25T08:14:31Z</time>
      </trkpt>
      <trkpt lat="45.9438" lon="4.72529">
        <ele>174</ele>
        <time>2017-08-25T08:14:32Z</time>
      </trkpt>
      <trkpt lat="45.94381" lon="4.72536">
        <ele>174</ele>
        <time>2017-08-25T08:14:33Z</time>
      </trkpt>
      <trkpt lat="45.94383" lon="4.72543">
        <ele>173</ele>
        <time>2017-08-25T08:14:34Z</time>
      </trkpt>
      <trkpt lat="45.94385" lon="4.7255">
        <ele>173</ele>
        <time>2017-08-25T08:14:35Z</time>
      </trkpt>
      <trkpt lat="45.94386" lon="4.72557">
        <ele>173</ele>
        <time>2017-08-25T08:14:36Z</time>
      </trkpt>
      <trkpt lat="45.94387" lon="4.72566">
        <ele>173</ele>
        <time>2017-08-25T08:14:37Z</time>
      </trkpt>
      <trkpt lat="45.94388" lon="4.72574">
        <ele>173</ele>
        <time>2017-08-25T08:14:38Z</time>
      </trkpt>
      <trkpt lat="45.9439" lon="4.72583">
        <ele>173</ele>
        <time>2017-08-25T08:14:39Z</time>
      </trkpt>
      <trkpt lat="45.94391" lon="4.72592">
        <ele>173</ele>
        <time>2017-08-25T08:14:40Z</time>
      </trkpt>
      <trkpt lat="45.94392" lon="4.726">
        <ele>173</ele>
        <time>2017-08-25T08:14:41Z</time>
      </trkpt>
      <trkpt lat="45.94393" lon="4.72608">
        <ele>173</ele>
        <time>2017-08-25T08:14:42Z</time>
      </trkpt>
      <trkpt lat="45.94394" lon="4.72615">
        <ele>173</ele>
        <time>2017-08-25T08:14:43Z</time>
      </trkpt>
      <trkpt lat="45.94394" lon="4.72622">
        <ele>173</ele>
        <time>2017-08-25T08:14:44Z</time>
      </trkpt>
      <trkpt lat="45.94395" lon="4.72629">
        <ele>174</ele>
        <time>2017-08-25T08:14:45Z</time>
      </trkpt>
      <trkpt lat="45.94396" lon="4.72636">
        <ele>174</ele>
        <time>2017-08-25T08:14:46Z</time>
      </trkpt>
      <trkpt lat="45.94397" lon="4.72644">
        <ele>174</ele>
        <time>2017-08-25T08:14:47Z</time>
      </trkpt>
      <trkpt lat="45.94398" lon="4.72653">
        <ele>174</ele>
        <time>2017-08-25T08:14:48Z</time>
      </trkpt>
      <trkpt lat="45.94399" lon="4.72661">
        <ele>174</ele>
        <time>2017-08-25T08:14:49Z</time>
      </trkpt>
      <trkpt lat="45.944" lon="4.7267">
        <ele>173</ele>
        <time>2017-08-25T08:14:50Z</time>
      </trkpt>
      <trkpt lat="45.94401" lon="4.72679">
        <ele>173</ele>
        <time>2017-08-25T08:14:51Z</time>
      </trkpt>
      <trkpt lat="45.94402" lon="4.72687">
        <ele>173</ele>
        <time>2017-08-25T08:14:52Z</time>
      </trkpt>
      <trkpt lat="45.94403" lon="4.72695">
        <ele>172</ele>
        <time>2017-08-25T08:14:53Z</time>
      </trkpt>
      <trkpt lat="45.94404" lon="4.72704">
        <ele>172</ele>
        <time>2017-08-25T08:14:54Z</time>
      </trkpt>
      <trkpt lat="45.94405" lon="4.72713">
        <ele>172</ele>
        <time>2017-08-25T08:14:55Z</time>
      </trkpt>
      <trkpt lat="45.94406" lon="4.72722">
        <ele>172</ele>
        <time>2017-08-25T08:14:56Z</time>
      </trkpt>
      <trkpt lat="45.94407" lon="4.72731">
        <ele>172</ele>
        <time>2017-08-25T08:14:57Z</time>
      </trkpt>
      <trkpt lat="45.94409" lon="4.72739">
        <ele>171</ele>
        <time>2017-08-25T08:14:58Z</time>
      </trkpt>
      <trkpt lat="45.9441" lon="4.72748">
        <ele>171</ele>
        <time>2017-08-25T08:14:59Z</time>
      </trkpt>
      <trkpt lat="45.94411" lon="4.72757">
        <ele>170</ele>
        <time>2017-08-25T08:15:00Z</time>
      </trkpt>
      <trkpt lat="45.94413" lon="4.72765">
        <ele>170</ele>
        <time>2017-08-25T08:15:01Z</time>
      </trkpt>
      <trkpt lat="45.94415" lon="4.72774">
        <ele>169</ele>
        <time>2017-08-25T08:15:02Z</time>
      </trkpt>
      <trkpt lat="45.94416" lon="4.72783">
        <ele>169</ele>
        <time>2017-08-25T08:15:03Z</time>
      </trkpt>
      <trkpt lat="45.94417" lon="4.72791">
        <ele>168</ele>
        <time>2017-08-25T08:15:04Z</time>
      </trkpt>
      <trkpt lat="45.94418" lon="4.72799">
        <ele>167</ele>
        <time>2017-08-25T08:15:05Z</time>
      </trkpt>
      <trkpt lat="45.94419" lon="4.72807">
        <ele>167</ele>
        <time>2017-08-25T08:15:06Z</time>
      </trkpt>
      <trkpt lat="45.94421" lon="4.72816">
        <ele>167</ele>
        <time>2017-08-25T08:15:07Z</time>
      </trkpt>
      <trkpt lat="45.94422" lon="4.72824">
        <ele>167</ele>
        <time>2017-08-25T08:15:08Z</time>
      </trkpt>
      <trkpt lat="45.94423" lon="4.72831">
        <ele>166</ele>
        <time>2017-08-25T08:15:09Z</time>
      </trkpt>
      <trkpt lat="45.94424" lon="4.72838">
        <ele>166</ele>
        <time>2017-08-25T08:15:10Z</time>
      </trkpt>
      <trkpt lat="45.94425" lon="4.72846">
        <ele>166</ele>
        <time>2017-08-25T08:15:11Z</time>
      </trkpt>
      <trkpt lat="45.94426" lon="4.72854">
        <ele>166</ele>
        <time>2017-08-25T08:15:12Z</time>
      </trkpt>
      <trkpt lat="45.94427" lon="4.72861">
        <ele>166</ele>
        <time>2017-08-25T08:15:13Z</time>
      </trkpt>
      <trkpt lat="45.94428" lon="4.72869">
        <ele>166</ele>
        <time>2017-08-25T08:15:14Z</time>
      </trkpt>
      <trkpt lat="45.94429" lon="4.72878">
        <ele>166</ele>
        <time>2017-08-25T08:15:15Z</time>
      </trkpt>
      <trkpt lat="45.9443" lon="4.72884">
        <ele>166</ele>
        <time>2017-08-25T08:15:16Z</time>
      </trkpt>
      <trkpt lat="45.94431" lon="4.7289">
        <ele>166</ele>
        <time>2017-08-25T08:15:17Z</time>
      </trkpt>
      <trkpt lat="45.94432" lon="4.72896">
        <ele>166</ele>
        <time>2017-08-25T08:15:18Z</time>
      </trkpt>
      <trkpt lat="45.94433" lon="4.72903">
        <ele>166</ele>
        <time>2017-08-25T08:15:19Z</time>
      </trkpt>
      <trkpt lat="45.94434" lon="4.7291">
        <ele>166</ele>
        <time>2017-08-25T08:15:20Z</time>
      </trkpt>
      <trkpt lat="45.94435" lon="4.72917">
        <ele>167</ele>
        <time>2017-08-25T08:15:21Z</time>
      </trkpt>
      <trkpt lat="45.94436" lon="4.72925">
        <ele>167</ele>
        <time>2017-08-25T08:15:22Z</time>
      </trkpt>
      <trkpt lat="45.94436" lon="4.72932">
        <ele>167</ele>
        <time>2017-08-25T08:15:23Z</time>
      </trkpt>
      <trkpt lat="45.94437" lon="4.72939">
        <ele>167</ele>
        <time>2017-08-25T08:15:24Z</time>
      </trkpt>
      <trkpt lat="45.94438" lon="4.72947">
        <ele>167</ele>
        <time>2017-08-25T08:15:25Z</time>
      </trkpt>
      <trkpt lat="45.9444" lon="4.72955">
        <ele>167</ele>
        <time>2017-08-25T08:15:26Z</time>
      </trkpt>
      <trkpt lat="45.94441" lon="4.72964">
        <ele>167</ele>
        <time>2017-08-25T08:15:27Z</time>
      </trkpt>
      <trkpt lat="45.94443" lon="4.72972">
        <ele>167</ele>
        <time>2017-08-25T08:15:28Z</time>
      </trkpt>
      <trkpt lat="45.94444" lon="4.72981">
        <ele>167</ele>
        <time>2017-08-25T08:15:29Z</time>
      </trkpt>
      <trkpt lat="45.94445" lon="4.7299">
        <ele>167</ele>
        <time>2017-08-25T08:15:30Z</time>
      </trkpt>
      <trkpt lat="45.94447" lon="4.72999">
        <ele>167</ele>
        <time>2017-08-25T08:15:31Z</time>
      </trkpt>
      <trkpt lat="45.94448" lon="4.73009">
        <ele>169</ele>
        <time>2017-08-25T08:15:32Z</time>
      </trkpt>
      <trkpt lat="45.94449" lon="4.73018">
        <ele>169</ele>
        <time>2017-08-25T08:15:33Z</time>
      </trkpt>
      <trkpt lat="45.94451" lon="4.73028">
        <ele>169</ele>
        <time>2017-08-25T08:15:34Z</time>
      </trkpt>
      <trkpt lat="45.94452" lon="4.73038">
        <ele>169</ele>
        <time>2017-08-25T08:15:35Z</time>
      </trkpt>
      <trkpt lat="45.94453" lon="4.73048">
        <ele>169</ele>
        <time>2017-08-25T08:15:36Z</time>
      </trkpt>
      <trkpt lat="45.94454" lon="4.73058">
        <ele>170</ele>
        <time>2017-08-25T08:15:37Z</time>
      </trkpt>
      <trkpt lat="45.94455" lon="4.73068">
        <ele>170</ele>
        <time>2017-08-25T08:15:38Z</time>
      </trkpt>
      <trkpt lat="45.94456" lon="4.73078">
        <ele>170</ele>
        <time>2017-08-25T08:15:39Z</time>
      </trkpt>
      <trkpt lat="45.94457" lon="4.73088">
        <ele>171</ele>
        <time>2017-08-25T08:15:40Z</time>
      </trkpt>
      <trkpt lat="45.94458" lon="4.73098">
        <ele>171</ele>
        <time>2017-08-25T08:15:41Z</time>
      </trkpt>
      <trkpt lat="45.94459" lon="4.73107">
        <ele>171</ele>
        <time>2017-08-25T08:15:42Z</time>
      </trkpt>
      <trkpt lat="45.94459" lon="4.73116">
        <ele>172</ele>
        <time>2017-08-25T08:15:43Z</time>
      </trkpt>
      <trkpt lat="45.9446" lon="4.73124">
        <ele>172</ele>
        <time>2017-08-25T08:15:44Z</time>
      </trkpt>
      <trkpt lat="45.94461" lon="4.73132">
        <ele>172</ele>
        <time>2017-08-25T08:15:45Z</time>
      </trkpt>
      <trkpt lat="45.94462" lon="4.7314">
        <ele>172</ele>
        <time>2017-08-25T08:15:46Z</time>
      </trkpt>
      <trkpt lat="45.94464" lon="4.73148">
        <ele>172</ele>
        <time>2017-08-25T08:15:47Z</time>
      </trkpt>
      <trkpt lat="45.94465" lon="4.73156">
        <ele>172</ele>
        <time>2017-08-25T08:15:48Z</time>
      </trkpt>
      <trkpt lat="45.94465" lon="4.73163">
        <ele>172</ele>
        <time>2017-08-25T08:15:49Z</time>
      </trkpt>
      <trkpt lat="45.94466" lon="4.73171">
        <ele>174</ele>
        <time>2017-08-25T08:15:50Z</time>
      </trkpt>
      <trkpt lat="45.94467" lon="4.73178">
        <ele>174</ele>
        <time>2017-08-25T08:15:51Z</time>
      </trkpt>
      <trkpt lat="45.94468" lon="4.73186">
        <ele>174</ele>
        <time>2017-08-25T08:15:52Z</time>
      </trkpt>
      <trkpt lat="45.94469" lon="4.73194">
        <ele>174</ele>
        <time>2017-08-25T08:15:53Z</time>
      </trkpt>
      <trkpt lat="45.9447" lon="4.73202">
        <ele>174</ele>
        <time>2017-08-25T08:15:54Z</time>
      </trkpt>
      <trkpt lat="45.94471" lon="4.73211">
        <ele>175</ele>
        <time>2017-08-25T08:15:55Z</time>
      </trkpt>
      <trkpt lat="45.94473" lon="4.73218">
        <ele>175</ele>
        <time>2017-08-25T08:15:56Z</time>
      </trkpt>
      <trkpt lat="45.94474" lon="4.73225">
        <ele>175</ele>
        <time>2017-08-25T08:15:57Z</time>
      </trkpt>
      <trkpt lat="45.94475" lon="4.73232">
        <ele>175</ele>
        <time>2017-08-25T08:15:58Z</time>
      </trkpt>
      <trkpt lat="45.94476" lon="4.73239">
        <ele>175</ele>
        <time>2017-08-25T08:15:59Z</time>
      </trkpt>
      <trkpt lat="45.94478" lon="4.73246">
        <ele>175</ele>
        <time>2017-08-25T08:16:00Z</time>
      </trkpt>
      <trkpt lat="45.94479" lon="4.73253">
        <ele>176</ele>
        <time>2017-08-25T08:16:01Z</time>
      </trkpt>
      <trkpt lat="45.94479" lon="4.7326">
        <ele>177</ele>
        <time>2017-08-25T08:16:02Z</time>
      </trkpt>
      <trkpt lat="45.9448" lon="4.73267">
        <ele>177</ele>
        <time>2017-08-25T08:16:03Z</time>
      </trkpt>
      <trkpt lat="45.94481" lon="4.73274">
        <ele>177</ele>
        <time>2017-08-25T08:16:04Z</time>
      </trkpt>
      <trkpt lat="45.94482" lon="4.7328">
        <ele>177</ele>
        <time>2017-08-25T08:16:05Z</time>
      </trkpt>
      <trkpt lat="45.94483" lon="4.73287">
        <ele>177</ele>
        <time>2017-08-25T08:16:06Z</time>
      </trkpt>
      <trkpt lat="45.94484" lon="4.73294">
        <ele>177</ele>
        <time>2017-08-25T08:16:07Z</time>
      </trkpt>
      <trkpt lat="45.94485" lon="4.733">
        <ele>177</ele>
        <time>2017-08-25T08:16:08Z</time>
      </trkpt>
      <trkpt lat="45.94486" lon="4.73307">
        <ele>177</ele>
        <time>2017-08-25T08:16:09Z</time>
      </trkpt>
      <trkpt lat="45.94486" lon="4.73313">
        <ele>177</ele>
        <time>2017-08-25T08:16:10Z</time>
      </trkpt>
      <trkpt lat="45.94487" lon="4.73326">
        <ele>177</ele>
        <time>2017-08-25T08:16:12Z</time>
      </trkpt>
      <trkpt lat="45.94488" lon="4.73332">
        <ele>177</ele>
        <time>2017-08-25T08:16:13Z</time>
      </trkpt>
      <trkpt lat="45.94489" lon="4.73344">
        <ele>178</ele>
        <time>2017-08-25T08:16:15Z</time>
      </trkpt>
      <trkpt lat="45.94489" lon="4.7335">
        <ele>178</ele>
        <time>2017-08-25T08:16:16Z</time>
      </trkpt>
      <trkpt lat="45.9449" lon="4.73358">
        <ele>179</ele>
        <time>2017-08-25T08:16:17Z</time>
      </trkpt>
      <trkpt lat="45.94491" lon="4.73365">
        <ele>179</ele>
        <time>2017-08-25T08:16:18Z</time>
      </trkpt>
      <trkpt lat="45.94491" lon="4.73377">
        <ele>179</ele>
        <time>2017-08-25T08:16:20Z</time>
      </trkpt>
      <trkpt lat="45.94492" lon="4.73383">
        <ele>179</ele>
        <time>2017-08-25T08:16:21Z</time>
      </trkpt>
      <trkpt lat="45.94493" lon="4.73395">
        <ele>179</ele>
        <time>2017-08-25T08:16:23Z</time>
      </trkpt>
      <trkpt lat="45.94493" lon="4.73402">
        <ele>180</ele>
        <time>2017-08-25T08:16:24Z</time>
      </trkpt>
      <trkpt lat="45.94495" lon="4.73413">
        <ele>180</ele>
        <time>2017-08-25T08:16:26Z</time>
      </trkpt>
      <trkpt lat="45.94495" lon="4.73419">
        <ele>180</ele>
        <time>2017-08-25T08:16:27Z</time>
      </trkpt>
      <trkpt lat="45.94494" lon="4.73431">
        <ele>181</ele>
        <time>2017-08-25T08:16:29Z</time>
      </trkpt>
      <trkpt lat="45.94495" lon="4.73437">
        <ele>181</ele>
        <time>2017-08-25T08:16:30Z</time>
      </trkpt>
      <trkpt lat="45.94495" lon="4.73448">
        <ele>182</ele>
        <time>2017-08-25T08:16:32Z</time>
      </trkpt>
      <trkpt lat="45.94496" lon="4.73453">
        <ele>182</ele>
        <time>2017-08-25T08:16:33Z</time>
      </trkpt>
      <trkpt lat="45.94497" lon="4.73464">
        <ele>182</ele>
        <time>2017-08-25T08:16:35Z</time>
      </trkpt>
      <trkpt lat="45.94497" lon="4.7347">
        <ele>182</ele>
        <time>2017-08-25T08:16:36Z</time>
      </trkpt>
      <trkpt lat="45.94497" lon="4.73482">
        <ele>182</ele>
        <time>2017-08-25T08:16:38Z</time>
      </trkpt>
      <trkpt lat="45.94497" lon="4.73488">
        <ele>183</ele>
        <time>2017-08-25T08:16:39Z</time>
      </trkpt>
      <trkpt lat="45.94497" lon="4.73501">
        <ele>183</ele>
        <time>2017-08-25T08:16:41Z</time>
      </trkpt>
      <trkpt lat="45.94497" lon="4.73508">
        <ele>183</ele>
        <time>2017-08-25T08:16:42Z</time>
      </trkpt>
      <trkpt lat="45.94497" lon="4.7352">
        <ele>184</ele>
        <time>2017-08-25T08:16:44Z</time>
      </trkpt>
      <trkpt lat="45.94498" lon="4.73526">
        <ele>184</ele>
        <time>2017-08-25T08:16:45Z</time>
      </trkpt>
      <trkpt lat="45.94499" lon="4.73537">
        <ele>184</ele>
        <time>2017-08-25T08:16:47Z</time>
      </trkpt>
      <trkpt lat="45.945" lon="4.73544">
        <ele>183</ele>
        <time>2017-08-25T08:16:48Z</time>
      </trkpt>
      <trkpt lat="45.945" lon="4.7355">
        <ele>183</ele>
        <time>2017-08-25T08:16:49Z</time>
      </trkpt>
      <trkpt lat="45.945" lon="4.73557">
        <ele>184</ele>
        <time>2017-08-25T08:16:50Z</time>
      </trkpt>
      <trkpt lat="45.945" lon="4.73569">
        <ele>184</ele>
        <time>2017-08-25T08:16:52Z</time>
      </trkpt>
      <trkpt lat="45.945" lon="4.73576">
        <ele>184</ele>
        <time>2017-08-25T08:16:53Z</time>
      </trkpt>
      <trkpt lat="45.945" lon="4.73583">
        <ele>185</ele>
        <time>2017-08-25T08:16:54Z</time>
      </trkpt>
      <trkpt lat="45.94499" lon="4.7359">
        <ele>185</ele>
        <time>2017-08-25T08:16:55Z</time>
      </trkpt>
      <trkpt lat="45.94499" lon="4.73598">
        <ele>185</ele>
        <time>2017-08-25T08:16:56Z</time>
      </trkpt>
      <trkpt lat="45.94498" lon="4.73606">
        <ele>186</ele>
        <time>2017-08-25T08:16:57Z</time>
      </trkpt>
      <trkpt lat="45.94497" lon="4.73613">
        <ele>186</ele>
        <time>2017-08-25T08:16:58Z</time>
      </trkpt>
      <trkpt lat="45.94496" lon="4.73621">
        <ele>186</ele>
        <time>2017-08-25T08:16:59Z</time>
      </trkpt>
      <trkpt lat="45.94496" lon="4.73628">
        <ele>186</ele>
        <time>2017-08-25T08:17:00Z</time>
      </trkpt>
      <trkpt lat="45.94494" lon="4.73635">
        <ele>186</ele>
        <time>2017-08-25T08:17:01Z</time>
      </trkpt>
      <trkpt lat="45.94493" lon="4.73642">
        <ele>186</ele>
        <time>2017-08-25T08:17:02Z</time>
      </trkpt>
      <trkpt lat="45.94492" lon="4.7365">
        <ele>186</ele>
        <time>2017-08-25T08:17:03Z</time>
      </trkpt>
      <trkpt lat="45.9449" lon="4.73657">
        <ele>185</ele>
        <time>2017-08-25T08:17:04Z</time>
      </trkpt>
      <trkpt lat="45.94489" lon="4.73664">
        <ele>185</ele>
        <time>2017-08-25T08:17:05Z</time>
      </trkpt>
      <trkpt lat="45.94488" lon="4.73671">
        <ele>185</ele>
        <time>2017-08-25T08:17:06Z</time>
      </trkpt>
      <trkpt lat="45.94487" lon="4.73678">
        <ele>186</ele>
        <time>2017-08-25T08:17:07Z</time>
      </trkpt>
      <trkpt lat="45.94486" lon="4.73686">
        <ele>186</ele>
        <time>2017-08-25T08:17:08Z</time>
      </trkpt>
      <trkpt lat="45.94485" lon="4.73693">
        <ele>186</ele>
        <time>2017-08-25T08:17:09Z</time>
      </trkpt>
      <trkpt lat="45.94484" lon="4.737">
        <ele>186</ele>
        <time>2017-08-25T08:17:10Z</time>
      </trkpt>
      <trkpt lat="45.94483" lon="4.73707">
        <ele>186</ele>
        <time>2017-08-25T08:17:11Z</time>
      </trkpt>
      <trkpt lat="45.94482" lon="4.73714">
        <ele>186</ele>
        <time>2017-08-25T08:17:12Z</time>
      </trkpt>
      <trkpt lat="45.94481" lon="4.73722">
        <ele>186</ele>
        <time>2017-08-25T08:17:13Z</time>
      </trkpt>
      <trkpt lat="45.9448" lon="4.73729">
        <ele>186</ele>
        <time>2017-08-25T08:17:14Z</time>
      </trkpt>
      <trkpt lat="45.94479" lon="4.73736">
        <ele>186</ele>
        <time>2017-08-25T08:17:15Z</time>
      </trkpt>
      <trkpt lat="45.94476" lon="4.73748">
        <ele>186</ele>
        <time>2017-08-25T08:17:17Z</time>
      </trkpt>
      <trkpt lat="45.94476" lon="4.73754">
        <ele>186</ele>
        <time>2017-08-25T08:17:18Z</time>
      </trkpt>
      <trkpt lat="45.94474" lon="4.73761">
        <ele>186</ele>
        <time>2017-08-25T08:17:19Z</time>
      </trkpt>
      <trkpt lat="45.94474" lon="4.73769">
        <ele>186</ele>
        <time>2017-08-25T08:17:20Z</time>
      </trkpt>
      <trkpt lat="45.94476" lon="4.73776">
        <ele>186</ele>
        <time>2017-08-25T08:17:21Z</time>
      </trkpt>
      <trkpt lat="45.94479" lon="4.73782">
        <ele>186</ele>
        <time>2017-08-25T08:17:22Z</time>
      </trkpt>
      <trkpt lat="45.94483" lon="4.73786">
        <ele>186</ele>
        <time>2017-08-25T08:17:23Z</time>
      </trkpt>
      <trkpt lat="45.94487" lon="4.73789">
        <ele>186</ele>
        <time>2017-08-25T08:17:24Z</time>
      </trkpt>
      <trkpt lat="45.94492" lon="4.73792">
        <ele>185</ele>
        <time>2017-08-25T08:17:25Z</time>
      </trkpt>
      <trkpt lat="45.94496" lon="4.73796">
        <ele>185</ele>
        <time>2017-08-25T08:17:26Z</time>
      </trkpt>
      <trkpt lat="45.94504" lon="4.73802">
        <ele>186</ele>
        <time>2017-08-25T08:17:28Z</time>
      </trkpt>
      <trkpt lat="45.94508" lon="4.73805">
        <ele>186</ele>
        <time>2017-08-25T08:17:29Z</time>
      </trkpt>
      <trkpt lat="45.94511" lon="4.73809">
        <ele>186</ele>
        <time>2017-08-25T08:17:30Z</time>
      </trkpt>
      <trkpt lat="45.94516" lon="4.73813">
        <ele>186</ele>
        <time>2017-08-25T08:17:31Z</time>
      </trkpt>
      <trkpt lat="45.94521" lon="4.73821">
        <ele>186</ele>
        <time>2017-08-25T08:17:33Z</time>
      </trkpt>
      <trkpt lat="45.94524" lon="4.73824">
        <ele>186</ele>
        <time>2017-08-25T08:17:34Z</time>
      </trkpt>
      <trkpt lat="45.94531" lon="4.7383">
        <ele>186</ele>
        <time>2017-08-25T08:17:36Z</time>
      </trkpt>
      <trkpt lat="45.94535" lon="4.73833">
        <ele>186</ele>
        <time>2017-08-25T08:17:37Z</time>
      </trkpt>
      <trkpt lat="45.94539" lon="4.73836">
        <ele>186</ele>
        <time>2017-08-25T08:17:38Z</time>
      </trkpt>
      <trkpt lat="45.94542" lon="4.7384">
        <ele>186</ele>
        <time>2017-08-25T08:17:39Z</time>
      </trkpt>
      <trkpt lat="45.94546" lon="4.73844">
        <ele>186</ele>
        <time>2017-08-25T08:17:40Z</time>
      </trkpt>
      <trkpt lat="45.9455" lon="4.73848">
        <ele>186</ele>
        <time>2017-08-25T08:17:41Z</time>
      </trkpt>
      <trkpt lat="45.94554" lon="4.73852">
        <ele>186</ele>
        <time>2017-08-25T08:17:42Z</time>
      </trkpt>
      <trkpt lat="45.94558" lon="4.73856">
        <ele>186</ele>
        <time>2017-08-25T08:17:43Z</time>
      </trkpt>
      <trkpt lat="45.94562" lon="4.7386">
        <ele>186</ele>
        <time>2017-08-25T08:17:44Z</time>
      </trkpt>
      <trkpt lat="45.94567" lon="4.73864">
        <ele>186</ele>
        <time>2017-08-25T08:17:45Z</time>
      </trkpt>
      <trkpt lat="45.94571" lon="4.73868">
        <ele>186</ele>
        <time>2017-08-25T08:17:46Z</time>
      </trkpt>
      <trkpt lat="45.94574" lon="4.73872">
        <ele>186</ele>
        <time>2017-08-25T08:17:47Z</time>
      </trkpt>
      <trkpt lat="45.94578" lon="4.73876">
        <ele>186</ele>
        <time>2017-08-25T08:17:48Z</time>
      </trkpt>
      <trkpt lat="45.94582" lon="4.73883">
        <ele>186</ele>
        <time>2017-08-25T08:17:49Z</time>
      </trkpt>
      <trkpt lat="45.94586" lon="4.73888">
        <ele>187</ele>
        <time>2017-08-25T08:17:50Z</time>
      </trkpt>
      <trkpt lat="45.9459" lon="4.73891">
        <ele>187</ele>
        <time>2017-08-25T08:17:51Z</time>
      </trkpt>
      <trkpt lat="45.94597" lon="4.73898">
        <ele>187</ele>
        <time>2017-08-25T08:17:53Z</time>
      </trkpt>
      <trkpt lat="45.946" lon="4.73901">
        <ele>187</ele>
        <time>2017-08-25T08:17:54Z</time>
      </trkpt>
      <trkpt lat="45.94606" lon="4.73908">
        <ele>187</ele>
        <time>2017-08-25T08:17:56Z</time>
      </trkpt>
      <trkpt lat="45.94609" lon="4.73912">
        <ele>187</ele>
        <time>2017-08-25T08:17:57Z</time>
      </trkpt>
      <trkpt lat="45.94612" lon="4.73916">
        <ele>187</ele>
        <time>2017-08-25T08:17:58Z</time>
      </trkpt>
      <trkpt lat="45.94616" lon="4.7392">
        <ele>187</ele>
        <time>2017-08-25T08:17:59Z</time>
      </trkpt>
      <trkpt lat="45.9462" lon="4.73925">
        <ele>187</ele>
        <time>2017-08-25T08:18:00Z</time>
      </trkpt>
      <trkpt lat="45.94623" lon="4.7393">
        <ele>187</ele>
        <time>2017-08-25T08:18:01Z</time>
      </trkpt>
      <trkpt lat="45.94627" lon="4.73935">
        <ele>187</ele>
        <time>2017-08-25T08:18:02Z</time>
      </trkpt>
      <trkpt lat="45.94631" lon="4.73939">
        <ele>187</ele>
        <time>2017-08-25T08:18:03Z</time>
      </trkpt>
      <trkpt lat="45.94635" lon="4.73943">
        <ele>187</ele>
        <time>2017-08-25T08:18:04Z</time>
      </trkpt>
      <trkpt lat="45.94638" lon="4.73948">
        <ele>187</ele>
        <time>2017-08-25T08:18:05Z</time>
      </trkpt>
      <trkpt lat="45.94644" lon="4.73955">
        <ele>187</ele>
        <time>2017-08-25T08:18:07Z</time>
      </trkpt>
      <trkpt lat="45.94647" lon="4.73959">
        <ele>187</ele>
        <time>2017-08-25T08:18:08Z</time>
      </trkpt>
      <trkpt lat="45.94653" lon="4.73967">
        <ele>187</ele>
        <time>2017-08-25T08:18:10Z</time>
      </trkpt>
      <trkpt lat="45.94656" lon="4.73972">
        <ele>187</ele>
        <time>2017-08-25T08:18:11Z</time>
      </trkpt>
      <trkpt lat="45.94659" lon="4.73976">
        <ele>187</ele>
        <time>2017-08-25T08:18:12Z</time>
      </trkpt>
      <trkpt lat="45.94663" lon="4.73981">
        <ele>187</ele>
        <time>2017-08-25T08:18:13Z</time>
      </trkpt>
      <trkpt lat="45.94667" lon="4.73986">
        <ele>187</ele>
        <time>2017-08-25T08:18:14Z</time>
      </trkpt>
      <trkpt lat="45.94671" lon="4.73991">
        <ele>187</ele>
        <time>2017-08-25T08:18:15Z</time>
      </trkpt>
      <trkpt lat="45.94675" lon="4.73996">
        <ele>187</ele>
        <time>2017-08-25T08:18:16Z</time>
      </trkpt>
      <trkpt lat="45.94678" lon="4.74">
        <ele>187</ele>
        <time>2017-08-25T08:18:17Z</time>
      </trkpt>
      <trkpt lat="45.94682" lon="4.74005">
        <ele>187</ele>
        <time>2017-08-25T08:18:18Z</time>
      </trkpt>
      <trkpt lat="45.94685" lon="4.74009">
        <ele>187</ele>
        <time>2017-08-25T08:18:19Z</time>
      </trkpt>
      <trkpt lat="45.94689" lon="4.74014">
        <ele>187</ele>
        <time>2017-08-25T08:18:20Z</time>
      </trkpt>
      <trkpt lat="45.94693" lon="4.74018">
        <ele>187</ele>
        <time>2017-08-25T08:18:21Z</time>
      </trkpt>
      <trkpt lat="45.94696" lon="4.74022">
        <ele>187</ele>
        <time>2017-08-25T08:18:22Z</time>
      </trkpt>
      <trkpt lat="45.947" lon="4.74027">
        <ele>187</ele>
        <time>2017-08-25T08:18:23Z</time>
      </trkpt>
      <trkpt lat="45.94706" lon="4.74036">
        <ele>187</ele>
        <time>2017-08-25T08:18:25Z</time>
      </trkpt>
      <trkpt lat="45.9471" lon="4.74041">
        <ele>187</ele>
        <time>2017-08-25T08:18:26Z</time>
      </trkpt>
      <trkpt lat="45.94714" lon="4.74046">
        <ele>187</ele>
        <time>2017-08-25T08:18:27Z</time>
      </trkpt>
      <trkpt lat="45.94717" lon="4.74051">
        <ele>187</ele>
        <time>2017-08-25T08:18:28Z</time>
      </trkpt>
      <trkpt lat="45.94721" lon="4.74056">
        <ele>187</ele>
        <time>2017-08-25T08:18:29Z</time>
      </trkpt>
      <trkpt lat="45.94725" lon="4.7406">
        <ele>188</ele>
        <time>2017-08-25T08:18:30Z</time>
      </trkpt>
      <trkpt lat="45.94732" lon="4.74067">
        <ele>188</ele>
        <time>2017-08-25T08:18:32Z</time>
      </trkpt>
      <trkpt lat="45.94736" lon="4.74072">
        <ele>188</ele>
        <time>2017-08-25T08:18:33Z</time>
      </trkpt>
      <trkpt lat="45.9474" lon="4.74077">
        <ele>188</ele>
        <time>2017-08-25T08:18:34Z</time>
      </trkpt>
      <trkpt lat="45.94743" lon="4.74082">
        <ele>189</ele>
        <time>2017-08-25T08:18:35Z</time>
      </trkpt>
      <trkpt lat="45.94747" lon="4.74086">
        <ele>189</ele>
        <time>2017-08-25T08:18:36Z</time>
      </trkpt>
      <trkpt lat="45.94751" lon="4.74092">
        <ele>189</ele>
        <time>2017-08-25T08:18:37Z</time>
      </trkpt>
      <trkpt lat="45.94755" lon="4.74097">
        <ele>189</ele>
        <time>2017-08-25T08:18:38Z</time>
      </trkpt>
      <trkpt lat="45.94758" lon="4.74102">
        <ele>189</ele>
        <time>2017-08-25T08:18:39Z</time>
      </trkpt>
      <trkpt lat="45.94762" lon="4.74106">
        <ele>189</ele>
        <time>2017-08-25T08:18:40Z</time>
      </trkpt>
      <trkpt lat="45.94765" lon="4.7411">
        <ele>189</ele>
        <time>2017-08-25T08:18:41Z</time>
      </trkpt>
      <trkpt lat="45.94771" lon="4.74119">
        <ele>189</ele>
        <time>2017-08-25T08:18:43Z</time>
      </trkpt>
      <trkpt lat="45.94773" lon="4.74123">
        <ele>189</ele>
        <time>2017-08-25T08:18:44Z</time>
      </trkpt>
      <trkpt lat="45.94778" lon="4.7413">
        <ele>189</ele>
        <time>2017-08-25T08:18:46Z</time>
      </trkpt>
      <trkpt lat="45.94782" lon="4.74135">
        <ele>189</ele>
        <time>2017-08-25T08:18:47Z</time>
      </trkpt>
      <trkpt lat="45.94785" lon="4.74141">
        <ele>189</ele>
        <time>2017-08-25T08:18:48Z</time>
      </trkpt>
      <trkpt lat="45.94788" lon="4.74146">
        <ele>189</ele>
        <time>2017-08-25T08:18:49Z</time>
      </trkpt>
      <trkpt lat="45.94792" lon="4.74153">
        <ele>189</ele>
        <time>2017-08-25T08:18:50Z</time>
      </trkpt>
      <trkpt lat="45.94796" lon="4.7416">
        <ele>189</ele>
        <time>2017-08-25T08:18:51Z</time>
      </trkpt>
      <trkpt lat="45.948" lon="4.74166">
        <ele>189</ele>
        <time>2017-08-25T08:18:52Z</time>
      </trkpt>
      <trkpt lat="45.94804" lon="4.74172">
        <ele>189</ele>
        <time>2017-08-25T08:18:53Z</time>
      </trkpt>
      <trkpt lat="45.94807" lon="4.74178">
        <ele>189</ele>
        <time>2017-08-25T08:18:54Z</time>
      </trkpt>
      <trkpt lat="45.9481" lon="4.74184">
        <ele>189</ele>
        <time>2017-08-25T08:18:55Z</time>
      </trkpt>
      <trkpt lat="45.94814" lon="4.7419">
        <ele>189</ele>
        <time>2017-08-25T08:18:56Z</time>
      </trkpt>
      <trkpt lat="45.94817" lon="4.74196">
        <ele>189</ele>
        <time>2017-08-25T08:18:57Z</time>
      </trkpt>
      <trkpt lat="45.9482" lon="4.74203">
        <ele>189</ele>
        <time>2017-08-25T08:18:58Z</time>
      </trkpt>
      <trkpt lat="45.94823" lon="4.74209">
        <ele>188</ele>
        <time>2017-08-25T08:18:59Z</time>
      </trkpt>
      <trkpt lat="45.94825" lon="4.74215">
        <ele>188</ele>
        <time>2017-08-25T08:19:00Z</time>
      </trkpt>
      <trkpt lat="45.94828" lon="4.7422">
        <ele>188</ele>
        <time>2017-08-25T08:19:01Z</time>
      </trkpt>
      <trkpt lat="45.94831" lon="4.74225">
        <ele>188</ele>
        <time>2017-08-25T08:19:02Z</time>
      </trkpt>
      <trkpt lat="45.94834" lon="4.74231">
        <ele>190</ele>
        <time>2017-08-25T08:19:03Z</time>
      </trkpt>
      <trkpt lat="45.94836" lon="4.74237">
        <ele>190</ele>
        <time>2017-08-25T08:19:04Z</time>
      </trkpt>
      <trkpt lat="45.9484" lon="4.74243">
        <ele>189</ele>
        <time>2017-08-25T08:19:05Z</time>
      </trkpt>
      <trkpt lat="45.94843" lon="4.7425">
        <ele>189</ele>
        <time>2017-08-25T08:19:06Z</time>
      </trkpt>
      <trkpt lat="45.94847" lon="4.74256">
        <ele>190</ele>
        <time>2017-08-25T08:19:07Z</time>
      </trkpt>
      <trkpt lat="45.94851" lon="4.74263">
        <ele>190</ele>
        <time>2017-08-25T08:19:08Z</time>
      </trkpt>
      <trkpt lat="45.94855" lon="4.74269">
        <ele>190</ele>
        <time>2017-08-25T08:19:09Z</time>
      </trkpt>
      <trkpt lat="45.94859" lon="4.74275">
        <ele>190</ele>
        <time>2017-08-25T08:19:10Z</time>
      </trkpt>
      <trkpt lat="45.94863" lon="4.74282">
        <ele>191</ele>
        <time>2017-08-25T08:19:11Z</time>
      </trkpt>
      <trkpt lat="45.94866" lon="4.74288">
        <ele>191</ele>
        <time>2017-08-25T08:19:12Z</time>
      </trkpt>
      <trkpt lat="45.9487" lon="4.74294">
        <ele>191</ele>
        <time>2017-08-25T08:19:13Z</time>
      </trkpt>
      <trkpt lat="45.94872" lon="4.74299">
        <ele>191</ele>
        <time>2017-08-25T08:19:14Z</time>
      </trkpt>
      <trkpt lat="45.94875" lon="4.74304">
        <ele>191</ele>
        <time>2017-08-25T08:19:15Z</time>
      </trkpt>
      <trkpt lat="45.94878" lon="4.7431">
        <ele>191</ele>
        <time>2017-08-25T08:19:16Z</time>
      </trkpt>
      <trkpt lat="45.94881" lon="4.74315">
        <ele>191</ele>
        <time>2017-08-25T08:19:17Z</time>
      </trkpt>
      <trkpt lat="45.94883" lon="4.74321">
        <ele>191</ele>
        <time>2017-08-25T08:19:18Z</time>
      </trkpt>
      <trkpt lat="45.94886" lon="4.74327">
        <ele>191</ele>
        <time>2017-08-25T08:19:19Z</time>
      </trkpt>
      <trkpt lat="45.94889" lon="4.74333">
        <ele>191</ele>
        <time>2017-08-25T08:19:20Z</time>
      </trkpt>
      <trkpt lat="45.94893" lon="4.74338">
        <ele>191</ele>
        <time>2017-08-25T08:19:21Z</time>
      </trkpt>
      <trkpt lat="45.94896" lon="4.74346">
        <ele>191</ele>
        <time>2017-08-25T08:19:22Z</time>
      </trkpt>
      <trkpt lat="45.94899" lon="4.74352">
        <ele>191</ele>
        <time>2017-08-25T08:19:23Z</time>
      </trkpt>
      <trkpt lat="45.94902" lon="4.74358">
        <ele>191</ele>
        <time>2017-08-25T08:19:24Z</time>
      </trkpt>
      <trkpt lat="45.94905" lon="4.74364">
        <ele>191</ele>
        <time>2017-08-25T08:19:25Z</time>
      </trkpt>
      <trkpt lat="45.94908" lon="4.7437">
        <ele>191</ele>
        <time>2017-08-25T08:19:26Z</time>
      </trkpt>
      <trkpt lat="45.94911" lon="4.74375">
        <ele>191</ele>
        <time>2017-08-25T08:19:27Z</time>
      </trkpt>
      <trkpt lat="45.94917" lon="4.74385">
        <ele>191</ele>
        <time>2017-08-25T08:19:29Z</time>
      </trkpt>
      <trkpt lat="45.94919" lon="4.7439">
        <ele>192</ele>
        <time>2017-08-25T08:19:30Z</time>
      </trkpt>
      <trkpt lat="45.94922" lon="4.74396">
        <ele>192</ele>
        <time>2017-08-25T08:19:31Z</time>
      </trkpt>
      <trkpt lat="45.94925" lon="4.74401">
        <ele>192</ele>
        <time>2017-08-25T08:19:32Z</time>
      </trkpt>
      <trkpt lat="45.94928" lon="4.74407">
        <ele>192</ele>
        <time>2017-08-25T08:19:33Z</time>
      </trkpt>
      <trkpt lat="45.94932" lon="4.74413">
        <ele>192</ele>
        <time>2017-08-25T08:19:34Z</time>
      </trkpt>
      <trkpt lat="45.94935" lon="4.74419">
        <ele>192</ele>
        <time>2017-08-25T08:19:35Z</time>
      </trkpt>
      <trkpt lat="45.94938" lon="4.74425">
        <ele>192</ele>
        <time>2017-08-25T08:19:36Z</time>
      </trkpt>
      <trkpt lat="45.94941" lon="4.74431">
        <ele>192</ele>
        <time>2017-08-25T08:19:37Z</time>
      </trkpt>
      <trkpt lat="45.94944" lon="4.74437">
        <ele>192</ele>
        <time>2017-08-25T08:19:38Z</time>
      </trkpt>
      <trkpt lat="45.94946" lon="4.74443">
        <ele>192</ele>
        <time>2017-08-25T08:19:39Z</time>
      </trkpt>
      <trkpt lat="45.94949" lon="4.74448">
        <ele>192</ele>
        <time>2017-08-25T08:19:40Z</time>
      </trkpt>
      <trkpt lat="45.94952" lon="4.74453">
        <ele>192</ele>
        <time>2017-08-25T08:19:41Z</time>
      </trkpt>
      <trkpt lat="45.94954" lon="4.74459">
        <ele>193</ele>
        <time>2017-08-25T08:19:42Z</time>
      </trkpt>
      <trkpt lat="45.94957" lon="4.74464">
        <ele>193</ele>
        <time>2017-08-25T08:19:43Z</time>
      </trkpt>
      <trkpt lat="45.9496" lon="4.74471">
        <ele>193</ele>
        <time>2017-08-25T08:19:44Z</time>
      </trkpt>
      <trkpt lat="45.94963" lon="4.74477">
        <ele>193</ele>
        <time>2017-08-25T08:19:45Z</time>
      </trkpt>
      <trkpt lat="45.94967" lon="4.74484">
        <ele>193</ele>
        <time>2017-08-25T08:19:46Z</time>
      </trkpt>
      <trkpt lat="45.9497" lon="4.7449">
        <ele>193</ele>
        <time>2017-08-25T08:19:47Z</time>
      </trkpt>
      <trkpt lat="45.94973" lon="4.74496">
        <ele>193</ele>
        <time>2017-08-25T08:19:48Z</time>
      </trkpt>
      <trkpt lat="45.94976" lon="4.74502">
        <ele>193</ele>
        <time>2017-08-25T08:19:49Z</time>
      </trkpt>
      <trkpt lat="45.94979" lon="4.74508">
        <ele>193</ele>
        <time>2017-08-25T08:19:50Z</time>
      </trkpt>
      <trkpt lat="45.94985" lon="4.74518">
        <ele>193</ele>
        <time>2017-08-25T08:19:52Z</time>
      </trkpt>
      <trkpt lat="45.94988" lon="4.74523">
        <ele>193</ele>
        <time>2017-08-25T08:19:53Z</time>
      </trkpt>
      <trkpt lat="45.94991" lon="4.74528">
        <ele>193</ele>
        <time>2017-08-25T08:19:54Z</time>
      </trkpt>
      <trkpt lat="45.94994" lon="4.74533">
        <ele>193</ele>
        <time>2017-08-25T08:19:55Z</time>
      </trkpt>
      <trkpt lat="45.94997" lon="4.74539">
        <ele>193</ele>
        <time>2017-08-25T08:19:56Z</time>
      </trkpt>
      <trkpt lat="45.95" lon="4.74545">
        <ele>194</ele>
        <time>2017-08-25T08:19:57Z</time>
      </trkpt>
      <trkpt lat="45.95003" lon="4.74551">
        <ele>194</ele>
        <time>2017-08-25T08:19:58Z</time>
      </trkpt>
      <trkpt lat="45.95006" lon="4.74557">
        <ele>194</ele>
        <time>2017-08-25T08:19:59Z</time>
      </trkpt>
      <trkpt lat="45.95009" lon="4.74563">
        <ele>194</ele>
        <time>2017-08-25T08:20:00Z</time>
      </trkpt>
      <trkpt lat="45.95012" lon="4.7457">
        <ele>194</ele>
        <time>2017-08-25T08:20:01Z</time>
      </trkpt>
      <trkpt lat="45.95015" lon="4.74576">
        <ele>194</ele>
        <time>2017-08-25T08:20:02Z</time>
      </trkpt>
      <trkpt lat="45.95019" lon="4.74581">
        <ele>194</ele>
        <time>2017-08-25T08:20:03Z</time>
      </trkpt>
      <trkpt lat="45.95022" lon="4.74587">
        <ele>194</ele>
        <time>2017-08-25T08:20:04Z</time>
      </trkpt>
      <trkpt lat="45.95025" lon="4.74593">
        <ele>194</ele>
        <time>2017-08-25T08:20:05Z</time>
      </trkpt>
      <trkpt lat="45.95027" lon="4.74598">
        <ele>194</ele>
        <time>2017-08-25T08:20:06Z</time>
      </trkpt>
      <trkpt lat="45.95031" lon="4.74603">
        <ele>194</ele>
        <time>2017-08-25T08:20:07Z</time>
      </trkpt>
      <trkpt lat="45.95034" lon="4.74609">
        <ele>194</ele>
        <time>2017-08-25T08:20:08Z</time>
      </trkpt>
      <trkpt lat="45.95037" lon="4.74615">
        <ele>194</ele>
        <time>2017-08-25T08:20:09Z</time>
      </trkpt>
      <trkpt lat="45.95041" lon="4.74621">
        <ele>194</ele>
        <time>2017-08-25T08:20:10Z</time>
      </trkpt>
      <trkpt lat="45.95045" lon="4.74628">
        <ele>194</ele>
        <time>2017-08-25T08:20:11Z</time>
      </trkpt>
      <trkpt lat="45.95049" lon="4.74635">
        <ele>194</ele>
        <time>2017-08-25T08:20:12Z</time>
      </trkpt>
      <trkpt lat="45.95053" lon="4.74641">
        <ele>194</ele>
        <time>2017-08-25T08:20:13Z</time>
      </trkpt>
      <trkpt lat="45.95056" lon="4.74647">
        <ele>194</ele>
        <time>2017-08-25T08:20:14Z</time>
      </trkpt>
      <trkpt lat="45.9506" lon="4.74653">
        <ele>194</ele>
        <time>2017-08-25T08:20:15Z</time>
      </trkpt>
      <trkpt lat="45.95064" lon="4.74659">
        <ele>195</ele>
        <time>2017-08-25T08:20:16Z</time>
      </trkpt>
      <trkpt lat="45.95067" lon="4.74665">
        <ele>195</ele>
        <time>2017-08-25T08:20:17Z</time>
      </trkpt>
      <trkpt lat="45.9507" lon="4.74671">
        <ele>194</ele>
        <time>2017-08-25T08:20:18Z</time>
      </trkpt>
      <trkpt lat="45.95073" lon="4.74677">
        <ele>194</ele>
        <time>2017-08-25T08:20:19Z</time>
      </trkpt>
      <trkpt lat="45.95076" lon="4.74682">
        <ele>194</ele>
        <time>2017-08-25T08:20:20Z</time>
      </trkpt>
      <trkpt lat="45.9508" lon="4.74688">
        <ele>194</ele>
        <time>2017-08-25T08:20:21Z</time>
      </trkpt>
      <trkpt lat="45.95083" lon="4.74694">
        <ele>194</ele>
        <time>2017-08-25T08:20:22Z</time>
      </trkpt>
      <trkpt lat="45.95086" lon="4.74701">
        <ele>194</ele>
        <time>2017-08-25T08:20:23Z</time>
      </trkpt>
      <trkpt lat="45.9509" lon="4.74707">
        <ele>194</ele>
        <time>2017-08-25T08:20:24Z</time>
      </trkpt>
      <trkpt lat="45.95094" lon="4.74714">
        <ele>194</ele>
        <time>2017-08-25T08:20:25Z</time>
      </trkpt>
      <trkpt lat="45.95097" lon="4.7472">
        <ele>194</ele>
        <time>2017-08-25T08:20:26Z</time>
      </trkpt>
      <trkpt lat="45.95101" lon="4.74728">
        <ele>194</ele>
        <time>2017-08-25T08:20:27Z</time>
      </trkpt>
      <trkpt lat="45.95106" lon="4.74734">
        <ele>194</ele>
        <time>2017-08-25T08:20:28Z</time>
      </trkpt>
      <trkpt lat="45.95109" lon="4.7474">
        <ele>194</ele>
        <time>2017-08-25T08:20:29Z</time>
      </trkpt>
      <trkpt lat="45.95113" lon="4.74746">
        <ele>194</ele>
        <time>2017-08-25T08:20:30Z</time>
      </trkpt>
      <trkpt lat="45.95116" lon="4.74751">
        <ele>194</ele>
        <time>2017-08-25T08:20:31Z</time>
      </trkpt>
      <trkpt lat="45.9512" lon="4.74756">
        <ele>194</ele>
        <time>2017-08-25T08:20:32Z</time>
      </trkpt>
      <trkpt lat="45.95123" lon="4.74761">
        <ele>194</ele>
        <time>2017-08-25T08:20:33Z</time>
      </trkpt>
      <trkpt lat="45.95126" lon="4.74766">
        <ele>194</ele>
        <time>2017-08-25T08:20:34Z</time>
      </trkpt>
      <trkpt lat="45.95129" lon="4.74771">
        <ele>194</ele>
        <time>2017-08-25T08:20:35Z</time>
      </trkpt>
      <trkpt lat="45.95132" lon="4.74777">
        <ele>194</ele>
        <time>2017-08-25T08:20:36Z</time>
      </trkpt>
      <trkpt lat="45.95136" lon="4.74782">
        <ele>194</ele>
        <time>2017-08-25T08:20:37Z</time>
      </trkpt>
      <trkpt lat="45.95139" lon="4.74787">
        <ele>194</ele>
        <time>2017-08-25T08:20:38Z</time>
      </trkpt>
      <trkpt lat="45.95143" lon="4.74793">
        <ele>194</ele>
        <time>2017-08-25T08:20:39Z</time>
      </trkpt>
      <trkpt lat="45.95147" lon="4.748">
        <ele>194</ele>
        <time>2017-08-25T08:20:40Z</time>
      </trkpt>
      <trkpt lat="45.9515" lon="4.74807">
        <ele>194</ele>
        <time>2017-08-25T08:20:41Z</time>
      </trkpt>
      <trkpt lat="45.95154" lon="4.74813">
        <ele>194</ele>
        <time>2017-08-25T08:20:42Z</time>
      </trkpt>
      <trkpt lat="45.95158" lon="4.74819">
        <ele>194</ele>
        <time>2017-08-25T08:20:43Z</time>
      </trkpt>
      <trkpt lat="45.95161" lon="4.74824">
        <ele>194</ele>
        <time>2017-08-25T08:20:44Z</time>
      </trkpt>
      <trkpt lat="45.95165" lon="4.7483">
        <ele>194</ele>
        <time>2017-08-25T08:20:45Z</time>
      </trkpt>
      <trkpt lat="45.95168" lon="4.74836">
        <ele>194</ele>
        <time>2017-08-25T08:20:46Z</time>
      </trkpt>
      <trkpt lat="45.95171" lon="4.74841">
        <ele>194</ele>
        <time>2017-08-25T08:20:47Z</time>
      </trkpt>
      <trkpt lat="45.95173" lon="4.74846">
        <ele>194</ele>
        <time>2017-08-25T08:20:48Z</time>
      </trkpt>
      <trkpt lat="45.95176" lon="4.74851">
        <ele>194</ele>
        <time>2017-08-25T08:20:49Z</time>
      </trkpt>
      <trkpt lat="45.95179" lon="4.74857">
        <ele>194</ele>
        <time>2017-08-25T08:20:50Z</time>
      </trkpt>
      <trkpt lat="45.95182" lon="4.74863">
        <ele>194</ele>
        <time>2017-08-25T08:20:51Z</time>
      </trkpt>
      <trkpt lat="45.95186" lon="4.7487">
        <ele>194</ele>
        <time>2017-08-25T08:20:52Z</time>
      </trkpt>
      <trkpt lat="45.9519" lon="4.74876">
        <ele>194</ele>
        <time>2017-08-25T08:20:53Z</time>
      </trkpt>
      <trkpt lat="45.95194" lon="4.74881">
        <ele>194</ele>
        <time>2017-08-25T08:20:54Z</time>
      </trkpt>
      <trkpt lat="45.95198" lon="4.7489">
        <ele>194</ele>
        <time>2017-08-25T08:20:55Z</time>
      </trkpt>
      <trkpt lat="45.95201" lon="4.74896">
        <ele>194</ele>
        <time>2017-08-25T08:20:56Z</time>
      </trkpt>
      <trkpt lat="45.95204" lon="4.74902">
        <ele>194</ele>
        <time>2017-08-25T08:20:57Z</time>
      </trkpt>
      <trkpt lat="45.95208" lon="4.74906">
        <ele>194</ele>
        <time>2017-08-25T08:20:58Z</time>
      </trkpt>
      <trkpt lat="45.95211" lon="4.74911">
        <ele>193</ele>
        <time>2017-08-25T08:20:59Z</time>
      </trkpt>
      <trkpt lat="45.95215" lon="4.74915">
        <ele>193</ele>
        <time>2017-08-25T08:21:00Z</time>
      </trkpt>
      <trkpt lat="45.95219" lon="4.7492">
        <ele>192</ele>
        <time>2017-08-25T08:21:01Z</time>
      </trkpt>
      <trkpt lat="45.95223" lon="4.74925">
        <ele>192</ele>
        <time>2017-08-25T08:21:02Z</time>
      </trkpt>
      <trkpt lat="45.95227" lon="4.74931">
        <ele>192</ele>
        <time>2017-08-25T08:21:03Z</time>
      </trkpt>
      <trkpt lat="45.95231" lon="4.74937">
        <ele>192</ele>
        <time>2017-08-25T08:21:04Z</time>
      </trkpt>
      <trkpt lat="45.95234" lon="4.74944">
        <ele>192</ele>
        <time>2017-08-25T08:21:05Z</time>
      </trkpt>
      <trkpt lat="45.95238" lon="4.7495">
        <ele>192</ele>
        <time>2017-08-25T08:21:06Z</time>
      </trkpt>
      <trkpt lat="45.95242" lon="4.74956">
        <ele>192</ele>
        <time>2017-08-25T08:21:07Z</time>
      </trkpt>
      <trkpt lat="45.95246" lon="4.74962">
        <ele>191</ele>
        <time>2017-08-25T08:21:08Z</time>
      </trkpt>
      <trkpt lat="45.9525" lon="4.74967">
        <ele>192</ele>
        <time>2017-08-25T08:21:09Z</time>
      </trkpt>
      <trkpt lat="45.95253" lon="4.74973">
        <ele>192</ele>
        <time>2017-08-25T08:21:10Z</time>
      </trkpt>
      <trkpt lat="45.95256" lon="4.74979">
        <ele>192</ele>
        <time>2017-08-25T08:21:11Z</time>
      </trkpt>
      <trkpt lat="45.95259" lon="4.74984">
        <ele>192</ele>
        <time>2017-08-25T08:21:12Z</time>
      </trkpt>
      <trkpt lat="45.95262" lon="4.74989">
        <ele>192</ele>
        <time>2017-08-25T08:21:13Z</time>
      </trkpt>
      <trkpt lat="45.95265" lon="4.74994">
        <ele>192</ele>
        <time>2017-08-25T08:21:14Z</time>
      </trkpt>
      <trkpt lat="45.95269" lon="4.74999">
        <ele>192</ele>
        <time>2017-08-25T08:21:15Z</time>
      </trkpt>
      <trkpt lat="45.95272" lon="4.75006">
        <ele>191</ele>
        <time>2017-08-25T08:21:16Z</time>
      </trkpt>
      <trkpt lat="45.95276" lon="4.75012">
        <ele>191</ele>
        <time>2017-08-25T08:21:17Z</time>
      </trkpt>
      <trkpt lat="45.9528" lon="4.75017">
        <ele>191</ele>
        <time>2017-08-25T08:21:18Z</time>
      </trkpt>
      <trkpt lat="45.95284" lon="4.75023">
        <ele>191</ele>
        <time>2017-08-25T08:21:19Z</time>
      </trkpt>
      <trkpt lat="45.95288" lon="4.75029">
        <ele>191</ele>
        <time>2017-08-25T08:21:20Z</time>
      </trkpt>
      <trkpt lat="45.95291" lon="4.75035">
        <ele>191</ele>
        <time>2017-08-25T08:21:21Z</time>
      </trkpt>
      <trkpt lat="45.95295" lon="4.75041">
        <ele>191</ele>
        <time>2017-08-25T08:21:22Z</time>
      </trkpt>
      <trkpt lat="45.95298" lon="4.75047">
        <ele>191</ele>
        <time>2017-08-25T08:21:23Z</time>
      </trkpt>
      <trkpt lat="45.95302" lon="4.75052">
        <ele>191</ele>
        <time>2017-08-25T08:21:24Z</time>
      </trkpt>
      <trkpt lat="45.95306" lon="4.75058">
        <ele>192</ele>
        <time>2017-08-25T08:21:25Z</time>
      </trkpt>
      <trkpt lat="45.9531" lon="4.75064">
        <ele>192</ele>
        <time>2017-08-25T08:21:26Z</time>
      </trkpt>
      <trkpt lat="45.95314" lon="4.75069">
        <ele>192</ele>
        <time>2017-08-25T08:21:27Z</time>
      </trkpt>
      <trkpt lat="45.95318" lon="4.75074">
        <ele>192</ele>
        <time>2017-08-25T08:21:28Z</time>
      </trkpt>
      <trkpt lat="45.95321" lon="4.7508">
        <ele>192</ele>
        <time>2017-08-25T08:21:29Z</time>
      </trkpt>
      <trkpt lat="45.95325" lon="4.75085">
        <ele>192</ele>
        <time>2017-08-25T08:21:30Z</time>
      </trkpt>
      <trkpt lat="45.95329" lon="4.75091">
        <ele>191</ele>
        <time>2017-08-25T08:21:31Z</time>
      </trkpt>
      <trkpt lat="45.95333" lon="4.75097">
        <ele>191</ele>
        <time>2017-08-25T08:21:32Z</time>
      </trkpt>
      <trkpt lat="45.95336" lon="4.75103">
        <ele>192</ele>
        <time>2017-08-25T08:21:33Z</time>
      </trkpt>
      <trkpt lat="45.95339" lon="4.75109">
        <ele>192</ele>
        <time>2017-08-25T08:21:34Z</time>
      </trkpt>
      <trkpt lat="45.95342" lon="4.75116">
        <ele>192</ele>
        <time>2017-08-25T08:21:35Z</time>
      </trkpt>
      <trkpt lat="45.95346" lon="4.75121">
        <ele>191</ele>
        <time>2017-08-25T08:21:36Z</time>
      </trkpt>
      <trkpt lat="45.95349" lon="4.75127">
        <ele>191</ele>
        <time>2017-08-25T08:21:37Z</time>
      </trkpt>
      <trkpt lat="45.95353" lon="4.75132">
        <ele>191</ele>
        <time>2017-08-25T08:21:38Z</time>
      </trkpt>
      <trkpt lat="45.95357" lon="4.75138">
        <ele>191</ele>
        <time>2017-08-25T08:21:39Z</time>
      </trkpt>
      <trkpt lat="45.95362" lon="4.75144">
        <ele>191</ele>
        <time>2017-08-25T08:21:40Z</time>
      </trkpt>
      <trkpt lat="45.95366" lon="4.7515">
        <ele>191</ele>
        <time>2017-08-25T08:21:41Z</time>
      </trkpt>
      <trkpt lat="45.9537" lon="4.75155">
        <ele>191</ele>
        <time>2017-08-25T08:21:42Z</time>
      </trkpt>
      <trkpt lat="45.95374" lon="4.75161">
        <ele>191</ele>
        <time>2017-08-25T08:21:43Z</time>
      </trkpt>
      <trkpt lat="45.95378" lon="4.75167">
        <ele>189</ele>
        <time>2017-08-25T08:21:44Z</time>
      </trkpt>
      <trkpt lat="45.95382" lon="4.75173">
        <ele>189</ele>
        <time>2017-08-25T08:21:45Z</time>
      </trkpt>
      <trkpt lat="45.95385" lon="4.75179">
        <ele>189</ele>
        <time>2017-08-25T08:21:46Z</time>
      </trkpt>
      <trkpt lat="45.95389" lon="4.75185">
        <ele>189</ele>
        <time>2017-08-25T08:21:47Z</time>
      </trkpt>
      <trkpt lat="45.95393" lon="4.75191">
        <ele>189</ele>
        <time>2017-08-25T08:21:48Z</time>
      </trkpt>
      <trkpt lat="45.95396" lon="4.75197">
        <ele>189</ele>
        <time>2017-08-25T08:21:49Z</time>
      </trkpt>
      <trkpt lat="45.95399" lon="4.75203">
        <ele>189</ele>
        <time>2017-08-25T08:21:50Z</time>
      </trkpt>
      <trkpt lat="45.95402" lon="4.7521">
        <ele>189</ele>
        <time>2017-08-25T08:21:51Z</time>
      </trkpt>
      <trkpt lat="45.95405" lon="4.75216">
        <ele>189</ele>
        <time>2017-08-25T08:21:52Z</time>
      </trkpt>
      <trkpt lat="45.95409" lon="4.75222">
        <ele>189</ele>
        <time>2017-08-25T08:21:53Z</time>
      </trkpt>
      <trkpt lat="45.95413" lon="4.75227">
        <ele>189</ele>
        <time>2017-08-25T08:21:54Z</time>
      </trkpt>
      <trkpt lat="45.95416" lon="4.75233">
        <ele>189</ele>
        <time>2017-08-25T08:21:55Z</time>
      </trkpt>
      <trkpt lat="45.95418" lon="4.75239">
        <ele>190</ele>
        <time>2017-08-25T08:21:56Z</time>
      </trkpt>
      <trkpt lat="45.95421" lon="4.75246">
        <ele>190</ele>
        <time>2017-08-25T08:21:57Z</time>
      </trkpt>
      <trkpt lat="45.95424" lon="4.75252">
        <ele>189</ele>
        <time>2017-08-25T08:21:58Z</time>
      </trkpt>
      <trkpt lat="45.95427" lon="4.75257">
        <ele>189</ele>
        <time>2017-08-25T08:21:59Z</time>
      </trkpt>
      <trkpt lat="45.9543" lon="4.75263">
        <ele>189</ele>
        <time>2017-08-25T08:22:00Z</time>
      </trkpt>
      <trkpt lat="45.95434" lon="4.75269">
        <ele>189</ele>
        <time>2017-08-25T08:22:01Z</time>
      </trkpt>
      <trkpt lat="45.95438" lon="4.75276">
        <ele>188</ele>
        <time>2017-08-25T08:22:02Z</time>
      </trkpt>
      <trkpt lat="45.95441" lon="4.75282">
        <ele>188</ele>
        <time>2017-08-25T08:22:03Z</time>
      </trkpt>
      <trkpt lat="45.95445" lon="4.75287">
        <ele>188</ele>
        <time>2017-08-25T08:22:04Z</time>
      </trkpt>
      <trkpt lat="45.95448" lon="4.75293">
        <ele>188</ele>
        <time>2017-08-25T08:22:05Z</time>
      </trkpt>
      <trkpt lat="45.95451" lon="4.75299">
        <ele>188</ele>
        <time>2017-08-25T08:22:06Z</time>
      </trkpt>
      <trkpt lat="45.95455" lon="4.75304">
        <ele>188</ele>
        <time>2017-08-25T08:22:07Z</time>
      </trkpt>
      <trkpt lat="45.95459" lon="4.75311">
        <ele>188</ele>
        <time>2017-08-25T08:22:08Z</time>
      </trkpt>
      <trkpt lat="45.95463" lon="4.75318">
        <ele>188</ele>
        <time>2017-08-25T08:22:09Z</time>
      </trkpt>
      <trkpt lat="45.95466" lon="4.75326">
        <ele>188</ele>
        <time>2017-08-25T08:22:10Z</time>
      </trkpt>
      <trkpt lat="45.9547" lon="4.75335">
        <ele>186</ele>
        <time>2017-08-25T08:22:11Z</time>
      </trkpt>
      <trkpt lat="45.95474" lon="4.75344">
        <ele>186</ele>
        <time>2017-08-25T08:22:12Z</time>
      </trkpt>
      <trkpt lat="45.95478" lon="4.75352">
        <ele>186</ele>
        <time>2017-08-25T08:22:13Z</time>
      </trkpt>
      <trkpt lat="45.95482" lon="4.7536">
        <ele>186</ele>
        <time>2017-08-25T08:22:14Z</time>
      </trkpt>
      <trkpt lat="45.95486" lon="4.75367">
        <ele>186</ele>
        <time>2017-08-25T08:22:15Z</time>
      </trkpt>
      <trkpt lat="45.9549" lon="4.75375">
        <ele>185</ele>
        <time>2017-08-25T08:22:16Z</time>
      </trkpt>
      <trkpt lat="45.95494" lon="4.75382">
        <ele>185</ele>
        <time>2017-08-25T08:22:17Z</time>
      </trkpt>
      <trkpt lat="45.95497" lon="4.7539">
        <ele>185</ele>
        <time>2017-08-25T08:22:18Z</time>
      </trkpt>
      <trkpt lat="45.955" lon="4.75398">
        <ele>185</ele>
        <time>2017-08-25T08:22:19Z</time>
      </trkpt>
      <trkpt lat="45.95503" lon="4.75407">
        <ele>187</ele>
        <time>2017-08-25T08:22:20Z</time>
      </trkpt>
      <trkpt lat="45.95505" lon="4.75415">
        <ele>186</ele>
        <time>2017-08-25T08:22:21Z</time>
      </trkpt>
      <trkpt lat="45.95507" lon="4.75424">
        <ele>186</ele>
        <time>2017-08-25T08:22:22Z</time>
      </trkpt>
      <trkpt lat="45.95509" lon="4.75433">
        <ele>186</ele>
        <time>2017-08-25T08:22:23Z</time>
      </trkpt>
      <trkpt lat="45.9551" lon="4.75443">
        <ele>187</ele>
        <time>2017-08-25T08:22:24Z</time>
      </trkpt>
      <trkpt lat="45.9551" lon="4.75452">
        <ele>187</ele>
        <time>2017-08-25T08:22:25Z</time>
      </trkpt>
      <trkpt lat="45.9551" lon="4.75462">
        <ele>186</ele>
        <time>2017-08-25T08:22:26Z</time>
      </trkpt>
      <trkpt lat="45.95509" lon="4.75471">
        <ele>186</ele>
        <time>2017-08-25T08:22:27Z</time>
      </trkpt>
      <trkpt lat="45.95509" lon="4.75479">
        <ele>186</ele>
        <time>2017-08-25T08:22:28Z</time>
      </trkpt>
      <trkpt lat="45.95511" lon="4.75487">
        <ele>186</ele>
        <time>2017-08-25T08:22:29Z</time>
      </trkpt>
      <trkpt lat="45.95515" lon="4.75494">
        <ele>186</ele>
        <time>2017-08-25T08:22:30Z</time>
      </trkpt>
      <trkpt lat="45.9552" lon="4.75499">
        <ele>186</ele>
        <time>2017-08-25T08:22:31Z</time>
      </trkpt>
      <trkpt lat="45.95525" lon="4.75503">
        <ele>185</ele>
        <time>2017-08-25T08:22:32Z</time>
      </trkpt>
      <trkpt lat="45.9553" lon="4.75506">
        <ele>185</ele>
        <time>2017-08-25T08:22:33Z</time>
      </trkpt>
      <trkpt lat="45.95534" lon="4.75511">
        <ele>186</ele>
        <time>2017-08-25T08:22:34Z</time>
      </trkpt>
      <trkpt lat="45.95538" lon="4.75516">
        <ele>186</ele>
        <time>2017-08-25T08:22:35Z</time>
      </trkpt>
      <trkpt lat="45.95543" lon="4.75521">
        <ele>186</ele>
        <time>2017-08-25T08:22:36Z</time>
      </trkpt>
      <trkpt lat="45.95548" lon="4.75525">
        <ele>186</ele>
        <time>2017-08-25T08:22:37Z</time>
      </trkpt>
      <trkpt lat="45.95554" lon="4.7553">
        <ele>186</ele>
        <time>2017-08-25T08:22:38Z</time>
      </trkpt>
      <trkpt lat="45.95559" lon="4.75535">
        <ele>186</ele>
        <time>2017-08-25T08:22:39Z</time>
      </trkpt>
      <trkpt lat="45.95564" lon="4.7554">
        <ele>186</ele>
        <time>2017-08-25T08:22:40Z</time>
      </trkpt>
      <trkpt lat="45.95569" lon="4.75545">
        <ele>186</ele>
        <time>2017-08-25T08:22:41Z</time>
      </trkpt>
      <trkpt lat="45.95573" lon="4.7555">
        <ele>186</ele>
        <time>2017-08-25T08:22:42Z</time>
      </trkpt>
      <trkpt lat="45.95577" lon="4.75555">
        <ele>186</ele>
        <time>2017-08-25T08:22:43Z</time>
      </trkpt>
      <trkpt lat="45.95581" lon="4.7556">
        <ele>186</ele>
        <time>2017-08-25T08:22:44Z</time>
      </trkpt>
      <trkpt lat="45.95585" lon="4.75565">
        <ele>188</ele>
        <time>2017-08-25T08:22:45Z</time>
      </trkpt>
      <trkpt lat="45.95589" lon="4.7557">
        <ele>187</ele>
        <time>2017-08-25T08:22:46Z</time>
      </trkpt>
      <trkpt lat="45.95592" lon="4.75576">
        <ele>187</ele>
        <time>2017-08-25T08:22:47Z</time>
      </trkpt>
      <trkpt lat="45.95595" lon="4.75582">
        <ele>187</ele>
        <time>2017-08-25T08:22:48Z</time>
      </trkpt>
      <trkpt lat="45.95598" lon="4.75589">
        <ele>187</ele>
        <time>2017-08-25T08:22:49Z</time>
      </trkpt>
      <trkpt lat="45.95601" lon="4.75596">
        <ele>187</ele>
        <time>2017-08-25T08:22:50Z</time>
      </trkpt>
      <trkpt lat="45.95604" lon="4.75604">
        <ele>187</ele>
        <time>2017-08-25T08:22:51Z</time>
      </trkpt>
      <trkpt lat="45.95607" lon="4.75611">
        <ele>188</ele>
        <time>2017-08-25T08:22:52Z</time>
      </trkpt>
      <trkpt lat="45.95609" lon="4.75617">
        <ele>188</ele>
        <time>2017-08-25T08:22:53Z</time>
      </trkpt>
      <trkpt lat="45.95611" lon="4.75624">
        <ele>188</ele>
        <time>2017-08-25T08:22:54Z</time>
      </trkpt>
      <trkpt lat="45.95613" lon="4.75631">
        <ele>188</ele>
        <time>2017-08-25T08:22:55Z</time>
      </trkpt>
      <trkpt lat="45.95615" lon="4.75638">
        <ele>188</ele>
        <time>2017-08-25T08:22:56Z</time>
      </trkpt>
      <trkpt lat="45.95617" lon="4.75645">
        <ele>188</ele>
        <time>2017-08-25T08:22:57Z</time>
      </trkpt>
      <trkpt lat="45.95618" lon="4.75652">
        <ele>188</ele>
        <time>2017-08-25T08:22:58Z</time>
      </trkpt>
      <trkpt lat="45.95619" lon="4.75659">
        <ele>188</ele>
        <time>2017-08-25T08:22:59Z</time>
      </trkpt>
      <trkpt lat="45.9562" lon="4.75665">
        <ele>188</ele>
        <time>2017-08-25T08:23:00Z</time>
      </trkpt>
      <trkpt lat="45.95621" lon="4.75672">
        <ele>187</ele>
        <time>2017-08-25T08:23:01Z</time>
      </trkpt>
      <trkpt lat="45.95622" lon="4.75679">
        <ele>187</ele>
        <time>2017-08-25T08:23:02Z</time>
      </trkpt>
      <trkpt lat="45.95623" lon="4.75687">
        <ele>187</ele>
        <time>2017-08-25T08:23:03Z</time>
      </trkpt>
      <trkpt lat="45.95624" lon="4.75694">
        <ele>187</ele>
        <time>2017-08-25T08:23:04Z</time>
      </trkpt>
      <trkpt lat="45.95625" lon="4.75702">
        <ele>187</ele>
        <time>2017-08-25T08:23:05Z</time>
      </trkpt>
      <trkpt lat="45.95626" lon="4.7571">
        <ele>187</ele>
        <time>2017-08-25T08:23:06Z</time>
      </trkpt>
      <trkpt lat="45.95628" lon="4.75717">
        <ele>187</ele>
        <time>2017-08-25T08:23:07Z</time>
      </trkpt>
      <trkpt lat="45.95629" lon="4.75724">
        <ele>187</ele>
        <time>2017-08-25T08:23:08Z</time>
      </trkpt>
      <trkpt lat="45.95629" lon="4.75731">
        <ele>187</ele>
        <time>2017-08-25T08:23:09Z</time>
      </trkpt>
      <trkpt lat="45.95631" lon="4.75738">
        <ele>187</ele>
        <time>2017-08-25T08:23:10Z</time>
      </trkpt>
      <trkpt lat="45.95631" lon="4.75744">
        <ele>187</ele>
        <time>2017-08-25T08:23:11Z</time>
      </trkpt>
      <trkpt lat="45.95632" lon="4.75751">
        <ele>186</ele>
        <time>2017-08-25T08:23:12Z</time>
      </trkpt>
      <trkpt lat="45.95633" lon="4.75758">
        <ele>186</ele>
        <time>2017-08-25T08:23:13Z</time>
      </trkpt>
      <trkpt lat="45.95633" lon="4.75764">
        <ele>186</ele>
        <time>2017-08-25T08:23:14Z</time>
      </trkpt>
      <trkpt lat="45.95635" lon="4.75771">
        <ele>186</ele>
        <time>2017-08-25T08:23:15Z</time>
      </trkpt>
      <trkpt lat="45.95636" lon="4.75778">
        <ele>185</ele>
        <time>2017-08-25T08:23:16Z</time>
      </trkpt>
      <trkpt lat="45.95637" lon="4.75786">
        <ele>185</ele>
        <time>2017-08-25T08:23:17Z</time>
      </trkpt>
      <trkpt lat="45.95638" lon="4.75794">
        <ele>185</ele>
        <time>2017-08-25T08:23:18Z</time>
      </trkpt>
      <trkpt lat="45.95639" lon="4.75803">
        <ele>185</ele>
        <time>2017-08-25T08:23:19Z</time>
      </trkpt>
      <trkpt lat="45.9564" lon="4.75811">
        <ele>185</ele>
        <time>2017-08-25T08:23:20Z</time>
      </trkpt>
      <trkpt lat="45.95642" lon="4.75819">
        <ele>185</ele>
        <time>2017-08-25T08:23:21Z</time>
      </trkpt>
      <trkpt lat="45.95643" lon="4.75827">
        <ele>185</ele>
        <time>2017-08-25T08:23:22Z</time>
      </trkpt>
      <trkpt lat="45.95645" lon="4.75836">
        <ele>184</ele>
        <time>2017-08-25T08:23:23Z</time>
      </trkpt>
      <trkpt lat="45.95647" lon="4.75844">
        <ele>184</ele>
        <time>2017-08-25T08:23:24Z</time>
      </trkpt>
      <trkpt lat="45.95648" lon="4.75851">
        <ele>184</ele>
        <time>2017-08-25T08:23:25Z</time>
      </trkpt>
      <trkpt lat="45.9565" lon="4.75859">
        <ele>184</ele>
        <time>2017-08-25T08:23:26Z</time>
      </trkpt>
      <trkpt lat="45.95653" lon="4.75867">
        <ele>184</ele>
        <time>2017-08-25T08:23:27Z</time>
      </trkpt>
      <trkpt lat="45.95655" lon="4.75874">
        <ele>184</ele>
        <time>2017-08-25T08:23:28Z</time>
      </trkpt>
      <trkpt lat="45.95658" lon="4.75881">
        <ele>184</ele>
        <time>2017-08-25T08:23:29Z</time>
      </trkpt>
      <trkpt lat="45.95661" lon="4.75888">
        <ele>184</ele>
        <time>2017-08-25T08:23:30Z</time>
      </trkpt>
      <trkpt lat="45.95664" lon="4.75894">
        <ele>184</ele>
        <time>2017-08-25T08:23:31Z</time>
      </trkpt>
      <trkpt lat="45.95666" lon="4.75901">
        <ele>184</ele>
        <time>2017-08-25T08:23:32Z</time>
      </trkpt>
      <trkpt lat="45.95669" lon="4.75908">
        <ele>185</ele>
        <time>2017-08-25T08:23:33Z</time>
      </trkpt>
      <trkpt lat="45.95672" lon="4.75915">
        <ele>185</ele>
        <time>2017-08-25T08:23:34Z</time>
      </trkpt>
      <trkpt lat="45.95675" lon="4.75922">
        <ele>184</ele>
        <time>2017-08-25T08:23:35Z</time>
      </trkpt>
      <trkpt lat="45.95678" lon="4.75929">
        <ele>185</ele>
        <time>2017-08-25T08:23:36Z</time>
      </trkpt>
      <trkpt lat="45.95681" lon="4.75937">
        <ele>185</ele>
        <time>2017-08-25T08:23:37Z</time>
      </trkpt>
      <trkpt lat="45.95684" lon="4.75945">
        <ele>185</ele>
        <time>2017-08-25T08:23:38Z</time>
      </trkpt>
      <trkpt lat="45.95687" lon="4.75952">
        <ele>185</ele>
        <time>2017-08-25T08:23:39Z</time>
      </trkpt>
      <trkpt lat="45.9569" lon="4.75959">
        <ele>185</ele>
        <time>2017-08-25T08:23:40Z</time>
      </trkpt>
      <trkpt lat="45.95693" lon="4.75967">
        <ele>185</ele>
        <time>2017-08-25T08:23:41Z</time>
      </trkpt>
      <trkpt lat="45.95697" lon="4.75974">
        <ele>185</ele>
        <time>2017-08-25T08:23:42Z</time>
      </trkpt>
      <trkpt lat="45.957" lon="4.75981">
        <ele>185</ele>
        <time>2017-08-25T08:23:43Z</time>
      </trkpt>
      <trkpt lat="45.95704" lon="4.75988">
        <ele>185</ele>
        <time>2017-08-25T08:23:44Z</time>
      </trkpt>
      <trkpt lat="45.95706" lon="4.75995">
        <ele>185</ele>
        <time>2017-08-25T08:23:45Z</time>
      </trkpt>
      <trkpt lat="45.9571" lon="4.76001">
        <ele>184</ele>
        <time>2017-08-25T08:23:46Z</time>
      </trkpt>
      <trkpt lat="45.95713" lon="4.76007">
        <ele>184</ele>
        <time>2017-08-25T08:23:47Z</time>
      </trkpt>
      <trkpt lat="45.95716" lon="4.76013">
        <ele>184</ele>
        <time>2017-08-25T08:23:48Z</time>
      </trkpt>
      <trkpt lat="45.95719" lon="4.76018">
        <ele>184</ele>
        <time>2017-08-25T08:23:49Z</time>
      </trkpt>
      <trkpt lat="45.95721" lon="4.76024">
        <ele>184</ele>
        <time>2017-08-25T08:23:50Z</time>
      </trkpt>
      <trkpt lat="45.95724" lon="4.7603">
        <ele>184</ele>
        <time>2017-08-25T08:23:51Z</time>
      </trkpt>
      <trkpt lat="45.95726" lon="4.76036">
        <ele>184</ele>
        <time>2017-08-25T08:23:52Z</time>
      </trkpt>
      <trkpt lat="45.95729" lon="4.76042">
        <ele>184</ele>
        <time>2017-08-25T08:23:53Z</time>
      </trkpt>
      <trkpt lat="45.95732" lon="4.76049">
        <ele>184</ele>
        <time>2017-08-25T08:23:54Z</time>
      </trkpt>
      <trkpt lat="45.95735" lon="4.76056">
        <ele>184</ele>
        <time>2017-08-25T08:23:55Z</time>
      </trkpt>
      <trkpt lat="45.95738" lon="4.76063">
        <ele>184</ele>
        <time>2017-08-25T08:23:56Z</time>
      </trkpt>
      <trkpt lat="45.95741" lon="4.76069">
        <ele>185</ele>
        <time>2017-08-25T08:23:57Z</time>
      </trkpt>
      <trkpt lat="45.95744" lon="4.76076">
        <ele>185</ele>
        <time>2017-08-25T08:23:58Z</time>
      </trkpt>
      <trkpt lat="45.95746" lon="4.76082">
        <ele>185</ele>
        <time>2017-08-25T08:23:59Z</time>
      </trkpt>
      <trkpt lat="45.95748" lon="4.76089">
        <ele>185</ele>
        <time>2017-08-25T08:24:00Z</time>
      </trkpt>
      <trkpt lat="45.9575" lon="4.76095">
        <ele>186</ele>
        <time>2017-08-25T08:24:01Z</time>
      </trkpt>
      <trkpt lat="45.95752" lon="4.76101">
        <ele>186</ele>
        <time>2017-08-25T08:24:02Z</time>
      </trkpt>
      <trkpt lat="45.95754" lon="4.76107">
        <ele>186</ele>
        <time>2017-08-25T08:24:03Z</time>
      </trkpt>
      <trkpt lat="45.95756" lon="4.76114">
        <ele>186</ele>
        <time>2017-08-25T08:24:04Z</time>
      </trkpt>
      <trkpt lat="45.95757" lon="4.76122">
        <ele>186</ele>
        <time>2017-08-25T08:24:05Z</time>
      </trkpt>
      <trkpt lat="45.95758" lon="4.76129">
        <ele>186</ele>
        <time>2017-08-25T08:24:06Z</time>
      </trkpt>
      <trkpt lat="45.95758" lon="4.76136">
        <ele>186</ele>
        <time>2017-08-25T08:24:07Z</time>
      </trkpt>
      <trkpt lat="45.95759" lon="4.76143">
        <ele>186</ele>
        <time>2017-08-25T08:24:08Z</time>
      </trkpt>
      <trkpt lat="45.95759" lon="4.7615">
        <ele>186</ele>
        <time>2017-08-25T08:24:09Z</time>
      </trkpt>
      <trkpt lat="45.9576" lon="4.76157">
        <ele>186</ele>
        <time>2017-08-25T08:24:10Z</time>
      </trkpt>
      <trkpt lat="45.9576" lon="4.76164">
        <ele>185</ele>
        <time>2017-08-25T08:24:11Z</time>
      </trkpt>
      <trkpt lat="45.95761" lon="4.76171">
        <ele>185</ele>
        <time>2017-08-25T08:24:12Z</time>
      </trkpt>
      <trkpt lat="45.95761" lon="4.76179">
        <ele>185</ele>
        <time>2017-08-25T08:24:13Z</time>
      </trkpt>
      <trkpt lat="45.95762" lon="4.76187">
        <ele>186</ele>
        <time>2017-08-25T08:24:14Z</time>
      </trkpt>
      <trkpt lat="45.95762" lon="4.76195">
        <ele>186</ele>
        <time>2017-08-25T08:24:15Z</time>
      </trkpt>
      <trkpt lat="45.95762" lon="4.76203">
        <ele>186</ele>
        <time>2017-08-25T08:24:16Z</time>
      </trkpt>
      <trkpt lat="45.95763" lon="4.7621">
        <ele>186</ele>
        <time>2017-08-25T08:24:17Z</time>
      </trkpt>
      <trkpt lat="45.95763" lon="4.76216">
        <ele>186</ele>
        <time>2017-08-25T08:24:18Z</time>
      </trkpt>
      <trkpt lat="45.95763" lon="4.76223">
        <ele>186</ele>
        <time>2017-08-25T08:24:19Z</time>
      </trkpt>
      <trkpt lat="45.95764" lon="4.76229">
        <ele>186</ele>
        <time>2017-08-25T08:24:20Z</time>
      </trkpt>
      <trkpt lat="45.95764" lon="4.76236">
        <ele>186</ele>
        <time>2017-08-25T08:24:21Z</time>
      </trkpt>
      <trkpt lat="45.95764" lon="4.76243">
        <ele>185</ele>
        <time>2017-08-25T08:24:22Z</time>
      </trkpt>
      <trkpt lat="45.95765" lon="4.76251">
        <ele>185</ele>
        <time>2017-08-25T08:24:23Z</time>
      </trkpt>
      <trkpt lat="45.95765" lon="4.76259">
        <ele>185</ele>
        <time>2017-08-25T08:24:24Z</time>
      </trkpt>
      <trkpt lat="45.95766" lon="4.76267">
        <ele>185</ele>
        <time>2017-08-25T08:24:25Z</time>
      </trkpt>
      <trkpt lat="45.95766" lon="4.76275">
        <ele>186</ele>
        <time>2017-08-25T08:24:26Z</time>
      </trkpt>
      <trkpt lat="45.95767" lon="4.76284">
        <ele>186</ele>
        <time>2017-08-25T08:24:27Z</time>
      </trkpt>
      <trkpt lat="45.95768" lon="4.76292">
        <ele>186</ele>
        <time>2017-08-25T08:24:28Z</time>
      </trkpt>
      <trkpt lat="45.95769" lon="4.763">
        <ele>186</ele>
        <time>2017-08-25T08:24:29Z</time>
      </trkpt>
      <trkpt lat="45.95769" lon="4.76307">
        <ele>186</ele>
        <time>2017-08-25T08:24:30Z</time>
      </trkpt>
      <trkpt lat="45.9577" lon="4.76315">
        <ele>185</ele>
        <time>2017-08-25T08:24:31Z</time>
      </trkpt>
      <trkpt lat="45.9577" lon="4.76322">
        <ele>185</ele>
        <time>2017-08-25T08:24:32Z</time>
      </trkpt>
      <trkpt lat="45.95771" lon="4.76329">
        <ele>185</ele>
        <time>2017-08-25T08:24:33Z</time>
      </trkpt>
      <trkpt lat="45.95771" lon="4.76336">
        <ele>186</ele>
        <time>2017-08-25T08:24:34Z</time>
      </trkpt>
      <trkpt lat="45.95772" lon="4.76343">
        <ele>186</ele>
        <time>2017-08-25T08:24:35Z</time>
      </trkpt>
      <trkpt lat="45.95772" lon="4.7635">
        <ele>186</ele>
        <time>2017-08-25T08:24:36Z</time>
      </trkpt>
      <trkpt lat="45.95773" lon="4.76358">
        <ele>186</ele>
        <time>2017-08-25T08:24:37Z</time>
      </trkpt>
      <trkpt lat="45.95773" lon="4.76365">
        <ele>186</ele>
        <time>2017-08-25T08:24:38Z</time>
      </trkpt>
      <trkpt lat="45.95774" lon="4.76372">
        <ele>186</ele>
        <time>2017-08-25T08:24:39Z</time>
      </trkpt>
      <trkpt lat="45.95774" lon="4.7638">
        <ele>186</ele>
        <time>2017-08-25T08:24:40Z</time>
      </trkpt>
      <trkpt lat="45.95774" lon="4.76387">
        <ele>186</ele>
        <time>2017-08-25T08:24:41Z</time>
      </trkpt>
      <trkpt lat="45.95775" lon="4.764">
        <ele>186</ele>
        <time>2017-08-25T08:24:43Z</time>
      </trkpt>
      <trkpt lat="45.95775" lon="4.76406">
        <ele>186</ele>
        <time>2017-08-25T08:24:44Z</time>
      </trkpt>
      <trkpt lat="45.95776" lon="4.76413">
        <ele>186</ele>
        <time>2017-08-25T08:24:45Z</time>
      </trkpt>
      <trkpt lat="45.95776" lon="4.7642">
        <ele>186</ele>
        <time>2017-08-25T08:24:46Z</time>
      </trkpt>
      <trkpt lat="45.95777" lon="4.76427">
        <ele>186</ele>
        <time>2017-08-25T08:24:47Z</time>
      </trkpt>
      <trkpt lat="45.95778" lon="4.76436">
        <ele>186</ele>
        <time>2017-08-25T08:24:48Z</time>
      </trkpt>
      <trkpt lat="45.95779" lon="4.76444">
        <ele>186</ele>
        <time>2017-08-25T08:24:49Z</time>
      </trkpt>
      <trkpt lat="45.95781" lon="4.76452">
        <ele>186</ele>
        <time>2017-08-25T08:24:50Z</time>
      </trkpt>
      <trkpt lat="45.95782" lon="4.76459">
        <ele>186</ele>
        <time>2017-08-25T08:24:51Z</time>
      </trkpt>
      <trkpt lat="45.95783" lon="4.76467">
        <ele>186</ele>
        <time>2017-08-25T08:24:52Z</time>
      </trkpt>
      <trkpt lat="45.95783" lon="4.76474">
        <ele>186</ele>
        <time>2017-08-25T08:24:53Z</time>
      </trkpt>
      <trkpt lat="45.95784" lon="4.76481">
        <ele>186</ele>
        <time>2017-08-25T08:24:54Z</time>
      </trkpt>
      <trkpt lat="45.95785" lon="4.76487">
        <ele>186</ele>
        <time>2017-08-25T08:24:55Z</time>
      </trkpt>
      <trkpt lat="45.95787" lon="4.76494">
        <ele>186</ele>
        <time>2017-08-25T08:24:56Z</time>
      </trkpt>
      <trkpt lat="45.95788" lon="4.76502">
        <ele>187</ele>
        <time>2017-08-25T08:24:57Z</time>
      </trkpt>
      <trkpt lat="45.95789" lon="4.7651">
        <ele>187</ele>
        <time>2017-08-25T08:24:58Z</time>
      </trkpt>
      <trkpt lat="45.9579" lon="4.76518">
        <ele>187</ele>
        <time>2017-08-25T08:24:59Z</time>
      </trkpt>
      <trkpt lat="45.95791" lon="4.76526">
        <ele>187</ele>
        <time>2017-08-25T08:25:00Z</time>
      </trkpt>
      <trkpt lat="45.95792" lon="4.76534">
        <ele>187</ele>
        <time>2017-08-25T08:25:01Z</time>
      </trkpt>
      <trkpt lat="45.95793" lon="4.76542">
        <ele>187</ele>
        <time>2017-08-25T08:25:02Z</time>
      </trkpt>
      <trkpt lat="45.95794" lon="4.76551">
        <ele>187</ele>
        <time>2017-08-25T08:25:03Z</time>
      </trkpt>
      <trkpt lat="45.95794" lon="4.76558">
        <ele>187</ele>
        <time>2017-08-25T08:25:04Z</time>
      </trkpt>
      <trkpt lat="45.95795" lon="4.76565">
        <ele>187</ele>
        <time>2017-08-25T08:25:05Z</time>
      </trkpt>
      <trkpt lat="45.95796" lon="4.76572">
        <ele>187</ele>
        <time>2017-08-25T08:25:06Z</time>
      </trkpt>
      <trkpt lat="45.95798" lon="4.76579">
        <ele>187</ele>
        <time>2017-08-25T08:25:07Z</time>
      </trkpt>
      <trkpt lat="45.95799" lon="4.76586">
        <ele>187</ele>
        <time>2017-08-25T08:25:08Z</time>
      </trkpt>
      <trkpt lat="45.958" lon="4.76594">
        <ele>187</ele>
        <time>2017-08-25T08:25:09Z</time>
      </trkpt>
      <trkpt lat="45.95801" lon="4.76602">
        <ele>187</ele>
        <time>2017-08-25T08:25:10Z</time>
      </trkpt>
      <trkpt lat="45.95802" lon="4.7661">
        <ele>188</ele>
        <time>2017-08-25T08:25:11Z</time>
      </trkpt>
      <trkpt lat="45.95803" lon="4.76618">
        <ele>188</ele>
        <time>2017-08-25T08:25:12Z</time>
      </trkpt>
      <trkpt lat="45.95804" lon="4.76627">
        <ele>188</ele>
        <time>2017-08-25T08:25:13Z</time>
      </trkpt>
      <trkpt lat="45.95806" lon="4.76635">
        <ele>188</ele>
        <time>2017-08-25T08:25:14Z</time>
      </trkpt>
      <trkpt lat="45.95806" lon="4.76643">
        <ele>188</ele>
        <time>2017-08-25T08:25:15Z</time>
      </trkpt>
      <trkpt lat="45.95807" lon="4.7665">
        <ele>188</ele>
        <time>2017-08-25T08:25:16Z</time>
      </trkpt>
      <trkpt lat="45.95808" lon="4.76657">
        <ele>188</ele>
        <time>2017-08-25T08:25:17Z</time>
      </trkpt>
      <trkpt lat="45.95809" lon="4.76664">
        <ele>188</ele>
        <time>2017-08-25T08:25:18Z</time>
      </trkpt>
      <trkpt lat="45.9581" lon="4.76671">
        <ele>189</ele>
        <time>2017-08-25T08:25:19Z</time>
      </trkpt>
      <trkpt lat="45.9581" lon="4.76677">
        <ele>189</ele>
        <time>2017-08-25T08:25:20Z</time>
      </trkpt>
      <trkpt lat="45.95811" lon="4.76684">
        <ele>189</ele>
        <time>2017-08-25T08:25:21Z</time>
      </trkpt>
      <trkpt lat="45.95812" lon="4.76691">
        <ele>189</ele>
        <time>2017-08-25T08:25:22Z</time>
      </trkpt>
      <trkpt lat="45.95814" lon="4.76698">
        <ele>189</ele>
        <time>2017-08-25T08:25:23Z</time>
      </trkpt>
      <trkpt lat="45.95815" lon="4.76706">
        <ele>189</ele>
        <time>2017-08-25T08:25:24Z</time>
      </trkpt>
      <trkpt lat="45.95816" lon="4.76713">
        <ele>189</ele>
        <time>2017-08-25T08:25:25Z</time>
      </trkpt>
      <trkpt lat="45.95817" lon="4.76721">
        <ele>189</ele>
        <time>2017-08-25T08:25:26Z</time>
      </trkpt>
      <trkpt lat="45.95818" lon="4.76728">
        <ele>190</ele>
        <time>2017-08-25T08:25:27Z</time>
      </trkpt>
      <trkpt lat="45.9582" lon="4.76735">
        <ele>190</ele>
        <time>2017-08-25T08:25:28Z</time>
      </trkpt>
      <trkpt lat="45.95821" lon="4.76741">
        <ele>190</ele>
        <time>2017-08-25T08:25:29Z</time>
      </trkpt>
      <trkpt lat="45.95821" lon="4.76748">
        <ele>190</ele>
        <time>2017-08-25T08:25:30Z</time>
      </trkpt>
      <trkpt lat="45.95824" lon="4.76759">
        <ele>190</ele>
        <time>2017-08-25T08:25:32Z</time>
      </trkpt>
      <trkpt lat="45.95825" lon="4.76764">
        <ele>190</ele>
        <time>2017-08-25T08:25:33Z</time>
      </trkpt>
      <trkpt lat="45.95825" lon="4.76771">
        <ele>190</ele>
        <time>2017-08-25T08:25:34Z</time>
      </trkpt>
      <trkpt lat="45.95826" lon="4.76777">
        <ele>190</ele>
        <time>2017-08-25T08:25:35Z</time>
      </trkpt>
      <trkpt lat="45.95828" lon="4.76784">
        <ele>190</ele>
        <time>2017-08-25T08:25:36Z</time>
      </trkpt>
      <trkpt lat="45.95829" lon="4.76791">
        <ele>190</ele>
        <time>2017-08-25T08:25:37Z</time>
      </trkpt>
      <trkpt lat="45.9583" lon="4.76798">
        <ele>190</ele>
        <time>2017-08-25T08:25:38Z</time>
      </trkpt>
      <trkpt lat="45.9583" lon="4.76805">
        <ele>190</ele>
        <time>2017-08-25T08:25:39Z</time>
      </trkpt>
      <trkpt lat="45.9583" lon="4.76813">
        <ele>190</ele>
        <time>2017-08-25T08:25:40Z</time>
      </trkpt>
      <trkpt lat="45.95829" lon="4.7682">
        <ele>190</ele>
        <time>2017-08-25T08:25:41Z</time>
      </trkpt>
      <trkpt lat="45.95828" lon="4.76827">
        <ele>190</ele>
        <time>2017-08-25T08:25:42Z</time>
      </trkpt>
      <trkpt lat="45.95827" lon="4.76834">
        <ele>190</ele>
        <time>2017-08-25T08:25:43Z</time>
      </trkpt>
      <trkpt lat="45.95825" lon="4.76841">
        <ele>190</ele>
        <time>2017-08-25T08:25:44Z</time>
      </trkpt>
      <trkpt lat="45.95824" lon="4.76847">
        <ele>190</ele>
        <time>2017-08-25T08:25:45Z</time>
      </trkpt>
      <trkpt lat="45.95823" lon="4.76854">
        <ele>189</ele>
        <time>2017-08-25T08:25:46Z</time>
      </trkpt>
      <trkpt lat="45.95821" lon="4.76862">
        <ele>189</ele>
        <time>2017-08-25T08:25:47Z</time>
      </trkpt>
      <trkpt lat="45.95819" lon="4.76869">
        <ele>189</ele>
        <time>2017-08-25T08:25:48Z</time>
      </trkpt>
      <trkpt lat="45.95818" lon="4.76877">
        <ele>189</ele>
        <time>2017-08-25T08:25:49Z</time>
      </trkpt>
      <trkpt lat="45.95817" lon="4.76885">
        <ele>189</ele>
        <time>2017-08-25T08:25:50Z</time>
      </trkpt>
      <trkpt lat="45.95816" lon="4.76891">
        <ele>189</ele>
        <time>2017-08-25T08:25:51Z</time>
      </trkpt>
      <trkpt lat="45.95815" lon="4.76898">
        <ele>189</ele>
        <time>2017-08-25T08:25:52Z</time>
      </trkpt>
      <trkpt lat="45.95814" lon="4.76904">
        <ele>189</ele>
        <time>2017-08-25T08:25:53Z</time>
      </trkpt>
      <trkpt lat="45.95811" lon="4.76916">
        <ele>189</ele>
        <time>2017-08-25T08:25:55Z</time>
      </trkpt>
      <trkpt lat="45.9581" lon="4.76922">
        <ele>189</ele>
        <time>2017-08-25T08:25:56Z</time>
      </trkpt>
      <trkpt lat="45.95808" lon="4.7693">
        <ele>189</ele>
        <time>2017-08-25T08:25:57Z</time>
      </trkpt>
      <trkpt lat="45.95807" lon="4.76937">
        <ele>189</ele>
        <time>2017-08-25T08:25:58Z</time>
      </trkpt>
      <trkpt lat="45.95806" lon="4.76945">
        <ele>189</ele>
        <time>2017-08-25T08:25:59Z</time>
      </trkpt>
      <trkpt lat="45.95804" lon="4.76953">
        <ele>189</ele>
        <time>2017-08-25T08:26:00Z</time>
      </trkpt>
      <trkpt lat="45.95803" lon="4.7696">
        <ele>189</ele>
        <time>2017-08-25T08:26:01Z</time>
      </trkpt>
      <trkpt lat="45.95802" lon="4.76968">
        <ele>189</ele>
        <time>2017-08-25T08:26:02Z</time>
      </trkpt>
      <trkpt lat="45.95801" lon="4.76976">
        <ele>189</ele>
        <time>2017-08-25T08:26:03Z</time>
      </trkpt>
      <trkpt lat="45.958" lon="4.76983">
        <ele>189</ele>
        <time>2017-08-25T08:26:04Z</time>
      </trkpt>
      <trkpt lat="45.95799" lon="4.76991">
        <ele>189</ele>
        <time>2017-08-25T08:26:05Z</time>
      </trkpt>
      <trkpt lat="45.958" lon="4.76998">
        <ele>189</ele>
        <time>2017-08-25T08:26:06Z</time>
      </trkpt>
      <trkpt lat="45.95801" lon="4.7701">
        <ele>190</ele>
        <time>2017-08-25T08:26:08Z</time>
      </trkpt>
      <trkpt lat="45.95803" lon="4.77015">
        <ele>190</ele>
        <time>2017-08-25T08:26:09Z</time>
      </trkpt>
      <trkpt lat="45.95805" lon="4.77022">
        <ele>190</ele>
        <time>2017-08-25T08:26:10Z</time>
      </trkpt>
      <trkpt lat="45.95807" lon="4.77028">
        <ele>190</ele>
        <time>2017-08-25T08:26:11Z</time>
      </trkpt>
      <trkpt lat="45.95811" lon="4.77035">
        <ele>190</ele>
        <time>2017-08-25T08:26:12Z</time>
      </trkpt>
      <trkpt lat="45.95814" lon="4.77042">
        <ele>190</ele>
        <time>2017-08-25T08:26:13Z</time>
      </trkpt>
      <trkpt lat="45.95818" lon="4.77049">
        <ele>190</ele>
        <time>2017-08-25T08:26:14Z</time>
      </trkpt>
      <trkpt lat="45.95821" lon="4.77056">
        <ele>190</ele>
        <time>2017-08-25T08:26:15Z</time>
      </trkpt>
      <trkpt lat="45.95824" lon="4.77063">
        <ele>191</ele>
        <time>2017-08-25T08:26:16Z</time>
      </trkpt>
      <trkpt lat="45.95827" lon="4.7707">
        <ele>191</ele>
        <time>2017-08-25T08:26:17Z</time>
      </trkpt>
      <trkpt lat="45.95829" lon="4.77077">
        <ele>191</ele>
        <time>2017-08-25T08:26:18Z</time>
      </trkpt>
      <trkpt lat="45.95831" lon="4.77084">
        <ele>192</ele>
        <time>2017-08-25T08:26:19Z</time>
      </trkpt>
      <trkpt lat="45.95833" lon="4.77091">
        <ele>191</ele>
        <time>2017-08-25T08:26:20Z</time>
      </trkpt>
      <trkpt lat="45.95835" lon="4.77098">
        <ele>193</ele>
        <time>2017-08-25T08:26:21Z</time>
      </trkpt>
      <trkpt lat="45.95838" lon="4.77105">
        <ele>193</ele>
        <time>2017-08-25T08:26:22Z</time>
      </trkpt>
      <trkpt lat="45.9584" lon="4.77113">
        <ele>193</ele>
        <time>2017-08-25T08:26:23Z</time>
      </trkpt>
      <trkpt lat="45.95842" lon="4.7712">
        <ele>193</ele>
        <time>2017-08-25T08:26:24Z</time>
      </trkpt>
      <trkpt lat="45.95844" lon="4.77128">
        <ele>193</ele>
        <time>2017-08-25T08:26:25Z</time>
      </trkpt>
      <trkpt lat="45.95847" lon="4.77134">
        <ele>193</ele>
        <time>2017-08-25T08:26:26Z</time>
      </trkpt>
      <trkpt lat="45.95849" lon="4.7714">
        <ele>193</ele>
        <time>2017-08-25T08:26:27Z</time>
      </trkpt>
      <trkpt lat="45.95852" lon="4.77152">
        <ele>192</ele>
        <time>2017-08-25T08:26:29Z</time>
      </trkpt>
      <trkpt lat="45.95853" lon="4.77157">
        <ele>192</ele>
        <time>2017-08-25T08:26:30Z</time>
      </trkpt>
      <trkpt lat="45.95857" lon="4.77169">
        <ele>192</ele>
        <time>2017-08-25T08:26:32Z</time>
      </trkpt>
      <trkpt lat="45.95858" lon="4.77176">
        <ele>192</ele>
        <time>2017-08-25T08:26:33Z</time>
      </trkpt>
      <trkpt lat="45.95859" lon="4.77184">
        <ele>192</ele>
        <time>2017-08-25T08:26:34Z</time>
      </trkpt>
      <trkpt lat="45.95861" lon="4.77191">
        <ele>192</ele>
        <time>2017-08-25T08:26:35Z</time>
      </trkpt>
      <trkpt lat="45.95863" lon="4.77198">
        <ele>192</ele>
        <time>2017-08-25T08:26:36Z</time>
      </trkpt>
      <trkpt lat="45.95865" lon="4.77206">
        <ele>193</ele>
        <time>2017-08-25T08:26:37Z</time>
      </trkpt>
      <trkpt lat="45.95868" lon="4.77212">
        <ele>193</ele>
        <time>2017-08-25T08:26:38Z</time>
      </trkpt>
      <trkpt lat="45.95869" lon="4.77218">
        <ele>193</ele>
        <time>2017-08-25T08:26:39Z</time>
      </trkpt>
      <trkpt lat="45.9587" lon="4.77224">
        <ele>193</ele>
        <time>2017-08-25T08:26:40Z</time>
      </trkpt>
      <trkpt lat="45.95872" lon="4.7723">
        <ele>193</ele>
        <time>2017-08-25T08:26:41Z</time>
      </trkpt>
      <trkpt lat="45.95873" lon="4.77242">
        <ele>193</ele>
        <time>2017-08-25T08:26:43Z</time>
      </trkpt>
      <trkpt lat="45.95875" lon="4.77249">
        <ele>193</ele>
        <time>2017-08-25T08:26:44Z</time>
      </trkpt>
      <trkpt lat="45.95876" lon="4.77255">
        <ele>193</ele>
        <time>2017-08-25T08:26:45Z</time>
      </trkpt>
      <trkpt lat="45.95878" lon="4.77262">
        <ele>193</ele>
        <time>2017-08-25T08:26:46Z</time>
      </trkpt>
      <trkpt lat="45.9588" lon="4.77269">
        <ele>193</ele>
        <time>2017-08-25T08:26:47Z</time>
      </trkpt>
      <trkpt lat="45.95881" lon="4.77276">
        <ele>193</ele>
        <time>2017-08-25T08:26:48Z</time>
      </trkpt>
      <trkpt lat="45.95882" lon="4.77284">
        <ele>193</ele>
        <time>2017-08-25T08:26:49Z</time>
      </trkpt>
      <trkpt lat="45.95884" lon="4.77291">
        <ele>193</ele>
        <time>2017-08-25T08:26:50Z</time>
      </trkpt>
      <trkpt lat="45.95885" lon="4.77297">
        <ele>193</ele>
        <time>2017-08-25T08:26:51Z</time>
      </trkpt>
      <trkpt lat="45.95887" lon="4.77303">
        <ele>193</ele>
        <time>2017-08-25T08:26:52Z</time>
      </trkpt>
      <trkpt lat="45.9589" lon="4.77315">
        <ele>193</ele>
        <time>2017-08-25T08:26:54Z</time>
      </trkpt>
      <trkpt lat="45.95892" lon="4.77321">
        <ele>193</ele>
        <time>2017-08-25T08:26:55Z</time>
      </trkpt>
      <trkpt lat="45.95896" lon="4.77331">
        <ele>193</ele>
        <time>2017-08-25T08:26:57Z</time>
      </trkpt>
      <trkpt lat="45.95898" lon="4.77337">
        <ele>193</ele>
        <time>2017-08-25T08:26:58Z</time>
      </trkpt>
      <trkpt lat="45.959" lon="4.77343">
        <ele>193</ele>
        <time>2017-08-25T08:26:59Z</time>
      </trkpt>
      <trkpt lat="45.95903" lon="4.77349">
        <ele>193</ele>
        <time>2017-08-25T08:27:00Z</time>
      </trkpt>
      <trkpt lat="45.95905" lon="4.77356">
        <ele>193</ele>
        <time>2017-08-25T08:27:01Z</time>
      </trkpt>
      <trkpt lat="45.95907" lon="4.77362">
        <ele>193</ele>
        <time>2017-08-25T08:27:02Z</time>
      </trkpt>
      <trkpt lat="45.9591" lon="4.77373">
        <ele>193</ele>
        <time>2017-08-25T08:27:04Z</time>
      </trkpt>
      <trkpt lat="45.95912" lon="4.77378">
        <ele>193</ele>
        <time>2017-08-25T08:27:05Z</time>
      </trkpt>
      <trkpt lat="45.95914" lon="4.77384">
        <ele>193</ele>
        <time>2017-08-25T08:27:06Z</time>
      </trkpt>
      <trkpt lat="45.95916" lon="4.7739">
        <ele>193</ele>
        <time>2017-08-25T08:27:07Z</time>
      </trkpt>
      <trkpt lat="45.95919" lon="4.77395">
        <ele>196</ele>
        <time>2017-08-25T08:27:08Z</time>
      </trkpt>
      <trkpt lat="45.95921" lon="4.77402">
        <ele>195</ele>
        <time>2017-08-25T08:27:09Z</time>
      </trkpt>
      <trkpt lat="45.95923" lon="4.77408">
        <ele>195</ele>
        <time>2017-08-25T08:27:10Z</time>
      </trkpt>
      <trkpt lat="45.95925" lon="4.77416">
        <ele>195</ele>
        <time>2017-08-25T08:27:11Z</time>
      </trkpt>
      <trkpt lat="45.95928" lon="4.77423">
        <ele>195</ele>
        <time>2017-08-25T08:27:12Z</time>
      </trkpt>
      <trkpt lat="45.9593" lon="4.77429">
        <ele>195</ele>
        <time>2017-08-25T08:27:13Z</time>
      </trkpt>
      <trkpt lat="45.95932" lon="4.77436">
        <ele>195</ele>
        <time>2017-08-25T08:27:14Z</time>
      </trkpt>
      <trkpt lat="45.95934" lon="4.77442">
        <ele>195</ele>
        <time>2017-08-25T08:27:15Z</time>
      </trkpt>
      <trkpt lat="45.95938" lon="4.77453">
        <ele>195</ele>
        <time>2017-08-25T08:27:17Z</time>
      </trkpt>
      <trkpt lat="45.95939" lon="4.77458">
        <ele>195</ele>
        <time>2017-08-25T08:27:18Z</time>
      </trkpt>
      <trkpt lat="45.95943" lon="4.7747">
        <ele>195</ele>
        <time>2017-08-25T08:27:20Z</time>
      </trkpt>
      <trkpt lat="45.95946" lon="4.77476">
        <ele>195</ele>
        <time>2017-08-25T08:27:21Z</time>
      </trkpt>
      <trkpt lat="45.95948" lon="4.77482">
        <ele>195</ele>
        <time>2017-08-25T08:27:22Z</time>
      </trkpt>
      <trkpt lat="45.9595" lon="4.77489">
        <ele>195</ele>
        <time>2017-08-25T08:27:23Z</time>
      </trkpt>
      <trkpt lat="45.95953" lon="4.77495">
        <ele>196</ele>
        <time>2017-08-25T08:27:24Z</time>
      </trkpt>
      <trkpt lat="45.95955" lon="4.77501">
        <ele>195</ele>
        <time>2017-08-25T08:27:25Z</time>
      </trkpt>
      <trkpt lat="45.9596" lon="4.77511">
        <ele>195</ele>
        <time>2017-08-25T08:27:27Z</time>
      </trkpt>
      <trkpt lat="45.95962" lon="4.77515">
        <ele>195</ele>
        <time>2017-08-25T08:27:28Z</time>
      </trkpt>
      <trkpt lat="45.95964" lon="4.7752">
        <ele>195</ele>
        <time>2017-08-25T08:27:29Z</time>
      </trkpt>
      <trkpt lat="45.95967" lon="4.77526">
        <ele>195</ele>
        <time>2017-08-25T08:27:30Z</time>
      </trkpt>
      <trkpt lat="45.9597" lon="4.77532">
        <ele>195</ele>
        <time>2017-08-25T08:27:31Z</time>
      </trkpt>
      <trkpt lat="45.95972" lon="4.77537">
        <ele>195</ele>
        <time>2017-08-25T08:27:32Z</time>
      </trkpt>
      <trkpt lat="45.95976" lon="4.77547">
        <ele>195</ele>
        <time>2017-08-25T08:27:34Z</time>
      </trkpt>
      <trkpt lat="45.95979" lon="4.77551">
        <ele>195</ele>
        <time>2017-08-25T08:27:35Z</time>
      </trkpt>
      <trkpt lat="45.95983" lon="4.77561">
        <ele>196</ele>
        <time>2017-08-25T08:27:37Z</time>
      </trkpt>
      <trkpt lat="45.95986" lon="4.77569">
        <ele>196</ele>
        <time>2017-08-25T08:27:38Z</time>
      </trkpt>
      <trkpt lat="45.95988" lon="4.77575">
        <ele>196</ele>
        <time>2017-08-25T08:27:39Z</time>
      </trkpt>
      <trkpt lat="45.9599" lon="4.77581">
        <ele>196</ele>
        <time>2017-08-25T08:27:40Z</time>
      </trkpt>
      <trkpt lat="45.9599" lon="4.77591">
        <ele>196</ele>
        <time>2017-08-25T08:27:42Z</time>
      </trkpt>
      <trkpt lat="45.9599" lon="4.77595">
        <ele>195</ele>
        <time>2017-08-25T08:27:43Z</time>
      </trkpt>
      <trkpt lat="45.95994" lon="4.77604">
        <ele>195</ele>
        <time>2017-08-25T08:27:45Z</time>
      </trkpt>
      <trkpt lat="45.95997" lon="4.77606">
        <ele>195</ele>
        <time>2017-08-25T08:27:46Z</time>
      </trkpt>
      <trkpt lat="45.96003" lon="4.77608">
        <ele>198</ele>
        <time>2017-08-25T08:27:48Z</time>
      </trkpt>
      <trkpt lat="45.96006" lon="4.77611">
        <ele>199</ele>
        <time>2017-08-25T08:27:49Z</time>
      </trkpt>
      <trkpt lat="45.96012" lon="4.77618">
        <ele>199</ele>
        <time>2017-08-25T08:27:51Z</time>
      </trkpt>
      <trkpt lat="45.96015" lon="4.77622">
        <ele>199</ele>
        <time>2017-08-25T08:27:52Z</time>
      </trkpt>
      <trkpt lat="45.96022" lon="4.77629">
        <ele>199</ele>
        <time>2017-08-25T08:27:54Z</time>
      </trkpt>
      <trkpt lat="45.96025" lon="4.77634">
        <ele>199</ele>
        <time>2017-08-25T08:27:55Z</time>
      </trkpt>
      <trkpt lat="45.96032" lon="4.77642">
        <ele>199</ele>
        <time>2017-08-25T08:27:57Z</time>
      </trkpt>
      <trkpt lat="45.96036" lon="4.77645">
        <ele>199</ele>
        <time>2017-08-25T08:27:58Z</time>
      </trkpt>
      <trkpt lat="45.9604" lon="4.7765">
        <ele>199</ele>
        <time>2017-08-25T08:27:59Z</time>
      </trkpt>
      <trkpt lat="45.96044" lon="4.77654">
        <ele>199</ele>
        <time>2017-08-25T08:28:00Z</time>
      </trkpt>
      <trkpt lat="45.96047" lon="4.77659">
        <ele>199</ele>
        <time>2017-08-25T08:28:01Z</time>
      </trkpt>
      <trkpt lat="45.96051" lon="4.77664">
        <ele>200</ele>
        <time>2017-08-25T08:28:02Z</time>
      </trkpt>
      <trkpt lat="45.96055" lon="4.77668">
        <ele>197</ele>
        <time>2017-08-25T08:28:03Z</time>
      </trkpt>
      <trkpt lat="45.96058" lon="4.77672">
        <ele>198</ele>
        <time>2017-08-25T08:28:04Z</time>
      </trkpt>
      <trkpt lat="45.96065" lon="4.7768">
        <ele>198</ele>
        <time>2017-08-25T08:28:06Z</time>
      </trkpt>
      <trkpt lat="45.96069" lon="4.77684">
        <ele>198</ele>
        <time>2017-08-25T08:28:07Z</time>
      </trkpt>
      <trkpt lat="45.96074" lon="4.77694">
        <ele>197</ele>
        <time>2017-08-25T08:28:09Z</time>
      </trkpt>
      <trkpt lat="45.96077" lon="4.77699">
        <ele>197</ele>
        <time>2017-08-25T08:28:10Z</time>
      </trkpt>
      <trkpt lat="45.96079" lon="4.77703">
        <ele>197</ele>
        <time>2017-08-25T08:28:11Z</time>
      </trkpt>
      <trkpt lat="45.96082" lon="4.77708">
        <ele>197</ele>
        <time>2017-08-25T08:28:12Z</time>
      </trkpt>
      <trkpt lat="45.96086" lon="4.77713">
        <ele>199</ele>
        <time>2017-08-25T08:28:13Z</time>
      </trkpt>
      <trkpt lat="45.96089" lon="4.77719">
        <ele>199</ele>
        <time>2017-08-25T08:28:14Z</time>
      </trkpt>
      <trkpt lat="45.96092" lon="4.77724">
        <ele>199</ele>
        <time>2017-08-25T08:28:15Z</time>
      </trkpt>
      <trkpt lat="45.96096" lon="4.7773">
        <ele>199</ele>
        <time>2017-08-25T08:28:16Z</time>
      </trkpt>
      <trkpt lat="45.96099" lon="4.77735">
        <ele>198</ele>
        <time>2017-08-25T08:28:17Z</time>
      </trkpt>
      <trkpt lat="45.96102" lon="4.77741">
        <ele>198</ele>
        <time>2017-08-25T08:28:18Z</time>
      </trkpt>
      <trkpt lat="45.96106" lon="4.77746">
        <ele>199</ele>
        <time>2017-08-25T08:28:19Z</time>
      </trkpt>
      <trkpt lat="45.96109" lon="4.77751">
        <ele>197</ele>
        <time>2017-08-25T08:28:20Z</time>
      </trkpt>
      <trkpt lat="45.96112" lon="4.77756">
        <ele>197</ele>
        <time>2017-08-25T08:28:21Z</time>
      </trkpt>
      <trkpt lat="45.96116" lon="4.77762">
        <ele>197</ele>
        <time>2017-08-25T08:28:22Z</time>
      </trkpt>
      <trkpt lat="45.96119" lon="4.77767">
        <ele>197</ele>
        <time>2017-08-25T08:28:23Z</time>
      </trkpt>
      <trkpt lat="45.96123" lon="4.77772">
        <ele>197</ele>
        <time>2017-08-25T08:28:24Z</time>
      </trkpt>
      <trkpt lat="45.96126" lon="4.77777">
        <ele>197</ele>
        <time>2017-08-25T08:28:25Z</time>
      </trkpt>
      <trkpt lat="45.96129" lon="4.77782">
        <ele>198</ele>
        <time>2017-08-25T08:28:26Z</time>
      </trkpt>
      <trkpt lat="45.96134" lon="4.77792">
        <ele>198</ele>
        <time>2017-08-25T08:28:28Z</time>
      </trkpt>
      <trkpt lat="45.96137" lon="4.77796">
        <ele>198</ele>
        <time>2017-08-25T08:28:29Z</time>
      </trkpt>
      <trkpt lat="45.96143" lon="4.77806">
        <ele>198</ele>
        <time>2017-08-25T08:28:31Z</time>
      </trkpt>
      <trkpt lat="45.96146" lon="4.77811">
        <ele>198</ele>
        <time>2017-08-25T08:28:32Z</time>
      </trkpt>
      <trkpt lat="45.9615" lon="4.77817">
        <ele>198</ele>
        <time>2017-08-25T08:28:33Z</time>
      </trkpt>
      <trkpt lat="45.96153" lon="4.77822">
        <ele>198</ele>
        <time>2017-08-25T08:28:34Z</time>
      </trkpt>
      <trkpt lat="45.96156" lon="4.77828">
        <ele>198</ele>
        <time>2017-08-25T08:28:35Z</time>
      </trkpt>
      <trkpt lat="45.96159" lon="4.77834">
        <ele>198</ele>
        <time>2017-08-25T08:28:36Z</time>
      </trkpt>
      <trkpt lat="45.96162" lon="4.7784">
        <ele>198</ele>
        <time>2017-08-25T08:28:37Z</time>
      </trkpt>
      <trkpt lat="45.96165" lon="4.77846">
        <ele>197</ele>
        <time>2017-08-25T08:28:38Z</time>
      </trkpt>
      <trkpt lat="45.96168" lon="4.77852">
        <ele>201</ele>
        <time>2017-08-25T08:28:39Z</time>
      </trkpt>
      <trkpt lat="45.96171" lon="4.77859">
        <ele>201</ele>
        <time>2017-08-25T08:28:40Z</time>
      </trkpt>
      <trkpt lat="45.96174" lon="4.77865">
        <ele>201</ele>
        <time>2017-08-25T08:28:41Z</time>
      </trkpt>
      <trkpt lat="45.96178" lon="4.77871">
        <ele>201</ele>
        <time>2017-08-25T08:28:42Z</time>
      </trkpt>
      <trkpt lat="45.96182" lon="4.77876">
        <ele>201</ele>
        <time>2017-08-25T08:28:43Z</time>
      </trkpt>
      <trkpt lat="45.96186" lon="4.77882">
        <ele>201</ele>
        <time>2017-08-25T08:28:44Z</time>
      </trkpt>
      <trkpt lat="45.96189" lon="4.77887">
        <ele>201</ele>
        <time>2017-08-25T08:28:45Z</time>
      </trkpt>
      <trkpt lat="45.96193" lon="4.77892">
        <ele>201</ele>
        <time>2017-08-25T08:28:46Z</time>
      </trkpt>
      <trkpt lat="45.96197" lon="4.77897">
        <ele>201</ele>
        <time>2017-08-25T08:28:47Z</time>
      </trkpt>
      <trkpt lat="45.96201" lon="4.77902">
        <ele>202</ele>
        <time>2017-08-25T08:28:48Z</time>
      </trkpt>
      <trkpt lat="45.96205" lon="4.77908">
        <ele>202</ele>
        <time>2017-08-25T08:28:49Z</time>
      </trkpt>
      <trkpt lat="45.96208" lon="4.77914">
        <ele>202</ele>
        <time>2017-08-25T08:28:50Z</time>
      </trkpt>
      <trkpt lat="45.96212" lon="4.77921">
        <ele>199</ele>
        <time>2017-08-25T08:28:51Z</time>
      </trkpt>
      <trkpt lat="45.96216" lon="4.77927">
        <ele>200</ele>
        <time>2017-08-25T08:28:52Z</time>
      </trkpt>
      <trkpt lat="45.9622" lon="4.77933">
        <ele>200</ele>
        <time>2017-08-25T08:28:53Z</time>
      </trkpt>
      <trkpt lat="45.96223" lon="4.77938">
        <ele>200</ele>
        <time>2017-08-25T08:28:54Z</time>
      </trkpt>
      <trkpt lat="45.96227" lon="4.77943">
        <ele>200</ele>
        <time>2017-08-25T08:28:55Z</time>
      </trkpt>
      <trkpt lat="45.9623" lon="4.77948">
        <ele>200</ele>
        <time>2017-08-25T08:28:56Z</time>
      </trkpt>
      <trkpt lat="45.96234" lon="4.77953">
        <ele>199</ele>
        <time>2017-08-25T08:28:57Z</time>
      </trkpt>
      <trkpt lat="45.96237" lon="4.77957">
        <ele>199</ele>
        <time>2017-08-25T08:28:58Z</time>
      </trkpt>
      <trkpt lat="45.96241" lon="4.77961">
        <ele>199</ele>
        <time>2017-08-25T08:28:59Z</time>
      </trkpt>
      <trkpt lat="45.96245" lon="4.77966">
        <ele>199</ele>
        <time>2017-08-25T08:29:00Z</time>
      </trkpt>
      <trkpt lat="45.96249" lon="4.7797">
        <ele>198</ele>
        <time>2017-08-25T08:29:01Z</time>
      </trkpt>
      <trkpt lat="45.96254" lon="4.77974">
        <ele>203</ele>
        <time>2017-08-25T08:29:02Z</time>
      </trkpt>
      <trkpt lat="45.96258" lon="4.77977">
        <ele>202</ele>
        <time>2017-08-25T08:29:03Z</time>
      </trkpt>
      <trkpt lat="45.96263" lon="4.77981">
        <ele>202</ele>
        <time>2017-08-25T08:29:04Z</time>
      </trkpt>
      <trkpt lat="45.96266" lon="4.77985">
        <ele>202</ele>
        <time>2017-08-25T08:29:05Z</time>
      </trkpt>
      <trkpt lat="45.9627" lon="4.77988">
        <ele>202</ele>
        <time>2017-08-25T08:29:06Z</time>
      </trkpt>
      <trkpt lat="45.96274" lon="4.77993">
        <ele>202</ele>
        <time>2017-08-25T08:29:07Z</time>
      </trkpt>
      <trkpt lat="45.96279" lon="4.77997">
        <ele>203</ele>
        <time>2017-08-25T08:29:08Z</time>
      </trkpt>
      <trkpt lat="45.96283" lon="4.78">
        <ele>203</ele>
        <time>2017-08-25T08:29:09Z</time>
      </trkpt>
      <trkpt lat="45.96287" lon="4.78004">
        <ele>199</ele>
        <time>2017-08-25T08:29:10Z</time>
      </trkpt>
      <trkpt lat="45.96292" lon="4.78009">
        <ele>199</ele>
        <time>2017-08-25T08:29:11Z</time>
      </trkpt>
      <trkpt lat="45.96296" lon="4.78013">
        <ele>199</ele>
        <time>2017-08-25T08:29:12Z</time>
      </trkpt>
      <trkpt lat="45.96301" lon="4.78017">
        <ele>199</ele>
        <time>2017-08-25T08:29:13Z</time>
      </trkpt>
      <trkpt lat="45.96305" lon="4.78021">
        <ele>200</ele>
        <time>2017-08-25T08:29:14Z</time>
      </trkpt>
      <trkpt lat="45.96309" lon="4.78026">
        <ele>200</ele>
        <time>2017-08-25T08:29:15Z</time>
      </trkpt>
      <trkpt lat="45.96313" lon="4.78031">
        <ele>200</ele>
        <time>2017-08-25T08:29:16Z</time>
      </trkpt>
      <trkpt lat="45.96317" lon="4.78036">
        <ele>199</ele>
        <time>2017-08-25T08:29:17Z</time>
      </trkpt>
      <trkpt lat="45.96321" lon="4.78042">
        <ele>199</ele>
        <time>2017-08-25T08:29:18Z</time>
      </trkpt>
      <trkpt lat="45.96325" lon="4.78048">
        <ele>199</ele>
        <time>2017-08-25T08:29:19Z</time>
      </trkpt>
      <trkpt lat="45.9633" lon="4.78053">
        <ele>199</ele>
        <time>2017-08-25T08:29:20Z</time>
      </trkpt>
      <trkpt lat="45.96335" lon="4.78059">
        <ele>202</ele>
        <time>2017-08-25T08:29:21Z</time>
      </trkpt>
      <trkpt lat="45.9634" lon="4.78065">
        <ele>201</ele>
        <time>2017-08-25T08:29:22Z</time>
      </trkpt>
      <trkpt lat="45.96346" lon="4.78071">
        <ele>201</ele>
        <time>2017-08-25T08:29:23Z</time>
      </trkpt>
      <trkpt lat="45.96351" lon="4.78077">
        <ele>201</ele>
        <time>2017-08-25T08:29:24Z</time>
      </trkpt>
      <trkpt lat="45.96356" lon="4.78083">
        <ele>202</ele>
        <time>2017-08-25T08:29:25Z</time>
      </trkpt>
      <trkpt lat="45.96361" lon="4.78088">
        <ele>199</ele>
        <time>2017-08-25T08:29:26Z</time>
      </trkpt>
      <trkpt lat="45.96365" lon="4.78093">
        <ele>199</ele>
        <time>2017-08-25T08:29:27Z</time>
      </trkpt>
      <trkpt lat="45.96369" lon="4.78097">
        <ele>199</ele>
        <time>2017-08-25T08:29:28Z</time>
      </trkpt>
      <trkpt lat="45.96374" lon="4.78101">
        <ele>199</ele>
        <time>2017-08-25T08:29:29Z</time>
      </trkpt>
      <trkpt lat="45.96378" lon="4.78103">
        <ele>200</ele>
        <time>2017-08-25T08:29:30Z</time>
      </trkpt>
      <trkpt lat="45.96382" lon="4.78107">
        <ele>200</ele>
        <time>2017-08-25T08:29:31Z</time>
      </trkpt>
      <trkpt lat="45.96385" lon="4.78111">
        <ele>200</ele>
        <time>2017-08-25T08:29:32Z</time>
      </trkpt>
      <trkpt lat="45.96392" lon="4.78119">
        <ele>200</ele>
        <time>2017-08-25T08:29:34Z</time>
      </trkpt>
      <trkpt lat="45.96395" lon="4.78122">
        <ele>200</ele>
        <time>2017-08-25T08:29:35Z</time>
      </trkpt>
      <trkpt lat="45.96403" lon="4.78127">
        <ele>200</ele>
        <time>2017-08-25T08:29:37Z</time>
      </trkpt>
      <trkpt lat="45.96406" lon="4.7813">
        <ele>199</ele>
        <time>2017-08-25T08:29:38Z</time>
      </trkpt>
      <trkpt lat="45.96411" lon="4.78134">
        <ele>199</ele>
        <time>2017-08-25T08:29:39Z</time>
      </trkpt>
      <trkpt lat="45.96414" lon="4.78138">
        <ele>199</ele>
        <time>2017-08-25T08:29:40Z</time>
      </trkpt>
      <trkpt lat="45.96419" lon="4.78142">
        <ele>203</ele>
        <time>2017-08-25T08:29:41Z</time>
      </trkpt>
      <trkpt lat="45.96425" lon="4.7815">
        <ele>202</ele>
        <time>2017-08-25T08:29:42Z</time>
      </trkpt>
      <trkpt lat="45.9643" lon="4.78155">
        <ele>202</ele>
        <time>2017-08-25T08:29:43Z</time>
      </trkpt>
      <trkpt lat="45.96436" lon="4.78161">
        <ele>202</ele>
        <time>2017-08-25T08:29:44Z</time>
      </trkpt>
      <trkpt lat="45.9644" lon="4.78165">
        <ele>203</ele>
        <time>2017-08-25T08:29:45Z</time>
      </trkpt>
      <trkpt lat="45.96444" lon="4.7817">
        <ele>199</ele>
        <time>2017-08-25T08:29:46Z</time>
      </trkpt>
      <trkpt lat="45.96448" lon="4.78174">
        <ele>199</ele>
        <time>2017-08-25T08:29:47Z</time>
      </trkpt>
      <trkpt lat="45.96453" lon="4.78178">
        <ele>199</ele>
        <time>2017-08-25T08:29:48Z</time>
      </trkpt>
      <trkpt lat="45.96457" lon="4.78182">
        <ele>200</ele>
        <time>2017-08-25T08:29:49Z</time>
      </trkpt>
      <trkpt lat="45.96462" lon="4.78186">
        <ele>200</ele>
        <time>2017-08-25T08:29:50Z</time>
      </trkpt>
      <trkpt lat="45.96466" lon="4.78189">
        <ele>200</ele>
        <time>2017-08-25T08:29:51Z</time>
      </trkpt>
      <trkpt lat="45.96471" lon="4.78192">
        <ele>200</ele>
        <time>2017-08-25T08:29:52Z</time>
      </trkpt>
      <trkpt lat="45.96475" lon="4.78194">
        <ele>200</ele>
        <time>2017-08-25T08:29:53Z</time>
      </trkpt>
      <trkpt lat="45.9648" lon="4.78197">
        <ele>200</ele>
        <time>2017-08-25T08:29:54Z</time>
      </trkpt>
      <trkpt lat="45.96485" lon="4.78199">
        <ele>200</ele>
        <time>2017-08-25T08:29:55Z</time>
      </trkpt>
      <trkpt lat="45.9649" lon="4.78202">
        <ele>200</ele>
        <time>2017-08-25T08:29:56Z</time>
      </trkpt>
      <trkpt lat="45.96495" lon="4.78207">
        <ele>200</ele>
        <time>2017-08-25T08:29:57Z</time>
      </trkpt>
      <trkpt lat="45.965" lon="4.78211">
        <ele>200</ele>
        <time>2017-08-25T08:29:58Z</time>
      </trkpt>
      <trkpt lat="45.96504" lon="4.78216">
        <ele>204</ele>
        <time>2017-08-25T08:29:59Z</time>
      </trkpt>
      <trkpt lat="45.96509" lon="4.78222">
        <ele>204</ele>
        <time>2017-08-25T08:30:00Z</time>
      </trkpt>
      <trkpt lat="45.96512" lon="4.78228">
        <ele>204</ele>
        <time>2017-08-25T08:30:01Z</time>
      </trkpt>
      <trkpt lat="45.96516" lon="4.78233">
        <ele>203</ele>
        <time>2017-08-25T08:30:02Z</time>
      </trkpt>
      <trkpt lat="45.96519" lon="4.78238">
        <ele>203</ele>
        <time>2017-08-25T08:30:03Z</time>
      </trkpt>
      <trkpt lat="45.96522" lon="4.78243">
        <ele>203</ele>
        <time>2017-08-25T08:30:04Z</time>
      </trkpt>
      <trkpt lat="45.96528" lon="4.78252">
        <ele>200</ele>
        <time>2017-08-25T08:30:06Z</time>
      </trkpt>
      <trkpt lat="45.96531" lon="4.78257">
        <ele>200</ele>
        <time>2017-08-25T08:30:07Z</time>
      </trkpt>
      <trkpt lat="45.96535" lon="4.78262">
        <ele>200</ele>
        <time>2017-08-25T08:30:08Z</time>
      </trkpt>
      <trkpt lat="45.96538" lon="4.78268">
        <ele>200</ele>
        <time>2017-08-25T08:30:09Z</time>
      </trkpt>
      <trkpt lat="45.96542" lon="4.78273">
        <ele>200</ele>
        <time>2017-08-25T08:30:10Z</time>
      </trkpt>
      <trkpt lat="45.96546" lon="4.78279">
        <ele>200</ele>
        <time>2017-08-25T08:30:11Z</time>
      </trkpt>
      <trkpt lat="45.9655" lon="4.78285">
        <ele>200</ele>
        <time>2017-08-25T08:30:12Z</time>
      </trkpt>
      <trkpt lat="45.96555" lon="4.78292">
        <ele>200</ele>
        <time>2017-08-25T08:30:13Z</time>
      </trkpt>
      <trkpt lat="45.96558" lon="4.78297">
        <ele>200</ele>
        <time>2017-08-25T08:30:14Z</time>
      </trkpt>
      <trkpt lat="45.96562" lon="4.78302">
        <ele>200</ele>
        <time>2017-08-25T08:30:15Z</time>
      </trkpt>
      <trkpt lat="45.96566" lon="4.78307">
        <ele>200</ele>
        <time>2017-08-25T08:30:16Z</time>
      </trkpt>
      <trkpt lat="45.9657" lon="4.78311">
        <ele>199</ele>
        <time>2017-08-25T08:30:17Z</time>
      </trkpt>
      <trkpt lat="45.96574" lon="4.78316">
        <ele>199</ele>
        <time>2017-08-25T08:30:18Z</time>
      </trkpt>
      <trkpt lat="45.96578" lon="4.7832">
        <ele>199</ele>
        <time>2017-08-25T08:30:19Z</time>
      </trkpt>
      <trkpt lat="45.96582" lon="4.78324">
        <ele>199</ele>
        <time>2017-08-25T08:30:20Z</time>
      </trkpt>
      <trkpt lat="45.96587" lon="4.78328">
        <ele>200</ele>
        <time>2017-08-25T08:30:21Z</time>
      </trkpt>
      <trkpt lat="45.96591" lon="4.78333">
        <ele>200</ele>
        <time>2017-08-25T08:30:22Z</time>
      </trkpt>
      <trkpt lat="45.96596" lon="4.78337">
        <ele>199</ele>
        <time>2017-08-25T08:30:23Z</time>
      </trkpt>
      <trkpt lat="45.966" lon="4.78342">
        <ele>200</ele>
        <time>2017-08-25T08:30:24Z</time>
      </trkpt>
      <trkpt lat="45.96605" lon="4.78346">
        <ele>200</ele>
        <time>2017-08-25T08:30:25Z</time>
      </trkpt>
      <trkpt lat="45.9661" lon="4.78351">
        <ele>200</ele>
        <time>2017-08-25T08:30:26Z</time>
      </trkpt>
      <trkpt lat="45.96614" lon="4.78355">
        <ele>201</ele>
        <time>2017-08-25T08:30:27Z</time>
      </trkpt>
      <trkpt lat="45.96618" lon="4.78359">
        <ele>201</ele>
        <time>2017-08-25T08:30:28Z</time>
      </trkpt>
      <trkpt lat="45.96622" lon="4.78362">
        <ele>201</ele>
        <time>2017-08-25T08:30:29Z</time>
      </trkpt>
      <trkpt lat="45.96626" lon="4.78365">
        <ele>201</ele>
        <time>2017-08-25T08:30:30Z</time>
      </trkpt>
      <trkpt lat="45.9663" lon="4.78369">
        <ele>201</ele>
        <time>2017-08-25T08:30:31Z</time>
      </trkpt>
      <trkpt lat="45.96634" lon="4.78372">
        <ele>201</ele>
        <time>2017-08-25T08:30:32Z</time>
      </trkpt>
      <trkpt lat="45.96639" lon="4.78376">
        <ele>201</ele>
        <time>2017-08-25T08:30:33Z</time>
      </trkpt>
      <trkpt lat="45.96643" lon="4.7838">
        <ele>201</ele>
        <time>2017-08-25T08:30:34Z</time>
      </trkpt>
      <trkpt lat="45.96648" lon="4.78384">
        <ele>201</ele>
        <time>2017-08-25T08:30:35Z</time>
      </trkpt>
      <trkpt lat="45.96653" lon="4.78388">
        <ele>201</ele>
        <time>2017-08-25T08:30:36Z</time>
      </trkpt>
      <trkpt lat="45.96657" lon="4.78392">
        <ele>201</ele>
        <time>2017-08-25T08:30:37Z</time>
      </trkpt>
      <trkpt lat="45.96661" lon="4.78396">
        <ele>201</ele>
        <time>2017-08-25T08:30:38Z</time>
      </trkpt>
      <trkpt lat="45.96665" lon="4.784">
        <ele>201</ele>
        <time>2017-08-25T08:30:39Z</time>
      </trkpt>
      <trkpt lat="45.96669" lon="4.78405">
        <ele>203</ele>
        <time>2017-08-25T08:30:40Z</time>
      </trkpt>
      <trkpt lat="45.96672" lon="4.78408">
        <ele>203</ele>
        <time>2017-08-25T08:30:41Z</time>
      </trkpt>
      <trkpt lat="45.9668" lon="4.78415">
        <ele>203</ele>
        <time>2017-08-25T08:30:43Z</time>
      </trkpt>
      <trkpt lat="45.96684" lon="4.78418">
        <ele>202</ele>
        <time>2017-08-25T08:30:44Z</time>
      </trkpt>
      <trkpt lat="45.96692" lon="4.78424">
        <ele>202</ele>
        <time>2017-08-25T08:30:46Z</time>
      </trkpt>
      <trkpt lat="45.96695" lon="4.78428">
        <ele>202</ele>
        <time>2017-08-25T08:30:47Z</time>
      </trkpt>
      <trkpt lat="45.96701" lon="4.78436">
        <ele>203</ele>
        <time>2017-08-25T08:30:49Z</time>
      </trkpt>
      <trkpt lat="45.96703" lon="4.78441">
        <ele>203</ele>
        <time>2017-08-25T08:30:50Z</time>
      </trkpt>
      <trkpt lat="45.96709" lon="4.78449">
        <ele>203</ele>
        <time>2017-08-25T08:30:52Z</time>
      </trkpt>
      <trkpt lat="45.96714" lon="4.78452">
        <ele>203</ele>
        <time>2017-08-25T08:30:53Z</time>
      </trkpt>
      <trkpt lat="45.96717" lon="4.78456">
        <ele>203</ele>
        <time>2017-08-25T08:30:54Z</time>
      </trkpt>
      <trkpt lat="45.96722" lon="4.7846">
        <ele>203</ele>
        <time>2017-08-25T08:30:55Z</time>
      </trkpt>
      <trkpt lat="45.96726" lon="4.78464">
        <ele>203</ele>
        <time>2017-08-25T08:30:56Z</time>
      </trkpt>
      <trkpt lat="45.96731" lon="4.78467">
        <ele>203</ele>
        <time>2017-08-25T08:30:57Z</time>
      </trkpt>
      <trkpt lat="45.96735" lon="4.78471">
        <ele>203</ele>
        <time>2017-08-25T08:30:58Z</time>
      </trkpt>
      <trkpt lat="45.9674" lon="4.78475">
        <ele>203</ele>
        <time>2017-08-25T08:30:59Z</time>
      </trkpt>
      <trkpt lat="45.96744" lon="4.78478">
        <ele>203</ele>
        <time>2017-08-25T08:31:00Z</time>
      </trkpt>
      <trkpt lat="45.96749" lon="4.78481">
        <ele>203</ele>
        <time>2017-08-25T08:31:01Z</time>
      </trkpt>
      <trkpt lat="45.96753" lon="4.78485">
        <ele>205</ele>
        <time>2017-08-25T08:31:02Z</time>
      </trkpt>
      <trkpt lat="45.96757" lon="4.78489">
        <ele>204</ele>
        <time>2017-08-25T08:31:03Z</time>
      </trkpt>
      <trkpt lat="45.96761" lon="4.78493">
        <ele>204</ele>
        <time>2017-08-25T08:31:04Z</time>
      </trkpt>
      <trkpt lat="45.96766" lon="4.78499">
        <ele>204</ele>
        <time>2017-08-25T08:31:05Z</time>
      </trkpt>
      <trkpt lat="45.9677" lon="4.78505">
        <ele>203</ele>
        <time>2017-08-25T08:31:06Z</time>
      </trkpt>
      <trkpt lat="45.96774" lon="4.78511">
        <ele>203</ele>
        <time>2017-08-25T08:31:07Z</time>
      </trkpt>
      <trkpt lat="45.96778" lon="4.78517">
        <ele>203</ele>
        <time>2017-08-25T08:31:08Z</time>
      </trkpt>
      <trkpt lat="45.96781" lon="4.78523">
        <ele>203</ele>
        <time>2017-08-25T08:31:09Z</time>
      </trkpt>
      <trkpt lat="45.96785" lon="4.78529">
        <ele>203</ele>
        <time>2017-08-25T08:31:10Z</time>
      </trkpt>
      <trkpt lat="45.96788" lon="4.78534">
        <ele>203</ele>
        <time>2017-08-25T08:31:11Z</time>
      </trkpt>
      <trkpt lat="45.96794" lon="4.78543">
        <ele>203</ele>
        <time>2017-08-25T08:31:13Z</time>
      </trkpt>
      <trkpt lat="45.96797" lon="4.78547">
        <ele>203</ele>
        <time>2017-08-25T08:31:14Z</time>
      </trkpt>
      <trkpt lat="45.96801" lon="4.78553">
        <ele>203</ele>
        <time>2017-08-25T08:31:15Z</time>
      </trkpt>
      <trkpt lat="45.96803" lon="4.78557">
        <ele>203</ele>
        <time>2017-08-25T08:31:16Z</time>
      </trkpt>
      <trkpt lat="45.96807" lon="4.78562">
        <ele>203</ele>
        <time>2017-08-25T08:31:17Z</time>
      </trkpt>
      <trkpt lat="45.9681" lon="4.78566">
        <ele>203</ele>
        <time>2017-08-25T08:31:18Z</time>
      </trkpt>
      <trkpt lat="45.96814" lon="4.78571">
        <ele>203</ele>
        <time>2017-08-25T08:31:19Z</time>
      </trkpt>
      <trkpt lat="45.96817" lon="4.78576">
        <ele>203</ele>
        <time>2017-08-25T08:31:20Z</time>
      </trkpt>
      <trkpt lat="45.96822" lon="4.78584">
        <ele>202</ele>
        <time>2017-08-25T08:31:22Z</time>
      </trkpt>
      <trkpt lat="45.96825" lon="4.78589">
        <ele>202</ele>
        <time>2017-08-25T08:31:23Z</time>
      </trkpt>
      <trkpt lat="45.96828" lon="4.786">
        <ele>202</ele>
        <time>2017-08-25T08:31:25Z</time>
      </trkpt>
      <trkpt lat="45.9683" lon="4.78605">
        <ele>202</ele>
        <time>2017-08-25T08:31:26Z</time>
      </trkpt>
      <trkpt lat="45.96834" lon="4.78616">
        <ele>203</ele>
        <time>2017-08-25T08:31:28Z</time>
      </trkpt>
      <trkpt lat="45.96836" lon="4.78621">
        <ele>203</ele>
        <time>2017-08-25T08:31:29Z</time>
      </trkpt>
      <trkpt lat="45.96838" lon="4.78627">
        <ele>203</ele>
        <time>2017-08-25T08:31:30Z</time>
      </trkpt>
      <trkpt lat="45.9684" lon="4.78633">
        <ele>203</ele>
        <time>2017-08-25T08:31:31Z</time>
      </trkpt>
      <trkpt lat="45.96843" lon="4.78639">
        <ele>203</ele>
        <time>2017-08-25T08:31:32Z</time>
      </trkpt>
      <trkpt lat="45.96846" lon="4.78646">
        <ele>203</ele>
        <time>2017-08-25T08:31:33Z</time>
      </trkpt>
      <trkpt lat="45.96848" lon="4.78653">
        <ele>203</ele>
        <time>2017-08-25T08:31:34Z</time>
      </trkpt>
      <trkpt lat="45.96851" lon="4.7866">
        <ele>203</ele>
        <time>2017-08-25T08:31:35Z</time>
      </trkpt>
      <trkpt lat="45.96854" lon="4.78666">
        <ele>203</ele>
        <time>2017-08-25T08:31:36Z</time>
      </trkpt>
      <trkpt lat="45.96856" lon="4.78673">
        <ele>202</ele>
        <time>2017-08-25T08:31:37Z</time>
      </trkpt>
      <trkpt lat="45.96858" lon="4.78679">
        <ele>202</ele>
        <time>2017-08-25T08:31:38Z</time>
      </trkpt>
      <trkpt lat="45.96861" lon="4.78684">
        <ele>202</ele>
        <time>2017-08-25T08:31:39Z</time>
      </trkpt>
      <trkpt lat="45.96863" lon="4.7869">
        <ele>202</ele>
        <time>2017-08-25T08:31:40Z</time>
      </trkpt>
      <trkpt lat="45.96866" lon="4.78696">
        <ele>202</ele>
        <time>2017-08-25T08:31:41Z</time>
      </trkpt>
      <trkpt lat="45.96869" lon="4.78701">
        <ele>202</ele>
        <time>2017-08-25T08:31:42Z</time>
      </trkpt>
      <trkpt lat="45.96871" lon="4.78708">
        <ele>202</ele>
        <time>2017-08-25T08:31:43Z</time>
      </trkpt>
      <trkpt lat="45.96874" lon="4.78714">
        <ele>202</ele>
        <time>2017-08-25T08:31:44Z</time>
      </trkpt>
      <trkpt lat="45.96877" lon="4.78721">
        <ele>202</ele>
        <time>2017-08-25T08:31:45Z</time>
      </trkpt>
      <trkpt lat="45.96878" lon="4.78726">
        <ele>202</ele>
        <time>2017-08-25T08:31:46Z</time>
      </trkpt>
      <trkpt lat="45.96881" lon="4.78733">
        <ele>202</ele>
        <time>2017-08-25T08:31:47Z</time>
      </trkpt>
      <trkpt lat="45.96884" lon="4.78739">
        <ele>202</ele>
        <time>2017-08-25T08:31:48Z</time>
      </trkpt>
      <trkpt lat="45.96888" lon="4.78743">
        <ele>202</ele>
        <time>2017-08-25T08:31:49Z</time>
      </trkpt>
      <trkpt lat="45.96892" lon="4.78748">
        <ele>202</ele>
        <time>2017-08-25T08:31:50Z</time>
      </trkpt>
      <trkpt lat="45.96895" lon="4.78753">
        <ele>201</ele>
        <time>2017-08-25T08:31:51Z</time>
      </trkpt>
      <trkpt lat="45.96898" lon="4.78759">
        <ele>201</ele>
        <time>2017-08-25T08:31:52Z</time>
      </trkpt>
      <trkpt lat="45.969" lon="4.78764">
        <ele>201</ele>
        <time>2017-08-25T08:31:53Z</time>
      </trkpt>
      <trkpt lat="45.96902" lon="4.7877">
        <ele>201</ele>
        <time>2017-08-25T08:31:54Z</time>
      </trkpt>
      <trkpt lat="45.96905" lon="4.78776">
        <ele>201</ele>
        <time>2017-08-25T08:31:55Z</time>
      </trkpt>
      <trkpt lat="45.96908" lon="4.78783">
        <ele>201</ele>
        <time>2017-08-25T08:31:56Z</time>
      </trkpt>
      <trkpt lat="45.96911" lon="4.78789">
        <ele>201</ele>
        <time>2017-08-25T08:31:57Z</time>
      </trkpt>
      <trkpt lat="45.96914" lon="4.78795">
        <ele>201</ele>
        <time>2017-08-25T08:31:58Z</time>
      </trkpt>
      <trkpt lat="45.96917" lon="4.78802">
        <ele>203</ele>
        <time>2017-08-25T08:31:59Z</time>
      </trkpt>
      <trkpt lat="45.9692" lon="4.78808">
        <ele>202</ele>
        <time>2017-08-25T08:32:00Z</time>
      </trkpt>
      <trkpt lat="45.96923" lon="4.78813">
        <ele>202</ele>
        <time>2017-08-25T08:32:01Z</time>
      </trkpt>
      <trkpt lat="45.96926" lon="4.78818">
        <ele>202</ele>
        <time>2017-08-25T08:32:02Z</time>
      </trkpt>
      <trkpt lat="45.9693" lon="4.78823">
        <ele>202</ele>
        <time>2017-08-25T08:32:03Z</time>
      </trkpt>
      <trkpt lat="45.96934" lon="4.78828">
        <ele>202</ele>
        <time>2017-08-25T08:32:04Z</time>
      </trkpt>
      <trkpt lat="45.96938" lon="4.78833">
        <ele>202</ele>
        <time>2017-08-25T08:32:05Z</time>
      </trkpt>
      <trkpt lat="45.96942" lon="4.78838">
        <ele>202</ele>
        <time>2017-08-25T08:32:06Z</time>
      </trkpt>
      <trkpt lat="45.96947" lon="4.78843">
        <ele>202</ele>
        <time>2017-08-25T08:32:07Z</time>
      </trkpt>
      <trkpt lat="45.96951" lon="4.78848">
        <ele>203</ele>
        <time>2017-08-25T08:32:08Z</time>
      </trkpt>
      <trkpt lat="45.96955" lon="4.78854">
        <ele>203</ele>
        <time>2017-08-25T08:32:09Z</time>
      </trkpt>
      <trkpt lat="45.9696" lon="4.7886">
        <ele>203</ele>
        <time>2017-08-25T08:32:10Z</time>
      </trkpt>
      <trkpt lat="45.96964" lon="4.78865">
        <ele>203</ele>
        <time>2017-08-25T08:32:11Z</time>
      </trkpt>
      <trkpt lat="45.96968" lon="4.78869">
        <ele>203</ele>
        <time>2017-08-25T08:32:12Z</time>
      </trkpt>
      <trkpt lat="45.96971" lon="4.78874">
        <ele>203</ele>
        <time>2017-08-25T08:32:13Z</time>
      </trkpt>
      <trkpt lat="45.96975" lon="4.78878">
        <ele>203</ele>
        <time>2017-08-25T08:32:14Z</time>
      </trkpt>
      <trkpt lat="45.96979" lon="4.78882">
        <ele>203</ele>
        <time>2017-08-25T08:32:15Z</time>
      </trkpt>
      <trkpt lat="45.96982" lon="4.78886">
        <ele>203</ele>
        <time>2017-08-25T08:32:16Z</time>
      </trkpt>
      <trkpt lat="45.96986" lon="4.78891">
        <ele>203</ele>
        <time>2017-08-25T08:32:17Z</time>
      </trkpt>
      <trkpt lat="45.96989" lon="4.78895">
        <ele>203</ele>
        <time>2017-08-25T08:32:18Z</time>
      </trkpt>
      <trkpt lat="45.96993" lon="4.789">
        <ele>203</ele>
        <time>2017-08-25T08:32:19Z</time>
      </trkpt>
      <trkpt lat="45.96996" lon="4.78904">
        <ele>204</ele>
        <time>2017-08-25T08:32:20Z</time>
      </trkpt>
      <trkpt lat="45.97" lon="4.78909">
        <ele>204</ele>
        <time>2017-08-25T08:32:21Z</time>
      </trkpt>
      <trkpt lat="45.97004" lon="4.78914">
        <ele>205</ele>
        <time>2017-08-25T08:32:22Z</time>
      </trkpt>
      <trkpt lat="45.97007" lon="4.78918">
        <ele>204</ele>
        <time>2017-08-25T08:32:23Z</time>
      </trkpt>
      <trkpt lat="45.97011" lon="4.78923">
        <ele>204</ele>
        <time>2017-08-25T08:32:24Z</time>
      </trkpt>
      <trkpt lat="45.97014" lon="4.78928">
        <ele>205</ele>
        <time>2017-08-25T08:32:25Z</time>
      </trkpt>
      <trkpt lat="45.9702" lon="4.78938">
        <ele>205</ele>
        <time>2017-08-25T08:32:27Z</time>
      </trkpt>
      <trkpt lat="45.97023" lon="4.78942">
        <ele>205</ele>
        <time>2017-08-25T08:32:28Z</time>
      </trkpt>
      <trkpt lat="45.97028" lon="4.7895">
        <ele>205</ele>
        <time>2017-08-25T08:32:30Z</time>
      </trkpt>
      <trkpt lat="45.97031" lon="4.78954">
        <ele>205</ele>
        <time>2017-08-25T08:32:31Z</time>
      </trkpt>
      <trkpt lat="45.97036" lon="4.78963">
        <ele>205</ele>
        <time>2017-08-25T08:32:33Z</time>
      </trkpt>
      <trkpt lat="45.97039" lon="4.78968">
        <ele>205</ele>
        <time>2017-08-25T08:32:34Z</time>
      </trkpt>
      <trkpt lat="45.97041" lon="4.78974">
        <ele>205</ele>
        <time>2017-08-25T08:32:35Z</time>
      </trkpt>
      <trkpt lat="45.97044" lon="4.78981">
        <ele>205</ele>
        <time>2017-08-25T08:32:36Z</time>
      </trkpt>
      <trkpt lat="45.97048" lon="4.78991">
        <ele>205</ele>
        <time>2017-08-25T08:32:38Z</time>
      </trkpt>
      <trkpt lat="45.97049" lon="4.78997">
        <ele>205</ele>
        <time>2017-08-25T08:32:39Z</time>
      </trkpt>
      <trkpt lat="45.97053" lon="4.79008">
        <ele>203</ele>
        <time>2017-08-25T08:32:41Z</time>
      </trkpt>
      <trkpt lat="45.97055" lon="4.79014">
        <ele>203</ele>
        <time>2017-08-25T08:32:42Z</time>
      </trkpt>
      <trkpt lat="45.97057" lon="4.7902">
        <ele>203</ele>
        <time>2017-08-25T08:32:43Z</time>
      </trkpt>
      <trkpt lat="45.97059" lon="4.79027">
        <ele>203</ele>
        <time>2017-08-25T08:32:44Z</time>
      </trkpt>
      <trkpt lat="45.97061" lon="4.79033">
        <ele>203</ele>
        <time>2017-08-25T08:32:45Z</time>
      </trkpt>
      <trkpt lat="45.97062" lon="4.7904">
        <ele>203</ele>
        <time>2017-08-25T08:32:46Z</time>
      </trkpt>
      <trkpt lat="45.97064" lon="4.79047">
        <ele>203</ele>
        <time>2017-08-25T08:32:47Z</time>
      </trkpt>
      <trkpt lat="45.97066" lon="4.79055">
        <ele>203</ele>
        <time>2017-08-25T08:32:48Z</time>
      </trkpt>
      <trkpt lat="45.97069" lon="4.79062">
        <ele>203</ele>
        <time>2017-08-25T08:32:49Z</time>
      </trkpt>
      <trkpt lat="45.97071" lon="4.7907">
        <ele>204</ele>
        <time>2017-08-25T08:32:50Z</time>
      </trkpt>
      <trkpt lat="45.97073" lon="4.79077">
        <ele>204</ele>
        <time>2017-08-25T08:32:51Z</time>
      </trkpt>
      <trkpt lat="45.97075" lon="4.79083">
        <ele>204</ele>
        <time>2017-08-25T08:32:52Z</time>
      </trkpt>
      <trkpt lat="45.97077" lon="4.79089">
        <ele>204</ele>
        <time>2017-08-25T08:32:53Z</time>
      </trkpt>
      <trkpt lat="45.97078" lon="4.79095">
        <ele>204</ele>
        <time>2017-08-25T08:32:54Z</time>
      </trkpt>
      <trkpt lat="45.9708" lon="4.79101">
        <ele>204</ele>
        <time>2017-08-25T08:32:55Z</time>
      </trkpt>
      <trkpt lat="45.97082" lon="4.79107">
        <ele>204</ele>
        <time>2017-08-25T08:32:56Z</time>
      </trkpt>
      <trkpt lat="45.97085" lon="4.79113">
        <ele>206</ele>
        <time>2017-08-25T08:32:57Z</time>
      </trkpt>
      <trkpt lat="45.97088" lon="4.79119">
        <ele>206</ele>
        <time>2017-08-25T08:32:58Z</time>
      </trkpt>
      <trkpt lat="45.97091" lon="4.79126">
        <ele>206</ele>
        <time>2017-08-25T08:32:59Z</time>
      </trkpt>
      <trkpt lat="45.97095" lon="4.79132">
        <ele>206</ele>
        <time>2017-08-25T08:33:00Z</time>
      </trkpt>
      <trkpt lat="45.97099" lon="4.79138">
        <ele>206</ele>
        <time>2017-08-25T08:33:01Z</time>
      </trkpt>
      <trkpt lat="45.97102" lon="4.79144">
        <ele>206</ele>
        <time>2017-08-25T08:33:02Z</time>
      </trkpt>
      <trkpt lat="45.97105" lon="4.7915">
        <ele>206</ele>
        <time>2017-08-25T08:33:03Z</time>
      </trkpt>
      <trkpt lat="45.97108" lon="4.79156">
        <ele>206</ele>
        <time>2017-08-25T08:33:04Z</time>
      </trkpt>
      <trkpt lat="45.97111" lon="4.79162">
        <ele>206</ele>
        <time>2017-08-25T08:33:05Z</time>
      </trkpt>
      <trkpt lat="45.97113" lon="4.79168">
        <ele>205</ele>
        <time>2017-08-25T08:33:06Z</time>
      </trkpt>
      <trkpt lat="45.97116" lon="4.79174">
        <ele>206</ele>
        <time>2017-08-25T08:33:07Z</time>
      </trkpt>
      <trkpt lat="45.97118" lon="4.79181">
        <ele>206</ele>
        <time>2017-08-25T08:33:08Z</time>
      </trkpt>
      <trkpt lat="45.9712" lon="4.79186">
        <ele>206</ele>
        <time>2017-08-25T08:33:09Z</time>
      </trkpt>
      <trkpt lat="45.97123" lon="4.79192">
        <ele>206</ele>
        <time>2017-08-25T08:33:10Z</time>
      </trkpt>
      <trkpt lat="45.97125" lon="4.79199">
        <ele>206</ele>
        <time>2017-08-25T08:33:11Z</time>
      </trkpt>
      <trkpt lat="45.97128" lon="4.79205">
        <ele>206</ele>
        <time>2017-08-25T08:33:12Z</time>
      </trkpt>
      <trkpt lat="45.97131" lon="4.79212">
        <ele>206</ele>
        <time>2017-08-25T08:33:13Z</time>
      </trkpt>
      <trkpt lat="45.97133" lon="4.79218">
        <ele>205</ele>
        <time>2017-08-25T08:33:14Z</time>
      </trkpt>
      <trkpt lat="45.97136" lon="4.79225">
        <ele>205</ele>
        <time>2017-08-25T08:33:15Z</time>
      </trkpt>
      <trkpt lat="45.97139" lon="4.79231">
        <ele>205</ele>
        <time>2017-08-25T08:33:16Z</time>
      </trkpt>
      <trkpt lat="45.97141" lon="4.79238">
        <ele>205</ele>
        <time>2017-08-25T08:33:17Z</time>
      </trkpt>
      <trkpt lat="45.97143" lon="4.79244">
        <ele>205</ele>
        <time>2017-08-25T08:33:18Z</time>
      </trkpt>
      <trkpt lat="45.97145" lon="4.7925">
        <ele>204</ele>
        <time>2017-08-25T08:33:19Z</time>
      </trkpt>
      <trkpt lat="45.97148" lon="4.79255">
        <ele>204</ele>
        <time>2017-08-25T08:33:20Z</time>
      </trkpt>
      <trkpt lat="45.97153" lon="4.79264">
        <ele>204</ele>
        <time>2017-08-25T08:33:22Z</time>
      </trkpt>
      <trkpt lat="45.97155" lon="4.79269">
        <ele>204</ele>
        <time>2017-08-25T08:33:23Z</time>
      </trkpt>
      <trkpt lat="45.97158" lon="4.79274">
        <ele>204</ele>
        <time>2017-08-25T08:33:24Z</time>
      </trkpt>
      <trkpt lat="45.9716" lon="4.7928">
        <ele>204</ele>
        <time>2017-08-25T08:33:25Z</time>
      </trkpt>
      <trkpt lat="45.97162" lon="4.79286">
        <ele>204</ele>
        <time>2017-08-25T08:33:26Z</time>
      </trkpt>
      <trkpt lat="45.97164" lon="4.79293">
        <ele>204</ele>
        <time>2017-08-25T08:33:27Z</time>
      </trkpt>
      <trkpt lat="45.97167" lon="4.793">
        <ele>204</ele>
        <time>2017-08-25T08:33:28Z</time>
      </trkpt>
      <trkpt lat="45.97169" lon="4.79307">
        <ele>207</ele>
        <time>2017-08-25T08:33:29Z</time>
      </trkpt>
      <trkpt lat="45.97172" lon="4.79313">
        <ele>207</ele>
        <time>2017-08-25T08:33:30Z</time>
      </trkpt>
      <trkpt lat="45.97175" lon="4.79319">
        <ele>207</ele>
        <time>2017-08-25T08:33:31Z</time>
      </trkpt>
      <trkpt lat="45.97178" lon="4.79326">
        <ele>206</ele>
        <time>2017-08-25T08:33:32Z</time>
      </trkpt>
      <trkpt lat="45.9718" lon="4.79331">
        <ele>206</ele>
        <time>2017-08-25T08:33:33Z</time>
      </trkpt>
      <trkpt lat="45.97184" lon="4.79341">
        <ele>207</ele>
        <time>2017-08-25T08:33:35Z</time>
      </trkpt>
      <trkpt lat="45.97186" lon="4.79346">
        <ele>207</ele>
        <time>2017-08-25T08:33:36Z</time>
      </trkpt>
      <trkpt lat="45.97189" lon="4.79352">
        <ele>207</ele>
        <time>2017-08-25T08:33:37Z</time>
      </trkpt>
      <trkpt lat="45.97191" lon="4.79358">
        <ele>207</ele>
        <time>2017-08-25T08:33:38Z</time>
      </trkpt>
      <trkpt lat="45.97194" lon="4.79365">
        <ele>207</ele>
        <time>2017-08-25T08:33:39Z</time>
      </trkpt>
      <trkpt lat="45.97196" lon="4.79371">
        <ele>207</ele>
        <time>2017-08-25T08:33:40Z</time>
      </trkpt>
      <trkpt lat="45.97199" lon="4.79377">
        <ele>207</ele>
        <time>2017-08-25T08:33:41Z</time>
      </trkpt>
      <trkpt lat="45.97202" lon="4.79383">
        <ele>208</ele>
        <time>2017-08-25T08:33:42Z</time>
      </trkpt>
      <trkpt lat="45.97204" lon="4.79388">
        <ele>208</ele>
        <time>2017-08-25T08:33:43Z</time>
      </trkpt>
      <trkpt lat="45.97207" lon="4.79393">
        <ele>208</ele>
        <time>2017-08-25T08:33:44Z</time>
      </trkpt>
      <trkpt lat="45.97212" lon="4.79403">
        <ele>208</ele>
        <time>2017-08-25T08:33:46Z</time>
      </trkpt>
      <trkpt lat="45.97213" lon="4.79408">
        <ele>208</ele>
        <time>2017-08-25T08:33:47Z</time>
      </trkpt>
      <trkpt lat="45.97217" lon="4.79416">
        <ele>208</ele>
        <time>2017-08-25T08:33:49Z</time>
      </trkpt>
      <trkpt lat="45.97219" lon="4.79423">
        <ele>208</ele>
        <time>2017-08-25T08:33:50Z</time>
      </trkpt>
      <trkpt lat="45.97221" lon="4.79429">
        <ele>209</ele>
        <time>2017-08-25T08:33:51Z</time>
      </trkpt>
      <trkpt lat="45.97223" lon="4.79436">
        <ele>209</ele>
        <time>2017-08-25T08:33:52Z</time>
      </trkpt>
      <trkpt lat="45.97225" lon="4.79442">
        <ele>209</ele>
        <time>2017-08-25T08:33:53Z</time>
      </trkpt>
      <trkpt lat="45.97228" lon="4.79448">
        <ele>209</ele>
        <time>2017-08-25T08:33:54Z</time>
      </trkpt>
      <trkpt lat="45.9723" lon="4.79455">
        <ele>209</ele>
        <time>2017-08-25T08:33:55Z</time>
      </trkpt>
      <trkpt lat="45.97233" lon="4.79461">
        <ele>209</ele>
        <time>2017-08-25T08:33:56Z</time>
      </trkpt>
      <trkpt lat="45.97234" lon="4.79467">
        <ele>209</ele>
        <time>2017-08-25T08:33:57Z</time>
      </trkpt>
      <trkpt lat="45.97236" lon="4.79473">
        <ele>209</ele>
        <time>2017-08-25T08:33:58Z</time>
      </trkpt>
      <trkpt lat="45.97238" lon="4.79484">
        <ele>209</ele>
        <time>2017-08-25T08:34:00Z</time>
      </trkpt>
      <trkpt lat="45.97239" lon="4.79488">
        <ele>210</ele>
        <time>2017-08-25T08:34:01Z</time>
      </trkpt>
      <trkpt lat="45.97242" lon="4.79499">
        <ele>210</ele>
        <time>2017-08-25T08:34:03Z</time>
      </trkpt>
      <trkpt lat="45.97243" lon="4.79505">
        <ele>210</ele>
        <time>2017-08-25T08:34:04Z</time>
      </trkpt>
      <trkpt lat="45.97244" lon="4.79512">
        <ele>210</ele>
        <time>2017-08-25T08:34:05Z</time>
      </trkpt>
      <trkpt lat="45.97246" lon="4.79518">
        <ele>210</ele>
        <time>2017-08-25T08:34:06Z</time>
      </trkpt>
      <trkpt lat="45.97247" lon="4.79525">
        <ele>210</ele>
        <time>2017-08-25T08:34:07Z</time>
      </trkpt>
      <trkpt lat="45.97248" lon="4.79532">
        <ele>210</ele>
        <time>2017-08-25T08:34:08Z</time>
      </trkpt>
      <trkpt lat="45.97248" lon="4.79543">
        <ele>210</ele>
        <time>2017-08-25T08:34:10Z</time>
      </trkpt>
      <trkpt lat="45.97248" lon="4.79547">
        <ele>210</ele>
        <time>2017-08-25T08:34:11Z</time>
      </trkpt>
      <trkpt lat="45.97249" lon="4.79557">
        <ele>210</ele>
        <time>2017-08-25T08:34:13Z</time>
      </trkpt>
      <trkpt lat="45.9725" lon="4.79562">
        <ele>210</ele>
        <time>2017-08-25T08:34:14Z</time>
      </trkpt>
      <trkpt lat="45.9725" lon="4.79575">
        <ele>210</ele>
        <time>2017-08-25T08:34:16Z</time>
      </trkpt>
      <trkpt lat="45.9725" lon="4.79581">
        <ele>210</ele>
        <time>2017-08-25T08:34:17Z</time>
      </trkpt>
      <trkpt lat="45.97251" lon="4.79588">
        <ele>211</ele>
        <time>2017-08-25T08:34:18Z</time>
      </trkpt>
      <trkpt lat="45.97252" lon="4.79594">
        <ele>212</ele>
        <time>2017-08-25T08:34:19Z</time>
      </trkpt>
      <trkpt lat="45.97252" lon="4.79601">
        <ele>212</ele>
        <time>2017-08-25T08:34:20Z</time>
      </trkpt>
      <trkpt lat="45.97253" lon="4.79607">
        <ele>213</ele>
        <time>2017-08-25T08:34:21Z</time>
      </trkpt>
      <trkpt lat="45.97253" lon="4.79614">
        <ele>213</ele>
        <time>2017-08-25T08:34:22Z</time>
      </trkpt>
      <trkpt lat="45.97252" lon="4.79622">
        <ele>213</ele>
        <time>2017-08-25T08:34:23Z</time>
      </trkpt>
      <trkpt lat="45.97253" lon="4.79628">
        <ele>213</ele>
        <time>2017-08-25T08:34:24Z</time>
      </trkpt>
      <trkpt lat="45.97253" lon="4.79635">
        <ele>212</ele>
        <time>2017-08-25T08:34:25Z</time>
      </trkpt>
      <trkpt lat="45.97253" lon="4.79642">
        <ele>212</ele>
        <time>2017-08-25T08:34:26Z</time>
      </trkpt>
      <trkpt lat="45.97253" lon="4.79648">
        <ele>211</ele>
        <time>2017-08-25T08:34:27Z</time>
      </trkpt>
      <trkpt lat="45.97252" lon="4.79655">
        <ele>211</ele>
        <time>2017-08-25T08:34:28Z</time>
      </trkpt>
      <trkpt lat="45.97251" lon="4.79663">
        <ele>209</ele>
        <time>2017-08-25T08:34:29Z</time>
      </trkpt>
      <trkpt lat="45.97249" lon="4.7967">
        <ele>208</ele>
        <time>2017-08-25T08:34:30Z</time>
      </trkpt>
      <trkpt lat="45.97248" lon="4.79677">
        <ele>208</ele>
        <time>2017-08-25T08:34:31Z</time>
      </trkpt>
      <trkpt lat="45.97247" lon="4.79684">
        <ele>208</ele>
        <time>2017-08-25T08:34:32Z</time>
      </trkpt>
      <trkpt lat="45.97246" lon="4.79691">
        <ele>208</ele>
        <time>2017-08-25T08:34:33Z</time>
      </trkpt>
      <trkpt lat="45.97245" lon="4.79699">
        <ele>208</ele>
        <time>2017-08-25T08:34:34Z</time>
      </trkpt>
      <trkpt lat="45.97243" lon="4.79706">
        <ele>208</ele>
        <time>2017-08-25T08:34:35Z</time>
      </trkpt>
      <trkpt lat="45.97243" lon="4.79713">
        <ele>209</ele>
        <time>2017-08-25T08:34:36Z</time>
      </trkpt>
      <trkpt lat="45.97241" lon="4.79719">
        <ele>209</ele>
        <time>2017-08-25T08:34:37Z</time>
      </trkpt>
      <trkpt lat="45.97241" lon="4.79726">
        <ele>209</ele>
        <time>2017-08-25T08:34:38Z</time>
      </trkpt>
      <trkpt lat="45.9724" lon="4.79733">
        <ele>209</ele>
        <time>2017-08-25T08:34:39Z</time>
      </trkpt>
      <trkpt lat="45.97239" lon="4.7974">
        <ele>209</ele>
        <time>2017-08-25T08:34:40Z</time>
      </trkpt>
      <trkpt lat="45.97238" lon="4.79747">
        <ele>209</ele>
        <time>2017-08-25T08:34:41Z</time>
      </trkpt>
      <trkpt lat="45.97238" lon="4.79754">
        <ele>209</ele>
        <time>2017-08-25T08:34:42Z</time>
      </trkpt>
      <trkpt lat="45.97238" lon="4.79761">
        <ele>209</ele>
        <time>2017-08-25T08:34:43Z</time>
      </trkpt>
      <trkpt lat="45.97238" lon="4.79768">
        <ele>210</ele>
        <time>2017-08-25T08:34:44Z</time>
      </trkpt>
      <trkpt lat="45.97237" lon="4.79775">
        <ele>210</ele>
        <time>2017-08-25T08:34:45Z</time>
      </trkpt>
      <trkpt lat="45.97237" lon="4.79781">
        <ele>210</ele>
        <time>2017-08-25T08:34:46Z</time>
      </trkpt>
      <trkpt lat="45.97237" lon="4.79789">
        <ele>210</ele>
        <time>2017-08-25T08:34:47Z</time>
      </trkpt>
      <trkpt lat="45.97237" lon="4.79797">
        <ele>210</ele>
        <time>2017-08-25T08:34:48Z</time>
      </trkpt>
      <trkpt lat="45.97237" lon="4.79805">
        <ele>210</ele>
        <time>2017-08-25T08:34:49Z</time>
      </trkpt>
      <trkpt lat="45.97236" lon="4.79814">
        <ele>211</ele>
        <time>2017-08-25T08:34:50Z</time>
      </trkpt>
      <trkpt lat="45.97236" lon="4.79822">
        <ele>211</ele>
        <time>2017-08-25T08:34:51Z</time>
      </trkpt>
      <trkpt lat="45.97237" lon="4.7983">
        <ele>211</ele>
        <time>2017-08-25T08:34:52Z</time>
      </trkpt>
      <trkpt lat="45.97237" lon="4.79839">
        <ele>211</ele>
        <time>2017-08-25T08:34:53Z</time>
      </trkpt>
      <trkpt lat="45.97238" lon="4.79846">
        <ele>211</ele>
        <time>2017-08-25T08:34:54Z</time>
      </trkpt>
      <trkpt lat="45.97239" lon="4.79853">
        <ele>211</ele>
        <time>2017-08-25T08:34:55Z</time>
      </trkpt>
      <trkpt lat="45.9724" lon="4.7986">
        <ele>211</ele>
        <time>2017-08-25T08:34:56Z</time>
      </trkpt>
      <trkpt lat="45.97242" lon="4.79867">
        <ele>211</ele>
        <time>2017-08-25T08:34:57Z</time>
      </trkpt>
      <trkpt lat="45.97246" lon="4.79878">
        <ele>211</ele>
        <time>2017-08-25T08:34:59Z</time>
      </trkpt>
      <trkpt lat="45.97248" lon="4.79883">
        <ele>211</ele>
        <time>2017-08-25T08:35:00Z</time>
      </trkpt>
      <trkpt lat="45.97251" lon="4.79893">
        <ele>213</ele>
        <time>2017-08-25T08:35:02Z</time>
      </trkpt>
      <trkpt lat="45.97252" lon="4.79899">
        <ele>213</ele>
        <time>2017-08-25T08:35:03Z</time>
      </trkpt>
      <trkpt lat="45.97254" lon="4.7991">
        <ele>212</ele>
        <time>2017-08-25T08:35:06Z</time>
      </trkpt>
      <trkpt lat="45.97255" lon="4.79912">
        <ele>212</ele>
        <time>2017-08-25T08:35:07Z</time>
      </trkpt>
      <trkpt lat="45.97259" lon="4.79919">
        <ele>212</ele>
        <time>2017-08-25T08:35:10Z</time>
      </trkpt>
      <trkpt lat="45.97263" lon="4.7992">
        <ele>212</ele>
        <time>2017-08-25T08:35:11Z</time>
      </trkpt>
      <trkpt lat="45.97271" lon="4.79919">
        <ele>212</ele>
        <time>2017-08-25T08:35:13Z</time>
      </trkpt>
      <trkpt lat="45.97275" lon="4.79919">
        <ele>212</ele>
        <time>2017-08-25T08:35:14Z</time>
      </trkpt>
      <trkpt lat="45.97281" lon="4.79918">
        <ele>212</ele>
        <time>2017-08-25T08:35:15Z</time>
      </trkpt>
      <trkpt lat="45.97285" lon="4.79917">
        <ele>212</ele>
        <time>2017-08-25T08:35:16Z</time>
      </trkpt>
      <trkpt lat="45.9729" lon="4.79917">
        <ele>212</ele>
        <time>2017-08-25T08:35:17Z</time>
      </trkpt>
      <trkpt lat="45.97294" lon="4.79917">
        <ele>212</ele>
        <time>2017-08-25T08:35:18Z</time>
      </trkpt>
      <trkpt lat="45.97303" lon="4.79917">
        <ele>212</ele>
        <time>2017-08-25T08:35:20Z</time>
      </trkpt>
      <trkpt lat="45.97307" lon="4.79916">
        <ele>213</ele>
        <time>2017-08-25T08:35:21Z</time>
      </trkpt>
      <trkpt lat="45.97312" lon="4.79915">
        <ele>213</ele>
        <time>2017-08-25T08:35:22Z</time>
      </trkpt>
      <trkpt lat="45.97317" lon="4.79915">
        <ele>213</ele>
        <time>2017-08-25T08:35:23Z</time>
      </trkpt>
      <trkpt lat="45.97322" lon="4.79914">
        <ele>213</ele>
        <time>2017-08-25T08:35:24Z</time>
      </trkpt>
      <trkpt lat="45.97327" lon="4.79913">
        <ele>213</ele>
        <time>2017-08-25T08:35:25Z</time>
      </trkpt>
      <trkpt lat="45.97333" lon="4.79913">
        <ele>213</ele>
        <time>2017-08-25T08:35:26Z</time>
      </trkpt>
      <trkpt lat="45.97338" lon="4.79912">
        <ele>214</ele>
        <time>2017-08-25T08:35:27Z</time>
      </trkpt>
      <trkpt lat="45.97343" lon="4.79911">
        <ele>215</ele>
        <time>2017-08-25T08:35:28Z</time>
      </trkpt>
      <trkpt lat="45.97348" lon="4.7991">
        <ele>215</ele>
        <time>2017-08-25T08:35:29Z</time>
      </trkpt>
      <trkpt lat="45.97352" lon="4.79909">
        <ele>216</ele>
        <time>2017-08-25T08:35:30Z</time>
      </trkpt>
      <trkpt lat="45.97357" lon="4.79908">
        <ele>216</ele>
        <time>2017-08-25T08:35:31Z</time>
      </trkpt>
      <trkpt lat="45.97365" lon="4.79907">
        <ele>216</ele>
        <time>2017-08-25T08:35:33Z</time>
      </trkpt>
      <trkpt lat="45.97369" lon="4.79906">
        <ele>217</ele>
        <time>2017-08-25T08:35:34Z</time>
      </trkpt>
      <trkpt lat="45.97376" lon="4.79904">
        <ele>217</ele>
        <time>2017-08-25T08:35:36Z</time>
      </trkpt>
      <trkpt lat="45.9738" lon="4.79902">
        <ele>217</ele>
        <time>2017-08-25T08:35:37Z</time>
      </trkpt>
      <trkpt lat="45.97387" lon="4.799">
        <ele>217</ele>
        <time>2017-08-25T08:35:39Z</time>
      </trkpt>
      <trkpt lat="45.97391" lon="4.799">
        <ele>217</ele>
        <time>2017-08-25T08:35:40Z</time>
      </trkpt>
      <trkpt lat="45.97398" lon="4.79901">
        <ele>217</ele>
        <time>2017-08-25T08:35:42Z</time>
      </trkpt>
      <trkpt lat="45.97402" lon="4.799">
        <ele>217</ele>
        <time>2017-08-25T08:35:43Z</time>
      </trkpt>
      <trkpt lat="45.9741" lon="4.799">
        <ele>217</ele>
        <time>2017-08-25T08:35:45Z</time>
      </trkpt>
      <trkpt lat="45.97414" lon="4.799">
        <ele>217</ele>
        <time>2017-08-25T08:35:46Z</time>
      </trkpt>
      <trkpt lat="45.97422" lon="4.799">
        <ele>219</ele>
        <time>2017-08-25T08:35:48Z</time>
      </trkpt>
      <trkpt lat="45.97427" lon="4.799">
        <ele>219</ele>
        <time>2017-08-25T08:35:49Z</time>
      </trkpt>
      <trkpt lat="45.97431" lon="4.799">
        <ele>219</ele>
        <time>2017-08-25T08:35:50Z</time>
      </trkpt>
      <trkpt lat="45.97436" lon="4.799">
        <ele>219</ele>
        <time>2017-08-25T08:35:51Z</time>
      </trkpt>
      <trkpt lat="45.97441" lon="4.799">
        <ele>220</ele>
        <time>2017-08-25T08:35:52Z</time>
      </trkpt>
      <trkpt lat="45.97446" lon="4.799">
        <ele>220</ele>
        <time>2017-08-25T08:35:53Z</time>
      </trkpt>
      <trkpt lat="45.97451" lon="4.79901">
        <ele>220</ele>
        <time>2017-08-25T08:35:54Z</time>
      </trkpt>
      <trkpt lat="45.97455" lon="4.799">
        <ele>220</ele>
        <time>2017-08-25T08:35:55Z</time>
      </trkpt>
      <trkpt lat="45.9746" lon="4.799">
        <ele>220</ele>
        <time>2017-08-25T08:35:56Z</time>
      </trkpt>
      <trkpt lat="45.97465" lon="4.79899">
        <ele>220</ele>
        <time>2017-08-25T08:35:57Z</time>
      </trkpt>
      <trkpt lat="45.9747" lon="4.79899">
        <ele>220</ele>
        <time>2017-08-25T08:35:58Z</time>
      </trkpt>
      <trkpt lat="45.97475" lon="4.79899">
        <ele>220</ele>
        <time>2017-08-25T08:35:59Z</time>
      </trkpt>
      <trkpt lat="45.9748" lon="4.79899">
        <ele>220</ele>
        <time>2017-08-25T08:36:00Z</time>
      </trkpt>
      <trkpt lat="45.97484" lon="4.79899">
        <ele>220</ele>
        <time>2017-08-25T08:36:01Z</time>
      </trkpt>
      <trkpt lat="45.97492" lon="4.79897">
        <ele>220</ele>
        <time>2017-08-25T08:36:03Z</time>
      </trkpt>
      <trkpt lat="45.97496" lon="4.79896">
        <ele>220</ele>
        <time>2017-08-25T08:36:04Z</time>
      </trkpt>
      <trkpt lat="45.97504" lon="4.79895">
        <ele>221</ele>
        <time>2017-08-25T08:36:06Z</time>
      </trkpt>
      <trkpt lat="45.97507" lon="4.79894">
        <ele>221</ele>
        <time>2017-08-25T08:36:07Z</time>
      </trkpt>
      <trkpt lat="45.97514" lon="4.79892">
        <ele>221</ele>
        <time>2017-08-25T08:36:09Z</time>
      </trkpt>
      <trkpt lat="45.97518" lon="4.79892">
        <ele>221</ele>
        <time>2017-08-25T08:36:10Z</time>
      </trkpt>
      <trkpt lat="45.97527" lon="4.79891">
        <ele>221</ele>
        <time>2017-08-25T08:36:12Z</time>
      </trkpt>
      <trkpt lat="45.97531" lon="4.79891">
        <ele>221</ele>
        <time>2017-08-25T08:36:13Z</time>
      </trkpt>
      <trkpt lat="45.97539" lon="4.7989">
        <ele>221</ele>
        <time>2017-08-25T08:36:15Z</time>
      </trkpt>
      <trkpt lat="45.97542" lon="4.79889">
        <ele>221</ele>
        <time>2017-08-25T08:36:16Z</time>
      </trkpt>
      <trkpt lat="45.97547" lon="4.79888">
        <ele>221</ele>
        <time>2017-08-25T08:36:17Z</time>
      </trkpt>
      <trkpt lat="45.97552" lon="4.79886">
        <ele>221</ele>
        <time>2017-08-25T08:36:18Z</time>
      </trkpt>
      <trkpt lat="45.97557" lon="4.79885">
        <ele>221</ele>
        <time>2017-08-25T08:36:19Z</time>
      </trkpt>
      <trkpt lat="45.97562" lon="4.79883">
        <ele>221</ele>
        <time>2017-08-25T08:36:20Z</time>
      </trkpt>
      <trkpt lat="45.97566" lon="4.79881">
        <ele>221</ele>
        <time>2017-08-25T08:36:21Z</time>
      </trkpt>
      <trkpt lat="45.97571" lon="4.79879">
        <ele>221</ele>
        <time>2017-08-25T08:36:22Z</time>
      </trkpt>
      <trkpt lat="45.97579" lon="4.79875">
        <ele>221</ele>
        <time>2017-08-25T08:36:24Z</time>
      </trkpt>
      <trkpt lat="45.97584" lon="4.79873">
        <ele>221</ele>
        <time>2017-08-25T08:36:25Z</time>
      </trkpt>
      <trkpt lat="45.97588" lon="4.7987">
        <ele>221</ele>
        <time>2017-08-25T08:36:26Z</time>
      </trkpt>
      <trkpt lat="45.97593" lon="4.79869">
        <ele>221</ele>
        <time>2017-08-25T08:36:27Z</time>
      </trkpt>
      <trkpt lat="45.97602" lon="4.79868">
        <ele>221</ele>
        <time>2017-08-25T08:36:29Z</time>
      </trkpt>
      <trkpt lat="45.97606" lon="4.79867">
        <ele>221</ele>
        <time>2017-08-25T08:36:30Z</time>
      </trkpt>
      <trkpt lat="45.97614" lon="4.79865">
        <ele>221</ele>
        <time>2017-08-25T08:36:32Z</time>
      </trkpt>
      <trkpt lat="45.97618" lon="4.79864">
        <ele>221</ele>
        <time>2017-08-25T08:36:33Z</time>
      </trkpt>
      <trkpt lat="45.97627" lon="4.79861">
        <ele>221</ele>
        <time>2017-08-25T08:36:35Z</time>
      </trkpt>
      <trkpt lat="45.97632" lon="4.79859">
        <ele>221</ele>
        <time>2017-08-25T08:36:36Z</time>
      </trkpt>
      <trkpt lat="45.9764" lon="4.79856">
        <ele>221</ele>
        <time>2017-08-25T08:36:38Z</time>
      </trkpt>
      <trkpt lat="45.97644" lon="4.79854">
        <ele>221</ele>
        <time>2017-08-25T08:36:39Z</time>
      </trkpt>
      <trkpt lat="45.97653" lon="4.79851">
        <ele>221</ele>
        <time>2017-08-25T08:36:41Z</time>
      </trkpt>
      <trkpt lat="45.97657" lon="4.79849">
        <ele>221</ele>
        <time>2017-08-25T08:36:42Z</time>
      </trkpt>
      <trkpt lat="45.97664" lon="4.79847">
        <ele>221</ele>
        <time>2017-08-25T08:36:44Z</time>
      </trkpt>
      <trkpt lat="45.97668" lon="4.79846">
        <ele>221</ele>
        <time>2017-08-25T08:36:45Z</time>
      </trkpt>
      <trkpt lat="45.97677" lon="4.79843">
        <ele>221</ele>
        <time>2017-08-25T08:36:47Z</time>
      </trkpt>
      <trkpt lat="45.97681" lon="4.79842">
        <ele>221</ele>
        <time>2017-08-25T08:36:48Z</time>
      </trkpt>
      <trkpt lat="45.9769" lon="4.79839">
        <ele>220</ele>
        <time>2017-08-25T08:36:50Z</time>
      </trkpt>
      <trkpt lat="45.97694" lon="4.79838">
        <ele>220</ele>
        <time>2017-08-25T08:36:51Z</time>
      </trkpt>
      <trkpt lat="45.97702" lon="4.79837">
        <ele>220</ele>
        <time>2017-08-25T08:36:53Z</time>
      </trkpt>
      <trkpt lat="45.97706" lon="4.79836">
        <ele>220</ele>
        <time>2017-08-25T08:36:54Z</time>
      </trkpt>
      <trkpt lat="45.97715" lon="4.79833">
        <ele>223</ele>
        <time>2017-08-25T08:36:56Z</time>
      </trkpt>
      <trkpt lat="45.97719" lon="4.79832">
        <ele>223</ele>
        <time>2017-08-25T08:36:57Z</time>
      </trkpt>
      <trkpt lat="45.97727" lon="4.7983">
        <ele>223</ele>
        <time>2017-08-25T08:36:59Z</time>
      </trkpt>
      <trkpt lat="45.97731" lon="4.79829">
        <ele>223</ele>
        <time>2017-08-25T08:37:00Z</time>
      </trkpt>
      <trkpt lat="45.9774" lon="4.79827">
        <ele>223</ele>
        <time>2017-08-25T08:37:02Z</time>
      </trkpt>
      <trkpt lat="45.97744" lon="4.79827">
        <ele>222</ele>
        <time>2017-08-25T08:37:03Z</time>
      </trkpt>
      <trkpt lat="45.9775" lon="4.79827">
        <ele>222</ele>
        <time>2017-08-25T08:37:04Z</time>
      </trkpt>
      <trkpt lat="45.97755" lon="4.79825">
        <ele>222</ele>
        <time>2017-08-25T08:37:05Z</time>
      </trkpt>
      <trkpt lat="45.97759" lon="4.79824">
        <ele>223</ele>
        <time>2017-08-25T08:37:06Z</time>
      </trkpt>
      <trkpt lat="45.97764" lon="4.79824">
        <ele>223</ele>
        <time>2017-08-25T08:37:07Z</time>
      </trkpt>
      <trkpt lat="45.97769" lon="4.79823">
        <ele>223</ele>
        <time>2017-08-25T08:37:08Z</time>
      </trkpt>
      <trkpt lat="45.97774" lon="4.79822">
        <ele>223</ele>
        <time>2017-08-25T08:37:09Z</time>
      </trkpt>
      <trkpt lat="45.97779" lon="4.79821">
        <ele>223</ele>
        <time>2017-08-25T08:37:10Z</time>
      </trkpt>
      <trkpt lat="45.97784" lon="4.7982">
        <ele>223</ele>
        <time>2017-08-25T08:37:11Z</time>
      </trkpt>
      <trkpt lat="45.97792" lon="4.79818">
        <ele>223</ele>
        <time>2017-08-25T08:37:13Z</time>
      </trkpt>
      <trkpt lat="45.97797" lon="4.79817">
        <ele>223</ele>
        <time>2017-08-25T08:37:14Z</time>
      </trkpt>
      <trkpt lat="45.97806" lon="4.79815">
        <ele>223</ele>
        <time>2017-08-25T08:37:16Z</time>
      </trkpt>
      <trkpt lat="45.9781" lon="4.79814">
        <ele>223</ele>
        <time>2017-08-25T08:37:17Z</time>
      </trkpt>
      <trkpt lat="45.97814" lon="4.79813">
        <ele>223</ele>
        <time>2017-08-25T08:37:18Z</time>
      </trkpt>
      <trkpt lat="45.97819" lon="4.79813">
        <ele>223</ele>
        <time>2017-08-25T08:37:19Z</time>
      </trkpt>
      <trkpt lat="45.97823" lon="4.79812">
        <ele>223</ele>
        <time>2017-08-25T08:37:20Z</time>
      </trkpt>
      <trkpt lat="45.97828" lon="4.79811">
        <ele>223</ele>
        <time>2017-08-25T08:37:21Z</time>
      </trkpt>
      <trkpt lat="45.97832" lon="4.79811">
        <ele>223</ele>
        <time>2017-08-25T08:37:22Z</time>
      </trkpt>
      <trkpt lat="45.97837" lon="4.7981">
        <ele>224</ele>
        <time>2017-08-25T08:37:23Z</time>
      </trkpt>
      <trkpt lat="45.97842" lon="4.7981">
        <ele>224</ele>
        <time>2017-08-25T08:37:24Z</time>
      </trkpt>
      <trkpt lat="45.97847" lon="4.79809">
        <ele>224</ele>
        <time>2017-08-25T08:37:25Z</time>
      </trkpt>
      <trkpt lat="45.97852" lon="4.79808">
        <ele>224</ele>
        <time>2017-08-25T08:37:26Z</time>
      </trkpt>
      <trkpt lat="45.97856" lon="4.79808">
        <ele>224</ele>
        <time>2017-08-25T08:37:27Z</time>
      </trkpt>
      <trkpt lat="45.97865" lon="4.79806">
        <ele>224</ele>
        <time>2017-08-25T08:37:29Z</time>
      </trkpt>
      <trkpt lat="45.97869" lon="4.79805">
        <ele>224</ele>
        <time>2017-08-25T08:37:30Z</time>
      </trkpt>
      <trkpt lat="45.97874" lon="4.79805">
        <ele>224</ele>
        <time>2017-08-25T08:37:31Z</time>
      </trkpt>
      <trkpt lat="45.97879" lon="4.79802">
        <ele>224</ele>
        <time>2017-08-25T08:37:32Z</time>
      </trkpt>
      <trkpt lat="45.97885" lon="4.79801">
        <ele>224</ele>
        <time>2017-08-25T08:37:33Z</time>
      </trkpt>
      <trkpt lat="45.9789" lon="4.798">
        <ele>224</ele>
        <time>2017-08-25T08:37:34Z</time>
      </trkpt>
      <trkpt lat="45.97896" lon="4.79799">
        <ele>224</ele>
        <time>2017-08-25T08:37:35Z</time>
      </trkpt>
      <trkpt lat="45.97901" lon="4.79798">
        <ele>224</ele>
        <time>2017-08-25T08:37:36Z</time>
      </trkpt>
      <trkpt lat="45.97906" lon="4.79797">
        <ele>224</ele>
        <time>2017-08-25T08:37:37Z</time>
      </trkpt>
      <trkpt lat="45.97912" lon="4.79797">
        <ele>224</ele>
        <time>2017-08-25T08:37:38Z</time>
      </trkpt>
      <trkpt lat="45.97918" lon="4.79795">
        <ele>224</ele>
        <time>2017-08-25T08:37:39Z</time>
      </trkpt>
      <trkpt lat="45.97923" lon="4.79794">
        <ele>224</ele>
        <time>2017-08-25T08:37:40Z</time>
      </trkpt>
      <trkpt lat="45.97928" lon="4.79793">
        <ele>224</ele>
        <time>2017-08-25T08:37:41Z</time>
      </trkpt>
      <trkpt lat="45.97933" lon="4.79792">
        <ele>224</ele>
        <time>2017-08-25T08:37:42Z</time>
      </trkpt>
      <trkpt lat="45.97937" lon="4.79791">
        <ele>224</ele>
        <time>2017-08-25T08:37:43Z</time>
      </trkpt>
      <trkpt lat="45.97942" lon="4.7979">
        <ele>224</ele>
        <time>2017-08-25T08:37:44Z</time>
      </trkpt>
      <trkpt lat="45.97946" lon="4.7979">
        <ele>224</ele>
        <time>2017-08-25T08:37:45Z</time>
      </trkpt>
      <trkpt lat="45.97951" lon="4.79789">
        <ele>224</ele>
        <time>2017-08-25T08:37:46Z</time>
      </trkpt>
      <trkpt lat="45.97959" lon="4.79789">
        <ele>224</ele>
        <time>2017-08-25T08:37:48Z</time>
      </trkpt>
      <trkpt lat="45.97964" lon="4.79789">
        <ele>224</ele>
        <time>2017-08-25T08:37:49Z</time>
      </trkpt>
      <trkpt lat="45.97969" lon="4.79788">
        <ele>224</ele>
        <time>2017-08-25T08:37:50Z</time>
      </trkpt>
      <trkpt lat="45.97975" lon="4.79787">
        <ele>224</ele>
        <time>2017-08-25T08:37:51Z</time>
      </trkpt>
      <trkpt lat="45.97981" lon="4.79786">
        <ele>224</ele>
        <time>2017-08-25T08:37:52Z</time>
      </trkpt>
      <trkpt lat="45.97986" lon="4.79785">
        <ele>224</ele>
        <time>2017-08-25T08:37:53Z</time>
      </trkpt>
      <trkpt lat="45.97992" lon="4.79784">
        <ele>224</ele>
        <time>2017-08-25T08:37:54Z</time>
      </trkpt>
      <trkpt lat="45.97997" lon="4.79784">
        <ele>224</ele>
        <time>2017-08-25T08:37:55Z</time>
      </trkpt>
      <trkpt lat="45.98002" lon="4.79784">
        <ele>223</ele>
        <time>2017-08-25T08:37:56Z</time>
      </trkpt>
      <trkpt lat="45.98007" lon="4.79783">
        <ele>223</ele>
        <time>2017-08-25T08:37:57Z</time>
      </trkpt>
      <trkpt lat="45.98012" lon="4.79782">
        <ele>223</ele>
        <time>2017-08-25T08:37:58Z</time>
      </trkpt>
      <trkpt lat="45.98017" lon="4.79781">
        <ele>223</ele>
        <time>2017-08-25T08:37:59Z</time>
      </trkpt>
      <trkpt lat="45.98023" lon="4.7978">
        <ele>223</ele>
        <time>2017-08-25T08:38:00Z</time>
      </trkpt>
      <trkpt lat="45.98029" lon="4.7978">
        <ele>223</ele>
        <time>2017-08-25T08:38:01Z</time>
      </trkpt>
      <trkpt lat="45.98034" lon="4.79779">
        <ele>223</ele>
        <time>2017-08-25T08:38:02Z</time>
      </trkpt>
      <trkpt lat="45.9804" lon="4.79778">
        <ele>223</ele>
        <time>2017-08-25T08:38:03Z</time>
      </trkpt>
      <trkpt lat="45.98045" lon="4.79777">
        <ele>223</ele>
        <time>2017-08-25T08:38:04Z</time>
      </trkpt>
      <trkpt lat="45.9805" lon="4.79777">
        <ele>223</ele>
        <time>2017-08-25T08:38:05Z</time>
      </trkpt>
      <trkpt lat="45.98055" lon="4.79777">
        <ele>223</ele>
        <time>2017-08-25T08:38:06Z</time>
      </trkpt>
      <trkpt lat="45.9806" lon="4.79777">
        <ele>223</ele>
        <time>2017-08-25T08:38:07Z</time>
      </trkpt>
      <trkpt lat="45.98065" lon="4.79776">
        <ele>223</ele>
        <time>2017-08-25T08:38:08Z</time>
      </trkpt>
      <trkpt lat="45.98069" lon="4.79775">
        <ele>223</ele>
        <time>2017-08-25T08:38:09Z</time>
      </trkpt>
      <trkpt lat="45.98078" lon="4.79774">
        <ele>223</ele>
        <time>2017-08-25T08:38:11Z</time>
      </trkpt>
      <trkpt lat="45.98082" lon="4.79772">
        <ele>223</ele>
        <time>2017-08-25T08:38:12Z</time>
      </trkpt>
      <trkpt lat="45.98087" lon="4.79771">
        <ele>223</ele>
        <time>2017-08-25T08:38:13Z</time>
      </trkpt>
      <trkpt lat="45.98093" lon="4.79771">
        <ele>223</ele>
        <time>2017-08-25T08:38:14Z</time>
      </trkpt>
      <trkpt lat="45.98098" lon="4.7977">
        <ele>223</ele>
        <time>2017-08-25T08:38:15Z</time>
      </trkpt>
      <trkpt lat="45.98103" lon="4.79769">
        <ele>224</ele>
        <time>2017-08-25T08:38:16Z</time>
      </trkpt>
      <trkpt lat="45.98108" lon="4.79768">
        <ele>224</ele>
        <time>2017-08-25T08:38:17Z</time>
      </trkpt>
      <trkpt lat="45.98112" lon="4.79767">
        <ele>224</ele>
        <time>2017-08-25T08:38:18Z</time>
      </trkpt>
      <trkpt lat="45.9812" lon="4.79766">
        <ele>224</ele>
        <time>2017-08-25T08:38:20Z</time>
      </trkpt>
      <trkpt lat="45.98124" lon="4.79766">
        <ele>224</ele>
        <time>2017-08-25T08:38:21Z</time>
      </trkpt>
      <trkpt lat="45.98132" lon="4.79764">
        <ele>224</ele>
        <time>2017-08-25T08:38:23Z</time>
      </trkpt>
      <trkpt lat="45.98137" lon="4.79763">
        <ele>224</ele>
        <time>2017-08-25T08:38:24Z</time>
      </trkpt>
      <trkpt lat="45.98142" lon="4.79763">
        <ele>224</ele>
        <time>2017-08-25T08:38:25Z</time>
      </trkpt>
      <trkpt lat="45.98147" lon="4.79763">
        <ele>225</ele>
        <time>2017-08-25T08:38:26Z</time>
      </trkpt>
      <trkpt lat="45.98152" lon="4.79763">
        <ele>225</ele>
        <time>2017-08-25T08:38:27Z</time>
      </trkpt>
      <trkpt lat="45.98157" lon="4.79764">
        <ele>225</ele>
        <time>2017-08-25T08:38:28Z</time>
      </trkpt>
      <trkpt lat="45.98165" lon="4.79767">
        <ele>225</ele>
        <time>2017-08-25T08:38:30Z</time>
      </trkpt>
      <trkpt lat="45.98168" lon="4.7977">
        <ele>226</ele>
        <time>2017-08-25T08:38:31Z</time>
      </trkpt>
      <trkpt lat="45.98174" lon="4.79779">
        <ele>226</ele>
        <time>2017-08-25T08:38:33Z</time>
      </trkpt>
      <trkpt lat="45.98176" lon="4.79782">
        <ele>226</ele>
        <time>2017-08-25T08:38:34Z</time>
      </trkpt>
      <trkpt lat="45.9818" lon="4.79791">
        <ele>226</ele>
        <time>2017-08-25T08:38:36Z</time>
      </trkpt>
      <trkpt lat="45.98181" lon="4.79796">
        <ele>226</ele>
        <time>2017-08-25T08:38:37Z</time>
      </trkpt>
      <trkpt lat="45.98184" lon="4.79806">
        <ele>225</ele>
        <time>2017-08-25T08:38:39Z</time>
      </trkpt>
      <trkpt lat="45.98186" lon="4.79811">
        <ele>225</ele>
        <time>2017-08-25T08:38:40Z</time>
      </trkpt>
      <trkpt lat="45.98188" lon="4.79817">
        <ele>225</ele>
        <time>2017-08-25T08:38:41Z</time>
      </trkpt>
      <trkpt lat="45.9819" lon="4.79823">
        <ele>225</ele>
        <time>2017-08-25T08:38:42Z</time>
      </trkpt>
      <trkpt lat="45.98193" lon="4.79829">
        <ele>225</ele>
        <time>2017-08-25T08:38:43Z</time>
      </trkpt>
      <trkpt lat="45.98195" lon="4.79836">
        <ele>225</ele>
        <time>2017-08-25T08:38:44Z</time>
      </trkpt>
      <trkpt lat="45.98198" lon="4.79843">
        <ele>225</ele>
        <time>2017-08-25T08:38:45Z</time>
      </trkpt>
      <trkpt lat="45.982" lon="4.79851">
        <ele>225</ele>
        <time>2017-08-25T08:38:46Z</time>
      </trkpt>
      <trkpt lat="45.98203" lon="4.79858">
        <ele>225</ele>
        <time>2017-08-25T08:38:47Z</time>
      </trkpt>
      <trkpt lat="45.98206" lon="4.79865">
        <ele>225</ele>
        <time>2017-08-25T08:38:48Z</time>
      </trkpt>
      <trkpt lat="45.98208" lon="4.79873">
        <ele>225</ele>
        <time>2017-08-25T08:38:49Z</time>
      </trkpt>
      <trkpt lat="45.98211" lon="4.79881">
        <ele>225</ele>
        <time>2017-08-25T08:38:50Z</time>
      </trkpt>
      <trkpt lat="45.98214" lon="4.79888">
        <ele>225</ele>
        <time>2017-08-25T08:38:51Z</time>
      </trkpt>
      <trkpt lat="45.98217" lon="4.79895">
        <ele>225</ele>
        <time>2017-08-25T08:38:52Z</time>
      </trkpt>
      <trkpt lat="45.9822" lon="4.79902">
        <ele>225</ele>
        <time>2017-08-25T08:38:53Z</time>
      </trkpt>
      <trkpt lat="45.98222" lon="4.79909">
        <ele>225</ele>
        <time>2017-08-25T08:38:54Z</time>
      </trkpt>
      <trkpt lat="45.98224" lon="4.79916">
        <ele>225</ele>
        <time>2017-08-25T08:38:55Z</time>
      </trkpt>
      <trkpt lat="45.98226" lon="4.79922">
        <ele>225</ele>
        <time>2017-08-25T08:38:56Z</time>
      </trkpt>
      <trkpt lat="45.98228" lon="4.79929">
        <ele>225</ele>
        <time>2017-08-25T08:38:57Z</time>
      </trkpt>
      <trkpt lat="45.9823" lon="4.79935">
        <ele>225</ele>
        <time>2017-08-25T08:38:58Z</time>
      </trkpt>
      <trkpt lat="45.98233" lon="4.79947">
        <ele>225</ele>
        <time>2017-08-25T08:39:00Z</time>
      </trkpt>
      <trkpt lat="45.98234" lon="4.79952">
        <ele>225</ele>
        <time>2017-08-25T08:39:01Z</time>
      </trkpt>
      <trkpt lat="45.98235" lon="4.79959">
        <ele>225</ele>
        <time>2017-08-25T08:39:02Z</time>
      </trkpt>
      <trkpt lat="45.98237" lon="4.79965">
        <ele>225</ele>
        <time>2017-08-25T08:39:03Z</time>
      </trkpt>
      <trkpt lat="45.98239" lon="4.79972">
        <ele>225</ele>
        <time>2017-08-25T08:39:04Z</time>
      </trkpt>
      <trkpt lat="45.98241" lon="4.79978">
        <ele>225</ele>
        <time>2017-08-25T08:39:05Z</time>
      </trkpt>
      <trkpt lat="45.98244" lon="4.79989">
        <ele>226</ele>
        <time>2017-08-25T08:39:07Z</time>
      </trkpt>
      <trkpt lat="45.98247" lon="4.79995">
        <ele>226</ele>
        <time>2017-08-25T08:39:08Z</time>
      </trkpt>
      <trkpt lat="45.98249" lon="4.80001">
        <ele>226</ele>
        <time>2017-08-25T08:39:09Z</time>
      </trkpt>
      <trkpt lat="45.98251" lon="4.80007">
        <ele>227</ele>
        <time>2017-08-25T08:39:10Z</time>
      </trkpt>
      <trkpt lat="45.98254" lon="4.80015">
        <ele>228</ele>
        <time>2017-08-25T08:39:11Z</time>
      </trkpt>
      <trkpt lat="45.98257" lon="4.80021">
        <ele>228</ele>
        <time>2017-08-25T08:39:12Z</time>
      </trkpt>
      <trkpt lat="45.98259" lon="4.80028">
        <ele>228</ele>
        <time>2017-08-25T08:39:13Z</time>
      </trkpt>
      <trkpt lat="45.98261" lon="4.80034">
        <ele>228</ele>
        <time>2017-08-25T08:39:14Z</time>
      </trkpt>
      <trkpt lat="45.98264" lon="4.80041">
        <ele>228</ele>
        <time>2017-08-25T08:39:15Z</time>
      </trkpt>
      <trkpt lat="45.98266" lon="4.80047">
        <ele>228</ele>
        <time>2017-08-25T08:39:16Z</time>
      </trkpt>
      <trkpt lat="45.98268" lon="4.80054">
        <ele>228</ele>
        <time>2017-08-25T08:39:17Z</time>
      </trkpt>
      <trkpt lat="45.9827" lon="4.80059">
        <ele>228</ele>
        <time>2017-08-25T08:39:18Z</time>
      </trkpt>
      <trkpt lat="45.98275" lon="4.8007">
        <ele>228</ele>
        <time>2017-08-25T08:39:20Z</time>
      </trkpt>
      <trkpt lat="45.98277" lon="4.80076">
        <ele>228</ele>
        <time>2017-08-25T08:39:21Z</time>
      </trkpt>
      <trkpt lat="45.9828" lon="4.80082">
        <ele>229</ele>
        <time>2017-08-25T08:39:22Z</time>
      </trkpt>
      <trkpt lat="45.98282" lon="4.80088">
        <ele>228</ele>
        <time>2017-08-25T08:39:23Z</time>
      </trkpt>
      <trkpt lat="45.98284" lon="4.80095">
        <ele>228</ele>
        <time>2017-08-25T08:39:24Z</time>
      </trkpt>
      <trkpt lat="45.98287" lon="4.80102">
        <ele>228</ele>
        <time>2017-08-25T08:39:25Z</time>
      </trkpt>
      <trkpt lat="45.98289" lon="4.80109">
        <ele>228</ele>
        <time>2017-08-25T08:39:26Z</time>
      </trkpt>
      <trkpt lat="45.98291" lon="4.80115">
        <ele>228</ele>
        <time>2017-08-25T08:39:27Z</time>
      </trkpt>
      <trkpt lat="45.98293" lon="4.80121">
        <ele>228</ele>
        <time>2017-08-25T08:39:28Z</time>
      </trkpt>
      <trkpt lat="45.98296" lon="4.80127">
        <ele>228</ele>
        <time>2017-08-25T08:39:29Z</time>
      </trkpt>
      <trkpt lat="45.98298" lon="4.80133">
        <ele>228</ele>
        <time>2017-08-25T08:39:30Z</time>
      </trkpt>
      <trkpt lat="45.98299" lon="4.8014">
        <ele>228</ele>
        <time>2017-08-25T08:39:31Z</time>
      </trkpt>
      <trkpt lat="45.98304" lon="4.8015">
        <ele>228</ele>
        <time>2017-08-25T08:39:33Z</time>
      </trkpt>
      <trkpt lat="45.98306" lon="4.80155">
        <ele>228</ele>
        <time>2017-08-25T08:39:34Z</time>
      </trkpt>
      <trkpt lat="45.98308" lon="4.80161">
        <ele>228</ele>
        <time>2017-08-25T08:39:35Z</time>
      </trkpt>
      <trkpt lat="45.9831" lon="4.80167">
        <ele>228</ele>
        <time>2017-08-25T08:39:36Z</time>
      </trkpt>
      <trkpt lat="45.98313" lon="4.80173">
        <ele>227</ele>
        <time>2017-08-25T08:39:37Z</time>
      </trkpt>
      <trkpt lat="45.98315" lon="4.8018">
        <ele>227</ele>
        <time>2017-08-25T08:39:38Z</time>
      </trkpt>
      <trkpt lat="45.98317" lon="4.80186">
        <ele>227</ele>
        <time>2017-08-25T08:39:39Z</time>
      </trkpt>
      <trkpt lat="45.98319" lon="4.80192">
        <ele>227</ele>
        <time>2017-08-25T08:39:40Z</time>
      </trkpt>
      <trkpt lat="45.98322" lon="4.80198">
        <ele>227</ele>
        <time>2017-08-25T08:39:41Z</time>
      </trkpt>
      <trkpt lat="45.98324" lon="4.80203">
        <ele>227</ele>
        <time>2017-08-25T08:39:42Z</time>
      </trkpt>
      <trkpt lat="45.98327" lon="4.80209">
        <ele>227</ele>
        <time>2017-08-25T08:39:43Z</time>
      </trkpt>
      <trkpt lat="45.98328" lon="4.80215">
        <ele>227</ele>
        <time>2017-08-25T08:39:44Z</time>
      </trkpt>
      <trkpt lat="45.98331" lon="4.80227">
        <ele>228</ele>
        <time>2017-08-25T08:39:46Z</time>
      </trkpt>
      <trkpt lat="45.98331" lon="4.80233">
        <ele>228</ele>
        <time>2017-08-25T08:39:47Z</time>
      </trkpt>
      <trkpt lat="45.98329" lon="4.80239">
        <ele>228</ele>
        <time>2017-08-25T08:39:48Z</time>
      </trkpt>
      <trkpt lat="45.98326" lon="4.80245">
        <ele>229</ele>
        <time>2017-08-25T08:39:49Z</time>
      </trkpt>
      <trkpt lat="45.98324" lon="4.80251">
        <ele>228</ele>
        <time>2017-08-25T08:39:50Z</time>
      </trkpt>
      <trkpt lat="45.98322" lon="4.80258">
        <ele>228</ele>
        <time>2017-08-25T08:39:51Z</time>
      </trkpt>
      <trkpt lat="45.9832" lon="4.80265">
        <ele>227</ele>
        <time>2017-08-25T08:39:52Z</time>
      </trkpt>
      <trkpt lat="45.98318" lon="4.80272">
        <ele>227</ele>
        <time>2017-08-25T08:39:53Z</time>
      </trkpt>
      <trkpt lat="45.98316" lon="4.8028">
        <ele>226</ele>
        <time>2017-08-25T08:39:54Z</time>
      </trkpt>
      <trkpt lat="45.98314" lon="4.80288">
        <ele>226</ele>
        <time>2017-08-25T08:39:55Z</time>
      </trkpt>
      <trkpt lat="45.98311" lon="4.80298">
        <ele>226</ele>
        <time>2017-08-25T08:39:56Z</time>
      </trkpt>
      <trkpt lat="45.98309" lon="4.80307">
        <ele>226</ele>
        <time>2017-08-25T08:39:57Z</time>
      </trkpt>
      <trkpt lat="45.98307" lon="4.80316">
        <ele>226</ele>
        <time>2017-08-25T08:39:58Z</time>
      </trkpt>
      <trkpt lat="45.98305" lon="4.80325">
        <ele>226</ele>
        <time>2017-08-25T08:39:59Z</time>
      </trkpt>
      <trkpt lat="45.98302" lon="4.80334">
        <ele>225</ele>
        <time>2017-08-25T08:40:00Z</time>
      </trkpt>
      <trkpt lat="45.983" lon="4.80343">
        <ele>225</ele>
        <time>2017-08-25T08:40:01Z</time>
      </trkpt>
      <trkpt lat="45.98299" lon="4.80351">
        <ele>225</ele>
        <time>2017-08-25T08:40:02Z</time>
      </trkpt>
      <trkpt lat="45.98296" lon="4.8036">
        <ele>225</ele>
        <time>2017-08-25T08:40:03Z</time>
      </trkpt>
      <trkpt lat="45.98293" lon="4.8037">
        <ele>224</ele>
        <time>2017-08-25T08:40:04Z</time>
      </trkpt>
      <trkpt lat="45.9829" lon="4.8038">
        <ele>224</ele>
        <time>2017-08-25T08:40:05Z</time>
      </trkpt>
      <trkpt lat="45.98288" lon="4.80389">
        <ele>224</ele>
        <time>2017-08-25T08:40:06Z</time>
      </trkpt>
      <trkpt lat="45.98286" lon="4.80398">
        <ele>224</ele>
        <time>2017-08-25T08:40:07Z</time>
      </trkpt>
      <trkpt lat="45.98284" lon="4.80407">
        <ele>224</ele>
        <time>2017-08-25T08:40:08Z</time>
      </trkpt>
      <trkpt lat="45.98282" lon="4.80416">
        <ele>223</ele>
        <time>2017-08-25T08:40:09Z</time>
      </trkpt>
      <trkpt lat="45.9828" lon="4.80424">
        <ele>223</ele>
        <time>2017-08-25T08:40:10Z</time>
      </trkpt>
      <trkpt lat="45.98278" lon="4.80431">
        <ele>223</ele>
        <time>2017-08-25T08:40:11Z</time>
      </trkpt>
      <trkpt lat="45.98276" lon="4.80439">
        <ele>223</ele>
        <time>2017-08-25T08:40:12Z</time>
      </trkpt>
      <trkpt lat="45.98274" lon="4.80447">
        <ele>223</ele>
        <time>2017-08-25T08:40:13Z</time>
      </trkpt>
      <trkpt lat="45.98272" lon="4.80456">
        <ele>223</ele>
        <time>2017-08-25T08:40:14Z</time>
      </trkpt>
      <trkpt lat="45.9827" lon="4.80464">
        <ele>223</ele>
        <time>2017-08-25T08:40:15Z</time>
      </trkpt>
      <trkpt lat="45.98267" lon="4.80472">
        <ele>223</ele>
        <time>2017-08-25T08:40:16Z</time>
      </trkpt>
      <trkpt lat="45.98265" lon="4.80479">
        <ele>223</ele>
        <time>2017-08-25T08:40:17Z</time>
      </trkpt>
      <trkpt lat="45.98263" lon="4.80486">
        <ele>223</ele>
        <time>2017-08-25T08:40:18Z</time>
      </trkpt>
      <trkpt lat="45.98262" lon="4.80494">
        <ele>223</ele>
        <time>2017-08-25T08:40:19Z</time>
      </trkpt>
      <trkpt lat="45.9826" lon="4.805">
        <ele>223</ele>
        <time>2017-08-25T08:40:20Z</time>
      </trkpt>
      <trkpt lat="45.98257" lon="4.80507">
        <ele>223</ele>
        <time>2017-08-25T08:40:21Z</time>
      </trkpt>
      <trkpt lat="45.98254" lon="4.80518">
        <ele>223</ele>
        <time>2017-08-25T08:40:23Z</time>
      </trkpt>
      <trkpt lat="45.98253" lon="4.80524">
        <ele>223</ele>
        <time>2017-08-25T08:40:24Z</time>
      </trkpt>
      <trkpt lat="45.98248" lon="4.80535">
        <ele>223</ele>
        <time>2017-08-25T08:40:26Z</time>
      </trkpt>
      <trkpt lat="45.98246" lon="4.80541">
        <ele>223</ele>
        <time>2017-08-25T08:40:27Z</time>
      </trkpt>
      <trkpt lat="45.98244" lon="4.80548">
        <ele>223</ele>
        <time>2017-08-25T08:40:28Z</time>
      </trkpt>
      <trkpt lat="45.98243" lon="4.80558">
        <ele>223</ele>
        <time>2017-08-25T08:40:29Z</time>
      </trkpt>
      <trkpt lat="45.98241" lon="4.80566">
        <ele>223</ele>
        <time>2017-08-25T08:40:30Z</time>
      </trkpt>
      <trkpt lat="45.98239" lon="4.80574">
        <ele>224</ele>
        <time>2017-08-25T08:40:31Z</time>
      </trkpt>
      <trkpt lat="45.98237" lon="4.80583">
        <ele>224</ele>
        <time>2017-08-25T08:40:32Z</time>
      </trkpt>
      <trkpt lat="45.98236" lon="4.80591">
        <ele>224</ele>
        <time>2017-08-25T08:40:33Z</time>
      </trkpt>
      <trkpt lat="45.98234" lon="4.80598">
        <ele>224</ele>
        <time>2017-08-25T08:40:34Z</time>
      </trkpt>
      <trkpt lat="45.98233" lon="4.80604">
        <ele>224</ele>
        <time>2017-08-25T08:40:35Z</time>
      </trkpt>
      <trkpt lat="45.9823" lon="4.80616">
        <ele>224</ele>
        <time>2017-08-25T08:40:37Z</time>
      </trkpt>
      <trkpt lat="45.98228" lon="4.80621">
        <ele>224</ele>
        <time>2017-08-25T08:40:38Z</time>
      </trkpt>
      <trkpt lat="45.98225" lon="4.80632">
        <ele>224</ele>
        <time>2017-08-25T08:40:40Z</time>
      </trkpt>
      <trkpt lat="45.98223" lon="4.80638">
        <ele>224</ele>
        <time>2017-08-25T08:40:41Z</time>
      </trkpt>
      <trkpt lat="45.98219" lon="4.80649">
        <ele>224</ele>
        <time>2017-08-25T08:40:43Z</time>
      </trkpt>
      <trkpt lat="45.98217" lon="4.80654">
        <ele>224</ele>
        <time>2017-08-25T08:40:44Z</time>
      </trkpt>
      <trkpt lat="45.98211" lon="4.80663">
        <ele>224</ele>
        <time>2017-08-25T08:40:46Z</time>
      </trkpt>
      <trkpt lat="45.98207" lon="4.80667">
        <ele>224</ele>
        <time>2017-08-25T08:40:47Z</time>
      </trkpt>
      <trkpt lat="45.982" lon="4.8067">
        <ele>225</ele>
        <time>2017-08-25T08:40:49Z</time>
      </trkpt>
      <trkpt lat="45.98197" lon="4.80672">
        <ele>225</ele>
        <time>2017-08-25T08:40:50Z</time>
      </trkpt>
      <trkpt lat="45.98189" lon="4.80676">
        <ele>225</ele>
        <time>2017-08-25T08:40:52Z</time>
      </trkpt>
      <trkpt lat="45.98185" lon="4.80678">
        <ele>225</ele>
        <time>2017-08-25T08:40:53Z</time>
      </trkpt>
      <trkpt lat="45.98178" lon="4.8068">
        <ele>225</ele>
        <time>2017-08-25T08:40:55Z</time>
      </trkpt>
      <trkpt lat="45.98173" lon="4.80681">
        <ele>225</ele>
        <time>2017-08-25T08:40:56Z</time>
      </trkpt>
      <trkpt lat="45.98169" lon="4.80683">
        <ele>225</ele>
        <time>2017-08-25T08:40:57Z</time>
      </trkpt>
      <trkpt lat="45.98164" lon="4.80683">
        <ele>227</ele>
        <time>2017-08-25T08:40:58Z</time>
      </trkpt>
      <trkpt lat="45.9816" lon="4.80683">
        <ele>227</ele>
        <time>2017-08-25T08:40:59Z</time>
      </trkpt>
      <trkpt lat="45.98155" lon="4.80683">
        <ele>227</ele>
        <time>2017-08-25T08:41:00Z</time>
      </trkpt>
      <trkpt lat="45.98146" lon="4.80685">
        <ele>227</ele>
        <time>2017-08-25T08:41:02Z</time>
      </trkpt>
      <trkpt lat="45.98142" lon="4.80686">
        <ele>228</ele>
        <time>2017-08-25T08:41:03Z</time>
      </trkpt>
      <trkpt lat="45.98134" lon="4.80687">
        <ele>228</ele>
        <time>2017-08-25T08:41:05Z</time>
      </trkpt>
      <trkpt lat="45.9813" lon="4.80687">
        <ele>228</ele>
        <time>2017-08-25T08:41:06Z</time>
      </trkpt>
      <trkpt lat="45.98121" lon="4.80686">
        <ele>228</ele>
        <time>2017-08-25T08:41:08Z</time>
      </trkpt>
      <trkpt lat="45.98118" lon="4.80687">
        <ele>228</ele>
        <time>2017-08-25T08:41:09Z</time>
      </trkpt>
      <trkpt lat="45.9811" lon="4.80687">
        <ele>228</ele>
        <time>2017-08-25T08:41:11Z</time>
      </trkpt>
      <trkpt lat="45.98106" lon="4.80687">
        <ele>228</ele>
        <time>2017-08-25T08:41:12Z</time>
      </trkpt>
      <trkpt lat="45.98098" lon="4.80686">
        <ele>228</ele>
        <time>2017-08-25T08:41:14Z</time>
      </trkpt>
      <trkpt lat="45.98094" lon="4.80686">
        <ele>228</ele>
        <time>2017-08-25T08:41:15Z</time>
      </trkpt>
      <trkpt lat="45.98086" lon="4.80687">
        <ele>228</ele>
        <time>2017-08-25T08:41:17Z</time>
      </trkpt>
      <trkpt lat="45.98082" lon="4.80687">
        <ele>229</ele>
        <time>2017-08-25T08:41:18Z</time>
      </trkpt>
      <trkpt lat="45.98074" lon="4.80688">
        <ele>230</ele>
        <time>2017-08-25T08:41:20Z</time>
      </trkpt>
      <trkpt lat="45.9807" lon="4.80688">
        <ele>230</ele>
        <time>2017-08-25T08:41:21Z</time>
      </trkpt>
      <trkpt lat="45.98063" lon="4.80688">
        <ele>230</ele>
        <time>2017-08-25T08:41:23Z</time>
      </trkpt>
      <trkpt lat="45.9806" lon="4.80688">
        <ele>230</ele>
        <time>2017-08-25T08:41:24Z</time>
      </trkpt>
      <trkpt lat="45.98053" lon="4.80689">
        <ele>230</ele>
        <time>2017-08-25T08:41:26Z</time>
      </trkpt>
      <trkpt lat="45.9805" lon="4.8069">
        <ele>230</ele>
        <time>2017-08-25T08:41:27Z</time>
      </trkpt>
      <trkpt lat="45.98041" lon="4.80692">
        <ele>230</ele>
        <time>2017-08-25T08:41:30Z</time>
      </trkpt>
      <trkpt lat="45.98039" lon="4.80692">
        <ele>230</ele>
        <time>2017-08-25T08:41:31Z</time>
      </trkpt>
      <trkpt lat="45.98033" lon="4.80693">
        <ele>230</ele>
        <time>2017-08-25T08:41:33Z</time>
      </trkpt>
      <trkpt lat="45.9803" lon="4.80695">
        <ele>230</ele>
        <time>2017-08-25T08:41:34Z</time>
      </trkpt>
      <trkpt lat="45.98025" lon="4.80704">
        <ele>231</ele>
        <time>2017-08-25T08:41:36Z</time>
      </trkpt>
      <trkpt lat="45.98025" lon="4.80709">
        <ele>231</ele>
        <time>2017-08-25T08:41:37Z</time>
      </trkpt>
      <trkpt lat="45.98027" lon="4.80722">
        <ele>231</ele>
        <time>2017-08-25T08:41:40Z</time>
      </trkpt>
      <trkpt lat="45.98028" lon="4.80725">
        <ele>231</ele>
        <time>2017-08-25T08:41:41Z</time>
      </trkpt>
      <trkpt lat="45.98031" lon="4.80735">
        <ele>231</ele>
        <time>2017-08-25T08:41:44Z</time>
      </trkpt>
      <trkpt lat="45.98031" lon="4.80739">
        <ele>231</ele>
        <time>2017-08-25T08:41:45Z</time>
      </trkpt>
      <trkpt lat="45.98034" lon="4.8075">
        <ele>231</ele>
        <time>2017-08-25T08:41:48Z</time>
      </trkpt>
      <trkpt lat="45.98034" lon="4.80754">
        <ele>233</ele>
        <time>2017-08-25T08:41:49Z</time>
      </trkpt>
      <trkpt lat="45.98037" lon="4.80763">
        <ele>233</ele>
        <time>2017-08-25T08:41:51Z</time>
      </trkpt>
      <trkpt lat="45.98038" lon="4.80767">
        <ele>233</ele>
        <time>2017-08-25T08:41:52Z</time>
      </trkpt>
      <trkpt lat="45.98042" lon="4.80774">
        <ele>233</ele>
        <time>2017-08-25T08:41:54Z</time>
      </trkpt>
      <trkpt lat="45.98043" lon="4.80778">
        <ele>233</ele>
        <time>2017-08-25T08:41:55Z</time>
      </trkpt>
      <trkpt lat="45.98045" lon="4.80786">
        <ele>233</ele>
        <time>2017-08-25T08:41:57Z</time>
      </trkpt>
      <trkpt lat="45.98046" lon="4.8079">
        <ele>233</ele>
        <time>2017-08-25T08:41:58Z</time>
      </trkpt>
      <trkpt lat="45.98048" lon="4.80803">
        <ele>234</ele>
        <time>2017-08-25T08:42:01Z</time>
      </trkpt>
      <trkpt lat="45.98049" lon="4.80806">
        <ele>234</ele>
        <time>2017-08-25T08:42:02Z</time>
      </trkpt>
      <trkpt lat="45.98052" lon="4.80817">
        <ele>234</ele>
        <time>2017-08-25T08:42:05Z</time>
      </trkpt>
      <trkpt lat="45.98053" lon="4.80821">
        <ele>234</ele>
        <time>2017-08-25T08:42:06Z</time>
      </trkpt>
      <trkpt lat="45.98056" lon="4.80829">
        <ele>234</ele>
        <time>2017-08-25T08:42:08Z</time>
      </trkpt>
      <trkpt lat="45.98057" lon="4.80833">
        <ele>234</ele>
        <time>2017-08-25T08:42:09Z</time>
      </trkpt>
      <trkpt lat="45.98061" lon="4.80843">
        <ele>236</ele>
        <time>2017-08-25T08:42:12Z</time>
      </trkpt>
      <trkpt lat="45.98061" lon="4.80847">
        <ele>236</ele>
        <time>2017-08-25T08:42:13Z</time>
      </trkpt>
      <trkpt lat="45.98063" lon="4.80858">
        <ele>236</ele>
        <time>2017-08-25T08:42:16Z</time>
      </trkpt>
      <trkpt lat="45.98064" lon="4.80861">
        <ele>237</ele>
        <time>2017-08-25T08:42:17Z</time>
      </trkpt>
      <trkpt lat="45.98067" lon="4.80872">
        <ele>237</ele>
        <time>2017-08-25T08:42:21Z</time>
      </trkpt>
      <trkpt lat="45.98067" lon="4.80875">
        <ele>237</ele>
        <time>2017-08-25T08:42:22Z</time>
      </trkpt>
      <trkpt lat="45.98069" lon="4.80887">
        <ele>237</ele>
        <time>2017-08-25T08:42:26Z</time>
      </trkpt>
      <trkpt lat="45.9807" lon="4.8089">
        <ele>238</ele>
        <time>2017-08-25T08:42:27Z</time>
      </trkpt>
      <trkpt lat="45.98072" lon="4.809">
        <ele>238</ele>
        <time>2017-08-25T08:42:30Z</time>
      </trkpt>
      <trkpt lat="45.98073" lon="4.80903">
        <ele>238</ele>
        <time>2017-08-25T08:42:31Z</time>
      </trkpt>
      <trkpt lat="45.98076" lon="4.80914">
        <ele>239</ele>
        <time>2017-08-25T08:42:34Z</time>
      </trkpt>
      <trkpt lat="45.98076" lon="4.80918">
        <ele>239</ele>
        <time>2017-08-25T08:42:35Z</time>
      </trkpt>
      <trkpt lat="45.9808" lon="4.80928">
        <ele>240</ele>
        <time>2017-08-25T08:42:38Z</time>
      </trkpt>
      <trkpt lat="45.9808" lon="4.80931">
        <ele>240</ele>
        <time>2017-08-25T08:42:39Z</time>
      </trkpt>
      <trkpt lat="45.98082" lon="4.80942">
        <ele>240</ele>
        <time>2017-08-25T08:42:43Z</time>
      </trkpt>
      <trkpt lat="45.98083" lon="4.80946">
        <ele>240</ele>
        <time>2017-08-25T08:42:44Z</time>
      </trkpt>
      <trkpt lat="45.98085" lon="4.80955">
        <ele>239</ele>
        <time>2017-08-25T08:42:47Z</time>
      </trkpt>
      <trkpt lat="45.98086" lon="4.80958">
        <ele>239</ele>
        <time>2017-08-25T08:42:48Z</time>
      </trkpt>
      <trkpt lat="45.98088" lon="4.80967">
        <ele>239</ele>
        <time>2017-08-25T08:42:51Z</time>
      </trkpt>
      <trkpt lat="45.98089" lon="4.80971">
        <ele>239</ele>
        <time>2017-08-25T08:42:52Z</time>
      </trkpt>
      <trkpt lat="45.98092" lon="4.80982">
        <ele>240</ele>
        <time>2017-08-25T08:42:55Z</time>
      </trkpt>
      <trkpt lat="45.98093" lon="4.80985">
        <ele>240</ele>
        <time>2017-08-25T08:42:56Z</time>
      </trkpt>
      <trkpt lat="45.98096" lon="4.80994">
        <ele>240</ele>
        <time>2017-08-25T08:42:58Z</time>
      </trkpt>
      <trkpt lat="45.98098" lon="4.80999">
        <ele>240</ele>
        <time>2017-08-25T08:42:59Z</time>
      </trkpt>
      <trkpt lat="45.98102" lon="4.81009">
        <ele>242</ele>
        <time>2017-08-25T08:43:01Z</time>
      </trkpt>
      <trkpt lat="45.98103" lon="4.81014">
        <ele>242</ele>
        <time>2017-08-25T08:43:02Z</time>
      </trkpt>
      <trkpt lat="45.98107" lon="4.81023">
        <ele>242</ele>
        <time>2017-08-25T08:43:04Z</time>
      </trkpt>
      <trkpt lat="45.98109" lon="4.81028">
        <ele>242</ele>
        <time>2017-08-25T08:43:05Z</time>
      </trkpt>
      <trkpt lat="45.98113" lon="4.81038">
        <ele>242</ele>
        <time>2017-08-25T08:43:07Z</time>
      </trkpt>
      <trkpt lat="45.98115" lon="4.81043">
        <ele>242</ele>
        <time>2017-08-25T08:43:08Z</time>
      </trkpt>
      <trkpt lat="45.98119" lon="4.81054">
        <ele>243</ele>
        <time>2017-08-25T08:43:10Z</time>
      </trkpt>
      <trkpt lat="45.9812" lon="4.8106">
        <ele>243</ele>
        <time>2017-08-25T08:43:11Z</time>
      </trkpt>
      <trkpt lat="45.98123" lon="4.81068">
        <ele>243</ele>
        <time>2017-08-25T08:43:13Z</time>
      </trkpt>
      <trkpt lat="45.98125" lon="4.81072">
        <ele>243</ele>
        <time>2017-08-25T08:43:14Z</time>
      </trkpt>
      <trkpt lat="45.98128" lon="4.81082">
        <ele>243</ele>
        <time>2017-08-25T08:43:16Z</time>
      </trkpt>
      <trkpt lat="45.98129" lon="4.81087">
        <ele>245</ele>
        <time>2017-08-25T08:43:17Z</time>
      </trkpt>
      <trkpt lat="45.98133" lon="4.81097">
        <ele>245</ele>
        <time>2017-08-25T08:43:19Z</time>
      </trkpt>
      <trkpt lat="45.98135" lon="4.81102">
        <ele>245</ele>
        <time>2017-08-25T08:43:20Z</time>
      </trkpt>
      <trkpt lat="45.98139" lon="4.81111">
        <ele>245</ele>
        <time>2017-08-25T08:43:22Z</time>
      </trkpt>
      <trkpt lat="45.98142" lon="4.81116">
        <ele>245</ele>
        <time>2017-08-25T08:43:23Z</time>
      </trkpt>
      <trkpt lat="45.98147" lon="4.81126">
        <ele>245</ele>
        <time>2017-08-25T08:43:25Z</time>
      </trkpt>
      <trkpt lat="45.98148" lon="4.81131">
        <ele>245</ele>
        <time>2017-08-25T08:43:26Z</time>
      </trkpt>
      <trkpt lat="45.98152" lon="4.8114">
        <ele>245</ele>
        <time>2017-08-25T08:43:28Z</time>
      </trkpt>
      <trkpt lat="45.98153" lon="4.81145">
        <ele>245</ele>
        <time>2017-08-25T08:43:29Z</time>
      </trkpt>
      <trkpt lat="45.98157" lon="4.81153">
        <ele>245</ele>
        <time>2017-08-25T08:43:31Z</time>
      </trkpt>
      <trkpt lat="45.98159" lon="4.81159">
        <ele>245</ele>
        <time>2017-08-25T08:43:32Z</time>
      </trkpt>
      <trkpt lat="45.98163" lon="4.81169">
        <ele>245</ele>
        <time>2017-08-25T08:43:34Z</time>
      </trkpt>
      <trkpt lat="45.98164" lon="4.81177">
        <ele>246</ele>
        <time>2017-08-25T08:43:35Z</time>
      </trkpt>
      <trkpt lat="45.98167" lon="4.81188">
        <ele>246</ele>
        <time>2017-08-25T08:43:37Z</time>
      </trkpt>
      <trkpt lat="45.98167" lon="4.81193">
        <ele>245</ele>
        <time>2017-08-25T08:43:38Z</time>
      </trkpt>
      <trkpt lat="45.98168" lon="4.81203">
        <ele>245</ele>
        <time>2017-08-25T08:43:41Z</time>
      </trkpt>
      <trkpt lat="45.98169" lon="4.81206">
        <ele>245</ele>
        <time>2017-08-25T08:43:42Z</time>
      </trkpt>
      <trkpt lat="45.9817" lon="4.81216">
        <ele>246</ele>
        <time>2017-08-25T08:43:44Z</time>
      </trkpt>
      <trkpt lat="45.9817" lon="4.81221">
        <ele>246</ele>
        <time>2017-08-25T08:43:45Z</time>
      </trkpt>
      <trkpt lat="45.98171" lon="4.81233">
        <ele>246</ele>
        <time>2017-08-25T08:43:47Z</time>
      </trkpt>
      <trkpt lat="45.98172" lon="4.81238">
        <ele>247</ele>
        <time>2017-08-25T08:43:48Z</time>
      </trkpt>
      <trkpt lat="45.98173" lon="4.81248">
        <ele>247</ele>
        <time>2017-08-25T08:43:50Z</time>
      </trkpt>
      <trkpt lat="45.98174" lon="4.81253">
        <ele>248</ele>
        <time>2017-08-25T08:43:51Z</time>
      </trkpt>
      <trkpt lat="45.98176" lon="4.81262">
        <ele>247</ele>
        <time>2017-08-25T08:43:53Z</time>
      </trkpt>
      <trkpt lat="45.98176" lon="4.81266">
        <ele>247</ele>
        <time>2017-08-25T08:43:54Z</time>
      </trkpt>
      <trkpt lat="45.98177" lon="4.81277">
        <ele>247</ele>
        <time>2017-08-25T08:43:56Z</time>
      </trkpt>
      <trkpt lat="45.98178" lon="4.81282">
        <ele>247</ele>
        <time>2017-08-25T08:43:57Z</time>
      </trkpt>
      <trkpt lat="45.98182" lon="4.81293">
        <ele>247</ele>
        <time>2017-08-25T08:43:59Z</time>
      </trkpt>
      <trkpt lat="45.98183" lon="4.81299">
        <ele>247</ele>
        <time>2017-08-25T08:44:00Z</time>
      </trkpt>
      <trkpt lat="45.98185" lon="4.8131">
        <ele>247</ele>
        <time>2017-08-25T08:44:02Z</time>
      </trkpt>
      <trkpt lat="45.98186" lon="4.81314">
        <ele>247</ele>
        <time>2017-08-25T08:44:03Z</time>
      </trkpt>
      <trkpt lat="45.98188" lon="4.81326">
        <ele>247</ele>
        <time>2017-08-25T08:44:06Z</time>
      </trkpt>
      <trkpt lat="45.98189" lon="4.81331">
        <ele>247</ele>
        <time>2017-08-25T08:44:07Z</time>
      </trkpt>
      <trkpt lat="45.98192" lon="4.8134">
        <ele>248</ele>
        <time>2017-08-25T08:44:09Z</time>
      </trkpt>
      <trkpt lat="45.98193" lon="4.81346">
        <ele>248</ele>
        <time>2017-08-25T08:44:10Z</time>
      </trkpt>
      <trkpt lat="45.98195" lon="4.81357">
        <ele>248</ele>
        <time>2017-08-25T08:44:12Z</time>
      </trkpt>
      <trkpt lat="45.98197" lon="4.81362">
        <ele>248</ele>
        <time>2017-08-25T08:44:13Z</time>
      </trkpt>
      <trkpt lat="45.98198" lon="4.8137">
        <ele>248</ele>
        <time>2017-08-25T08:44:15Z</time>
      </trkpt>
      <trkpt lat="45.98198" lon="4.81375">
        <ele>248</ele>
        <time>2017-08-25T08:44:16Z</time>
      </trkpt>
      <trkpt lat="45.98201" lon="4.81384">
        <ele>248</ele>
        <time>2017-08-25T08:44:18Z</time>
      </trkpt>
      <trkpt lat="45.98202" lon="4.81389">
        <ele>248</ele>
        <time>2017-08-25T08:44:19Z</time>
      </trkpt>
      <trkpt lat="45.98205" lon="4.814">
        <ele>248</ele>
        <time>2017-08-25T08:44:21Z</time>
      </trkpt>
      <trkpt lat="45.98207" lon="4.81405">
        <ele>248</ele>
        <time>2017-08-25T08:44:22Z</time>
      </trkpt>
      <trkpt lat="45.9821" lon="4.81415">
        <ele>248</ele>
        <time>2017-08-25T08:44:24Z</time>
      </trkpt>
      <trkpt lat="45.98212" lon="4.81421">
        <ele>249</ele>
        <time>2017-08-25T08:44:25Z</time>
      </trkpt>
      <trkpt lat="45.98216" lon="4.81431">
        <ele>249</ele>
        <time>2017-08-25T08:44:27Z</time>
      </trkpt>
      <trkpt lat="45.98217" lon="4.81436">
        <ele>249</ele>
        <time>2017-08-25T08:44:28Z</time>
      </trkpt>
      <trkpt lat="45.98221" lon="4.81446">
        <ele>249</ele>
        <time>2017-08-25T08:44:30Z</time>
      </trkpt>
      <trkpt lat="45.98222" lon="4.81451">
        <ele>249</ele>
        <time>2017-08-25T08:44:31Z</time>
      </trkpt>
      <trkpt lat="45.98225" lon="4.81462">
        <ele>249</ele>
        <time>2017-08-25T08:44:33Z</time>
      </trkpt>
      <trkpt lat="45.98227" lon="4.81468">
        <ele>249</ele>
        <time>2017-08-25T08:44:34Z</time>
      </trkpt>
      <trkpt lat="45.98231" lon="4.81478">
        <ele>249</ele>
        <time>2017-08-25T08:44:36Z</time>
      </trkpt>
      <trkpt lat="45.98235" lon="4.81483">
        <ele>249</ele>
        <time>2017-08-25T08:44:37Z</time>
      </trkpt>
      <trkpt lat="45.98239" lon="4.81494">
        <ele>249</ele>
        <time>2017-08-25T08:44:39Z</time>
      </trkpt>
      <trkpt lat="45.98241" lon="4.815">
        <ele>249</ele>
        <time>2017-08-25T08:44:40Z</time>
      </trkpt>
      <trkpt lat="45.98245" lon="4.81511">
        <ele>249</ele>
        <time>2017-08-25T08:44:42Z</time>
      </trkpt>
      <trkpt lat="45.98248" lon="4.81517">
        <ele>249</ele>
        <time>2017-08-25T08:44:43Z</time>
      </trkpt>
      <trkpt lat="45.9825" lon="4.81523">
        <ele>247</ele>
        <time>2017-08-25T08:44:44Z</time>
      </trkpt>
      <trkpt lat="45.98252" lon="4.81529">
        <ele>247</ele>
        <time>2017-08-25T08:44:45Z</time>
      </trkpt>
      <trkpt lat="45.98254" lon="4.81535">
        <ele>247</ele>
        <time>2017-08-25T08:44:46Z</time>
      </trkpt>
      <trkpt lat="45.98256" lon="4.81542">
        <ele>247</ele>
        <time>2017-08-25T08:44:47Z</time>
      </trkpt>
      <trkpt lat="45.98258" lon="4.81548">
        <ele>247</ele>
        <time>2017-08-25T08:44:48Z</time>
      </trkpt>
      <trkpt lat="45.9826" lon="4.81553">
        <ele>247</ele>
        <time>2017-08-25T08:44:49Z</time>
      </trkpt>
      <trkpt lat="45.98264" lon="4.81565">
        <ele>247</ele>
        <time>2017-08-25T08:44:51Z</time>
      </trkpt>
      <trkpt lat="45.98266" lon="4.81571">
        <ele>247</ele>
        <time>2017-08-25T08:44:52Z</time>
      </trkpt>
      <trkpt lat="45.98269" lon="4.81582">
        <ele>247</ele>
        <time>2017-08-25T08:44:54Z</time>
      </trkpt>
      <trkpt lat="45.98271" lon="4.81587">
        <ele>247</ele>
        <time>2017-08-25T08:44:55Z</time>
      </trkpt>
      <trkpt lat="45.98275" lon="4.81597">
        <ele>247</ele>
        <time>2017-08-25T08:44:57Z</time>
      </trkpt>
      <trkpt lat="45.98277" lon="4.81603">
        <ele>247</ele>
        <time>2017-08-25T08:44:58Z</time>
      </trkpt>
      <trkpt lat="45.9828" lon="4.81608">
        <ele>247</ele>
        <time>2017-08-25T08:44:59Z</time>
      </trkpt>
      <trkpt lat="45.98282" lon="4.81614">
        <ele>247</ele>
        <time>2017-08-25T08:45:00Z</time>
      </trkpt>
      <trkpt lat="45.98285" lon="4.81619">
        <ele>247</ele>
        <time>2017-08-25T08:45:01Z</time>
      </trkpt>
      <trkpt lat="45.98289" lon="4.81625">
        <ele>247</ele>
        <time>2017-08-25T08:45:02Z</time>
      </trkpt>
      <trkpt lat="45.98293" lon="4.8163">
        <ele>247</ele>
        <time>2017-08-25T08:45:03Z</time>
      </trkpt>
      <trkpt lat="45.98297" lon="4.81635">
        <ele>246</ele>
        <time>2017-08-25T08:45:04Z</time>
      </trkpt>
      <trkpt lat="45.98301" lon="4.8164">
        <ele>246</ele>
        <time>2017-08-25T08:45:05Z</time>
      </trkpt>
      <trkpt lat="45.98305" lon="4.81643">
        <ele>246</ele>
        <time>2017-08-25T08:45:06Z</time>
      </trkpt>
      <trkpt lat="45.98309" lon="4.81647">
        <ele>246</ele>
        <time>2017-08-25T08:45:07Z</time>
      </trkpt>
      <trkpt lat="45.98313" lon="4.81651">
        <ele>246</ele>
        <time>2017-08-25T08:45:08Z</time>
      </trkpt>
      <trkpt lat="45.98318" lon="4.81656">
        <ele>246</ele>
        <time>2017-08-25T08:45:09Z</time>
      </trkpt>
      <trkpt lat="45.98323" lon="4.8166">
        <ele>246</ele>
        <time>2017-08-25T08:45:10Z</time>
      </trkpt>
      <trkpt lat="45.98327" lon="4.81663">
        <ele>246</ele>
        <time>2017-08-25T08:45:11Z</time>
      </trkpt>
      <trkpt lat="45.98332" lon="4.81666">
        <ele>246</ele>
        <time>2017-08-25T08:45:12Z</time>
      </trkpt>
      <trkpt lat="45.9834" lon="4.81672">
        <ele>245</ele>
        <time>2017-08-25T08:45:14Z</time>
      </trkpt>
      <trkpt lat="45.98345" lon="4.81674">
        <ele>245</ele>
        <time>2017-08-25T08:45:15Z</time>
      </trkpt>
      <trkpt lat="45.9835" lon="4.81676">
        <ele>245</ele>
        <time>2017-08-25T08:45:16Z</time>
      </trkpt>
      <trkpt lat="45.98356" lon="4.81677">
        <ele>245</ele>
        <time>2017-08-25T08:45:17Z</time>
      </trkpt>
      <trkpt lat="45.98362" lon="4.81676">
        <ele>244</ele>
        <time>2017-08-25T08:45:18Z</time>
      </trkpt>
      <trkpt lat="45.98369" lon="4.81675">
        <ele>244</ele>
        <time>2017-08-25T08:45:19Z</time>
      </trkpt>
      <trkpt lat="45.98375" lon="4.81674">
        <ele>244</ele>
        <time>2017-08-25T08:45:20Z</time>
      </trkpt>
      <trkpt lat="45.98381" lon="4.81673">
        <ele>244</ele>
        <time>2017-08-25T08:45:21Z</time>
      </trkpt>
      <trkpt lat="45.98387" lon="4.81673">
        <ele>243</ele>
        <time>2017-08-25T08:45:22Z</time>
      </trkpt>
      <trkpt lat="45.98392" lon="4.81671">
        <ele>243</ele>
        <time>2017-08-25T08:45:23Z</time>
      </trkpt>
      <trkpt lat="45.98397" lon="4.81669">
        <ele>243</ele>
        <time>2017-08-25T08:45:24Z</time>
      </trkpt>
      <trkpt lat="45.98402" lon="4.81667">
        <ele>242</ele>
        <time>2017-08-25T08:45:25Z</time>
      </trkpt>
      <trkpt lat="45.98407" lon="4.81666">
        <ele>241</ele>
        <time>2017-08-25T08:45:26Z</time>
      </trkpt>
      <trkpt lat="45.98412" lon="4.81666">
        <ele>241</ele>
        <time>2017-08-25T08:45:27Z</time>
      </trkpt>
      <trkpt lat="45.98418" lon="4.81666">
        <ele>241</ele>
        <time>2017-08-25T08:45:28Z</time>
      </trkpt>
      <trkpt lat="45.98423" lon="4.81667">
        <ele>240</ele>
        <time>2017-08-25T08:45:29Z</time>
      </trkpt>
      <trkpt lat="45.98428" lon="4.81667">
        <ele>240</ele>
        <time>2017-08-25T08:45:30Z</time>
      </trkpt>
      <trkpt lat="45.98433" lon="4.8167">
        <ele>240</ele>
        <time>2017-08-25T08:45:31Z</time>
      </trkpt>
      <trkpt lat="45.98437" lon="4.81673">
        <ele>240</ele>
        <time>2017-08-25T08:45:32Z</time>
      </trkpt>
      <trkpt lat="45.98442" lon="4.81676">
        <ele>239</ele>
        <time>2017-08-25T08:45:33Z</time>
      </trkpt>
      <trkpt lat="45.98446" lon="4.81679">
        <ele>239</ele>
        <time>2017-08-25T08:45:34Z</time>
      </trkpt>
      <trkpt lat="45.9845" lon="4.81683">
        <ele>239</ele>
        <time>2017-08-25T08:45:35Z</time>
      </trkpt>
      <trkpt lat="45.98452" lon="4.81689">
        <ele>239</ele>
        <time>2017-08-25T08:45:36Z</time>
      </trkpt>
      <trkpt lat="45.98455" lon="4.81695">
        <ele>239</ele>
        <time>2017-08-25T08:45:37Z</time>
      </trkpt>
      <trkpt lat="45.98458" lon="4.81701">
        <ele>239</ele>
        <time>2017-08-25T08:45:38Z</time>
      </trkpt>
      <trkpt lat="45.98461" lon="4.81705">
        <ele>239</ele>
        <time>2017-08-25T08:45:39Z</time>
      </trkpt>
      <trkpt lat="45.98465" lon="4.81712">
        <ele>239</ele>
        <time>2017-08-25T08:45:40Z</time>
      </trkpt>
      <trkpt lat="45.9847" lon="4.81718">
        <ele>239</ele>
        <time>2017-08-25T08:45:41Z</time>
      </trkpt>
      <trkpt lat="45.98475" lon="4.81724">
        <ele>239</ele>
        <time>2017-08-25T08:45:42Z</time>
      </trkpt>
      <trkpt lat="45.98481" lon="4.81731">
        <ele>238</ele>
        <time>2017-08-25T08:45:43Z</time>
      </trkpt>
      <trkpt lat="45.98488" lon="4.81737">
        <ele>238</ele>
        <time>2017-08-25T08:45:44Z</time>
      </trkpt>
      <trkpt lat="45.98494" lon="4.81743">
        <ele>238</ele>
        <time>2017-08-25T08:45:45Z</time>
      </trkpt>
      <trkpt lat="45.98501" lon="4.8175">
        <ele>237</ele>
        <time>2017-08-25T08:45:46Z</time>
      </trkpt>
      <trkpt lat="45.98507" lon="4.81758">
        <ele>237</ele>
        <time>2017-08-25T08:45:47Z</time>
      </trkpt>
      <trkpt lat="45.98513" lon="4.81766">
        <ele>237</ele>
        <time>2017-08-25T08:45:48Z</time>
      </trkpt>
      <trkpt lat="45.98519" lon="4.81775">
        <ele>238</ele>
        <time>2017-08-25T08:45:49Z</time>
      </trkpt>
      <trkpt lat="45.98525" lon="4.81784">
        <ele>238</ele>
        <time>2017-08-25T08:45:50Z</time>
      </trkpt>
      <trkpt lat="45.98531" lon="4.81792">
        <ele>238</ele>
        <time>2017-08-25T08:45:51Z</time>
      </trkpt>
      <trkpt lat="45.98537" lon="4.818">
        <ele>238</ele>
        <time>2017-08-25T08:45:52Z</time>
      </trkpt>
      <trkpt lat="45.98543" lon="4.81806">
        <ele>238</ele>
        <time>2017-08-25T08:45:53Z</time>
      </trkpt>
      <trkpt lat="45.98551" lon="4.81809">
        <ele>238</ele>
        <time>2017-08-25T08:45:54Z</time>
      </trkpt>
      <trkpt lat="45.98558" lon="4.81808">
        <ele>238</ele>
        <time>2017-08-25T08:45:55Z</time>
      </trkpt>
      <trkpt lat="45.98564" lon="4.81803">
        <ele>238</ele>
        <time>2017-08-25T08:45:56Z</time>
      </trkpt>
      <trkpt lat="45.98569" lon="4.81797">
        <ele>238</ele>
        <time>2017-08-25T08:45:57Z</time>
      </trkpt>
      <trkpt lat="45.98574" lon="4.8179">
        <ele>238</ele>
        <time>2017-08-25T08:45:58Z</time>
      </trkpt>
      <trkpt lat="45.98579" lon="4.81784">
        <ele>238</ele>
        <time>2017-08-25T08:45:59Z</time>
      </trkpt>
      <trkpt lat="45.98584" lon="4.81778">
        <ele>238</ele>
        <time>2017-08-25T08:46:00Z</time>
      </trkpt>
      <trkpt lat="45.98589" lon="4.81774">
        <ele>238</ele>
        <time>2017-08-25T08:46:01Z</time>
      </trkpt>
      <trkpt lat="45.98595" lon="4.8177">
        <ele>238</ele>
        <time>2017-08-25T08:46:02Z</time>
      </trkpt>
      <trkpt lat="45.986" lon="4.81768">
        <ele>238</ele>
        <time>2017-08-25T08:46:03Z</time>
      </trkpt>
      <trkpt lat="45.98605" lon="4.81765">
        <ele>238</ele>
        <time>2017-08-25T08:46:04Z</time>
      </trkpt>
      <trkpt lat="45.9861" lon="4.81763">
        <ele>238</ele>
        <time>2017-08-25T08:46:05Z</time>
      </trkpt>
      <trkpt lat="45.98614" lon="4.81762">
        <ele>238</ele>
        <time>2017-08-25T08:46:06Z</time>
      </trkpt>
      <trkpt lat="45.98619" lon="4.81761">
        <ele>238</ele>
        <time>2017-08-25T08:46:07Z</time>
      </trkpt>
      <trkpt lat="45.98624" lon="4.8176">
        <ele>238</ele>
        <time>2017-08-25T08:46:08Z</time>
      </trkpt>
      <trkpt lat="45.98629" lon="4.81758">
        <ele>238</ele>
        <time>2017-08-25T08:46:09Z</time>
      </trkpt>
      <trkpt lat="45.98634" lon="4.81757">
        <ele>238</ele>
        <time>2017-08-25T08:46:10Z</time>
      </trkpt>
      <trkpt lat="45.98639" lon="4.81756">
        <ele>238</ele>
        <time>2017-08-25T08:46:11Z</time>
      </trkpt>
      <trkpt lat="45.98647" lon="4.81754">
        <ele>238</ele>
        <time>2017-08-25T08:46:13Z</time>
      </trkpt>
      <trkpt lat="45.98652" lon="4.81753">
        <ele>238</ele>
        <time>2017-08-25T08:46:14Z</time>
      </trkpt>
      <trkpt lat="45.9866" lon="4.81751">
        <ele>238</ele>
        <time>2017-08-25T08:46:16Z</time>
      </trkpt>
      <trkpt lat="45.98664" lon="4.81749">
        <ele>238</ele>
        <time>2017-08-25T08:46:17Z</time>
      </trkpt>
      <trkpt lat="45.98672" lon="4.81747">
        <ele>238</ele>
        <time>2017-08-25T08:46:19Z</time>
      </trkpt>
      <trkpt lat="45.98676" lon="4.81745">
        <ele>238</ele>
        <time>2017-08-25T08:46:20Z</time>
      </trkpt>
      <trkpt lat="45.98681" lon="4.81743">
        <ele>238</ele>
        <time>2017-08-25T08:46:21Z</time>
      </trkpt>
      <trkpt lat="45.98686" lon="4.81742">
        <ele>238</ele>
        <time>2017-08-25T08:46:22Z</time>
      </trkpt>
      <trkpt lat="45.98691" lon="4.8174">
        <ele>238</ele>
        <time>2017-08-25T08:46:23Z</time>
      </trkpt>
      <trkpt lat="45.98696" lon="4.81739">
        <ele>239</ele>
        <time>2017-08-25T08:46:24Z</time>
      </trkpt>
      <trkpt lat="45.98701" lon="4.81738">
        <ele>239</ele>
        <time>2017-08-25T08:46:25Z</time>
      </trkpt>
      <trkpt lat="45.98706" lon="4.81736">
        <ele>239</ele>
        <time>2017-08-25T08:46:26Z</time>
      </trkpt>
      <trkpt lat="45.98711" lon="4.81735">
        <ele>239</ele>
        <time>2017-08-25T08:46:27Z</time>
      </trkpt>
      <trkpt lat="45.98717" lon="4.81735">
        <ele>239</ele>
        <time>2017-08-25T08:46:28Z</time>
      </trkpt>
      <trkpt lat="45.98722" lon="4.81734">
        <ele>239</ele>
        <time>2017-08-25T08:46:29Z</time>
      </trkpt>
      <trkpt lat="45.98726" lon="4.81734">
        <ele>239</ele>
        <time>2017-08-25T08:46:30Z</time>
      </trkpt>
      <trkpt lat="45.98734" lon="4.81739">
        <ele>240</ele>
        <time>2017-08-25T08:46:32Z</time>
      </trkpt>
      <trkpt lat="45.98737" lon="4.81743">
        <ele>240</ele>
        <time>2017-08-25T08:46:33Z</time>
      </trkpt>
      <trkpt lat="45.98743" lon="4.81751">
        <ele>241</ele>
        <time>2017-08-25T08:46:35Z</time>
      </trkpt>
      <trkpt lat="45.98746" lon="4.81755">
        <ele>241</ele>
        <time>2017-08-25T08:46:36Z</time>
      </trkpt>
      <trkpt lat="45.98748" lon="4.8176">
        <ele>240</ele>
        <time>2017-08-25T08:46:37Z</time>
      </trkpt>
      <trkpt lat="45.9875" lon="4.81766">
        <ele>241</ele>
        <time>2017-08-25T08:46:38Z</time>
      </trkpt>
      <trkpt lat="45.98753" lon="4.81773">
        <ele>241</ele>
        <time>2017-08-25T08:46:39Z</time>
      </trkpt>
      <trkpt lat="45.98756" lon="4.81779">
        <ele>241</ele>
        <time>2017-08-25T08:46:40Z</time>
      </trkpt>
      <trkpt lat="45.98758" lon="4.81785">
        <ele>241</ele>
        <time>2017-08-25T08:46:41Z</time>
      </trkpt>
      <trkpt lat="45.98761" lon="4.81792">
        <ele>241</ele>
        <time>2017-08-25T08:46:42Z</time>
      </trkpt>
      <trkpt lat="45.98764" lon="4.81799">
        <ele>240</ele>
        <time>2017-08-25T08:46:43Z</time>
      </trkpt>
      <trkpt lat="45.98767" lon="4.81806">
        <ele>240</ele>
        <time>2017-08-25T08:46:44Z</time>
      </trkpt>
      <trkpt lat="45.9877" lon="4.81814">
        <ele>240</ele>
        <time>2017-08-25T08:46:45Z</time>
      </trkpt>
      <trkpt lat="45.98774" lon="4.81821">
        <ele>240</ele>
        <time>2017-08-25T08:46:46Z</time>
      </trkpt>
      <trkpt lat="45.98777" lon="4.81828">
        <ele>240</ele>
        <time>2017-08-25T08:46:47Z</time>
      </trkpt>
      <trkpt lat="45.98781" lon="4.81835">
        <ele>239</ele>
        <time>2017-08-25T08:46:48Z</time>
      </trkpt>
      <trkpt lat="45.98785" lon="4.81843">
        <ele>239</ele>
        <time>2017-08-25T08:46:49Z</time>
      </trkpt>
      <trkpt lat="45.98788" lon="4.81851">
        <ele>239</ele>
        <time>2017-08-25T08:46:50Z</time>
      </trkpt>
      <trkpt lat="45.98792" lon="4.81859">
        <ele>239</ele>
        <time>2017-08-25T08:46:51Z</time>
      </trkpt>
      <trkpt lat="45.98795" lon="4.81866">
        <ele>239</ele>
        <time>2017-08-25T08:46:52Z</time>
      </trkpt>
      <trkpt lat="45.98798" lon="4.81874">
        <ele>239</ele>
        <time>2017-08-25T08:46:53Z</time>
      </trkpt>
      <trkpt lat="45.98801" lon="4.81883">
        <ele>239</ele>
        <time>2017-08-25T08:46:54Z</time>
      </trkpt>
      <trkpt lat="45.98803" lon="4.81892">
        <ele>239</ele>
        <time>2017-08-25T08:46:55Z</time>
      </trkpt>
      <trkpt lat="45.98805" lon="4.81901">
        <ele>239</ele>
        <time>2017-08-25T08:46:56Z</time>
      </trkpt>
      <trkpt lat="45.98807" lon="4.8191">
        <ele>239</ele>
        <time>2017-08-25T08:46:57Z</time>
      </trkpt>
      <trkpt lat="45.98809" lon="4.81919">
        <ele>239</ele>
        <time>2017-08-25T08:46:58Z</time>
      </trkpt>
      <trkpt lat="45.98809" lon="4.81928">
        <ele>239</ele>
        <time>2017-08-25T08:46:59Z</time>
      </trkpt>
      <trkpt lat="45.98811" lon="4.81937">
        <ele>239</ele>
        <time>2017-08-25T08:47:00Z</time>
      </trkpt>
      <trkpt lat="45.98812" lon="4.81945">
        <ele>239</ele>
        <time>2017-08-25T08:47:01Z</time>
      </trkpt>
      <trkpt lat="45.98813" lon="4.81953">
        <ele>239</ele>
        <time>2017-08-25T08:47:02Z</time>
      </trkpt>
      <trkpt lat="45.98814" lon="4.81961">
        <ele>239</ele>
        <time>2017-08-25T08:47:03Z</time>
      </trkpt>
      <trkpt lat="45.98815" lon="4.81968">
        <ele>239</ele>
        <time>2017-08-25T08:47:04Z</time>
      </trkpt>
      <trkpt lat="45.98816" lon="4.81976">
        <ele>239</ele>
        <time>2017-08-25T08:47:05Z</time>
      </trkpt>
      <trkpt lat="45.98817" lon="4.81983">
        <ele>238</ele>
        <time>2017-08-25T08:47:06Z</time>
      </trkpt>
      <trkpt lat="45.98817" lon="4.81991">
        <ele>238</ele>
        <time>2017-08-25T08:47:07Z</time>
      </trkpt>
      <trkpt lat="45.98818" lon="4.81998">
        <ele>238</ele>
        <time>2017-08-25T08:47:08Z</time>
      </trkpt>
      <trkpt lat="45.98818" lon="4.82005">
        <ele>238</ele>
        <time>2017-08-25T08:47:09Z</time>
      </trkpt>
      <trkpt lat="45.98819" lon="4.82011">
        <ele>238</ele>
        <time>2017-08-25T08:47:10Z</time>
      </trkpt>
      <trkpt lat="45.9882" lon="4.82018">
        <ele>238</ele>
        <time>2017-08-25T08:47:11Z</time>
      </trkpt>
      <trkpt lat="45.9882" lon="4.82025">
        <ele>238</ele>
        <time>2017-08-25T08:47:12Z</time>
      </trkpt>
      <trkpt lat="45.98822" lon="4.82032">
        <ele>238</ele>
        <time>2017-08-25T08:47:13Z</time>
      </trkpt>
      <trkpt lat="45.98823" lon="4.82039">
        <ele>238</ele>
        <time>2017-08-25T08:47:14Z</time>
      </trkpt>
      <trkpt lat="45.98825" lon="4.82047">
        <ele>238</ele>
        <time>2017-08-25T08:47:15Z</time>
      </trkpt>
      <trkpt lat="45.98827" lon="4.82055">
        <ele>237</ele>
        <time>2017-08-25T08:47:16Z</time>
      </trkpt>
      <trkpt lat="45.98828" lon="4.82063">
        <ele>237</ele>
        <time>2017-08-25T08:47:17Z</time>
      </trkpt>
      <trkpt lat="45.98829" lon="4.82071">
        <ele>237</ele>
        <time>2017-08-25T08:47:18Z</time>
      </trkpt>
      <trkpt lat="45.9883" lon="4.82078">
        <ele>236</ele>
        <time>2017-08-25T08:47:19Z</time>
      </trkpt>
      <trkpt lat="45.98831" lon="4.82086">
        <ele>236</ele>
        <time>2017-08-25T08:47:20Z</time>
      </trkpt>
      <trkpt lat="45.98832" lon="4.82094">
        <ele>237</ele>
        <time>2017-08-25T08:47:21Z</time>
      </trkpt>
      <trkpt lat="45.98834" lon="4.82101">
        <ele>236</ele>
        <time>2017-08-25T08:47:22Z</time>
      </trkpt>
      <trkpt lat="45.98835" lon="4.82108">
        <ele>236</ele>
        <time>2017-08-25T08:47:23Z</time>
      </trkpt>
      <trkpt lat="45.98837" lon="4.82115">
        <ele>235</ele>
        <time>2017-08-25T08:47:24Z</time>
      </trkpt>
      <trkpt lat="45.98838" lon="4.82122">
        <ele>236</ele>
        <time>2017-08-25T08:47:25Z</time>
      </trkpt>
      <trkpt lat="45.98839" lon="4.82129">
        <ele>236</ele>
        <time>2017-08-25T08:47:26Z</time>
      </trkpt>
      <trkpt lat="45.98841" lon="4.82136">
        <ele>236</ele>
        <time>2017-08-25T08:47:27Z</time>
      </trkpt>
      <trkpt lat="45.98842" lon="4.82142">
        <ele>236</ele>
        <time>2017-08-25T08:47:28Z</time>
      </trkpt>
      <trkpt lat="45.98844" lon="4.82149">
        <ele>236</ele>
        <time>2017-08-25T08:47:29Z</time>
      </trkpt>
      <trkpt lat="45.98846" lon="4.82157">
        <ele>236</ele>
        <time>2017-08-25T08:47:30Z</time>
      </trkpt>
      <trkpt lat="45.98848" lon="4.82164">
        <ele>236</ele>
        <time>2017-08-25T08:47:31Z</time>
      </trkpt>
      <trkpt lat="45.9885" lon="4.82172">
        <ele>236</ele>
        <time>2017-08-25T08:47:32Z</time>
      </trkpt>
      <trkpt lat="45.98853" lon="4.82179">
        <ele>236</ele>
        <time>2017-08-25T08:47:33Z</time>
      </trkpt>
      <trkpt lat="45.98855" lon="4.82186">
        <ele>236</ele>
        <time>2017-08-25T08:47:34Z</time>
      </trkpt>
      <trkpt lat="45.98858" lon="4.82194">
        <ele>236</ele>
        <time>2017-08-25T08:47:35Z</time>
      </trkpt>
      <trkpt lat="45.9886" lon="4.822">
        <ele>236</ele>
        <time>2017-08-25T08:47:36Z</time>
      </trkpt>
      <trkpt lat="45.98863" lon="4.82206">
        <ele>236</ele>
        <time>2017-08-25T08:47:37Z</time>
      </trkpt>
      <trkpt lat="45.98865" lon="4.82212">
        <ele>236</ele>
        <time>2017-08-25T08:47:38Z</time>
      </trkpt>
      <trkpt lat="45.98868" lon="4.82218">
        <ele>236</ele>
        <time>2017-08-25T08:47:39Z</time>
      </trkpt>
      <trkpt lat="45.9887" lon="4.82224">
        <ele>236</ele>
        <time>2017-08-25T08:47:40Z</time>
      </trkpt>
      <trkpt lat="45.98873" lon="4.82229">
        <ele>236</ele>
        <time>2017-08-25T08:47:41Z</time>
      </trkpt>
      <trkpt lat="45.98875" lon="4.82234">
        <ele>236</ele>
        <time>2017-08-25T08:47:42Z</time>
      </trkpt>
      <trkpt lat="45.98878" lon="4.8224">
        <ele>236</ele>
        <time>2017-08-25T08:47:43Z</time>
      </trkpt>
      <trkpt lat="45.98881" lon="4.82245">
        <ele>236</ele>
        <time>2017-08-25T08:47:44Z</time>
      </trkpt>
      <trkpt lat="45.98883" lon="4.8225">
        <ele>236</ele>
        <time>2017-08-25T08:47:45Z</time>
      </trkpt>
      <trkpt lat="45.98886" lon="4.82257">
        <ele>236</ele>
        <time>2017-08-25T08:47:46Z</time>
      </trkpt>
      <trkpt lat="45.98888" lon="4.82263">
        <ele>236</ele>
        <time>2017-08-25T08:47:47Z</time>
      </trkpt>
      <trkpt lat="45.98892" lon="4.82269">
        <ele>236</ele>
        <time>2017-08-25T08:47:48Z</time>
      </trkpt>
      <trkpt lat="45.98895" lon="4.82276">
        <ele>236</ele>
        <time>2017-08-25T08:47:49Z</time>
      </trkpt>
      <trkpt lat="45.98898" lon="4.82281">
        <ele>236</ele>
        <time>2017-08-25T08:47:50Z</time>
      </trkpt>
      <trkpt lat="45.98903" lon="4.82286">
        <ele>236</ele>
        <time>2017-08-25T08:47:51Z</time>
      </trkpt>
      <trkpt lat="45.98907" lon="4.82291">
        <ele>236</ele>
        <time>2017-08-25T08:47:52Z</time>
      </trkpt>
      <trkpt lat="45.9891" lon="4.82296">
        <ele>237</ele>
        <time>2017-08-25T08:47:53Z</time>
      </trkpt>
      <trkpt lat="45.98914" lon="4.82301">
        <ele>237</ele>
        <time>2017-08-25T08:47:54Z</time>
      </trkpt>
      <trkpt lat="45.98918" lon="4.82305">
        <ele>235</ele>
        <time>2017-08-25T08:47:55Z</time>
      </trkpt>
      <trkpt lat="45.98922" lon="4.8231">
        <ele>235</ele>
        <time>2017-08-25T08:47:56Z</time>
      </trkpt>
      <trkpt lat="45.98926" lon="4.82315">
        <ele>235</ele>
        <time>2017-08-25T08:47:57Z</time>
      </trkpt>
      <trkpt lat="45.9893" lon="4.82319">
        <ele>235</ele>
        <time>2017-08-25T08:47:58Z</time>
      </trkpt>
      <trkpt lat="45.98934" lon="4.82323">
        <ele>235</ele>
        <time>2017-08-25T08:47:59Z</time>
      </trkpt>
      <trkpt lat="45.98937" lon="4.82328">
        <ele>235</ele>
        <time>2017-08-25T08:48:00Z</time>
      </trkpt>
      <trkpt lat="45.98941" lon="4.82333">
        <ele>235</ele>
        <time>2017-08-25T08:48:01Z</time>
      </trkpt>
      <trkpt lat="45.98944" lon="4.82338">
        <ele>235</ele>
        <time>2017-08-25T08:48:02Z</time>
      </trkpt>
      <trkpt lat="45.98947" lon="4.82344">
        <ele>235</ele>
        <time>2017-08-25T08:48:03Z</time>
      </trkpt>
      <trkpt lat="45.98949" lon="4.82349">
        <ele>235</ele>
        <time>2017-08-25T08:48:04Z</time>
      </trkpt>
      <trkpt lat="45.98952" lon="4.82355">
        <ele>235</ele>
        <time>2017-08-25T08:48:05Z</time>
      </trkpt>
      <trkpt lat="45.98955" lon="4.8236">
        <ele>235</ele>
        <time>2017-08-25T08:48:06Z</time>
      </trkpt>
      <trkpt lat="45.98958" lon="4.82365">
        <ele>235</ele>
        <time>2017-08-25T08:48:07Z</time>
      </trkpt>
      <trkpt lat="45.9896" lon="4.82372">
        <ele>235</ele>
        <time>2017-08-25T08:48:08Z</time>
      </trkpt>
      <trkpt lat="45.98962" lon="4.82379">
        <ele>235</ele>
        <time>2017-08-25T08:48:09Z</time>
      </trkpt>
      <trkpt lat="45.98964" lon="4.82387">
        <ele>235</ele>
        <time>2017-08-25T08:48:10Z</time>
      </trkpt>
      <trkpt lat="45.98966" lon="4.82394">
        <ele>235</ele>
        <time>2017-08-25T08:48:11Z</time>
      </trkpt>
      <trkpt lat="45.98969" lon="4.82402">
        <ele>235</ele>
        <time>2017-08-25T08:48:12Z</time>
      </trkpt>
      <trkpt lat="45.98971" lon="4.8241">
        <ele>235</ele>
        <time>2017-08-25T08:48:13Z</time>
      </trkpt>
      <trkpt lat="45.98973" lon="4.82417">
        <ele>236</ele>
        <time>2017-08-25T08:48:14Z</time>
      </trkpt>
      <trkpt lat="45.98976" lon="4.82424">
        <ele>236</ele>
        <time>2017-08-25T08:48:15Z</time>
      </trkpt>
      <trkpt lat="45.98977" lon="4.82432">
        <ele>236</ele>
        <time>2017-08-25T08:48:16Z</time>
      </trkpt>
      <trkpt lat="45.98979" lon="4.82439">
        <ele>236</ele>
        <time>2017-08-25T08:48:17Z</time>
      </trkpt>
      <trkpt lat="45.98981" lon="4.82446">
        <ele>236</ele>
        <time>2017-08-25T08:48:18Z</time>
      </trkpt>
      <trkpt lat="45.98982" lon="4.82452">
        <ele>236</ele>
        <time>2017-08-25T08:48:19Z</time>
      </trkpt>
      <trkpt lat="45.98985" lon="4.82458">
        <ele>236</ele>
        <time>2017-08-25T08:48:20Z</time>
      </trkpt>
      <trkpt lat="45.98986" lon="4.82465">
        <ele>236</ele>
        <time>2017-08-25T08:48:21Z</time>
      </trkpt>
      <trkpt lat="45.98988" lon="4.8247">
        <ele>236</ele>
        <time>2017-08-25T08:48:22Z</time>
      </trkpt>
      <trkpt lat="45.9899" lon="4.82477">
        <ele>236</ele>
        <time>2017-08-25T08:48:23Z</time>
      </trkpt>
      <trkpt lat="45.98992" lon="4.82483">
        <ele>236</ele>
        <time>2017-08-25T08:48:24Z</time>
      </trkpt>
      <trkpt lat="45.98994" lon="4.82489">
        <ele>236</ele>
        <time>2017-08-25T08:48:25Z</time>
      </trkpt>
      <trkpt lat="45.98996" lon="4.82496">
        <ele>235</ele>
        <time>2017-08-25T08:48:26Z</time>
      </trkpt>
      <trkpt lat="45.98998" lon="4.82502">
        <ele>235</ele>
        <time>2017-08-25T08:48:27Z</time>
      </trkpt>
      <trkpt lat="45.99002" lon="4.82509">
        <ele>235</ele>
        <time>2017-08-25T08:48:28Z</time>
      </trkpt>
      <trkpt lat="45.99005" lon="4.82516">
        <ele>235</ele>
        <time>2017-08-25T08:48:29Z</time>
      </trkpt>
      <trkpt lat="45.99008" lon="4.82523">
        <ele>235</ele>
        <time>2017-08-25T08:48:30Z</time>
      </trkpt>
      <trkpt lat="45.99012" lon="4.8253">
        <ele>235</ele>
        <time>2017-08-25T08:48:31Z</time>
      </trkpt>
      <trkpt lat="45.99016" lon="4.82535">
        <ele>235</ele>
        <time>2017-08-25T08:48:32Z</time>
      </trkpt>
      <trkpt lat="45.9902" lon="4.82541">
        <ele>235</ele>
        <time>2017-08-25T08:48:33Z</time>
      </trkpt>
      <trkpt lat="45.99025" lon="4.82546">
        <ele>235</ele>
        <time>2017-08-25T08:48:34Z</time>
      </trkpt>
      <trkpt lat="45.9903" lon="4.82551">
        <ele>235</ele>
        <time>2017-08-25T08:48:35Z</time>
      </trkpt>
      <trkpt lat="45.99035" lon="4.82554">
        <ele>235</ele>
        <time>2017-08-25T08:48:36Z</time>
      </trkpt>
      <trkpt lat="45.9904" lon="4.82557">
        <ele>235</ele>
        <time>2017-08-25T08:48:37Z</time>
      </trkpt>
      <trkpt lat="45.99046" lon="4.82561">
        <ele>235</ele>
        <time>2017-08-25T08:48:38Z</time>
      </trkpt>
      <trkpt lat="45.99051" lon="4.82563">
        <ele>235</ele>
        <time>2017-08-25T08:48:39Z</time>
      </trkpt>
      <trkpt lat="45.99056" lon="4.82566">
        <ele>235</ele>
        <time>2017-08-25T08:48:40Z</time>
      </trkpt>
      <trkpt lat="45.99061" lon="4.82568">
        <ele>235</ele>
        <time>2017-08-25T08:48:41Z</time>
      </trkpt>
      <trkpt lat="45.99067" lon="4.8257">
        <ele>235</ele>
        <time>2017-08-25T08:48:42Z</time>
      </trkpt>
      <trkpt lat="45.99072" lon="4.82572">
        <ele>235</ele>
        <time>2017-08-25T08:48:43Z</time>
      </trkpt>
      <trkpt lat="45.99075" lon="4.82575">
        <ele>235</ele>
        <time>2017-08-25T08:48:44Z</time>
      </trkpt>
      <trkpt lat="45.99078" lon="4.82586">
        <ele>235</ele>
        <time>2017-08-25T08:48:47Z</time>
      </trkpt>
      <trkpt lat="45.99076" lon="4.8259">
        <ele>235</ele>
        <time>2017-08-25T08:48:48Z</time>
      </trkpt>
      <trkpt lat="45.9907" lon="4.82598">
        <ele>235</ele>
        <time>2017-08-25T08:48:50Z</time>
      </trkpt>
      <trkpt lat="45.99067" lon="4.82602">
        <ele>236</ele>
        <time>2017-08-25T08:48:51Z</time>
      </trkpt>
      <trkpt lat="45.99063" lon="4.8261">
        <ele>236</ele>
        <time>2017-08-25T08:48:53Z</time>
      </trkpt>
      <trkpt lat="45.99061" lon="4.82614">
        <ele>236</ele>
        <time>2017-08-25T08:48:54Z</time>
      </trkpt>
      <trkpt lat="45.99056" lon="4.82625">
        <ele>236</ele>
        <time>2017-08-25T08:48:56Z</time>
      </trkpt>
      <trkpt lat="45.99053" lon="4.82629">
        <ele>236</ele>
        <time>2017-08-25T08:48:57Z</time>
      </trkpt>
      <trkpt lat="45.99049" lon="4.8264">
        <ele>236</ele>
        <time>2017-08-25T08:48:59Z</time>
      </trkpt>
      <trkpt lat="45.99046" lon="4.82644">
        <ele>236</ele>
        <time>2017-08-25T08:49:00Z</time>
      </trkpt>
      <trkpt lat="45.99043" lon="4.82653">
        <ele>236</ele>
        <time>2017-08-25T08:49:02Z</time>
      </trkpt>
      <trkpt lat="45.99041" lon="4.82657">
        <ele>236</ele>
        <time>2017-08-25T08:49:03Z</time>
      </trkpt>
      <trkpt lat="45.99037" lon="4.82665">
        <ele>237</ele>
        <time>2017-08-25T08:49:05Z</time>
      </trkpt>
      <trkpt lat="45.99035" lon="4.8267">
        <ele>238</ele>
        <time>2017-08-25T08:49:06Z</time>
      </trkpt>
      <trkpt lat="45.99032" lon="4.82678">
        <ele>238</ele>
        <time>2017-08-25T08:49:08Z</time>
      </trkpt>
      <trkpt lat="45.9903" lon="4.82682">
        <ele>238</ele>
        <time>2017-08-25T08:49:09Z</time>
      </trkpt>
      <trkpt lat="45.99027" lon="4.82691">
        <ele>238</ele>
        <time>2017-08-25T08:49:11Z</time>
      </trkpt>
      <trkpt lat="45.99025" lon="4.82695">
        <ele>238</ele>
        <time>2017-08-25T08:49:12Z</time>
      </trkpt>
      <trkpt lat="45.99021" lon="4.82705">
        <ele>238</ele>
        <time>2017-08-25T08:49:15Z</time>
      </trkpt>
      <trkpt lat="45.99019" lon="4.82707">
        <ele>238</ele>
        <time>2017-08-25T08:49:16Z</time>
      </trkpt>
      <trkpt lat="45.99017" lon="4.82715">
        <ele>239</ele>
        <time>2017-08-25T08:49:18Z</time>
      </trkpt>
      <trkpt lat="45.99015" lon="4.82719">
        <ele>239</ele>
        <time>2017-08-25T08:49:19Z</time>
      </trkpt>
      <trkpt lat="45.99011" lon="4.8273">
        <ele>239</ele>
        <time>2017-08-25T08:49:22Z</time>
      </trkpt>
      <trkpt lat="45.99009" lon="4.82734">
        <ele>239</ele>
        <time>2017-08-25T08:49:23Z</time>
      </trkpt>
      <trkpt lat="45.99003" lon="4.82743">
        <ele>240</ele>
        <time>2017-08-25T08:49:26Z</time>
      </trkpt>
      <trkpt lat="45.99001" lon="4.82747">
        <ele>241</ele>
        <time>2017-08-25T08:49:27Z</time>
      </trkpt>
      <trkpt lat="45.98998" lon="4.82758">
        <ele>243</ele>
        <time>2017-08-25T08:49:30Z</time>
      </trkpt>
      <trkpt lat="45.98996" lon="4.82762">
        <ele>244</ele>
        <time>2017-08-25T08:49:31Z</time>
      </trkpt>
      <trkpt lat="45.98992" lon="4.82772">
        <ele>246</ele>
        <time>2017-08-25T08:49:34Z</time>
      </trkpt>
      <trkpt lat="45.9899" lon="4.82776">
        <ele>246</ele>
        <time>2017-08-25T08:49:35Z</time>
      </trkpt>
      <trkpt lat="45.98985" lon="4.82785">
        <ele>247</ele>
        <time>2017-08-25T08:49:38Z</time>
      </trkpt>
      <trkpt lat="45.98984" lon="4.82788">
        <ele>247</ele>
        <time>2017-08-25T08:49:39Z</time>
      </trkpt>
      <trkpt lat="45.9898" lon="4.82797">
        <ele>248</ele>
        <time>2017-08-25T08:49:42Z</time>
      </trkpt>
      <trkpt lat="45.98978" lon="4.828">
        <ele>248</ele>
        <time>2017-08-25T08:49:43Z</time>
      </trkpt>
      <trkpt lat="45.98974" lon="4.8281">
        <ele>248</ele>
        <time>2017-08-25T08:49:46Z</time>
      </trkpt>
      <trkpt lat="45.98973" lon="4.82813">
        <ele>248</ele>
        <time>2017-08-25T08:49:47Z</time>
      </trkpt>
      <trkpt lat="45.98969" lon="4.82823">
        <ele>249</ele>
        <time>2017-08-25T08:49:50Z</time>
      </trkpt>
      <trkpt lat="45.98967" lon="4.82825">
        <ele>249</ele>
        <time>2017-08-25T08:49:51Z</time>
      </trkpt>
      <trkpt lat="45.98963" lon="4.82833">
        <ele>249</ele>
        <time>2017-08-25T08:49:54Z</time>
      </trkpt>
      <trkpt lat="45.98962" lon="4.82836">
        <ele>252</ele>
        <time>2017-08-25T08:49:55Z</time>
      </trkpt>
      <trkpt lat="45.98958" lon="4.82847">
        <ele>252</ele>
        <time>2017-08-25T08:49:59Z</time>
      </trkpt>
      <trkpt lat="45.98957" lon="4.8285">
        <ele>252</ele>
        <time>2017-08-25T08:50:00Z</time>
      </trkpt>
      <trkpt lat="45.98953" lon="4.82859">
        <ele>252</ele>
        <time>2017-08-25T08:50:03Z</time>
      </trkpt>
      <trkpt lat="45.98951" lon="4.82862">
        <ele>252</ele>
        <time>2017-08-25T08:50:04Z</time>
      </trkpt>
      <trkpt lat="45.98947" lon="4.82872">
        <ele>253</ele>
        <time>2017-08-25T08:50:08Z</time>
      </trkpt>
      <trkpt lat="45.98945" lon="4.82875">
        <ele>253</ele>
        <time>2017-08-25T08:50:09Z</time>
      </trkpt>
      <trkpt lat="45.98941" lon="4.82886">
        <ele>253</ele>
        <time>2017-08-25T08:50:13Z</time>
      </trkpt>
      <trkpt lat="45.98939" lon="4.82889">
        <ele>253</ele>
        <time>2017-08-25T08:50:14Z</time>
      </trkpt>
      <trkpt lat="45.98936" lon="4.82898">
        <ele>253</ele>
        <time>2017-08-25T08:50:17Z</time>
      </trkpt>
      <trkpt lat="45.98935" lon="4.82901">
        <ele>254</ele>
        <time>2017-08-25T08:50:18Z</time>
      </trkpt>
      <trkpt lat="45.9893" lon="4.82911">
        <ele>254</ele>
        <time>2017-08-25T08:50:22Z</time>
      </trkpt>
      <trkpt lat="45.98929" lon="4.82914">
        <ele>254</ele>
        <time>2017-08-25T08:50:23Z</time>
      </trkpt>
      <trkpt lat="45.98924" lon="4.82925">
        <ele>255</ele>
        <time>2017-08-25T08:50:27Z</time>
      </trkpt>
      <trkpt lat="45.98923" lon="4.82927">
        <ele>255</ele>
        <time>2017-08-25T08:50:28Z</time>
      </trkpt>
      <trkpt lat="45.98918" lon="4.82935">
        <ele>255</ele>
        <time>2017-08-25T08:50:31Z</time>
      </trkpt>
      <trkpt lat="45.98916" lon="4.82938">
        <ele>258</ele>
        <time>2017-08-25T08:50:32Z</time>
      </trkpt>
      <trkpt lat="45.98911" lon="4.82948">
        <ele>258</ele>
        <time>2017-08-25T08:50:36Z</time>
      </trkpt>
      <trkpt lat="45.9891" lon="4.8295">
        <ele>258</ele>
        <time>2017-08-25T08:50:37Z</time>
      </trkpt>
      <trkpt lat="45.98905" lon="4.8296">
        <ele>259</ele>
        <time>2017-08-25T08:50:41Z</time>
      </trkpt>
      <trkpt lat="45.98903" lon="4.82963">
        <ele>259</ele>
        <time>2017-08-25T08:50:42Z</time>
      </trkpt>
      <trkpt lat="45.98897" lon="4.8297">
        <ele>259</ele>
        <time>2017-08-25T08:50:45Z</time>
      </trkpt>
      <trkpt lat="45.98896" lon="4.82972">
        <ele>259</ele>
        <time>2017-08-25T08:50:46Z</time>
      </trkpt>
      <trkpt lat="45.98889" lon="4.82981">
        <ele>259</ele>
        <time>2017-08-25T08:50:50Z</time>
      </trkpt>
      <trkpt lat="45.98887" lon="4.82981">
        <ele>259</ele>
        <time>2017-08-25T08:50:51Z</time>
      </trkpt>
      <trkpt lat="45.98881" lon="4.82984">
        <ele>260</ele>
        <time>2017-08-25T08:50:54Z</time>
      </trkpt>
      <trkpt lat="45.98879" lon="4.82987">
        <ele>260</ele>
        <time>2017-08-25T08:50:55Z</time>
      </trkpt>
      <trkpt lat="45.98872" lon="4.82991">
        <ele>260</ele>
        <time>2017-08-25T08:50:58Z</time>
      </trkpt>
      <trkpt lat="45.9887" lon="4.82992">
        <ele>260</ele>
        <time>2017-08-25T08:50:59Z</time>
      </trkpt>
      <trkpt lat="45.98863" lon="4.82998">
        <ele>261</ele>
        <time>2017-08-25T08:51:02Z</time>
      </trkpt>
      <trkpt lat="45.98861" lon="4.83">
        <ele>261</ele>
        <time>2017-08-25T08:51:03Z</time>
      </trkpt>
      <trkpt lat="45.98855" lon="4.83003">
        <ele>261</ele>
        <time>2017-08-25T08:51:06Z</time>
      </trkpt>
      <trkpt lat="45.98853" lon="4.83004">
        <ele>261</ele>
        <time>2017-08-25T08:51:07Z</time>
      </trkpt>
      <trkpt lat="45.98846" lon="4.83009">
        <ele>261</ele>
        <time>2017-08-25T08:51:10Z</time>
      </trkpt>
      <trkpt lat="45.98844" lon="4.83011">
        <ele>261</ele>
        <time>2017-08-25T08:51:11Z</time>
      </trkpt>
      <trkpt lat="45.98838" lon="4.83016">
        <ele>261</ele>
        <time>2017-08-25T08:51:14Z</time>
      </trkpt>
      <trkpt lat="45.98836" lon="4.83018">
        <ele>261</ele>
        <time>2017-08-25T08:51:15Z</time>
      </trkpt>
      <trkpt lat="45.98829" lon="4.83022">
        <ele>264</ele>
        <time>2017-08-25T08:51:18Z</time>
      </trkpt>
      <trkpt lat="45.98827" lon="4.83024">
        <ele>264</ele>
        <time>2017-08-25T08:51:19Z</time>
      </trkpt>
      <trkpt lat="45.98821" lon="4.83029">
        <ele>264</ele>
        <time>2017-08-25T08:51:22Z</time>
      </trkpt>
      <trkpt lat="45.98818" lon="4.83033">
        <ele>264</ele>
        <time>2017-08-25T08:51:23Z</time>
      </trkpt>
      <trkpt lat="45.98812" lon="4.83037">
        <ele>264</ele>
        <time>2017-08-25T08:51:25Z</time>
      </trkpt>
      <trkpt lat="45.98809" lon="4.8304">
        <ele>264</ele>
        <time>2017-08-25T08:51:26Z</time>
      </trkpt>
      <trkpt lat="45.98804" lon="4.83043">
        <ele>264</ele>
        <time>2017-08-25T08:51:28Z</time>
      </trkpt>
      <trkpt lat="45.98801" lon="4.83045">
        <ele>264</ele>
        <time>2017-08-25T08:51:29Z</time>
      </trkpt>
      <trkpt lat="45.98794" lon="4.83052">
        <ele>265</ele>
        <time>2017-08-25T08:51:32Z</time>
      </trkpt>
      <trkpt lat="45.98791" lon="4.83054">
        <ele>265</ele>
        <time>2017-08-25T08:51:33Z</time>
      </trkpt>
      <trkpt lat="45.98783" lon="4.83061">
        <ele>265</ele>
        <time>2017-08-25T08:51:36Z</time>
      </trkpt>
      <trkpt lat="45.98781" lon="4.83063">
        <ele>265</ele>
        <time>2017-08-25T08:51:37Z</time>
      </trkpt>
      <trkpt lat="45.98775" lon="4.83068">
        <ele>265</ele>
        <time>2017-08-25T08:51:39Z</time>
      </trkpt>
      <trkpt lat="45.98773" lon="4.83071">
        <ele>265</ele>
        <time>2017-08-25T08:51:40Z</time>
      </trkpt>
      <trkpt lat="45.98767" lon="4.83076">
        <ele>266</ele>
        <time>2017-08-25T08:51:42Z</time>
      </trkpt>
      <trkpt lat="45.98765" lon="4.83078">
        <ele>266</ele>
        <time>2017-08-25T08:51:43Z</time>
      </trkpt>
      <trkpt lat="45.9876" lon="4.83083">
        <ele>266</ele>
        <time>2017-08-25T08:51:45Z</time>
      </trkpt>
      <trkpt lat="45.98757" lon="4.83086">
        <ele>266</ele>
        <time>2017-08-25T08:51:46Z</time>
      </trkpt>
      <trkpt lat="45.9875" lon="4.83091">
        <ele>267</ele>
        <time>2017-08-25T08:51:49Z</time>
      </trkpt>
      <trkpt lat="45.98748" lon="4.83094">
        <ele>267</ele>
        <time>2017-08-25T08:51:50Z</time>
      </trkpt>
      <trkpt lat="45.98741" lon="4.831">
        <ele>267</ele>
        <time>2017-08-25T08:51:54Z</time>
      </trkpt>
      <trkpt lat="45.98738" lon="4.83103">
        <ele>267</ele>
        <time>2017-08-25T08:51:55Z</time>
      </trkpt>
      <trkpt lat="45.98731" lon="4.83109">
        <ele>267</ele>
        <time>2017-08-25T08:51:58Z</time>
      </trkpt>
      <trkpt lat="45.98729" lon="4.83111">
        <ele>267</ele>
        <time>2017-08-25T08:51:59Z</time>
      </trkpt>
      <trkpt lat="45.98722" lon="4.83117">
        <ele>267</ele>
        <time>2017-08-25T08:52:02Z</time>
      </trkpt>
      <trkpt lat="45.98719" lon="4.8312">
        <ele>267</ele>
        <time>2017-08-25T08:52:03Z</time>
      </trkpt>
      <trkpt lat="45.98713" lon="4.83125">
        <ele>266</ele>
        <time>2017-08-25T08:52:05Z</time>
      </trkpt>
      <trkpt lat="45.98711" lon="4.83127">
        <ele>266</ele>
        <time>2017-08-25T08:52:06Z</time>
      </trkpt>
      <trkpt lat="45.98704" lon="4.83132">
        <ele>266</ele>
        <time>2017-08-25T08:52:09Z</time>
      </trkpt>
      <trkpt lat="45.98701" lon="4.83134">
        <ele>266</ele>
        <time>2017-08-25T08:52:10Z</time>
      </trkpt>
      <trkpt lat="45.98696" lon="4.83137">
        <ele>266</ele>
        <time>2017-08-25T08:52:12Z</time>
      </trkpt>
      <trkpt lat="45.98693" lon="4.83139">
        <ele>266</ele>
        <time>2017-08-25T08:52:13Z</time>
      </trkpt>
      <trkpt lat="45.98687" lon="4.83143">
        <ele>266</ele>
        <time>2017-08-25T08:52:15Z</time>
      </trkpt>
      <trkpt lat="45.98684" lon="4.83146">
        <ele>266</ele>
        <time>2017-08-25T08:52:16Z</time>
      </trkpt>
      <trkpt lat="45.98679" lon="4.83151">
        <ele>266</ele>
        <time>2017-08-25T08:52:18Z</time>
      </trkpt>
      <trkpt lat="45.98676" lon="4.83154">
        <ele>266</ele>
        <time>2017-08-25T08:52:19Z</time>
      </trkpt>
      <trkpt lat="45.98671" lon="4.83158">
        <ele>266</ele>
        <time>2017-08-25T08:52:21Z</time>
      </trkpt>
      <trkpt lat="45.98668" lon="4.83159">
        <ele>266</ele>
        <time>2017-08-25T08:52:22Z</time>
      </trkpt>
      <trkpt lat="45.9866" lon="4.83165">
        <ele>266</ele>
        <time>2017-08-25T08:52:25Z</time>
      </trkpt>
      <trkpt lat="45.98657" lon="4.83167">
        <ele>267</ele>
        <time>2017-08-25T08:52:26Z</time>
      </trkpt>
      <trkpt lat="45.9865" lon="4.83172">
        <ele>267</ele>
        <time>2017-08-25T08:52:28Z</time>
      </trkpt>
      <trkpt lat="45.98647" lon="4.83176">
        <ele>267</ele>
        <time>2017-08-25T08:52:29Z</time>
      </trkpt>
      <trkpt lat="45.9864" lon="4.83182">
        <ele>267</ele>
        <time>2017-08-25T08:52:31Z</time>
      </trkpt>
      <trkpt lat="45.98638" lon="4.83185">
        <ele>267</ele>
        <time>2017-08-25T08:52:32Z</time>
      </trkpt>
      <trkpt lat="45.98633" lon="4.83191">
        <ele>267</ele>
        <time>2017-08-25T08:52:34Z</time>
      </trkpt>
      <trkpt lat="45.9863" lon="4.83194">
        <ele>267</ele>
        <time>2017-08-25T08:52:35Z</time>
      </trkpt>
      <trkpt lat="45.98624" lon="4.83202">
        <ele>267</ele>
        <time>2017-08-25T08:52:37Z</time>
      </trkpt>
      <trkpt lat="45.98621" lon="4.83206">
        <ele>267</ele>
        <time>2017-08-25T08:52:38Z</time>
      </trkpt>
      <trkpt lat="45.98615" lon="4.83214">
        <ele>267</ele>
        <time>2017-08-25T08:52:40Z</time>
      </trkpt>
      <trkpt lat="45.98611" lon="4.83218">
        <ele>267</ele>
        <time>2017-08-25T08:52:41Z</time>
      </trkpt>
      <trkpt lat="45.98608" lon="4.83224">
        <ele>267</ele>
        <time>2017-08-25T08:52:42Z</time>
      </trkpt>
      <trkpt lat="45.98604" lon="4.83229">
        <ele>267</ele>
        <time>2017-08-25T08:52:43Z</time>
      </trkpt>
      <trkpt lat="45.98601" lon="4.83234">
        <ele>268</ele>
        <time>2017-08-25T08:52:44Z</time>
      </trkpt>
      <trkpt lat="45.98598" lon="4.83239">
        <ele>268</ele>
        <time>2017-08-25T08:52:45Z</time>
      </trkpt>
      <trkpt lat="45.98592" lon="4.83248">
        <ele>268</ele>
        <time>2017-08-25T08:52:47Z</time>
      </trkpt>
      <trkpt lat="45.98589" lon="4.83251">
        <ele>268</ele>
        <time>2017-08-25T08:52:48Z</time>
      </trkpt>
      <trkpt lat="45.98584" lon="4.83257">
        <ele>268</ele>
        <time>2017-08-25T08:52:50Z</time>
      </trkpt>
      <trkpt lat="45.98582" lon="4.83259">
        <ele>268</ele>
        <time>2017-08-25T08:52:51Z</time>
      </trkpt>
      <trkpt lat="45.98575" lon="4.83265">
        <ele>269</ele>
        <time>2017-08-25T08:52:53Z</time>
      </trkpt>
      <trkpt lat="45.98572" lon="4.83268">
        <ele>269</ele>
        <time>2017-08-25T08:52:54Z</time>
      </trkpt>
      <trkpt lat="45.98567" lon="4.83276">
        <ele>269</ele>
        <time>2017-08-25T08:52:56Z</time>
      </trkpt>
      <trkpt lat="45.98564" lon="4.83281">
        <ele>269</ele>
        <time>2017-08-25T08:52:57Z</time>
      </trkpt>
      <trkpt lat="45.98558" lon="4.83289">
        <ele>269</ele>
        <time>2017-08-25T08:52:59Z</time>
      </trkpt>
      <trkpt lat="45.98555" lon="4.83292">
        <ele>269</ele>
        <time>2017-08-25T08:53:00Z</time>
      </trkpt>
      <trkpt lat="45.98551" lon="4.83299">
        <ele>269</ele>
        <time>2017-08-25T08:53:02Z</time>
      </trkpt>
      <trkpt lat="45.98548" lon="4.83302">
        <ele>269</ele>
        <time>2017-08-25T08:53:03Z</time>
      </trkpt>
      <trkpt lat="45.98542" lon="4.8331">
        <ele>269</ele>
        <time>2017-08-25T08:53:06Z</time>
      </trkpt>
      <trkpt lat="45.98539" lon="4.83314">
        <ele>269</ele>
        <time>2017-08-25T08:53:07Z</time>
      </trkpt>
      <trkpt lat="45.98533" lon="4.83322">
        <ele>269</ele>
        <time>2017-08-25T08:53:09Z</time>
      </trkpt>
      <trkpt lat="45.9853" lon="4.83326">
        <ele>269</ele>
        <time>2017-08-25T08:53:10Z</time>
      </trkpt>
      <trkpt lat="45.98524" lon="4.83335">
        <ele>270</ele>
        <time>2017-08-25T08:53:12Z</time>
      </trkpt>
      <trkpt lat="45.98521" lon="4.83339">
        <ele>270</ele>
        <time>2017-08-25T08:53:13Z</time>
      </trkpt>
      <trkpt lat="45.98515" lon="4.83346">
        <ele>270</ele>
        <time>2017-08-25T08:53:15Z</time>
      </trkpt>
      <trkpt lat="45.98512" lon="4.8335">
        <ele>270</ele>
        <time>2017-08-25T08:53:16Z</time>
      </trkpt>
      <trkpt lat="45.98506" lon="4.83357">
        <ele>270</ele>
        <time>2017-08-25T08:53:18Z</time>
      </trkpt>
      <trkpt lat="45.98503" lon="4.83361">
        <ele>269</ele>
        <time>2017-08-25T08:53:19Z</time>
      </trkpt>
      <trkpt lat="45.985" lon="4.83365">
        <ele>270</ele>
        <time>2017-08-25T08:53:20Z</time>
      </trkpt>
      <trkpt lat="45.98497" lon="4.8337">
        <ele>270</ele>
        <time>2017-08-25T08:53:21Z</time>
      </trkpt>
      <trkpt lat="45.98493" lon="4.83376">
        <ele>269</ele>
        <time>2017-08-25T08:53:22Z</time>
      </trkpt>
      <trkpt lat="45.98489" lon="4.8338">
        <ele>269</ele>
        <time>2017-08-25T08:53:23Z</time>
      </trkpt>
      <trkpt lat="45.98485" lon="4.83385">
        <ele>269</ele>
        <time>2017-08-25T08:53:24Z</time>
      </trkpt>
      <trkpt lat="45.98481" lon="4.8339">
        <ele>269</ele>
        <time>2017-08-25T08:53:25Z</time>
      </trkpt>
      <trkpt lat="45.98477" lon="4.83395">
        <ele>269</ele>
        <time>2017-08-25T08:53:26Z</time>
      </trkpt>
      <trkpt lat="45.98473" lon="4.834">
        <ele>269</ele>
        <time>2017-08-25T08:53:27Z</time>
      </trkpt>
      <trkpt lat="45.9847" lon="4.83404">
        <ele>269</ele>
        <time>2017-08-25T08:53:28Z</time>
      </trkpt>
      <trkpt lat="45.98466" lon="4.83408">
        <ele>269</ele>
        <time>2017-08-25T08:53:29Z</time>
      </trkpt>
      <trkpt lat="45.98463" lon="4.83413">
        <ele>269</ele>
        <time>2017-08-25T08:53:30Z</time>
      </trkpt>
      <trkpt lat="45.98459" lon="4.83417">
        <ele>269</ele>
        <time>2017-08-25T08:53:31Z</time>
      </trkpt>
      <trkpt lat="45.98453" lon="4.83425">
        <ele>269</ele>
        <time>2017-08-25T08:53:33Z</time>
      </trkpt>
      <trkpt lat="45.9845" lon="4.83429">
        <ele>269</ele>
        <time>2017-08-25T08:53:34Z</time>
      </trkpt>
      <trkpt lat="45.98445" lon="4.83436">
        <ele>268</ele>
        <time>2017-08-25T08:53:36Z</time>
      </trkpt>
      <trkpt lat="45.98442" lon="4.8344">
        <ele>268</ele>
        <time>2017-08-25T08:53:37Z</time>
      </trkpt>
      <trkpt lat="45.98437" lon="4.83447">
        <ele>268</ele>
        <time>2017-08-25T08:53:39Z</time>
      </trkpt>
      <trkpt lat="45.98434" lon="4.83451">
        <ele>268</ele>
        <time>2017-08-25T08:53:40Z</time>
      </trkpt>
      <trkpt lat="45.98431" lon="4.83456">
        <ele>268</ele>
        <time>2017-08-25T08:53:41Z</time>
      </trkpt>
      <trkpt lat="45.98427" lon="4.83461">
        <ele>268</ele>
        <time>2017-08-25T08:53:42Z</time>
      </trkpt>
      <trkpt lat="45.98423" lon="4.83466">
        <ele>268</ele>
        <time>2017-08-25T08:53:43Z</time>
      </trkpt>
      <trkpt lat="45.98419" lon="4.83471">
        <ele>268</ele>
        <time>2017-08-25T08:53:44Z</time>
      </trkpt>
      <trkpt lat="45.98416" lon="4.83476">
        <ele>269</ele>
        <time>2017-08-25T08:53:45Z</time>
      </trkpt>
      <trkpt lat="45.98413" lon="4.83481">
        <ele>269</ele>
        <time>2017-08-25T08:53:46Z</time>
      </trkpt>
      <trkpt lat="45.98406" lon="4.83489">
        <ele>269</ele>
        <time>2017-08-25T08:53:48Z</time>
      </trkpt>
      <trkpt lat="45.98403" lon="4.83493">
        <ele>269</ele>
        <time>2017-08-25T08:53:49Z</time>
      </trkpt>
      <trkpt lat="45.98398" lon="4.83502">
        <ele>269</ele>
        <time>2017-08-25T08:53:51Z</time>
      </trkpt>
      <trkpt lat="45.98394" lon="4.83506">
        <ele>269</ele>
        <time>2017-08-25T08:53:52Z</time>
      </trkpt>
      <trkpt lat="45.98391" lon="4.83511">
        <ele>269</ele>
        <time>2017-08-25T08:53:53Z</time>
      </trkpt>
      <trkpt lat="45.98387" lon="4.83515">
        <ele>269</ele>
        <time>2017-08-25T08:53:54Z</time>
      </trkpt>
      <trkpt lat="45.98383" lon="4.8352">
        <ele>269</ele>
        <time>2017-08-25T08:53:55Z</time>
      </trkpt>
      <trkpt lat="45.9838" lon="4.83525">
        <ele>269</ele>
        <time>2017-08-25T08:53:56Z</time>
      </trkpt>
      <trkpt lat="45.98376" lon="4.83531">
        <ele>269</ele>
        <time>2017-08-25T08:53:57Z</time>
      </trkpt>
      <trkpt lat="45.98372" lon="4.83536">
        <ele>269</ele>
        <time>2017-08-25T08:53:58Z</time>
      </trkpt>
      <trkpt lat="45.98365" lon="4.83544">
        <ele>269</ele>
        <time>2017-08-25T08:54:00Z</time>
      </trkpt>
      <trkpt lat="45.98362" lon="4.83548">
        <ele>269</ele>
        <time>2017-08-25T08:54:01Z</time>
      </trkpt>
      <trkpt lat="45.98357" lon="4.83555">
        <ele>269</ele>
        <time>2017-08-25T08:54:03Z</time>
      </trkpt>
      <trkpt lat="45.98355" lon="4.83558">
        <ele>269</ele>
        <time>2017-08-25T08:54:04Z</time>
      </trkpt>
      <trkpt lat="45.9835" lon="4.83565">
        <ele>269</ele>
        <time>2017-08-25T08:54:06Z</time>
      </trkpt>
      <trkpt lat="45.98347" lon="4.83569">
        <ele>269</ele>
        <time>2017-08-25T08:54:07Z</time>
      </trkpt>
      <trkpt lat="45.98343" lon="4.83573">
        <ele>270</ele>
        <time>2017-08-25T08:54:08Z</time>
      </trkpt>
      <trkpt lat="45.9834" lon="4.83578">
        <ele>270</ele>
        <time>2017-08-25T08:54:09Z</time>
      </trkpt>
      <trkpt lat="45.98336" lon="4.83583">
        <ele>270</ele>
        <time>2017-08-25T08:54:10Z</time>
      </trkpt>
      <trkpt lat="45.98332" lon="4.83588">
        <ele>270</ele>
        <time>2017-08-25T08:54:11Z</time>
      </trkpt>
      <trkpt lat="45.98329" lon="4.83593">
        <ele>270</ele>
        <time>2017-08-25T08:54:12Z</time>
      </trkpt>
      <trkpt lat="45.98326" lon="4.83598">
        <ele>271</ele>
        <time>2017-08-25T08:54:13Z</time>
      </trkpt>
      <trkpt lat="45.9832" lon="4.83607">
        <ele>271</ele>
        <time>2017-08-25T08:54:15Z</time>
      </trkpt>
      <trkpt lat="45.98317" lon="4.83611">
        <ele>271</ele>
        <time>2017-08-25T08:54:16Z</time>
      </trkpt>
      <trkpt lat="45.98312" lon="4.83618">
        <ele>271</ele>
        <time>2017-08-25T08:54:18Z</time>
      </trkpt>
      <trkpt lat="45.9831" lon="4.83622">
        <ele>271</ele>
        <time>2017-08-25T08:54:19Z</time>
      </trkpt>
      <trkpt lat="45.98306" lon="4.83632">
        <ele>271</ele>
        <time>2017-08-25T08:54:21Z</time>
      </trkpt>
      <trkpt lat="45.98303" lon="4.83638">
        <ele>271</ele>
        <time>2017-08-25T08:54:22Z</time>
      </trkpt>
      <trkpt lat="45.98301" lon="4.83644">
        <ele>271</ele>
        <time>2017-08-25T08:54:23Z</time>
      </trkpt>
      <trkpt lat="45.98298" lon="4.8365">
        <ele>271</ele>
        <time>2017-08-25T08:54:24Z</time>
      </trkpt>
      <trkpt lat="45.98296" lon="4.83656">
        <ele>271</ele>
        <time>2017-08-25T08:54:25Z</time>
      </trkpt>
      <trkpt lat="45.98294" lon="4.83661">
        <ele>271</ele>
        <time>2017-08-25T08:54:26Z</time>
      </trkpt>
      <trkpt lat="45.98288" lon="4.83672">
        <ele>272</ele>
        <time>2017-08-25T08:54:28Z</time>
      </trkpt>
      <trkpt lat="45.98287" lon="4.83676">
        <ele>272</ele>
        <time>2017-08-25T08:54:29Z</time>
      </trkpt>
      <trkpt lat="45.98282" lon="4.83686">
        <ele>272</ele>
        <time>2017-08-25T08:54:31Z</time>
      </trkpt>
      <trkpt lat="45.9828" lon="4.8369">
        <ele>272</ele>
        <time>2017-08-25T08:54:32Z</time>
      </trkpt>
      <trkpt lat="45.98277" lon="4.837">
        <ele>272</ele>
        <time>2017-08-25T08:54:34Z</time>
      </trkpt>
      <trkpt lat="45.98275" lon="4.83705">
        <ele>272</ele>
        <time>2017-08-25T08:54:35Z</time>
      </trkpt>
      <trkpt lat="45.98273" lon="4.83711">
        <ele>272</ele>
        <time>2017-08-25T08:54:36Z</time>
      </trkpt>
      <trkpt lat="45.98271" lon="4.83717">
        <ele>272</ele>
        <time>2017-08-25T08:54:37Z</time>
      </trkpt>
      <trkpt lat="45.98268" lon="4.83724">
        <ele>272</ele>
        <time>2017-08-25T08:54:38Z</time>
      </trkpt>
      <trkpt lat="45.98265" lon="4.83731">
        <ele>272</ele>
        <time>2017-08-25T08:54:39Z</time>
      </trkpt>
      <trkpt lat="45.98263" lon="4.83737">
        <ele>272</ele>
        <time>2017-08-25T08:54:40Z</time>
      </trkpt>
      <trkpt lat="45.98261" lon="4.83743">
        <ele>272</ele>
        <time>2017-08-25T08:54:41Z</time>
      </trkpt>
      <trkpt lat="45.98257" lon="4.83755">
        <ele>272</ele>
        <time>2017-08-25T08:54:43Z</time>
      </trkpt>
      <trkpt lat="45.98255" lon="4.8376">
        <ele>272</ele>
        <time>2017-08-25T08:54:44Z</time>
      </trkpt>
      <trkpt lat="45.98252" lon="4.8377">
        <ele>272</ele>
        <time>2017-08-25T08:54:46Z</time>
      </trkpt>
      <trkpt lat="45.9825" lon="4.83775">
        <ele>272</ele>
        <time>2017-08-25T08:54:47Z</time>
      </trkpt>
      <trkpt lat="45.98246" lon="4.83785">
        <ele>272</ele>
        <time>2017-08-25T08:54:49Z</time>
      </trkpt>
      <trkpt lat="45.98244" lon="4.83792">
        <ele>272</ele>
        <time>2017-08-25T08:54:50Z</time>
      </trkpt>
      <trkpt lat="45.98241" lon="4.83798">
        <ele>272</ele>
        <time>2017-08-25T08:54:51Z</time>
      </trkpt>
      <trkpt lat="45.98239" lon="4.83804">
        <ele>272</ele>
        <time>2017-08-25T08:54:52Z</time>
      </trkpt>
      <trkpt lat="45.98236" lon="4.83814">
        <ele>272</ele>
        <time>2017-08-25T08:54:54Z</time>
      </trkpt>
      <trkpt lat="45.98234" lon="4.83819">
        <ele>272</ele>
        <time>2017-08-25T08:54:55Z</time>
      </trkpt>
      <trkpt lat="45.98231" lon="4.83829">
        <ele>272</ele>
        <time>2017-08-25T08:54:57Z</time>
      </trkpt>
      <trkpt lat="45.9823" lon="4.83834">
        <ele>272</ele>
        <time>2017-08-25T08:54:58Z</time>
      </trkpt>
      <trkpt lat="45.98228" lon="4.83844">
        <ele>272</ele>
        <time>2017-08-25T08:55:00Z</time>
      </trkpt>
      <trkpt lat="45.98226" lon="4.8385">
        <ele>272</ele>
        <time>2017-08-25T08:55:01Z</time>
      </trkpt>
      <trkpt lat="45.98224" lon="4.83856">
        <ele>272</ele>
        <time>2017-08-25T08:55:02Z</time>
      </trkpt>
      <trkpt lat="45.98222" lon="4.83862">
        <ele>272</ele>
        <time>2017-08-25T08:55:03Z</time>
      </trkpt>
      <trkpt lat="45.9822" lon="4.83869">
        <ele>272</ele>
        <time>2017-08-25T08:55:04Z</time>
      </trkpt>
      <trkpt lat="45.98218" lon="4.83876">
        <ele>272</ele>
        <time>2017-08-25T08:55:05Z</time>
      </trkpt>
      <trkpt lat="45.98215" lon="4.83883">
        <ele>272</ele>
        <time>2017-08-25T08:55:06Z</time>
      </trkpt>
      <trkpt lat="45.98213" lon="4.83889">
        <ele>273</ele>
        <time>2017-08-25T08:55:07Z</time>
      </trkpt>
      <trkpt lat="45.98211" lon="4.83895">
        <ele>273</ele>
        <time>2017-08-25T08:55:08Z</time>
      </trkpt>
      <trkpt lat="45.98209" lon="4.83901">
        <ele>273</ele>
        <time>2017-08-25T08:55:09Z</time>
      </trkpt>
      <trkpt lat="45.98205" lon="4.83912">
        <ele>273</ele>
        <time>2017-08-25T08:55:11Z</time>
      </trkpt>
      <trkpt lat="45.98203" lon="4.83917">
        <ele>273</ele>
        <time>2017-08-25T08:55:12Z</time>
      </trkpt>
      <trkpt lat="45.982" lon="4.83927">
        <ele>273</ele>
        <time>2017-08-25T08:55:14Z</time>
      </trkpt>
      <trkpt lat="45.98198" lon="4.83933">
        <ele>273</ele>
        <time>2017-08-25T08:55:15Z</time>
      </trkpt>
      <trkpt lat="45.98195" lon="4.83939">
        <ele>273</ele>
        <time>2017-08-25T08:55:16Z</time>
      </trkpt>
      <trkpt lat="45.98193" lon="4.83945">
        <ele>273</ele>
        <time>2017-08-25T08:55:17Z</time>
      </trkpt>
      <trkpt lat="45.9819" lon="4.8395">
        <ele>273</ele>
        <time>2017-08-25T08:55:18Z</time>
      </trkpt>
      <trkpt lat="45.98188" lon="4.83956">
        <ele>273</ele>
        <time>2017-08-25T08:55:19Z</time>
      </trkpt>
      <trkpt lat="45.98184" lon="4.83966">
        <ele>273</ele>
        <time>2017-08-25T08:55:21Z</time>
      </trkpt>
      <trkpt lat="45.98182" lon="4.83971">
        <ele>273</ele>
        <time>2017-08-25T08:55:22Z</time>
      </trkpt>
      <trkpt lat="45.98178" lon="4.8398">
        <ele>273</ele>
        <time>2017-08-25T08:55:24Z</time>
      </trkpt>
      <trkpt lat="45.98176" lon="4.83985">
        <ele>273</ele>
        <time>2017-08-25T08:55:25Z</time>
      </trkpt>
      <trkpt lat="45.98174" lon="4.83991">
        <ele>273</ele>
        <time>2017-08-25T08:55:26Z</time>
      </trkpt>
      <trkpt lat="45.98171" lon="4.83997">
        <ele>273</ele>
        <time>2017-08-25T08:55:27Z</time>
      </trkpt>
      <trkpt lat="45.98168" lon="4.84004">
        <ele>273</ele>
        <time>2017-08-25T08:55:28Z</time>
      </trkpt>
      <trkpt lat="45.98165" lon="4.84009">
        <ele>273</ele>
        <time>2017-08-25T08:55:29Z</time>
      </trkpt>
      <trkpt lat="45.98162" lon="4.84015">
        <ele>273</ele>
        <time>2017-08-25T08:55:30Z</time>
      </trkpt>
      <trkpt lat="45.9816" lon="4.8402">
        <ele>273</ele>
        <time>2017-08-25T08:55:31Z</time>
      </trkpt>
      <trkpt lat="45.98155" lon="4.84028">
        <ele>273</ele>
        <time>2017-08-25T08:55:33Z</time>
      </trkpt>
      <trkpt lat="45.98153" lon="4.84033">
        <ele>273</ele>
        <time>2017-08-25T08:55:34Z</time>
      </trkpt>
      <trkpt lat="45.98147" lon="4.84042">
        <ele>273</ele>
        <time>2017-08-25T08:55:36Z</time>
      </trkpt>
      <trkpt lat="45.98144" lon="4.84047">
        <ele>273</ele>
        <time>2017-08-25T08:55:37Z</time>
      </trkpt>
      <trkpt lat="45.9814" lon="4.84052">
        <ele>273</ele>
        <time>2017-08-25T08:55:38Z</time>
      </trkpt>
      <trkpt lat="45.98136" lon="4.84057">
        <ele>273</ele>
        <time>2017-08-25T08:55:39Z</time>
      </trkpt>
      <trkpt lat="45.98132" lon="4.84062">
        <ele>273</ele>
        <time>2017-08-25T08:55:40Z</time>
      </trkpt>
      <trkpt lat="45.98129" lon="4.84067">
        <ele>273</ele>
        <time>2017-08-25T08:55:41Z</time>
      </trkpt>
      <trkpt lat="45.98125" lon="4.84071">
        <ele>273</ele>
        <time>2017-08-25T08:55:42Z</time>
      </trkpt>
      <trkpt lat="45.98121" lon="4.84076">
        <ele>273</ele>
        <time>2017-08-25T08:55:43Z</time>
      </trkpt>
      <trkpt lat="45.98114" lon="4.84083">
        <ele>273</ele>
        <time>2017-08-25T08:55:45Z</time>
      </trkpt>
      <trkpt lat="45.98111" lon="4.84087">
        <ele>273</ele>
        <time>2017-08-25T08:55:46Z</time>
      </trkpt>
      <trkpt lat="45.98105" lon="4.84094">
        <ele>273</ele>
        <time>2017-08-25T08:55:48Z</time>
      </trkpt>
      <trkpt lat="45.98102" lon="4.84096">
        <ele>273</ele>
        <time>2017-08-25T08:55:49Z</time>
      </trkpt>
      <trkpt lat="45.98096" lon="4.84103">
        <ele>273</ele>
        <time>2017-08-25T08:55:51Z</time>
      </trkpt>
      <trkpt lat="45.98093" lon="4.84106">
        <ele>273</ele>
        <time>2017-08-25T08:55:52Z</time>
      </trkpt>
      <trkpt lat="45.98089" lon="4.8411">
        <ele>273</ele>
        <time>2017-08-25T08:55:53Z</time>
      </trkpt>
      <trkpt lat="45.98085" lon="4.84113">
        <ele>273</ele>
        <time>2017-08-25T08:55:54Z</time>
      </trkpt>
      <trkpt lat="45.98081" lon="4.84117">
        <ele>273</ele>
        <time>2017-08-25T08:55:55Z</time>
      </trkpt>
      <trkpt lat="45.98077" lon="4.84121">
        <ele>273</ele>
        <time>2017-08-25T08:55:56Z</time>
      </trkpt>
      <trkpt lat="45.98071" lon="4.84128">
        <ele>273</ele>
        <time>2017-08-25T08:55:58Z</time>
      </trkpt>
      <trkpt lat="45.98067" lon="4.8413">
        <ele>273</ele>
        <time>2017-08-25T08:55:59Z</time>
      </trkpt>
      <trkpt lat="45.98061" lon="4.84135">
        <ele>273</ele>
        <time>2017-08-25T08:56:01Z</time>
      </trkpt>
      <trkpt lat="45.98058" lon="4.84138">
        <ele>273</ele>
        <time>2017-08-25T08:56:02Z</time>
      </trkpt>
      <trkpt lat="45.98052" lon="4.84144">
        <ele>273</ele>
        <time>2017-08-25T08:56:04Z</time>
      </trkpt>
      <trkpt lat="45.98047" lon="4.84148">
        <ele>273</ele>
        <time>2017-08-25T08:56:05Z</time>
      </trkpt>
      <trkpt lat="45.98044" lon="4.84153">
        <ele>273</ele>
        <time>2017-08-25T08:56:06Z</time>
      </trkpt>
      <trkpt lat="45.9804" lon="4.84157">
        <ele>273</ele>
        <time>2017-08-25T08:56:07Z</time>
      </trkpt>
      <trkpt lat="45.98036" lon="4.84161">
        <ele>273</ele>
        <time>2017-08-25T08:56:08Z</time>
      </trkpt>
      <trkpt lat="45.98032" lon="4.84164">
        <ele>273</ele>
        <time>2017-08-25T08:56:09Z</time>
      </trkpt>
      <trkpt lat="45.98026" lon="4.84171">
        <ele>274</ele>
        <time>2017-08-25T08:56:11Z</time>
      </trkpt>
      <trkpt lat="45.98023" lon="4.84174">
        <ele>274</ele>
        <time>2017-08-25T08:56:12Z</time>
      </trkpt>
      <trkpt lat="45.98016" lon="4.8418">
        <ele>274</ele>
        <time>2017-08-25T08:56:14Z</time>
      </trkpt>
      <trkpt lat="45.98012" lon="4.84184">
        <ele>274</ele>
        <time>2017-08-25T08:56:15Z</time>
      </trkpt>
      <trkpt lat="45.98008" lon="4.84187">
        <ele>274</ele>
        <time>2017-08-25T08:56:16Z</time>
      </trkpt>
      <trkpt lat="45.98004" lon="4.84191">
        <ele>274</ele>
        <time>2017-08-25T08:56:17Z</time>
      </trkpt>
      <trkpt lat="45.97997" lon="4.84198">
        <ele>274</ele>
        <time>2017-08-25T08:56:19Z</time>
      </trkpt>
      <trkpt lat="45.97994" lon="4.84202">
        <ele>274</ele>
        <time>2017-08-25T08:56:20Z</time>
      </trkpt>
      <trkpt lat="45.97988" lon="4.84207">
        <ele>274</ele>
        <time>2017-08-25T08:56:22Z</time>
      </trkpt>
      <trkpt lat="45.97985" lon="4.8421">
        <ele>274</ele>
        <time>2017-08-25T08:56:23Z</time>
      </trkpt>
      <trkpt lat="45.97978" lon="4.84216">
        <ele>274</ele>
        <time>2017-08-25T08:56:25Z</time>
      </trkpt>
      <trkpt lat="45.97975" lon="4.84219">
        <ele>274</ele>
        <time>2017-08-25T08:56:26Z</time>
      </trkpt>
      <trkpt lat="45.97967" lon="4.84225">
        <ele>274</ele>
        <time>2017-08-25T08:56:28Z</time>
      </trkpt>
      <trkpt lat="45.97963" lon="4.84228">
        <ele>274</ele>
        <time>2017-08-25T08:56:29Z</time>
      </trkpt>
      <trkpt lat="45.9796" lon="4.84233">
        <ele>274</ele>
        <time>2017-08-25T08:56:30Z</time>
      </trkpt>
      <trkpt lat="45.97956" lon="4.84237">
        <ele>275</ele>
        <time>2017-08-25T08:56:31Z</time>
      </trkpt>
      <trkpt lat="45.97948" lon="4.84244">
        <ele>275</ele>
        <time>2017-08-25T08:56:33Z</time>
      </trkpt>
      <trkpt lat="45.97945" lon="4.84248">
        <ele>275</ele>
        <time>2017-08-25T08:56:34Z</time>
      </trkpt>
      <trkpt lat="45.97939" lon="4.84254">
        <ele>275</ele>
        <time>2017-08-25T08:56:36Z</time>
      </trkpt>
      <trkpt lat="45.97936" lon="4.84256">
        <ele>275</ele>
        <time>2017-08-25T08:56:37Z</time>
      </trkpt>
      <trkpt lat="45.9793" lon="4.84264">
        <ele>275</ele>
        <time>2017-08-25T08:56:39Z</time>
      </trkpt>
      <trkpt lat="45.97927" lon="4.84268">
        <ele>275</ele>
        <time>2017-08-25T08:56:40Z</time>
      </trkpt>
      <trkpt lat="45.97925" lon="4.84274">
        <ele>275</ele>
        <time>2017-08-25T08:56:41Z</time>
      </trkpt>
      <trkpt lat="45.97923" lon="4.84281">
        <ele>275</ele>
        <time>2017-08-25T08:56:42Z</time>
      </trkpt>
      <trkpt lat="45.97922" lon="4.84288">
        <ele>275</ele>
        <time>2017-08-25T08:56:43Z</time>
      </trkpt>
      <trkpt lat="45.97922" lon="4.84295">
        <ele>275</ele>
        <time>2017-08-25T08:56:44Z</time>
      </trkpt>
      <trkpt lat="45.97924" lon="4.84307">
        <ele>275</ele>
        <time>2017-08-25T08:56:46Z</time>
      </trkpt>
      <trkpt lat="45.97926" lon="4.84313">
        <ele>275</ele>
        <time>2017-08-25T08:56:47Z</time>
      </trkpt>
      <trkpt lat="45.97928" lon="4.84323">
        <ele>275</ele>
        <time>2017-08-25T08:56:49Z</time>
      </trkpt>
      <trkpt lat="45.97929" lon="4.84328">
        <ele>275</ele>
        <time>2017-08-25T08:56:50Z</time>
      </trkpt>
      <trkpt lat="45.9793" lon="4.84339">
        <ele>275</ele>
        <time>2017-08-25T08:56:52Z</time>
      </trkpt>
      <trkpt lat="45.97931" lon="4.84345">
        <ele>275</ele>
        <time>2017-08-25T08:56:53Z</time>
      </trkpt>
      <trkpt lat="45.97934" lon="4.84357">
        <ele>275</ele>
        <time>2017-08-25T08:56:55Z</time>
      </trkpt>
      <trkpt lat="45.97935" lon="4.84362">
        <ele>275</ele>
        <time>2017-08-25T08:56:56Z</time>
      </trkpt>
      <trkpt lat="45.97936" lon="4.84374">
        <ele>275</ele>
        <time>2017-08-25T08:56:58Z</time>
      </trkpt>
      <trkpt lat="45.97937" lon="4.84379">
        <ele>275</ele>
        <time>2017-08-25T08:56:59Z</time>
      </trkpt>
      <trkpt lat="45.9794" lon="4.84389">
        <ele>275</ele>
        <time>2017-08-25T08:57:01Z</time>
      </trkpt>
      <trkpt lat="45.97941" lon="4.84395">
        <ele>275</ele>
        <time>2017-08-25T08:57:02Z</time>
      </trkpt>
      <trkpt lat="45.97942" lon="4.84407">
        <ele>275</ele>
        <time>2017-08-25T08:57:04Z</time>
      </trkpt>
      <trkpt lat="45.97943" lon="4.84413">
        <ele>275</ele>
        <time>2017-08-25T08:57:05Z</time>
      </trkpt>
      <trkpt lat="45.97944" lon="4.8442">
        <ele>275</ele>
        <time>2017-08-25T08:57:06Z</time>
      </trkpt>
      <trkpt lat="45.97946" lon="4.84427">
        <ele>275</ele>
        <time>2017-08-25T08:57:07Z</time>
      </trkpt>
      <trkpt lat="45.97947" lon="4.84433">
        <ele>275</ele>
        <time>2017-08-25T08:57:08Z</time>
      </trkpt>
      <trkpt lat="45.97948" lon="4.8444">
        <ele>275</ele>
        <time>2017-08-25T08:57:09Z</time>
      </trkpt>
      <trkpt lat="45.9795" lon="4.84452">
        <ele>275</ele>
        <time>2017-08-25T08:57:11Z</time>
      </trkpt>
      <trkpt lat="45.9795" lon="4.84458">
        <ele>275</ele>
        <time>2017-08-25T08:57:12Z</time>
      </trkpt>
      <trkpt lat="45.97952" lon="4.84469">
        <ele>275</ele>
        <time>2017-08-25T08:57:14Z</time>
      </trkpt>
      <trkpt lat="45.97953" lon="4.84475">
        <ele>275</ele>
        <time>2017-08-25T08:57:15Z</time>
      </trkpt>
      <trkpt lat="45.97954" lon="4.84482">
        <ele>275</ele>
        <time>2017-08-25T08:57:16Z</time>
      </trkpt>
      <trkpt lat="45.97955" lon="4.84489">
        <ele>275</ele>
        <time>2017-08-25T08:57:17Z</time>
      </trkpt>
      <trkpt lat="45.97956" lon="4.84496">
        <ele>275</ele>
        <time>2017-08-25T08:57:18Z</time>
      </trkpt>
      <trkpt lat="45.97958" lon="4.84504">
        <ele>275</ele>
        <time>2017-08-25T08:57:19Z</time>
      </trkpt>
      <trkpt lat="45.97959" lon="4.84512">
        <ele>275</ele>
        <time>2017-08-25T08:57:20Z</time>
      </trkpt>
      <trkpt lat="45.9796" lon="4.84519">
        <ele>275</ele>
        <time>2017-08-25T08:57:21Z</time>
      </trkpt>
      <trkpt lat="45.97962" lon="4.84526">
        <ele>275</ele>
        <time>2017-08-25T08:57:22Z</time>
      </trkpt>
      <trkpt lat="45.97963" lon="4.84533">
        <ele>275</ele>
        <time>2017-08-25T08:57:23Z</time>
      </trkpt>
      <trkpt lat="45.97964" lon="4.8454">
        <ele>275</ele>
        <time>2017-08-25T08:57:24Z</time>
      </trkpt>
      <trkpt lat="45.97965" lon="4.84546">
        <ele>275</ele>
        <time>2017-08-25T08:57:25Z</time>
      </trkpt>
      <trkpt lat="45.97966" lon="4.84553">
        <ele>275</ele>
        <time>2017-08-25T08:57:26Z</time>
      </trkpt>
      <trkpt lat="45.97967" lon="4.84559">
        <ele>275</ele>
        <time>2017-08-25T08:57:27Z</time>
      </trkpt>
      <trkpt lat="45.97968" lon="4.84566">
        <ele>275</ele>
        <time>2017-08-25T08:57:28Z</time>
      </trkpt>
      <trkpt lat="45.97969" lon="4.84574">
        <ele>275</ele>
        <time>2017-08-25T08:57:29Z</time>
      </trkpt>
      <trkpt lat="45.9797" lon="4.84581">
        <ele>275</ele>
        <time>2017-08-25T08:57:30Z</time>
      </trkpt>
      <trkpt lat="45.97971" lon="4.84587">
        <ele>275</ele>
        <time>2017-08-25T08:57:31Z</time>
      </trkpt>
      <trkpt lat="45.97972" lon="4.84594">
        <ele>275</ele>
        <time>2017-08-25T08:57:32Z</time>
      </trkpt>
      <trkpt lat="45.97973" lon="4.84601">
        <ele>275</ele>
        <time>2017-08-25T08:57:33Z</time>
      </trkpt>
      <trkpt lat="45.97975" lon="4.84613">
        <ele>275</ele>
        <time>2017-08-25T08:57:35Z</time>
      </trkpt>
      <trkpt lat="45.97976" lon="4.84619">
        <ele>275</ele>
        <time>2017-08-25T08:57:36Z</time>
      </trkpt>
      <trkpt lat="45.97977" lon="4.84631">
        <ele>275</ele>
        <time>2017-08-25T08:57:38Z</time>
      </trkpt>
      <trkpt lat="45.97978" lon="4.84637">
        <ele>275</ele>
        <time>2017-08-25T08:57:39Z</time>
      </trkpt>
      <trkpt lat="45.97979" lon="4.84648">
        <ele>275</ele>
        <time>2017-08-25T08:57:41Z</time>
      </trkpt>
      <trkpt lat="45.9798" lon="4.84653">
        <ele>275</ele>
        <time>2017-08-25T08:57:42Z</time>
      </trkpt>
      <trkpt lat="45.97981" lon="4.84663">
        <ele>274</ele>
        <time>2017-08-25T08:57:44Z</time>
      </trkpt>
      <trkpt lat="45.97982" lon="4.84669">
        <ele>275</ele>
        <time>2017-08-25T08:57:45Z</time>
      </trkpt>
      <trkpt lat="45.97984" lon="4.84682">
        <ele>275</ele>
        <time>2017-08-25T08:57:47Z</time>
      </trkpt>
      <trkpt lat="45.97985" lon="4.84688">
        <ele>275</ele>
        <time>2017-08-25T08:57:48Z</time>
      </trkpt>
      <trkpt lat="45.97986" lon="4.847">
        <ele>275</ele>
        <time>2017-08-25T08:57:50Z</time>
      </trkpt>
      <trkpt lat="45.97987" lon="4.84705">
        <ele>275</ele>
        <time>2017-08-25T08:57:51Z</time>
      </trkpt>
      <trkpt lat="45.97988" lon="4.84715">
        <ele>275</ele>
        <time>2017-08-25T08:57:53Z</time>
      </trkpt>
      <trkpt lat="45.97988" lon="4.8472">
        <ele>275</ele>
        <time>2017-08-25T08:57:54Z</time>
      </trkpt>
      <trkpt lat="45.97988" lon="4.84731">
        <ele>275</ele>
        <time>2017-08-25T08:57:56Z</time>
      </trkpt>
      <trkpt lat="45.97989" lon="4.84738">
        <ele>275</ele>
        <time>2017-08-25T08:57:57Z</time>
      </trkpt>
      <trkpt lat="45.97989" lon="4.84744">
        <ele>275</ele>
        <time>2017-08-25T08:57:58Z</time>
      </trkpt>
      <trkpt lat="45.9799" lon="4.84751">
        <ele>275</ele>
        <time>2017-08-25T08:57:59Z</time>
      </trkpt>
      <trkpt lat="45.97991" lon="4.84759">
        <ele>275</ele>
        <time>2017-08-25T08:58:00Z</time>
      </trkpt>
      <trkpt lat="45.97991" lon="4.84766">
        <ele>275</ele>
        <time>2017-08-25T08:58:01Z</time>
      </trkpt>
      <trkpt lat="45.97992" lon="4.84773">
        <ele>274</ele>
        <time>2017-08-25T08:58:02Z</time>
      </trkpt>
      <trkpt lat="45.97992" lon="4.84779">
        <ele>274</ele>
        <time>2017-08-25T08:58:03Z</time>
      </trkpt>
      <trkpt lat="45.97993" lon="4.84786">
        <ele>274</ele>
        <time>2017-08-25T08:58:04Z</time>
      </trkpt>
      <trkpt lat="45.97994" lon="4.84792">
        <ele>274</ele>
        <time>2017-08-25T08:58:05Z</time>
      </trkpt>
      <trkpt lat="45.97995" lon="4.84803">
        <ele>274</ele>
        <time>2017-08-25T08:58:07Z</time>
      </trkpt>
      <trkpt lat="45.97995" lon="4.84809">
        <ele>273</ele>
        <time>2017-08-25T08:58:08Z</time>
      </trkpt>
      <trkpt lat="45.97995" lon="4.84819">
        <ele>273</ele>
        <time>2017-08-25T08:58:10Z</time>
      </trkpt>
      <trkpt lat="45.97996" lon="4.84826">
        <ele>273</ele>
        <time>2017-08-25T08:58:11Z</time>
      </trkpt>
      <trkpt lat="45.97996" lon="4.84833">
        <ele>272</ele>
        <time>2017-08-25T08:58:12Z</time>
      </trkpt>
      <trkpt lat="45.97997" lon="4.84839">
        <ele>272</ele>
        <time>2017-08-25T08:58:13Z</time>
      </trkpt>
      <trkpt lat="45.97997" lon="4.84846">
        <ele>272</ele>
        <time>2017-08-25T08:58:14Z</time>
      </trkpt>
      <trkpt lat="45.97998" lon="4.84852">
        <ele>272</ele>
        <time>2017-08-25T08:58:15Z</time>
      </trkpt>
      <trkpt lat="45.97998" lon="4.84859">
        <ele>272</ele>
        <time>2017-08-25T08:58:16Z</time>
      </trkpt>
      <trkpt lat="45.97998" lon="4.84866">
        <ele>272</ele>
        <time>2017-08-25T08:58:17Z</time>
      </trkpt>
      <trkpt lat="45.97999" lon="4.84873">
        <ele>272</ele>
        <time>2017-08-25T08:58:18Z</time>
      </trkpt>
      <trkpt lat="45.97999" lon="4.84879">
        <ele>272</ele>
        <time>2017-08-25T08:58:19Z</time>
      </trkpt>
      <trkpt lat="45.98" lon="4.8489">
        <ele>272</ele>
        <time>2017-08-25T08:58:21Z</time>
      </trkpt>
      <trkpt lat="45.98" lon="4.84896">
        <ele>272</ele>
        <time>2017-08-25T08:58:22Z</time>
      </trkpt>
      <trkpt lat="45.98" lon="4.84907">
        <ele>272</ele>
        <time>2017-08-25T08:58:24Z</time>
      </trkpt>
      <trkpt lat="45.98001" lon="4.84913">
        <ele>272</ele>
        <time>2017-08-25T08:58:25Z</time>
      </trkpt>
      <trkpt lat="45.98001" lon="4.84921">
        <ele>272</ele>
        <time>2017-08-25T08:58:26Z</time>
      </trkpt>
      <trkpt lat="45.98002" lon="4.84928">
        <ele>272</ele>
        <time>2017-08-25T08:58:27Z</time>
      </trkpt>
      <trkpt lat="45.98003" lon="4.84935">
        <ele>272</ele>
        <time>2017-08-25T08:58:28Z</time>
      </trkpt>
      <trkpt lat="45.98003" lon="4.84942">
        <ele>272</ele>
        <time>2017-08-25T08:58:29Z</time>
      </trkpt>
      <trkpt lat="45.98004" lon="4.84949">
        <ele>272</ele>
        <time>2017-08-25T08:58:30Z</time>
      </trkpt>
      <trkpt lat="45.98005" lon="4.84956">
        <ele>272</ele>
        <time>2017-08-25T08:58:31Z</time>
      </trkpt>
      <trkpt lat="45.98006" lon="4.84962">
        <ele>272</ele>
        <time>2017-08-25T08:58:32Z</time>
      </trkpt>
      <trkpt lat="45.98006" lon="4.84969">
        <ele>272</ele>
        <time>2017-08-25T08:58:33Z</time>
      </trkpt>
      <trkpt lat="45.98007" lon="4.84977">
        <ele>272</ele>
        <time>2017-08-25T08:58:34Z</time>
      </trkpt>
      <trkpt lat="45.98009" lon="4.84986">
        <ele>272</ele>
        <time>2017-08-25T08:58:35Z</time>
      </trkpt>
      <trkpt lat="45.9801" lon="4.84992">
        <ele>272</ele>
        <time>2017-08-25T08:58:36Z</time>
      </trkpt>
      <trkpt lat="45.98011" lon="4.84998">
        <ele>272</ele>
        <time>2017-08-25T08:58:37Z</time>
      </trkpt>
      <trkpt lat="45.98012" lon="4.85011">
        <ele>272</ele>
        <time>2017-08-25T08:58:39Z</time>
      </trkpt>
      <trkpt lat="45.98012" lon="4.85017">
        <ele>273</ele>
        <time>2017-08-25T08:58:40Z</time>
      </trkpt>
      <trkpt lat="45.98013" lon="4.85024">
        <ele>273</ele>
        <time>2017-08-25T08:58:41Z</time>
      </trkpt>
      <trkpt lat="45.98013" lon="4.85031">
        <ele>273</ele>
        <time>2017-08-25T08:58:42Z</time>
      </trkpt>
      <trkpt lat="45.98013" lon="4.85038">
        <ele>273</ele>
        <time>2017-08-25T08:58:43Z</time>
      </trkpt>
      <trkpt lat="45.98013" lon="4.85046">
        <ele>273</ele>
        <time>2017-08-25T08:58:44Z</time>
      </trkpt>
      <trkpt lat="45.98014" lon="4.85054">
        <ele>273</ele>
        <time>2017-08-25T08:58:45Z</time>
      </trkpt>
      <trkpt lat="45.98014" lon="4.85062">
        <ele>273</ele>
        <time>2017-08-25T08:58:46Z</time>
      </trkpt>
      <trkpt lat="45.98014" lon="4.85069">
        <ele>273</ele>
        <time>2017-08-25T08:58:47Z</time>
      </trkpt>
      <trkpt lat="45.98014" lon="4.85076">
        <ele>273</ele>
        <time>2017-08-25T08:58:48Z</time>
      </trkpt>
      <trkpt lat="45.98016" lon="4.85087">
        <ele>274</ele>
        <time>2017-08-25T08:58:50Z</time>
      </trkpt>
      <trkpt lat="45.98016" lon="4.85093">
        <ele>274</ele>
        <time>2017-08-25T08:58:51Z</time>
      </trkpt>
      <trkpt lat="45.98018" lon="4.85103">
        <ele>274</ele>
        <time>2017-08-25T08:58:53Z</time>
      </trkpt>
      <trkpt lat="45.9802" lon="4.85108">
        <ele>274</ele>
        <time>2017-08-25T08:58:54Z</time>
      </trkpt>
      <trkpt lat="45.98023" lon="4.8512">
        <ele>274</ele>
        <time>2017-08-25T08:58:56Z</time>
      </trkpt>
      <trkpt lat="45.98025" lon="4.85126">
        <ele>274</ele>
        <time>2017-08-25T08:58:57Z</time>
      </trkpt>
      <trkpt lat="45.98026" lon="4.85133">
        <ele>274</ele>
        <time>2017-08-25T08:58:58Z</time>
      </trkpt>
      <trkpt lat="45.98028" lon="4.8514">
        <ele>275</ele>
        <time>2017-08-25T08:58:59Z</time>
      </trkpt>
      <trkpt lat="45.9803" lon="4.85147">
        <ele>275</ele>
        <time>2017-08-25T08:59:00Z</time>
      </trkpt>
      <trkpt lat="45.98032" lon="4.85153">
        <ele>275</ele>
        <time>2017-08-25T08:59:01Z</time>
      </trkpt>
      <trkpt lat="45.98035" lon="4.85164">
        <ele>275</ele>
        <time>2017-08-25T08:59:03Z</time>
      </trkpt>
      <trkpt lat="45.98037" lon="4.85169">
        <ele>275</ele>
        <time>2017-08-25T08:59:04Z</time>
      </trkpt>
      <trkpt lat="45.98042" lon="4.85178">
        <ele>276</ele>
        <time>2017-08-25T08:59:06Z</time>
      </trkpt>
      <trkpt lat="45.98043" lon="4.85183">
        <ele>276</ele>
        <time>2017-08-25T08:59:07Z</time>
      </trkpt>
      <trkpt lat="45.98045" lon="4.85195">
        <ele>276</ele>
        <time>2017-08-25T08:59:10Z</time>
      </trkpt>
      <trkpt lat="45.98046" lon="4.85199">
        <ele>276</ele>
        <time>2017-08-25T08:59:11Z</time>
      </trkpt>
      <trkpt lat="45.98049" lon="4.85209">
        <ele>276</ele>
        <time>2017-08-25T08:59:15Z</time>
      </trkpt>
      <trkpt lat="45.9805" lon="4.85213">
        <ele>276</ele>
        <time>2017-08-25T08:59:16Z</time>
      </trkpt>
      <trkpt lat="45.98054" lon="4.85221">
        <ele>276</ele>
        <time>2017-08-25T08:59:18Z</time>
      </trkpt>
      <trkpt lat="45.98057" lon="4.85226">
        <ele>276</ele>
        <time>2017-08-25T08:59:19Z</time>
      </trkpt>
      <trkpt lat="45.98061" lon="4.85232">
        <ele>276</ele>
        <time>2017-08-25T08:59:20Z</time>
      </trkpt>
      <trkpt lat="45.98063" lon="4.85238">
        <ele>276</ele>
        <time>2017-08-25T08:59:21Z</time>
      </trkpt>
      <trkpt lat="45.98066" lon="4.85244">
        <ele>276</ele>
        <time>2017-08-25T08:59:22Z</time>
      </trkpt>
      <trkpt lat="45.9807" lon="4.8525">
        <ele>276</ele>
        <time>2017-08-25T08:59:23Z</time>
      </trkpt>
      <trkpt lat="45.98073" lon="4.85256">
        <ele>276</ele>
        <time>2017-08-25T08:59:24Z</time>
      </trkpt>
      <trkpt lat="45.98076" lon="4.85262">
        <ele>276</ele>
        <time>2017-08-25T08:59:25Z</time>
      </trkpt>
      <trkpt lat="45.98079" lon="4.85268">
        <ele>276</ele>
        <time>2017-08-25T08:59:26Z</time>
      </trkpt>
      <trkpt lat="45.98082" lon="4.85275">
        <ele>276</ele>
        <time>2017-08-25T08:59:27Z</time>
      </trkpt>
      <trkpt lat="45.98085" lon="4.85281">
        <ele>276</ele>
        <time>2017-08-25T08:59:28Z</time>
      </trkpt>
      <trkpt lat="45.98088" lon="4.85287">
        <ele>276</ele>
        <time>2017-08-25T08:59:29Z</time>
      </trkpt>
      <trkpt lat="45.98091" lon="4.85293">
        <ele>276</ele>
        <time>2017-08-25T08:59:30Z</time>
      </trkpt>
      <trkpt lat="45.98093" lon="4.85299">
        <ele>276</ele>
        <time>2017-08-25T08:59:31Z</time>
      </trkpt>
      <trkpt lat="45.98096" lon="4.85305">
        <ele>276</ele>
        <time>2017-08-25T08:59:32Z</time>
      </trkpt>
      <trkpt lat="45.98098" lon="4.85311">
        <ele>276</ele>
        <time>2017-08-25T08:59:33Z</time>
      </trkpt>
      <trkpt lat="45.98102" lon="4.85322">
        <ele>276</ele>
        <time>2017-08-25T08:59:35Z</time>
      </trkpt>
      <trkpt lat="45.98104" lon="4.85328">
        <ele>276</ele>
        <time>2017-08-25T08:59:36Z</time>
      </trkpt>
      <trkpt lat="45.98106" lon="4.85335">
        <ele>276</ele>
        <time>2017-08-25T08:59:37Z</time>
      </trkpt>
      <trkpt lat="45.98108" lon="4.85343">
        <ele>276</ele>
        <time>2017-08-25T08:59:38Z</time>
      </trkpt>
      <trkpt lat="45.98111" lon="4.8535">
        <ele>276</ele>
        <time>2017-08-25T08:59:39Z</time>
      </trkpt>
      <trkpt lat="45.98114" lon="4.85357">
        <ele>276</ele>
        <time>2017-08-25T08:59:40Z</time>
      </trkpt>
      <trkpt lat="45.98118" lon="4.85364">
        <ele>276</ele>
        <time>2017-08-25T08:59:41Z</time>
      </trkpt>
      <trkpt lat="45.9812" lon="4.85372">
        <ele>276</ele>
        <time>2017-08-25T08:59:42Z</time>
      </trkpt>
      <trkpt lat="45.98123" lon="4.85379">
        <ele>276</ele>
        <time>2017-08-25T08:59:43Z</time>
      </trkpt>
      <trkpt lat="45.98126" lon="4.85386">
        <ele>276</ele>
        <time>2017-08-25T08:59:44Z</time>
      </trkpt>
      <trkpt lat="45.98129" lon="4.85392">
        <ele>276</ele>
        <time>2017-08-25T08:59:45Z</time>
      </trkpt>
      <trkpt lat="45.98133" lon="4.85398">
        <ele>276</ele>
        <time>2017-08-25T08:59:46Z</time>
      </trkpt>
      <trkpt lat="45.98137" lon="4.85404">
        <ele>276</ele>
        <time>2017-08-25T08:59:47Z</time>
      </trkpt>
      <trkpt lat="45.98139" lon="4.8541">
        <ele>276</ele>
        <time>2017-08-25T08:59:48Z</time>
      </trkpt>
      <trkpt lat="45.98142" lon="4.85416">
        <ele>276</ele>
        <time>2017-08-25T08:59:49Z</time>
      </trkpt>
      <trkpt lat="45.98144" lon="4.85422">
        <ele>276</ele>
        <time>2017-08-25T08:59:50Z</time>
      </trkpt>
      <trkpt lat="45.98147" lon="4.85428">
        <ele>276</ele>
        <time>2017-08-25T08:59:51Z</time>
      </trkpt>
      <trkpt lat="45.98149" lon="4.85434">
        <ele>276</ele>
        <time>2017-08-25T08:59:52Z</time>
      </trkpt>
      <trkpt lat="45.98153" lon="4.85446">
        <ele>276</ele>
        <time>2017-08-25T08:59:54Z</time>
      </trkpt>
      <trkpt lat="45.98155" lon="4.85451">
        <ele>276</ele>
        <time>2017-08-25T08:59:55Z</time>
      </trkpt>
      <trkpt lat="45.98157" lon="4.85456">
        <ele>276</ele>
        <time>2017-08-25T08:59:56Z</time>
      </trkpt>
      <trkpt lat="45.9816" lon="4.85463">
        <ele>275</ele>
        <time>2017-08-25T08:59:57Z</time>
      </trkpt>
      <trkpt lat="45.98163" lon="4.8547">
        <ele>275</ele>
        <time>2017-08-25T08:59:58Z</time>
      </trkpt>
      <trkpt lat="45.98166" lon="4.85476">
        <ele>275</ele>
        <time>2017-08-25T08:59:59Z</time>
      </trkpt>
      <trkpt lat="45.98169" lon="4.85483">
        <ele>275</ele>
        <time>2017-08-25T09:00:00Z</time>
      </trkpt>
      <trkpt lat="45.98172" lon="4.8549">
        <ele>275</ele>
        <time>2017-08-25T09:00:01Z</time>
      </trkpt>
      <trkpt lat="45.98174" lon="4.85496">
        <ele>275</ele>
        <time>2017-08-25T09:00:02Z</time>
      </trkpt>
      <trkpt lat="45.98176" lon="4.85502">
        <ele>275</ele>
        <time>2017-08-25T09:00:03Z</time>
      </trkpt>
      <trkpt lat="45.98179" lon="4.85508">
        <ele>275</ele>
        <time>2017-08-25T09:00:04Z</time>
      </trkpt>
      <trkpt lat="45.98181" lon="4.85514">
        <ele>275</ele>
        <time>2017-08-25T09:00:05Z</time>
      </trkpt>
      <trkpt lat="45.98187" lon="4.85524">
        <ele>276</ele>
        <time>2017-08-25T09:00:07Z</time>
      </trkpt>
      <trkpt lat="45.98189" lon="4.85529">
        <ele>276</ele>
        <time>2017-08-25T09:00:08Z</time>
      </trkpt>
      <trkpt lat="45.98191" lon="4.85535">
        <ele>276</ele>
        <time>2017-08-25T09:00:09Z</time>
      </trkpt>
      <trkpt lat="45.98193" lon="4.8554">
        <ele>276</ele>
        <time>2017-08-25T09:00:10Z</time>
      </trkpt>
      <trkpt lat="45.98196" lon="4.85547">
        <ele>276</ele>
        <time>2017-08-25T09:00:11Z</time>
      </trkpt>
      <trkpt lat="45.98199" lon="4.85553">
        <ele>276</ele>
        <time>2017-08-25T09:00:12Z</time>
      </trkpt>
      <trkpt lat="45.98201" lon="4.8556">
        <ele>276</ele>
        <time>2017-08-25T09:00:13Z</time>
      </trkpt>
      <trkpt lat="45.98204" lon="4.85567">
        <ele>276</ele>
        <time>2017-08-25T09:00:14Z</time>
      </trkpt>
      <trkpt lat="45.98207" lon="4.85574">
        <ele>276</ele>
        <time>2017-08-25T09:00:15Z</time>
      </trkpt>
      <trkpt lat="45.9821" lon="4.85581">
        <ele>276</ele>
        <time>2017-08-25T09:00:16Z</time>
      </trkpt>
      <trkpt lat="45.98213" lon="4.85587">
        <ele>277</ele>
        <time>2017-08-25T09:00:17Z</time>
      </trkpt>
      <trkpt lat="45.98216" lon="4.85594">
        <ele>277</ele>
        <time>2017-08-25T09:00:18Z</time>
      </trkpt>
      <trkpt lat="45.98219" lon="4.856">
        <ele>277</ele>
        <time>2017-08-25T09:00:19Z</time>
      </trkpt>
      <trkpt lat="45.98222" lon="4.85607">
        <ele>277</ele>
        <time>2017-08-25T09:00:20Z</time>
      </trkpt>
      <trkpt lat="45.98225" lon="4.85613">
        <ele>277</ele>
        <time>2017-08-25T09:00:21Z</time>
      </trkpt>
      <trkpt lat="45.98227" lon="4.85618">
        <ele>277</ele>
        <time>2017-08-25T09:00:22Z</time>
      </trkpt>
      <trkpt lat="45.98229" lon="4.85624">
        <ele>277</ele>
        <time>2017-08-25T09:00:23Z</time>
      </trkpt>
      <trkpt lat="45.98231" lon="4.8563">
        <ele>277</ele>
        <time>2017-08-25T09:00:24Z</time>
      </trkpt>
      <trkpt lat="45.98233" lon="4.85635">
        <ele>277</ele>
        <time>2017-08-25T09:00:25Z</time>
      </trkpt>
      <trkpt lat="45.98235" lon="4.85641">
        <ele>277</ele>
        <time>2017-08-25T09:00:26Z</time>
      </trkpt>
      <trkpt lat="45.98237" lon="4.85647">
        <ele>277</ele>
        <time>2017-08-25T09:00:27Z</time>
      </trkpt>
      <trkpt lat="45.9824" lon="4.85653">
        <ele>276</ele>
        <time>2017-08-25T09:00:28Z</time>
      </trkpt>
      <trkpt lat="45.98243" lon="4.8566">
        <ele>276</ele>
        <time>2017-08-25T09:00:29Z</time>
      </trkpt>
      <trkpt lat="45.98245" lon="4.85666">
        <ele>276</ele>
        <time>2017-08-25T09:00:30Z</time>
      </trkpt>
      <trkpt lat="45.98247" lon="4.85673">
        <ele>276</ele>
        <time>2017-08-25T09:00:31Z</time>
      </trkpt>
      <trkpt lat="45.9825" lon="4.85679">
        <ele>276</ele>
        <time>2017-08-25T09:00:32Z</time>
      </trkpt>
      <trkpt lat="45.98252" lon="4.85684">
        <ele>275</ele>
        <time>2017-08-25T09:00:33Z</time>
      </trkpt>
      <trkpt lat="45.98255" lon="4.8569">
        <ele>275</ele>
        <time>2017-08-25T09:00:34Z</time>
      </trkpt>
      <trkpt lat="45.98259" lon="4.857">
        <ele>275</ele>
        <time>2017-08-25T09:00:36Z</time>
      </trkpt>
      <trkpt lat="45.9826" lon="4.85706">
        <ele>275</ele>
        <time>2017-08-25T09:00:37Z</time>
      </trkpt>
      <trkpt lat="45.98264" lon="4.85716">
        <ele>275</ele>
        <time>2017-08-25T09:00:39Z</time>
      </trkpt>
      <trkpt lat="45.98266" lon="4.85721">
        <ele>275</ele>
        <time>2017-08-25T09:00:40Z</time>
      </trkpt>
      <trkpt lat="45.98269" lon="4.85727">
        <ele>275</ele>
        <time>2017-08-25T09:00:41Z</time>
      </trkpt>
      <trkpt lat="45.98271" lon="4.85734">
        <ele>275</ele>
        <time>2017-08-25T09:00:42Z</time>
      </trkpt>
      <trkpt lat="45.98273" lon="4.85742">
        <ele>274</ele>
        <time>2017-08-25T09:00:43Z</time>
      </trkpt>
      <trkpt lat="45.98276" lon="4.85748">
        <ele>274</ele>
        <time>2017-08-25T09:00:44Z</time>
      </trkpt>
      <trkpt lat="45.98279" lon="4.85755">
        <ele>275</ele>
        <time>2017-08-25T09:00:45Z</time>
      </trkpt>
      <trkpt lat="45.98282" lon="4.85761">
        <ele>275</ele>
        <time>2017-08-25T09:00:46Z</time>
      </trkpt>
      <trkpt lat="45.98284" lon="4.85768">
        <ele>275</ele>
        <time>2017-08-25T09:00:47Z</time>
      </trkpt>
      <trkpt lat="45.98287" lon="4.85774">
        <ele>275</ele>
        <time>2017-08-25T09:00:48Z</time>
      </trkpt>
      <trkpt lat="45.98289" lon="4.85781">
        <ele>275</ele>
        <time>2017-08-25T09:00:49Z</time>
      </trkpt>
      <trkpt lat="45.98291" lon="4.85787">
        <ele>275</ele>
        <time>2017-08-25T09:00:50Z</time>
      </trkpt>
      <trkpt lat="45.98293" lon="4.85793">
        <ele>275</ele>
        <time>2017-08-25T09:00:51Z</time>
      </trkpt>
      <trkpt lat="45.98296" lon="4.85799">
        <ele>275</ele>
        <time>2017-08-25T09:00:52Z</time>
      </trkpt>
      <trkpt lat="45.983" lon="4.8581">
        <ele>275</ele>
        <time>2017-08-25T09:00:54Z</time>
      </trkpt>
      <trkpt lat="45.98302" lon="4.85815">
        <ele>275</ele>
        <time>2017-08-25T09:00:55Z</time>
      </trkpt>
      <trkpt lat="45.98304" lon="4.85821">
        <ele>275</ele>
        <time>2017-08-25T09:00:56Z</time>
      </trkpt>
      <trkpt lat="45.98307" lon="4.85828">
        <ele>275</ele>
        <time>2017-08-25T09:00:57Z</time>
      </trkpt>
      <trkpt lat="45.98309" lon="4.85834">
        <ele>276</ele>
        <time>2017-08-25T09:00:58Z</time>
      </trkpt>
      <trkpt lat="45.98311" lon="4.8584">
        <ele>276</ele>
        <time>2017-08-25T09:00:59Z</time>
      </trkpt>
      <trkpt lat="45.98313" lon="4.85845">
        <ele>276</ele>
        <time>2017-08-25T09:01:00Z</time>
      </trkpt>
      <trkpt lat="45.98316" lon="4.85851">
        <ele>276</ele>
        <time>2017-08-25T09:01:01Z</time>
      </trkpt>
      <trkpt lat="45.9832" lon="4.85861">
        <ele>276</ele>
        <time>2017-08-25T09:01:03Z</time>
      </trkpt>
      <trkpt lat="45.98322" lon="4.85866">
        <ele>276</ele>
        <time>2017-08-25T09:01:04Z</time>
      </trkpt>
      <trkpt lat="45.98326" lon="4.85874">
        <ele>276</ele>
        <time>2017-08-25T09:01:06Z</time>
      </trkpt>
      <trkpt lat="45.98328" lon="4.85879">
        <ele>276</ele>
        <time>2017-08-25T09:01:07Z</time>
      </trkpt>
      <trkpt lat="45.98331" lon="4.85884">
        <ele>276</ele>
        <time>2017-08-25T09:01:08Z</time>
      </trkpt>
      <trkpt lat="45.98334" lon="4.85891">
        <ele>276</ele>
        <time>2017-08-25T09:01:09Z</time>
      </trkpt>
      <trkpt lat="45.98336" lon="4.85897">
        <ele>276</ele>
        <time>2017-08-25T09:01:10Z</time>
      </trkpt>
      <trkpt lat="45.98339" lon="4.85904">
        <ele>276</ele>
        <time>2017-08-25T09:01:11Z</time>
      </trkpt>
      <trkpt lat="45.98342" lon="4.8591">
        <ele>276</ele>
        <time>2017-08-25T09:01:12Z</time>
      </trkpt>
      <trkpt lat="45.98344" lon="4.85917">
        <ele>276</ele>
        <time>2017-08-25T09:01:13Z</time>
      </trkpt>
      <trkpt lat="45.98347" lon="4.85924">
        <ele>276</ele>
        <time>2017-08-25T09:01:14Z</time>
      </trkpt>
      <trkpt lat="45.98349" lon="4.8593">
        <ele>276</ele>
        <time>2017-08-25T09:01:15Z</time>
      </trkpt>
      <trkpt lat="45.98352" lon="4.85941">
        <ele>276</ele>
        <time>2017-08-25T09:01:17Z</time>
      </trkpt>
      <trkpt lat="45.98354" lon="4.85948">
        <ele>276</ele>
        <time>2017-08-25T09:01:18Z</time>
      </trkpt>
      <trkpt lat="45.98357" lon="4.85955">
        <ele>276</ele>
        <time>2017-08-25T09:01:19Z</time>
      </trkpt>
      <trkpt lat="45.98359" lon="4.85963">
        <ele>276</ele>
        <time>2017-08-25T09:01:20Z</time>
      </trkpt>
      <trkpt lat="45.98361" lon="4.8597">
        <ele>276</ele>
        <time>2017-08-25T09:01:21Z</time>
      </trkpt>
      <trkpt lat="45.98364" lon="4.85976">
        <ele>276</ele>
        <time>2017-08-25T09:01:22Z</time>
      </trkpt>
      <trkpt lat="45.98368" lon="4.85987">
        <ele>276</ele>
        <time>2017-08-25T09:01:24Z</time>
      </trkpt>
      <trkpt lat="45.9837" lon="4.85993">
        <ele>277</ele>
        <time>2017-08-25T09:01:25Z</time>
      </trkpt>
      <trkpt lat="45.98373" lon="4.86">
        <ele>277</ele>
        <time>2017-08-25T09:01:26Z</time>
      </trkpt>
      <trkpt lat="45.98375" lon="4.86006">
        <ele>277</ele>
        <time>2017-08-25T09:01:27Z</time>
      </trkpt>
      <trkpt lat="45.98377" lon="4.86012">
        <ele>277</ele>
        <time>2017-08-25T09:01:28Z</time>
      </trkpt>
      <trkpt lat="45.98379" lon="4.86018">
        <ele>277</ele>
        <time>2017-08-25T09:01:29Z</time>
      </trkpt>
      <trkpt lat="45.98384" lon="4.86029">
        <ele>277</ele>
        <time>2017-08-25T09:01:31Z</time>
      </trkpt>
      <trkpt lat="45.98387" lon="4.86034">
        <ele>277</ele>
        <time>2017-08-25T09:01:32Z</time>
      </trkpt>
      <trkpt lat="45.98389" lon="4.86041">
        <ele>277</ele>
        <time>2017-08-25T09:01:33Z</time>
      </trkpt>
      <trkpt lat="45.98392" lon="4.86047">
        <ele>277</ele>
        <time>2017-08-25T09:01:34Z</time>
      </trkpt>
      <trkpt lat="45.98394" lon="4.86054">
        <ele>277</ele>
        <time>2017-08-25T09:01:35Z</time>
      </trkpt>
      <trkpt lat="45.98396" lon="4.8606">
        <ele>277</ele>
        <time>2017-08-25T09:01:36Z</time>
      </trkpt>
      <trkpt lat="45.98398" lon="4.86067">
        <ele>277</ele>
        <time>2017-08-25T09:01:37Z</time>
      </trkpt>
      <trkpt lat="45.984" lon="4.86074">
        <ele>277</ele>
        <time>2017-08-25T09:01:38Z</time>
      </trkpt>
      <trkpt lat="45.98401" lon="4.8608">
        <ele>277</ele>
        <time>2017-08-25T09:01:39Z</time>
      </trkpt>
      <trkpt lat="45.98401" lon="4.86087">
        <ele>277</ele>
        <time>2017-08-25T09:01:40Z</time>
      </trkpt>
      <trkpt lat="45.98403" lon="4.861">
        <ele>277</ele>
        <time>2017-08-25T09:01:42Z</time>
      </trkpt>
      <trkpt lat="45.98405" lon="4.86106">
        <ele>277</ele>
        <time>2017-08-25T09:01:43Z</time>
      </trkpt>
      <trkpt lat="45.98406" lon="4.86112">
        <ele>277</ele>
        <time>2017-08-25T09:01:44Z</time>
      </trkpt>
      <trkpt lat="45.98408" lon="4.86119">
        <ele>277</ele>
        <time>2017-08-25T09:01:45Z</time>
      </trkpt>
      <trkpt lat="45.98409" lon="4.86125">
        <ele>277</ele>
        <time>2017-08-25T09:01:46Z</time>
      </trkpt>
      <trkpt lat="45.9841" lon="4.86132">
        <ele>276</ele>
        <time>2017-08-25T09:01:47Z</time>
      </trkpt>
      <trkpt lat="45.9841" lon="4.86138">
        <ele>276</ele>
        <time>2017-08-25T09:01:48Z</time>
      </trkpt>
      <trkpt lat="45.98412" lon="4.86145">
        <ele>276</ele>
        <time>2017-08-25T09:01:49Z</time>
      </trkpt>
      <trkpt lat="45.98413" lon="4.86151">
        <ele>276</ele>
        <time>2017-08-25T09:01:50Z</time>
      </trkpt>
      <trkpt lat="45.98414" lon="4.86157">
        <ele>276</ele>
        <time>2017-08-25T09:01:51Z</time>
      </trkpt>
      <trkpt lat="45.98415" lon="4.86169">
        <ele>276</ele>
        <time>2017-08-25T09:01:53Z</time>
      </trkpt>
      <trkpt lat="45.98417" lon="4.86174">
        <ele>276</ele>
        <time>2017-08-25T09:01:54Z</time>
      </trkpt>
      <trkpt lat="45.98418" lon="4.86184">
        <ele>275</ele>
        <time>2017-08-25T09:01:56Z</time>
      </trkpt>
      <trkpt lat="45.98419" lon="4.8619">
        <ele>275</ele>
        <time>2017-08-25T09:01:57Z</time>
      </trkpt>
      <trkpt lat="45.98421" lon="4.862">
        <ele>275</ele>
        <time>2017-08-25T09:01:59Z</time>
      </trkpt>
      <trkpt lat="45.98422" lon="4.86206">
        <ele>275</ele>
        <time>2017-08-25T09:02:00Z</time>
      </trkpt>
      <trkpt lat="45.98423" lon="4.86216">
        <ele>275</ele>
        <time>2017-08-25T09:02:02Z</time>
      </trkpt>
      <trkpt lat="45.98425" lon="4.86222">
        <ele>275</ele>
        <time>2017-08-25T09:02:03Z</time>
      </trkpt>
      <trkpt lat="45.98426" lon="4.86234">
        <ele>275</ele>
        <time>2017-08-25T09:02:05Z</time>
      </trkpt>
      <trkpt lat="45.98427" lon="4.86241">
        <ele>275</ele>
        <time>2017-08-25T09:02:06Z</time>
      </trkpt>
      <trkpt lat="45.98429" lon="4.86249">
        <ele>275</ele>
        <time>2017-08-25T09:02:07Z</time>
      </trkpt>
      <trkpt lat="45.98431" lon="4.86256">
        <ele>275</ele>
        <time>2017-08-25T09:02:08Z</time>
      </trkpt>
      <trkpt lat="45.98433" lon="4.86265">
        <ele>275</ele>
        <time>2017-08-25T09:02:09Z</time>
      </trkpt>
      <trkpt lat="45.98434" lon="4.86273">
        <ele>276</ele>
        <time>2017-08-25T09:02:10Z</time>
      </trkpt>
      <trkpt lat="45.98435" lon="4.86283">
        <ele>276</ele>
        <time>2017-08-25T09:02:11Z</time>
      </trkpt>
      <trkpt lat="45.98437" lon="4.86293">
        <ele>276</ele>
        <time>2017-08-25T09:02:12Z</time>
      </trkpt>
      <trkpt lat="45.98438" lon="4.86302">
        <ele>276</ele>
        <time>2017-08-25T09:02:13Z</time>
      </trkpt>
      <trkpt lat="45.9844" lon="4.86312">
        <ele>276</ele>
        <time>2017-08-25T09:02:14Z</time>
      </trkpt>
      <trkpt lat="45.98441" lon="4.86322">
        <ele>276</ele>
        <time>2017-08-25T09:02:15Z</time>
      </trkpt>
      <trkpt lat="45.98444" lon="4.86332">
        <ele>276</ele>
        <time>2017-08-25T09:02:16Z</time>
      </trkpt>
      <trkpt lat="45.98446" lon="4.86341">
        <ele>277</ele>
        <time>2017-08-25T09:02:17Z</time>
      </trkpt>
      <trkpt lat="45.98449" lon="4.86351">
        <ele>277</ele>
        <time>2017-08-25T09:02:18Z</time>
      </trkpt>
      <trkpt lat="45.98451" lon="4.8636">
        <ele>277</ele>
        <time>2017-08-25T09:02:19Z</time>
      </trkpt>
      <trkpt lat="45.98454" lon="4.86369">
        <ele>277</ele>
        <time>2017-08-25T09:02:20Z</time>
      </trkpt>
      <trkpt lat="45.98458" lon="4.86378">
        <ele>277</ele>
        <time>2017-08-25T09:02:21Z</time>
      </trkpt>
      <trkpt lat="45.98462" lon="4.86386">
        <ele>277</ele>
        <time>2017-08-25T09:02:22Z</time>
      </trkpt>
      <trkpt lat="45.98465" lon="4.86394">
        <ele>277</ele>
        <time>2017-08-25T09:02:23Z</time>
      </trkpt>
      <trkpt lat="45.98469" lon="4.86403">
        <ele>277</ele>
        <time>2017-08-25T09:02:24Z</time>
      </trkpt>
      <trkpt lat="45.98473" lon="4.86411">
        <ele>277</ele>
        <time>2017-08-25T09:02:25Z</time>
      </trkpt>
      <trkpt lat="45.98476" lon="4.86419">
        <ele>278</ele>
        <time>2017-08-25T09:02:26Z</time>
      </trkpt>
      <trkpt lat="45.9848" lon="4.86426">
        <ele>278</ele>
        <time>2017-08-25T09:02:27Z</time>
      </trkpt>
      <trkpt lat="45.98484" lon="4.86434">
        <ele>278</ele>
        <time>2017-08-25T09:02:28Z</time>
      </trkpt>
      <trkpt lat="45.98487" lon="4.86441">
        <ele>278</ele>
        <time>2017-08-25T09:02:29Z</time>
      </trkpt>
      <trkpt lat="45.9849" lon="4.86449">
        <ele>278</ele>
        <time>2017-08-25T09:02:30Z</time>
      </trkpt>
      <trkpt lat="45.98494" lon="4.86457">
        <ele>278</ele>
        <time>2017-08-25T09:02:31Z</time>
      </trkpt>
      <trkpt lat="45.98497" lon="4.86464">
        <ele>278</ele>
        <time>2017-08-25T09:02:32Z</time>
      </trkpt>
      <trkpt lat="45.985" lon="4.86471">
        <ele>279</ele>
        <time>2017-08-25T09:02:33Z</time>
      </trkpt>
      <trkpt lat="45.98503" lon="4.86478">
        <ele>278</ele>
        <time>2017-08-25T09:02:34Z</time>
      </trkpt>
      <trkpt lat="45.98506" lon="4.86485">
        <ele>279</ele>
        <time>2017-08-25T09:02:35Z</time>
      </trkpt>
      <trkpt lat="45.98509" lon="4.86492">
        <ele>279</ele>
        <time>2017-08-25T09:02:36Z</time>
      </trkpt>
      <trkpt lat="45.98512" lon="4.86499">
        <ele>279</ele>
        <time>2017-08-25T09:02:37Z</time>
      </trkpt>
      <trkpt lat="45.98515" lon="4.86506">
        <ele>279</ele>
        <time>2017-08-25T09:02:38Z</time>
      </trkpt>
      <trkpt lat="45.98519" lon="4.86513">
        <ele>279</ele>
        <time>2017-08-25T09:02:39Z</time>
      </trkpt>
      <trkpt lat="45.98522" lon="4.8652">
        <ele>279</ele>
        <time>2017-08-25T09:02:40Z</time>
      </trkpt>
      <trkpt lat="45.98526" lon="4.86526">
        <ele>279</ele>
        <time>2017-08-25T09:02:41Z</time>
      </trkpt>
      <trkpt lat="45.9853" lon="4.86532">
        <ele>279</ele>
        <time>2017-08-25T09:02:42Z</time>
      </trkpt>
      <trkpt lat="45.98533" lon="4.86538">
        <ele>278</ele>
        <time>2017-08-25T09:02:43Z</time>
      </trkpt>
      <trkpt lat="45.98536" lon="4.86543">
        <ele>278</ele>
        <time>2017-08-25T09:02:44Z</time>
      </trkpt>
      <trkpt lat="45.98539" lon="4.8655">
        <ele>278</ele>
        <time>2017-08-25T09:02:45Z</time>
      </trkpt>
      <trkpt lat="45.98543" lon="4.86558">
        <ele>278</ele>
        <time>2017-08-25T09:02:46Z</time>
      </trkpt>
      <trkpt lat="45.98546" lon="4.86565">
        <ele>278</ele>
        <time>2017-08-25T09:02:47Z</time>
      </trkpt>
      <trkpt lat="45.98549" lon="4.86573">
        <ele>278</ele>
        <time>2017-08-25T09:02:48Z</time>
      </trkpt>
      <trkpt lat="45.98551" lon="4.8658">
        <ele>278</ele>
        <time>2017-08-25T09:02:49Z</time>
      </trkpt>
      <trkpt lat="45.98552" lon="4.86587">
        <ele>278</ele>
        <time>2017-08-25T09:02:50Z</time>
      </trkpt>
      <trkpt lat="45.98554" lon="4.86594">
        <ele>278</ele>
        <time>2017-08-25T09:02:51Z</time>
      </trkpt>
      <trkpt lat="45.98554" lon="4.86601">
        <ele>278</ele>
        <time>2017-08-25T09:02:52Z</time>
      </trkpt>
      <trkpt lat="45.98555" lon="4.86607">
        <ele>278</ele>
        <time>2017-08-25T09:02:53Z</time>
      </trkpt>
      <trkpt lat="45.98556" lon="4.86614">
        <ele>278</ele>
        <time>2017-08-25T09:02:54Z</time>
      </trkpt>
      <trkpt lat="45.98557" lon="4.86622">
        <ele>278</ele>
        <time>2017-08-25T09:02:55Z</time>
      </trkpt>
      <trkpt lat="45.98558" lon="4.8663">
        <ele>278</ele>
        <time>2017-08-25T09:02:56Z</time>
      </trkpt>
      <trkpt lat="45.98559" lon="4.86638">
        <ele>278</ele>
        <time>2017-08-25T09:02:57Z</time>
      </trkpt>
      <trkpt lat="45.9856" lon="4.86646">
        <ele>277</ele>
        <time>2017-08-25T09:02:58Z</time>
      </trkpt>
      <trkpt lat="45.98561" lon="4.86654">
        <ele>277</ele>
        <time>2017-08-25T09:02:59Z</time>
      </trkpt>
      <trkpt lat="45.98562" lon="4.86662">
        <ele>277</ele>
        <time>2017-08-25T09:03:00Z</time>
      </trkpt>
      <trkpt lat="45.98562" lon="4.86671">
        <ele>277</ele>
        <time>2017-08-25T09:03:01Z</time>
      </trkpt>
      <trkpt lat="45.98563" lon="4.86679">
        <ele>277</ele>
        <time>2017-08-25T09:03:02Z</time>
      </trkpt>
      <trkpt lat="45.98563" lon="4.86687">
        <ele>277</ele>
        <time>2017-08-25T09:03:03Z</time>
      </trkpt>
      <trkpt lat="45.98564" lon="4.86694">
        <ele>277</ele>
        <time>2017-08-25T09:03:04Z</time>
      </trkpt>
      <trkpt lat="45.98564" lon="4.86701">
        <ele>277</ele>
        <time>2017-08-25T09:03:05Z</time>
      </trkpt>
      <trkpt lat="45.98565" lon="4.86708">
        <ele>277</ele>
        <time>2017-08-25T09:03:06Z</time>
      </trkpt>
      <trkpt lat="45.98566" lon="4.86715">
        <ele>277</ele>
        <time>2017-08-25T09:03:07Z</time>
      </trkpt>
      <trkpt lat="45.98566" lon="4.86722">
        <ele>277</ele>
        <time>2017-08-25T09:03:08Z</time>
      </trkpt>
      <trkpt lat="45.98566" lon="4.86728">
        <ele>277</ele>
        <time>2017-08-25T09:03:09Z</time>
      </trkpt>
      <trkpt lat="45.98567" lon="4.86735">
        <ele>277</ele>
        <time>2017-08-25T09:03:10Z</time>
      </trkpt>
      <trkpt lat="45.98567" lon="4.86742">
        <ele>277</ele>
        <time>2017-08-25T09:03:11Z</time>
      </trkpt>
      <trkpt lat="45.98568" lon="4.86749">
        <ele>277</ele>
        <time>2017-08-25T09:03:12Z</time>
      </trkpt>
      <trkpt lat="45.98569" lon="4.86757">
        <ele>277</ele>
        <time>2017-08-25T09:03:13Z</time>
      </trkpt>
      <trkpt lat="45.98571" lon="4.86767">
        <ele>277</ele>
        <time>2017-08-25T09:03:14Z</time>
      </trkpt>
      <trkpt lat="45.98573" lon="4.86777">
        <ele>277</ele>
        <time>2017-08-25T09:03:15Z</time>
      </trkpt>
      <trkpt lat="45.98574" lon="4.86786">
        <ele>277</ele>
        <time>2017-08-25T09:03:16Z</time>
      </trkpt>
      <trkpt lat="45.98576" lon="4.86794">
        <ele>278</ele>
        <time>2017-08-25T09:03:17Z</time>
      </trkpt>
      <trkpt lat="45.98578" lon="4.868">
        <ele>278</ele>
        <time>2017-08-25T09:03:18Z</time>
      </trkpt>
      <trkpt lat="45.98579" lon="4.86807">
        <ele>278</ele>
        <time>2017-08-25T09:03:19Z</time>
      </trkpt>
      <trkpt lat="45.9858" lon="4.86814">
        <ele>277</ele>
        <time>2017-08-25T09:03:20Z</time>
      </trkpt>
      <trkpt lat="45.98581" lon="4.86821">
        <ele>277</ele>
        <time>2017-08-25T09:03:21Z</time>
      </trkpt>
      <trkpt lat="45.98582" lon="4.86828">
        <ele>277</ele>
        <time>2017-08-25T09:03:22Z</time>
      </trkpt>
      <trkpt lat="45.98582" lon="4.86835">
        <ele>277</ele>
        <time>2017-08-25T09:03:23Z</time>
      </trkpt>
      <trkpt lat="45.98582" lon="4.86842">
        <ele>278</ele>
        <time>2017-08-25T09:03:24Z</time>
      </trkpt>
      <trkpt lat="45.98582" lon="4.86849">
        <ele>278</ele>
        <time>2017-08-25T09:03:25Z</time>
      </trkpt>
      <trkpt lat="45.98582" lon="4.86856">
        <ele>279</ele>
        <time>2017-08-25T09:03:26Z</time>
      </trkpt>
      <trkpt lat="45.98582" lon="4.86864">
        <ele>279</ele>
        <time>2017-08-25T09:03:27Z</time>
      </trkpt>
      <trkpt lat="45.98583" lon="4.86873">
        <ele>279</ele>
        <time>2017-08-25T09:03:28Z</time>
      </trkpt>
      <trkpt lat="45.98583" lon="4.86882">
        <ele>279</ele>
        <time>2017-08-25T09:03:29Z</time>
      </trkpt>
      <trkpt lat="45.98583" lon="4.8689">
        <ele>279</ele>
        <time>2017-08-25T09:03:30Z</time>
      </trkpt>
      <trkpt lat="45.98582" lon="4.86898">
        <ele>279</ele>
        <time>2017-08-25T09:03:31Z</time>
      </trkpt>
      <trkpt lat="45.98582" lon="4.86906">
        <ele>279</ele>
        <time>2017-08-25T09:03:32Z</time>
      </trkpt>
      <trkpt lat="45.98581" lon="4.86914">
        <ele>279</ele>
        <time>2017-08-25T09:03:33Z</time>
      </trkpt>
      <trkpt lat="45.98581" lon="4.86923">
        <ele>280</ele>
        <time>2017-08-25T09:03:34Z</time>
      </trkpt>
      <trkpt lat="45.9858" lon="4.86931">
        <ele>280</ele>
        <time>2017-08-25T09:03:35Z</time>
      </trkpt>
      <trkpt lat="45.9858" lon="4.86939">
        <ele>281</ele>
        <time>2017-08-25T09:03:36Z</time>
      </trkpt>
      <trkpt lat="45.98579" lon="4.86946">
        <ele>281</ele>
        <time>2017-08-25T09:03:37Z</time>
      </trkpt>
      <trkpt lat="45.9858" lon="4.86954">
        <ele>281</ele>
        <time>2017-08-25T09:03:38Z</time>
      </trkpt>
      <trkpt lat="45.98581" lon="4.86962">
        <ele>281</ele>
        <time>2017-08-25T09:03:39Z</time>
      </trkpt>
      <trkpt lat="45.98581" lon="4.8697">
        <ele>281</ele>
        <time>2017-08-25T09:03:40Z</time>
      </trkpt>
      <trkpt lat="45.98582" lon="4.86978">
        <ele>281</ele>
        <time>2017-08-25T09:03:41Z</time>
      </trkpt>
      <trkpt lat="45.98583" lon="4.86986">
        <ele>281</ele>
        <time>2017-08-25T09:03:42Z</time>
      </trkpt>
      <trkpt lat="45.98584" lon="4.86994">
        <ele>280</ele>
        <time>2017-08-25T09:03:43Z</time>
      </trkpt>
      <trkpt lat="45.98587" lon="4.87003">
        <ele>280</ele>
        <time>2017-08-25T09:03:44Z</time>
      </trkpt>
      <trkpt lat="45.98589" lon="4.87012">
        <ele>279</ele>
        <time>2017-08-25T09:03:45Z</time>
      </trkpt>
      <trkpt lat="45.98591" lon="4.8702">
        <ele>279</ele>
        <time>2017-08-25T09:03:46Z</time>
      </trkpt>
      <trkpt lat="45.98593" lon="4.87029">
        <ele>279</ele>
        <time>2017-08-25T09:03:47Z</time>
      </trkpt>
      <trkpt lat="45.98595" lon="4.87037">
        <ele>279</ele>
        <time>2017-08-25T09:03:48Z</time>
      </trkpt>
      <trkpt lat="45.98597" lon="4.87044">
        <ele>279</ele>
        <time>2017-08-25T09:03:49Z</time>
      </trkpt>
      <trkpt lat="45.98599" lon="4.87052">
        <ele>279</ele>
        <time>2017-08-25T09:03:50Z</time>
      </trkpt>
      <trkpt lat="45.986" lon="4.87059">
        <ele>279</ele>
        <time>2017-08-25T09:03:51Z</time>
      </trkpt>
      <trkpt lat="45.98601" lon="4.87065">
        <ele>279</ele>
        <time>2017-08-25T09:03:52Z</time>
      </trkpt>
      <trkpt lat="45.98601" lon="4.87072">
        <ele>279</ele>
        <time>2017-08-25T09:03:53Z</time>
      </trkpt>
      <trkpt lat="45.98602" lon="4.87079">
        <ele>279</ele>
        <time>2017-08-25T09:03:54Z</time>
      </trkpt>
      <trkpt lat="45.98602" lon="4.87085">
        <ele>279</ele>
        <time>2017-08-25T09:03:55Z</time>
      </trkpt>
      <trkpt lat="45.98603" lon="4.87092">
        <ele>279</ele>
        <time>2017-08-25T09:03:56Z</time>
      </trkpt>
      <trkpt lat="45.98604" lon="4.87099">
        <ele>279</ele>
        <time>2017-08-25T09:03:57Z</time>
      </trkpt>
      <trkpt lat="45.98605" lon="4.87106">
        <ele>279</ele>
        <time>2017-08-25T09:03:58Z</time>
      </trkpt>
      <trkpt lat="45.98604" lon="4.87113">
        <ele>279</ele>
        <time>2017-08-25T09:03:59Z</time>
      </trkpt>
      <trkpt lat="45.98603" lon="4.87119">
        <ele>279</ele>
        <time>2017-08-25T09:04:00Z</time>
      </trkpt>
      <trkpt lat="45.98604" lon="4.87127">
        <ele>279</ele>
        <time>2017-08-25T09:04:01Z</time>
      </trkpt>
      <trkpt lat="45.98603" lon="4.87135">
        <ele>278</ele>
        <time>2017-08-25T09:04:02Z</time>
      </trkpt>
      <trkpt lat="45.98602" lon="4.87144">
        <ele>278</ele>
        <time>2017-08-25T09:04:03Z</time>
      </trkpt>
      <trkpt lat="45.98601" lon="4.87151">
        <ele>278</ele>
        <time>2017-08-25T09:04:04Z</time>
      </trkpt>
      <trkpt lat="45.98601" lon="4.87159">
        <ele>278</ele>
        <time>2017-08-25T09:04:05Z</time>
      </trkpt>
      <trkpt lat="45.986" lon="4.87166">
        <ele>278</ele>
        <time>2017-08-25T09:04:06Z</time>
      </trkpt>
      <trkpt lat="45.98599" lon="4.87172">
        <ele>277</ele>
        <time>2017-08-25T09:04:07Z</time>
      </trkpt>
      <trkpt lat="45.98598" lon="4.87179">
        <ele>277</ele>
        <time>2017-08-25T09:04:08Z</time>
      </trkpt>
      <trkpt lat="45.98598" lon="4.87187">
        <ele>277</ele>
        <time>2017-08-25T09:04:09Z</time>
      </trkpt>
      <trkpt lat="45.98597" lon="4.87195">
        <ele>277</ele>
        <time>2017-08-25T09:04:10Z</time>
      </trkpt>
      <trkpt lat="45.98595" lon="4.87202">
        <ele>277</ele>
        <time>2017-08-25T09:04:11Z</time>
      </trkpt>
      <trkpt lat="45.98594" lon="4.87209">
        <ele>277</ele>
        <time>2017-08-25T09:04:12Z</time>
      </trkpt>
      <trkpt lat="45.98592" lon="4.87216">
        <ele>277</ele>
        <time>2017-08-25T09:04:13Z</time>
      </trkpt>
      <trkpt lat="45.98592" lon="4.87224">
        <ele>277</ele>
        <time>2017-08-25T09:04:14Z</time>
      </trkpt>
      <trkpt lat="45.98593" lon="4.87233">
        <ele>277</ele>
        <time>2017-08-25T09:04:15Z</time>
      </trkpt>
      <trkpt lat="45.98593" lon="4.87241">
        <ele>277</ele>
        <time>2017-08-25T09:04:16Z</time>
      </trkpt>
      <trkpt lat="45.98593" lon="4.8725">
        <ele>276</ele>
        <time>2017-08-25T09:04:17Z</time>
      </trkpt>
      <trkpt lat="45.98593" lon="4.87259">
        <ele>275</ele>
        <time>2017-08-25T09:04:18Z</time>
      </trkpt>
      <trkpt lat="45.98593" lon="4.87271">
        <ele>275</ele>
        <time>2017-08-25T09:04:19Z</time>
      </trkpt>
      <trkpt lat="45.98593" lon="4.87281">
        <ele>275</ele>
        <time>2017-08-25T09:04:20Z</time>
      </trkpt>
      <trkpt lat="45.98593" lon="4.8729">
        <ele>275</ele>
        <time>2017-08-25T09:04:21Z</time>
      </trkpt>
      <trkpt lat="45.98593" lon="4.873">
        <ele>274</ele>
        <time>2017-08-25T09:04:22Z</time>
      </trkpt>
      <trkpt lat="45.98596" lon="4.87316">
        <ele>274</ele>
        <time>2017-08-25T09:04:23Z</time>
      </trkpt>
      <trkpt lat="45.98596" lon="4.87326">
        <ele>274</ele>
        <time>2017-08-25T09:04:24Z</time>
      </trkpt>
      <trkpt lat="45.98598" lon="4.87337">
        <ele>273</ele>
        <time>2017-08-25T09:04:25Z</time>
      </trkpt>
      <trkpt lat="45.986" lon="4.87347">
        <ele>272</ele>
        <time>2017-08-25T09:04:26Z</time>
      </trkpt>
      <trkpt lat="45.98602" lon="4.87358">
        <ele>272</ele>
        <time>2017-08-25T09:04:27Z</time>
      </trkpt>
      <trkpt lat="45.98605" lon="4.87368">
        <ele>272</ele>
        <time>2017-08-25T09:04:28Z</time>
      </trkpt>
      <trkpt lat="45.98606" lon="4.87378">
        <ele>271</ele>
        <time>2017-08-25T09:04:29Z</time>
      </trkpt>
      <trkpt lat="45.98608" lon="4.87388">
        <ele>271</ele>
        <time>2017-08-25T09:04:30Z</time>
      </trkpt>
      <trkpt lat="45.9861" lon="4.87398">
        <ele>271</ele>
        <time>2017-08-25T09:04:31Z</time>
      </trkpt>
      <trkpt lat="45.98612" lon="4.87408">
        <ele>271</ele>
        <time>2017-08-25T09:04:32Z</time>
      </trkpt>
      <trkpt lat="45.98614" lon="4.87418">
        <ele>269</ele>
        <time>2017-08-25T09:04:33Z</time>
      </trkpt>
      <trkpt lat="45.98617" lon="4.87429">
        <ele>269</ele>
        <time>2017-08-25T09:04:34Z</time>
      </trkpt>
      <trkpt lat="45.98619" lon="4.8744">
        <ele>269</ele>
        <time>2017-08-25T09:04:35Z</time>
      </trkpt>
      <trkpt lat="45.98621" lon="4.87451">
        <ele>268</ele>
        <time>2017-08-25T09:04:36Z</time>
      </trkpt>
      <trkpt lat="45.98623" lon="4.87462">
        <ele>268</ele>
        <time>2017-08-25T09:04:37Z</time>
      </trkpt>
      <trkpt lat="45.98624" lon="4.87473">
        <ele>268</ele>
        <time>2017-08-25T09:04:38Z</time>
      </trkpt>
      <trkpt lat="45.98626" lon="4.87484">
        <ele>268</ele>
        <time>2017-08-25T09:04:39Z</time>
      </trkpt>
      <trkpt lat="45.98629" lon="4.87494">
        <ele>268</ele>
        <time>2017-08-25T09:04:40Z</time>
      </trkpt>
      <trkpt lat="45.9863" lon="4.87504">
        <ele>267</ele>
        <time>2017-08-25T09:04:41Z</time>
      </trkpt>
      <trkpt lat="45.98633" lon="4.87514">
        <ele>267</ele>
        <time>2017-08-25T09:04:42Z</time>
      </trkpt>
      <trkpt lat="45.98635" lon="4.87524">
        <ele>267</ele>
        <time>2017-08-25T09:04:43Z</time>
      </trkpt>
      <trkpt lat="45.98637" lon="4.87534">
        <ele>267</ele>
        <time>2017-08-25T09:04:44Z</time>
      </trkpt>
      <trkpt lat="45.98639" lon="4.87543">
        <ele>267</ele>
        <time>2017-08-25T09:04:45Z</time>
      </trkpt>
      <trkpt lat="45.98644" lon="4.87554">
        <ele>267</ele>
        <time>2017-08-25T09:04:46Z</time>
      </trkpt>
      <trkpt lat="45.9865" lon="4.87562">
        <ele>267</ele>
        <time>2017-08-25T09:04:47Z</time>
      </trkpt>
      <trkpt lat="45.98656" lon="4.87568">
        <ele>267</ele>
        <time>2017-08-25T09:04:48Z</time>
      </trkpt>
      <trkpt lat="45.98662" lon="4.87571">
        <ele>267</ele>
        <time>2017-08-25T09:04:49Z</time>
      </trkpt>
      <trkpt lat="45.98668" lon="4.87571">
        <ele>267</ele>
        <time>2017-08-25T09:04:50Z</time>
      </trkpt>
      <trkpt lat="45.98674" lon="4.87571">
        <ele>267</ele>
        <time>2017-08-25T09:04:51Z</time>
      </trkpt>
      <trkpt lat="45.9868" lon="4.8757">
        <ele>267</ele>
        <time>2017-08-25T09:04:52Z</time>
      </trkpt>
      <trkpt lat="45.98685" lon="4.87569">
        <ele>267</ele>
        <time>2017-08-25T09:04:53Z</time>
      </trkpt>
      <trkpt lat="45.9869" lon="4.87568">
        <ele>267</ele>
        <time>2017-08-25T09:04:54Z</time>
      </trkpt>
      <trkpt lat="45.98696" lon="4.87566">
        <ele>267</ele>
        <time>2017-08-25T09:04:55Z</time>
      </trkpt>
      <trkpt lat="45.98701" lon="4.87565">
        <ele>267</ele>
        <time>2017-08-25T09:04:56Z</time>
      </trkpt>
      <trkpt lat="45.98706" lon="4.87563">
        <ele>267</ele>
        <time>2017-08-25T09:04:57Z</time>
      </trkpt>
      <trkpt lat="45.98711" lon="4.87561">
        <ele>267</ele>
        <time>2017-08-25T09:04:58Z</time>
      </trkpt>
      <trkpt lat="45.98719" lon="4.8756">
        <ele>267</ele>
        <time>2017-08-25T09:05:00Z</time>
      </trkpt>
      <trkpt lat="45.98723" lon="4.87559">
        <ele>267</ele>
        <time>2017-08-25T09:05:01Z</time>
      </trkpt>
      <trkpt lat="45.98732" lon="4.87559">
        <ele>267</ele>
        <time>2017-08-25T09:05:03Z</time>
      </trkpt>
      <trkpt lat="45.98736" lon="4.87559">
        <ele>267</ele>
        <time>2017-08-25T09:05:04Z</time>
      </trkpt>
      <trkpt lat="45.9874" lon="4.87562">
        <ele>267</ele>
        <time>2017-08-25T09:05:05Z</time>
      </trkpt>
      <trkpt lat="45.98745" lon="4.87565">
        <ele>267</ele>
        <time>2017-08-25T09:05:06Z</time>
      </trkpt>
      <trkpt lat="45.98752" lon="4.8757">
        <ele>268</ele>
        <time>2017-08-25T09:05:08Z</time>
      </trkpt>
      <trkpt lat="45.98756" lon="4.87573">
        <ele>268</ele>
        <time>2017-08-25T09:05:09Z</time>
      </trkpt>
      <trkpt lat="45.9876" lon="4.87577">
        <ele>268</ele>
        <time>2017-08-25T09:05:10Z</time>
      </trkpt>
      <trkpt lat="45.98765" lon="4.87581">
        <ele>269</ele>
        <time>2017-08-25T09:05:11Z</time>
      </trkpt>
      <trkpt lat="45.9877" lon="4.87586">
        <ele>270</ele>
        <time>2017-08-25T09:05:12Z</time>
      </trkpt>
      <trkpt lat="45.98773" lon="4.87591">
        <ele>270</ele>
        <time>2017-08-25T09:05:13Z</time>
      </trkpt>
      <trkpt lat="45.98777" lon="4.87596">
        <ele>270</ele>
        <time>2017-08-25T09:05:14Z</time>
      </trkpt>
      <trkpt lat="45.9878" lon="4.876">
        <ele>271</ele>
        <time>2017-08-25T09:05:15Z</time>
      </trkpt>
      <trkpt lat="45.98786" lon="4.8761">
        <ele>271</ele>
        <time>2017-08-25T09:05:17Z</time>
      </trkpt>
      <trkpt lat="45.98789" lon="4.87616">
        <ele>271</ele>
        <time>2017-08-25T09:05:18Z</time>
      </trkpt>
      <trkpt lat="45.98793" lon="4.87622">
        <ele>271</ele>
        <time>2017-08-25T09:05:19Z</time>
      </trkpt>
      <trkpt lat="45.98797" lon="4.87628">
        <ele>271</ele>
        <time>2017-08-25T09:05:20Z</time>
      </trkpt>
      <trkpt lat="45.98801" lon="4.87634">
        <ele>271</ele>
        <time>2017-08-25T09:05:21Z</time>
      </trkpt>
      <trkpt lat="45.98803" lon="4.87641">
        <ele>272</ele>
        <time>2017-08-25T09:05:22Z</time>
      </trkpt>
      <trkpt lat="45.98806" lon="4.87648">
        <ele>272</ele>
        <time>2017-08-25T09:05:23Z</time>
      </trkpt>
      <trkpt lat="45.98808" lon="4.87654">
        <ele>272</ele>
        <time>2017-08-25T09:05:24Z</time>
      </trkpt>
      <trkpt lat="45.98811" lon="4.87664">
        <ele>272</ele>
        <time>2017-08-25T09:05:26Z</time>
      </trkpt>
      <trkpt lat="45.98813" lon="4.87669">
        <ele>273</ele>
        <time>2017-08-25T09:05:27Z</time>
      </trkpt>
      <trkpt lat="45.98816" lon="4.87679">
        <ele>273</ele>
        <time>2017-08-25T09:05:29Z</time>
      </trkpt>
      <trkpt lat="45.98818" lon="4.87685">
        <ele>273</ele>
        <time>2017-08-25T09:05:30Z</time>
      </trkpt>
      <trkpt lat="45.98819" lon="4.87691">
        <ele>273</ele>
        <time>2017-08-25T09:05:31Z</time>
      </trkpt>
      <trkpt lat="45.98821" lon="4.87699">
        <ele>273</ele>
        <time>2017-08-25T09:05:32Z</time>
      </trkpt>
      <trkpt lat="45.98823" lon="4.87706">
        <ele>273</ele>
        <time>2017-08-25T09:05:33Z</time>
      </trkpt>
      <trkpt lat="45.98824" lon="4.87713">
        <ele>274</ele>
        <time>2017-08-25T09:05:34Z</time>
      </trkpt>
      <trkpt lat="45.98826" lon="4.87721">
        <ele>274</ele>
        <time>2017-08-25T09:05:35Z</time>
      </trkpt>
      <trkpt lat="45.98827" lon="4.87728">
        <ele>274</ele>
        <time>2017-08-25T09:05:36Z</time>
      </trkpt>
      <trkpt lat="45.98829" lon="4.87735">
        <ele>273</ele>
        <time>2017-08-25T09:05:37Z</time>
      </trkpt>
      <trkpt lat="45.9883" lon="4.87741">
        <ele>273</ele>
        <time>2017-08-25T09:05:38Z</time>
      </trkpt>
      <trkpt lat="45.98832" lon="4.87748">
        <ele>273</ele>
        <time>2017-08-25T09:05:39Z</time>
      </trkpt>
      <trkpt lat="45.98835" lon="4.87754">
        <ele>273</ele>
        <time>2017-08-25T09:05:40Z</time>
      </trkpt>
      <trkpt lat="45.98837" lon="4.87761">
        <ele>273</ele>
        <time>2017-08-25T09:05:41Z</time>
      </trkpt>
      <trkpt lat="45.98839" lon="4.87767">
        <ele>273</ele>
        <time>2017-08-25T09:05:42Z</time>
      </trkpt>
      <trkpt lat="45.9884" lon="4.87774">
        <ele>273</ele>
        <time>2017-08-25T09:05:43Z</time>
      </trkpt>
      <trkpt lat="45.98842" lon="4.87781">
        <ele>273</ele>
        <time>2017-08-25T09:05:44Z</time>
      </trkpt>
      <trkpt lat="45.98843" lon="4.87788">
        <ele>273</ele>
        <time>2017-08-25T09:05:45Z</time>
      </trkpt>
      <trkpt lat="45.98845" lon="4.87795">
        <ele>273</ele>
        <time>2017-08-25T09:05:46Z</time>
      </trkpt>
      <trkpt lat="45.98848" lon="4.87802">
        <ele>273</ele>
        <time>2017-08-25T09:05:47Z</time>
      </trkpt>
      <trkpt lat="45.98849" lon="4.87807">
        <ele>273</ele>
        <time>2017-08-25T09:05:48Z</time>
      </trkpt>
      <trkpt lat="45.98851" lon="4.87813">
        <ele>273</ele>
        <time>2017-08-25T09:05:49Z</time>
      </trkpt>
      <trkpt lat="45.98853" lon="4.87819">
        <ele>273</ele>
        <time>2017-08-25T09:05:50Z</time>
      </trkpt>
      <trkpt lat="45.98856" lon="4.87826">
        <ele>273</ele>
        <time>2017-08-25T09:05:51Z</time>
      </trkpt>
      <trkpt lat="45.98859" lon="4.87834">
        <ele>273</ele>
        <time>2017-08-25T09:05:52Z</time>
      </trkpt>
      <trkpt lat="45.98862" lon="4.8784">
        <ele>273</ele>
        <time>2017-08-25T09:05:53Z</time>
      </trkpt>
      <trkpt lat="45.98865" lon="4.87846">
        <ele>273</ele>
        <time>2017-08-25T09:05:54Z</time>
      </trkpt>
      <trkpt lat="45.98868" lon="4.87852">
        <ele>273</ele>
        <time>2017-08-25T09:05:55Z</time>
      </trkpt>
      <trkpt lat="45.98872" lon="4.87858">
        <ele>273</ele>
        <time>2017-08-25T09:05:56Z</time>
      </trkpt>
      <trkpt lat="45.98876" lon="4.87864">
        <ele>272</ele>
        <time>2017-08-25T09:05:57Z</time>
      </trkpt>
      <trkpt lat="45.9888" lon="4.87869">
        <ele>272</ele>
        <time>2017-08-25T09:05:58Z</time>
      </trkpt>
      <trkpt lat="45.98884" lon="4.87873">
        <ele>272</ele>
        <time>2017-08-25T09:05:59Z</time>
      </trkpt>
      <trkpt lat="45.98887" lon="4.87877">
        <ele>272</ele>
        <time>2017-08-25T09:06:00Z</time>
      </trkpt>
      <trkpt lat="45.9889" lon="4.87882">
        <ele>272</ele>
        <time>2017-08-25T09:06:01Z</time>
      </trkpt>
      <trkpt lat="45.98894" lon="4.87887">
        <ele>272</ele>
        <time>2017-08-25T09:06:02Z</time>
      </trkpt>
      <trkpt lat="45.98897" lon="4.87892">
        <ele>272</ele>
        <time>2017-08-25T09:06:03Z</time>
      </trkpt>
      <trkpt lat="45.98901" lon="4.87897">
        <ele>272</ele>
        <time>2017-08-25T09:06:04Z</time>
      </trkpt>
      <trkpt lat="45.98904" lon="4.87902">
        <ele>272</ele>
        <time>2017-08-25T09:06:05Z</time>
      </trkpt>
      <trkpt lat="45.98908" lon="4.87906">
        <ele>272</ele>
        <time>2017-08-25T09:06:06Z</time>
      </trkpt>
      <trkpt lat="45.98915" lon="4.87913">
        <ele>271</ele>
        <time>2017-08-25T09:06:08Z</time>
      </trkpt>
      <trkpt lat="45.98919" lon="4.87916">
        <ele>271</ele>
        <time>2017-08-25T09:06:09Z</time>
      </trkpt>
      <trkpt lat="45.98923" lon="4.87919">
        <ele>272</ele>
        <time>2017-08-25T09:06:10Z</time>
      </trkpt>
      <trkpt lat="45.98927" lon="4.87922">
        <ele>272</ele>
        <time>2017-08-25T09:06:11Z</time>
      </trkpt>
      <trkpt lat="45.98931" lon="4.87924">
        <ele>272</ele>
        <time>2017-08-25T09:06:12Z</time>
      </trkpt>
      <trkpt lat="45.98935" lon="4.87926">
        <ele>272</ele>
        <time>2017-08-25T09:06:13Z</time>
      </trkpt>
      <trkpt lat="45.98943" lon="4.87931">
        <ele>273</ele>
        <time>2017-08-25T09:06:15Z</time>
      </trkpt>
      <trkpt lat="45.98946" lon="4.87933">
        <ele>273</ele>
        <time>2017-08-25T09:06:16Z</time>
      </trkpt>
      <trkpt lat="45.98954" lon="4.87937">
        <ele>273</ele>
        <time>2017-08-25T09:06:18Z</time>
      </trkpt>
      <trkpt lat="45.98957" lon="4.87939">
        <ele>273</ele>
        <time>2017-08-25T09:06:19Z</time>
      </trkpt>
      <trkpt lat="45.98965" lon="4.87943">
        <ele>273</ele>
        <time>2017-08-25T09:06:21Z</time>
      </trkpt>
      <trkpt lat="45.98968" lon="4.87944">
        <ele>274</ele>
        <time>2017-08-25T09:06:22Z</time>
      </trkpt>
      <trkpt lat="45.98973" lon="4.87947">
        <ele>274</ele>
        <time>2017-08-25T09:06:23Z</time>
      </trkpt>
      <trkpt lat="45.98977" lon="4.87951">
        <ele>274</ele>
        <time>2017-08-25T09:06:24Z</time>
      </trkpt>
      <trkpt lat="45.98984" lon="4.87956">
        <ele>274</ele>
        <time>2017-08-25T09:06:26Z</time>
      </trkpt>
      <trkpt lat="45.98988" lon="4.87959">
        <ele>274</ele>
        <time>2017-08-25T09:06:27Z</time>
      </trkpt>
      <trkpt lat="45.98995" lon="4.87963">
        <ele>274</ele>
        <time>2017-08-25T09:06:29Z</time>
      </trkpt>
      <trkpt lat="45.98999" lon="4.87965">
        <ele>274</ele>
        <time>2017-08-25T09:06:30Z</time>
      </trkpt>
      <trkpt lat="45.99006" lon="4.87968">
        <ele>276</ele>
        <time>2017-08-25T09:06:32Z</time>
      </trkpt>
      <trkpt lat="45.99009" lon="4.8797">
        <ele>276</ele>
        <time>2017-08-25T09:06:33Z</time>
      </trkpt>
      <trkpt lat="45.99017" lon="4.87974">
        <ele>276</ele>
        <time>2017-08-25T09:06:35Z</time>
      </trkpt>
      <trkpt lat="45.99021" lon="4.87976">
        <ele>276</ele>
        <time>2017-08-25T09:06:36Z</time>
      </trkpt>
      <trkpt lat="45.99027" lon="4.8798">
        <ele>276</ele>
        <time>2017-08-25T09:06:38Z</time>
      </trkpt>
      <trkpt lat="45.99032" lon="4.87982">
        <ele>276</ele>
        <time>2017-08-25T09:06:39Z</time>
      </trkpt>
      <trkpt lat="45.99037" lon="4.87984">
        <ele>276</ele>
        <time>2017-08-25T09:06:40Z</time>
      </trkpt>
      <trkpt lat="45.99041" lon="4.87987">
        <ele>276</ele>
        <time>2017-08-25T09:06:41Z</time>
      </trkpt>
      <trkpt lat="45.99046" lon="4.87989">
        <ele>277</ele>
        <time>2017-08-25T09:06:42Z</time>
      </trkpt>
      <trkpt lat="45.9905" lon="4.87991">
        <ele>277</ele>
        <time>2017-08-25T09:06:43Z</time>
      </trkpt>
      <trkpt lat="45.99054" lon="4.87993">
        <ele>277</ele>
        <time>2017-08-25T09:06:44Z</time>
      </trkpt>
      <trkpt lat="45.99058" lon="4.87996">
        <ele>277</ele>
        <time>2017-08-25T09:06:45Z</time>
      </trkpt>
      <trkpt lat="45.99063" lon="4.87998">
        <ele>277</ele>
        <time>2017-08-25T09:06:46Z</time>
      </trkpt>
      <trkpt lat="45.99067" lon="4.88001">
        <ele>277</ele>
        <time>2017-08-25T09:06:47Z</time>
      </trkpt>
      <trkpt lat="45.99071" lon="4.88005">
        <ele>277</ele>
        <time>2017-08-25T09:06:48Z</time>
      </trkpt>
      <trkpt lat="45.99075" lon="4.88007">
        <ele>278</ele>
        <time>2017-08-25T09:06:49Z</time>
      </trkpt>
      <trkpt lat="45.99084" lon="4.88012">
        <ele>278</ele>
        <time>2017-08-25T09:06:51Z</time>
      </trkpt>
      <trkpt lat="45.99087" lon="4.88014">
        <ele>278</ele>
        <time>2017-08-25T09:06:52Z</time>
      </trkpt>
      <trkpt lat="45.99095" lon="4.88017">
        <ele>278</ele>
        <time>2017-08-25T09:06:54Z</time>
      </trkpt>
      <trkpt lat="45.99098" lon="4.88019">
        <ele>278</ele>
        <time>2017-08-25T09:06:55Z</time>
      </trkpt>
      <trkpt lat="45.99104" lon="4.88022">
        <ele>278</ele>
        <time>2017-08-25T09:06:57Z</time>
      </trkpt>
      <trkpt lat="45.99108" lon="4.88024">
        <ele>278</ele>
        <time>2017-08-25T09:06:58Z</time>
      </trkpt>
      <trkpt lat="45.99116" lon="4.88029">
        <ele>278</ele>
        <time>2017-08-25T09:07:00Z</time>
      </trkpt>
      <trkpt lat="45.9912" lon="4.88031">
        <ele>278</ele>
        <time>2017-08-25T09:07:01Z</time>
      </trkpt>
      <trkpt lat="45.99127" lon="4.88036">
        <ele>279</ele>
        <time>2017-08-25T09:07:03Z</time>
      </trkpt>
      <trkpt lat="45.99131" lon="4.88037">
        <ele>279</ele>
        <time>2017-08-25T09:07:04Z</time>
      </trkpt>
      <trkpt lat="45.99137" lon="4.8804">
        <ele>279</ele>
        <time>2017-08-25T09:07:06Z</time>
      </trkpt>
      <trkpt lat="45.99141" lon="4.88043">
        <ele>279</ele>
        <time>2017-08-25T09:07:07Z</time>
      </trkpt>
      <trkpt lat="45.99149" lon="4.88048">
        <ele>279</ele>
        <time>2017-08-25T09:07:09Z</time>
      </trkpt>
      <trkpt lat="45.99153" lon="4.88051">
        <ele>279</ele>
        <time>2017-08-25T09:07:10Z</time>
      </trkpt>
      <trkpt lat="45.99157" lon="4.88053">
        <ele>279</ele>
        <time>2017-08-25T09:07:11Z</time>
      </trkpt>
      <trkpt lat="45.99161" lon="4.88056">
        <ele>279</ele>
        <time>2017-08-25T09:07:12Z</time>
      </trkpt>
      <trkpt lat="45.99165" lon="4.88059">
        <ele>279</ele>
        <time>2017-08-25T09:07:13Z</time>
      </trkpt>
      <trkpt lat="45.99169" lon="4.88062">
        <ele>279</ele>
        <time>2017-08-25T09:07:14Z</time>
      </trkpt>
      <trkpt lat="45.99176" lon="4.88067">
        <ele>279</ele>
        <time>2017-08-25T09:07:16Z</time>
      </trkpt>
      <trkpt lat="45.99179" lon="4.88069">
        <ele>279</ele>
        <time>2017-08-25T09:07:17Z</time>
      </trkpt>
      <trkpt lat="45.99185" lon="4.88073">
        <ele>279</ele>
        <time>2017-08-25T09:07:19Z</time>
      </trkpt>
      <trkpt lat="45.99188" lon="4.88076">
        <ele>279</ele>
        <time>2017-08-25T09:07:20Z</time>
      </trkpt>
      <trkpt lat="45.99194" lon="4.88081">
        <ele>280</ele>
        <time>2017-08-25T09:07:22Z</time>
      </trkpt>
      <trkpt lat="45.99198" lon="4.88085">
        <ele>280</ele>
        <time>2017-08-25T09:07:23Z</time>
      </trkpt>
      <trkpt lat="45.99202" lon="4.88088">
        <ele>280</ele>
        <time>2017-08-25T09:07:24Z</time>
      </trkpt>
      <trkpt lat="45.99206" lon="4.88091">
        <ele>280</ele>
        <time>2017-08-25T09:07:25Z</time>
      </trkpt>
      <trkpt lat="45.9921" lon="4.88095">
        <ele>280</ele>
        <time>2017-08-25T09:07:26Z</time>
      </trkpt>
      <trkpt lat="45.99215" lon="4.88098">
        <ele>280</ele>
        <time>2017-08-25T09:07:27Z</time>
      </trkpt>
      <trkpt lat="45.99219" lon="4.88102">
        <ele>280</ele>
        <time>2017-08-25T09:07:28Z</time>
      </trkpt>
      <trkpt lat="45.99223" lon="4.88105">
        <ele>280</ele>
        <time>2017-08-25T09:07:29Z</time>
      </trkpt>
      <trkpt lat="45.9923" lon="4.88112">
        <ele>280</ele>
        <time>2017-08-25T09:07:31Z</time>
      </trkpt>
      <trkpt lat="45.99233" lon="4.88115">
        <ele>280</ele>
        <time>2017-08-25T09:07:32Z</time>
      </trkpt>
      <trkpt lat="45.9924" lon="4.88121">
        <ele>280</ele>
        <time>2017-08-25T09:07:34Z</time>
      </trkpt>
      <trkpt lat="45.99243" lon="4.88123">
        <ele>280</ele>
        <time>2017-08-25T09:07:35Z</time>
      </trkpt>
      <trkpt lat="45.99249" lon="4.88129">
        <ele>280</ele>
        <time>2017-08-25T09:07:37Z</time>
      </trkpt>
      <trkpt lat="45.99253" lon="4.88133">
        <ele>283</ele>
        <time>2017-08-25T09:07:38Z</time>
      </trkpt>
      <trkpt lat="45.99257" lon="4.88136">
        <ele>283</ele>
        <time>2017-08-25T09:07:39Z</time>
      </trkpt>
      <trkpt lat="45.99261" lon="4.88139">
        <ele>283</ele>
        <time>2017-08-25T09:07:40Z</time>
      </trkpt>
      <trkpt lat="45.99265" lon="4.88143">
        <ele>283</ele>
        <time>2017-08-25T09:07:41Z</time>
      </trkpt>
      <trkpt lat="45.99269" lon="4.88147">
        <ele>283</ele>
        <time>2017-08-25T09:07:42Z</time>
      </trkpt>
      <trkpt lat="45.99274" lon="4.88151">
        <ele>283</ele>
        <time>2017-08-25T09:07:43Z</time>
      </trkpt>
      <trkpt lat="45.99278" lon="4.88154">
        <ele>283</ele>
        <time>2017-08-25T09:07:44Z</time>
      </trkpt>
      <trkpt lat="45.99285" lon="4.88161">
        <ele>284</ele>
        <time>2017-08-25T09:07:46Z</time>
      </trkpt>
      <trkpt lat="45.99289" lon="4.88163">
        <ele>284</ele>
        <time>2017-08-25T09:07:47Z</time>
      </trkpt>
      <trkpt lat="45.99295" lon="4.88169">
        <ele>284</ele>
        <time>2017-08-25T09:07:49Z</time>
      </trkpt>
      <trkpt lat="45.99298" lon="4.88172">
        <ele>284</ele>
        <time>2017-08-25T09:07:50Z</time>
      </trkpt>
      <trkpt lat="45.99302" lon="4.88175">
        <ele>285</ele>
        <time>2017-08-25T09:07:51Z</time>
      </trkpt>
      <trkpt lat="45.99306" lon="4.88179">
        <ele>285</ele>
        <time>2017-08-25T09:07:52Z</time>
      </trkpt>
      <trkpt lat="45.9931" lon="4.88182">
        <ele>285</ele>
        <time>2017-08-25T09:07:53Z</time>
      </trkpt>
      <trkpt lat="45.99315" lon="4.88186">
        <ele>285</ele>
        <time>2017-08-25T09:07:54Z</time>
      </trkpt>
      <trkpt lat="45.99319" lon="4.88191">
        <ele>285</ele>
        <time>2017-08-25T09:07:55Z</time>
      </trkpt>
      <trkpt lat="45.99323" lon="4.88195">
        <ele>285</ele>
        <time>2017-08-25T09:07:56Z</time>
      </trkpt>
      <trkpt lat="45.99327" lon="4.88199">
        <ele>285</ele>
        <time>2017-08-25T09:07:57Z</time>
      </trkpt>
      <trkpt lat="45.99331" lon="4.88202">
        <ele>285</ele>
        <time>2017-08-25T09:07:58Z</time>
      </trkpt>
      <trkpt lat="45.99338" lon="4.88209">
        <ele>287</ele>
        <time>2017-08-25T09:08:00Z</time>
      </trkpt>
      <trkpt lat="45.99341" lon="4.88212">
        <ele>287</ele>
        <time>2017-08-25T09:08:01Z</time>
      </trkpt>
      <trkpt lat="45.99348" lon="4.88217">
        <ele>287</ele>
        <time>2017-08-25T09:08:03Z</time>
      </trkpt>
      <trkpt lat="45.99351" lon="4.88219">
        <ele>287</ele>
        <time>2017-08-25T09:08:04Z</time>
      </trkpt>
      <trkpt lat="45.99355" lon="4.88223">
        <ele>287</ele>
        <time>2017-08-25T09:08:05Z</time>
      </trkpt>
      <trkpt lat="45.99359" lon="4.88227">
        <ele>287</ele>
        <time>2017-08-25T09:08:06Z</time>
      </trkpt>
      <trkpt lat="45.99363" lon="4.88231">
        <ele>287</ele>
        <time>2017-08-25T09:08:07Z</time>
      </trkpt>
      <trkpt lat="45.99367" lon="4.88236">
        <ele>287</ele>
        <time>2017-08-25T09:08:08Z</time>
      </trkpt>
      <trkpt lat="45.99371" lon="4.88241">
        <ele>287</ele>
        <time>2017-08-25T09:08:09Z</time>
      </trkpt>
      <trkpt lat="45.99374" lon="4.88246">
        <ele>287</ele>
        <time>2017-08-25T09:08:10Z</time>
      </trkpt>
      <trkpt lat="45.99377" lon="4.88251">
        <ele>285</ele>
        <time>2017-08-25T09:08:11Z</time>
      </trkpt>
      <trkpt lat="45.9938" lon="4.88257">
        <ele>285</ele>
        <time>2017-08-25T09:08:12Z</time>
      </trkpt>
      <trkpt lat="45.99385" lon="4.88267">
        <ele>285</ele>
        <time>2017-08-25T09:08:14Z</time>
      </trkpt>
      <trkpt lat="45.99387" lon="4.88273">
        <ele>284</ele>
        <time>2017-08-25T09:08:15Z</time>
      </trkpt>
      <trkpt lat="45.9939" lon="4.88283">
        <ele>284</ele>
        <time>2017-08-25T09:08:17Z</time>
      </trkpt>
      <trkpt lat="45.99392" lon="4.88289">
        <ele>284</ele>
        <time>2017-08-25T09:08:18Z</time>
      </trkpt>
      <trkpt lat="45.99394" lon="4.88295">
        <ele>284</ele>
        <time>2017-08-25T09:08:19Z</time>
      </trkpt>
      <trkpt lat="45.99397" lon="4.88301">
        <ele>284</ele>
        <time>2017-08-25T09:08:20Z</time>
      </trkpt>
      <trkpt lat="45.99399" lon="4.88307">
        <ele>284</ele>
        <time>2017-08-25T09:08:21Z</time>
      </trkpt>
      <trkpt lat="45.99401" lon="4.88313">
        <ele>283</ele>
        <time>2017-08-25T09:08:22Z</time>
      </trkpt>
      <trkpt lat="45.99403" lon="4.8832">
        <ele>283</ele>
        <time>2017-08-25T09:08:23Z</time>
      </trkpt>
      <trkpt lat="45.99405" lon="4.88325">
        <ele>283</ele>
        <time>2017-08-25T09:08:24Z</time>
      </trkpt>
      <trkpt lat="45.99408" lon="4.88331">
        <ele>283</ele>
        <time>2017-08-25T09:08:25Z</time>
      </trkpt>
      <trkpt lat="45.99409" lon="4.88337">
        <ele>282</ele>
        <time>2017-08-25T09:08:26Z</time>
      </trkpt>
      <trkpt lat="45.99414" lon="4.88348">
        <ele>282</ele>
        <time>2017-08-25T09:08:28Z</time>
      </trkpt>
      <trkpt lat="45.99416" lon="4.88352">
        <ele>282</ele>
        <time>2017-08-25T09:08:29Z</time>
      </trkpt>
      <trkpt lat="45.9942" lon="4.88361">
        <ele>283</ele>
        <time>2017-08-25T09:08:31Z</time>
      </trkpt>
      <trkpt lat="45.99422" lon="4.88366">
        <ele>283</ele>
        <time>2017-08-25T09:08:32Z</time>
      </trkpt>
      <trkpt lat="45.99426" lon="4.88377">
        <ele>283</ele>
        <time>2017-08-25T09:08:34Z</time>
      </trkpt>
      <trkpt lat="45.99428" lon="4.88383">
        <ele>283</ele>
        <time>2017-08-25T09:08:35Z</time>
      </trkpt>
      <trkpt lat="45.99431" lon="4.88389">
        <ele>283</ele>
        <time>2017-08-25T09:08:36Z</time>
      </trkpt>
      <trkpt lat="45.99434" lon="4.88395">
        <ele>283</ele>
        <time>2017-08-25T09:08:37Z</time>
      </trkpt>
      <trkpt lat="45.99437" lon="4.88401">
        <ele>283</ele>
        <time>2017-08-25T09:08:38Z</time>
      </trkpt>
      <trkpt lat="45.99441" lon="4.88407">
        <ele>283</ele>
        <time>2017-08-25T09:08:39Z</time>
      </trkpt>
      <trkpt lat="45.99445" lon="4.88411">
        <ele>283</ele>
        <time>2017-08-25T09:08:40Z</time>
      </trkpt>
      <trkpt lat="45.99449" lon="4.88416">
        <ele>283</ele>
        <time>2017-08-25T09:08:41Z</time>
      </trkpt>
      <trkpt lat="45.99452" lon="4.88419">
        <ele>283</ele>
        <time>2017-08-25T09:08:42Z</time>
      </trkpt>
      <trkpt lat="45.99457" lon="4.88423">
        <ele>283</ele>
        <time>2017-08-25T09:08:43Z</time>
      </trkpt>
      <trkpt lat="45.99461" lon="4.88426">
        <ele>284</ele>
        <time>2017-08-25T09:08:44Z</time>
      </trkpt>
      <trkpt lat="45.99465" lon="4.88429">
        <ele>284</ele>
        <time>2017-08-25T09:08:45Z</time>
      </trkpt>
      <trkpt lat="45.9947" lon="4.88433">
        <ele>284</ele>
        <time>2017-08-25T09:08:46Z</time>
      </trkpt>
      <trkpt lat="45.99474" lon="4.88438">
        <ele>284</ele>
        <time>2017-08-25T09:08:47Z</time>
      </trkpt>
      <trkpt lat="45.99478" lon="4.88443">
        <ele>284</ele>
        <time>2017-08-25T09:08:48Z</time>
      </trkpt>
      <trkpt lat="45.99482" lon="4.88448">
        <ele>284</ele>
        <time>2017-08-25T09:08:49Z</time>
      </trkpt>
      <trkpt lat="45.99486" lon="4.88454">
        <ele>284</ele>
        <time>2017-08-25T09:08:50Z</time>
      </trkpt>
      <trkpt lat="45.99489" lon="4.88459">
        <ele>284</ele>
        <time>2017-08-25T09:08:51Z</time>
      </trkpt>
      <trkpt lat="45.99492" lon="4.88465">
        <ele>284</ele>
        <time>2017-08-25T09:08:52Z</time>
      </trkpt>
      <trkpt lat="45.99495" lon="4.8847">
        <ele>284</ele>
        <time>2017-08-25T09:08:53Z</time>
      </trkpt>
      <trkpt lat="45.99498" lon="4.88475">
        <ele>284</ele>
        <time>2017-08-25T09:08:54Z</time>
      </trkpt>
      <trkpt lat="45.995" lon="4.8848">
        <ele>284</ele>
        <time>2017-08-25T09:08:55Z</time>
      </trkpt>
      <trkpt lat="45.99503" lon="4.88486">
        <ele>284</ele>
        <time>2017-08-25T09:08:56Z</time>
      </trkpt>
      <trkpt lat="45.99506" lon="4.88491">
        <ele>284</ele>
        <time>2017-08-25T09:08:57Z</time>
      </trkpt>
      <trkpt lat="45.99509" lon="4.88496">
        <ele>284</ele>
        <time>2017-08-25T09:08:58Z</time>
      </trkpt>
      <trkpt lat="45.99512" lon="4.88502">
        <ele>284</ele>
        <time>2017-08-25T09:08:59Z</time>
      </trkpt>
      <trkpt lat="45.99515" lon="4.88508">
        <ele>285</ele>
        <time>2017-08-25T09:09:00Z</time>
      </trkpt>
      <trkpt lat="45.99518" lon="4.88515">
        <ele>285</ele>
        <time>2017-08-25T09:09:01Z</time>
      </trkpt>
      <trkpt lat="45.99521" lon="4.8852">
        <ele>285</ele>
        <time>2017-08-25T09:09:02Z</time>
      </trkpt>
      <trkpt lat="45.99524" lon="4.88526">
        <ele>285</ele>
        <time>2017-08-25T09:09:03Z</time>
      </trkpt>
      <trkpt lat="45.99528" lon="4.88537">
        <ele>285</ele>
        <time>2017-08-25T09:09:05Z</time>
      </trkpt>
      <trkpt lat="45.99531" lon="4.88542">
        <ele>285</ele>
        <time>2017-08-25T09:09:06Z</time>
      </trkpt>
      <trkpt lat="45.99536" lon="4.88552">
        <ele>285</ele>
        <time>2017-08-25T09:09:08Z</time>
      </trkpt>
      <trkpt lat="45.99538" lon="4.88558">
        <ele>285</ele>
        <time>2017-08-25T09:09:09Z</time>
      </trkpt>
      <trkpt lat="45.9954" lon="4.88563">
        <ele>285</ele>
        <time>2017-08-25T09:09:10Z</time>
      </trkpt>
      <trkpt lat="45.99542" lon="4.88569">
        <ele>285</ele>
        <time>2017-08-25T09:09:11Z</time>
      </trkpt>
      <trkpt lat="45.99544" lon="4.88576">
        <ele>286</ele>
        <time>2017-08-25T09:09:12Z</time>
      </trkpt>
      <trkpt lat="45.99545" lon="4.88583">
        <ele>286</ele>
        <time>2017-08-25T09:09:13Z</time>
      </trkpt>
      <trkpt lat="45.99546" lon="4.8859">
        <ele>286</ele>
        <time>2017-08-25T09:09:14Z</time>
      </trkpt>
      <trkpt lat="45.99547" lon="4.88596">
        <ele>286</ele>
        <time>2017-08-25T09:09:15Z</time>
      </trkpt>
      <trkpt lat="45.99548" lon="4.88608">
        <ele>286</ele>
        <time>2017-08-25T09:09:17Z</time>
      </trkpt>
      <trkpt lat="45.99549" lon="4.88614">
        <ele>286</ele>
        <time>2017-08-25T09:09:18Z</time>
      </trkpt>
      <trkpt lat="45.9955" lon="4.8862">
        <ele>286</ele>
        <time>2017-08-25T09:09:19Z</time>
      </trkpt>
      <trkpt lat="45.99551" lon="4.88627">
        <ele>286</ele>
        <time>2017-08-25T09:09:20Z</time>
      </trkpt>
      <trkpt lat="45.99551" lon="4.88633">
        <ele>286</ele>
        <time>2017-08-25T09:09:21Z</time>
      </trkpt>
      <trkpt lat="45.99552" lon="4.8864">
        <ele>286</ele>
        <time>2017-08-25T09:09:22Z</time>
      </trkpt>
      <trkpt lat="45.99552" lon="4.88647">
        <ele>286</ele>
        <time>2017-08-25T09:09:23Z</time>
      </trkpt>
      <trkpt lat="45.99552" lon="4.88653">
        <ele>286</ele>
        <time>2017-08-25T09:09:24Z</time>
      </trkpt>
      <trkpt lat="45.99553" lon="4.88664">
        <ele>286</ele>
        <time>2017-08-25T09:09:26Z</time>
      </trkpt>
      <trkpt lat="45.99553" lon="4.88669">
        <ele>286</ele>
        <time>2017-08-25T09:09:27Z</time>
      </trkpt>
      <trkpt lat="45.99553" lon="4.88679">
        <ele>286</ele>
        <time>2017-08-25T09:09:29Z</time>
      </trkpt>
      <trkpt lat="45.99554" lon="4.88684">
        <ele>286</ele>
        <time>2017-08-25T09:09:30Z</time>
      </trkpt>
      <trkpt lat="45.99554" lon="4.88691">
        <ele>286</ele>
        <time>2017-08-25T09:09:31Z</time>
      </trkpt>
      <trkpt lat="45.99554" lon="4.88697">
        <ele>286</ele>
        <time>2017-08-25T09:09:32Z</time>
      </trkpt>
      <trkpt lat="45.99555" lon="4.88705">
        <ele>286</ele>
        <time>2017-08-25T09:09:33Z</time>
      </trkpt>
      <trkpt lat="45.99556" lon="4.88712">
        <ele>286</ele>
        <time>2017-08-25T09:09:34Z</time>
      </trkpt>
      <trkpt lat="45.99557" lon="4.8872">
        <ele>286</ele>
        <time>2017-08-25T09:09:35Z</time>
      </trkpt>
      <trkpt lat="45.99558" lon="4.88727">
        <ele>286</ele>
        <time>2017-08-25T09:09:36Z</time>
      </trkpt>
      <trkpt lat="45.99559" lon="4.88734">
        <ele>286</ele>
        <time>2017-08-25T09:09:37Z</time>
      </trkpt>
      <trkpt lat="45.99559" lon="4.88741">
        <ele>287</ele>
        <time>2017-08-25T09:09:38Z</time>
      </trkpt>
      <trkpt lat="45.9956" lon="4.88753">
        <ele>287</ele>
        <time>2017-08-25T09:09:40Z</time>
      </trkpt>
      <trkpt lat="45.99561" lon="4.88759">
        <ele>287</ele>
        <time>2017-08-25T09:09:41Z</time>
      </trkpt>
      <trkpt lat="45.99562" lon="4.8877">
        <ele>287</ele>
        <time>2017-08-25T09:09:43Z</time>
      </trkpt>
      <trkpt lat="45.99562" lon="4.88775">
        <ele>287</ele>
        <time>2017-08-25T09:09:44Z</time>
      </trkpt>
      <trkpt lat="45.99563" lon="4.88786">
        <ele>287</ele>
        <time>2017-08-25T09:09:46Z</time>
      </trkpt>
      <trkpt lat="45.99563" lon="4.88793">
        <ele>287</ele>
        <time>2017-08-25T09:09:47Z</time>
      </trkpt>
      <trkpt lat="45.99564" lon="4.88799">
        <ele>287</ele>
        <time>2017-08-25T09:09:48Z</time>
      </trkpt>
      <trkpt lat="45.99565" lon="4.88806">
        <ele>287</ele>
        <time>2017-08-25T09:09:49Z</time>
      </trkpt>
      <trkpt lat="45.99565" lon="4.88813">
        <ele>287</ele>
        <time>2017-08-25T09:09:50Z</time>
      </trkpt>
      <trkpt lat="45.99566" lon="4.8882">
        <ele>287</ele>
        <time>2017-08-25T09:09:51Z</time>
      </trkpt>
      <trkpt lat="45.99567" lon="4.88826">
        <ele>287</ele>
        <time>2017-08-25T09:09:52Z</time>
      </trkpt>
      <trkpt lat="45.99567" lon="4.88833">
        <ele>287</ele>
        <time>2017-08-25T09:09:53Z</time>
      </trkpt>
      <trkpt lat="45.99568" lon="4.88845">
        <ele>287</ele>
        <time>2017-08-25T09:09:55Z</time>
      </trkpt>
      <trkpt lat="45.99569" lon="4.88851">
        <ele>287</ele>
        <time>2017-08-25T09:09:56Z</time>
      </trkpt>
      <trkpt lat="45.9957" lon="4.88862">
        <ele>287</ele>
        <time>2017-08-25T09:09:58Z</time>
      </trkpt>
      <trkpt lat="45.9957" lon="4.88868">
        <ele>287</ele>
        <time>2017-08-25T09:09:59Z</time>
      </trkpt>
      <trkpt lat="45.99571" lon="4.8888">
        <ele>287</ele>
        <time>2017-08-25T09:10:01Z</time>
      </trkpt>
      <trkpt lat="45.99571" lon="4.88886">
        <ele>287</ele>
        <time>2017-08-25T09:10:02Z</time>
      </trkpt>
      <trkpt lat="45.99572" lon="4.88893">
        <ele>287</ele>
        <time>2017-08-25T09:10:03Z</time>
      </trkpt>
      <trkpt lat="45.99573" lon="4.889">
        <ele>287</ele>
        <time>2017-08-25T09:10:04Z</time>
      </trkpt>
      <trkpt lat="45.99574" lon="4.88907">
        <ele>287</ele>
        <time>2017-08-25T09:10:05Z</time>
      </trkpt>
      <trkpt lat="45.99575" lon="4.88915">
        <ele>287</ele>
        <time>2017-08-25T09:10:06Z</time>
      </trkpt>
      <trkpt lat="45.99575" lon="4.88922">
        <ele>287</ele>
        <time>2017-08-25T09:10:07Z</time>
      </trkpt>
      <trkpt lat="45.99576" lon="4.88928">
        <ele>287</ele>
        <time>2017-08-25T09:10:08Z</time>
      </trkpt>
      <trkpt lat="45.99576" lon="4.8894">
        <ele>287</ele>
        <time>2017-08-25T09:10:10Z</time>
      </trkpt>
      <trkpt lat="45.99577" lon="4.88945">
        <ele>287</ele>
        <time>2017-08-25T09:10:11Z</time>
      </trkpt>
      <trkpt lat="45.99577" lon="4.88956">
        <ele>287</ele>
        <time>2017-08-25T09:10:13Z</time>
      </trkpt>
      <trkpt lat="45.99578" lon="4.88962">
        <ele>287</ele>
        <time>2017-08-25T09:10:14Z</time>
      </trkpt>
      <trkpt lat="45.99578" lon="4.88968">
        <ele>287</ele>
        <time>2017-08-25T09:10:15Z</time>
      </trkpt>
      <trkpt lat="45.99579" lon="4.88975">
        <ele>287</ele>
        <time>2017-08-25T09:10:16Z</time>
      </trkpt>
      <trkpt lat="45.99579" lon="4.88982">
        <ele>287</ele>
        <time>2017-08-25T09:10:17Z</time>
      </trkpt>
      <trkpt lat="45.99579" lon="4.88989">
        <ele>288</ele>
        <time>2017-08-25T09:10:18Z</time>
      </trkpt>
      <trkpt lat="45.99579" lon="4.88997">
        <ele>288</ele>
        <time>2017-08-25T09:10:19Z</time>
      </trkpt>
      <trkpt lat="45.99579" lon="4.89005">
        <ele>288</ele>
        <time>2017-08-25T09:10:20Z</time>
      </trkpt>
      <trkpt lat="45.99579" lon="4.89012">
        <ele>288</ele>
        <time>2017-08-25T09:10:21Z</time>
      </trkpt>
      <trkpt lat="45.99579" lon="4.8902">
        <ele>288</ele>
        <time>2017-08-25T09:10:22Z</time>
      </trkpt>
      <trkpt lat="45.99578" lon="4.89027">
        <ele>288</ele>
        <time>2017-08-25T09:10:23Z</time>
      </trkpt>
      <trkpt lat="45.99578" lon="4.89034">
        <ele>288</ele>
        <time>2017-08-25T09:10:24Z</time>
      </trkpt>
      <trkpt lat="45.99577" lon="4.89041">
        <ele>288</ele>
        <time>2017-08-25T09:10:25Z</time>
      </trkpt>
      <trkpt lat="45.99577" lon="4.89047">
        <ele>288</ele>
        <time>2017-08-25T09:10:26Z</time>
      </trkpt>
      <trkpt lat="45.99576" lon="4.89054">
        <ele>288</ele>
        <time>2017-08-25T09:10:27Z</time>
      </trkpt>
      <trkpt lat="45.99574" lon="4.89061">
        <ele>289</ele>
        <time>2017-08-25T09:10:28Z</time>
      </trkpt>
      <trkpt lat="45.99573" lon="4.89068">
        <ele>289</ele>
        <time>2017-08-25T09:10:29Z</time>
      </trkpt>
      <trkpt lat="45.99572" lon="4.89076">
        <ele>289</ele>
        <time>2017-08-25T09:10:30Z</time>
      </trkpt>
      <trkpt lat="45.99572" lon="4.89085">
        <ele>289</ele>
        <time>2017-08-25T09:10:31Z</time>
      </trkpt>
      <trkpt lat="45.99572" lon="4.89092">
        <ele>289</ele>
        <time>2017-08-25T09:10:32Z</time>
      </trkpt>
      <trkpt lat="45.99572" lon="4.89099">
        <ele>289</ele>
        <time>2017-08-25T09:10:33Z</time>
      </trkpt>
      <trkpt lat="45.99572" lon="4.89106">
        <ele>289</ele>
        <time>2017-08-25T09:10:34Z</time>
      </trkpt>
      <trkpt lat="45.99572" lon="4.89112">
        <ele>289</ele>
        <time>2017-08-25T09:10:35Z</time>
      </trkpt>
      <trkpt lat="45.99573" lon="4.89119">
        <ele>289</ele>
        <time>2017-08-25T09:10:36Z</time>
      </trkpt>
      <trkpt lat="45.99573" lon="4.89125">
        <ele>289</ele>
        <time>2017-08-25T09:10:37Z</time>
      </trkpt>
      <trkpt lat="45.99573" lon="4.89132">
        <ele>289</ele>
        <time>2017-08-25T09:10:38Z</time>
      </trkpt>
      <trkpt lat="45.99573" lon="4.89139">
        <ele>289</ele>
        <time>2017-08-25T09:10:39Z</time>
      </trkpt>
      <trkpt lat="45.99573" lon="4.89147">
        <ele>289</ele>
        <time>2017-08-25T09:10:40Z</time>
      </trkpt>
      <trkpt lat="45.99573" lon="4.89155">
        <ele>289</ele>
        <time>2017-08-25T09:10:41Z</time>
      </trkpt>
      <trkpt lat="45.99574" lon="4.89163">
        <ele>288</ele>
        <time>2017-08-25T09:10:42Z</time>
      </trkpt>
      <trkpt lat="45.99574" lon="4.89172">
        <ele>288</ele>
        <time>2017-08-25T09:10:43Z</time>
      </trkpt>
      <trkpt lat="45.99574" lon="4.8918">
        <ele>288</ele>
        <time>2017-08-25T09:10:44Z</time>
      </trkpt>
      <trkpt lat="45.99575" lon="4.89188">
        <ele>288</ele>
        <time>2017-08-25T09:10:45Z</time>
      </trkpt>
      <trkpt lat="45.99575" lon="4.89197">
        <ele>288</ele>
        <time>2017-08-25T09:10:46Z</time>
      </trkpt>
      <trkpt lat="45.99576" lon="4.89206">
        <ele>288</ele>
        <time>2017-08-25T09:10:47Z</time>
      </trkpt>
      <trkpt lat="45.99576" lon="4.89214">
        <ele>288</ele>
        <time>2017-08-25T09:10:48Z</time>
      </trkpt>
      <trkpt lat="45.99576" lon="4.89222">
        <ele>288</ele>
        <time>2017-08-25T09:10:49Z</time>
      </trkpt>
      <trkpt lat="45.99577" lon="4.8923">
        <ele>288</ele>
        <time>2017-08-25T09:10:50Z</time>
      </trkpt>
      <trkpt lat="45.99577" lon="4.89237">
        <ele>288</ele>
        <time>2017-08-25T09:10:51Z</time>
      </trkpt>
      <trkpt lat="45.99577" lon="4.89244">
        <ele>288</ele>
        <time>2017-08-25T09:10:52Z</time>
      </trkpt>
      <trkpt lat="45.99577" lon="4.89251">
        <ele>288</ele>
        <time>2017-08-25T09:10:53Z</time>
      </trkpt>
      <trkpt lat="45.99578" lon="4.89258">
        <ele>288</ele>
        <time>2017-08-25T09:10:54Z</time>
      </trkpt>
      <trkpt lat="45.99579" lon="4.89264">
        <ele>288</ele>
        <time>2017-08-25T09:10:55Z</time>
      </trkpt>
      <trkpt lat="45.99579" lon="4.89271">
        <ele>288</ele>
        <time>2017-08-25T09:10:56Z</time>
      </trkpt>
      <trkpt lat="45.9958" lon="4.89278">
        <ele>288</ele>
        <time>2017-08-25T09:10:57Z</time>
      </trkpt>
      <trkpt lat="45.9958" lon="4.89286">
        <ele>288</ele>
        <time>2017-08-25T09:10:58Z</time>
      </trkpt>
      <trkpt lat="45.9958" lon="4.89294">
        <ele>288</ele>
        <time>2017-08-25T09:10:59Z</time>
      </trkpt>
      <trkpt lat="45.9958" lon="4.89302">
        <ele>288</ele>
        <time>2017-08-25T09:11:00Z</time>
      </trkpt>
      <trkpt lat="45.99581" lon="4.8931">
        <ele>288</ele>
        <time>2017-08-25T09:11:01Z</time>
      </trkpt>
      <trkpt lat="45.99581" lon="4.89318">
        <ele>288</ele>
        <time>2017-08-25T09:11:02Z</time>
      </trkpt>
      <trkpt lat="45.99582" lon="4.89327">
        <ele>289</ele>
        <time>2017-08-25T09:11:03Z</time>
      </trkpt>
      <trkpt lat="45.99583" lon="4.89334">
        <ele>289</ele>
        <time>2017-08-25T09:11:04Z</time>
      </trkpt>
      <trkpt lat="45.99583" lon="4.89341">
        <ele>289</ele>
        <time>2017-08-25T09:11:05Z</time>
      </trkpt>
      <trkpt lat="45.99584" lon="4.89348">
        <ele>289</ele>
        <time>2017-08-25T09:11:06Z</time>
      </trkpt>
      <trkpt lat="45.99585" lon="4.8936">
        <ele>289</ele>
        <time>2017-08-25T09:11:08Z</time>
      </trkpt>
      <trkpt lat="45.99586" lon="4.89366">
        <ele>289</ele>
        <time>2017-08-25T09:11:09Z</time>
      </trkpt>
      <trkpt lat="45.99587" lon="4.89379">
        <ele>290</ele>
        <time>2017-08-25T09:11:11Z</time>
      </trkpt>
      <trkpt lat="45.99588" lon="4.89386">
        <ele>290</ele>
        <time>2017-08-25T09:11:12Z</time>
      </trkpt>
      <trkpt lat="45.99588" lon="4.89393">
        <ele>290</ele>
        <time>2017-08-25T09:11:13Z</time>
      </trkpt>
      <trkpt lat="45.99589" lon="4.89401">
        <ele>290</ele>
        <time>2017-08-25T09:11:14Z</time>
      </trkpt>
      <trkpt lat="45.9959" lon="4.89408">
        <ele>290</ele>
        <time>2017-08-25T09:11:15Z</time>
      </trkpt>
      <trkpt lat="45.9959" lon="4.89416">
        <ele>290</ele>
        <time>2017-08-25T09:11:16Z</time>
      </trkpt>
      <trkpt lat="45.99591" lon="4.89423">
        <ele>290</ele>
        <time>2017-08-25T09:11:17Z</time>
      </trkpt>
      <trkpt lat="45.99591" lon="4.8943">
        <ele>290</ele>
        <time>2017-08-25T09:11:18Z</time>
      </trkpt>
      <trkpt lat="45.99591" lon="4.89437">
        <ele>290</ele>
        <time>2017-08-25T09:11:19Z</time>
      </trkpt>
      <trkpt lat="45.99592" lon="4.89444">
        <ele>290</ele>
        <time>2017-08-25T09:11:20Z</time>
      </trkpt>
      <trkpt lat="45.99592" lon="4.89456">
        <ele>290</ele>
        <time>2017-08-25T09:11:22Z</time>
      </trkpt>
      <trkpt lat="45.99592" lon="4.89463">
        <ele>290</ele>
        <time>2017-08-25T09:11:23Z</time>
      </trkpt>
      <trkpt lat="45.99593" lon="4.8947">
        <ele>290</ele>
        <time>2017-08-25T09:11:24Z</time>
      </trkpt>
      <trkpt lat="45.99593" lon="4.89477">
        <ele>290</ele>
        <time>2017-08-25T09:11:25Z</time>
      </trkpt>
      <trkpt lat="45.99593" lon="4.89484">
        <ele>290</ele>
        <time>2017-08-25T09:11:26Z</time>
      </trkpt>
      <trkpt lat="45.99594" lon="4.89492">
        <ele>290</ele>
        <time>2017-08-25T09:11:27Z</time>
      </trkpt>
      <trkpt lat="45.99595" lon="4.895">
        <ele>290</ele>
        <time>2017-08-25T09:11:28Z</time>
      </trkpt>
      <trkpt lat="45.99595" lon="4.89508">
        <ele>290</ele>
        <time>2017-08-25T09:11:29Z</time>
      </trkpt>
      <trkpt lat="45.99596" lon="4.89516">
        <ele>290</ele>
        <time>2017-08-25T09:11:30Z</time>
      </trkpt>
      <trkpt lat="45.99596" lon="4.89524">
        <ele>291</ele>
        <time>2017-08-25T09:11:31Z</time>
      </trkpt>
      <trkpt lat="45.99596" lon="4.89532">
        <ele>291</ele>
        <time>2017-08-25T09:11:32Z</time>
      </trkpt>
      <trkpt lat="45.99596" lon="4.89539">
        <ele>291</ele>
        <time>2017-08-25T09:11:33Z</time>
      </trkpt>
      <trkpt lat="45.99596" lon="4.89546">
        <ele>291</ele>
        <time>2017-08-25T09:11:34Z</time>
      </trkpt>
      <trkpt lat="45.99596" lon="4.89553">
        <ele>291</ele>
        <time>2017-08-25T09:11:35Z</time>
      </trkpt>
      <trkpt lat="45.99597" lon="4.8956">
        <ele>291</ele>
        <time>2017-08-25T09:11:36Z</time>
      </trkpt>
      <trkpt lat="45.99597" lon="4.89566">
        <ele>291</ele>
        <time>2017-08-25T09:11:37Z</time>
      </trkpt>
      <trkpt lat="45.99597" lon="4.89578">
        <ele>291</ele>
        <time>2017-08-25T09:11:39Z</time>
      </trkpt>
      <trkpt lat="45.99597" lon="4.89585">
        <ele>292</ele>
        <time>2017-08-25T09:11:40Z</time>
      </trkpt>
      <trkpt lat="45.99597" lon="4.89591">
        <ele>292</ele>
        <time>2017-08-25T09:11:41Z</time>
      </trkpt>
      <trkpt lat="45.99597" lon="4.89599">
        <ele>292</ele>
        <time>2017-08-25T09:11:42Z</time>
      </trkpt>
      <trkpt lat="45.99598" lon="4.89606">
        <ele>292</ele>
        <time>2017-08-25T09:11:43Z</time>
      </trkpt>
      <trkpt lat="45.99598" lon="4.89614">
        <ele>292</ele>
        <time>2017-08-25T09:11:44Z</time>
      </trkpt>
      <trkpt lat="45.99598" lon="4.89622">
        <ele>291</ele>
        <time>2017-08-25T09:11:45Z</time>
      </trkpt>
      <trkpt lat="45.99598" lon="4.8963">
        <ele>291</ele>
        <time>2017-08-25T09:11:46Z</time>
      </trkpt>
      <trkpt lat="45.99598" lon="4.89637">
        <ele>291</ele>
        <time>2017-08-25T09:11:47Z</time>
      </trkpt>
      <trkpt lat="45.99597" lon="4.89643">
        <ele>292</ele>
        <time>2017-08-25T09:11:48Z</time>
      </trkpt>
      <trkpt lat="45.99598" lon="4.89655">
        <ele>292</ele>
        <time>2017-08-25T09:11:50Z</time>
      </trkpt>
      <trkpt lat="45.99598" lon="4.89661">
        <ele>292</ele>
        <time>2017-08-25T09:11:51Z</time>
      </trkpt>
      <trkpt lat="45.99597" lon="4.89674">
        <ele>292</ele>
        <time>2017-08-25T09:11:53Z</time>
      </trkpt>
      <trkpt lat="45.99597" lon="4.89681">
        <ele>292</ele>
        <time>2017-08-25T09:11:54Z</time>
      </trkpt>
      <trkpt lat="45.99597" lon="4.89688">
        <ele>292</ele>
        <time>2017-08-25T09:11:55Z</time>
      </trkpt>
      <trkpt lat="45.99597" lon="4.89695">
        <ele>292</ele>
        <time>2017-08-25T09:11:56Z</time>
      </trkpt>
      <trkpt lat="45.99597" lon="4.89702">
        <ele>292</ele>
        <time>2017-08-25T09:11:57Z</time>
      </trkpt>
      <trkpt lat="45.99597" lon="4.8971">
        <ele>292</ele>
        <time>2017-08-25T09:11:58Z</time>
      </trkpt>
      <trkpt lat="45.99596" lon="4.89716">
        <ele>292</ele>
        <time>2017-08-25T09:11:59Z</time>
      </trkpt>
      <trkpt lat="45.99596" lon="4.89723">
        <ele>292</ele>
        <time>2017-08-25T09:12:00Z</time>
      </trkpt>
      <trkpt lat="45.99594" lon="4.89735">
        <ele>292</ele>
        <time>2017-08-25T09:12:02Z</time>
      </trkpt>
      <trkpt lat="45.99593" lon="4.89742">
        <ele>292</ele>
        <time>2017-08-25T09:12:03Z</time>
      </trkpt>
      <trkpt lat="45.99591" lon="4.89753">
        <ele>293</ele>
        <time>2017-08-25T09:12:05Z</time>
      </trkpt>
      <trkpt lat="45.9959" lon="4.89759">
        <ele>293</ele>
        <time>2017-08-25T09:12:06Z</time>
      </trkpt>
      <trkpt lat="45.99589" lon="4.89772">
        <ele>292</ele>
        <time>2017-08-25T09:12:08Z</time>
      </trkpt>
      <trkpt lat="45.99589" lon="4.89779">
        <ele>292</ele>
        <time>2017-08-25T09:12:09Z</time>
      </trkpt>
      <trkpt lat="45.99589" lon="4.89787">
        <ele>292</ele>
        <time>2017-08-25T09:12:10Z</time>
      </trkpt>
      <trkpt lat="45.99589" lon="4.89794">
        <ele>292</ele>
        <time>2017-08-25T09:12:11Z</time>
      </trkpt>
      <trkpt lat="45.99589" lon="4.89801">
        <ele>292</ele>
        <time>2017-08-25T09:12:12Z</time>
      </trkpt>
      <trkpt lat="45.99589" lon="4.89807">
        <ele>292</ele>
        <time>2017-08-25T09:12:13Z</time>
      </trkpt>
      <trkpt lat="45.99589" lon="4.8982">
        <ele>293</ele>
        <time>2017-08-25T09:12:15Z</time>
      </trkpt>
      <trkpt lat="45.99589" lon="4.89824">
        <ele>293</ele>
        <time>2017-08-25T09:12:16Z</time>
      </trkpt>
      <trkpt lat="45.99589" lon="4.89836">
        <ele>293</ele>
        <time>2017-08-25T09:12:18Z</time>
      </trkpt>
      <trkpt lat="45.9959" lon="4.89842">
        <ele>293</ele>
        <time>2017-08-25T09:12:19Z</time>
      </trkpt>
      <trkpt lat="45.9959" lon="4.89849">
        <ele>293</ele>
        <time>2017-08-25T09:12:20Z</time>
      </trkpt>
      <trkpt lat="45.9959" lon="4.89856">
        <ele>293</ele>
        <time>2017-08-25T09:12:21Z</time>
      </trkpt>
      <trkpt lat="45.99592" lon="4.89863">
        <ele>293</ele>
        <time>2017-08-25T09:12:22Z</time>
      </trkpt>
      <trkpt lat="45.99593" lon="4.8987">
        <ele>293</ele>
        <time>2017-08-25T09:12:23Z</time>
      </trkpt>
      <trkpt lat="45.99593" lon="4.89877">
        <ele>292</ele>
        <time>2017-08-25T09:12:24Z</time>
      </trkpt>
      <trkpt lat="45.99594" lon="4.89885">
        <ele>292</ele>
        <time>2017-08-25T09:12:25Z</time>
      </trkpt>
      <trkpt lat="45.99594" lon="4.89893">
        <ele>292</ele>
        <time>2017-08-25T09:12:26Z</time>
      </trkpt>
      <trkpt lat="45.99594" lon="4.89902">
        <ele>292</ele>
        <time>2017-08-25T09:12:27Z</time>
      </trkpt>
      <trkpt lat="45.99595" lon="4.8991">
        <ele>292</ele>
        <time>2017-08-25T09:12:28Z</time>
      </trkpt>
      <trkpt lat="45.99595" lon="4.89918">
        <ele>293</ele>
        <time>2017-08-25T09:12:29Z</time>
      </trkpt>
      <trkpt lat="45.99595" lon="4.89926">
        <ele>293</ele>
        <time>2017-08-25T09:12:30Z</time>
      </trkpt>
      <trkpt lat="45.99595" lon="4.89933">
        <ele>293</ele>
        <time>2017-08-25T09:12:31Z</time>
      </trkpt>
      <trkpt lat="45.99595" lon="4.8994">
        <ele>293</ele>
        <time>2017-08-25T09:12:32Z</time>
      </trkpt>
      <trkpt lat="45.99595" lon="4.89946">
        <ele>294</ele>
        <time>2017-08-25T09:12:33Z</time>
      </trkpt>
      <trkpt lat="45.99597" lon="4.89959">
        <ele>294</ele>
        <time>2017-08-25T09:12:35Z</time>
      </trkpt>
      <trkpt lat="45.99596" lon="4.89964">
        <ele>294</ele>
        <time>2017-08-25T09:12:36Z</time>
      </trkpt>
      <trkpt lat="45.99598" lon="4.89972">
        <ele>294</ele>
        <time>2017-08-25T09:12:37Z</time>
      </trkpt>
      <trkpt lat="45.99598" lon="4.89978">
        <ele>294</ele>
        <time>2017-08-25T09:12:38Z</time>
      </trkpt>
      <trkpt lat="45.99599" lon="4.89984">
        <ele>294</ele>
        <time>2017-08-25T09:12:39Z</time>
      </trkpt>
      <trkpt lat="45.996" lon="4.8999">
        <ele>294</ele>
        <time>2017-08-25T09:12:40Z</time>
      </trkpt>
      <trkpt lat="45.99602" lon="4.89997">
        <ele>295</ele>
        <time>2017-08-25T09:12:41Z</time>
      </trkpt>
      <trkpt lat="45.99603" lon="4.90003">
        <ele>296</ele>
        <time>2017-08-25T09:12:42Z</time>
      </trkpt>
      <trkpt lat="45.99605" lon="4.90009">
        <ele>296</ele>
        <time>2017-08-25T09:12:43Z</time>
      </trkpt>
      <trkpt lat="45.99606" lon="4.90016">
        <ele>296</ele>
        <time>2017-08-25T09:12:44Z</time>
      </trkpt>
      <trkpt lat="45.99608" lon="4.90022">
        <ele>296</ele>
        <time>2017-08-25T09:12:45Z</time>
      </trkpt>
      <trkpt lat="45.99609" lon="4.90029">
        <ele>296</ele>
        <time>2017-08-25T09:12:46Z</time>
      </trkpt>
      <trkpt lat="45.99612" lon="4.90035">
        <ele>296</ele>
        <time>2017-08-25T09:12:47Z</time>
      </trkpt>
      <trkpt lat="45.99614" lon="4.9004">
        <ele>296</ele>
        <time>2017-08-25T09:12:48Z</time>
      </trkpt>
      <trkpt lat="45.99618" lon="4.90049">
        <ele>297</ele>
        <time>2017-08-25T09:12:50Z</time>
      </trkpt>
      <trkpt lat="45.9962" lon="4.90054">
        <ele>297</ele>
        <time>2017-08-25T09:12:51Z</time>
      </trkpt>
      <trkpt lat="45.99625" lon="4.90063">
        <ele>297</ele>
        <time>2017-08-25T09:12:53Z</time>
      </trkpt>
      <trkpt lat="45.99628" lon="4.90068">
        <ele>297</ele>
        <time>2017-08-25T09:12:54Z</time>
      </trkpt>
      <trkpt lat="45.99633" lon="4.90077">
        <ele>297</ele>
        <time>2017-08-25T09:12:56Z</time>
      </trkpt>
      <trkpt lat="45.99635" lon="4.90083">
        <ele>297</ele>
        <time>2017-08-25T09:12:57Z</time>
      </trkpt>
      <trkpt lat="45.99638" lon="4.90094">
        <ele>299</ele>
        <time>2017-08-25T09:12:59Z</time>
      </trkpt>
      <trkpt lat="45.99639" lon="4.90099">
        <ele>299</ele>
        <time>2017-08-25T09:13:00Z</time>
      </trkpt>
      <trkpt lat="45.99642" lon="4.9011">
        <ele>299</ele>
        <time>2017-08-25T09:13:02Z</time>
      </trkpt>
      <trkpt lat="45.99643" lon="4.90115">
        <ele>299</ele>
        <time>2017-08-25T09:13:03Z</time>
      </trkpt>
      <trkpt lat="45.99647" lon="4.90123">
        <ele>299</ele>
        <time>2017-08-25T09:13:05Z</time>
      </trkpt>
      <trkpt lat="45.9965" lon="4.90127">
        <ele>299</ele>
        <time>2017-08-25T09:13:06Z</time>
      </trkpt>
      <trkpt lat="45.99651" lon="4.90136">
        <ele>299</ele>
        <time>2017-08-25T09:13:08Z</time>
      </trkpt>
      <trkpt lat="45.99651" lon="4.90141">
        <ele>300</ele>
        <time>2017-08-25T09:13:09Z</time>
      </trkpt>
      <trkpt lat="45.99652" lon="4.90151">
        <ele>300</ele>
        <time>2017-08-25T09:13:11Z</time>
      </trkpt>
      <trkpt lat="45.99652" lon="4.90156">
        <ele>300</ele>
        <time>2017-08-25T09:13:12Z</time>
      </trkpt>
      <trkpt lat="45.99656" lon="4.90165">
        <ele>300</ele>
        <time>2017-08-25T09:13:14Z</time>
      </trkpt>
      <trkpt lat="45.99658" lon="4.9017">
        <ele>301</ele>
        <time>2017-08-25T09:13:15Z</time>
      </trkpt>
      <trkpt lat="45.99659" lon="4.90179">
        <ele>301</ele>
        <time>2017-08-25T09:13:17Z</time>
      </trkpt>
      <trkpt lat="45.9966" lon="4.90183">
        <ele>301</ele>
        <time>2017-08-25T09:13:18Z</time>
      </trkpt>
      <trkpt lat="45.99662" lon="4.90194">
        <ele>301</ele>
        <time>2017-08-25T09:13:20Z</time>
      </trkpt>
      <trkpt lat="45.99663" lon="4.90199">
        <ele>301</ele>
        <time>2017-08-25T09:13:21Z</time>
      </trkpt>
      <trkpt lat="45.99665" lon="4.9021">
        <ele>302</ele>
        <time>2017-08-25T09:13:23Z</time>
      </trkpt>
      <trkpt lat="45.99667" lon="4.90215">
        <ele>302</ele>
        <time>2017-08-25T09:13:24Z</time>
      </trkpt>
      <trkpt lat="45.99671" lon="4.90226">
        <ele>304</ele>
        <time>2017-08-25T09:13:26Z</time>
      </trkpt>
      <trkpt lat="45.99673" lon="4.90232">
        <ele>304</ele>
        <time>2017-08-25T09:13:27Z</time>
      </trkpt>
      <trkpt lat="45.99675" lon="4.90243">
        <ele>304</ele>
        <time>2017-08-25T09:13:29Z</time>
      </trkpt>
      <trkpt lat="45.99676" lon="4.90248">
        <ele>304</ele>
        <time>2017-08-25T09:13:30Z</time>
      </trkpt>
      <trkpt lat="45.99675" lon="4.90259">
        <ele>304</ele>
        <time>2017-08-25T09:13:32Z</time>
      </trkpt>
      <trkpt lat="45.99674" lon="4.90263">
        <ele>304</ele>
        <time>2017-08-25T09:13:33Z</time>
      </trkpt>
      <trkpt lat="45.99674" lon="4.90272">
        <ele>304</ele>
        <time>2017-08-25T09:13:35Z</time>
      </trkpt>
      <trkpt lat="45.99673" lon="4.90277">
        <ele>304</ele>
        <time>2017-08-25T09:13:36Z</time>
      </trkpt>
      <trkpt lat="45.99671" lon="4.90288">
        <ele>304</ele>
        <time>2017-08-25T09:13:38Z</time>
      </trkpt>
      <trkpt lat="45.99669" lon="4.90293">
        <ele>304</ele>
        <time>2017-08-25T09:13:39Z</time>
      </trkpt>
      <trkpt lat="45.99667" lon="4.90303">
        <ele>302</ele>
        <time>2017-08-25T09:13:41Z</time>
      </trkpt>
      <trkpt lat="45.99666" lon="4.90308">
        <ele>302</ele>
        <time>2017-08-25T09:13:42Z</time>
      </trkpt>
      <trkpt lat="45.99664" lon="4.9032">
        <ele>302</ele>
        <time>2017-08-25T09:13:45Z</time>
      </trkpt>
      <trkpt lat="45.99663" lon="4.90322">
        <ele>302</ele>
        <time>2017-08-25T09:13:46Z</time>
      </trkpt>
      <trkpt lat="45.99671" lon="4.90325">
        <ele>303</ele>
        <time>2017-08-25T09:13:49Z</time>
      </trkpt>
      <trkpt lat="45.99673" lon="4.90325">
        <ele>303</ele>
        <time>2017-08-25T09:13:50Z</time>
      </trkpt>
      <trkpt lat="45.9968" lon="4.90333">
        <ele>303</ele>
        <time>2017-08-25T09:13:53Z</time>
      </trkpt>
      <trkpt lat="45.9968" lon="4.90337">
        <ele>302</ele>
        <time>2017-08-25T09:13:54Z</time>
      </trkpt>
      <trkpt lat="45.99677" lon="4.90346">
        <ele>302</ele>
        <time>2017-08-25T09:13:56Z</time>
      </trkpt>
      <trkpt lat="45.99675" lon="4.90351">
        <ele>302</ele>
        <time>2017-08-25T09:13:57Z</time>
      </trkpt>
      <trkpt lat="45.99674" lon="4.90363">
        <ele>302</ele>
        <time>2017-08-25T09:13:59Z</time>
      </trkpt>
      <trkpt lat="45.99673" lon="4.9037">
        <ele>302</ele>
        <time>2017-08-25T09:14:00Z</time>
      </trkpt>
      <trkpt lat="45.99672" lon="4.90378">
        <ele>302</ele>
        <time>2017-08-25T09:14:01Z</time>
      </trkpt>
      <trkpt lat="45.9967" lon="4.90387">
        <ele>302</ele>
        <time>2017-08-25T09:14:02Z</time>
      </trkpt>
      <trkpt lat="45.99667" lon="4.90397">
        <ele>302</ele>
        <time>2017-08-25T09:14:03Z</time>
      </trkpt>
      <trkpt lat="45.99665" lon="4.90407">
        <ele>301</ele>
        <time>2017-08-25T09:14:04Z</time>
      </trkpt>
      <trkpt lat="45.99663" lon="4.90414">
        <ele>301</ele>
        <time>2017-08-25T09:14:05Z</time>
      </trkpt>
      <trkpt lat="45.99659" lon="4.90421">
        <ele>301</ele>
        <time>2017-08-25T09:14:06Z</time>
      </trkpt>
      <trkpt lat="45.99655" lon="4.90428">
        <ele>300</ele>
        <time>2017-08-25T09:14:07Z</time>
      </trkpt>
      <trkpt lat="45.99651" lon="4.90431">
        <ele>300</ele>
        <time>2017-08-25T09:14:08Z</time>
      </trkpt>
      <trkpt lat="45.99647" lon="4.90434">
        <ele>300</ele>
        <time>2017-08-25T09:14:09Z</time>
      </trkpt>
      <trkpt lat="45.99643" lon="4.90436">
        <ele>300</ele>
        <time>2017-08-25T09:14:10Z</time>
      </trkpt>
      <trkpt lat="45.99635" lon="4.9044">
        <ele>300</ele>
        <time>2017-08-25T09:14:12Z</time>
      </trkpt>
      <trkpt lat="45.99631" lon="4.90441">
        <ele>300</ele>
        <time>2017-08-25T09:14:13Z</time>
      </trkpt>
      <trkpt lat="45.99624" lon="4.90442">
        <ele>300</ele>
        <time>2017-08-25T09:14:15Z</time>
      </trkpt>
      <trkpt lat="45.99619" lon="4.90443">
        <ele>300</ele>
        <time>2017-08-25T09:14:16Z</time>
      </trkpt>
      <trkpt lat="45.99611" lon="4.90444">
        <ele>300</ele>
        <time>2017-08-25T09:14:18Z</time>
      </trkpt>
      <trkpt lat="45.99605" lon="4.90446">
        <ele>300</ele>
        <time>2017-08-25T09:14:19Z</time>
      </trkpt>
      <trkpt lat="45.99599" lon="4.90447">
        <ele>300</ele>
        <time>2017-08-25T09:14:20Z</time>
      </trkpt>
      <trkpt lat="45.99594" lon="4.90447">
        <ele>300</ele>
        <time>2017-08-25T09:14:21Z</time>
      </trkpt>
      <trkpt lat="45.99589" lon="4.90447">
        <ele>300</ele>
        <time>2017-08-25T09:14:22Z</time>
      </trkpt>
      <trkpt lat="45.99584" lon="4.90448">
        <ele>300</ele>
        <time>2017-08-25T09:14:23Z</time>
      </trkpt>
      <trkpt lat="45.99579" lon="4.9045">
        <ele>299</ele>
        <time>2017-08-25T09:14:24Z</time>
      </trkpt>
      <trkpt lat="45.99575" lon="4.90452">
        <ele>299</ele>
        <time>2017-08-25T09:14:25Z</time>
      </trkpt>
      <trkpt lat="45.99568" lon="4.90459">
        <ele>299</ele>
        <time>2017-08-25T09:14:27Z</time>
      </trkpt>
      <trkpt lat="45.99564" lon="4.90463">
        <ele>299</ele>
        <time>2017-08-25T09:14:28Z</time>
      </trkpt>
      <trkpt lat="45.99559" lon="4.90468">
        <ele>299</ele>
        <time>2017-08-25T09:14:29Z</time>
      </trkpt>
      <trkpt lat="45.99554" lon="4.90473">
        <ele>299</ele>
        <time>2017-08-25T09:14:30Z</time>
      </trkpt>
      <trkpt lat="45.9955" lon="4.90477">
        <ele>299</ele>
        <time>2017-08-25T09:14:31Z</time>
      </trkpt>
      <trkpt lat="45.99546" lon="4.90482">
        <ele>299</ele>
        <time>2017-08-25T09:14:32Z</time>
      </trkpt>
      <trkpt lat="45.99542" lon="4.90487">
        <ele>299</ele>
        <time>2017-08-25T09:14:33Z</time>
      </trkpt>
      <trkpt lat="45.99538" lon="4.90491">
        <ele>299</ele>
        <time>2017-08-25T09:14:34Z</time>
      </trkpt>
      <trkpt lat="45.99535" lon="4.90495">
        <ele>299</ele>
        <time>2017-08-25T09:14:35Z</time>
      </trkpt>
      <trkpt lat="45.99531" lon="4.905">
        <ele>299</ele>
        <time>2017-08-25T09:14:36Z</time>
      </trkpt>
      <trkpt lat="45.99527" lon="4.90504">
        <ele>299</ele>
        <time>2017-08-25T09:14:37Z</time>
      </trkpt>
      <trkpt lat="45.99523" lon="4.9051">
        <ele>299</ele>
        <time>2017-08-25T09:14:38Z</time>
      </trkpt>
      <trkpt lat="45.9952" lon="4.90515">
        <ele>299</ele>
        <time>2017-08-25T09:14:39Z</time>
      </trkpt>
      <trkpt lat="45.99516" lon="4.90521">
        <ele>299</ele>
        <time>2017-08-25T09:14:40Z</time>
      </trkpt>
      <trkpt lat="45.9951" lon="4.90529">
        <ele>299</ele>
        <time>2017-08-25T09:14:42Z</time>
      </trkpt>
      <trkpt lat="45.99507" lon="4.90533">
        <ele>299</ele>
        <time>2017-08-25T09:14:43Z</time>
      </trkpt>
      <trkpt lat="45.99501" lon="4.9054">
        <ele>299</ele>
        <time>2017-08-25T09:14:45Z</time>
      </trkpt>
      <trkpt lat="45.99497" lon="4.90544">
        <ele>299</ele>
        <time>2017-08-25T09:14:46Z</time>
      </trkpt>
      <trkpt lat="45.99494" lon="4.90548">
        <ele>299</ele>
        <time>2017-08-25T09:14:47Z</time>
      </trkpt>
      <trkpt lat="45.99491" lon="4.90552">
        <ele>299</ele>
        <time>2017-08-25T09:14:48Z</time>
      </trkpt>
      <trkpt lat="45.99487" lon="4.90557">
        <ele>299</ele>
        <time>2017-08-25T09:14:49Z</time>
      </trkpt>
      <trkpt lat="45.99484" lon="4.90562">
        <ele>299</ele>
        <time>2017-08-25T09:14:50Z</time>
      </trkpt>
      <trkpt lat="45.9948" lon="4.90567">
        <ele>299</ele>
        <time>2017-08-25T09:14:51Z</time>
      </trkpt>
      <trkpt lat="45.99476" lon="4.90571">
        <ele>299</ele>
        <time>2017-08-25T09:14:52Z</time>
      </trkpt>
      <trkpt lat="45.9947" lon="4.9058">
        <ele>299</ele>
        <time>2017-08-25T09:14:54Z</time>
      </trkpt>
      <trkpt lat="45.99467" lon="4.90585">
        <ele>298</ele>
        <time>2017-08-25T09:14:55Z</time>
      </trkpt>
      <trkpt lat="45.99463" lon="4.9059">
        <ele>298</ele>
        <time>2017-08-25T09:14:56Z</time>
      </trkpt>
      <trkpt lat="45.9946" lon="4.90594">
        <ele>298</ele>
        <time>2017-08-25T09:14:57Z</time>
      </trkpt>
      <trkpt lat="45.99456" lon="4.90598">
        <ele>298</ele>
        <time>2017-08-25T09:14:58Z</time>
      </trkpt>
      <trkpt lat="45.99453" lon="4.90602">
        <ele>298</ele>
        <time>2017-08-25T09:14:59Z</time>
      </trkpt>
      <trkpt lat="45.99449" lon="4.90607">
        <ele>298</ele>
        <time>2017-08-25T09:15:00Z</time>
      </trkpt>
      <trkpt lat="45.99444" lon="4.90611">
        <ele>298</ele>
        <time>2017-08-25T09:15:01Z</time>
      </trkpt>
      <trkpt lat="45.9944" lon="4.90616">
        <ele>298</ele>
        <time>2017-08-25T09:15:02Z</time>
      </trkpt>
      <trkpt lat="45.99436" lon="4.90621">
        <ele>298</ele>
        <time>2017-08-25T09:15:03Z</time>
      </trkpt>
      <trkpt lat="45.99433" lon="4.90626">
        <ele>298</ele>
        <time>2017-08-25T09:15:04Z</time>
      </trkpt>
      <trkpt lat="45.99429" lon="4.9063">
        <ele>298</ele>
        <time>2017-08-25T09:15:05Z</time>
      </trkpt>
      <trkpt lat="45.99422" lon="4.90638">
        <ele>298</ele>
        <time>2017-08-25T09:15:07Z</time>
      </trkpt>
      <trkpt lat="45.99419" lon="4.90642">
        <ele>298</ele>
        <time>2017-08-25T09:15:08Z</time>
      </trkpt>
      <trkpt lat="45.99412" lon="4.9065">
        <ele>298</ele>
        <time>2017-08-25T09:15:10Z</time>
      </trkpt>
      <trkpt lat="45.99409" lon="4.90654">
        <ele>298</ele>
        <time>2017-08-25T09:15:11Z</time>
      </trkpt>
      <trkpt lat="45.99405" lon="4.90658">
        <ele>298</ele>
        <time>2017-08-25T09:15:12Z</time>
      </trkpt>
      <trkpt lat="45.99402" lon="4.90662">
        <ele>298</ele>
        <time>2017-08-25T09:15:13Z</time>
      </trkpt>
      <trkpt lat="45.99398" lon="4.90667">
        <ele>298</ele>
        <time>2017-08-25T09:15:14Z</time>
      </trkpt>
      <trkpt lat="45.99394" lon="4.90672">
        <ele>298</ele>
        <time>2017-08-25T09:15:15Z</time>
      </trkpt>
      <trkpt lat="45.9939" lon="4.90678">
        <ele>298</ele>
        <time>2017-08-25T09:15:16Z</time>
      </trkpt>
      <trkpt lat="45.99385" lon="4.90684">
        <ele>298</ele>
        <time>2017-08-25T09:15:17Z</time>
      </trkpt>
      <trkpt lat="45.99381" lon="4.9069">
        <ele>298</ele>
        <time>2017-08-25T09:15:18Z</time>
      </trkpt>
      <trkpt lat="45.99376" lon="4.90696">
        <ele>298</ele>
        <time>2017-08-25T09:15:19Z</time>
      </trkpt>
      <trkpt lat="45.99371" lon="4.90701">
        <ele>299</ele>
        <time>2017-08-25T09:15:20Z</time>
      </trkpt>
      <trkpt lat="45.99367" lon="4.90706">
        <ele>299</ele>
        <time>2017-08-25T09:15:21Z</time>
      </trkpt>
      <trkpt lat="45.99363" lon="4.90711">
        <ele>299</ele>
        <time>2017-08-25T09:15:22Z</time>
      </trkpt>
      <trkpt lat="45.99359" lon="4.90716">
        <ele>299</ele>
        <time>2017-08-25T09:15:23Z</time>
      </trkpt>
      <trkpt lat="45.99356" lon="4.90721">
        <ele>299</ele>
        <time>2017-08-25T09:15:24Z</time>
      </trkpt>
      <trkpt lat="45.99353" lon="4.90726">
        <ele>299</ele>
        <time>2017-08-25T09:15:25Z</time>
      </trkpt>
      <trkpt lat="45.99349" lon="4.9073">
        <ele>299</ele>
        <time>2017-08-25T09:15:26Z</time>
      </trkpt>
      <trkpt lat="45.99345" lon="4.90735">
        <ele>299</ele>
        <time>2017-08-25T09:15:27Z</time>
      </trkpt>
      <trkpt lat="45.99341" lon="4.9074">
        <ele>299</ele>
        <time>2017-08-25T09:15:28Z</time>
      </trkpt>
      <trkpt lat="45.99337" lon="4.90745">
        <ele>300</ele>
        <time>2017-08-25T09:15:29Z</time>
      </trkpt>
      <trkpt lat="45.99333" lon="4.90751">
        <ele>300</ele>
        <time>2017-08-25T09:15:30Z</time>
      </trkpt>
      <trkpt lat="45.99329" lon="4.90757">
        <ele>300</ele>
        <time>2017-08-25T09:15:31Z</time>
      </trkpt>
      <trkpt lat="45.99324" lon="4.90762">
        <ele>300</ele>
        <time>2017-08-25T09:15:32Z</time>
      </trkpt>
      <trkpt lat="45.9932" lon="4.90768">
        <ele>300</ele>
        <time>2017-08-25T09:15:33Z</time>
      </trkpt>
      <trkpt lat="45.99316" lon="4.90773">
        <ele>300</ele>
        <time>2017-08-25T09:15:34Z</time>
      </trkpt>
      <trkpt lat="45.99312" lon="4.90777">
        <ele>300</ele>
        <time>2017-08-25T09:15:35Z</time>
      </trkpt>
      <trkpt lat="45.99309" lon="4.90781">
        <ele>300</ele>
        <time>2017-08-25T09:15:36Z</time>
      </trkpt>
      <trkpt lat="45.99305" lon="4.90785">
        <ele>300</ele>
        <time>2017-08-25T09:15:37Z</time>
      </trkpt>
      <trkpt lat="45.99299" lon="4.90791">
        <ele>300</ele>
        <time>2017-08-25T09:15:39Z</time>
      </trkpt>
      <trkpt lat="45.99295" lon="4.90795">
        <ele>300</ele>
        <time>2017-08-25T09:15:40Z</time>
      </trkpt>
      <trkpt lat="45.9929" lon="4.908">
        <ele>300</ele>
        <time>2017-08-25T09:15:41Z</time>
      </trkpt>
      <trkpt lat="45.99286" lon="4.90805">
        <ele>300</ele>
        <time>2017-08-25T09:15:42Z</time>
      </trkpt>
      <trkpt lat="45.99282" lon="4.90809">
        <ele>300</ele>
        <time>2017-08-25T09:15:43Z</time>
      </trkpt>
      <trkpt lat="45.99278" lon="4.90815">
        <ele>300</ele>
        <time>2017-08-25T09:15:44Z</time>
      </trkpt>
      <trkpt lat="45.99274" lon="4.9082">
        <ele>300</ele>
        <time>2017-08-25T09:15:45Z</time>
      </trkpt>
      <trkpt lat="45.9927" lon="4.90826">
        <ele>300</ele>
        <time>2017-08-25T09:15:46Z</time>
      </trkpt>
      <trkpt lat="45.99266" lon="4.90831">
        <ele>300</ele>
        <time>2017-08-25T09:15:47Z</time>
      </trkpt>
      <trkpt lat="45.99262" lon="4.90836">
        <ele>300</ele>
        <time>2017-08-25T09:15:48Z</time>
      </trkpt>
      <trkpt lat="45.99258" lon="4.90841">
        <ele>300</ele>
        <time>2017-08-25T09:15:49Z</time>
      </trkpt>
      <trkpt lat="45.99253" lon="4.90845">
        <ele>300</ele>
        <time>2017-08-25T09:15:50Z</time>
      </trkpt>
      <trkpt lat="45.99249" lon="4.90851">
        <ele>300</ele>
        <time>2017-08-25T09:15:51Z</time>
      </trkpt>
      <trkpt lat="45.99245" lon="4.90856">
        <ele>300</ele>
        <time>2017-08-25T09:15:52Z</time>
      </trkpt>
      <trkpt lat="45.99241" lon="4.90862">
        <ele>300</ele>
        <time>2017-08-25T09:15:53Z</time>
      </trkpt>
      <trkpt lat="45.99237" lon="4.90867">
        <ele>300</ele>
        <time>2017-08-25T09:15:54Z</time>
      </trkpt>
      <trkpt lat="45.99232" lon="4.90872">
        <ele>300</ele>
        <time>2017-08-25T09:15:55Z</time>
      </trkpt>
      <trkpt lat="45.99228" lon="4.90878">
        <ele>299</ele>
        <time>2017-08-25T09:15:56Z</time>
      </trkpt>
      <trkpt lat="45.99223" lon="4.90883">
        <ele>299</ele>
        <time>2017-08-25T09:15:57Z</time>
      </trkpt>
      <trkpt lat="45.99219" lon="4.90889">
        <ele>299</ele>
        <time>2017-08-25T09:15:58Z</time>
      </trkpt>
      <trkpt lat="45.99214" lon="4.90894">
        <ele>299</ele>
        <time>2017-08-25T09:15:59Z</time>
      </trkpt>
      <trkpt lat="45.9921" lon="4.909">
        <ele>299</ele>
        <time>2017-08-25T09:16:00Z</time>
      </trkpt>
      <trkpt lat="45.99206" lon="4.90905">
        <ele>300</ele>
        <time>2017-08-25T09:16:01Z</time>
      </trkpt>
      <trkpt lat="45.99201" lon="4.9091">
        <ele>300</ele>
        <time>2017-08-25T09:16:02Z</time>
      </trkpt>
      <trkpt lat="45.99197" lon="4.90914">
        <ele>300</ele>
        <time>2017-08-25T09:16:03Z</time>
      </trkpt>
      <trkpt lat="45.99192" lon="4.90919">
        <ele>300</ele>
        <time>2017-08-25T09:16:04Z</time>
      </trkpt>
      <trkpt lat="45.99187" lon="4.90924">
        <ele>300</ele>
        <time>2017-08-25T09:16:05Z</time>
      </trkpt>
      <trkpt lat="45.99183" lon="4.90929">
        <ele>300</ele>
        <time>2017-08-25T09:16:06Z</time>
      </trkpt>
      <trkpt lat="45.99178" lon="4.90935">
        <ele>300</ele>
        <time>2017-08-25T09:16:07Z</time>
      </trkpt>
      <trkpt lat="45.99174" lon="4.9094">
        <ele>300</ele>
        <time>2017-08-25T09:16:08Z</time>
      </trkpt>
      <trkpt lat="45.9917" lon="4.90945">
        <ele>300</ele>
        <time>2017-08-25T09:16:09Z</time>
      </trkpt>
      <trkpt lat="45.99166" lon="4.90949">
        <ele>300</ele>
        <time>2017-08-25T09:16:10Z</time>
      </trkpt>
      <trkpt lat="45.99161" lon="4.90952">
        <ele>300</ele>
        <time>2017-08-25T09:16:11Z</time>
      </trkpt>
      <trkpt lat="45.99157" lon="4.90957">
        <ele>300</ele>
        <time>2017-08-25T09:16:12Z</time>
      </trkpt>
      <trkpt lat="45.99153" lon="4.90962">
        <ele>300</ele>
        <time>2017-08-25T09:16:13Z</time>
      </trkpt>
      <trkpt lat="45.99149" lon="4.90966">
        <ele>300</ele>
        <time>2017-08-25T09:16:14Z</time>
      </trkpt>
      <trkpt lat="45.99146" lon="4.90972">
        <ele>300</ele>
        <time>2017-08-25T09:16:15Z</time>
      </trkpt>
      <trkpt lat="45.99142" lon="4.90977">
        <ele>300</ele>
        <time>2017-08-25T09:16:16Z</time>
      </trkpt>
      <trkpt lat="45.99139" lon="4.90982">
        <ele>300</ele>
        <time>2017-08-25T09:16:17Z</time>
      </trkpt>
      <trkpt lat="45.99135" lon="4.90987">
        <ele>301</ele>
        <time>2017-08-25T09:16:18Z</time>
      </trkpt>
      <trkpt lat="45.99132" lon="4.90992">
        <ele>301</ele>
        <time>2017-08-25T09:16:19Z</time>
      </trkpt>
      <trkpt lat="45.99128" lon="4.90997">
        <ele>301</ele>
        <time>2017-08-25T09:16:20Z</time>
      </trkpt>
      <trkpt lat="45.99124" lon="4.91002">
        <ele>301</ele>
        <time>2017-08-25T09:16:21Z</time>
      </trkpt>
      <trkpt lat="45.99119" lon="4.91006">
        <ele>301</ele>
        <time>2017-08-25T09:16:22Z</time>
      </trkpt>
      <trkpt lat="45.99116" lon="4.91011">
        <ele>301</ele>
        <time>2017-08-25T09:16:23Z</time>
      </trkpt>
      <trkpt lat="45.99112" lon="4.91016">
        <ele>301</ele>
        <time>2017-08-25T09:16:24Z</time>
      </trkpt>
      <trkpt lat="45.99109" lon="4.9102">
        <ele>301</ele>
        <time>2017-08-25T09:16:25Z</time>
      </trkpt>
      <trkpt lat="45.99105" lon="4.91025">
        <ele>301</ele>
        <time>2017-08-25T09:16:26Z</time>
      </trkpt>
      <trkpt lat="45.99102" lon="4.9103">
        <ele>301</ele>
        <time>2017-08-25T09:16:27Z</time>
      </trkpt>
      <trkpt lat="45.99099" lon="4.91036">
        <ele>301</ele>
        <time>2017-08-25T09:16:28Z</time>
      </trkpt>
      <trkpt lat="45.99095" lon="4.91041">
        <ele>301</ele>
        <time>2017-08-25T09:16:29Z</time>
      </trkpt>
      <trkpt lat="45.99091" lon="4.91046">
        <ele>301</ele>
        <time>2017-08-25T09:16:30Z</time>
      </trkpt>
      <trkpt lat="45.99086" lon="4.91051">
        <ele>301</ele>
        <time>2017-08-25T09:16:31Z</time>
      </trkpt>
      <trkpt lat="45.99082" lon="4.91056">
        <ele>300</ele>
        <time>2017-08-25T09:16:32Z</time>
      </trkpt>
      <trkpt lat="45.99079" lon="4.91061">
        <ele>300</ele>
        <time>2017-08-25T09:16:33Z</time>
      </trkpt>
      <trkpt lat="45.99075" lon="4.91065">
        <ele>300</ele>
        <time>2017-08-25T09:16:34Z</time>
      </trkpt>
      <trkpt lat="45.99068" lon="4.91074">
        <ele>300</ele>
        <time>2017-08-25T09:16:36Z</time>
      </trkpt>
      <trkpt lat="45.99065" lon="4.91078">
        <ele>300</ele>
        <time>2017-08-25T09:16:37Z</time>
      </trkpt>
      <trkpt lat="45.99058" lon="4.91085">
        <ele>300</ele>
        <time>2017-08-25T09:16:39Z</time>
      </trkpt>
      <trkpt lat="45.99054" lon="4.91089">
        <ele>299</ele>
        <time>2017-08-25T09:16:40Z</time>
      </trkpt>
      <trkpt lat="45.99051" lon="4.91094">
        <ele>299</ele>
        <time>2017-08-25T09:16:41Z</time>
      </trkpt>
      <trkpt lat="45.99046" lon="4.911">
        <ele>299</ele>
        <time>2017-08-25T09:16:42Z</time>
      </trkpt>
      <trkpt lat="45.99042" lon="4.91105">
        <ele>299</ele>
        <time>2017-08-25T09:16:43Z</time>
      </trkpt>
      <trkpt lat="45.99039" lon="4.91109">
        <ele>299</ele>
        <time>2017-08-25T09:16:44Z</time>
      </trkpt>
      <trkpt lat="45.99035" lon="4.91113">
        <ele>299</ele>
        <time>2017-08-25T09:16:45Z</time>
      </trkpt>
      <trkpt lat="45.99031" lon="4.91118">
        <ele>299</ele>
        <time>2017-08-25T09:16:46Z</time>
      </trkpt>
      <trkpt lat="45.99027" lon="4.91122">
        <ele>299</ele>
        <time>2017-08-25T09:16:47Z</time>
      </trkpt>
      <trkpt lat="45.99024" lon="4.91126">
        <ele>299</ele>
        <time>2017-08-25T09:16:48Z</time>
      </trkpt>
      <trkpt lat="45.99018" lon="4.91135">
        <ele>299</ele>
        <time>2017-08-25T09:16:50Z</time>
      </trkpt>
      <trkpt lat="45.99014" lon="4.91139">
        <ele>299</ele>
        <time>2017-08-25T09:16:51Z</time>
      </trkpt>
      <trkpt lat="45.99011" lon="4.91143">
        <ele>299</ele>
        <time>2017-08-25T09:16:52Z</time>
      </trkpt>
      <trkpt lat="45.99007" lon="4.91149">
        <ele>299</ele>
        <time>2017-08-25T09:16:53Z</time>
      </trkpt>
      <trkpt lat="45.99004" lon="4.91154">
        <ele>299</ele>
        <time>2017-08-25T09:16:54Z</time>
      </trkpt>
      <trkpt lat="45.99" lon="4.9116">
        <ele>299</ele>
        <time>2017-08-25T09:16:55Z</time>
      </trkpt>
      <trkpt lat="45.98996" lon="4.91166">
        <ele>299</ele>
        <time>2017-08-25T09:16:56Z</time>
      </trkpt>
      <trkpt lat="45.98992" lon="4.91171">
        <ele>299</ele>
        <time>2017-08-25T09:16:57Z</time>
      </trkpt>
      <trkpt lat="45.98988" lon="4.91175">
        <ele>299</ele>
        <time>2017-08-25T09:16:58Z</time>
      </trkpt>
      <trkpt lat="45.98984" lon="4.9118">
        <ele>299</ele>
        <time>2017-08-25T09:16:59Z</time>
      </trkpt>
      <trkpt lat="45.9898" lon="4.91185">
        <ele>299</ele>
        <time>2017-08-25T09:17:00Z</time>
      </trkpt>
      <trkpt lat="45.98977" lon="4.9119">
        <ele>299</ele>
        <time>2017-08-25T09:17:01Z</time>
      </trkpt>
      <trkpt lat="45.98973" lon="4.91194">
        <ele>299</ele>
        <time>2017-08-25T09:17:02Z</time>
      </trkpt>
      <trkpt lat="45.9897" lon="4.91199">
        <ele>299</ele>
        <time>2017-08-25T09:17:03Z</time>
      </trkpt>
      <trkpt lat="45.98966" lon="4.91204">
        <ele>299</ele>
        <time>2017-08-25T09:17:04Z</time>
      </trkpt>
      <trkpt lat="45.98962" lon="4.91209">
        <ele>299</ele>
        <time>2017-08-25T09:17:05Z</time>
      </trkpt>
      <trkpt lat="45.98958" lon="4.91213">
        <ele>299</ele>
        <time>2017-08-25T09:17:06Z</time>
      </trkpt>
      <trkpt lat="45.98954" lon="4.91219">
        <ele>299</ele>
        <time>2017-08-25T09:17:07Z</time>
      </trkpt>
      <trkpt lat="45.9895" lon="4.91224">
        <ele>299</ele>
        <time>2017-08-25T09:17:08Z</time>
      </trkpt>
      <trkpt lat="45.98946" lon="4.91229">
        <ele>299</ele>
        <time>2017-08-25T09:17:09Z</time>
      </trkpt>
      <trkpt lat="45.98942" lon="4.91234">
        <ele>299</ele>
        <time>2017-08-25T09:17:10Z</time>
      </trkpt>
      <trkpt lat="45.98938" lon="4.91239">
        <ele>299</ele>
        <time>2017-08-25T09:17:11Z</time>
      </trkpt>
      <trkpt lat="45.98932" lon="4.91247">
        <ele>299</ele>
        <time>2017-08-25T09:17:13Z</time>
      </trkpt>
      <trkpt lat="45.98929" lon="4.91251">
        <ele>299</ele>
        <time>2017-08-25T09:17:14Z</time>
      </trkpt>
      <trkpt lat="45.98923" lon="4.91259">
        <ele>299</ele>
        <time>2017-08-25T09:17:16Z</time>
      </trkpt>
      <trkpt lat="45.9892" lon="4.91263">
        <ele>299</ele>
        <time>2017-08-25T09:17:17Z</time>
      </trkpt>
      <trkpt lat="45.98916" lon="4.91267">
        <ele>299</ele>
        <time>2017-08-25T09:17:18Z</time>
      </trkpt>
      <trkpt lat="45.98912" lon="4.91272">
        <ele>299</ele>
        <time>2017-08-25T09:17:19Z</time>
      </trkpt>
      <trkpt lat="45.98908" lon="4.91277">
        <ele>299</ele>
        <time>2017-08-25T09:17:20Z</time>
      </trkpt>
      <trkpt lat="45.98904" lon="4.91282">
        <ele>299</ele>
        <time>2017-08-25T09:17:21Z</time>
      </trkpt>
      <trkpt lat="45.989" lon="4.91287">
        <ele>299</ele>
        <time>2017-08-25T09:17:22Z</time>
      </trkpt>
      <trkpt lat="45.98895" lon="4.91293">
        <ele>299</ele>
        <time>2017-08-25T09:17:23Z</time>
      </trkpt>
      <trkpt lat="45.98891" lon="4.91299">
        <ele>299</ele>
        <time>2017-08-25T09:17:24Z</time>
      </trkpt>
      <trkpt lat="45.98886" lon="4.91304">
        <ele>299</ele>
        <time>2017-08-25T09:17:25Z</time>
      </trkpt>
      <trkpt lat="45.98882" lon="4.9131">
        <ele>299</ele>
        <time>2017-08-25T09:17:26Z</time>
      </trkpt>
      <trkpt lat="45.98877" lon="4.91316">
        <ele>299</ele>
        <time>2017-08-25T09:17:27Z</time>
      </trkpt>
      <trkpt lat="45.98873" lon="4.91321">
        <ele>298</ele>
        <time>2017-08-25T09:17:28Z</time>
      </trkpt>
      <trkpt lat="45.98869" lon="4.91326">
        <ele>298</ele>
        <time>2017-08-25T09:17:29Z</time>
      </trkpt>
      <trkpt lat="45.98865" lon="4.9133">
        <ele>298</ele>
        <time>2017-08-25T09:17:30Z</time>
      </trkpt>
      <trkpt lat="45.98861" lon="4.91335">
        <ele>298</ele>
        <time>2017-08-25T09:17:31Z</time>
      </trkpt>
      <trkpt lat="45.98857" lon="4.91339">
        <ele>298</ele>
        <time>2017-08-25T09:17:32Z</time>
      </trkpt>
      <trkpt lat="45.98854" lon="4.91344">
        <ele>298</ele>
        <time>2017-08-25T09:17:33Z</time>
      </trkpt>
      <trkpt lat="45.98847" lon="4.91353">
        <ele>298</ele>
        <time>2017-08-25T09:17:35Z</time>
      </trkpt>
      <trkpt lat="45.98843" lon="4.91357">
        <ele>298</ele>
        <time>2017-08-25T09:17:36Z</time>
      </trkpt>
      <trkpt lat="45.9884" lon="4.91361">
        <ele>298</ele>
        <time>2017-08-25T09:17:37Z</time>
      </trkpt>
      <trkpt lat="45.98836" lon="4.91366">
        <ele>298</ele>
        <time>2017-08-25T09:17:38Z</time>
      </trkpt>
      <trkpt lat="45.98832" lon="4.91371">
        <ele>298</ele>
        <time>2017-08-25T09:17:39Z</time>
      </trkpt>
      <trkpt lat="45.98828" lon="4.91377">
        <ele>298</ele>
        <time>2017-08-25T09:17:40Z</time>
      </trkpt>
      <trkpt lat="45.98824" lon="4.91382">
        <ele>298</ele>
        <time>2017-08-25T09:17:41Z</time>
      </trkpt>
      <trkpt lat="45.9882" lon="4.91387">
        <ele>298</ele>
        <time>2017-08-25T09:17:42Z</time>
      </trkpt>
      <trkpt lat="45.98816" lon="4.91391">
        <ele>298</ele>
        <time>2017-08-25T09:17:43Z</time>
      </trkpt>
      <trkpt lat="45.98813" lon="4.91396">
        <ele>299</ele>
        <time>2017-08-25T09:17:44Z</time>
      </trkpt>
      <trkpt lat="45.98806" lon="4.91403">
        <ele>299</ele>
        <time>2017-08-25T09:17:46Z</time>
      </trkpt>
      <trkpt lat="45.98803" lon="4.91407">
        <ele>299</ele>
        <time>2017-08-25T09:17:47Z</time>
      </trkpt>
      <trkpt lat="45.98796" lon="4.91415">
        <ele>299</ele>
        <time>2017-08-25T09:17:49Z</time>
      </trkpt>
      <trkpt lat="45.98792" lon="4.9142">
        <ele>298</ele>
        <time>2017-08-25T09:17:50Z</time>
      </trkpt>
      <trkpt lat="45.98788" lon="4.91426">
        <ele>298</ele>
        <time>2017-08-25T09:17:51Z</time>
      </trkpt>
      <trkpt lat="45.98784" lon="4.91431">
        <ele>298</ele>
        <time>2017-08-25T09:17:52Z</time>
      </trkpt>
      <trkpt lat="45.98779" lon="4.91437">
        <ele>298</ele>
        <time>2017-08-25T09:17:53Z</time>
      </trkpt>
      <trkpt lat="45.98774" lon="4.91443">
        <ele>298</ele>
        <time>2017-08-25T09:17:54Z</time>
      </trkpt>
      <trkpt lat="45.9877" lon="4.91449">
        <ele>298</ele>
        <time>2017-08-25T09:17:55Z</time>
      </trkpt>
      <trkpt lat="45.98765" lon="4.91455">
        <ele>298</ele>
        <time>2017-08-25T09:17:56Z</time>
      </trkpt>
      <trkpt lat="45.9876" lon="4.9146">
        <ele>298</ele>
        <time>2017-08-25T09:17:57Z</time>
      </trkpt>
      <trkpt lat="45.98756" lon="4.91466">
        <ele>298</ele>
        <time>2017-08-25T09:17:58Z</time>
      </trkpt>
      <trkpt lat="45.98751" lon="4.91471">
        <ele>298</ele>
        <time>2017-08-25T09:17:59Z</time>
      </trkpt>
      <trkpt lat="45.98747" lon="4.91477">
        <ele>299</ele>
        <time>2017-08-25T09:18:00Z</time>
      </trkpt>
      <trkpt lat="45.98743" lon="4.91482">
        <ele>299</ele>
        <time>2017-08-25T09:18:01Z</time>
      </trkpt>
      <trkpt lat="45.98739" lon="4.91487">
        <ele>299</ele>
        <time>2017-08-25T09:18:02Z</time>
      </trkpt>
      <trkpt lat="45.98735" lon="4.91491">
        <ele>299</ele>
        <time>2017-08-25T09:18:03Z</time>
      </trkpt>
      <trkpt lat="45.9873" lon="4.91495">
        <ele>299</ele>
        <time>2017-08-25T09:18:04Z</time>
      </trkpt>
      <trkpt lat="45.98727" lon="4.91499">
        <ele>299</ele>
        <time>2017-08-25T09:18:05Z</time>
      </trkpt>
      <trkpt lat="45.98722" lon="4.91503">
        <ele>299</ele>
        <time>2017-08-25T09:18:06Z</time>
      </trkpt>
      <trkpt lat="45.98719" lon="4.91508">
        <ele>299</ele>
        <time>2017-08-25T09:18:07Z</time>
      </trkpt>
      <trkpt lat="45.98715" lon="4.91512">
        <ele>299</ele>
        <time>2017-08-25T09:18:08Z</time>
      </trkpt>
      <trkpt lat="45.98711" lon="4.91517">
        <ele>299</ele>
        <time>2017-08-25T09:18:09Z</time>
      </trkpt>
      <trkpt lat="45.98707" lon="4.91523">
        <ele>299</ele>
        <time>2017-08-25T09:18:10Z</time>
      </trkpt>
      <trkpt lat="45.98702" lon="4.91528">
        <ele>299</ele>
        <time>2017-08-25T09:18:11Z</time>
      </trkpt>
      <trkpt lat="45.98698" lon="4.91533">
        <ele>299</ele>
        <time>2017-08-25T09:18:12Z</time>
      </trkpt>
      <trkpt lat="45.98694" lon="4.91537">
        <ele>299</ele>
        <time>2017-08-25T09:18:13Z</time>
      </trkpt>
      <trkpt lat="45.9869" lon="4.91542">
        <ele>299</ele>
        <time>2017-08-25T09:18:14Z</time>
      </trkpt>
      <trkpt lat="45.98686" lon="4.91547">
        <ele>299</ele>
        <time>2017-08-25T09:18:15Z</time>
      </trkpt>
      <trkpt lat="45.98682" lon="4.91551">
        <ele>299</ele>
        <time>2017-08-25T09:18:16Z</time>
      </trkpt>
      <trkpt lat="45.98678" lon="4.91556">
        <ele>299</ele>
        <time>2017-08-25T09:18:17Z</time>
      </trkpt>
      <trkpt lat="45.98673" lon="4.91561">
        <ele>299</ele>
        <time>2017-08-25T09:18:18Z</time>
      </trkpt>
      <trkpt lat="45.9867" lon="4.91565">
        <ele>299</ele>
        <time>2017-08-25T09:18:19Z</time>
      </trkpt>
      <trkpt lat="45.98666" lon="4.9157">
        <ele>299</ele>
        <time>2017-08-25T09:18:20Z</time>
      </trkpt>
      <trkpt lat="45.98662" lon="4.91574">
        <ele>299</ele>
        <time>2017-08-25T09:18:21Z</time>
      </trkpt>
      <trkpt lat="45.98658" lon="4.91579">
        <ele>299</ele>
        <time>2017-08-25T09:18:22Z</time>
      </trkpt>
      <trkpt lat="45.98654" lon="4.91584">
        <ele>299</ele>
        <time>2017-08-25T09:18:23Z</time>
      </trkpt>
      <trkpt lat="45.98649" lon="4.91589">
        <ele>299</ele>
        <time>2017-08-25T09:18:24Z</time>
      </trkpt>
      <trkpt lat="45.98644" lon="4.91594">
        <ele>299</ele>
        <time>2017-08-25T09:18:25Z</time>
      </trkpt>
      <trkpt lat="45.98639" lon="4.91599">
        <ele>298</ele>
        <time>2017-08-25T09:18:26Z</time>
      </trkpt>
      <trkpt lat="45.98634" lon="4.91605">
        <ele>298</ele>
        <time>2017-08-25T09:18:27Z</time>
      </trkpt>
      <trkpt lat="45.98628" lon="4.9161">
        <ele>298</ele>
        <time>2017-08-25T09:18:28Z</time>
      </trkpt>
      <trkpt lat="45.98623" lon="4.91617">
        <ele>298</ele>
        <time>2017-08-25T09:18:29Z</time>
      </trkpt>
      <trkpt lat="45.98618" lon="4.91624">
        <ele>298</ele>
        <time>2017-08-25T09:18:30Z</time>
      </trkpt>
      <trkpt lat="45.98613" lon="4.91631">
        <ele>298</ele>
        <time>2017-08-25T09:18:31Z</time>
      </trkpt>
      <trkpt lat="45.98608" lon="4.91638">
        <ele>298</ele>
        <time>2017-08-25T09:18:32Z</time>
      </trkpt>
      <trkpt lat="45.98603" lon="4.91644">
        <ele>298</ele>
        <time>2017-08-25T09:18:33Z</time>
      </trkpt>
      <trkpt lat="45.98599" lon="4.9165">
        <ele>298</ele>
        <time>2017-08-25T09:18:34Z</time>
      </trkpt>
      <trkpt lat="45.98595" lon="4.91655">
        <ele>298</ele>
        <time>2017-08-25T09:18:35Z</time>
      </trkpt>
      <trkpt lat="45.98591" lon="4.91661">
        <ele>298</ele>
        <time>2017-08-25T09:18:36Z</time>
      </trkpt>
      <trkpt lat="45.98587" lon="4.91666">
        <ele>298</ele>
        <time>2017-08-25T09:18:37Z</time>
      </trkpt>
      <trkpt lat="45.98583" lon="4.91671">
        <ele>298</ele>
        <time>2017-08-25T09:18:38Z</time>
      </trkpt>
      <trkpt lat="45.98579" lon="4.91675">
        <ele>298</ele>
        <time>2017-08-25T09:18:39Z</time>
      </trkpt>
      <trkpt lat="45.98575" lon="4.9168">
        <ele>298</ele>
        <time>2017-08-25T09:18:40Z</time>
      </trkpt>
      <trkpt lat="45.98571" lon="4.91685">
        <ele>298</ele>
        <time>2017-08-25T09:18:41Z</time>
      </trkpt>
      <trkpt lat="45.98567" lon="4.91691">
        <ele>298</ele>
        <time>2017-08-25T09:18:42Z</time>
      </trkpt>
      <trkpt lat="45.98562" lon="4.91696">
        <ele>298</ele>
        <time>2017-08-25T09:18:43Z</time>
      </trkpt>
      <trkpt lat="45.98557" lon="4.91702">
        <ele>298</ele>
        <time>2017-08-25T09:18:44Z</time>
      </trkpt>
      <trkpt lat="45.98553" lon="4.91708">
        <ele>298</ele>
        <time>2017-08-25T09:18:45Z</time>
      </trkpt>
      <trkpt lat="45.98549" lon="4.91713">
        <ele>298</ele>
        <time>2017-08-25T09:18:46Z</time>
      </trkpt>
      <trkpt lat="45.98545" lon="4.91718">
        <ele>298</ele>
        <time>2017-08-25T09:18:47Z</time>
      </trkpt>
      <trkpt lat="45.98541" lon="4.91722">
        <ele>297</ele>
        <time>2017-08-25T09:18:48Z</time>
      </trkpt>
      <trkpt lat="45.98537" lon="4.91727">
        <ele>297</ele>
        <time>2017-08-25T09:18:49Z</time>
      </trkpt>
      <trkpt lat="45.98533" lon="4.91731">
        <ele>297</ele>
        <time>2017-08-25T09:18:50Z</time>
      </trkpt>
      <trkpt lat="45.9853" lon="4.91735">
        <ele>297</ele>
        <time>2017-08-25T09:18:51Z</time>
      </trkpt>
      <trkpt lat="45.98526" lon="4.91739">
        <ele>297</ele>
        <time>2017-08-25T09:18:52Z</time>
      </trkpt>
      <trkpt lat="45.98523" lon="4.91744">
        <ele>297</ele>
        <time>2017-08-25T09:18:53Z</time>
      </trkpt>
      <trkpt lat="45.98519" lon="4.91749">
        <ele>297</ele>
        <time>2017-08-25T09:18:54Z</time>
      </trkpt>
      <trkpt lat="45.98515" lon="4.91754">
        <ele>297</ele>
        <time>2017-08-25T09:18:55Z</time>
      </trkpt>
      <trkpt lat="45.98511" lon="4.9176">
        <ele>297</ele>
        <time>2017-08-25T09:18:56Z</time>
      </trkpt>
      <trkpt lat="45.98507" lon="4.91765">
        <ele>297</ele>
        <time>2017-08-25T09:18:57Z</time>
      </trkpt>
      <trkpt lat="45.98503" lon="4.91769">
        <ele>297</ele>
        <time>2017-08-25T09:18:58Z</time>
      </trkpt>
      <trkpt lat="45.98499" lon="4.91774">
        <ele>297</ele>
        <time>2017-08-25T09:18:59Z</time>
      </trkpt>
      <trkpt lat="45.98495" lon="4.91778">
        <ele>297</ele>
        <time>2017-08-25T09:19:00Z</time>
      </trkpt>
      <trkpt lat="45.98491" lon="4.91783">
        <ele>297</ele>
        <time>2017-08-25T09:19:01Z</time>
      </trkpt>
      <trkpt lat="45.98488" lon="4.91787">
        <ele>297</ele>
        <time>2017-08-25T09:19:02Z</time>
      </trkpt>
      <trkpt lat="45.98484" lon="4.91792">
        <ele>297</ele>
        <time>2017-08-25T09:19:03Z</time>
      </trkpt>
      <trkpt lat="45.9848" lon="4.91797">
        <ele>297</ele>
        <time>2017-08-25T09:19:04Z</time>
      </trkpt>
      <trkpt lat="45.98476" lon="4.91802">
        <ele>297</ele>
        <time>2017-08-25T09:19:05Z</time>
      </trkpt>
      <trkpt lat="45.98471" lon="4.91807">
        <ele>297</ele>
        <time>2017-08-25T09:19:06Z</time>
      </trkpt>
      <trkpt lat="45.98466" lon="4.91813">
        <ele>297</ele>
        <time>2017-08-25T09:19:07Z</time>
      </trkpt>
      <trkpt lat="45.98462" lon="4.91818">
        <ele>297</ele>
        <time>2017-08-25T09:19:08Z</time>
      </trkpt>
      <trkpt lat="45.98458" lon="4.91823">
        <ele>297</ele>
        <time>2017-08-25T09:19:09Z</time>
      </trkpt>
      <trkpt lat="45.98454" lon="4.91828">
        <ele>297</ele>
        <time>2017-08-25T09:19:10Z</time>
      </trkpt>
      <trkpt lat="45.9845" lon="4.91833">
        <ele>297</ele>
        <time>2017-08-25T09:19:11Z</time>
      </trkpt>
      <trkpt lat="45.98446" lon="4.91838">
        <ele>297</ele>
        <time>2017-08-25T09:19:12Z</time>
      </trkpt>
      <trkpt lat="45.98443" lon="4.91842">
        <ele>297</ele>
        <time>2017-08-25T09:19:13Z</time>
      </trkpt>
      <trkpt lat="45.98439" lon="4.91846">
        <ele>297</ele>
        <time>2017-08-25T09:19:14Z</time>
      </trkpt>
      <trkpt lat="45.98433" lon="4.91855">
        <ele>297</ele>
        <time>2017-08-25T09:19:16Z</time>
      </trkpt>
      <trkpt lat="45.9843" lon="4.91859">
        <ele>297</ele>
        <time>2017-08-25T09:19:17Z</time>
      </trkpt>
      <trkpt lat="45.98426" lon="4.91864">
        <ele>297</ele>
        <time>2017-08-25T09:19:18Z</time>
      </trkpt>
      <trkpt lat="45.98422" lon="4.91869">
        <ele>297</ele>
        <time>2017-08-25T09:19:19Z</time>
      </trkpt>
      <trkpt lat="45.98418" lon="4.91874">
        <ele>297</ele>
        <time>2017-08-25T09:19:20Z</time>
      </trkpt>
      <trkpt lat="45.98414" lon="4.9188">
        <ele>297</ele>
        <time>2017-08-25T09:19:21Z</time>
      </trkpt>
      <trkpt lat="45.9841" lon="4.91885">
        <ele>297</ele>
        <time>2017-08-25T09:19:22Z</time>
      </trkpt>
      <trkpt lat="45.98406" lon="4.9189">
        <ele>297</ele>
        <time>2017-08-25T09:19:23Z</time>
      </trkpt>
      <trkpt lat="45.98402" lon="4.91894">
        <ele>297</ele>
        <time>2017-08-25T09:19:24Z</time>
      </trkpt>
      <trkpt lat="45.98398" lon="4.91899">
        <ele>297</ele>
        <time>2017-08-25T09:19:25Z</time>
      </trkpt>
      <trkpt lat="45.98395" lon="4.91903">
        <ele>297</ele>
        <time>2017-08-25T09:19:26Z</time>
      </trkpt>
      <trkpt lat="45.98391" lon="4.91908">
        <ele>297</ele>
        <time>2017-08-25T09:19:27Z</time>
      </trkpt>
      <trkpt lat="45.98388" lon="4.91912">
        <ele>298</ele>
        <time>2017-08-25T09:19:28Z</time>
      </trkpt>
      <trkpt lat="45.98384" lon="4.91917">
        <ele>297</ele>
        <time>2017-08-25T09:19:29Z</time>
      </trkpt>
      <trkpt lat="45.9838" lon="4.91921">
        <ele>297</ele>
        <time>2017-08-25T09:19:30Z</time>
      </trkpt>
      <trkpt lat="45.98376" lon="4.91926">
        <ele>297</ele>
        <time>2017-08-25T09:19:31Z</time>
      </trkpt>
      <trkpt lat="45.98372" lon="4.9193">
        <ele>298</ele>
        <time>2017-08-25T09:19:32Z</time>
      </trkpt>
      <trkpt lat="45.98368" lon="4.91935">
        <ele>298</ele>
        <time>2017-08-25T09:19:33Z</time>
      </trkpt>
      <trkpt lat="45.98364" lon="4.91939">
        <ele>298</ele>
        <time>2017-08-25T09:19:34Z</time>
      </trkpt>
      <trkpt lat="45.9836" lon="4.91944">
        <ele>298</ele>
        <time>2017-08-25T09:19:35Z</time>
      </trkpt>
      <trkpt lat="45.98356" lon="4.91948">
        <ele>298</ele>
        <time>2017-08-25T09:19:36Z</time>
      </trkpt>
      <trkpt lat="45.98352" lon="4.91952">
        <ele>298</ele>
        <time>2017-08-25T09:19:37Z</time>
      </trkpt>
      <trkpt lat="45.98349" lon="4.91957">
        <ele>298</ele>
        <time>2017-08-25T09:19:38Z</time>
      </trkpt>
      <trkpt lat="45.98346" lon="4.91961">
        <ele>297</ele>
        <time>2017-08-25T09:19:39Z</time>
      </trkpt>
      <trkpt lat="45.9834" lon="4.91969">
        <ele>297</ele>
        <time>2017-08-25T09:19:41Z</time>
      </trkpt>
      <trkpt lat="45.98337" lon="4.91972">
        <ele>297</ele>
        <time>2017-08-25T09:19:42Z</time>
      </trkpt>
      <trkpt lat="45.98331" lon="4.91979">
        <ele>298</ele>
        <time>2017-08-25T09:19:44Z</time>
      </trkpt>
      <trkpt lat="45.98327" lon="4.91983">
        <ele>298</ele>
        <time>2017-08-25T09:19:45Z</time>
      </trkpt>
      <trkpt lat="45.98323" lon="4.91988">
        <ele>298</ele>
        <time>2017-08-25T09:19:46Z</time>
      </trkpt>
      <trkpt lat="45.9832" lon="4.91993">
        <ele>298</ele>
        <time>2017-08-25T09:19:47Z</time>
      </trkpt>
      <trkpt lat="45.98315" lon="4.91999">
        <ele>298</ele>
        <time>2017-08-25T09:19:48Z</time>
      </trkpt>
      <trkpt lat="45.98311" lon="4.92004">
        <ele>298</ele>
        <time>2017-08-25T09:19:49Z</time>
      </trkpt>
      <trkpt lat="45.98306" lon="4.9201">
        <ele>298</ele>
        <time>2017-08-25T09:19:50Z</time>
      </trkpt>
      <trkpt lat="45.98302" lon="4.92014">
        <ele>298</ele>
        <time>2017-08-25T09:19:51Z</time>
      </trkpt>
      <trkpt lat="45.98299" lon="4.92019">
        <ele>298</ele>
        <time>2017-08-25T09:19:52Z</time>
      </trkpt>
      <trkpt lat="45.98295" lon="4.92023">
        <ele>298</ele>
        <time>2017-08-25T09:19:53Z</time>
      </trkpt>
      <trkpt lat="45.98288" lon="4.9203">
        <ele>298</ele>
        <time>2017-08-25T09:19:55Z</time>
      </trkpt>
      <trkpt lat="45.98285" lon="4.92033">
        <ele>298</ele>
        <time>2017-08-25T09:19:56Z</time>
      </trkpt>
      <trkpt lat="45.9828" lon="4.92041">
        <ele>298</ele>
        <time>2017-08-25T09:19:58Z</time>
      </trkpt>
      <trkpt lat="45.98276" lon="4.92044">
        <ele>298</ele>
        <time>2017-08-25T09:19:59Z</time>
      </trkpt>
      <trkpt lat="45.9827" lon="4.92052">
        <ele>298</ele>
        <time>2017-08-25T09:20:01Z</time>
      </trkpt>
      <trkpt lat="45.98266" lon="4.92056">
        <ele>298</ele>
        <time>2017-08-25T09:20:02Z</time>
      </trkpt>
      <trkpt lat="45.98259" lon="4.92063">
        <ele>298</ele>
        <time>2017-08-25T09:20:04Z</time>
      </trkpt>
      <trkpt lat="45.98256" lon="4.92066">
        <ele>299</ele>
        <time>2017-08-25T09:20:05Z</time>
      </trkpt>
      <trkpt lat="45.98249" lon="4.92073">
        <ele>299</ele>
        <time>2017-08-25T09:20:07Z</time>
      </trkpt>
      <trkpt lat="45.98245" lon="4.92077">
        <ele>299</ele>
        <time>2017-08-25T09:20:08Z</time>
      </trkpt>
      <trkpt lat="45.98241" lon="4.92081">
        <ele>299</ele>
        <time>2017-08-25T09:20:09Z</time>
      </trkpt>
      <trkpt lat="45.98237" lon="4.92085">
        <ele>299</ele>
        <time>2017-08-25T09:20:10Z</time>
      </trkpt>
      <trkpt lat="45.98233" lon="4.9209">
        <ele>299</ele>
        <time>2017-08-25T09:20:11Z</time>
      </trkpt>
      <trkpt lat="45.98228" lon="4.92095">
        <ele>299</ele>
        <time>2017-08-25T09:20:12Z</time>
      </trkpt>
      <trkpt lat="45.98224" lon="4.92101">
        <ele>299</ele>
        <time>2017-08-25T09:20:13Z</time>
      </trkpt>
      <trkpt lat="45.9822" lon="4.92106">
        <ele>299</ele>
        <time>2017-08-25T09:20:14Z</time>
      </trkpt>
      <trkpt lat="45.98216" lon="4.9211">
        <ele>299</ele>
        <time>2017-08-25T09:20:15Z</time>
      </trkpt>
      <trkpt lat="45.98212" lon="4.92115">
        <ele>299</ele>
        <time>2017-08-25T09:20:16Z</time>
      </trkpt>
      <trkpt lat="45.98209" lon="4.92119">
        <ele>299</ele>
        <time>2017-08-25T09:20:17Z</time>
      </trkpt>
      <trkpt lat="45.98206" lon="4.92124">
        <ele>299</ele>
        <time>2017-08-25T09:20:18Z</time>
      </trkpt>
      <trkpt lat="45.98202" lon="4.9213">
        <ele>299</ele>
        <time>2017-08-25T09:20:19Z</time>
      </trkpt>
      <trkpt lat="45.98199" lon="4.92134">
        <ele>299</ele>
        <time>2017-08-25T09:20:20Z</time>
      </trkpt>
      <trkpt lat="45.98196" lon="4.92139">
        <ele>299</ele>
        <time>2017-08-25T09:20:21Z</time>
      </trkpt>
      <trkpt lat="45.98192" lon="4.92144">
        <ele>299</ele>
        <time>2017-08-25T09:20:22Z</time>
      </trkpt>
      <trkpt lat="45.98188" lon="4.92148">
        <ele>299</ele>
        <time>2017-08-25T09:20:23Z</time>
      </trkpt>
      <trkpt lat="45.98184" lon="4.92154">
        <ele>299</ele>
        <time>2017-08-25T09:20:24Z</time>
      </trkpt>
      <trkpt lat="45.9818" lon="4.92159">
        <ele>299</ele>
        <time>2017-08-25T09:20:25Z</time>
      </trkpt>
      <trkpt lat="45.98176" lon="4.92165">
        <ele>299</ele>
        <time>2017-08-25T09:20:26Z</time>
      </trkpt>
      <trkpt lat="45.98171" lon="4.9217">
        <ele>299</ele>
        <time>2017-08-25T09:20:27Z</time>
      </trkpt>
      <trkpt lat="45.98167" lon="4.92175">
        <ele>299</ele>
        <time>2017-08-25T09:20:28Z</time>
      </trkpt>
      <trkpt lat="45.98162" lon="4.92179">
        <ele>299</ele>
        <time>2017-08-25T09:20:29Z</time>
      </trkpt>
      <trkpt lat="45.98158" lon="4.92184">
        <ele>299</ele>
        <time>2017-08-25T09:20:30Z</time>
      </trkpt>
      <trkpt lat="45.98155" lon="4.92189">
        <ele>299</ele>
        <time>2017-08-25T09:20:31Z</time>
      </trkpt>
      <trkpt lat="45.98151" lon="4.92193">
        <ele>299</ele>
        <time>2017-08-25T09:20:32Z</time>
      </trkpt>
      <trkpt lat="45.98147" lon="4.92198">
        <ele>299</ele>
        <time>2017-08-25T09:20:33Z</time>
      </trkpt>
      <trkpt lat="45.98143" lon="4.92202">
        <ele>299</ele>
        <time>2017-08-25T09:20:34Z</time>
      </trkpt>
      <trkpt lat="45.98136" lon="4.92209">
        <ele>299</ele>
        <time>2017-08-25T09:20:36Z</time>
      </trkpt>
      <trkpt lat="45.98133" lon="4.92214">
        <ele>299</ele>
        <time>2017-08-25T09:20:37Z</time>
      </trkpt>
      <trkpt lat="45.98129" lon="4.92218">
        <ele>299</ele>
        <time>2017-08-25T09:20:38Z</time>
      </trkpt>
      <trkpt lat="45.98125" lon="4.92223">
        <ele>299</ele>
        <time>2017-08-25T09:20:39Z</time>
      </trkpt>
      <trkpt lat="45.98121" lon="4.92228">
        <ele>299</ele>
        <time>2017-08-25T09:20:40Z</time>
      </trkpt>
      <trkpt lat="45.98117" lon="4.92233">
        <ele>299</ele>
        <time>2017-08-25T09:20:41Z</time>
      </trkpt>
      <trkpt lat="45.98113" lon="4.92238">
        <ele>299</ele>
        <time>2017-08-25T09:20:42Z</time>
      </trkpt>
      <trkpt lat="45.98108" lon="4.92243">
        <ele>299</ele>
        <time>2017-08-25T09:20:43Z</time>
      </trkpt>
      <trkpt lat="45.98104" lon="4.92247">
        <ele>299</ele>
        <time>2017-08-25T09:20:44Z</time>
      </trkpt>
      <trkpt lat="45.98101" lon="4.92251">
        <ele>300</ele>
        <time>2017-08-25T09:20:45Z</time>
      </trkpt>
      <trkpt lat="45.98095" lon="4.9226">
        <ele>299</ele>
        <time>2017-08-25T09:20:47Z</time>
      </trkpt>
      <trkpt lat="45.98091" lon="4.92263">
        <ele>299</ele>
        <time>2017-08-25T09:20:48Z</time>
      </trkpt>
      <trkpt lat="45.98084" lon="4.92271">
        <ele>300</ele>
        <time>2017-08-25T09:20:50Z</time>
      </trkpt>
      <trkpt lat="45.9808" lon="4.92275">
        <ele>299</ele>
        <time>2017-08-25T09:20:51Z</time>
      </trkpt>
      <trkpt lat="45.98076" lon="4.92281">
        <ele>299</ele>
        <time>2017-08-25T09:20:52Z</time>
      </trkpt>
      <trkpt lat="45.98072" lon="4.92287">
        <ele>299</ele>
        <time>2017-08-25T09:20:53Z</time>
      </trkpt>
      <trkpt lat="45.98067" lon="4.92293">
        <ele>299</ele>
        <time>2017-08-25T09:20:54Z</time>
      </trkpt>
      <trkpt lat="45.98062" lon="4.92298">
        <ele>299</ele>
        <time>2017-08-25T09:20:55Z</time>
      </trkpt>
      <trkpt lat="45.98058" lon="4.92303">
        <ele>299</ele>
        <time>2017-08-25T09:20:56Z</time>
      </trkpt>
      <trkpt lat="45.98055" lon="4.92308">
        <ele>299</ele>
        <time>2017-08-25T09:20:57Z</time>
      </trkpt>
      <trkpt lat="45.98051" lon="4.92313">
        <ele>299</ele>
        <time>2017-08-25T09:20:58Z</time>
      </trkpt>
      <trkpt lat="45.98048" lon="4.92317">
        <ele>299</ele>
        <time>2017-08-25T09:20:59Z</time>
      </trkpt>
      <trkpt lat="45.98041" lon="4.92325">
        <ele>299</ele>
        <time>2017-08-25T09:21:01Z</time>
      </trkpt>
      <trkpt lat="45.98037" lon="4.92328">
        <ele>299</ele>
        <time>2017-08-25T09:21:02Z</time>
      </trkpt>
      <trkpt lat="45.98032" lon="4.92337">
        <ele>299</ele>
        <time>2017-08-25T09:21:04Z</time>
      </trkpt>
      <trkpt lat="45.98028" lon="4.9234">
        <ele>298</ele>
        <time>2017-08-25T09:21:05Z</time>
      </trkpt>
      <trkpt lat="45.98022" lon="4.92348">
        <ele>298</ele>
        <time>2017-08-25T09:21:07Z</time>
      </trkpt>
      <trkpt lat="45.98019" lon="4.92353">
        <ele>298</ele>
        <time>2017-08-25T09:21:08Z</time>
      </trkpt>
      <trkpt lat="45.98016" lon="4.92358">
        <ele>298</ele>
        <time>2017-08-25T09:21:09Z</time>
      </trkpt>
      <trkpt lat="45.98012" lon="4.92363">
        <ele>298</ele>
        <time>2017-08-25T09:21:10Z</time>
      </trkpt>
      <trkpt lat="45.98009" lon="4.92369">
        <ele>298</ele>
        <time>2017-08-25T09:21:11Z</time>
      </trkpt>
      <trkpt lat="45.98005" lon="4.92374">
        <ele>298</ele>
        <time>2017-08-25T09:21:12Z</time>
      </trkpt>
      <trkpt lat="45.98001" lon="4.92378">
        <ele>298</ele>
        <time>2017-08-25T09:21:13Z</time>
      </trkpt>
      <trkpt lat="45.97997" lon="4.92383">
        <ele>298</ele>
        <time>2017-08-25T09:21:14Z</time>
      </trkpt>
      <trkpt lat="45.97994" lon="4.92387">
        <ele>298</ele>
        <time>2017-08-25T09:21:15Z</time>
      </trkpt>
      <trkpt lat="45.97991" lon="4.92392">
        <ele>298</ele>
        <time>2017-08-25T09:21:16Z</time>
      </trkpt>
      <trkpt lat="45.97985" lon="4.924">
        <ele>298</ele>
        <time>2017-08-25T09:21:18Z</time>
      </trkpt>
      <trkpt lat="45.97981" lon="4.92405">
        <ele>298</ele>
        <time>2017-08-25T09:21:19Z</time>
      </trkpt>
      <trkpt lat="45.97978" lon="4.92409">
        <ele>298</ele>
        <time>2017-08-25T09:21:20Z</time>
      </trkpt>
      <trkpt lat="45.97974" lon="4.92415">
        <ele>298</ele>
        <time>2017-08-25T09:21:21Z</time>
      </trkpt>
      <trkpt lat="45.97971" lon="4.9242">
        <ele>298</ele>
        <time>2017-08-25T09:21:22Z</time>
      </trkpt>
      <trkpt lat="45.97966" lon="4.92424">
        <ele>298</ele>
        <time>2017-08-25T09:21:23Z</time>
      </trkpt>
      <trkpt lat="45.97962" lon="4.92428">
        <ele>298</ele>
        <time>2017-08-25T09:21:24Z</time>
      </trkpt>
      <trkpt lat="45.97958" lon="4.92433">
        <ele>299</ele>
        <time>2017-08-25T09:21:25Z</time>
      </trkpt>
      <trkpt lat="45.97953" lon="4.92437">
        <ele>299</ele>
        <time>2017-08-25T09:21:26Z</time>
      </trkpt>
      <trkpt lat="45.97949" lon="4.92442">
        <ele>299</ele>
        <time>2017-08-25T09:21:27Z</time>
      </trkpt>
      <trkpt lat="45.97944" lon="4.92448">
        <ele>299</ele>
        <time>2017-08-25T09:21:28Z</time>
      </trkpt>
      <trkpt lat="45.9794" lon="4.92453">
        <ele>299</ele>
        <time>2017-08-25T09:21:29Z</time>
      </trkpt>
      <trkpt lat="45.97936" lon="4.92457">
        <ele>299</ele>
        <time>2017-08-25T09:21:30Z</time>
      </trkpt>
      <trkpt lat="45.97932" lon="4.92462">
        <ele>299</ele>
        <time>2017-08-25T09:21:31Z</time>
      </trkpt>
      <trkpt lat="45.97925" lon="4.92469">
        <ele>299</ele>
        <time>2017-08-25T09:21:33Z</time>
      </trkpt>
      <trkpt lat="45.97923" lon="4.92473">
        <ele>299</ele>
        <time>2017-08-25T09:21:34Z</time>
      </trkpt>
      <trkpt lat="45.97916" lon="4.92481">
        <ele>299</ele>
        <time>2017-08-25T09:21:36Z</time>
      </trkpt>
      <trkpt lat="45.97913" lon="4.92485">
        <ele>299</ele>
        <time>2017-08-25T09:21:37Z</time>
      </trkpt>
      <trkpt lat="45.9791" lon="4.9249">
        <ele>299</ele>
        <time>2017-08-25T09:21:38Z</time>
      </trkpt>
      <trkpt lat="45.97906" lon="4.92494">
        <ele>299</ele>
        <time>2017-08-25T09:21:39Z</time>
      </trkpt>
      <trkpt lat="45.97902" lon="4.92499">
        <ele>299</ele>
        <time>2017-08-25T09:21:40Z</time>
      </trkpt>
      <trkpt lat="45.97898" lon="4.92503">
        <ele>299</ele>
        <time>2017-08-25T09:21:41Z</time>
      </trkpt>
      <trkpt lat="45.97894" lon="4.92508">
        <ele>299</ele>
        <time>2017-08-25T09:21:42Z</time>
      </trkpt>
      <trkpt lat="45.97891" lon="4.92512">
        <ele>300</ele>
        <time>2017-08-25T09:21:43Z</time>
      </trkpt>
      <trkpt lat="45.97885" lon="4.9252">
        <ele>300</ele>
        <time>2017-08-25T09:21:45Z</time>
      </trkpt>
      <trkpt lat="45.97882" lon="4.92523">
        <ele>300</ele>
        <time>2017-08-25T09:21:46Z</time>
      </trkpt>
      <trkpt lat="45.97875" lon="4.9253">
        <ele>300</ele>
        <time>2017-08-25T09:21:48Z</time>
      </trkpt>
      <trkpt lat="45.97872" lon="4.92533">
        <ele>300</ele>
        <time>2017-08-25T09:21:49Z</time>
      </trkpt>
      <trkpt lat="45.97868" lon="4.92537">
        <ele>300</ele>
        <time>2017-08-25T09:21:50Z</time>
      </trkpt>
      <trkpt lat="45.97865" lon="4.92542">
        <ele>300</ele>
        <time>2017-08-25T09:21:51Z</time>
      </trkpt>
      <trkpt lat="45.97861" lon="4.92548">
        <ele>300</ele>
        <time>2017-08-25T09:21:52Z</time>
      </trkpt>
      <trkpt lat="45.97858" lon="4.92553">
        <ele>300</ele>
        <time>2017-08-25T09:21:53Z</time>
      </trkpt>
      <trkpt lat="45.97854" lon="4.92558">
        <ele>300</ele>
        <time>2017-08-25T09:21:54Z</time>
      </trkpt>
      <trkpt lat="45.97851" lon="4.92563">
        <ele>300</ele>
        <time>2017-08-25T09:21:55Z</time>
      </trkpt>
      <trkpt lat="45.97845" lon="4.92569">
        <ele>300</ele>
        <time>2017-08-25T09:21:57Z</time>
      </trkpt>
      <trkpt lat="45.97842" lon="4.92573">
        <ele>300</ele>
        <time>2017-08-25T09:21:58Z</time>
      </trkpt>
      <trkpt lat="45.97835" lon="4.92581">
        <ele>300</ele>
        <time>2017-08-25T09:22:00Z</time>
      </trkpt>
      <trkpt lat="45.97831" lon="4.92586">
        <ele>300</ele>
        <time>2017-08-25T09:22:01Z</time>
      </trkpt>
      <trkpt lat="45.97828" lon="4.92591">
        <ele>300</ele>
        <time>2017-08-25T09:22:02Z</time>
      </trkpt>
      <trkpt lat="45.97824" lon="4.92595">
        <ele>300</ele>
        <time>2017-08-25T09:22:03Z</time>
      </trkpt>
      <trkpt lat="45.97821" lon="4.92599">
        <ele>300</ele>
        <time>2017-08-25T09:22:04Z</time>
      </trkpt>
      <trkpt lat="45.97817" lon="4.92604">
        <ele>300</ele>
        <time>2017-08-25T09:22:05Z</time>
      </trkpt>
      <trkpt lat="45.9781" lon="4.92611">
        <ele>300</ele>
        <time>2017-08-25T09:22:07Z</time>
      </trkpt>
      <trkpt lat="45.97807" lon="4.92615">
        <ele>300</ele>
        <time>2017-08-25T09:22:08Z</time>
      </trkpt>
      <trkpt lat="45.97802" lon="4.92622">
        <ele>300</ele>
        <time>2017-08-25T09:22:10Z</time>
      </trkpt>
      <trkpt lat="45.97799" lon="4.92626">
        <ele>301</ele>
        <time>2017-08-25T09:22:11Z</time>
      </trkpt>
      <trkpt lat="45.97794" lon="4.92632">
        <ele>301</ele>
        <time>2017-08-25T09:22:13Z</time>
      </trkpt>
      <trkpt lat="45.97791" lon="4.92635">
        <ele>300</ele>
        <time>2017-08-25T09:22:14Z</time>
      </trkpt>
      <trkpt lat="45.97786" lon="4.92643">
        <ele>300</ele>
        <time>2017-08-25T09:22:16Z</time>
      </trkpt>
      <trkpt lat="45.97783" lon="4.92647">
        <ele>300</ele>
        <time>2017-08-25T09:22:17Z</time>
      </trkpt>
      <trkpt lat="45.9778" lon="4.92651">
        <ele>300</ele>
        <time>2017-08-25T09:22:18Z</time>
      </trkpt>
      <trkpt lat="45.97776" lon="4.92656">
        <ele>300</ele>
        <time>2017-08-25T09:22:19Z</time>
      </trkpt>
      <trkpt lat="45.97772" lon="4.92661">
        <ele>300</ele>
        <time>2017-08-25T09:22:20Z</time>
      </trkpt>
      <trkpt lat="45.97768" lon="4.92666">
        <ele>300</ele>
        <time>2017-08-25T09:22:21Z</time>
      </trkpt>
      <trkpt lat="45.97764" lon="4.92671">
        <ele>300</ele>
        <time>2017-08-25T09:22:22Z</time>
      </trkpt>
      <trkpt lat="45.97761" lon="4.92677">
        <ele>300</ele>
        <time>2017-08-25T09:22:23Z</time>
      </trkpt>
      <trkpt lat="45.97757" lon="4.92682">
        <ele>300</ele>
        <time>2017-08-25T09:22:24Z</time>
      </trkpt>
      <trkpt lat="45.97753" lon="4.92687">
        <ele>300</ele>
        <time>2017-08-25T09:22:25Z</time>
      </trkpt>
      <trkpt lat="45.9775" lon="4.92692">
        <ele>301</ele>
        <time>2017-08-25T09:22:26Z</time>
      </trkpt>
      <trkpt lat="45.97746" lon="4.92696">
        <ele>301</ele>
        <time>2017-08-25T09:22:27Z</time>
      </trkpt>
      <trkpt lat="45.97742" lon="4.927">
        <ele>301</ele>
        <time>2017-08-25T09:22:28Z</time>
      </trkpt>
      <trkpt lat="45.97739" lon="4.92705">
        <ele>301</ele>
        <time>2017-08-25T09:22:29Z</time>
      </trkpt>
      <trkpt lat="45.97732" lon="4.92713">
        <ele>301</ele>
        <time>2017-08-25T09:22:31Z</time>
      </trkpt>
      <trkpt lat="45.97728" lon="4.92717">
        <ele>301</ele>
        <time>2017-08-25T09:22:32Z</time>
      </trkpt>
      <trkpt lat="45.97724" lon="4.92722">
        <ele>301</ele>
        <time>2017-08-25T09:22:33Z</time>
      </trkpt>
      <trkpt lat="45.9772" lon="4.92726">
        <ele>301</ele>
        <time>2017-08-25T09:22:34Z</time>
      </trkpt>
      <trkpt lat="45.97715" lon="4.92731">
        <ele>301</ele>
        <time>2017-08-25T09:22:35Z</time>
      </trkpt>
      <trkpt lat="45.97711" lon="4.92736">
        <ele>301</ele>
        <time>2017-08-25T09:22:36Z</time>
      </trkpt>
      <trkpt lat="45.97707" lon="4.92741">
        <ele>302</ele>
        <time>2017-08-25T09:22:37Z</time>
      </trkpt>
      <trkpt lat="45.97703" lon="4.92745">
        <ele>302</ele>
        <time>2017-08-25T09:22:38Z</time>
      </trkpt>
      <trkpt lat="45.97699" lon="4.9275">
        <ele>301</ele>
        <time>2017-08-25T09:22:39Z</time>
      </trkpt>
      <trkpt lat="45.97695" lon="4.92755">
        <ele>301</ele>
        <time>2017-08-25T09:22:40Z</time>
      </trkpt>
      <trkpt lat="45.97691" lon="4.9276">
        <ele>301</ele>
        <time>2017-08-25T09:22:41Z</time>
      </trkpt>
      <trkpt lat="45.97688" lon="4.92765">
        <ele>301</ele>
        <time>2017-08-25T09:22:42Z</time>
      </trkpt>
      <trkpt lat="45.97684" lon="4.92769">
        <ele>301</ele>
        <time>2017-08-25T09:22:43Z</time>
      </trkpt>
      <trkpt lat="45.97679" lon="4.92775">
        <ele>301</ele>
        <time>2017-08-25T09:22:44Z</time>
      </trkpt>
      <trkpt lat="45.97675" lon="4.92781">
        <ele>301</ele>
        <time>2017-08-25T09:22:45Z</time>
      </trkpt>
      <trkpt lat="45.97671" lon="4.92786">
        <ele>301</ele>
        <time>2017-08-25T09:22:46Z</time>
      </trkpt>
      <trkpt lat="45.97666" lon="4.92792">
        <ele>301</ele>
        <time>2017-08-25T09:22:47Z</time>
      </trkpt>
      <trkpt lat="45.97661" lon="4.92798">
        <ele>301</ele>
        <time>2017-08-25T09:22:48Z</time>
      </trkpt>
      <trkpt lat="45.97657" lon="4.92803">
        <ele>300</ele>
        <time>2017-08-25T09:22:49Z</time>
      </trkpt>
      <trkpt lat="45.97652" lon="4.92808">
        <ele>300</ele>
        <time>2017-08-25T09:22:50Z</time>
      </trkpt>
      <trkpt lat="45.97647" lon="4.92813">
        <ele>300</ele>
        <time>2017-08-25T09:22:51Z</time>
      </trkpt>
      <trkpt lat="45.97643" lon="4.92818">
        <ele>300</ele>
        <time>2017-08-25T09:22:52Z</time>
      </trkpt>
      <trkpt lat="45.97639" lon="4.92823">
        <ele>300</ele>
        <time>2017-08-25T09:22:53Z</time>
      </trkpt>
      <trkpt lat="45.97634" lon="4.92827">
        <ele>300</ele>
        <time>2017-08-25T09:22:54Z</time>
      </trkpt>
      <trkpt lat="45.9763" lon="4.92832">
        <ele>300</ele>
        <time>2017-08-25T09:22:55Z</time>
      </trkpt>
      <trkpt lat="45.97626" lon="4.92836">
        <ele>298</ele>
        <time>2017-08-25T09:22:56Z</time>
      </trkpt>
      <trkpt lat="45.97623" lon="4.9284">
        <ele>298</ele>
        <time>2017-08-25T09:22:57Z</time>
      </trkpt>
      <trkpt lat="45.97619" lon="4.92844">
        <ele>298</ele>
        <time>2017-08-25T09:22:58Z</time>
      </trkpt>
      <trkpt lat="45.97615" lon="4.92848">
        <ele>298</ele>
        <time>2017-08-25T09:22:59Z</time>
      </trkpt>
      <trkpt lat="45.97611" lon="4.92853">
        <ele>298</ele>
        <time>2017-08-25T09:23:00Z</time>
      </trkpt>
      <trkpt lat="45.97606" lon="4.92858">
        <ele>298</ele>
        <time>2017-08-25T09:23:01Z</time>
      </trkpt>
      <trkpt lat="45.97602" lon="4.92864">
        <ele>298</ele>
        <time>2017-08-25T09:23:02Z</time>
      </trkpt>
      <trkpt lat="45.97598" lon="4.9287">
        <ele>298</ele>
        <time>2017-08-25T09:23:03Z</time>
      </trkpt>
      <trkpt lat="45.97593" lon="4.92875">
        <ele>298</ele>
        <time>2017-08-25T09:23:04Z</time>
      </trkpt>
      <trkpt lat="45.97589" lon="4.92881">
        <ele>298</ele>
        <time>2017-08-25T09:23:05Z</time>
      </trkpt>
      <trkpt lat="45.97584" lon="4.92886">
        <ele>298</ele>
        <time>2017-08-25T09:23:06Z</time>
      </trkpt>
      <trkpt lat="45.9758" lon="4.92891">
        <ele>298</ele>
        <time>2017-08-25T09:23:07Z</time>
      </trkpt>
      <trkpt lat="45.97576" lon="4.92896">
        <ele>298</ele>
        <time>2017-08-25T09:23:08Z</time>
      </trkpt>
      <trkpt lat="45.97572" lon="4.92901">
        <ele>298</ele>
        <time>2017-08-25T09:23:09Z</time>
      </trkpt>
      <trkpt lat="45.97568" lon="4.92906">
        <ele>298</ele>
        <time>2017-08-25T09:23:10Z</time>
      </trkpt>
      <trkpt lat="45.97565" lon="4.9291">
        <ele>298</ele>
        <time>2017-08-25T09:23:11Z</time>
      </trkpt>
      <trkpt lat="45.97561" lon="4.92915">
        <ele>298</ele>
        <time>2017-08-25T09:23:12Z</time>
      </trkpt>
      <trkpt lat="45.97557" lon="4.9292">
        <ele>298</ele>
        <time>2017-08-25T09:23:13Z</time>
      </trkpt>
      <trkpt lat="45.97554" lon="4.92924">
        <ele>298</ele>
        <time>2017-08-25T09:23:14Z</time>
      </trkpt>
      <trkpt lat="45.9755" lon="4.92928">
        <ele>299</ele>
        <time>2017-08-25T09:23:15Z</time>
      </trkpt>
      <trkpt lat="45.97547" lon="4.92933">
        <ele>299</ele>
        <time>2017-08-25T09:23:16Z</time>
      </trkpt>
      <trkpt lat="45.97544" lon="4.92938">
        <ele>299</ele>
        <time>2017-08-25T09:23:17Z</time>
      </trkpt>
      <trkpt lat="45.97539" lon="4.92943">
        <ele>299</ele>
        <time>2017-08-25T09:23:18Z</time>
      </trkpt>
      <trkpt lat="45.97535" lon="4.92948">
        <ele>299</ele>
        <time>2017-08-25T09:23:19Z</time>
      </trkpt>
      <trkpt lat="45.97531" lon="4.92954">
        <ele>299</ele>
        <time>2017-08-25T09:23:20Z</time>
      </trkpt>
      <trkpt lat="45.97526" lon="4.9296">
        <ele>299</ele>
        <time>2017-08-25T09:23:21Z</time>
      </trkpt>
      <trkpt lat="45.97521" lon="4.92966">
        <ele>299</ele>
        <time>2017-08-25T09:23:22Z</time>
      </trkpt>
      <trkpt lat="45.97517" lon="4.92971">
        <ele>299</ele>
        <time>2017-08-25T09:23:23Z</time>
      </trkpt>
      <trkpt lat="45.97513" lon="4.92976">
        <ele>299</ele>
        <time>2017-08-25T09:23:24Z</time>
      </trkpt>
      <trkpt lat="45.97509" lon="4.92981">
        <ele>299</ele>
        <time>2017-08-25T09:23:25Z</time>
      </trkpt>
      <trkpt lat="45.97505" lon="4.92987">
        <ele>299</ele>
        <time>2017-08-25T09:23:26Z</time>
      </trkpt>
      <trkpt lat="45.97501" lon="4.92991">
        <ele>299</ele>
        <time>2017-08-25T09:23:27Z</time>
      </trkpt>
      <trkpt lat="45.97497" lon="4.92996">
        <ele>299</ele>
        <time>2017-08-25T09:23:28Z</time>
      </trkpt>
      <trkpt lat="45.97493" lon="4.93001">
        <ele>299</ele>
        <time>2017-08-25T09:23:29Z</time>
      </trkpt>
      <trkpt lat="45.97489" lon="4.93006">
        <ele>299</ele>
        <time>2017-08-25T09:23:30Z</time>
      </trkpt>
      <trkpt lat="45.97486" lon="4.9301">
        <ele>299</ele>
        <time>2017-08-25T09:23:31Z</time>
      </trkpt>
      <trkpt lat="45.97482" lon="4.93015">
        <ele>299</ele>
        <time>2017-08-25T09:23:32Z</time>
      </trkpt>
      <trkpt lat="45.97478" lon="4.9302">
        <ele>299</ele>
        <time>2017-08-25T09:23:33Z</time>
      </trkpt>
      <trkpt lat="45.97475" lon="4.93025">
        <ele>299</ele>
        <time>2017-08-25T09:23:34Z</time>
      </trkpt>
      <trkpt lat="45.9747" lon="4.93031">
        <ele>299</ele>
        <time>2017-08-25T09:23:35Z</time>
      </trkpt>
      <trkpt lat="45.97466" lon="4.93036">
        <ele>299</ele>
        <time>2017-08-25T09:23:36Z</time>
      </trkpt>
      <trkpt lat="45.97462" lon="4.93041">
        <ele>299</ele>
        <time>2017-08-25T09:23:37Z</time>
      </trkpt>
      <trkpt lat="45.97458" lon="4.93046">
        <ele>299</ele>
        <time>2017-08-25T09:23:38Z</time>
      </trkpt>
      <trkpt lat="45.97454" lon="4.93051">
        <ele>299</ele>
        <time>2017-08-25T09:23:39Z</time>
      </trkpt>
      <trkpt lat="45.9745" lon="4.93055">
        <ele>299</ele>
        <time>2017-08-25T09:23:40Z</time>
      </trkpt>
      <trkpt lat="45.97443" lon="4.93063">
        <ele>299</ele>
        <time>2017-08-25T09:23:42Z</time>
      </trkpt>
      <trkpt lat="45.9744" lon="4.93067">
        <ele>299</ele>
        <time>2017-08-25T09:23:43Z</time>
      </trkpt>
      <trkpt lat="45.97436" lon="4.93071">
        <ele>299</ele>
        <time>2017-08-25T09:23:44Z</time>
      </trkpt>
      <trkpt lat="45.97432" lon="4.93076">
        <ele>299</ele>
        <time>2017-08-25T09:23:45Z</time>
      </trkpt>
      <trkpt lat="45.97428" lon="4.9308">
        <ele>299</ele>
        <time>2017-08-25T09:23:46Z</time>
      </trkpt>
      <trkpt lat="45.97423" lon="4.93086">
        <ele>299</ele>
        <time>2017-08-25T09:23:47Z</time>
      </trkpt>
      <trkpt lat="45.97419" lon="4.93091">
        <ele>299</ele>
        <time>2017-08-25T09:23:48Z</time>
      </trkpt>
      <trkpt lat="45.97415" lon="4.93096">
        <ele>299</ele>
        <time>2017-08-25T09:23:49Z</time>
      </trkpt>
      <trkpt lat="45.9741" lon="4.93102">
        <ele>300</ele>
        <time>2017-08-25T09:23:50Z</time>
      </trkpt>
      <trkpt lat="45.97406" lon="4.93108">
        <ele>300</ele>
        <time>2017-08-25T09:23:51Z</time>
      </trkpt>
      <trkpt lat="45.97402" lon="4.93113">
        <ele>300</ele>
        <time>2017-08-25T09:23:52Z</time>
      </trkpt>
      <trkpt lat="45.97399" lon="4.93118">
        <ele>300</ele>
        <time>2017-08-25T09:23:53Z</time>
      </trkpt>
      <trkpt lat="45.97395" lon="4.93122">
        <ele>300</ele>
        <time>2017-08-25T09:23:54Z</time>
      </trkpt>
      <trkpt lat="45.97391" lon="4.93127">
        <ele>300</ele>
        <time>2017-08-25T09:23:55Z</time>
      </trkpt>
      <trkpt lat="45.97385" lon="4.93136">
        <ele>300</ele>
        <time>2017-08-25T09:23:57Z</time>
      </trkpt>
      <trkpt lat="45.97382" lon="4.9314">
        <ele>300</ele>
        <time>2017-08-25T09:23:58Z</time>
      </trkpt>
      <trkpt lat="45.97376" lon="4.93147">
        <ele>300</ele>
        <time>2017-08-25T09:24:00Z</time>
      </trkpt>
      <trkpt lat="45.97373" lon="4.93151">
        <ele>300</ele>
        <time>2017-08-25T09:24:01Z</time>
      </trkpt>
      <trkpt lat="45.97366" lon="4.93158">
        <ele>300</ele>
        <time>2017-08-25T09:24:03Z</time>
      </trkpt>
      <trkpt lat="45.97362" lon="4.93162">
        <ele>300</ele>
        <time>2017-08-25T09:24:04Z</time>
      </trkpt>
      <trkpt lat="45.97358" lon="4.93166">
        <ele>300</ele>
        <time>2017-08-25T09:24:05Z</time>
      </trkpt>
      <trkpt lat="45.97353" lon="4.9317">
        <ele>301</ele>
        <time>2017-08-25T09:24:06Z</time>
      </trkpt>
      <trkpt lat="45.97349" lon="4.93175">
        <ele>301</ele>
        <time>2017-08-25T09:24:07Z</time>
      </trkpt>
      <trkpt lat="45.97345" lon="4.93181">
        <ele>301</ele>
        <time>2017-08-25T09:24:08Z</time>
      </trkpt>
      <trkpt lat="45.9734" lon="4.93186">
        <ele>301</ele>
        <time>2017-08-25T09:24:09Z</time>
      </trkpt>
      <trkpt lat="45.97336" lon="4.93191">
        <ele>301</ele>
        <time>2017-08-25T09:24:10Z</time>
      </trkpt>
      <trkpt lat="45.97331" lon="4.93195">
        <ele>301</ele>
        <time>2017-08-25T09:24:11Z</time>
      </trkpt>
      <trkpt lat="45.97327" lon="4.93199">
        <ele>301</ele>
        <time>2017-08-25T09:24:12Z</time>
      </trkpt>
      <trkpt lat="45.97322" lon="4.93203">
        <ele>301</ele>
        <time>2017-08-25T09:24:13Z</time>
      </trkpt>
      <trkpt lat="45.97318" lon="4.93208">
        <ele>301</ele>
        <time>2017-08-25T09:24:14Z</time>
      </trkpt>
      <trkpt lat="45.97314" lon="4.93212">
        <ele>301</ele>
        <time>2017-08-25T09:24:15Z</time>
      </trkpt>
      <trkpt lat="45.9731" lon="4.93216">
        <ele>301</ele>
        <time>2017-08-25T09:24:16Z</time>
      </trkpt>
      <trkpt lat="45.97306" lon="4.9322">
        <ele>301</ele>
        <time>2017-08-25T09:24:17Z</time>
      </trkpt>
      <trkpt lat="45.97302" lon="4.93224">
        <ele>301</ele>
        <time>2017-08-25T09:24:18Z</time>
      </trkpt>
      <trkpt lat="45.97298" lon="4.93228">
        <ele>301</ele>
        <time>2017-08-25T09:24:19Z</time>
      </trkpt>
      <trkpt lat="45.97295" lon="4.93232">
        <ele>301</ele>
        <time>2017-08-25T09:24:20Z</time>
      </trkpt>
      <trkpt lat="45.97291" lon="4.93237">
        <ele>301</ele>
        <time>2017-08-25T09:24:21Z</time>
      </trkpt>
      <trkpt lat="45.97287" lon="4.93242">
        <ele>301</ele>
        <time>2017-08-25T09:24:22Z</time>
      </trkpt>
      <trkpt lat="45.97283" lon="4.93247">
        <ele>301</ele>
        <time>2017-08-25T09:24:23Z</time>
      </trkpt>
      <trkpt lat="45.97278" lon="4.93253">
        <ele>302</ele>
        <time>2017-08-25T09:24:24Z</time>
      </trkpt>
      <trkpt lat="45.97275" lon="4.93257">
        <ele>302</ele>
        <time>2017-08-25T09:24:25Z</time>
      </trkpt>
      <trkpt lat="45.97271" lon="4.93262">
        <ele>302</ele>
        <time>2017-08-25T09:24:26Z</time>
      </trkpt>
      <trkpt lat="45.97268" lon="4.93267">
        <ele>302</ele>
        <time>2017-08-25T09:24:27Z</time>
      </trkpt>
      <trkpt lat="45.97264" lon="4.93272">
        <ele>302</ele>
        <time>2017-08-25T09:24:28Z</time>
      </trkpt>
      <trkpt lat="45.9726" lon="4.93278">
        <ele>302</ele>
        <time>2017-08-25T09:24:29Z</time>
      </trkpt>
      <trkpt lat="45.97257" lon="4.93283">
        <ele>302</ele>
        <time>2017-08-25T09:24:30Z</time>
      </trkpt>
      <trkpt lat="45.97253" lon="4.93287">
        <ele>302</ele>
        <time>2017-08-25T09:24:31Z</time>
      </trkpt>
      <trkpt lat="45.97249" lon="4.93291">
        <ele>300</ele>
        <time>2017-08-25T09:24:32Z</time>
      </trkpt>
      <trkpt lat="45.97245" lon="4.93295">
        <ele>300</ele>
        <time>2017-08-25T09:24:33Z</time>
      </trkpt>
      <trkpt lat="45.97242" lon="4.93299">
        <ele>300</ele>
        <time>2017-08-25T09:24:34Z</time>
      </trkpt>
      <trkpt lat="45.97238" lon="4.93303">
        <ele>300</ele>
        <time>2017-08-25T09:24:35Z</time>
      </trkpt>
      <trkpt lat="45.97234" lon="4.93307">
        <ele>300</ele>
        <time>2017-08-25T09:24:36Z</time>
      </trkpt>
      <trkpt lat="45.9723" lon="4.93311">
        <ele>300</ele>
        <time>2017-08-25T09:24:37Z</time>
      </trkpt>
      <trkpt lat="45.97227" lon="4.93316">
        <ele>300</ele>
        <time>2017-08-25T09:24:38Z</time>
      </trkpt>
      <trkpt lat="45.97224" lon="4.93323">
        <ele>300</ele>
        <time>2017-08-25T09:24:39Z</time>
      </trkpt>
      <trkpt lat="45.9722" lon="4.93329">
        <ele>300</ele>
        <time>2017-08-25T09:24:40Z</time>
      </trkpt>
      <trkpt lat="45.97216" lon="4.93334">
        <ele>301</ele>
        <time>2017-08-25T09:24:41Z</time>
      </trkpt>
      <trkpt lat="45.97212" lon="4.93339">
        <ele>301</ele>
        <time>2017-08-25T09:24:42Z</time>
      </trkpt>
      <trkpt lat="45.97209" lon="4.93343">
        <ele>301</ele>
        <time>2017-08-25T09:24:43Z</time>
      </trkpt>
      <trkpt lat="45.97206" lon="4.93348">
        <ele>301</ele>
        <time>2017-08-25T09:24:44Z</time>
      </trkpt>
      <trkpt lat="45.97202" lon="4.93353">
        <ele>301</ele>
        <time>2017-08-25T09:24:45Z</time>
      </trkpt>
      <trkpt lat="45.97199" lon="4.93357">
        <ele>301</ele>
        <time>2017-08-25T09:24:46Z</time>
      </trkpt>
      <trkpt lat="45.97193" lon="4.93363">
        <ele>301</ele>
        <time>2017-08-25T09:24:48Z</time>
      </trkpt>
      <trkpt lat="45.9719" lon="4.93367">
        <ele>301</ele>
        <time>2017-08-25T09:24:49Z</time>
      </trkpt>
      <trkpt lat="45.97187" lon="4.93371">
        <ele>301</ele>
        <time>2017-08-25T09:24:50Z</time>
      </trkpt>
      <trkpt lat="45.97183" lon="4.93375">
        <ele>301</ele>
        <time>2017-08-25T09:24:51Z</time>
      </trkpt>
      <trkpt lat="45.97179" lon="4.9338">
        <ele>301</ele>
        <time>2017-08-25T09:24:52Z</time>
      </trkpt>
      <trkpt lat="45.97174" lon="4.93385">
        <ele>301</ele>
        <time>2017-08-25T09:24:53Z</time>
      </trkpt>
      <trkpt lat="45.9717" lon="4.9339">
        <ele>301</ele>
        <time>2017-08-25T09:24:54Z</time>
      </trkpt>
      <trkpt lat="45.97166" lon="4.93395">
        <ele>301</ele>
        <time>2017-08-25T09:24:55Z</time>
      </trkpt>
      <trkpt lat="45.97163" lon="4.934">
        <ele>301</ele>
        <time>2017-08-25T09:24:56Z</time>
      </trkpt>
      <trkpt lat="45.97159" lon="4.93404">
        <ele>301</ele>
        <time>2017-08-25T09:24:57Z</time>
      </trkpt>
      <trkpt lat="45.97155" lon="4.93409">
        <ele>301</ele>
        <time>2017-08-25T09:24:58Z</time>
      </trkpt>
      <trkpt lat="45.97151" lon="4.93412">
        <ele>301</ele>
        <time>2017-08-25T09:24:59Z</time>
      </trkpt>
      <trkpt lat="45.97144" lon="4.93419">
        <ele>302</ele>
        <time>2017-08-25T09:25:01Z</time>
      </trkpt>
      <trkpt lat="45.97141" lon="4.93422">
        <ele>301</ele>
        <time>2017-08-25T09:25:02Z</time>
      </trkpt>
      <trkpt lat="45.97135" lon="4.9343">
        <ele>301</ele>
        <time>2017-08-25T09:25:04Z</time>
      </trkpt>
      <trkpt lat="45.97131" lon="4.93434">
        <ele>301</ele>
        <time>2017-08-25T09:25:05Z</time>
      </trkpt>
      <trkpt lat="45.97128" lon="4.93438">
        <ele>301</ele>
        <time>2017-08-25T09:25:06Z</time>
      </trkpt>
      <trkpt lat="45.97124" lon="4.93443">
        <ele>301</ele>
        <time>2017-08-25T09:25:07Z</time>
      </trkpt>
      <trkpt lat="45.97119" lon="4.93448">
        <ele>301</ele>
        <time>2017-08-25T09:25:08Z</time>
      </trkpt>
      <trkpt lat="45.97115" lon="4.93454">
        <ele>301</ele>
        <time>2017-08-25T09:25:09Z</time>
      </trkpt>
      <trkpt lat="45.9711" lon="4.93459">
        <ele>301</ele>
        <time>2017-08-25T09:25:10Z</time>
      </trkpt>
      <trkpt lat="45.97106" lon="4.93465">
        <ele>301</ele>
        <time>2017-08-25T09:25:11Z</time>
      </trkpt>
      <trkpt lat="45.97102" lon="4.9347">
        <ele>301</ele>
        <time>2017-08-25T09:25:12Z</time>
      </trkpt>
      <trkpt lat="45.97098" lon="4.93476">
        <ele>301</ele>
        <time>2017-08-25T09:25:13Z</time>
      </trkpt>
      <trkpt lat="45.97094" lon="4.93481">
        <ele>301</ele>
        <time>2017-08-25T09:25:14Z</time>
      </trkpt>
      <trkpt lat="45.9709" lon="4.93486">
        <ele>301</ele>
        <time>2017-08-25T09:25:15Z</time>
      </trkpt>
      <trkpt lat="45.97086" lon="4.9349">
        <ele>300</ele>
        <time>2017-08-25T09:25:16Z</time>
      </trkpt>
      <trkpt lat="45.97082" lon="4.93495">
        <ele>300</ele>
        <time>2017-08-25T09:25:17Z</time>
      </trkpt>
      <trkpt lat="45.97077" lon="4.935">
        <ele>300</ele>
        <time>2017-08-25T09:25:18Z</time>
      </trkpt>
      <trkpt lat="45.97072" lon="4.93505">
        <ele>300</ele>
        <time>2017-08-25T09:25:19Z</time>
      </trkpt>
      <trkpt lat="45.97068" lon="4.9351">
        <ele>299</ele>
        <time>2017-08-25T09:25:20Z</time>
      </trkpt>
      <trkpt lat="45.97064" lon="4.93515">
        <ele>299</ele>
        <time>2017-08-25T09:25:21Z</time>
      </trkpt>
      <trkpt lat="45.9706" lon="4.9352">
        <ele>299</ele>
        <time>2017-08-25T09:25:22Z</time>
      </trkpt>
      <trkpt lat="45.97056" lon="4.93526">
        <ele>299</ele>
        <time>2017-08-25T09:25:23Z</time>
      </trkpt>
      <trkpt lat="45.97052" lon="4.93531">
        <ele>299</ele>
        <time>2017-08-25T09:25:24Z</time>
      </trkpt>
      <trkpt lat="45.97048" lon="4.93536">
        <ele>299</ele>
        <time>2017-08-25T09:25:25Z</time>
      </trkpt>
      <trkpt lat="45.97044" lon="4.9354">
        <ele>299</ele>
        <time>2017-08-25T09:25:26Z</time>
      </trkpt>
      <trkpt lat="45.9704" lon="4.93544">
        <ele>299</ele>
        <time>2017-08-25T09:25:27Z</time>
      </trkpt>
      <trkpt lat="45.97037" lon="4.93549">
        <ele>299</ele>
        <time>2017-08-25T09:25:28Z</time>
      </trkpt>
      <trkpt lat="45.97033" lon="4.93555">
        <ele>299</ele>
        <time>2017-08-25T09:25:29Z</time>
      </trkpt>
      <trkpt lat="45.97028" lon="4.9356">
        <ele>299</ele>
        <time>2017-08-25T09:25:30Z</time>
      </trkpt>
      <trkpt lat="45.97025" lon="4.93565">
        <ele>299</ele>
        <time>2017-08-25T09:25:31Z</time>
      </trkpt>
      <trkpt lat="45.97022" lon="4.9357">
        <ele>299</ele>
        <time>2017-08-25T09:25:32Z</time>
      </trkpt>
      <trkpt lat="45.97018" lon="4.93575">
        <ele>299</ele>
        <time>2017-08-25T09:25:33Z</time>
      </trkpt>
      <trkpt lat="45.97015" lon="4.93581">
        <ele>299</ele>
        <time>2017-08-25T09:25:34Z</time>
      </trkpt>
      <trkpt lat="45.97011" lon="4.93586">
        <ele>299</ele>
        <time>2017-08-25T09:25:35Z</time>
      </trkpt>
      <trkpt lat="45.97007" lon="4.93592">
        <ele>299</ele>
        <time>2017-08-25T09:25:36Z</time>
      </trkpt>
      <trkpt lat="45.97003" lon="4.93597">
        <ele>299</ele>
        <time>2017-08-25T09:25:37Z</time>
      </trkpt>
      <trkpt lat="45.96999" lon="4.93602">
        <ele>299</ele>
        <time>2017-08-25T09:25:38Z</time>
      </trkpt>
      <trkpt lat="45.96996" lon="4.93607">
        <ele>299</ele>
        <time>2017-08-25T09:25:39Z</time>
      </trkpt>
      <trkpt lat="45.96992" lon="4.93612">
        <ele>299</ele>
        <time>2017-08-25T09:25:40Z</time>
      </trkpt>
      <trkpt lat="45.96988" lon="4.93616">
        <ele>299</ele>
        <time>2017-08-25T09:25:41Z</time>
      </trkpt>
      <trkpt lat="45.96985" lon="4.93621">
        <ele>299</ele>
        <time>2017-08-25T09:25:42Z</time>
      </trkpt>
      <trkpt lat="45.96982" lon="4.93626">
        <ele>299</ele>
        <time>2017-08-25T09:25:43Z</time>
      </trkpt>
      <trkpt lat="45.96978" lon="4.93631">
        <ele>299</ele>
        <time>2017-08-25T09:25:44Z</time>
      </trkpt>
      <trkpt lat="45.96974" lon="4.93636">
        <ele>299</ele>
        <time>2017-08-25T09:25:45Z</time>
      </trkpt>
      <trkpt lat="45.96971" lon="4.9364">
        <ele>299</ele>
        <time>2017-08-25T09:25:46Z</time>
      </trkpt>
      <trkpt lat="45.96966" lon="4.93645">
        <ele>299</ele>
        <time>2017-08-25T09:25:47Z</time>
      </trkpt>
      <trkpt lat="45.96962" lon="4.9365">
        <ele>299</ele>
        <time>2017-08-25T09:25:48Z</time>
      </trkpt>
      <trkpt lat="45.96957" lon="4.93656">
        <ele>299</ele>
        <time>2017-08-25T09:25:49Z</time>
      </trkpt>
      <trkpt lat="45.96953" lon="4.93661">
        <ele>299</ele>
        <time>2017-08-25T09:25:50Z</time>
      </trkpt>
      <trkpt lat="45.96948" lon="4.93666">
        <ele>299</ele>
        <time>2017-08-25T09:25:51Z</time>
      </trkpt>
      <trkpt lat="45.96944" lon="4.93671">
        <ele>298</ele>
        <time>2017-08-25T09:25:52Z</time>
      </trkpt>
      <trkpt lat="45.96939" lon="4.93676">
        <ele>298</ele>
        <time>2017-08-25T09:25:53Z</time>
      </trkpt>
      <trkpt lat="45.96935" lon="4.9368">
        <ele>298</ele>
        <time>2017-08-25T09:25:54Z</time>
      </trkpt>
      <trkpt lat="45.96931" lon="4.93686">
        <ele>298</ele>
        <time>2017-08-25T09:25:55Z</time>
      </trkpt>
      <trkpt lat="45.96926" lon="4.93691">
        <ele>298</ele>
        <time>2017-08-25T09:25:56Z</time>
      </trkpt>
      <trkpt lat="45.96922" lon="4.93696">
        <ele>298</ele>
        <time>2017-08-25T09:25:57Z</time>
      </trkpt>
      <trkpt lat="45.96918" lon="4.93701">
        <ele>298</ele>
        <time>2017-08-25T09:25:58Z</time>
      </trkpt>
      <trkpt lat="45.96914" lon="4.93705">
        <ele>297</ele>
        <time>2017-08-25T09:25:59Z</time>
      </trkpt>
      <trkpt lat="45.96909" lon="4.93709">
        <ele>297</ele>
        <time>2017-08-25T09:26:00Z</time>
      </trkpt>
      <trkpt lat="45.96905" lon="4.93713">
        <ele>297</ele>
        <time>2017-08-25T09:26:01Z</time>
      </trkpt>
      <trkpt lat="45.969" lon="4.93717">
        <ele>297</ele>
        <time>2017-08-25T09:26:02Z</time>
      </trkpt>
      <trkpt lat="45.96896" lon="4.93721">
        <ele>297</ele>
        <time>2017-08-25T09:26:03Z</time>
      </trkpt>
      <trkpt lat="45.96891" lon="4.93725">
        <ele>297</ele>
        <time>2017-08-25T09:26:04Z</time>
      </trkpt>
      <trkpt lat="45.96887" lon="4.93728">
        <ele>297</ele>
        <time>2017-08-25T09:26:05Z</time>
      </trkpt>
      <trkpt lat="45.96878" lon="4.93733">
        <ele>297</ele>
        <time>2017-08-25T09:26:07Z</time>
      </trkpt>
      <trkpt lat="45.96874" lon="4.93734">
        <ele>297</ele>
        <time>2017-08-25T09:26:08Z</time>
      </trkpt>
      <trkpt lat="45.96869" lon="4.93736">
        <ele>297</ele>
        <time>2017-08-25T09:26:09Z</time>
      </trkpt>
      <trkpt lat="45.96865" lon="4.93738">
        <ele>297</ele>
        <time>2017-08-25T09:26:10Z</time>
      </trkpt>
      <trkpt lat="45.96859" lon="4.9374">
        <ele>297</ele>
        <time>2017-08-25T09:26:11Z</time>
      </trkpt>
      <trkpt lat="45.96854" lon="4.93742">
        <ele>297</ele>
        <time>2017-08-25T09:26:12Z</time>
      </trkpt>
      <trkpt lat="45.96847" lon="4.93744">
        <ele>296</ele>
        <time>2017-08-25T09:26:13Z</time>
      </trkpt>
      <trkpt lat="45.96841" lon="4.93746">
        <ele>296</ele>
        <time>2017-08-25T09:26:14Z</time>
      </trkpt>
      <trkpt lat="45.96835" lon="4.93748">
        <ele>296</ele>
        <time>2017-08-25T09:26:15Z</time>
      </trkpt>
      <trkpt lat="45.96829" lon="4.9375">
        <ele>296</ele>
        <time>2017-08-25T09:26:16Z</time>
      </trkpt>
      <trkpt lat="45.96824" lon="4.93751">
        <ele>296</ele>
        <time>2017-08-25T09:26:17Z</time>
      </trkpt>
      <trkpt lat="45.96818" lon="4.93753">
        <ele>296</ele>
        <time>2017-08-25T09:26:18Z</time>
      </trkpt>
      <trkpt lat="45.96813" lon="4.93755">
        <ele>296</ele>
        <time>2017-08-25T09:26:19Z</time>
      </trkpt>
      <trkpt lat="45.96807" lon="4.93757">
        <ele>295</ele>
        <time>2017-08-25T09:26:20Z</time>
      </trkpt>
      <trkpt lat="45.96802" lon="4.93758">
        <ele>295</ele>
        <time>2017-08-25T09:26:21Z</time>
      </trkpt>
      <trkpt lat="45.96797" lon="4.93761">
        <ele>295</ele>
        <time>2017-08-25T09:26:22Z</time>
      </trkpt>
      <trkpt lat="45.96792" lon="4.93762">
        <ele>295</ele>
        <time>2017-08-25T09:26:23Z</time>
      </trkpt>
      <trkpt lat="45.96787" lon="4.93763">
        <ele>295</ele>
        <time>2017-08-25T09:26:24Z</time>
      </trkpt>
      <trkpt lat="45.96782" lon="4.93765">
        <ele>295</ele>
        <time>2017-08-25T09:26:25Z</time>
      </trkpt>
      <trkpt lat="45.96777" lon="4.93766">
        <ele>295</ele>
        <time>2017-08-25T09:26:26Z</time>
      </trkpt>
      <trkpt lat="45.96772" lon="4.93768">
        <ele>295</ele>
        <time>2017-08-25T09:26:27Z</time>
      </trkpt>
      <trkpt lat="45.96767" lon="4.93771">
        <ele>295</ele>
        <time>2017-08-25T09:26:28Z</time>
      </trkpt>
      <trkpt lat="45.96761" lon="4.93773">
        <ele>295</ele>
        <time>2017-08-25T09:26:29Z</time>
      </trkpt>
      <trkpt lat="45.96755" lon="4.93775">
        <ele>295</ele>
        <time>2017-08-25T09:26:30Z</time>
      </trkpt>
      <trkpt lat="45.96749" lon="4.93777">
        <ele>295</ele>
        <time>2017-08-25T09:26:31Z</time>
      </trkpt>
      <trkpt lat="45.96744" lon="4.93779">
        <ele>295</ele>
        <time>2017-08-25T09:26:32Z</time>
      </trkpt>
      <trkpt lat="45.96739" lon="4.93781">
        <ele>296</ele>
        <time>2017-08-25T09:26:33Z</time>
      </trkpt>
      <trkpt lat="45.96735" lon="4.93784">
        <ele>296</ele>
        <time>2017-08-25T09:26:34Z</time>
      </trkpt>
      <trkpt lat="45.9673" lon="4.93786">
        <ele>296</ele>
        <time>2017-08-25T09:26:35Z</time>
      </trkpt>
      <trkpt lat="45.96726" lon="4.93787">
        <ele>296</ele>
        <time>2017-08-25T09:26:36Z</time>
      </trkpt>
      <trkpt lat="45.96721" lon="4.93789">
        <ele>296</ele>
        <time>2017-08-25T09:26:37Z</time>
      </trkpt>
      <trkpt lat="45.96717" lon="4.93791">
        <ele>296</ele>
        <time>2017-08-25T09:26:38Z</time>
      </trkpt>
      <trkpt lat="45.96712" lon="4.93793">
        <ele>296</ele>
        <time>2017-08-25T09:26:39Z</time>
      </trkpt>
      <trkpt lat="45.96707" lon="4.93795">
        <ele>296</ele>
        <time>2017-08-25T09:26:40Z</time>
      </trkpt>
      <trkpt lat="45.96702" lon="4.93797">
        <ele>296</ele>
        <time>2017-08-25T09:26:41Z</time>
      </trkpt>
      <trkpt lat="45.96697" lon="4.93799">
        <ele>297</ele>
        <time>2017-08-25T09:26:42Z</time>
      </trkpt>
      <trkpt lat="45.96692" lon="4.93801">
        <ele>297</ele>
        <time>2017-08-25T09:26:43Z</time>
      </trkpt>
      <trkpt lat="45.96687" lon="4.93803">
        <ele>297</ele>
        <time>2017-08-25T09:26:44Z</time>
      </trkpt>
      <trkpt lat="45.96681" lon="4.93804">
        <ele>297</ele>
        <time>2017-08-25T09:26:45Z</time>
      </trkpt>
      <trkpt lat="45.96676" lon="4.93806">
        <ele>297</ele>
        <time>2017-08-25T09:26:46Z</time>
      </trkpt>
      <trkpt lat="45.9667" lon="4.93808">
        <ele>297</ele>
        <time>2017-08-25T09:26:47Z</time>
      </trkpt>
      <trkpt lat="45.96665" lon="4.9381">
        <ele>297</ele>
        <time>2017-08-25T09:26:48Z</time>
      </trkpt>
      <trkpt lat="45.96659" lon="4.93811">
        <ele>297</ele>
        <time>2017-08-25T09:26:49Z</time>
      </trkpt>
      <trkpt lat="45.96654" lon="4.93813">
        <ele>297</ele>
        <time>2017-08-25T09:26:50Z</time>
      </trkpt>
      <trkpt lat="45.96648" lon="4.93815">
        <ele>297</ele>
        <time>2017-08-25T09:26:51Z</time>
      </trkpt>
      <trkpt lat="45.96643" lon="4.93817">
        <ele>297</ele>
        <time>2017-08-25T09:26:52Z</time>
      </trkpt>
      <trkpt lat="45.96639" lon="4.93819">
        <ele>297</ele>
        <time>2017-08-25T09:26:53Z</time>
      </trkpt>
      <trkpt lat="45.96635" lon="4.9382">
        <ele>297</ele>
        <time>2017-08-25T09:26:54Z</time>
      </trkpt>
      <trkpt lat="45.9663" lon="4.93822">
        <ele>297</ele>
        <time>2017-08-25T09:26:55Z</time>
      </trkpt>
      <trkpt lat="45.96625" lon="4.93824">
        <ele>297</ele>
        <time>2017-08-25T09:26:56Z</time>
      </trkpt>
      <trkpt lat="45.96621" lon="4.93825">
        <ele>297</ele>
        <time>2017-08-25T09:26:57Z</time>
      </trkpt>
      <trkpt lat="45.96615" lon="4.93827">
        <ele>297</ele>
        <time>2017-08-25T09:26:58Z</time>
      </trkpt>
      <trkpt lat="45.9661" lon="4.93829">
        <ele>297</ele>
        <time>2017-08-25T09:26:59Z</time>
      </trkpt>
      <trkpt lat="45.96605" lon="4.9383">
        <ele>297</ele>
        <time>2017-08-25T09:27:00Z</time>
      </trkpt>
      <trkpt lat="45.966" lon="4.93832">
        <ele>297</ele>
        <time>2017-08-25T09:27:01Z</time>
      </trkpt>
      <trkpt lat="45.96596" lon="4.93834">
        <ele>296</ele>
        <time>2017-08-25T09:27:02Z</time>
      </trkpt>
      <trkpt lat="45.96591" lon="4.93835">
        <ele>296</ele>
        <time>2017-08-25T09:27:03Z</time>
      </trkpt>
      <trkpt lat="45.96587" lon="4.93837">
        <ele>296</ele>
        <time>2017-08-25T09:27:04Z</time>
      </trkpt>
      <trkpt lat="45.96582" lon="4.93838">
        <ele>296</ele>
        <time>2017-08-25T09:27:05Z</time>
      </trkpt>
      <trkpt lat="45.96577" lon="4.93839">
        <ele>296</ele>
        <time>2017-08-25T09:27:06Z</time>
      </trkpt>
      <trkpt lat="45.96572" lon="4.93841">
        <ele>296</ele>
        <time>2017-08-25T09:27:07Z</time>
      </trkpt>
      <trkpt lat="45.96567" lon="4.93843">
        <ele>296</ele>
        <time>2017-08-25T09:27:08Z</time>
      </trkpt>
      <trkpt lat="45.96562" lon="4.93844">
        <ele>296</ele>
        <time>2017-08-25T09:27:09Z</time>
      </trkpt>
      <trkpt lat="45.96557" lon="4.93846">
        <ele>296</ele>
        <time>2017-08-25T09:27:10Z</time>
      </trkpt>
      <trkpt lat="45.96553" lon="4.93848">
        <ele>296</ele>
        <time>2017-08-25T09:27:11Z</time>
      </trkpt>
      <trkpt lat="45.96549" lon="4.9385">
        <ele>296</ele>
        <time>2017-08-25T09:27:12Z</time>
      </trkpt>
      <trkpt lat="45.96541" lon="4.93852">
        <ele>296</ele>
        <time>2017-08-25T09:27:14Z</time>
      </trkpt>
      <trkpt lat="45.96536" lon="4.93853">
        <ele>296</ele>
        <time>2017-08-25T09:27:15Z</time>
      </trkpt>
      <trkpt lat="45.96528" lon="4.93856">
        <ele>296</ele>
        <time>2017-08-25T09:27:17Z</time>
      </trkpt>
      <trkpt lat="45.96524" lon="4.93857">
        <ele>296</ele>
        <time>2017-08-25T09:27:18Z</time>
      </trkpt>
      <trkpt lat="45.9652" lon="4.93859">
        <ele>296</ele>
        <time>2017-08-25T09:27:19Z</time>
      </trkpt>
      <trkpt lat="45.96515" lon="4.93861">
        <ele>296</ele>
        <time>2017-08-25T09:27:20Z</time>
      </trkpt>
      <trkpt lat="45.96511" lon="4.93862">
        <ele>296</ele>
        <time>2017-08-25T09:27:21Z</time>
      </trkpt>
      <trkpt lat="45.96506" lon="4.93863">
        <ele>296</ele>
        <time>2017-08-25T09:27:22Z</time>
      </trkpt>
      <trkpt lat="45.96501" lon="4.93865">
        <ele>296</ele>
        <time>2017-08-25T09:27:23Z</time>
      </trkpt>
      <trkpt lat="45.96495" lon="4.93868">
        <ele>296</ele>
        <time>2017-08-25T09:27:24Z</time>
      </trkpt>
      <trkpt lat="45.96491" lon="4.9387">
        <ele>296</ele>
        <time>2017-08-25T09:27:25Z</time>
      </trkpt>
      <trkpt lat="45.96486" lon="4.93871">
        <ele>296</ele>
        <time>2017-08-25T09:27:26Z</time>
      </trkpt>
      <trkpt lat="45.96478" lon="4.93875">
        <ele>296</ele>
        <time>2017-08-25T09:27:28Z</time>
      </trkpt>
      <trkpt lat="45.96473" lon="4.93876">
        <ele>295</ele>
        <time>2017-08-25T09:27:29Z</time>
      </trkpt>
      <trkpt lat="45.96469" lon="4.93878">
        <ele>295</ele>
        <time>2017-08-25T09:27:30Z</time>
      </trkpt>
      <trkpt lat="45.96464" lon="4.9388">
        <ele>295</ele>
        <time>2017-08-25T09:27:31Z</time>
      </trkpt>
      <trkpt lat="45.96458" lon="4.93882">
        <ele>296</ele>
        <time>2017-08-25T09:27:32Z</time>
      </trkpt>
      <trkpt lat="45.96453" lon="4.93884">
        <ele>296</ele>
        <time>2017-08-25T09:27:33Z</time>
      </trkpt>
      <trkpt lat="45.96447" lon="4.93886">
        <ele>296</ele>
        <time>2017-08-25T09:27:34Z</time>
      </trkpt>
      <trkpt lat="45.96442" lon="4.93888">
        <ele>296</ele>
        <time>2017-08-25T09:27:35Z</time>
      </trkpt>
      <trkpt lat="45.96437" lon="4.93889">
        <ele>296</ele>
        <time>2017-08-25T09:27:36Z</time>
      </trkpt>
      <trkpt lat="45.96433" lon="4.93891">
        <ele>296</ele>
        <time>2017-08-25T09:27:37Z</time>
      </trkpt>
      <trkpt lat="45.96428" lon="4.93893">
        <ele>296</ele>
        <time>2017-08-25T09:27:38Z</time>
      </trkpt>
      <trkpt lat="45.96423" lon="4.93895">
        <ele>296</ele>
        <time>2017-08-25T09:27:39Z</time>
      </trkpt>
      <trkpt lat="45.96418" lon="4.93897">
        <ele>296</ele>
        <time>2017-08-25T09:27:40Z</time>
      </trkpt>
      <trkpt lat="45.96413" lon="4.93899">
        <ele>295</ele>
        <time>2017-08-25T09:27:41Z</time>
      </trkpt>
      <trkpt lat="45.96408" lon="4.93901">
        <ele>295</ele>
        <time>2017-08-25T09:27:42Z</time>
      </trkpt>
      <trkpt lat="45.96403" lon="4.93902">
        <ele>295</ele>
        <time>2017-08-25T09:27:43Z</time>
      </trkpt>
      <trkpt lat="45.96397" lon="4.93904">
        <ele>295</ele>
        <time>2017-08-25T09:27:44Z</time>
      </trkpt>
      <trkpt lat="45.96392" lon="4.93905">
        <ele>294</ele>
        <time>2017-08-25T09:27:45Z</time>
      </trkpt>
      <trkpt lat="45.96387" lon="4.93907">
        <ele>294</ele>
        <time>2017-08-25T09:27:46Z</time>
      </trkpt>
      <trkpt lat="45.96382" lon="4.93909">
        <ele>294</ele>
        <time>2017-08-25T09:27:47Z</time>
      </trkpt>
      <trkpt lat="45.96377" lon="4.93911">
        <ele>294</ele>
        <time>2017-08-25T09:27:48Z</time>
      </trkpt>
      <trkpt lat="45.96373" lon="4.93913">
        <ele>294</ele>
        <time>2017-08-25T09:27:49Z</time>
      </trkpt>
      <trkpt lat="45.96368" lon="4.93915">
        <ele>294</ele>
        <time>2017-08-25T09:27:50Z</time>
      </trkpt>
      <trkpt lat="45.96364" lon="4.93917">
        <ele>294</ele>
        <time>2017-08-25T09:27:51Z</time>
      </trkpt>
      <trkpt lat="45.96355" lon="4.93919">
        <ele>294</ele>
        <time>2017-08-25T09:27:53Z</time>
      </trkpt>
      <trkpt lat="45.9635" lon="4.93921">
        <ele>293</ele>
        <time>2017-08-25T09:27:54Z</time>
      </trkpt>
      <trkpt lat="45.96345" lon="4.93923">
        <ele>293</ele>
        <time>2017-08-25T09:27:55Z</time>
      </trkpt>
      <trkpt lat="45.9634" lon="4.93926">
        <ele>293</ele>
        <time>2017-08-25T09:27:56Z</time>
      </trkpt>
      <trkpt lat="45.96335" lon="4.93928">
        <ele>293</ele>
        <time>2017-08-25T09:27:57Z</time>
      </trkpt>
      <trkpt lat="45.96329" lon="4.9393">
        <ele>292</ele>
        <time>2017-08-25T09:27:58Z</time>
      </trkpt>
      <trkpt lat="45.96324" lon="4.93932">
        <ele>292</ele>
        <time>2017-08-25T09:27:59Z</time>
      </trkpt>
      <trkpt lat="45.96319" lon="4.93933">
        <ele>292</ele>
        <time>2017-08-25T09:28:00Z</time>
      </trkpt>
      <trkpt lat="45.96314" lon="4.93935">
        <ele>292</ele>
        <time>2017-08-25T09:28:01Z</time>
      </trkpt>
      <trkpt lat="45.96309" lon="4.93937">
        <ele>292</ele>
        <time>2017-08-25T09:28:02Z</time>
      </trkpt>
      <trkpt lat="45.96305" lon="4.93938">
        <ele>292</ele>
        <time>2017-08-25T09:28:03Z</time>
      </trkpt>
      <trkpt lat="45.963" lon="4.9394">
        <ele>292</ele>
        <time>2017-08-25T09:28:04Z</time>
      </trkpt>
      <trkpt lat="45.96295" lon="4.93942">
        <ele>292</ele>
        <time>2017-08-25T09:28:05Z</time>
      </trkpt>
      <trkpt lat="45.9629" lon="4.93943">
        <ele>292</ele>
        <time>2017-08-25T09:28:06Z</time>
      </trkpt>
      <trkpt lat="45.96285" lon="4.93945">
        <ele>291</ele>
        <time>2017-08-25T09:28:07Z</time>
      </trkpt>
      <trkpt lat="45.96281" lon="4.93946">
        <ele>291</ele>
        <time>2017-08-25T09:28:08Z</time>
      </trkpt>
      <trkpt lat="45.96276" lon="4.93947">
        <ele>291</ele>
        <time>2017-08-25T09:28:09Z</time>
      </trkpt>
      <trkpt lat="45.96271" lon="4.93949">
        <ele>291</ele>
        <time>2017-08-25T09:28:10Z</time>
      </trkpt>
      <trkpt lat="45.96266" lon="4.93951">
        <ele>291</ele>
        <time>2017-08-25T09:28:11Z</time>
      </trkpt>
      <trkpt lat="45.96262" lon="4.93954">
        <ele>291</ele>
        <time>2017-08-25T09:28:12Z</time>
      </trkpt>
      <trkpt lat="45.96256" lon="4.93957">
        <ele>291</ele>
        <time>2017-08-25T09:28:13Z</time>
      </trkpt>
      <trkpt lat="45.96251" lon="4.9396">
        <ele>291</ele>
        <time>2017-08-25T09:28:14Z</time>
      </trkpt>
      <trkpt lat="45.96245" lon="4.93963">
        <ele>290</ele>
        <time>2017-08-25T09:28:15Z</time>
      </trkpt>
      <trkpt lat="45.9624" lon="4.93967">
        <ele>290</ele>
        <time>2017-08-25T09:28:16Z</time>
      </trkpt>
      <trkpt lat="45.96234" lon="4.9397">
        <ele>290</ele>
        <time>2017-08-25T09:28:17Z</time>
      </trkpt>
      <trkpt lat="45.96228" lon="4.93974">
        <ele>290</ele>
        <time>2017-08-25T09:28:18Z</time>
      </trkpt>
      <trkpt lat="45.96223" lon="4.93978">
        <ele>290</ele>
        <time>2017-08-25T09:28:19Z</time>
      </trkpt>
      <trkpt lat="45.96218" lon="4.93982">
        <ele>290</ele>
        <time>2017-08-25T09:28:20Z</time>
      </trkpt>
      <trkpt lat="45.96213" lon="4.93986">
        <ele>290</ele>
        <time>2017-08-25T09:28:21Z</time>
      </trkpt>
      <trkpt lat="45.96208" lon="4.93991">
        <ele>290</ele>
        <time>2017-08-25T09:28:22Z</time>
      </trkpt>
      <trkpt lat="45.96203" lon="4.93995">
        <ele>290</ele>
        <time>2017-08-25T09:28:23Z</time>
      </trkpt>
      <trkpt lat="45.96198" lon="4.93998">
        <ele>290</ele>
        <time>2017-08-25T09:28:24Z</time>
      </trkpt>
      <trkpt lat="45.96194" lon="4.94002">
        <ele>290</ele>
        <time>2017-08-25T09:28:25Z</time>
      </trkpt>
      <trkpt lat="45.9619" lon="4.94006">
        <ele>290</ele>
        <time>2017-08-25T09:28:26Z</time>
      </trkpt>
      <trkpt lat="45.96186" lon="4.94009">
        <ele>290</ele>
        <time>2017-08-25T09:28:27Z</time>
      </trkpt>
      <trkpt lat="45.96182" lon="4.94012">
        <ele>290</ele>
        <time>2017-08-25T09:28:28Z</time>
      </trkpt>
      <trkpt lat="45.96175" lon="4.94018">
        <ele>290</ele>
        <time>2017-08-25T09:28:30Z</time>
      </trkpt>
      <trkpt lat="45.96171" lon="4.94022">
        <ele>290</ele>
        <time>2017-08-25T09:28:31Z</time>
      </trkpt>
      <trkpt lat="45.96166" lon="4.94026">
        <ele>290</ele>
        <time>2017-08-25T09:28:32Z</time>
      </trkpt>
      <trkpt lat="45.96162" lon="4.9403">
        <ele>290</ele>
        <time>2017-08-25T09:28:33Z</time>
      </trkpt>
      <trkpt lat="45.96157" lon="4.94034">
        <ele>290</ele>
        <time>2017-08-25T09:28:34Z</time>
      </trkpt>
      <trkpt lat="45.96153" lon="4.94038">
        <ele>290</ele>
        <time>2017-08-25T09:28:35Z</time>
      </trkpt>
      <trkpt lat="45.96147" lon="4.94042">
        <ele>290</ele>
        <time>2017-08-25T09:28:36Z</time>
      </trkpt>
      <trkpt lat="45.96142" lon="4.94047">
        <ele>290</ele>
        <time>2017-08-25T09:28:37Z</time>
      </trkpt>
      <trkpt lat="45.96136" lon="4.94051">
        <ele>290</ele>
        <time>2017-08-25T09:28:38Z</time>
      </trkpt>
      <trkpt lat="45.96131" lon="4.94056">
        <ele>290</ele>
        <time>2017-08-25T09:28:39Z</time>
      </trkpt>
      <trkpt lat="45.96126" lon="4.9406">
        <ele>290</ele>
        <time>2017-08-25T09:28:40Z</time>
      </trkpt>
      <trkpt lat="45.96121" lon="4.94064">
        <ele>290</ele>
        <time>2017-08-25T09:28:41Z</time>
      </trkpt>
      <trkpt lat="45.96116" lon="4.94069">
        <ele>290</ele>
        <time>2017-08-25T09:28:42Z</time>
      </trkpt>
      <trkpt lat="45.96112" lon="4.94073">
        <ele>291</ele>
        <time>2017-08-25T09:28:43Z</time>
      </trkpt>
      <trkpt lat="45.96107" lon="4.94076">
        <ele>291</ele>
        <time>2017-08-25T09:28:44Z</time>
      </trkpt>
      <trkpt lat="45.96103" lon="4.9408">
        <ele>291</ele>
        <time>2017-08-25T09:28:45Z</time>
      </trkpt>
      <trkpt lat="45.96099" lon="4.94084">
        <ele>291</ele>
        <time>2017-08-25T09:28:46Z</time>
      </trkpt>
      <trkpt lat="45.96095" lon="4.94088">
        <ele>291</ele>
        <time>2017-08-25T09:28:47Z</time>
      </trkpt>
      <trkpt lat="45.96091" lon="4.94091">
        <ele>291</ele>
        <time>2017-08-25T09:28:48Z</time>
      </trkpt>
      <trkpt lat="45.96087" lon="4.94095">
        <ele>291</ele>
        <time>2017-08-25T09:28:49Z</time>
      </trkpt>
      <trkpt lat="45.9608" lon="4.94101">
        <ele>291</ele>
        <time>2017-08-25T09:28:51Z</time>
      </trkpt>
      <trkpt lat="45.96076" lon="4.94104">
        <ele>291</ele>
        <time>2017-08-25T09:28:52Z</time>
      </trkpt>
      <trkpt lat="45.96072" lon="4.94108">
        <ele>291</ele>
        <time>2017-08-25T09:28:53Z</time>
      </trkpt>
      <trkpt lat="45.96068" lon="4.94112">
        <ele>291</ele>
        <time>2017-08-25T09:28:54Z</time>
      </trkpt>
      <trkpt lat="45.96063" lon="4.94116">
        <ele>291</ele>
        <time>2017-08-25T09:28:55Z</time>
      </trkpt>
      <trkpt lat="45.96059" lon="4.9412">
        <ele>291</ele>
        <time>2017-08-25T09:28:56Z</time>
      </trkpt>
      <trkpt lat="45.96054" lon="4.94122">
        <ele>291</ele>
        <time>2017-08-25T09:28:57Z</time>
      </trkpt>
      <trkpt lat="45.9605" lon="4.94125">
        <ele>291</ele>
        <time>2017-08-25T09:28:58Z</time>
      </trkpt>
      <trkpt lat="45.96042" lon="4.94128">
        <ele>291</ele>
        <time>2017-08-25T09:29:00Z</time>
      </trkpt>
      <trkpt lat="45.96038" lon="4.94129">
        <ele>291</ele>
        <time>2017-08-25T09:29:01Z</time>
      </trkpt>
      <trkpt lat="45.96029" lon="4.9413">
        <ele>291</ele>
        <time>2017-08-25T09:29:03Z</time>
      </trkpt>
      <trkpt lat="45.96024" lon="4.94129">
        <ele>291</ele>
        <time>2017-08-25T09:29:04Z</time>
      </trkpt>
      <trkpt lat="45.96019" lon="4.94128">
        <ele>291</ele>
        <time>2017-08-25T09:29:05Z</time>
      </trkpt>
      <trkpt lat="45.96014" lon="4.94126">
        <ele>291</ele>
        <time>2017-08-25T09:29:06Z</time>
      </trkpt>
      <trkpt lat="45.96008" lon="4.94125">
        <ele>291</ele>
        <time>2017-08-25T09:29:07Z</time>
      </trkpt>
      <trkpt lat="45.96003" lon="4.94124">
        <ele>291</ele>
        <time>2017-08-25T09:29:08Z</time>
      </trkpt>
      <trkpt lat="45.95998" lon="4.94122">
        <ele>291</ele>
        <time>2017-08-25T09:29:09Z</time>
      </trkpt>
      <trkpt lat="45.95994" lon="4.94121">
        <ele>291</ele>
        <time>2017-08-25T09:29:10Z</time>
      </trkpt>
      <trkpt lat="45.95985" lon="4.94118">
        <ele>292</ele>
        <time>2017-08-25T09:29:12Z</time>
      </trkpt>
      <trkpt lat="45.95982" lon="4.94117">
        <ele>292</ele>
        <time>2017-08-25T09:29:13Z</time>
      </trkpt>
      <trkpt lat="45.95974" lon="4.94113">
        <ele>292</ele>
        <time>2017-08-25T09:29:15Z</time>
      </trkpt>
      <trkpt lat="45.95969" lon="4.94112">
        <ele>292</ele>
        <time>2017-08-25T09:29:16Z</time>
      </trkpt>
      <trkpt lat="45.95965" lon="4.9411">
        <ele>292</ele>
        <time>2017-08-25T09:29:17Z</time>
      </trkpt>
      <trkpt lat="45.9596" lon="4.94109">
        <ele>292</ele>
        <time>2017-08-25T09:29:18Z</time>
      </trkpt>
      <trkpt lat="45.95955" lon="4.94107">
        <ele>292</ele>
        <time>2017-08-25T09:29:19Z</time>
      </trkpt>
      <trkpt lat="45.95951" lon="4.94106">
        <ele>292</ele>
        <time>2017-08-25T09:29:20Z</time>
      </trkpt>
      <trkpt lat="45.95942" lon="4.94104">
        <ele>292</ele>
        <time>2017-08-25T09:29:22Z</time>
      </trkpt>
      <trkpt lat="45.95938" lon="4.94103">
        <ele>292</ele>
        <time>2017-08-25T09:29:23Z</time>
      </trkpt>
      <trkpt lat="45.9593" lon="4.94101">
        <ele>292</ele>
        <time>2017-08-25T09:29:25Z</time>
      </trkpt>
      <trkpt lat="45.95927" lon="4.941">
        <ele>292</ele>
        <time>2017-08-25T09:29:26Z</time>
      </trkpt>
      <trkpt lat="45.95918" lon="4.94098">
        <ele>292</ele>
        <time>2017-08-25T09:29:28Z</time>
      </trkpt>
      <trkpt lat="45.95914" lon="4.94097">
        <ele>293</ele>
        <time>2017-08-25T09:29:29Z</time>
      </trkpt>
      <trkpt lat="45.95906" lon="4.94095">
        <ele>293</ele>
        <time>2017-08-25T09:29:31Z</time>
      </trkpt>
      <trkpt lat="45.95902" lon="4.94094">
        <ele>293</ele>
        <time>2017-08-25T09:29:32Z</time>
      </trkpt>
      <trkpt lat="45.95896" lon="4.94092">
        <ele>293</ele>
        <time>2017-08-25T09:29:34Z</time>
      </trkpt>
      <trkpt lat="45.95892" lon="4.94091">
        <ele>293</ele>
        <time>2017-08-25T09:29:35Z</time>
      </trkpt>
      <trkpt lat="45.95884" lon="4.94088">
        <ele>293</ele>
        <time>2017-08-25T09:29:37Z</time>
      </trkpt>
      <trkpt lat="45.95879" lon="4.94087">
        <ele>293</ele>
        <time>2017-08-25T09:29:38Z</time>
      </trkpt>
      <trkpt lat="45.95874" lon="4.94085">
        <ele>293</ele>
        <time>2017-08-25T09:29:39Z</time>
      </trkpt>
      <trkpt lat="45.95869" lon="4.94085">
        <ele>293</ele>
        <time>2017-08-25T09:29:40Z</time>
      </trkpt>
      <trkpt lat="45.95864" lon="4.94084">
        <ele>293</ele>
        <time>2017-08-25T09:29:41Z</time>
      </trkpt>
      <trkpt lat="45.95859" lon="4.94083">
        <ele>293</ele>
        <time>2017-08-25T09:29:42Z</time>
      </trkpt>
      <trkpt lat="45.95854" lon="4.94082">
        <ele>293</ele>
        <time>2017-08-25T09:29:43Z</time>
      </trkpt>
      <trkpt lat="45.9585" lon="4.94081">
        <ele>293</ele>
        <time>2017-08-25T09:29:44Z</time>
      </trkpt>
      <trkpt lat="45.95842" lon="4.94078">
        <ele>294</ele>
        <time>2017-08-25T09:29:46Z</time>
      </trkpt>
      <trkpt lat="45.95838" lon="4.94077">
        <ele>294</ele>
        <time>2017-08-25T09:29:47Z</time>
      </trkpt>
      <trkpt lat="45.9583" lon="4.94075">
        <ele>294</ele>
        <time>2017-08-25T09:29:49Z</time>
      </trkpt>
      <trkpt lat="45.95825" lon="4.94075">
        <ele>294</ele>
        <time>2017-08-25T09:29:50Z</time>
      </trkpt>
      <trkpt lat="45.95818" lon="4.94073">
        <ele>294</ele>
        <time>2017-08-25T09:29:52Z</time>
      </trkpt>
      <trkpt lat="45.95815" lon="4.94073">
        <ele>294</ele>
        <time>2017-08-25T09:29:53Z</time>
      </trkpt>
      <trkpt lat="45.95807" lon="4.94071">
        <ele>294</ele>
        <time>2017-08-25T09:29:56Z</time>
      </trkpt>
      <trkpt lat="45.95803" lon="4.9407">
        <ele>294</ele>
        <time>2017-08-25T09:29:57Z</time>
      </trkpt>
      <trkpt lat="45.95795" lon="4.94067">
        <ele>294</ele>
        <time>2017-08-25T09:29:59Z</time>
      </trkpt>
      <trkpt lat="45.95791" lon="4.94065">
        <ele>294</ele>
        <time>2017-08-25T09:30:00Z</time>
      </trkpt>
      <trkpt lat="45.95784" lon="4.94064">
        <ele>294</ele>
        <time>2017-08-25T09:30:02Z</time>
      </trkpt>
      <trkpt lat="45.9578" lon="4.94063">
        <ele>294</ele>
        <time>2017-08-25T09:30:03Z</time>
      </trkpt>
      <trkpt lat="45.95774" lon="4.94061">
        <ele>294</ele>
        <time>2017-08-25T09:30:05Z</time>
      </trkpt>
      <trkpt lat="45.9577" lon="4.94059">
        <ele>294</ele>
        <time>2017-08-25T09:30:06Z</time>
      </trkpt>
      <trkpt lat="45.95762" lon="4.94057">
        <ele>294</ele>
        <time>2017-08-25T09:30:08Z</time>
      </trkpt>
      <trkpt lat="45.95758" lon="4.94056">
        <ele>294</ele>
        <time>2017-08-25T09:30:09Z</time>
      </trkpt>
      <trkpt lat="45.95749" lon="4.94053">
        <ele>295</ele>
        <time>2017-08-25T09:30:11Z</time>
      </trkpt>
      <trkpt lat="45.95745" lon="4.94052">
        <ele>295</ele>
        <time>2017-08-25T09:30:12Z</time>
      </trkpt>
      <trkpt lat="45.95737" lon="4.9405">
        <ele>295</ele>
        <time>2017-08-25T09:30:14Z</time>
      </trkpt>
      <trkpt lat="45.95734" lon="4.94049">
        <ele>295</ele>
        <time>2017-08-25T09:30:15Z</time>
      </trkpt>
      <trkpt lat="45.95725" lon="4.94046">
        <ele>295</ele>
        <time>2017-08-25T09:30:17Z</time>
      </trkpt>
      <trkpt lat="45.95721" lon="4.94044">
        <ele>295</ele>
        <time>2017-08-25T09:30:18Z</time>
      </trkpt>
      <trkpt lat="45.95713" lon="4.94042">
        <ele>295</ele>
        <time>2017-08-25T09:30:20Z</time>
      </trkpt>
      <trkpt lat="45.95709" lon="4.94041">
        <ele>295</ele>
        <time>2017-08-25T09:30:21Z</time>
      </trkpt>
      <trkpt lat="45.95702" lon="4.94039">
        <ele>295</ele>
        <time>2017-08-25T09:30:23Z</time>
      </trkpt>
      <trkpt lat="45.95698" lon="4.94038">
        <ele>295</ele>
        <time>2017-08-25T09:30:24Z</time>
      </trkpt>
      <trkpt lat="45.95692" lon="4.94036">
        <ele>295</ele>
        <time>2017-08-25T09:30:26Z</time>
      </trkpt>
      <trkpt lat="45.95688" lon="4.94035">
        <ele>295</ele>
        <time>2017-08-25T09:30:27Z</time>
      </trkpt>
      <trkpt lat="45.9568" lon="4.94034">
        <ele>295</ele>
        <time>2017-08-25T09:30:29Z</time>
      </trkpt>
      <trkpt lat="45.95678" lon="4.94031">
        <ele>295</ele>
        <time>2017-08-25T09:30:30Z</time>
      </trkpt>
      <trkpt lat="45.95677" lon="4.94021">
        <ele>295</ele>
        <time>2017-08-25T09:30:32Z</time>
      </trkpt>
      <trkpt lat="45.95678" lon="4.94017">
        <ele>295</ele>
        <time>2017-08-25T09:30:33Z</time>
      </trkpt>
      <trkpt lat="45.95679" lon="4.94004">
        <ele>295</ele>
        <time>2017-08-25T09:30:36Z</time>
      </trkpt>
      <trkpt lat="45.95678" lon="4.93999">
        <ele>295</ele>
        <time>2017-08-25T09:30:37Z</time>
      </trkpt>
      <trkpt lat="45.95673" lon="4.9399">
        <ele>295</ele>
        <time>2017-08-25T09:30:39Z</time>
      </trkpt>
      <trkpt lat="45.9567" lon="4.93987">
        <ele>295</ele>
        <time>2017-08-25T09:30:40Z</time>
      </trkpt>
      <trkpt lat="45.95665" lon="4.93985">
        <ele>295</ele>
        <time>2017-08-25T09:30:41Z</time>
      </trkpt>
      <trkpt lat="45.9566" lon="4.93984">
        <ele>295</ele>
        <time>2017-08-25T09:30:42Z</time>
      </trkpt>
      <trkpt lat="45.95653" lon="4.9398">
        <ele>294</ele>
        <time>2017-08-25T09:30:44Z</time>
      </trkpt>
      <trkpt lat="45.9565" lon="4.93977">
        <ele>294</ele>
        <time>2017-08-25T09:30:45Z</time>
      </trkpt>
      <trkpt lat="45.95648" lon="4.93966">
        <ele>294</ele>
        <time>2017-08-25T09:30:47Z</time>
      </trkpt>
      <trkpt lat="45.95648" lon="4.93958">
        <ele>294</ele>
        <time>2017-08-25T09:30:48Z</time>
      </trkpt>
      <trkpt lat="45.95648" lon="4.9395">
        <ele>294</ele>
        <time>2017-08-25T09:30:49Z</time>
      </trkpt>
      <trkpt lat="45.95648" lon="4.93941">
        <ele>294</ele>
        <time>2017-08-25T09:30:50Z</time>
      </trkpt>
      <trkpt lat="45.9565" lon="4.93931">
        <ele>294</ele>
        <time>2017-08-25T09:30:51Z</time>
      </trkpt>
      <trkpt lat="45.95651" lon="4.93921">
        <ele>294</ele>
        <time>2017-08-25T09:30:52Z</time>
      </trkpt>
      <trkpt lat="45.95654" lon="4.93911">
        <ele>293</ele>
        <time>2017-08-25T09:30:53Z</time>
      </trkpt>
      <trkpt lat="45.95655" lon="4.93901">
        <ele>292</ele>
        <time>2017-08-25T09:30:54Z</time>
      </trkpt>
      <trkpt lat="45.95656" lon="4.93892">
        <ele>292</ele>
        <time>2017-08-25T09:30:55Z</time>
      </trkpt>
      <trkpt lat="45.95657" lon="4.93882">
        <ele>291</ele>
        <time>2017-08-25T09:30:56Z</time>
      </trkpt>
      <trkpt lat="45.95656" lon="4.93873">
        <ele>291</ele>
        <time>2017-08-25T09:30:57Z</time>
      </trkpt>
      <trkpt lat="45.95655" lon="4.93865">
        <ele>290</ele>
        <time>2017-08-25T09:30:58Z</time>
      </trkpt>
      <trkpt lat="45.95648" lon="4.9386">
        <ele>290</ele>
        <time>2017-08-25T09:30:59Z</time>
      </trkpt>
      <trkpt lat="45.95642" lon="4.93856">
        <ele>290</ele>
        <time>2017-08-25T09:31:00Z</time>
      </trkpt>
      <trkpt lat="45.95636" lon="4.93853">
        <ele>290</ele>
        <time>2017-08-25T09:31:01Z</time>
      </trkpt>
      <trkpt lat="45.9563" lon="4.93849">
        <ele>290</ele>
        <time>2017-08-25T09:31:02Z</time>
      </trkpt>
      <trkpt lat="45.95624" lon="4.93845">
        <ele>290</ele>
        <time>2017-08-25T09:31:03Z</time>
      </trkpt>
      <trkpt lat="45.95618" lon="4.9384">
        <ele>290</ele>
        <time>2017-08-25T09:31:04Z</time>
      </trkpt>
      <trkpt lat="45.95613" lon="4.93836">
        <ele>290</ele>
        <time>2017-08-25T09:31:05Z</time>
      </trkpt>
      <trkpt lat="45.95608" lon="4.93832">
        <ele>289</ele>
        <time>2017-08-25T09:31:06Z</time>
      </trkpt>
      <trkpt lat="45.95603" lon="4.93827">
        <ele>289</ele>
        <time>2017-08-25T09:31:07Z</time>
      </trkpt>
      <trkpt lat="45.95598" lon="4.93823">
        <ele>289</ele>
        <time>2017-08-25T09:31:08Z</time>
      </trkpt>
      <trkpt lat="45.95594" lon="4.93818">
        <ele>289</ele>
        <time>2017-08-25T09:31:09Z</time>
      </trkpt>
      <trkpt lat="45.95589" lon="4.93814">
        <ele>289</ele>
        <time>2017-08-25T09:31:10Z</time>
      </trkpt>
      <trkpt lat="45.95584" lon="4.93809">
        <ele>289</ele>
        <time>2017-08-25T09:31:11Z</time>
      </trkpt>
      <trkpt lat="45.95579" lon="4.93805">
        <ele>290</ele>
        <time>2017-08-25T09:31:12Z</time>
      </trkpt>
      <trkpt lat="45.95575" lon="4.93801">
        <ele>290</ele>
        <time>2017-08-25T09:31:13Z</time>
      </trkpt>
      <trkpt lat="45.95572" lon="4.93797">
        <ele>290</ele>
        <time>2017-08-25T09:31:14Z</time>
      </trkpt>
      <trkpt lat="45.95568" lon="4.93785">
        <ele>290</ele>
        <time>2017-08-25T09:31:16Z</time>
      </trkpt>
      <trkpt lat="45.95566" lon="4.93779">
        <ele>290</ele>
        <time>2017-08-25T09:31:17Z</time>
      </trkpt>
      <trkpt lat="45.95565" lon="4.93766">
        <ele>290</ele>
        <time>2017-08-25T09:31:19Z</time>
      </trkpt>
      <trkpt lat="45.95564" lon="4.93759">
        <ele>290</ele>
        <time>2017-08-25T09:31:20Z</time>
      </trkpt>
      <trkpt lat="45.95564" lon="4.93752">
        <ele>290</ele>
        <time>2017-08-25T09:31:21Z</time>
      </trkpt>
      <trkpt lat="45.95563" lon="4.93744">
        <ele>290</ele>
        <time>2017-08-25T09:31:22Z</time>
      </trkpt>
      <trkpt lat="45.95563" lon="4.93736">
        <ele>290</ele>
        <time>2017-08-25T09:31:23Z</time>
      </trkpt>
      <trkpt lat="45.95563" lon="4.93729">
        <ele>290</ele>
        <time>2017-08-25T09:31:24Z</time>
      </trkpt>
      <trkpt lat="45.95563" lon="4.93722">
        <ele>290</ele>
        <time>2017-08-25T09:31:25Z</time>
      </trkpt>
      <trkpt lat="45.95562" lon="4.93715">
        <ele>290</ele>
        <time>2017-08-25T09:31:26Z</time>
      </trkpt>
      <trkpt lat="45.95562" lon="4.93708">
        <ele>290</ele>
        <time>2017-08-25T09:31:27Z</time>
      </trkpt>
      <trkpt lat="45.95562" lon="4.93701">
        <ele>290</ele>
        <time>2017-08-25T09:31:28Z</time>
      </trkpt>
      <trkpt lat="45.95562" lon="4.93694">
        <ele>290</ele>
        <time>2017-08-25T09:31:29Z</time>
      </trkpt>
      <trkpt lat="45.95562" lon="4.93687">
        <ele>290</ele>
        <time>2017-08-25T09:31:30Z</time>
      </trkpt>
      <trkpt lat="45.95563" lon="4.93679">
        <ele>289</ele>
        <time>2017-08-25T09:31:31Z</time>
      </trkpt>
      <trkpt lat="45.95564" lon="4.93671">
        <ele>289</ele>
        <time>2017-08-25T09:31:32Z</time>
      </trkpt>
      <trkpt lat="45.95565" lon="4.93663">
        <ele>289</ele>
        <time>2017-08-25T09:31:33Z</time>
      </trkpt>
      <trkpt lat="45.95566" lon="4.93655">
        <ele>289</ele>
        <time>2017-08-25T09:31:34Z</time>
      </trkpt>
      <trkpt lat="45.95567" lon="4.93648">
        <ele>289</ele>
        <time>2017-08-25T09:31:35Z</time>
      </trkpt>
      <trkpt lat="45.95568" lon="4.93642">
        <ele>289</ele>
        <time>2017-08-25T09:31:36Z</time>
      </trkpt>
      <trkpt lat="45.9557" lon="4.9363">
        <ele>289</ele>
        <time>2017-08-25T09:31:38Z</time>
      </trkpt>
      <trkpt lat="45.9557" lon="4.93624">
        <ele>289</ele>
        <time>2017-08-25T09:31:39Z</time>
      </trkpt>
      <trkpt lat="45.95571" lon="4.93611">
        <ele>289</ele>
        <time>2017-08-25T09:31:41Z</time>
      </trkpt>
      <trkpt lat="45.95571" lon="4.93604">
        <ele>289</ele>
        <time>2017-08-25T09:31:42Z</time>
      </trkpt>
      <trkpt lat="45.95572" lon="4.93596">
        <ele>289</ele>
        <time>2017-08-25T09:31:43Z</time>
      </trkpt>
      <trkpt lat="45.95572" lon="4.93588">
        <ele>289</ele>
        <time>2017-08-25T09:31:44Z</time>
      </trkpt>
      <trkpt lat="45.95573" lon="4.93581">
        <ele>289</ele>
        <time>2017-08-25T09:31:45Z</time>
      </trkpt>
      <trkpt lat="45.95573" lon="4.93574">
        <ele>289</ele>
        <time>2017-08-25T09:31:46Z</time>
      </trkpt>
      <trkpt lat="45.95573" lon="4.93567">
        <ele>289</ele>
        <time>2017-08-25T09:31:47Z</time>
      </trkpt>
      <trkpt lat="45.95574" lon="4.93561">
        <ele>289</ele>
        <time>2017-08-25T09:31:48Z</time>
      </trkpt>
      <trkpt lat="45.95574" lon="4.93549">
        <ele>289</ele>
        <time>2017-08-25T09:31:50Z</time>
      </trkpt>
      <trkpt lat="45.95574" lon="4.93542">
        <ele>289</ele>
        <time>2017-08-25T09:31:51Z</time>
      </trkpt>
      <trkpt lat="45.95574" lon="4.93535">
        <ele>290</ele>
        <time>2017-08-25T09:31:52Z</time>
      </trkpt>
      <trkpt lat="45.95573" lon="4.93528">
        <ele>290</ele>
        <time>2017-08-25T09:31:53Z</time>
      </trkpt>
      <trkpt lat="45.95572" lon="4.9352">
        <ele>290</ele>
        <time>2017-08-25T09:31:54Z</time>
      </trkpt>
      <trkpt lat="45.95571" lon="4.93511">
        <ele>290</ele>
        <time>2017-08-25T09:31:55Z</time>
      </trkpt>
      <trkpt lat="45.95569" lon="4.93503">
        <ele>290</ele>
        <time>2017-08-25T09:31:56Z</time>
      </trkpt>
      <trkpt lat="45.95567" lon="4.93497">
        <ele>290</ele>
        <time>2017-08-25T09:31:57Z</time>
      </trkpt>
      <trkpt lat="45.95565" lon="4.9349">
        <ele>290</ele>
        <time>2017-08-25T09:31:58Z</time>
      </trkpt>
      <trkpt lat="45.95563" lon="4.93484">
        <ele>289</ele>
        <time>2017-08-25T09:31:59Z</time>
      </trkpt>
      <trkpt lat="45.9556" lon="4.93472">
        <ele>289</ele>
        <time>2017-08-25T09:32:01Z</time>
      </trkpt>
      <trkpt lat="45.95559" lon="4.93467">
        <ele>289</ele>
        <time>2017-08-25T09:32:02Z</time>
      </trkpt>
      <trkpt lat="45.95555" lon="4.93455">
        <ele>289</ele>
        <time>2017-08-25T09:32:04Z</time>
      </trkpt>
      <trkpt lat="45.95553" lon="4.93449">
        <ele>289</ele>
        <time>2017-08-25T09:32:05Z</time>
      </trkpt>
      <trkpt lat="45.95552" lon="4.93443">
        <ele>289</ele>
        <time>2017-08-25T09:32:06Z</time>
      </trkpt>
      <trkpt lat="45.9555" lon="4.93437">
        <ele>289</ele>
        <time>2017-08-25T09:32:07Z</time>
      </trkpt>
      <trkpt lat="45.95546" lon="4.93425">
        <ele>289</ele>
        <time>2017-08-25T09:32:09Z</time>
      </trkpt>
      <trkpt lat="45.95545" lon="4.93419">
        <ele>289</ele>
        <time>2017-08-25T09:32:10Z</time>
      </trkpt>
      <trkpt lat="45.95541" lon="4.93408">
        <ele>289</ele>
        <time>2017-08-25T09:32:12Z</time>
      </trkpt>
      <trkpt lat="45.95538" lon="4.93403">
        <ele>289</ele>
        <time>2017-08-25T09:32:13Z</time>
      </trkpt>
      <trkpt lat="45.95535" lon="4.93398">
        <ele>289</ele>
        <time>2017-08-25T09:32:14Z</time>
      </trkpt>
      <trkpt lat="45.95531" lon="4.93391">
        <ele>289</ele>
        <time>2017-08-25T09:32:15Z</time>
      </trkpt>
      <trkpt lat="45.95528" lon="4.93384">
        <ele>289</ele>
        <time>2017-08-25T09:32:16Z</time>
      </trkpt>
      <trkpt lat="45.95525" lon="4.93377">
        <ele>289</ele>
        <time>2017-08-25T09:32:17Z</time>
      </trkpt>
      <trkpt lat="45.95522" lon="4.9337">
        <ele>289</ele>
        <time>2017-08-25T09:32:18Z</time>
      </trkpt>
      <trkpt lat="45.95519" lon="4.93363">
        <ele>289</ele>
        <time>2017-08-25T09:32:19Z</time>
      </trkpt>
      <trkpt lat="45.95515" lon="4.93355">
        <ele>289</ele>
        <time>2017-08-25T09:32:20Z</time>
      </trkpt>
      <trkpt lat="45.95512" lon="4.93348">
        <ele>289</ele>
        <time>2017-08-25T09:32:21Z</time>
      </trkpt>
      <trkpt lat="45.95508" lon="4.9334">
        <ele>289</ele>
        <time>2017-08-25T09:32:22Z</time>
      </trkpt>
      <trkpt lat="45.95506" lon="4.93333">
        <ele>289</ele>
        <time>2017-08-25T09:32:23Z</time>
      </trkpt>
      <trkpt lat="45.95503" lon="4.93326">
        <ele>289</ele>
        <time>2017-08-25T09:32:24Z</time>
      </trkpt>
      <trkpt lat="45.95501" lon="4.9332">
        <ele>289</ele>
        <time>2017-08-25T09:32:25Z</time>
      </trkpt>
      <trkpt lat="45.95499" lon="4.93314">
        <ele>290</ele>
        <time>2017-08-25T09:32:26Z</time>
      </trkpt>
      <trkpt lat="45.95497" lon="4.93308">
        <ele>290</ele>
        <time>2017-08-25T09:32:27Z</time>
      </trkpt>
      <trkpt lat="45.95494" lon="4.93296">
        <ele>290</ele>
        <time>2017-08-25T09:32:29Z</time>
      </trkpt>
      <trkpt lat="45.95491" lon="4.93291">
        <ele>290</ele>
        <time>2017-08-25T09:32:30Z</time>
      </trkpt>
      <trkpt lat="45.95487" lon="4.93286">
        <ele>290</ele>
        <time>2017-08-25T09:32:31Z</time>
      </trkpt>
      <trkpt lat="45.95484" lon="4.93281">
        <ele>290</ele>
        <time>2017-08-25T09:32:32Z</time>
      </trkpt>
      <trkpt lat="45.9548" lon="4.93276">
        <ele>290</ele>
        <time>2017-08-25T09:32:33Z</time>
      </trkpt>
      <trkpt lat="45.95477" lon="4.9327">
        <ele>290</ele>
        <time>2017-08-25T09:32:34Z</time>
      </trkpt>
      <trkpt lat="45.95474" lon="4.93264">
        <ele>290</ele>
        <time>2017-08-25T09:32:35Z</time>
      </trkpt>
      <trkpt lat="45.95472" lon="4.93258">
        <ele>290</ele>
        <time>2017-08-25T09:32:36Z</time>
      </trkpt>
      <trkpt lat="45.95469" lon="4.93251">
        <ele>290</ele>
        <time>2017-08-25T09:32:37Z</time>
      </trkpt>
      <trkpt lat="45.95467" lon="4.93244">
        <ele>290</ele>
        <time>2017-08-25T09:32:38Z</time>
      </trkpt>
      <trkpt lat="45.95464" lon="4.93237">
        <ele>290</ele>
        <time>2017-08-25T09:32:39Z</time>
      </trkpt>
      <trkpt lat="45.95462" lon="4.9323">
        <ele>290</ele>
        <time>2017-08-25T09:32:40Z</time>
      </trkpt>
      <trkpt lat="45.95459" lon="4.93223">
        <ele>290</ele>
        <time>2017-08-25T09:32:41Z</time>
      </trkpt>
      <trkpt lat="45.95457" lon="4.93217">
        <ele>291</ele>
        <time>2017-08-25T09:32:42Z</time>
      </trkpt>
      <trkpt lat="45.95454" lon="4.9321">
        <ele>291</ele>
        <time>2017-08-25T09:32:43Z</time>
      </trkpt>
      <trkpt lat="45.95453" lon="4.93203">
        <ele>291</ele>
        <time>2017-08-25T09:32:44Z</time>
      </trkpt>
      <trkpt lat="45.95453" lon="4.93196">
        <ele>291</ele>
        <time>2017-08-25T09:32:45Z</time>
      </trkpt>
      <trkpt lat="45.95455" lon="4.9319">
        <ele>291</ele>
        <time>2017-08-25T09:32:46Z</time>
      </trkpt>
      <trkpt lat="45.95457" lon="4.93184">
        <ele>291</ele>
        <time>2017-08-25T09:32:47Z</time>
      </trkpt>
      <trkpt lat="45.9546" lon="4.93178">
        <ele>290</ele>
        <time>2017-08-25T09:32:48Z</time>
      </trkpt>
      <trkpt lat="45.95463" lon="4.93173">
        <ele>290</ele>
        <time>2017-08-25T09:32:49Z</time>
      </trkpt>
      <trkpt lat="45.95466" lon="4.93169">
        <ele>290</ele>
        <time>2017-08-25T09:32:50Z</time>
      </trkpt>
      <trkpt lat="45.95474" lon="4.93162">
        <ele>290</ele>
        <time>2017-08-25T09:32:52Z</time>
      </trkpt>
      <trkpt lat="45.95478" lon="4.93159">
        <ele>290</ele>
        <time>2017-08-25T09:32:53Z</time>
      </trkpt>
      <trkpt lat="45.95485" lon="4.93154">
        <ele>290</ele>
        <time>2017-08-25T09:32:55Z</time>
      </trkpt>
      <trkpt lat="45.95488" lon="4.93151">
        <ele>290</ele>
        <time>2017-08-25T09:32:56Z</time>
      </trkpt>
      <trkpt lat="45.95494" lon="4.93147">
        <ele>290</ele>
        <time>2017-08-25T09:32:58Z</time>
      </trkpt>
      <trkpt lat="45.95498" lon="4.93143">
        <ele>290</ele>
        <time>2017-08-25T09:32:59Z</time>
      </trkpt>
      <trkpt lat="45.95505" lon="4.93136">
        <ele>289</ele>
        <time>2017-08-25T09:33:01Z</time>
      </trkpt>
      <trkpt lat="45.95509" lon="4.93133">
        <ele>289</ele>
        <time>2017-08-25T09:33:02Z</time>
      </trkpt>
      <trkpt lat="45.95517" lon="4.93126">
        <ele>289</ele>
        <time>2017-08-25T09:33:04Z</time>
      </trkpt>
      <trkpt lat="45.9552" lon="4.93122">
        <ele>289</ele>
        <time>2017-08-25T09:33:05Z</time>
      </trkpt>
      <trkpt lat="45.95524" lon="4.93118">
        <ele>289</ele>
        <time>2017-08-25T09:33:06Z</time>
      </trkpt>
      <trkpt lat="45.95527" lon="4.93114">
        <ele>289</ele>
        <time>2017-08-25T09:33:07Z</time>
      </trkpt>
      <trkpt lat="45.95531" lon="4.93109">
        <ele>289</ele>
        <time>2017-08-25T09:33:08Z</time>
      </trkpt>
      <trkpt lat="45.95535" lon="4.93103">
        <ele>289</ele>
        <time>2017-08-25T09:33:09Z</time>
      </trkpt>
      <trkpt lat="45.95538" lon="4.93097">
        <ele>289</ele>
        <time>2017-08-25T09:33:10Z</time>
      </trkpt>
      <trkpt lat="45.9554" lon="4.93091">
        <ele>290</ele>
        <time>2017-08-25T09:33:11Z</time>
      </trkpt>
      <trkpt lat="45.95542" lon="4.93085">
        <ele>290</ele>
        <time>2017-08-25T09:33:12Z</time>
      </trkpt>
      <trkpt lat="45.95543" lon="4.93078">
        <ele>290</ele>
        <time>2017-08-25T09:33:13Z</time>
      </trkpt>
      <trkpt lat="45.95546" lon="4.93068">
        <ele>290</ele>
        <time>2017-08-25T09:33:15Z</time>
      </trkpt>
      <trkpt lat="45.95547" lon="4.93061">
        <ele>290</ele>
        <time>2017-08-25T09:33:16Z</time>
      </trkpt>
      <trkpt lat="45.95549" lon="4.93055">
        <ele>290</ele>
        <time>2017-08-25T09:33:17Z</time>
      </trkpt>
      <trkpt lat="45.95549" lon="4.93047">
        <ele>291</ele>
        <time>2017-08-25T09:33:18Z</time>
      </trkpt>
      <trkpt lat="45.9555" lon="4.93039">
        <ele>291</ele>
        <time>2017-08-25T09:33:19Z</time>
      </trkpt>
      <trkpt lat="45.95551" lon="4.93031">
        <ele>291</ele>
        <time>2017-08-25T09:33:20Z</time>
      </trkpt>
      <trkpt lat="45.95552" lon="4.93023">
        <ele>291</ele>
        <time>2017-08-25T09:33:21Z</time>
      </trkpt>
      <trkpt lat="45.95553" lon="4.93016">
        <ele>291</ele>
        <time>2017-08-25T09:33:22Z</time>
      </trkpt>
      <trkpt lat="45.95553" lon="4.93009">
        <ele>291</ele>
        <time>2017-08-25T09:33:23Z</time>
      </trkpt>
      <trkpt lat="45.95554" lon="4.93002">
        <ele>291</ele>
        <time>2017-08-25T09:33:24Z</time>
      </trkpt>
      <trkpt lat="45.95555" lon="4.9299">
        <ele>292</ele>
        <time>2017-08-25T09:33:26Z</time>
      </trkpt>
      <trkpt lat="45.95556" lon="4.92984">
        <ele>292</ele>
        <time>2017-08-25T09:33:27Z</time>
      </trkpt>
      <trkpt lat="45.95558" lon="4.92971">
        <ele>292</ele>
        <time>2017-08-25T09:33:29Z</time>
      </trkpt>
      <trkpt lat="45.9556" lon="4.92964">
        <ele>292</ele>
        <time>2017-08-25T09:33:30Z</time>
      </trkpt>
      <trkpt lat="45.95562" lon="4.92957">
        <ele>292</ele>
        <time>2017-08-25T09:33:31Z</time>
      </trkpt>
      <trkpt lat="45.95563" lon="4.92949">
        <ele>292</ele>
        <time>2017-08-25T09:33:32Z</time>
      </trkpt>
      <trkpt lat="45.95564" lon="4.92941">
        <ele>292</ele>
        <time>2017-08-25T09:33:33Z</time>
      </trkpt>
      <trkpt lat="45.95565" lon="4.92932">
        <ele>293</ele>
        <time>2017-08-25T09:33:34Z</time>
      </trkpt>
      <trkpt lat="45.95567" lon="4.92923">
        <ele>293</ele>
        <time>2017-08-25T09:33:35Z</time>
      </trkpt>
      <trkpt lat="45.95568" lon="4.92915">
        <ele>294</ele>
        <time>2017-08-25T09:33:36Z</time>
      </trkpt>
      <trkpt lat="45.95569" lon="4.92907">
        <ele>294</ele>
        <time>2017-08-25T09:33:37Z</time>
      </trkpt>
      <trkpt lat="45.95571" lon="4.929">
        <ele>294</ele>
        <time>2017-08-25T09:33:38Z</time>
      </trkpt>
      <trkpt lat="45.95572" lon="4.92892">
        <ele>294</ele>
        <time>2017-08-25T09:33:39Z</time>
      </trkpt>
      <trkpt lat="45.95573" lon="4.92885">
        <ele>294</ele>
        <time>2017-08-25T09:33:40Z</time>
      </trkpt>
      <trkpt lat="45.95574" lon="4.92879">
        <ele>294</ele>
        <time>2017-08-25T09:33:41Z</time>
      </trkpt>
      <trkpt lat="45.95575" lon="4.92872">
        <ele>294</ele>
        <time>2017-08-25T09:33:42Z</time>
      </trkpt>
      <trkpt lat="45.95577" lon="4.92859">
        <ele>294</ele>
        <time>2017-08-25T09:33:44Z</time>
      </trkpt>
      <trkpt lat="45.95577" lon="4.92853">
        <ele>294</ele>
        <time>2017-08-25T09:33:45Z</time>
      </trkpt>
      <trkpt lat="45.95579" lon="4.92847">
        <ele>294</ele>
        <time>2017-08-25T09:33:46Z</time>
      </trkpt>
      <trkpt lat="45.95579" lon="4.9284">
        <ele>295</ele>
        <time>2017-08-25T09:33:47Z</time>
      </trkpt>
      <trkpt lat="45.9558" lon="4.92832">
        <ele>295</ele>
        <time>2017-08-25T09:33:48Z</time>
      </trkpt>
      <trkpt lat="45.95581" lon="4.92824">
        <ele>295</ele>
        <time>2017-08-25T09:33:49Z</time>
      </trkpt>
      <trkpt lat="45.95582" lon="4.92817">
        <ele>295</ele>
        <time>2017-08-25T09:33:50Z</time>
      </trkpt>
      <trkpt lat="45.95583" lon="4.92809">
        <ele>294</ele>
        <time>2017-08-25T09:33:51Z</time>
      </trkpt>
      <trkpt lat="45.95584" lon="4.92803">
        <ele>295</ele>
        <time>2017-08-25T09:33:52Z</time>
      </trkpt>
      <trkpt lat="45.95585" lon="4.92796">
        <ele>295</ele>
        <time>2017-08-25T09:33:53Z</time>
      </trkpt>
      <trkpt lat="45.95587" lon="4.92785">
        <ele>295</ele>
        <time>2017-08-25T09:33:55Z</time>
      </trkpt>
      <trkpt lat="45.95588" lon="4.92779">
        <ele>295</ele>
        <time>2017-08-25T09:33:56Z</time>
      </trkpt>
      <trkpt lat="45.9559" lon="4.92772">
        <ele>295</ele>
        <time>2017-08-25T09:33:57Z</time>
      </trkpt>
      <trkpt lat="45.95591" lon="4.92766">
        <ele>295</ele>
        <time>2017-08-25T09:33:58Z</time>
      </trkpt>
      <trkpt lat="45.95592" lon="4.92759">
        <ele>295</ele>
        <time>2017-08-25T09:33:59Z</time>
      </trkpt>
      <trkpt lat="45.95593" lon="4.92752">
        <ele>295</ele>
        <time>2017-08-25T09:34:00Z</time>
      </trkpt>
      <trkpt lat="45.95595" lon="4.92745">
        <ele>295</ele>
        <time>2017-08-25T09:34:01Z</time>
      </trkpt>
      <trkpt lat="45.95597" lon="4.92738">
        <ele>295</ele>
        <time>2017-08-25T09:34:02Z</time>
      </trkpt>
      <trkpt lat="45.95598" lon="4.9273">
        <ele>295</ele>
        <time>2017-08-25T09:34:03Z</time>
      </trkpt>
      <trkpt lat="45.95599" lon="4.92723">
        <ele>295</ele>
        <time>2017-08-25T09:34:04Z</time>
      </trkpt>
      <trkpt lat="45.95601" lon="4.92716">
        <ele>295</ele>
        <time>2017-08-25T09:34:05Z</time>
      </trkpt>
      <trkpt lat="45.95602" lon="4.92708">
        <ele>295</ele>
        <time>2017-08-25T09:34:06Z</time>
      </trkpt>
      <trkpt lat="45.95603" lon="4.92701">
        <ele>295</ele>
        <time>2017-08-25T09:34:07Z</time>
      </trkpt>
      <trkpt lat="45.95605" lon="4.92694">
        <ele>295</ele>
        <time>2017-08-25T09:34:08Z</time>
      </trkpt>
      <trkpt lat="45.95606" lon="4.92687">
        <ele>295</ele>
        <time>2017-08-25T09:34:09Z</time>
      </trkpt>
      <trkpt lat="45.95607" lon="4.9268">
        <ele>295</ele>
        <time>2017-08-25T09:34:10Z</time>
      </trkpt>
      <trkpt lat="45.95609" lon="4.92672">
        <ele>295</ele>
        <time>2017-08-25T09:34:11Z</time>
      </trkpt>
      <trkpt lat="45.9561" lon="4.92665">
        <ele>294</ele>
        <time>2017-08-25T09:34:12Z</time>
      </trkpt>
      <trkpt lat="45.95612" lon="4.92657">
        <ele>294</ele>
        <time>2017-08-25T09:34:13Z</time>
      </trkpt>
      <trkpt lat="45.95615" lon="4.92649">
        <ele>294</ele>
        <time>2017-08-25T09:34:14Z</time>
      </trkpt>
      <trkpt lat="45.95617" lon="4.92642">
        <ele>294</ele>
        <time>2017-08-25T09:34:15Z</time>
      </trkpt>
      <trkpt lat="45.95618" lon="4.92634">
        <ele>294</ele>
        <time>2017-08-25T09:34:16Z</time>
      </trkpt>
      <trkpt lat="45.9562" lon="4.92626">
        <ele>294</ele>
        <time>2017-08-25T09:34:17Z</time>
      </trkpt>
      <trkpt lat="45.95619" lon="4.92619">
        <ele>294</ele>
        <time>2017-08-25T09:34:18Z</time>
      </trkpt>
      <trkpt lat="45.9562" lon="4.92612">
        <ele>294</ele>
        <time>2017-08-25T09:34:19Z</time>
      </trkpt>
      <trkpt lat="45.95621" lon="4.92605">
        <ele>294</ele>
        <time>2017-08-25T09:34:20Z</time>
      </trkpt>
      <trkpt lat="45.95623" lon="4.92598">
        <ele>294</ele>
        <time>2017-08-25T09:34:21Z</time>
      </trkpt>
      <trkpt lat="45.95625" lon="4.92592">
        <ele>294</ele>
        <time>2017-08-25T09:34:22Z</time>
      </trkpt>
      <trkpt lat="45.95627" lon="4.92585">
        <ele>294</ele>
        <time>2017-08-25T09:34:23Z</time>
      </trkpt>
      <trkpt lat="45.95628" lon="4.92579">
        <ele>294</ele>
        <time>2017-08-25T09:34:24Z</time>
      </trkpt>
      <trkpt lat="45.95629" lon="4.92572">
        <ele>294</ele>
        <time>2017-08-25T09:34:25Z</time>
      </trkpt>
      <trkpt lat="45.9563" lon="4.92566">
        <ele>294</ele>
        <time>2017-08-25T09:34:26Z</time>
      </trkpt>
      <trkpt lat="45.95631" lon="4.92559">
        <ele>294</ele>
        <time>2017-08-25T09:34:27Z</time>
      </trkpt>
      <trkpt lat="45.95631" lon="4.92552">
        <ele>294</ele>
        <time>2017-08-25T09:34:28Z</time>
      </trkpt>
      <trkpt lat="45.95632" lon="4.92545">
        <ele>294</ele>
        <time>2017-08-25T09:34:29Z</time>
      </trkpt>
      <trkpt lat="45.95633" lon="4.92538">
        <ele>294</ele>
        <time>2017-08-25T09:34:30Z</time>
      </trkpt>
      <trkpt lat="45.95634" lon="4.92531">
        <ele>294</ele>
        <time>2017-08-25T09:34:31Z</time>
      </trkpt>
      <trkpt lat="45.95635" lon="4.92524">
        <ele>294</ele>
        <time>2017-08-25T09:34:32Z</time>
      </trkpt>
      <trkpt lat="45.95637" lon="4.92517">
        <ele>294</ele>
        <time>2017-08-25T09:34:33Z</time>
      </trkpt>
      <trkpt lat="45.95637" lon="4.9251">
        <ele>294</ele>
        <time>2017-08-25T09:34:34Z</time>
      </trkpt>
      <trkpt lat="45.95639" lon="4.92504">
        <ele>294</ele>
        <time>2017-08-25T09:34:35Z</time>
      </trkpt>
      <trkpt lat="45.9564" lon="4.92497">
        <ele>293</ele>
        <time>2017-08-25T09:34:36Z</time>
      </trkpt>
      <trkpt lat="45.95641" lon="4.92491">
        <ele>293</ele>
        <time>2017-08-25T09:34:37Z</time>
      </trkpt>
      <trkpt lat="45.95642" lon="4.92485">
        <ele>293</ele>
        <time>2017-08-25T09:34:38Z</time>
      </trkpt>
      <trkpt lat="45.95644" lon="4.92478">
        <ele>293</ele>
        <time>2017-08-25T09:34:39Z</time>
      </trkpt>
      <trkpt lat="45.95645" lon="4.92472">
        <ele>293</ele>
        <time>2017-08-25T09:34:40Z</time>
      </trkpt>
      <trkpt lat="45.95647" lon="4.9246">
        <ele>293</ele>
        <time>2017-08-25T09:34:42Z</time>
      </trkpt>
      <trkpt lat="45.95647" lon="4.92453">
        <ele>293</ele>
        <time>2017-08-25T09:34:43Z</time>
      </trkpt>
      <trkpt lat="45.95648" lon="4.92446">
        <ele>293</ele>
        <time>2017-08-25T09:34:44Z</time>
      </trkpt>
      <trkpt lat="45.9565" lon="4.92439">
        <ele>293</ele>
        <time>2017-08-25T09:34:45Z</time>
      </trkpt>
      <trkpt lat="45.95651" lon="4.92431">
        <ele>293</ele>
        <time>2017-08-25T09:34:46Z</time>
      </trkpt>
      <trkpt lat="45.95652" lon="4.92421">
        <ele>293</ele>
        <time>2017-08-25T09:34:47Z</time>
      </trkpt>
      <trkpt lat="45.95653" lon="4.92413">
        <ele>293</ele>
        <time>2017-08-25T09:34:48Z</time>
      </trkpt>
      <trkpt lat="45.95653" lon="4.92405">
        <ele>293</ele>
        <time>2017-08-25T09:34:49Z</time>
      </trkpt>
      <trkpt lat="45.95655" lon="4.92397">
        <ele>293</ele>
        <time>2017-08-25T09:34:50Z</time>
      </trkpt>
      <trkpt lat="45.95656" lon="4.92389">
        <ele>293</ele>
        <time>2017-08-25T09:34:51Z</time>
      </trkpt>
      <trkpt lat="45.95656" lon="4.92381">
        <ele>293</ele>
        <time>2017-08-25T09:34:52Z</time>
      </trkpt>
      <trkpt lat="45.95657" lon="4.92373">
        <ele>293</ele>
        <time>2017-08-25T09:34:53Z</time>
      </trkpt>
      <trkpt lat="45.95658" lon="4.92366">
        <ele>293</ele>
        <time>2017-08-25T09:34:54Z</time>
      </trkpt>
      <trkpt lat="45.95658" lon="4.92358">
        <ele>293</ele>
        <time>2017-08-25T09:34:55Z</time>
      </trkpt>
      <trkpt lat="45.95659" lon="4.92351">
        <ele>293</ele>
        <time>2017-08-25T09:34:56Z</time>
      </trkpt>
      <trkpt lat="45.95659" lon="4.92343">
        <ele>293</ele>
        <time>2017-08-25T09:34:57Z</time>
      </trkpt>
      <trkpt lat="45.95659" lon="4.92334">
        <ele>293</ele>
        <time>2017-08-25T09:34:58Z</time>
      </trkpt>
      <trkpt lat="45.95659" lon="4.92326">
        <ele>293</ele>
        <time>2017-08-25T09:34:59Z</time>
      </trkpt>
      <trkpt lat="45.9566" lon="4.92318">
        <ele>293</ele>
        <time>2017-08-25T09:35:00Z</time>
      </trkpt>
      <trkpt lat="45.9566" lon="4.92309">
        <ele>293</ele>
        <time>2017-08-25T09:35:01Z</time>
      </trkpt>
      <trkpt lat="45.9566" lon="4.92301">
        <ele>293</ele>
        <time>2017-08-25T09:35:02Z</time>
      </trkpt>
      <trkpt lat="45.95661" lon="4.92293">
        <ele>293</ele>
        <time>2017-08-25T09:35:03Z</time>
      </trkpt>
      <trkpt lat="45.95661" lon="4.92285">
        <ele>293</ele>
        <time>2017-08-25T09:35:04Z</time>
      </trkpt>
      <trkpt lat="45.95661" lon="4.92277">
        <ele>293</ele>
        <time>2017-08-25T09:35:05Z</time>
      </trkpt>
      <trkpt lat="45.95662" lon="4.9227">
        <ele>294</ele>
        <time>2017-08-25T09:35:06Z</time>
      </trkpt>
      <trkpt lat="45.95662" lon="4.92262">
        <ele>294</ele>
        <time>2017-08-25T09:35:07Z</time>
      </trkpt>
      <trkpt lat="45.95662" lon="4.92255">
        <ele>294</ele>
        <time>2017-08-25T09:35:08Z</time>
      </trkpt>
      <trkpt lat="45.95661" lon="4.92248">
        <ele>294</ele>
        <time>2017-08-25T09:35:09Z</time>
      </trkpt>
      <trkpt lat="45.95661" lon="4.9224">
        <ele>294</ele>
        <time>2017-08-25T09:35:10Z</time>
      </trkpt>
      <trkpt lat="45.95661" lon="4.92231">
        <ele>294</ele>
        <time>2017-08-25T09:35:11Z</time>
      </trkpt>
      <trkpt lat="45.95661" lon="4.92223">
        <ele>294</ele>
        <time>2017-08-25T09:35:12Z</time>
      </trkpt>
      <trkpt lat="45.95661" lon="4.92215">
        <ele>294</ele>
        <time>2017-08-25T09:35:13Z</time>
      </trkpt>
      <trkpt lat="45.95662" lon="4.92207">
        <ele>294</ele>
        <time>2017-08-25T09:35:14Z</time>
      </trkpt>
      <trkpt lat="45.95662" lon="4.92199">
        <ele>295</ele>
        <time>2017-08-25T09:35:15Z</time>
      </trkpt>
      <trkpt lat="45.95662" lon="4.92192">
        <ele>295</ele>
        <time>2017-08-25T09:35:16Z</time>
      </trkpt>
      <trkpt lat="45.95662" lon="4.92184">
        <ele>295</ele>
        <time>2017-08-25T09:35:17Z</time>
      </trkpt>
      <trkpt lat="45.95662" lon="4.92178">
        <ele>296</ele>
        <time>2017-08-25T09:35:18Z</time>
      </trkpt>
      <trkpt lat="45.95662" lon="4.92171">
        <ele>296</ele>
        <time>2017-08-25T09:35:19Z</time>
      </trkpt>
      <trkpt lat="45.95663" lon="4.9216">
        <ele>296</ele>
        <time>2017-08-25T09:35:21Z</time>
      </trkpt>
      <trkpt lat="45.95664" lon="4.92154">
        <ele>296</ele>
        <time>2017-08-25T09:35:22Z</time>
      </trkpt>
      <trkpt lat="45.95664" lon="4.92141">
        <ele>296</ele>
        <time>2017-08-25T09:35:24Z</time>
      </trkpt>
      <trkpt lat="45.95665" lon="4.92135">
        <ele>296</ele>
        <time>2017-08-25T09:35:25Z</time>
      </trkpt>
      <trkpt lat="45.95666" lon="4.92128">
        <ele>296</ele>
        <time>2017-08-25T09:35:26Z</time>
      </trkpt>
      <trkpt lat="45.95667" lon="4.92121">
        <ele>299</ele>
        <time>2017-08-25T09:35:27Z</time>
      </trkpt>
      <trkpt lat="45.95668" lon="4.92114">
        <ele>300</ele>
        <time>2017-08-25T09:35:28Z</time>
      </trkpt>
      <trkpt lat="45.95668" lon="4.92106">
        <ele>300</ele>
        <time>2017-08-25T09:35:29Z</time>
      </trkpt>
      <trkpt lat="45.95669" lon="4.921">
        <ele>300</ele>
        <time>2017-08-25T09:35:30Z</time>
      </trkpt>
      <trkpt lat="45.95669" lon="4.92093">
        <ele>299</ele>
        <time>2017-08-25T09:35:31Z</time>
      </trkpt>
      <trkpt lat="45.95671" lon="4.9208">
        <ele>299</ele>
        <time>2017-08-25T09:35:33Z</time>
      </trkpt>
      <trkpt lat="45.95671" lon="4.92074">
        <ele>300</ele>
        <time>2017-08-25T09:35:34Z</time>
      </trkpt>
      <trkpt lat="45.95674" lon="4.92063">
        <ele>300</ele>
        <time>2017-08-25T09:35:36Z</time>
      </trkpt>
      <trkpt lat="45.95676" lon="4.92058">
        <ele>300</ele>
        <time>2017-08-25T09:35:37Z</time>
      </trkpt>
      <trkpt lat="45.95678" lon="4.92046">
        <ele>300</ele>
        <time>2017-08-25T09:35:39Z</time>
      </trkpt>
      <trkpt lat="45.95678" lon="4.92041">
        <ele>300</ele>
        <time>2017-08-25T09:35:40Z</time>
      </trkpt>
      <trkpt lat="45.95678" lon="4.92035">
        <ele>300</ele>
        <time>2017-08-25T09:35:41Z</time>
      </trkpt>
      <trkpt lat="45.95676" lon="4.92028">
        <ele>300</ele>
        <time>2017-08-25T09:35:42Z</time>
      </trkpt>
      <trkpt lat="45.95674" lon="4.92021">
        <ele>300</ele>
        <time>2017-08-25T09:35:43Z</time>
      </trkpt>
      <trkpt lat="45.95671" lon="4.92014">
        <ele>299</ele>
        <time>2017-08-25T09:35:44Z</time>
      </trkpt>
      <trkpt lat="45.95667" lon="4.92004">
        <ele>298</ele>
        <time>2017-08-25T09:35:46Z</time>
      </trkpt>
      <trkpt lat="45.95664" lon="4.91998">
        <ele>298</ele>
        <time>2017-08-25T09:35:47Z</time>
      </trkpt>
      <trkpt lat="45.95661" lon="4.91994">
        <ele>297</ele>
        <time>2017-08-25T09:35:48Z</time>
      </trkpt>
      <trkpt lat="45.95658" lon="4.91988">
        <ele>296</ele>
        <time>2017-08-25T09:35:49Z</time>
      </trkpt>
      <trkpt lat="45.95653" lon="4.91978">
        <ele>296</ele>
        <time>2017-08-25T09:35:51Z</time>
      </trkpt>
      <trkpt lat="45.9565" lon="4.91973">
        <ele>296</ele>
        <time>2017-08-25T09:35:52Z</time>
      </trkpt>
      <trkpt lat="45.95647" lon="4.91969">
        <ele>295</ele>
        <time>2017-08-25T09:35:53Z</time>
      </trkpt>
      <trkpt lat="45.95642" lon="4.91964">
        <ele>295</ele>
        <time>2017-08-25T09:35:54Z</time>
      </trkpt>
      <trkpt lat="45.95639" lon="4.91958">
        <ele>295</ele>
        <time>2017-08-25T09:35:55Z</time>
      </trkpt>
      <trkpt lat="45.95636" lon="4.91954">
        <ele>295</ele>
        <time>2017-08-25T09:35:56Z</time>
      </trkpt>
      <trkpt lat="45.95631" lon="4.91945">
        <ele>295</ele>
        <time>2017-08-25T09:35:58Z</time>
      </trkpt>
      <trkpt lat="45.95628" lon="4.9194">
        <ele>295</ele>
        <time>2017-08-25T09:35:59Z</time>
      </trkpt>
      <trkpt lat="45.95623" lon="4.91937">
        <ele>295</ele>
        <time>2017-08-25T09:36:00Z</time>
      </trkpt>
      <trkpt lat="45.95617" lon="4.91933">
        <ele>294</ele>
        <time>2017-08-25T09:36:01Z</time>
      </trkpt>
      <trkpt lat="45.95612" lon="4.9193">
        <ele>294</ele>
        <time>2017-08-25T09:36:02Z</time>
      </trkpt>
      <trkpt lat="45.95607" lon="4.91927">
        <ele>294</ele>
        <time>2017-08-25T09:36:03Z</time>
      </trkpt>
      <trkpt lat="45.95603" lon="4.91923">
        <ele>294</ele>
        <time>2017-08-25T09:36:04Z</time>
      </trkpt>
      <trkpt lat="45.95598" lon="4.9192">
        <ele>294</ele>
        <time>2017-08-25T09:36:05Z</time>
      </trkpt>
      <trkpt lat="45.95593" lon="4.91916">
        <ele>293</ele>
        <time>2017-08-25T09:36:06Z</time>
      </trkpt>
      <trkpt lat="45.95588" lon="4.91912">
        <ele>293</ele>
        <time>2017-08-25T09:36:07Z</time>
      </trkpt>
      <trkpt lat="45.95582" lon="4.91907">
        <ele>293</ele>
        <time>2017-08-25T09:36:08Z</time>
      </trkpt>
      <trkpt lat="45.95577" lon="4.91903">
        <ele>294</ele>
        <time>2017-08-25T09:36:09Z</time>
      </trkpt>
      <trkpt lat="45.95573" lon="4.91899">
        <ele>294</ele>
        <time>2017-08-25T09:36:10Z</time>
      </trkpt>
      <trkpt lat="45.95568" lon="4.91895">
        <ele>294</ele>
        <time>2017-08-25T09:36:11Z</time>
      </trkpt>
      <trkpt lat="45.95564" lon="4.91892">
        <ele>294</ele>
        <time>2017-08-25T09:36:12Z</time>
      </trkpt>
      <trkpt lat="45.95556" lon="4.91888">
        <ele>294</ele>
        <time>2017-08-25T09:36:13Z</time>
      </trkpt>
      <trkpt lat="45.95549" lon="4.91885">
        <ele>294</ele>
        <time>2017-08-25T09:36:14Z</time>
      </trkpt>
      <trkpt lat="45.95542" lon="4.91882">
        <ele>294</ele>
        <time>2017-08-25T09:36:15Z</time>
      </trkpt>
      <trkpt lat="45.95537" lon="4.9188">
        <ele>294</ele>
        <time>2017-08-25T09:36:16Z</time>
      </trkpt>
      <trkpt lat="45.95533" lon="4.91877">
        <ele>294</ele>
        <time>2017-08-25T09:36:17Z</time>
      </trkpt>
      <trkpt lat="45.95528" lon="4.91874">
        <ele>295</ele>
        <time>2017-08-25T09:36:18Z</time>
      </trkpt>
      <trkpt lat="45.95524" lon="4.91871">
        <ele>295</ele>
        <time>2017-08-25T09:36:19Z</time>
      </trkpt>
      <trkpt lat="45.95518" lon="4.91867">
        <ele>295</ele>
        <time>2017-08-25T09:36:20Z</time>
      </trkpt>
      <trkpt lat="45.95513" lon="4.91862">
        <ele>295</ele>
        <time>2017-08-25T09:36:21Z</time>
      </trkpt>
      <trkpt lat="45.95509" lon="4.91858">
        <ele>295</ele>
        <time>2017-08-25T09:36:22Z</time>
      </trkpt>
      <trkpt lat="45.95504" lon="4.91854">
        <ele>295</ele>
        <time>2017-08-25T09:36:23Z</time>
      </trkpt>
      <trkpt lat="45.95497" lon="4.9185">
        <ele>295</ele>
        <time>2017-08-25T09:36:24Z</time>
      </trkpt>
      <trkpt lat="45.9549" lon="4.91847">
        <ele>295</ele>
        <time>2017-08-25T09:36:25Z</time>
      </trkpt>
      <trkpt lat="45.95484" lon="4.91842">
        <ele>295</ele>
        <time>2017-08-25T09:36:26Z</time>
      </trkpt>
      <trkpt lat="45.95479" lon="4.91839">
        <ele>295</ele>
        <time>2017-08-25T09:36:27Z</time>
      </trkpt>
      <trkpt lat="45.95475" lon="4.91835">
        <ele>295</ele>
        <time>2017-08-25T09:36:28Z</time>
      </trkpt>
      <trkpt lat="45.95471" lon="4.91831">
        <ele>297</ele>
        <time>2017-08-25T09:36:29Z</time>
      </trkpt>
      <trkpt lat="45.95464" lon="4.91822">
        <ele>297</ele>
        <time>2017-08-25T09:36:31Z</time>
      </trkpt>
      <trkpt lat="45.9546" lon="4.91818">
        <ele>297</ele>
        <time>2017-08-25T09:36:32Z</time>
      </trkpt>
      <trkpt lat="45.95457" lon="4.91813">
        <ele>297</ele>
        <time>2017-08-25T09:36:33Z</time>
      </trkpt>
      <trkpt lat="45.95454" lon="4.91808">
        <ele>297</ele>
        <time>2017-08-25T09:36:34Z</time>
      </trkpt>
      <trkpt lat="45.95452" lon="4.91802">
        <ele>298</ele>
        <time>2017-08-25T09:36:35Z</time>
      </trkpt>
      <trkpt lat="45.95449" lon="4.91797">
        <ele>298</ele>
        <time>2017-08-25T09:36:36Z</time>
      </trkpt>
      <trkpt lat="45.95447" lon="4.91791">
        <ele>298</ele>
        <time>2017-08-25T09:36:37Z</time>
      </trkpt>
      <trkpt lat="45.95444" lon="4.91785">
        <ele>298</ele>
        <time>2017-08-25T09:36:38Z</time>
      </trkpt>
      <trkpt lat="45.9544" lon="4.91774">
        <ele>298</ele>
        <time>2017-08-25T09:36:40Z</time>
      </trkpt>
      <trkpt lat="45.95438" lon="4.91769">
        <ele>298</ele>
        <time>2017-08-25T09:36:41Z</time>
      </trkpt>
      <trkpt lat="45.95437" lon="4.91757">
        <ele>298</ele>
        <time>2017-08-25T09:36:43Z</time>
      </trkpt>
      <trkpt lat="45.95436" lon="4.91752">
        <ele>298</ele>
        <time>2017-08-25T09:36:44Z</time>
      </trkpt>
      <trkpt lat="45.95435" lon="4.91742">
        <ele>300</ele>
        <time>2017-08-25T09:36:46Z</time>
      </trkpt>
      <trkpt lat="45.95434" lon="4.91737">
        <ele>300</ele>
        <time>2017-08-25T09:36:47Z</time>
      </trkpt>
      <trkpt lat="45.95431" lon="4.91728">
        <ele>300</ele>
        <time>2017-08-25T09:36:49Z</time>
      </trkpt>
      <trkpt lat="45.95429" lon="4.91724">
        <ele>301</ele>
        <time>2017-08-25T09:36:50Z</time>
      </trkpt>
      <trkpt lat="45.95426" lon="4.91712">
        <ele>301</ele>
        <time>2017-08-25T09:36:53Z</time>
      </trkpt>
      <trkpt lat="45.95426" lon="4.91708">
        <ele>301</ele>
        <time>2017-08-25T09:36:54Z</time>
      </trkpt>
      <trkpt lat="45.95424" lon="4.91696">
        <ele>301</ele>
        <time>2017-08-25T09:36:57Z</time>
      </trkpt>
      <trkpt lat="45.95423" lon="4.91692">
        <ele>301</ele>
        <time>2017-08-25T09:36:58Z</time>
      </trkpt>
      <trkpt lat="45.95421" lon="4.91683">
        <ele>301</ele>
        <time>2017-08-25T09:37:01Z</time>
      </trkpt>
      <trkpt lat="45.9542" lon="4.91679">
        <ele>301</ele>
        <time>2017-08-25T09:37:02Z</time>
      </trkpt>
      <trkpt lat="45.95418" lon="4.91668">
        <ele>301</ele>
        <time>2017-08-25T09:37:05Z</time>
      </trkpt>
      <trkpt lat="45.95418" lon="4.91665">
        <ele>301</ele>
        <time>2017-08-25T09:37:06Z</time>
      </trkpt>
      <trkpt lat="45.95416" lon="4.91657">
        <ele>301</ele>
        <time>2017-08-25T09:37:08Z</time>
      </trkpt>
      <trkpt lat="45.95415" lon="4.91652">
        <ele>301</ele>
        <time>2017-08-25T09:37:09Z</time>
      </trkpt>
      <trkpt lat="45.95413" lon="4.91642">
        <ele>301</ele>
        <time>2017-08-25T09:37:11Z</time>
      </trkpt>
      <trkpt lat="45.95412" lon="4.91638">
        <ele>301</ele>
        <time>2017-08-25T09:37:12Z</time>
      </trkpt>
      <trkpt lat="45.9541" lon="4.9163">
        <ele>301</ele>
        <time>2017-08-25T09:37:14Z</time>
      </trkpt>
      <trkpt lat="45.95408" lon="4.91626">
        <ele>301</ele>
        <time>2017-08-25T09:37:15Z</time>
      </trkpt>
      <trkpt lat="45.95405" lon="4.91617">
        <ele>301</ele>
        <time>2017-08-25T09:37:17Z</time>
      </trkpt>
      <trkpt lat="45.95404" lon="4.91614">
        <ele>301</ele>
        <time>2017-08-25T09:37:18Z</time>
      </trkpt>
      <trkpt lat="45.95402" lon="4.91604">
        <ele>301</ele>
        <time>2017-08-25T09:37:20Z</time>
      </trkpt>
      <trkpt lat="45.954" lon="4.91599">
        <ele>301</ele>
        <time>2017-08-25T09:37:21Z</time>
      </trkpt>
      <trkpt lat="45.95398" lon="4.91591">
        <ele>301</ele>
        <time>2017-08-25T09:37:22Z</time>
      </trkpt>
      <trkpt lat="45.95397" lon="4.91586">
        <ele>301</ele>
        <time>2017-08-25T09:37:23Z</time>
      </trkpt>
      <trkpt lat="45.95395" lon="4.91578">
        <ele>300</ele>
        <time>2017-08-25T09:37:25Z</time>
      </trkpt>
      <trkpt lat="45.95394" lon="4.91573">
        <ele>300</ele>
        <time>2017-08-25T09:37:26Z</time>
      </trkpt>
      <trkpt lat="45.95391" lon="4.91563">
        <ele>300</ele>
        <time>2017-08-25T09:37:28Z</time>
      </trkpt>
      <trkpt lat="45.95391" lon="4.91558">
        <ele>300</ele>
        <time>2017-08-25T09:37:29Z</time>
      </trkpt>
      <trkpt lat="45.95389" lon="4.91546">
        <ele>300</ele>
        <time>2017-08-25T09:37:31Z</time>
      </trkpt>
      <trkpt lat="45.95388" lon="4.91539">
        <ele>300</ele>
        <time>2017-08-25T09:37:32Z</time>
      </trkpt>
      <trkpt lat="45.95386" lon="4.91529">
        <ele>300</ele>
        <time>2017-08-25T09:37:34Z</time>
      </trkpt>
      <trkpt lat="45.95385" lon="4.91525">
        <ele>300</ele>
        <time>2017-08-25T09:37:35Z</time>
      </trkpt>
      <trkpt lat="45.95383" lon="4.91515">
        <ele>300</ele>
        <time>2017-08-25T09:37:37Z</time>
      </trkpt>
      <trkpt lat="45.95381" lon="4.9151">
        <ele>300</ele>
        <time>2017-08-25T09:37:38Z</time>
      </trkpt>
      <trkpt lat="45.95377" lon="4.91502">
        <ele>300</ele>
        <time>2017-08-25T09:37:40Z</time>
      </trkpt>
      <trkpt lat="45.95376" lon="4.91498">
        <ele>299</ele>
        <time>2017-08-25T09:37:41Z</time>
      </trkpt>
      <trkpt lat="45.95373" lon="4.91488">
        <ele>299</ele>
        <time>2017-08-25T09:37:43Z</time>
      </trkpt>
      <trkpt lat="45.95372" lon="4.91483">
        <ele>299</ele>
        <time>2017-08-25T09:37:44Z</time>
      </trkpt>
      <trkpt lat="45.95369" lon="4.91474">
        <ele>299</ele>
        <time>2017-08-25T09:37:46Z</time>
      </trkpt>
      <trkpt lat="45.95368" lon="4.9147">
        <ele>299</ele>
        <time>2017-08-25T09:37:47Z</time>
      </trkpt>
      <trkpt lat="45.95366" lon="4.91461">
        <ele>299</ele>
        <time>2017-08-25T09:37:49Z</time>
      </trkpt>
      <trkpt lat="45.95365" lon="4.91457">
        <ele>299</ele>
        <time>2017-08-25T09:37:50Z</time>
      </trkpt>
      <trkpt lat="45.95363" lon="4.91448">
        <ele>299</ele>
        <time>2017-08-25T09:37:52Z</time>
      </trkpt>
      <trkpt lat="45.95362" lon="4.91443">
        <ele>299</ele>
        <time>2017-08-25T09:37:53Z</time>
      </trkpt>
      <trkpt lat="45.95362" lon="4.91432">
        <ele>299</ele>
        <time>2017-08-25T09:37:55Z</time>
      </trkpt>
      <trkpt lat="45.95361" lon="4.91428">
        <ele>299</ele>
        <time>2017-08-25T09:37:56Z</time>
      </trkpt>
      <trkpt lat="45.9536" lon="4.9142">
        <ele>298</ele>
        <time>2017-08-25T09:37:58Z</time>
      </trkpt>
      <trkpt lat="45.95359" lon="4.91415">
        <ele>298</ele>
        <time>2017-08-25T09:37:59Z</time>
      </trkpt>
      <trkpt lat="45.95358" lon="4.91407">
        <ele>298</ele>
        <time>2017-08-25T09:38:01Z</time>
      </trkpt>
      <trkpt lat="45.95357" lon="4.91403">
        <ele>298</ele>
        <time>2017-08-25T09:38:02Z</time>
      </trkpt>
      <trkpt lat="45.95357" lon="4.91393">
        <ele>298</ele>
        <time>2017-08-25T09:38:04Z</time>
      </trkpt>
      <trkpt lat="45.95357" lon="4.91388">
        <ele>298</ele>
        <time>2017-08-25T09:38:05Z</time>
      </trkpt>
      <trkpt lat="45.95355" lon="4.91376">
        <ele>298</ele>
        <time>2017-08-25T09:38:08Z</time>
      </trkpt>
      <trkpt lat="45.95354" lon="4.91373">
        <ele>298</ele>
        <time>2017-08-25T09:38:09Z</time>
      </trkpt>
      <trkpt lat="45.95352" lon="4.91364">
        <ele>298</ele>
        <time>2017-08-25T09:38:11Z</time>
      </trkpt>
      <trkpt lat="45.95351" lon="4.9136">
        <ele>298</ele>
        <time>2017-08-25T09:38:12Z</time>
      </trkpt>
      <trkpt lat="45.95348" lon="4.91351">
        <ele>298</ele>
        <time>2017-08-25T09:38:14Z</time>
      </trkpt>
      <trkpt lat="45.95348" lon="4.91346">
        <ele>298</ele>
        <time>2017-08-25T09:38:15Z</time>
      </trkpt>
      <trkpt lat="45.95347" lon="4.91334">
        <ele>298</ele>
        <time>2017-08-25T09:38:18Z</time>
      </trkpt>
      <trkpt lat="45.95347" lon="4.9133">
        <ele>298</ele>
        <time>2017-08-25T09:38:19Z</time>
      </trkpt>
      <trkpt lat="45.95347" lon="4.9132">
        <ele>298</ele>
        <time>2017-08-25T09:38:21Z</time>
      </trkpt>
      <trkpt lat="45.95347" lon="4.91316">
        <ele>298</ele>
        <time>2017-08-25T09:38:22Z</time>
      </trkpt>
      <trkpt lat="45.95347" lon="4.91306">
        <ele>298</ele>
        <time>2017-08-25T09:38:24Z</time>
      </trkpt>
      <trkpt lat="45.95346" lon="4.91302">
        <ele>298</ele>
        <time>2017-08-25T09:38:25Z</time>
      </trkpt>
      <trkpt lat="45.95344" lon="4.91291">
        <ele>299</ele>
        <time>2017-08-25T09:38:28Z</time>
      </trkpt>
      <trkpt lat="45.95344" lon="4.91288">
        <ele>299</ele>
        <time>2017-08-25T09:38:29Z</time>
      </trkpt>
      <trkpt lat="45.95342" lon="4.9128">
        <ele>299</ele>
        <time>2017-08-25T09:38:31Z</time>
      </trkpt>
      <trkpt lat="45.95339" lon="4.91272">
        <ele>299</ele>
        <time>2017-08-25T09:38:32Z</time>
      </trkpt>
      <trkpt lat="45.95334" lon="4.91264">
        <ele>299</ele>
        <time>2017-08-25T09:38:34Z</time>
      </trkpt>
      <trkpt lat="45.95332" lon="4.91259">
        <ele>299</ele>
        <time>2017-08-25T09:38:35Z</time>
      </trkpt>
      <trkpt lat="45.95329" lon="4.91247">
        <ele>299</ele>
        <time>2017-08-25T09:38:38Z</time>
      </trkpt>
      <trkpt lat="45.95328" lon="4.91243">
        <ele>299</ele>
        <time>2017-08-25T09:38:39Z</time>
      </trkpt>
      <trkpt lat="45.95325" lon="4.91232">
        <ele>299</ele>
        <time>2017-08-25T09:38:41Z</time>
      </trkpt>
      <trkpt lat="45.95324" lon="4.91228">
        <ele>299</ele>
        <time>2017-08-25T09:38:42Z</time>
      </trkpt>
      <trkpt lat="45.95322" lon="4.91221">
        <ele>299</ele>
        <time>2017-08-25T09:38:43Z</time>
      </trkpt>
      <trkpt lat="45.95321" lon="4.91216">
        <ele>299</ele>
        <time>2017-08-25T09:38:44Z</time>
      </trkpt>
      <trkpt lat="45.95318" lon="4.91205">
        <ele>299</ele>
        <time>2017-08-25T09:38:46Z</time>
      </trkpt>
      <trkpt lat="45.95318" lon="4.912">
        <ele>299</ele>
        <time>2017-08-25T09:38:47Z</time>
      </trkpt>
      <trkpt lat="45.95312" lon="4.91193">
        <ele>299</ele>
        <time>2017-08-25T09:38:49Z</time>
      </trkpt>
      <trkpt lat="45.95309" lon="4.91188">
        <ele>299</ele>
        <time>2017-08-25T09:38:50Z</time>
      </trkpt>
      <trkpt lat="45.95305" lon="4.91178">
        <ele>299</ele>
        <time>2017-08-25T09:38:53Z</time>
      </trkpt>
      <trkpt lat="45.95305" lon="4.91175">
        <ele>299</ele>
        <time>2017-08-25T09:38:54Z</time>
      </trkpt>
      <trkpt lat="45.95301" lon="4.91165">
        <ele>300</ele>
        <time>2017-08-25T09:38:57Z</time>
      </trkpt>
      <trkpt lat="45.953" lon="4.91161">
        <ele>300</ele>
        <time>2017-08-25T09:38:58Z</time>
      </trkpt>
      <trkpt lat="45.95295" lon="4.91154">
        <ele>300</ele>
        <time>2017-08-25T09:39:00Z</time>
      </trkpt>
      <trkpt lat="45.95293" lon="4.91149">
        <ele>300</ele>
        <time>2017-08-25T09:39:01Z</time>
      </trkpt>
      <trkpt lat="45.95288" lon="4.91139">
        <ele>299</ele>
        <time>2017-08-25T09:39:04Z</time>
      </trkpt>
      <trkpt lat="45.95287" lon="4.91136">
        <ele>299</ele>
        <time>2017-08-25T09:39:05Z</time>
      </trkpt>
      <trkpt lat="45.95281" lon="4.91129">
        <ele>299</ele>
        <time>2017-08-25T09:39:09Z</time>
      </trkpt>
      <trkpt lat="45.95279" lon="4.91127">
        <ele>299</ele>
        <time>2017-08-25T09:39:10Z</time>
      </trkpt>
      <trkpt lat="45.95273" lon="4.91121">
        <ele>299</ele>
        <time>2017-08-25T09:39:13Z</time>
      </trkpt>
      <trkpt lat="45.95271" lon="4.91119">
        <ele>299</ele>
        <time>2017-08-25T09:39:14Z</time>
      </trkpt>
      <trkpt lat="45.95266" lon="4.91112">
        <ele>299</ele>
        <time>2017-08-25T09:39:17Z</time>
      </trkpt>
      <trkpt lat="45.95263" lon="4.91111">
        <ele>299</ele>
        <time>2017-08-25T09:39:18Z</time>
      </trkpt>
      <trkpt lat="45.95256" lon="4.91106">
        <ele>299</ele>
        <time>2017-08-25T09:39:20Z</time>
      </trkpt>
      <trkpt lat="45.95252" lon="4.911">
        <ele>299</ele>
        <time>2017-08-25T09:39:21Z</time>
      </trkpt>
      <trkpt lat="45.95245" lon="4.91095">
        <ele>298</ele>
        <time>2017-08-25T09:39:22Z</time>
      </trkpt>
      <trkpt lat="45.95241" lon="4.91094">
        <ele>298</ele>
        <time>2017-08-25T09:39:23Z</time>
      </trkpt>
      <trkpt lat="45.95236" lon="4.91089">
        <ele>298</ele>
        <time>2017-08-25T09:39:24Z</time>
      </trkpt>
      <trkpt lat="45.95231" lon="4.91083">
        <ele>298</ele>
        <time>2017-08-25T09:39:25Z</time>
      </trkpt>
      <trkpt lat="45.95224" lon="4.91075">
        <ele>297</ele>
        <time>2017-08-25T09:39:27Z</time>
      </trkpt>
      <trkpt lat="45.95222" lon="4.91073">
        <ele>297</ele>
        <time>2017-08-25T09:39:28Z</time>
      </trkpt>
      <trkpt lat="45.95214" lon="4.91068">
        <ele>297</ele>
        <time>2017-08-25T09:39:32Z</time>
      </trkpt>
      <trkpt lat="45.95213" lon="4.91068">
        <ele>297</ele>
        <time>2017-08-25T09:39:33Z</time>
      </trkpt>
      <trkpt lat="45.95212" lon="4.91067">
        <ele>297</ele>
        <time>2017-08-25T09:45:27Z</time>
      </trkpt>
      <trkpt lat="45.95203" lon="4.91064">
        <ele>297</ele>
        <time>2017-08-25T09:45:28Z</time>
      </trkpt>
      <trkpt lat="45.95201" lon="4.91064">
        <ele>297</ele>
        <time>2017-08-25T09:47:06Z</time>
      </trkpt>
      <trkpt lat="45.95191" lon="4.91059">
        <ele>297</ele>
        <time>2017-08-25T09:47:07Z</time>
      </trkpt>
      <trkpt lat="45.95184" lon="4.91066">
        <ele>297</ele>
        <time>2017-08-25T09:47:57Z</time>
      </trkpt>
      <trkpt lat="45.95182" lon="4.91068">
        <ele>297</ele>
        <time>2017-08-25T09:47:58Z</time>
      </trkpt>
      <trkpt lat="45.95184" lon="4.91078">
        <ele>297</ele>
        <time>2017-08-25T09:48:03Z</time>
      </trkpt>
      <trkpt lat="45.95186" lon="4.9108">
        <ele>297</ele>
        <time>2017-08-25T09:48:04Z</time>
      </trkpt>
      <trkpt lat="45.95193" lon="4.91084">
        <ele>297</ele>
        <time>2017-08-25T09:48:08Z</time>
      </trkpt>
      <trkpt lat="45.95196" lon="4.91085">
        <ele>297</ele>
        <time>2017-08-25T09:48:09Z</time>
      </trkpt>
      <trkpt lat="45.95201" lon="4.91078">
        <ele>297</ele>
        <time>2017-08-25T09:48:15Z</time>
      </trkpt>
      <trkpt lat="45.95201" lon="4.91074">
        <ele>297</ele>
        <time>2017-08-25T09:48:16Z</time>
      </trkpt>
      <trkpt lat="45.95198" lon="4.91066">
        <ele>297</ele>
        <time>2017-08-25T09:48:18Z</time>
      </trkpt>
      <trkpt lat="45.95196" lon="4.91062">
        <ele>297</ele>
        <time>2017-08-25T09:48:19Z</time>
      </trkpt>
      <trkpt lat="45.95192" lon="4.91051">
        <ele>297</ele>
        <time>2017-08-25T09:48:22Z</time>
      </trkpt>
      <trkpt lat="45.95191" lon="4.91047">
        <ele>297</ele>
        <time>2017-08-25T09:48:23Z</time>
      </trkpt>
      <trkpt lat="45.95188" lon="4.91036">
        <ele>297</ele>
        <time>2017-08-25T09:48:26Z</time>
      </trkpt>
      <trkpt lat="45.95186" lon="4.91032">
        <ele>297</ele>
        <time>2017-08-25T09:48:27Z</time>
      </trkpt>
      <trkpt lat="45.95185" lon="4.91023">
        <ele>297</ele>
        <time>2017-08-25T09:48:29Z</time>
      </trkpt>
      <trkpt lat="45.95184" lon="4.91019">
        <ele>297</ele>
        <time>2017-08-25T09:48:30Z</time>
      </trkpt>
      <trkpt lat="45.95182" lon="4.91006">
        <ele>298</ele>
        <time>2017-08-25T09:48:32Z</time>
      </trkpt>
      <trkpt lat="45.95182" lon="4.90999">
        <ele>298</ele>
        <time>2017-08-25T09:48:33Z</time>
      </trkpt>
      <trkpt lat="45.95181" lon="4.90993">
        <ele>298</ele>
        <time>2017-08-25T09:48:34Z</time>
      </trkpt>
      <trkpt lat="45.95181" lon="4.90986">
        <ele>298</ele>
        <time>2017-08-25T09:48:35Z</time>
      </trkpt>
      <trkpt lat="45.95181" lon="4.90978">
        <ele>298</ele>
        <time>2017-08-25T09:48:36Z</time>
      </trkpt>
      <trkpt lat="45.95181" lon="4.90972">
        <ele>298</ele>
        <time>2017-08-25T09:48:37Z</time>
      </trkpt>
      <trkpt lat="45.9518" lon="4.9096">
        <ele>298</ele>
        <time>2017-08-25T09:48:39Z</time>
      </trkpt>
      <trkpt lat="45.9518" lon="4.90954">
        <ele>297</ele>
        <time>2017-08-25T09:48:40Z</time>
      </trkpt>
      <trkpt lat="45.95181" lon="4.90943">
        <ele>297</ele>
        <time>2017-08-25T09:48:42Z</time>
      </trkpt>
      <trkpt lat="45.95182" lon="4.90937">
        <ele>297</ele>
        <time>2017-08-25T09:48:43Z</time>
      </trkpt>
      <trkpt lat="45.95184" lon="4.90925">
        <ele>297</ele>
        <time>2017-08-25T09:48:45Z</time>
      </trkpt>
      <trkpt lat="45.95185" lon="4.90919">
        <ele>297</ele>
        <time>2017-08-25T09:48:46Z</time>
      </trkpt>
      <trkpt lat="45.95186" lon="4.90908">
        <ele>298</ele>
        <time>2017-08-25T09:48:48Z</time>
      </trkpt>
      <trkpt lat="45.95186" lon="4.90902">
        <ele>298</ele>
        <time>2017-08-25T09:48:49Z</time>
      </trkpt>
      <trkpt lat="45.95187" lon="4.9089">
        <ele>298</ele>
        <time>2017-08-25T09:48:51Z</time>
      </trkpt>
      <trkpt lat="45.95188" lon="4.90885">
        <ele>298</ele>
        <time>2017-08-25T09:48:52Z</time>
      </trkpt>
      <trkpt lat="45.9519" lon="4.90874">
        <ele>298</ele>
        <time>2017-08-25T09:48:54Z</time>
      </trkpt>
      <trkpt lat="45.95191" lon="4.90868">
        <ele>298</ele>
        <time>2017-08-25T09:48:55Z</time>
      </trkpt>
      <trkpt lat="45.95192" lon="4.90862">
        <ele>298</ele>
        <time>2017-08-25T09:48:56Z</time>
      </trkpt>
      <trkpt lat="45.95193" lon="4.90855">
        <ele>298</ele>
        <time>2017-08-25T09:48:57Z</time>
      </trkpt>
      <trkpt lat="45.95195" lon="4.90848">
        <ele>298</ele>
        <time>2017-08-25T09:48:58Z</time>
      </trkpt>
      <trkpt lat="45.95196" lon="4.90841">
        <ele>298</ele>
        <time>2017-08-25T09:48:59Z</time>
      </trkpt>
      <trkpt lat="45.95196" lon="4.90835">
        <ele>298</ele>
        <time>2017-08-25T09:49:00Z</time>
      </trkpt>
      <trkpt lat="45.95197" lon="4.90827">
        <ele>299</ele>
        <time>2017-08-25T09:49:01Z</time>
      </trkpt>
      <trkpt lat="45.95195" lon="4.9082">
        <ele>299</ele>
        <time>2017-08-25T09:49:02Z</time>
      </trkpt>
      <trkpt lat="45.95193" lon="4.90812">
        <ele>299</ele>
        <time>2017-08-25T09:49:03Z</time>
      </trkpt>
      <trkpt lat="45.95191" lon="4.90805">
        <ele>299</ele>
        <time>2017-08-25T09:49:04Z</time>
      </trkpt>
      <trkpt lat="45.95189" lon="4.90798">
        <ele>299</ele>
        <time>2017-08-25T09:49:05Z</time>
      </trkpt>
      <trkpt lat="45.95187" lon="4.90791">
        <ele>298</ele>
        <time>2017-08-25T09:49:06Z</time>
      </trkpt>
      <trkpt lat="45.95186" lon="4.90783">
        <ele>298</ele>
        <time>2017-08-25T09:49:07Z</time>
      </trkpt>
      <trkpt lat="45.95185" lon="4.90776">
        <ele>298</ele>
        <time>2017-08-25T09:49:08Z</time>
      </trkpt>
      <trkpt lat="45.95185" lon="4.90769">
        <ele>298</ele>
        <time>2017-08-25T09:49:09Z</time>
      </trkpt>
      <trkpt lat="45.95184" lon="4.90762">
        <ele>298</ele>
        <time>2017-08-25T09:49:10Z</time>
      </trkpt>
      <trkpt lat="45.95185" lon="4.90755">
        <ele>298</ele>
        <time>2017-08-25T09:49:11Z</time>
      </trkpt>
      <trkpt lat="45.95185" lon="4.90749">
        <ele>297</ele>
        <time>2017-08-25T09:49:12Z</time>
      </trkpt>
      <trkpt lat="45.95186" lon="4.90741">
        <ele>297</ele>
        <time>2017-08-25T09:49:13Z</time>
      </trkpt>
      <trkpt lat="45.95187" lon="4.90733">
        <ele>297</ele>
        <time>2017-08-25T09:49:14Z</time>
      </trkpt>
      <trkpt lat="45.95188" lon="4.90725">
        <ele>297</ele>
        <time>2017-08-25T09:49:15Z</time>
      </trkpt>
      <trkpt lat="45.95189" lon="4.90717">
        <ele>297</ele>
        <time>2017-08-25T09:49:16Z</time>
      </trkpt>
      <trkpt lat="45.95191" lon="4.90709">
        <ele>297</ele>
        <time>2017-08-25T09:49:17Z</time>
      </trkpt>
      <trkpt lat="45.95191" lon="4.90701">
        <ele>297</ele>
        <time>2017-08-25T09:49:18Z</time>
      </trkpt>
      <trkpt lat="45.95191" lon="4.90694">
        <ele>297</ele>
        <time>2017-08-25T09:49:19Z</time>
      </trkpt>
      <trkpt lat="45.95192" lon="4.90686">
        <ele>297</ele>
        <time>2017-08-25T09:49:20Z</time>
      </trkpt>
      <trkpt lat="45.95192" lon="4.90678">
        <ele>297</ele>
        <time>2017-08-25T09:49:21Z</time>
      </trkpt>
      <trkpt lat="45.95193" lon="4.90671">
        <ele>297</ele>
        <time>2017-08-25T09:49:22Z</time>
      </trkpt>
      <trkpt lat="45.95194" lon="4.90665">
        <ele>296</ele>
        <time>2017-08-25T09:49:23Z</time>
      </trkpt>
      <trkpt lat="45.95194" lon="4.90658">
        <ele>296</ele>
        <time>2017-08-25T09:49:24Z</time>
      </trkpt>
      <trkpt lat="45.95194" lon="4.90651">
        <ele>296</ele>
        <time>2017-08-25T09:49:25Z</time>
      </trkpt>
      <trkpt lat="45.95195" lon="4.90644">
        <ele>296</ele>
        <time>2017-08-25T09:49:26Z</time>
      </trkpt>
      <trkpt lat="45.95195" lon="4.90636">
        <ele>296</ele>
        <time>2017-08-25T09:49:27Z</time>
      </trkpt>
      <trkpt lat="45.95194" lon="4.90627">
        <ele>295</ele>
        <time>2017-08-25T09:49:28Z</time>
      </trkpt>
      <trkpt lat="45.95194" lon="4.90618">
        <ele>295</ele>
        <time>2017-08-25T09:49:29Z</time>
      </trkpt>
      <trkpt lat="45.95195" lon="4.9061">
        <ele>295</ele>
        <time>2017-08-25T09:49:30Z</time>
      </trkpt>
      <trkpt lat="45.95194" lon="4.90603">
        <ele>295</ele>
        <time>2017-08-25T09:49:31Z</time>
      </trkpt>
      <trkpt lat="45.95195" lon="4.90596">
        <ele>295</ele>
        <time>2017-08-25T09:49:32Z</time>
      </trkpt>
      <trkpt lat="45.95195" lon="4.9059">
        <ele>295</ele>
        <time>2017-08-25T09:49:33Z</time>
      </trkpt>
      <trkpt lat="45.95196" lon="4.90583">
        <ele>293</ele>
        <time>2017-08-25T09:49:34Z</time>
      </trkpt>
      <trkpt lat="45.95196" lon="4.90576">
        <ele>293</ele>
        <time>2017-08-25T09:49:35Z</time>
      </trkpt>
      <trkpt lat="45.95195" lon="4.90569">
        <ele>293</ele>
        <time>2017-08-25T09:49:36Z</time>
      </trkpt>
      <trkpt lat="45.95196" lon="4.90561">
        <ele>293</ele>
        <time>2017-08-25T09:49:37Z</time>
      </trkpt>
      <trkpt lat="45.95197" lon="4.90553">
        <ele>293</ele>
        <time>2017-08-25T09:49:38Z</time>
      </trkpt>
      <trkpt lat="45.95197" lon="4.90545">
        <ele>293</ele>
        <time>2017-08-25T09:49:39Z</time>
      </trkpt>
      <trkpt lat="45.95197" lon="4.90537">
        <ele>293</ele>
        <time>2017-08-25T09:49:40Z</time>
      </trkpt>
      <trkpt lat="45.95197" lon="4.90528">
        <ele>292</ele>
        <time>2017-08-25T09:49:41Z</time>
      </trkpt>
      <trkpt lat="45.95197" lon="4.9052">
        <ele>292</ele>
        <time>2017-08-25T09:49:42Z</time>
      </trkpt>
      <trkpt lat="45.95197" lon="4.90511">
        <ele>292</ele>
        <time>2017-08-25T09:49:43Z</time>
      </trkpt>
      <trkpt lat="45.95197" lon="4.90502">
        <ele>292</ele>
        <time>2017-08-25T09:49:44Z</time>
      </trkpt>
      <trkpt lat="45.95198" lon="4.90493">
        <ele>290</ele>
        <time>2017-08-25T09:49:45Z</time>
      </trkpt>
      <trkpt lat="45.95198" lon="4.90484">
        <ele>290</ele>
        <time>2017-08-25T09:49:46Z</time>
      </trkpt>
      <trkpt lat="45.95198" lon="4.90476">
        <ele>290</ele>
        <time>2017-08-25T09:49:47Z</time>
      </trkpt>
      <trkpt lat="45.95198" lon="4.90466">
        <ele>290</ele>
        <time>2017-08-25T09:49:48Z</time>
      </trkpt>
      <trkpt lat="45.95199" lon="4.90457">
        <ele>290</ele>
        <time>2017-08-25T09:49:49Z</time>
      </trkpt>
      <trkpt lat="45.95199" lon="4.90448">
        <ele>290</ele>
        <time>2017-08-25T09:49:50Z</time>
      </trkpt>
      <trkpt lat="45.952" lon="4.90439">
        <ele>290</ele>
        <time>2017-08-25T09:49:51Z</time>
      </trkpt>
      <trkpt lat="45.952" lon="4.9043">
        <ele>289</ele>
        <time>2017-08-25T09:49:52Z</time>
      </trkpt>
      <trkpt lat="45.95199" lon="4.90421">
        <ele>289</ele>
        <time>2017-08-25T09:49:53Z</time>
      </trkpt>
      <trkpt lat="45.95199" lon="4.90413">
        <ele>288</ele>
        <time>2017-08-25T09:49:54Z</time>
      </trkpt>
      <trkpt lat="45.95199" lon="4.90404">
        <ele>288</ele>
        <time>2017-08-25T09:49:55Z</time>
      </trkpt>
      <trkpt lat="45.95201" lon="4.90396">
        <ele>288</ele>
        <time>2017-08-25T09:49:56Z</time>
      </trkpt>
      <trkpt lat="45.95202" lon="4.90388">
        <ele>288</ele>
        <time>2017-08-25T09:49:57Z</time>
      </trkpt>
      <trkpt lat="45.95203" lon="4.9038">
        <ele>288</ele>
        <time>2017-08-25T09:49:58Z</time>
      </trkpt>
      <trkpt lat="45.95205" lon="4.90372">
        <ele>288</ele>
        <time>2017-08-25T09:49:59Z</time>
      </trkpt>
      <trkpt lat="45.95205" lon="4.90364">
        <ele>288</ele>
        <time>2017-08-25T09:50:00Z</time>
      </trkpt>
      <trkpt lat="45.95207" lon="4.90356">
        <ele>288</ele>
        <time>2017-08-25T09:50:01Z</time>
      </trkpt>
      <trkpt lat="45.95208" lon="4.90347">
        <ele>288</ele>
        <time>2017-08-25T09:50:02Z</time>
      </trkpt>
      <trkpt lat="45.9521" lon="4.9034">
        <ele>288</ele>
        <time>2017-08-25T09:50:03Z</time>
      </trkpt>
      <trkpt lat="45.95212" lon="4.90332">
        <ele>287</ele>
        <time>2017-08-25T09:50:04Z</time>
      </trkpt>
      <trkpt lat="45.95212" lon="4.90324">
        <ele>287</ele>
        <time>2017-08-25T09:50:05Z</time>
      </trkpt>
      <trkpt lat="45.95213" lon="4.90315">
        <ele>287</ele>
        <time>2017-08-25T09:50:06Z</time>
      </trkpt>
      <trkpt lat="45.95214" lon="4.90307">
        <ele>287</ele>
        <time>2017-08-25T09:50:07Z</time>
      </trkpt>
      <trkpt lat="45.95216" lon="4.90299">
        <ele>287</ele>
        <time>2017-08-25T09:50:08Z</time>
      </trkpt>
      <trkpt lat="45.95218" lon="4.90291">
        <ele>287</ele>
        <time>2017-08-25T09:50:09Z</time>
      </trkpt>
      <trkpt lat="45.95219" lon="4.90283">
        <ele>287</ele>
        <time>2017-08-25T09:50:10Z</time>
      </trkpt>
      <trkpt lat="45.9522" lon="4.90275">
        <ele>287</ele>
        <time>2017-08-25T09:50:11Z</time>
      </trkpt>
      <trkpt lat="45.95221" lon="4.90267">
        <ele>287</ele>
        <time>2017-08-25T09:50:12Z</time>
      </trkpt>
      <trkpt lat="45.95221" lon="4.90259">
        <ele>287</ele>
        <time>2017-08-25T09:50:13Z</time>
      </trkpt>
      <trkpt lat="45.95221" lon="4.90251">
        <ele>287</ele>
        <time>2017-08-25T09:50:14Z</time>
      </trkpt>
      <trkpt lat="45.9522" lon="4.90243">
        <ele>286</ele>
        <time>2017-08-25T09:50:15Z</time>
      </trkpt>
      <trkpt lat="45.9522" lon="4.90235">
        <ele>286</ele>
        <time>2017-08-25T09:50:16Z</time>
      </trkpt>
      <trkpt lat="45.95218" lon="4.90227">
        <ele>286</ele>
        <time>2017-08-25T09:50:17Z</time>
      </trkpt>
      <trkpt lat="45.95217" lon="4.90218">
        <ele>286</ele>
        <time>2017-08-25T09:50:18Z</time>
      </trkpt>
      <trkpt lat="45.95216" lon="4.9021">
        <ele>286</ele>
        <time>2017-08-25T09:50:19Z</time>
      </trkpt>
      <trkpt lat="45.95215" lon="4.90202">
        <ele>286</ele>
        <time>2017-08-25T09:50:20Z</time>
      </trkpt>
      <trkpt lat="45.95213" lon="4.90193">
        <ele>286</ele>
        <time>2017-08-25T09:50:21Z</time>
      </trkpt>
      <trkpt lat="45.95211" lon="4.90186">
        <ele>286</ele>
        <time>2017-08-25T09:50:22Z</time>
      </trkpt>
      <trkpt lat="45.95208" lon="4.90179">
        <ele>287</ele>
        <time>2017-08-25T09:50:23Z</time>
      </trkpt>
      <trkpt lat="45.95204" lon="4.90173">
        <ele>287</ele>
        <time>2017-08-25T09:50:24Z</time>
      </trkpt>
      <trkpt lat="45.952" lon="4.90169">
        <ele>287</ele>
        <time>2017-08-25T09:50:25Z</time>
      </trkpt>
      <trkpt lat="45.95194" lon="4.90168">
        <ele>287</ele>
        <time>2017-08-25T09:50:26Z</time>
      </trkpt>
      <trkpt lat="45.95189" lon="4.90168">
        <ele>287</ele>
        <time>2017-08-25T09:50:27Z</time>
      </trkpt>
      <trkpt lat="45.95183" lon="4.90169">
        <ele>287</ele>
        <time>2017-08-25T09:50:28Z</time>
      </trkpt>
      <trkpt lat="45.95178" lon="4.9017">
        <ele>287</ele>
        <time>2017-08-25T09:50:29Z</time>
      </trkpt>
      <trkpt lat="45.95172" lon="4.90171">
        <ele>287</ele>
        <time>2017-08-25T09:50:30Z</time>
      </trkpt>
      <trkpt lat="45.95166" lon="4.90172">
        <ele>287</ele>
        <time>2017-08-25T09:50:31Z</time>
      </trkpt>
      <trkpt lat="45.9516" lon="4.90172">
        <ele>287</ele>
        <time>2017-08-25T09:50:32Z</time>
      </trkpt>
      <trkpt lat="45.95155" lon="4.90171">
        <ele>287</ele>
        <time>2017-08-25T09:50:33Z</time>
      </trkpt>
      <trkpt lat="45.95149" lon="4.9017">
        <ele>287</ele>
        <time>2017-08-25T09:50:34Z</time>
      </trkpt>
      <trkpt lat="45.95143" lon="4.90169">
        <ele>287</ele>
        <time>2017-08-25T09:50:35Z</time>
      </trkpt>
      <trkpt lat="45.95137" lon="4.90166">
        <ele>286</ele>
        <time>2017-08-25T09:50:36Z</time>
      </trkpt>
      <trkpt lat="45.95132" lon="4.90163">
        <ele>286</ele>
        <time>2017-08-25T09:50:37Z</time>
      </trkpt>
      <trkpt lat="45.95127" lon="4.9016">
        <ele>286</ele>
        <time>2017-08-25T09:50:38Z</time>
      </trkpt>
      <trkpt lat="45.95123" lon="4.90157">
        <ele>286</ele>
        <time>2017-08-25T09:50:39Z</time>
      </trkpt>
      <trkpt lat="45.95118" lon="4.90154">
        <ele>286</ele>
        <time>2017-08-25T09:50:40Z</time>
      </trkpt>
      <trkpt lat="45.95114" lon="4.90151">
        <ele>286</ele>
        <time>2017-08-25T09:50:41Z</time>
      </trkpt>
      <trkpt lat="45.9511" lon="4.90147">
        <ele>286</ele>
        <time>2017-08-25T09:50:42Z</time>
      </trkpt>
      <trkpt lat="45.95106" lon="4.90142">
        <ele>286</ele>
        <time>2017-08-25T09:50:43Z</time>
      </trkpt>
      <trkpt lat="45.95102" lon="4.90138">
        <ele>286</ele>
        <time>2017-08-25T09:50:44Z</time>
      </trkpt>
      <trkpt lat="45.95097" lon="4.90133">
        <ele>286</ele>
        <time>2017-08-25T09:50:45Z</time>
      </trkpt>
      <trkpt lat="45.95093" lon="4.90127">
        <ele>286</ele>
        <time>2017-08-25T09:50:46Z</time>
      </trkpt>
      <trkpt lat="45.95088" lon="4.90122">
        <ele>286</ele>
        <time>2017-08-25T09:50:47Z</time>
      </trkpt>
      <trkpt lat="45.95084" lon="4.90117">
        <ele>286</ele>
        <time>2017-08-25T09:50:48Z</time>
      </trkpt>
      <trkpt lat="45.9508" lon="4.90112">
        <ele>285</ele>
        <time>2017-08-25T09:50:49Z</time>
      </trkpt>
      <trkpt lat="45.95077" lon="4.90107">
        <ele>285</ele>
        <time>2017-08-25T09:50:50Z</time>
      </trkpt>
      <trkpt lat="45.95073" lon="4.90101">
        <ele>285</ele>
        <time>2017-08-25T09:50:51Z</time>
      </trkpt>
      <trkpt lat="45.95069" lon="4.90096">
        <ele>285</ele>
        <time>2017-08-25T09:50:52Z</time>
      </trkpt>
      <trkpt lat="45.95065" lon="4.90091">
        <ele>285</ele>
        <time>2017-08-25T09:50:53Z</time>
      </trkpt>
      <trkpt lat="45.95062" lon="4.90086">
        <ele>285</ele>
        <time>2017-08-25T09:50:54Z</time>
      </trkpt>
      <trkpt lat="45.95058" lon="4.90081">
        <ele>285</ele>
        <time>2017-08-25T09:50:55Z</time>
      </trkpt>
      <trkpt lat="45.95054" lon="4.90076">
        <ele>285</ele>
        <time>2017-08-25T09:50:56Z</time>
      </trkpt>
      <trkpt lat="45.9505" lon="4.9007">
        <ele>285</ele>
        <time>2017-08-25T09:50:57Z</time>
      </trkpt>
      <trkpt lat="45.95046" lon="4.90063">
        <ele>285</ele>
        <time>2017-08-25T09:50:58Z</time>
      </trkpt>
      <trkpt lat="45.95041" lon="4.90057">
        <ele>285</ele>
        <time>2017-08-25T09:50:59Z</time>
      </trkpt>
      <trkpt lat="45.95037" lon="4.90051">
        <ele>285</ele>
        <time>2017-08-25T09:51:00Z</time>
      </trkpt>
      <trkpt lat="45.95033" lon="4.90045">
        <ele>284</ele>
        <time>2017-08-25T09:51:01Z</time>
      </trkpt>
      <trkpt lat="45.95029" lon="4.90039">
        <ele>284</ele>
        <time>2017-08-25T09:51:02Z</time>
      </trkpt>
      <trkpt lat="45.95025" lon="4.90032">
        <ele>284</ele>
        <time>2017-08-25T09:51:03Z</time>
      </trkpt>
      <trkpt lat="45.95022" lon="4.90026">
        <ele>284</ele>
        <time>2017-08-25T09:51:04Z</time>
      </trkpt>
      <trkpt lat="45.95018" lon="4.9002">
        <ele>284</ele>
        <time>2017-08-25T09:51:05Z</time>
      </trkpt>
      <trkpt lat="45.95014" lon="4.90015">
        <ele>284</ele>
        <time>2017-08-25T09:51:06Z</time>
      </trkpt>
      <trkpt lat="45.95011" lon="4.90009">
        <ele>284</ele>
        <time>2017-08-25T09:51:07Z</time>
      </trkpt>
      <trkpt lat="45.95008" lon="4.90004">
        <ele>283</ele>
        <time>2017-08-25T09:51:08Z</time>
      </trkpt>
      <trkpt lat="45.95005" lon="4.89998">
        <ele>283</ele>
        <time>2017-08-25T09:51:09Z</time>
      </trkpt>
      <trkpt lat="45.95002" lon="4.89992">
        <ele>283</ele>
        <time>2017-08-25T09:51:10Z</time>
      </trkpt>
      <trkpt lat="45.94998" lon="4.89986">
        <ele>283</ele>
        <time>2017-08-25T09:51:11Z</time>
      </trkpt>
      <trkpt lat="45.94994" lon="4.89979">
        <ele>284</ele>
        <time>2017-08-25T09:51:12Z</time>
      </trkpt>
      <trkpt lat="45.9499" lon="4.89972">
        <ele>284</ele>
        <time>2017-08-25T09:51:13Z</time>
      </trkpt>
      <trkpt lat="45.94986" lon="4.89965">
        <ele>284</ele>
        <time>2017-08-25T09:51:14Z</time>
      </trkpt>
      <trkpt lat="45.94981" lon="4.89959">
        <ele>284</ele>
        <time>2017-08-25T09:51:15Z</time>
      </trkpt>
      <trkpt lat="45.94977" lon="4.89952">
        <ele>284</ele>
        <time>2017-08-25T09:51:16Z</time>
      </trkpt>
      <trkpt lat="45.94973" lon="4.89946">
        <ele>284</ele>
        <time>2017-08-25T09:51:17Z</time>
      </trkpt>
      <trkpt lat="45.94969" lon="4.89941">
        <ele>284</ele>
        <time>2017-08-25T09:51:18Z</time>
      </trkpt>
      <trkpt lat="45.94965" lon="4.89936">
        <ele>284</ele>
        <time>2017-08-25T09:51:19Z</time>
      </trkpt>
      <trkpt lat="45.94962" lon="4.89931">
        <ele>284</ele>
        <time>2017-08-25T09:51:20Z</time>
      </trkpt>
      <trkpt lat="45.94958" lon="4.89926">
        <ele>284</ele>
        <time>2017-08-25T09:51:21Z</time>
      </trkpt>
      <trkpt lat="45.94955" lon="4.89922">
        <ele>284</ele>
        <time>2017-08-25T09:51:22Z</time>
      </trkpt>
      <trkpt lat="45.94951" lon="4.89918">
        <ele>284</ele>
        <time>2017-08-25T09:51:23Z</time>
      </trkpt>
      <trkpt lat="45.94948" lon="4.89913">
        <ele>284</ele>
        <time>2017-08-25T09:51:24Z</time>
      </trkpt>
      <trkpt lat="45.94944" lon="4.89908">
        <ele>284</ele>
        <time>2017-08-25T09:51:25Z</time>
      </trkpt>
      <trkpt lat="45.94941" lon="4.89902">
        <ele>284</ele>
        <time>2017-08-25T09:51:26Z</time>
      </trkpt>
      <trkpt lat="45.94938" lon="4.89896">
        <ele>284</ele>
        <time>2017-08-25T09:51:27Z</time>
      </trkpt>
      <trkpt lat="45.94935" lon="4.8989">
        <ele>284</ele>
        <time>2017-08-25T09:51:28Z</time>
      </trkpt>
      <trkpt lat="45.94932" lon="4.89883">
        <ele>284</ele>
        <time>2017-08-25T09:51:29Z</time>
      </trkpt>
      <trkpt lat="45.9493" lon="4.89876">
        <ele>284</ele>
        <time>2017-08-25T09:51:30Z</time>
      </trkpt>
      <trkpt lat="45.94928" lon="4.89869">
        <ele>284</ele>
        <time>2017-08-25T09:51:31Z</time>
      </trkpt>
      <trkpt lat="45.94927" lon="4.89862">
        <ele>284</ele>
        <time>2017-08-25T09:51:32Z</time>
      </trkpt>
      <trkpt lat="45.94927" lon="4.89856">
        <ele>284</ele>
        <time>2017-08-25T09:51:33Z</time>
      </trkpt>
      <trkpt lat="45.94926" lon="4.89843">
        <ele>284</ele>
        <time>2017-08-25T09:51:35Z</time>
      </trkpt>
      <trkpt lat="45.94926" lon="4.89836">
        <ele>284</ele>
        <time>2017-08-25T09:51:36Z</time>
      </trkpt>
      <trkpt lat="45.94926" lon="4.89829">
        <ele>284</ele>
        <time>2017-08-25T09:51:37Z</time>
      </trkpt>
      <trkpt lat="45.94927" lon="4.89822">
        <ele>284</ele>
        <time>2017-08-25T09:51:38Z</time>
      </trkpt>
      <trkpt lat="45.94928" lon="4.89814">
        <ele>284</ele>
        <time>2017-08-25T09:51:39Z</time>
      </trkpt>
      <trkpt lat="45.9493" lon="4.89806">
        <ele>284</ele>
        <time>2017-08-25T09:51:40Z</time>
      </trkpt>
      <trkpt lat="45.94931" lon="4.89798">
        <ele>284</ele>
        <time>2017-08-25T09:51:41Z</time>
      </trkpt>
      <trkpt lat="45.94933" lon="4.8979">
        <ele>284</ele>
        <time>2017-08-25T09:51:42Z</time>
      </trkpt>
      <trkpt lat="45.94935" lon="4.89783">
        <ele>284</ele>
        <time>2017-08-25T09:51:43Z</time>
      </trkpt>
      <trkpt lat="45.94936" lon="4.89775">
        <ele>284</ele>
        <time>2017-08-25T09:51:44Z</time>
      </trkpt>
      <trkpt lat="45.94938" lon="4.89767">
        <ele>284</ele>
        <time>2017-08-25T09:51:45Z</time>
      </trkpt>
      <trkpt lat="45.9494" lon="4.8976">
        <ele>284</ele>
        <time>2017-08-25T09:51:46Z</time>
      </trkpt>
      <trkpt lat="45.94941" lon="4.89753">
        <ele>284</ele>
        <time>2017-08-25T09:51:47Z</time>
      </trkpt>
      <trkpt lat="45.94943" lon="4.89746">
        <ele>284</ele>
        <time>2017-08-25T09:51:48Z</time>
      </trkpt>
      <trkpt lat="45.94945" lon="4.8974">
        <ele>284</ele>
        <time>2017-08-25T09:51:49Z</time>
      </trkpt>
      <trkpt lat="45.94946" lon="4.89733">
        <ele>284</ele>
        <time>2017-08-25T09:51:50Z</time>
      </trkpt>
      <trkpt lat="45.94948" lon="4.89727">
        <ele>284</ele>
        <time>2017-08-25T09:51:51Z</time>
      </trkpt>
      <trkpt lat="45.94951" lon="4.8972">
        <ele>284</ele>
        <time>2017-08-25T09:51:52Z</time>
      </trkpt>
      <trkpt lat="45.94953" lon="4.89714">
        <ele>284</ele>
        <time>2017-08-25T09:51:53Z</time>
      </trkpt>
      <trkpt lat="45.94955" lon="4.89707">
        <ele>284</ele>
        <time>2017-08-25T09:51:54Z</time>
      </trkpt>
      <trkpt lat="45.94957" lon="4.89701">
        <ele>284</ele>
        <time>2017-08-25T09:51:55Z</time>
      </trkpt>
      <trkpt lat="45.94959" lon="4.89694">
        <ele>284</ele>
        <time>2017-08-25T09:51:56Z</time>
      </trkpt>
      <trkpt lat="45.9496" lon="4.89687">
        <ele>284</ele>
        <time>2017-08-25T09:51:57Z</time>
      </trkpt>
      <trkpt lat="45.94962" lon="4.89679">
        <ele>284</ele>
        <time>2017-08-25T09:51:58Z</time>
      </trkpt>
      <trkpt lat="45.94964" lon="4.89672">
        <ele>284</ele>
        <time>2017-08-25T09:51:59Z</time>
      </trkpt>
      <trkpt lat="45.94966" lon="4.89664">
        <ele>285</ele>
        <time>2017-08-25T09:52:00Z</time>
      </trkpt>
      <trkpt lat="45.94968" lon="4.89656">
        <ele>285</ele>
        <time>2017-08-25T09:52:01Z</time>
      </trkpt>
      <trkpt lat="45.9497" lon="4.89648">
        <ele>285</ele>
        <time>2017-08-25T09:52:02Z</time>
      </trkpt>
      <trkpt lat="45.94972" lon="4.8964">
        <ele>285</ele>
        <time>2017-08-25T09:52:03Z</time>
      </trkpt>
      <trkpt lat="45.94974" lon="4.89633">
        <ele>285</ele>
        <time>2017-08-25T09:52:04Z</time>
      </trkpt>
      <trkpt lat="45.94976" lon="4.89625">
        <ele>285</ele>
        <time>2017-08-25T09:52:05Z</time>
      </trkpt>
      <trkpt lat="45.94978" lon="4.89617">
        <ele>285</ele>
        <time>2017-08-25T09:52:06Z</time>
      </trkpt>
      <trkpt lat="45.9498" lon="4.89609">
        <ele>285</ele>
        <time>2017-08-25T09:52:07Z</time>
      </trkpt>
      <trkpt lat="45.94982" lon="4.89601">
        <ele>285</ele>
        <time>2017-08-25T09:52:08Z</time>
      </trkpt>
      <trkpt lat="45.94984" lon="4.89594">
        <ele>284</ele>
        <time>2017-08-25T09:52:09Z</time>
      </trkpt>
      <trkpt lat="45.94987" lon="4.89587">
        <ele>284</ele>
        <time>2017-08-25T09:52:10Z</time>
      </trkpt>
      <trkpt lat="45.94989" lon="4.8958">
        <ele>284</ele>
        <time>2017-08-25T09:52:11Z</time>
      </trkpt>
      <trkpt lat="45.94991" lon="4.89573">
        <ele>284</ele>
        <time>2017-08-25T09:52:12Z</time>
      </trkpt>
      <trkpt lat="45.94993" lon="4.89565">
        <ele>284</ele>
        <time>2017-08-25T09:52:13Z</time>
      </trkpt>
      <trkpt lat="45.94995" lon="4.89557">
        <ele>284</ele>
        <time>2017-08-25T09:52:14Z</time>
      </trkpt>
      <trkpt lat="45.94998" lon="4.89549">
        <ele>284</ele>
        <time>2017-08-25T09:52:15Z</time>
      </trkpt>
      <trkpt lat="45.95001" lon="4.89541">
        <ele>283</ele>
        <time>2017-08-25T09:52:16Z</time>
      </trkpt>
      <trkpt lat="45.95005" lon="4.89534">
        <ele>283</ele>
        <time>2017-08-25T09:52:17Z</time>
      </trkpt>
      <trkpt lat="45.9501" lon="4.89528">
        <ele>283</ele>
        <time>2017-08-25T09:52:18Z</time>
      </trkpt>
      <trkpt lat="45.95015" lon="4.89523">
        <ele>283</ele>
        <time>2017-08-25T09:52:19Z</time>
      </trkpt>
      <trkpt lat="45.95021" lon="4.89519">
        <ele>283</ele>
        <time>2017-08-25T09:52:20Z</time>
      </trkpt>
      <trkpt lat="45.95027" lon="4.89516">
        <ele>283</ele>
        <time>2017-08-25T09:52:21Z</time>
      </trkpt>
      <trkpt lat="45.95033" lon="4.89515">
        <ele>283</ele>
        <time>2017-08-25T09:52:22Z</time>
      </trkpt>
      <trkpt lat="45.95039" lon="4.89513">
        <ele>283</ele>
        <time>2017-08-25T09:52:23Z</time>
      </trkpt>
      <trkpt lat="45.95046" lon="4.89512">
        <ele>283</ele>
        <time>2017-08-25T09:52:24Z</time>
      </trkpt>
      <trkpt lat="45.95052" lon="4.89511">
        <ele>283</ele>
        <time>2017-08-25T09:52:25Z</time>
      </trkpt>
      <trkpt lat="45.95058" lon="4.8951">
        <ele>282</ele>
        <time>2017-08-25T09:52:26Z</time>
      </trkpt>
      <trkpt lat="45.95064" lon="4.89508">
        <ele>282</ele>
        <time>2017-08-25T09:52:27Z</time>
      </trkpt>
      <trkpt lat="45.9507" lon="4.89506">
        <ele>282</ele>
        <time>2017-08-25T09:52:28Z</time>
      </trkpt>
      <trkpt lat="45.95076" lon="4.89502">
        <ele>282</ele>
        <time>2017-08-25T09:52:29Z</time>
      </trkpt>
      <trkpt lat="45.9508" lon="4.89496">
        <ele>282</ele>
        <time>2017-08-25T09:52:30Z</time>
      </trkpt>
      <trkpt lat="45.95083" lon="4.89487">
        <ele>282</ele>
        <time>2017-08-25T09:52:31Z</time>
      </trkpt>
      <trkpt lat="45.95084" lon="4.89478">
        <ele>282</ele>
        <time>2017-08-25T09:52:32Z</time>
      </trkpt>
      <trkpt lat="45.95084" lon="4.89469">
        <ele>282</ele>
        <time>2017-08-25T09:52:33Z</time>
      </trkpt>
      <trkpt lat="45.95082" lon="4.89461">
        <ele>282</ele>
        <time>2017-08-25T09:52:34Z</time>
      </trkpt>
      <trkpt lat="45.9508" lon="4.89453">
        <ele>282</ele>
        <time>2017-08-25T09:52:35Z</time>
      </trkpt>
      <trkpt lat="45.95079" lon="4.89445">
        <ele>282</ele>
        <time>2017-08-25T09:52:36Z</time>
      </trkpt>
      <trkpt lat="45.95077" lon="4.89436">
        <ele>282</ele>
        <time>2017-08-25T09:52:37Z</time>
      </trkpt>
      <trkpt lat="45.95076" lon="4.89428">
        <ele>282</ele>
        <time>2017-08-25T09:52:38Z</time>
      </trkpt>
      <trkpt lat="45.95075" lon="4.8942">
        <ele>282</ele>
        <time>2017-08-25T09:52:39Z</time>
      </trkpt>
      <trkpt lat="45.95074" lon="4.89413">
        <ele>282</ele>
        <time>2017-08-25T09:52:40Z</time>
      </trkpt>
      <trkpt lat="45.95073" lon="4.89406">
        <ele>283</ele>
        <time>2017-08-25T09:52:41Z</time>
      </trkpt>
      <trkpt lat="45.95072" lon="4.89399">
        <ele>283</ele>
        <time>2017-08-25T09:52:42Z</time>
      </trkpt>
      <trkpt lat="45.95072" lon="4.89392">
        <ele>283</ele>
        <time>2017-08-25T09:52:43Z</time>
      </trkpt>
      <trkpt lat="45.95073" lon="4.89385">
        <ele>283</ele>
        <time>2017-08-25T09:52:44Z</time>
      </trkpt>
      <trkpt lat="45.95073" lon="4.89377">
        <ele>283</ele>
        <time>2017-08-25T09:52:45Z</time>
      </trkpt>
      <trkpt lat="45.95072" lon="4.89369">
        <ele>283</ele>
        <time>2017-08-25T09:52:46Z</time>
      </trkpt>
      <trkpt lat="45.95072" lon="4.8936">
        <ele>283</ele>
        <time>2017-08-25T09:52:47Z</time>
      </trkpt>
      <trkpt lat="45.95072" lon="4.89352">
        <ele>283</ele>
        <time>2017-08-25T09:52:48Z</time>
      </trkpt>
      <trkpt lat="45.95072" lon="4.89343">
        <ele>283</ele>
        <time>2017-08-25T09:52:49Z</time>
      </trkpt>
      <trkpt lat="45.95072" lon="4.89336">
        <ele>283</ele>
        <time>2017-08-25T09:52:50Z</time>
      </trkpt>
      <trkpt lat="45.95072" lon="4.89328">
        <ele>283</ele>
        <time>2017-08-25T09:52:51Z</time>
      </trkpt>
      <trkpt lat="45.95073" lon="4.89321">
        <ele>283</ele>
        <time>2017-08-25T09:52:52Z</time>
      </trkpt>
      <trkpt lat="45.95073" lon="4.89314">
        <ele>283</ele>
        <time>2017-08-25T09:52:53Z</time>
      </trkpt>
      <trkpt lat="45.95073" lon="4.89308">
        <ele>283</ele>
        <time>2017-08-25T09:52:54Z</time>
      </trkpt>
      <trkpt lat="45.95075" lon="4.89296">
        <ele>283</ele>
        <time>2017-08-25T09:52:56Z</time>
      </trkpt>
      <trkpt lat="45.95076" lon="4.89291">
        <ele>283</ele>
        <time>2017-08-25T09:52:57Z</time>
      </trkpt>
      <trkpt lat="45.95077" lon="4.89285">
        <ele>283</ele>
        <time>2017-08-25T09:52:58Z</time>
      </trkpt>
      <trkpt lat="45.95077" lon="4.89278">
        <ele>283</ele>
        <time>2017-08-25T09:52:59Z</time>
      </trkpt>
      <trkpt lat="45.95078" lon="4.8927">
        <ele>283</ele>
        <time>2017-08-25T09:53:00Z</time>
      </trkpt>
      <trkpt lat="45.95078" lon="4.89262">
        <ele>283</ele>
        <time>2017-08-25T09:53:01Z</time>
      </trkpt>
      <trkpt lat="45.95078" lon="4.89253">
        <ele>283</ele>
        <time>2017-08-25T09:53:02Z</time>
      </trkpt>
      <trkpt lat="45.95078" lon="4.89246">
        <ele>283</ele>
        <time>2017-08-25T09:53:03Z</time>
      </trkpt>
      <trkpt lat="45.95078" lon="4.89238">
        <ele>283</ele>
        <time>2017-08-25T09:53:04Z</time>
      </trkpt>
      <trkpt lat="45.95078" lon="4.89231">
        <ele>284</ele>
        <time>2017-08-25T09:53:05Z</time>
      </trkpt>
      <trkpt lat="45.95078" lon="4.89223">
        <ele>284</ele>
        <time>2017-08-25T09:53:06Z</time>
      </trkpt>
      <trkpt lat="45.95078" lon="4.89217">
        <ele>284</ele>
        <time>2017-08-25T09:53:07Z</time>
      </trkpt>
      <trkpt lat="45.95077" lon="4.89205">
        <ele>284</ele>
        <time>2017-08-25T09:53:09Z</time>
      </trkpt>
      <trkpt lat="45.95078" lon="4.89199">
        <ele>284</ele>
        <time>2017-08-25T09:53:10Z</time>
      </trkpt>
      <trkpt lat="45.9508" lon="4.89187">
        <ele>284</ele>
        <time>2017-08-25T09:53:12Z</time>
      </trkpt>
      <trkpt lat="45.95082" lon="4.89181">
        <ele>284</ele>
        <time>2017-08-25T09:53:13Z</time>
      </trkpt>
      <trkpt lat="45.95083" lon="4.89175">
        <ele>284</ele>
        <time>2017-08-25T09:53:14Z</time>
      </trkpt>
      <trkpt lat="45.95084" lon="4.89167">
        <ele>284</ele>
        <time>2017-08-25T09:53:15Z</time>
      </trkpt>
      <trkpt lat="45.95083" lon="4.89159">
        <ele>284</ele>
        <time>2017-08-25T09:53:16Z</time>
      </trkpt>
      <trkpt lat="45.95083" lon="4.8915">
        <ele>284</ele>
        <time>2017-08-25T09:53:17Z</time>
      </trkpt>
      <trkpt lat="45.95085" lon="4.89141">
        <ele>283</ele>
        <time>2017-08-25T09:53:18Z</time>
      </trkpt>
      <trkpt lat="45.95085" lon="4.89132">
        <ele>283</ele>
        <time>2017-08-25T09:53:19Z</time>
      </trkpt>
      <trkpt lat="45.95086" lon="4.89122">
        <ele>283</ele>
        <time>2017-08-25T09:53:20Z</time>
      </trkpt>
      <trkpt lat="45.95087" lon="4.89114">
        <ele>283</ele>
        <time>2017-08-25T09:53:21Z</time>
      </trkpt>
      <trkpt lat="45.95087" lon="4.89106">
        <ele>283</ele>
        <time>2017-08-25T09:53:22Z</time>
      </trkpt>
      <trkpt lat="45.95088" lon="4.89098">
        <ele>283</ele>
        <time>2017-08-25T09:53:23Z</time>
      </trkpt>
      <trkpt lat="45.95088" lon="4.89089">
        <ele>284</ele>
        <time>2017-08-25T09:53:24Z</time>
      </trkpt>
      <trkpt lat="45.95089" lon="4.89081">
        <ele>284</ele>
        <time>2017-08-25T09:53:25Z</time>
      </trkpt>
      <trkpt lat="45.9509" lon="4.89074">
        <ele>284</ele>
        <time>2017-08-25T09:53:26Z</time>
      </trkpt>
      <trkpt lat="45.95091" lon="4.89067">
        <ele>284</ele>
        <time>2017-08-25T09:53:27Z</time>
      </trkpt>
      <trkpt lat="45.95091" lon="4.89059">
        <ele>284</ele>
        <time>2017-08-25T09:53:28Z</time>
      </trkpt>
      <trkpt lat="45.95091" lon="4.8905">
        <ele>284</ele>
        <time>2017-08-25T09:53:29Z</time>
      </trkpt>
      <trkpt lat="45.95091" lon="4.89042">
        <ele>284</ele>
        <time>2017-08-25T09:53:30Z</time>
      </trkpt>
      <trkpt lat="45.95092" lon="4.89034">
        <ele>284</ele>
        <time>2017-08-25T09:53:31Z</time>
      </trkpt>
      <trkpt lat="45.95093" lon="4.89026">
        <ele>284</ele>
        <time>2017-08-25T09:53:32Z</time>
      </trkpt>
      <trkpt lat="45.95094" lon="4.89017">
        <ele>284</ele>
        <time>2017-08-25T09:53:33Z</time>
      </trkpt>
      <trkpt lat="45.95095" lon="4.89008">
        <ele>284</ele>
        <time>2017-08-25T09:53:34Z</time>
      </trkpt>
      <trkpt lat="45.95096" lon="4.89">
        <ele>284</ele>
        <time>2017-08-25T09:53:35Z</time>
      </trkpt>
      <trkpt lat="45.95096" lon="4.88992">
        <ele>285</ele>
        <time>2017-08-25T09:53:36Z</time>
      </trkpt>
      <trkpt lat="45.95097" lon="4.88985">
        <ele>284</ele>
        <time>2017-08-25T09:53:37Z</time>
      </trkpt>
      <trkpt lat="45.95098" lon="4.88977">
        <ele>284</ele>
        <time>2017-08-25T09:53:38Z</time>
      </trkpt>
      <trkpt lat="45.95099" lon="4.88969">
        <ele>284</ele>
        <time>2017-08-25T09:53:39Z</time>
      </trkpt>
      <trkpt lat="45.95099" lon="4.88962">
        <ele>284</ele>
        <time>2017-08-25T09:53:40Z</time>
      </trkpt>
      <trkpt lat="45.951" lon="4.88955">
        <ele>284</ele>
        <time>2017-08-25T09:53:41Z</time>
      </trkpt>
      <trkpt lat="45.95101" lon="4.88949">
        <ele>284</ele>
        <time>2017-08-25T09:53:42Z</time>
      </trkpt>
      <trkpt lat="45.95102" lon="4.88942">
        <ele>285</ele>
        <time>2017-08-25T09:53:43Z</time>
      </trkpt>
      <trkpt lat="45.95102" lon="4.88934">
        <ele>285</ele>
        <time>2017-08-25T09:53:44Z</time>
      </trkpt>
      <trkpt lat="45.95102" lon="4.88927">
        <ele>285</ele>
        <time>2017-08-25T09:53:45Z</time>
      </trkpt>
      <trkpt lat="45.95103" lon="4.8892">
        <ele>285</ele>
        <time>2017-08-25T09:53:46Z</time>
      </trkpt>
      <trkpt lat="45.95104" lon="4.88912">
        <ele>285</ele>
        <time>2017-08-25T09:53:47Z</time>
      </trkpt>
      <trkpt lat="45.95104" lon="4.88903">
        <ele>285</ele>
        <time>2017-08-25T09:53:48Z</time>
      </trkpt>
      <trkpt lat="45.95104" lon="4.88895">
        <ele>285</ele>
        <time>2017-08-25T09:53:49Z</time>
      </trkpt>
      <trkpt lat="45.95105" lon="4.88887">
        <ele>285</ele>
        <time>2017-08-25T09:53:50Z</time>
      </trkpt>
      <trkpt lat="45.95105" lon="4.8888">
        <ele>285</ele>
        <time>2017-08-25T09:53:51Z</time>
      </trkpt>
      <trkpt lat="45.95106" lon="4.88873">
        <ele>285</ele>
        <time>2017-08-25T09:53:52Z</time>
      </trkpt>
      <trkpt lat="45.95107" lon="4.88865">
        <ele>285</ele>
        <time>2017-08-25T09:53:53Z</time>
      </trkpt>
      <trkpt lat="45.95107" lon="4.88858">
        <ele>285</ele>
        <time>2017-08-25T09:53:54Z</time>
      </trkpt>
      <trkpt lat="45.95108" lon="4.88852">
        <ele>285</ele>
        <time>2017-08-25T09:53:55Z</time>
      </trkpt>
      <trkpt lat="45.95108" lon="4.8884">
        <ele>285</ele>
        <time>2017-08-25T09:53:57Z</time>
      </trkpt>
      <trkpt lat="45.95108" lon="4.88834">
        <ele>285</ele>
        <time>2017-08-25T09:53:58Z</time>
      </trkpt>
      <trkpt lat="45.95108" lon="4.88827">
        <ele>286</ele>
        <time>2017-08-25T09:53:59Z</time>
      </trkpt>
      <trkpt lat="45.95109" lon="4.88819">
        <ele>286</ele>
        <time>2017-08-25T09:54:00Z</time>
      </trkpt>
      <trkpt lat="45.95109" lon="4.88812">
        <ele>286</ele>
        <time>2017-08-25T09:54:01Z</time>
      </trkpt>
      <trkpt lat="45.9511" lon="4.88804">
        <ele>286</ele>
        <time>2017-08-25T09:54:02Z</time>
      </trkpt>
      <trkpt lat="45.95111" lon="4.88796">
        <ele>286</ele>
        <time>2017-08-25T09:54:03Z</time>
      </trkpt>
      <trkpt lat="45.95112" lon="4.88788">
        <ele>286</ele>
        <time>2017-08-25T09:54:04Z</time>
      </trkpt>
      <trkpt lat="45.95112" lon="4.8878">
        <ele>287</ele>
        <time>2017-08-25T09:54:05Z</time>
      </trkpt>
      <trkpt lat="45.95113" lon="4.88772">
        <ele>287</ele>
        <time>2017-08-25T09:54:06Z</time>
      </trkpt>
      <trkpt lat="45.95114" lon="4.88764">
        <ele>287</ele>
        <time>2017-08-25T09:54:07Z</time>
      </trkpt>
      <trkpt lat="45.95114" lon="4.88757">
        <ele>287</ele>
        <time>2017-08-25T09:54:08Z</time>
      </trkpt>
      <trkpt lat="45.95114" lon="4.88751">
        <ele>287</ele>
        <time>2017-08-25T09:54:09Z</time>
      </trkpt>
      <trkpt lat="45.95113" lon="4.88744">
        <ele>288</ele>
        <time>2017-08-25T09:54:10Z</time>
      </trkpt>
      <trkpt lat="45.95113" lon="4.88732">
        <ele>288</ele>
        <time>2017-08-25T09:54:12Z</time>
      </trkpt>
      <trkpt lat="45.95112" lon="4.88726">
        <ele>288</ele>
        <time>2017-08-25T09:54:13Z</time>
      </trkpt>
      <trkpt lat="45.95112" lon="4.88714">
        <ele>289</ele>
        <time>2017-08-25T09:54:15Z</time>
      </trkpt>
      <trkpt lat="45.95112" lon="4.88707">
        <ele>289</ele>
        <time>2017-08-25T09:54:16Z</time>
      </trkpt>
      <trkpt lat="45.95112" lon="4.88694">
        <ele>289</ele>
        <time>2017-08-25T09:54:18Z</time>
      </trkpt>
      <trkpt lat="45.95113" lon="4.88689">
        <ele>289</ele>
        <time>2017-08-25T09:54:19Z</time>
      </trkpt>
      <trkpt lat="45.95113" lon="4.88677">
        <ele>289</ele>
        <time>2017-08-25T09:54:21Z</time>
      </trkpt>
      <trkpt lat="45.95112" lon="4.88671">
        <ele>289</ele>
        <time>2017-08-25T09:54:22Z</time>
      </trkpt>
      <trkpt lat="45.95113" lon="4.88658">
        <ele>290</ele>
        <time>2017-08-25T09:54:24Z</time>
      </trkpt>
      <trkpt lat="45.95113" lon="4.88652">
        <ele>290</ele>
        <time>2017-08-25T09:54:25Z</time>
      </trkpt>
      <trkpt lat="45.95112" lon="4.88641">
        <ele>290</ele>
        <time>2017-08-25T09:54:27Z</time>
      </trkpt>
      <trkpt lat="45.95113" lon="4.88636">
        <ele>290</ele>
        <time>2017-08-25T09:54:28Z</time>
      </trkpt>
      <trkpt lat="45.95113" lon="4.88624">
        <ele>290</ele>
        <time>2017-08-25T09:54:30Z</time>
      </trkpt>
      <trkpt lat="45.95114" lon="4.88618">
        <ele>290</ele>
        <time>2017-08-25T09:54:31Z</time>
      </trkpt>
      <trkpt lat="45.95115" lon="4.88607">
        <ele>290</ele>
        <time>2017-08-25T09:54:33Z</time>
      </trkpt>
      <trkpt lat="45.95116" lon="4.88602">
        <ele>290</ele>
        <time>2017-08-25T09:54:34Z</time>
      </trkpt>
      <trkpt lat="45.95117" lon="4.88591">
        <ele>290</ele>
        <time>2017-08-25T09:54:36Z</time>
      </trkpt>
      <trkpt lat="45.95117" lon="4.88585">
        <ele>290</ele>
        <time>2017-08-25T09:54:37Z</time>
      </trkpt>
      <trkpt lat="45.95117" lon="4.88574">
        <ele>291</ele>
        <time>2017-08-25T09:54:39Z</time>
      </trkpt>
      <trkpt lat="45.95117" lon="4.88569">
        <ele>291</ele>
        <time>2017-08-25T09:54:40Z</time>
      </trkpt>
      <trkpt lat="45.95117" lon="4.88556">
        <ele>291</ele>
        <time>2017-08-25T09:54:42Z</time>
      </trkpt>
      <trkpt lat="45.95116" lon="4.8855">
        <ele>291</ele>
        <time>2017-08-25T09:54:43Z</time>
      </trkpt>
      <trkpt lat="45.95115" lon="4.88538">
        <ele>291</ele>
        <time>2017-08-25T09:54:45Z</time>
      </trkpt>
      <trkpt lat="45.95114" lon="4.88532">
        <ele>291</ele>
        <time>2017-08-25T09:54:46Z</time>
      </trkpt>
      <trkpt lat="45.95112" lon="4.88524">
        <ele>291</ele>
        <time>2017-08-25T09:54:47Z</time>
      </trkpt>
      <trkpt lat="45.95111" lon="4.88517">
        <ele>291</ele>
        <time>2017-08-25T09:54:48Z</time>
      </trkpt>
      <trkpt lat="45.9511" lon="4.88505">
        <ele>291</ele>
        <time>2017-08-25T09:54:50Z</time>
      </trkpt>
      <trkpt lat="45.95108" lon="4.88499">
        <ele>291</ele>
        <time>2017-08-25T09:54:51Z</time>
      </trkpt>
      <trkpt lat="45.95106" lon="4.8849">
        <ele>291</ele>
        <time>2017-08-25T09:54:53Z</time>
      </trkpt>
      <trkpt lat="45.95105" lon="4.88485">
        <ele>291</ele>
        <time>2017-08-25T09:54:54Z</time>
      </trkpt>
      <trkpt lat="45.95102" lon="4.88475">
        <ele>291</ele>
        <time>2017-08-25T09:54:56Z</time>
      </trkpt>
      <trkpt lat="45.95101" lon="4.88469">
        <ele>291</ele>
        <time>2017-08-25T09:54:57Z</time>
      </trkpt>
      <trkpt lat="45.951" lon="4.88457">
        <ele>291</ele>
        <time>2017-08-25T09:54:59Z</time>
      </trkpt>
      <trkpt lat="45.95101" lon="4.88451">
        <ele>291</ele>
        <time>2017-08-25T09:55:00Z</time>
      </trkpt>
      <trkpt lat="45.951" lon="4.88439">
        <ele>291</ele>
        <time>2017-08-25T09:55:02Z</time>
      </trkpt>
      <trkpt lat="45.95101" lon="4.88434">
        <ele>291</ele>
        <time>2017-08-25T09:55:03Z</time>
      </trkpt>
      <trkpt lat="45.95102" lon="4.88424">
        <ele>291</ele>
        <time>2017-08-25T09:55:05Z</time>
      </trkpt>
      <trkpt lat="45.95102" lon="4.8842">
        <ele>291</ele>
        <time>2017-08-25T09:55:06Z</time>
      </trkpt>
      <trkpt lat="45.95104" lon="4.8841">
        <ele>290</ele>
        <time>2017-08-25T09:55:08Z</time>
      </trkpt>
      <trkpt lat="45.95104" lon="4.88404">
        <ele>290</ele>
        <time>2017-08-25T09:55:09Z</time>
      </trkpt>
      <trkpt lat="45.95107" lon="4.88394">
        <ele>291</ele>
        <time>2017-08-25T09:55:11Z</time>
      </trkpt>
      <trkpt lat="45.9511" lon="4.88388">
        <ele>291</ele>
        <time>2017-08-25T09:55:12Z</time>
      </trkpt>
      <trkpt lat="45.95112" lon="4.88377">
        <ele>291</ele>
        <time>2017-08-25T09:55:14Z</time>
      </trkpt>
      <trkpt lat="45.95113" lon="4.88371">
        <ele>290</ele>
        <time>2017-08-25T09:55:15Z</time>
      </trkpt>
      <trkpt lat="45.95114" lon="4.8836">
        <ele>290</ele>
        <time>2017-08-25T09:55:17Z</time>
      </trkpt>
      <trkpt lat="45.95116" lon="4.88354">
        <ele>290</ele>
        <time>2017-08-25T09:55:18Z</time>
      </trkpt>
      <trkpt lat="45.95117" lon="4.88348">
        <ele>290</ele>
        <time>2017-08-25T09:55:19Z</time>
      </trkpt>
      <trkpt lat="45.95119" lon="4.88341">
        <ele>290</ele>
        <time>2017-08-25T09:55:20Z</time>
      </trkpt>
      <trkpt lat="45.95121" lon="4.88334">
        <ele>290</ele>
        <time>2017-08-25T09:55:21Z</time>
      </trkpt>
      <trkpt lat="45.95122" lon="4.88327">
        <ele>289</ele>
        <time>2017-08-25T09:55:22Z</time>
      </trkpt>
      <trkpt lat="45.95123" lon="4.88319">
        <ele>289</ele>
        <time>2017-08-25T09:55:23Z</time>
      </trkpt>
      <trkpt lat="45.95124" lon="4.88312">
        <ele>289</ele>
        <time>2017-08-25T09:55:24Z</time>
      </trkpt>
      <trkpt lat="45.95126" lon="4.88304">
        <ele>289</ele>
        <time>2017-08-25T09:55:25Z</time>
      </trkpt>
      <trkpt lat="45.95127" lon="4.88296">
        <ele>289</ele>
        <time>2017-08-25T09:55:26Z</time>
      </trkpt>
      <trkpt lat="45.95127" lon="4.88288">
        <ele>289</ele>
        <time>2017-08-25T09:55:27Z</time>
      </trkpt>
      <trkpt lat="45.95128" lon="4.8828">
        <ele>289</ele>
        <time>2017-08-25T09:55:28Z</time>
      </trkpt>
      <trkpt lat="45.95128" lon="4.88271">
        <ele>289</ele>
        <time>2017-08-25T09:55:29Z</time>
      </trkpt>
      <trkpt lat="45.95128" lon="4.88263">
        <ele>289</ele>
        <time>2017-08-25T09:55:30Z</time>
      </trkpt>
      <trkpt lat="45.95127" lon="4.88255">
        <ele>289</ele>
        <time>2017-08-25T09:55:31Z</time>
      </trkpt>
      <trkpt lat="45.95127" lon="4.88248">
        <ele>287</ele>
        <time>2017-08-25T09:55:32Z</time>
      </trkpt>
      <trkpt lat="45.95127" lon="4.88241">
        <ele>287</ele>
        <time>2017-08-25T09:55:33Z</time>
      </trkpt>
      <trkpt lat="45.95126" lon="4.88234">
        <ele>287</ele>
        <time>2017-08-25T09:55:34Z</time>
      </trkpt>
      <trkpt lat="45.95126" lon="4.88226">
        <ele>287</ele>
        <time>2017-08-25T09:55:35Z</time>
      </trkpt>
      <trkpt lat="45.95127" lon="4.88218">
        <ele>287</ele>
        <time>2017-08-25T09:55:36Z</time>
      </trkpt>
      <trkpt lat="45.95128" lon="4.88211">
        <ele>287</ele>
        <time>2017-08-25T09:55:37Z</time>
      </trkpt>
      <trkpt lat="45.95131" lon="4.88203">
        <ele>287</ele>
        <time>2017-08-25T09:55:38Z</time>
      </trkpt>
      <trkpt lat="45.95135" lon="4.88197">
        <ele>287</ele>
        <time>2017-08-25T09:55:39Z</time>
      </trkpt>
      <trkpt lat="45.9514" lon="4.88191">
        <ele>286</ele>
        <time>2017-08-25T09:55:40Z</time>
      </trkpt>
      <trkpt lat="45.95144" lon="4.88185">
        <ele>286</ele>
        <time>2017-08-25T09:55:41Z</time>
      </trkpt>
      <trkpt lat="45.95149" lon="4.88181">
        <ele>286</ele>
        <time>2017-08-25T09:55:42Z</time>
      </trkpt>
      <trkpt lat="45.95155" lon="4.88178">
        <ele>286</ele>
        <time>2017-08-25T09:55:43Z</time>
      </trkpt>
      <trkpt lat="45.9516" lon="4.88172">
        <ele>286</ele>
        <time>2017-08-25T09:55:44Z</time>
      </trkpt>
      <trkpt lat="45.95165" lon="4.88167">
        <ele>285</ele>
        <time>2017-08-25T09:55:45Z</time>
      </trkpt>
      <trkpt lat="45.95169" lon="4.8816">
        <ele>284</ele>
        <time>2017-08-25T09:55:46Z</time>
      </trkpt>
      <trkpt lat="45.95171" lon="4.88152">
        <ele>284</ele>
        <time>2017-08-25T09:55:47Z</time>
      </trkpt>
      <trkpt lat="45.95173" lon="4.88143">
        <ele>283</ele>
        <time>2017-08-25T09:55:48Z</time>
      </trkpt>
      <trkpt lat="45.95175" lon="4.88135">
        <ele>283</ele>
        <time>2017-08-25T09:55:49Z</time>
      </trkpt>
      <trkpt lat="45.95177" lon="4.88127">
        <ele>282</ele>
        <time>2017-08-25T09:55:50Z</time>
      </trkpt>
      <trkpt lat="45.95179" lon="4.88119">
        <ele>282</ele>
        <time>2017-08-25T09:55:51Z</time>
      </trkpt>
      <trkpt lat="45.95181" lon="4.88111">
        <ele>282</ele>
        <time>2017-08-25T09:55:52Z</time>
      </trkpt>
      <trkpt lat="45.95183" lon="4.88102">
        <ele>282</ele>
        <time>2017-08-25T09:55:53Z</time>
      </trkpt>
      <trkpt lat="45.95184" lon="4.88094">
        <ele>282</ele>
        <time>2017-08-25T09:55:54Z</time>
      </trkpt>
      <trkpt lat="45.95186" lon="4.88086">
        <ele>282</ele>
        <time>2017-08-25T09:55:55Z</time>
      </trkpt>
      <trkpt lat="45.95188" lon="4.88077">
        <ele>281</ele>
        <time>2017-08-25T09:55:56Z</time>
      </trkpt>
      <trkpt lat="45.9519" lon="4.8807">
        <ele>281</ele>
        <time>2017-08-25T09:55:57Z</time>
      </trkpt>
      <trkpt lat="45.95192" lon="4.88061">
        <ele>281</ele>
        <time>2017-08-25T09:55:58Z</time>
      </trkpt>
      <trkpt lat="45.95196" lon="4.88054">
        <ele>281</ele>
        <time>2017-08-25T09:55:59Z</time>
      </trkpt>
      <trkpt lat="45.95199" lon="4.88047">
        <ele>281</ele>
        <time>2017-08-25T09:56:00Z</time>
      </trkpt>
      <trkpt lat="45.95203" lon="4.8804">
        <ele>281</ele>
        <time>2017-08-25T09:56:01Z</time>
      </trkpt>
      <trkpt lat="45.95207" lon="4.88034">
        <ele>281</ele>
        <time>2017-08-25T09:56:02Z</time>
      </trkpt>
      <trkpt lat="45.95211" lon="4.88028">
        <ele>281</ele>
        <time>2017-08-25T09:56:03Z</time>
      </trkpt>
      <trkpt lat="45.95215" lon="4.88022">
        <ele>281</ele>
        <time>2017-08-25T09:56:04Z</time>
      </trkpt>
      <trkpt lat="45.95219" lon="4.88016">
        <ele>281</ele>
        <time>2017-08-25T09:56:05Z</time>
      </trkpt>
      <trkpt lat="45.95223" lon="4.88011">
        <ele>281</ele>
        <time>2017-08-25T09:56:06Z</time>
      </trkpt>
      <trkpt lat="45.95226" lon="4.88006">
        <ele>281</ele>
        <time>2017-08-25T09:56:07Z</time>
      </trkpt>
      <trkpt lat="45.9523" lon="4.88001">
        <ele>280</ele>
        <time>2017-08-25T09:56:08Z</time>
      </trkpt>
      <trkpt lat="45.95234" lon="4.87996">
        <ele>281</ele>
        <time>2017-08-25T09:56:09Z</time>
      </trkpt>
      <trkpt lat="45.95237" lon="4.8799">
        <ele>281</ele>
        <time>2017-08-25T09:56:10Z</time>
      </trkpt>
      <trkpt lat="45.95241" lon="4.87984">
        <ele>281</ele>
        <time>2017-08-25T09:56:11Z</time>
      </trkpt>
      <trkpt lat="45.95245" lon="4.87978">
        <ele>282</ele>
        <time>2017-08-25T09:56:12Z</time>
      </trkpt>
      <trkpt lat="45.95249" lon="4.87971">
        <ele>282</ele>
        <time>2017-08-25T09:56:13Z</time>
      </trkpt>
      <trkpt lat="45.95252" lon="4.87966">
        <ele>280</ele>
        <time>2017-08-25T09:56:14Z</time>
      </trkpt>
      <trkpt lat="45.95255" lon="4.87959">
        <ele>280</ele>
        <time>2017-08-25T09:56:15Z</time>
      </trkpt>
      <trkpt lat="45.95257" lon="4.87952">
        <ele>280</ele>
        <time>2017-08-25T09:56:16Z</time>
      </trkpt>
      <trkpt lat="45.95259" lon="4.87944">
        <ele>280</ele>
        <time>2017-08-25T09:56:17Z</time>
      </trkpt>
      <trkpt lat="45.95261" lon="4.87937">
        <ele>280</ele>
        <time>2017-08-25T09:56:18Z</time>
      </trkpt>
      <trkpt lat="45.95263" lon="4.87928">
        <ele>281</ele>
        <time>2017-08-25T09:56:19Z</time>
      </trkpt>
      <trkpt lat="45.95263" lon="4.8792">
        <ele>281</ele>
        <time>2017-08-25T09:56:20Z</time>
      </trkpt>
      <trkpt lat="45.95263" lon="4.87911">
        <ele>281</ele>
        <time>2017-08-25T09:56:21Z</time>
      </trkpt>
      <trkpt lat="45.95262" lon="4.87903">
        <ele>281</ele>
        <time>2017-08-25T09:56:22Z</time>
      </trkpt>
      <trkpt lat="45.9526" lon="4.87895">
        <ele>281</ele>
        <time>2017-08-25T09:56:23Z</time>
      </trkpt>
      <trkpt lat="45.95258" lon="4.87887">
        <ele>281</ele>
        <time>2017-08-25T09:56:24Z</time>
      </trkpt>
      <trkpt lat="45.95256" lon="4.87879">
        <ele>281</ele>
        <time>2017-08-25T09:56:25Z</time>
      </trkpt>
      <trkpt lat="45.95254" lon="4.87872">
        <ele>281</ele>
        <time>2017-08-25T09:56:26Z</time>
      </trkpt>
      <trkpt lat="45.95252" lon="4.87865">
        <ele>281</ele>
        <time>2017-08-25T09:56:27Z</time>
      </trkpt>
      <trkpt lat="45.95251" lon="4.87858">
        <ele>281</ele>
        <time>2017-08-25T09:56:28Z</time>
      </trkpt>
      <trkpt lat="45.95251" lon="4.87851">
        <ele>281</ele>
        <time>2017-08-25T09:56:29Z</time>
      </trkpt>
      <trkpt lat="45.95249" lon="4.87844">
        <ele>283</ele>
        <time>2017-08-25T09:56:30Z</time>
      </trkpt>
      <trkpt lat="45.95249" lon="4.87837">
        <ele>282</ele>
        <time>2017-08-25T09:56:31Z</time>
      </trkpt>
      <trkpt lat="45.95248" lon="4.87829">
        <ele>282</ele>
        <time>2017-08-25T09:56:32Z</time>
      </trkpt>
      <trkpt lat="45.95248" lon="4.87822">
        <ele>282</ele>
        <time>2017-08-25T09:56:33Z</time>
      </trkpt>
      <trkpt lat="45.95247" lon="4.87814">
        <ele>282</ele>
        <time>2017-08-25T09:56:34Z</time>
      </trkpt>
      <trkpt lat="45.95246" lon="4.87806">
        <ele>282</ele>
        <time>2017-08-25T09:56:35Z</time>
      </trkpt>
      <trkpt lat="45.95244" lon="4.87798">
        <ele>282</ele>
        <time>2017-08-25T09:56:36Z</time>
      </trkpt>
      <trkpt lat="45.95243" lon="4.87789">
        <ele>282</ele>
        <time>2017-08-25T09:56:37Z</time>
      </trkpt>
      <trkpt lat="45.95241" lon="4.87779">
        <ele>282</ele>
        <time>2017-08-25T09:56:38Z</time>
      </trkpt>
      <trkpt lat="45.95239" lon="4.8777">
        <ele>282</ele>
        <time>2017-08-25T09:56:39Z</time>
      </trkpt>
      <trkpt lat="45.95238" lon="4.87761">
        <ele>281</ele>
        <time>2017-08-25T09:56:40Z</time>
      </trkpt>
      <trkpt lat="45.95235" lon="4.87752">
        <ele>281</ele>
        <time>2017-08-25T09:56:41Z</time>
      </trkpt>
      <trkpt lat="45.95234" lon="4.87743">
        <ele>280</ele>
        <time>2017-08-25T09:56:42Z</time>
      </trkpt>
      <trkpt lat="45.95232" lon="4.87734">
        <ele>280</ele>
        <time>2017-08-25T09:56:43Z</time>
      </trkpt>
      <trkpt lat="45.9523" lon="4.87726">
        <ele>280</ele>
        <time>2017-08-25T09:56:44Z</time>
      </trkpt>
      <trkpt lat="45.95229" lon="4.87718">
        <ele>279</ele>
        <time>2017-08-25T09:56:45Z</time>
      </trkpt>
      <trkpt lat="45.95229" lon="4.8771">
        <ele>279</ele>
        <time>2017-08-25T09:56:46Z</time>
      </trkpt>
      <trkpt lat="45.95227" lon="4.877">
        <ele>279</ele>
        <time>2017-08-25T09:56:47Z</time>
      </trkpt>
      <trkpt lat="45.95228" lon="4.87691">
        <ele>279</ele>
        <time>2017-08-25T09:56:48Z</time>
      </trkpt>
      <trkpt lat="45.95227" lon="4.87681">
        <ele>278</ele>
        <time>2017-08-25T09:56:49Z</time>
      </trkpt>
      <trkpt lat="45.95226" lon="4.87671">
        <ele>278</ele>
        <time>2017-08-25T09:56:50Z</time>
      </trkpt>
      <trkpt lat="45.95224" lon="4.8766">
        <ele>276</ele>
        <time>2017-08-25T09:56:51Z</time>
      </trkpt>
      <trkpt lat="45.95222" lon="4.87648">
        <ele>276</ele>
        <time>2017-08-25T09:56:52Z</time>
      </trkpt>
      <trkpt lat="45.95221" lon="4.87638">
        <ele>276</ele>
        <time>2017-08-25T09:56:53Z</time>
      </trkpt>
      <trkpt lat="45.95219" lon="4.87626">
        <ele>276</ele>
        <time>2017-08-25T09:56:54Z</time>
      </trkpt>
      <trkpt lat="45.95217" lon="4.87615">
        <ele>276</ele>
        <time>2017-08-25T09:56:55Z</time>
      </trkpt>
      <trkpt lat="45.95217" lon="4.87603">
        <ele>276</ele>
        <time>2017-08-25T09:56:56Z</time>
      </trkpt>
      <trkpt lat="45.95216" lon="4.87591">
        <ele>276</ele>
        <time>2017-08-25T09:56:57Z</time>
      </trkpt>
      <trkpt lat="45.95215" lon="4.87579">
        <ele>274</ele>
        <time>2017-08-25T09:56:58Z</time>
      </trkpt>
      <trkpt lat="45.95213" lon="4.87567">
        <ele>274</ele>
        <time>2017-08-25T09:56:59Z</time>
      </trkpt>
      <trkpt lat="45.95212" lon="4.87555">
        <ele>274</ele>
        <time>2017-08-25T09:57:00Z</time>
      </trkpt>
      <trkpt lat="45.95211" lon="4.87542">
        <ele>274</ele>
        <time>2017-08-25T09:57:01Z</time>
      </trkpt>
      <trkpt lat="45.95209" lon="4.8753">
        <ele>274</ele>
        <time>2017-08-25T09:57:02Z</time>
      </trkpt>
      <trkpt lat="45.95206" lon="4.87518">
        <ele>273</ele>
        <time>2017-08-25T09:57:03Z</time>
      </trkpt>
      <trkpt lat="45.95204" lon="4.87506">
        <ele>273</ele>
        <time>2017-08-25T09:57:04Z</time>
      </trkpt>
      <trkpt lat="45.95202" lon="4.87495">
        <ele>272</ele>
        <time>2017-08-25T09:57:05Z</time>
      </trkpt>
      <trkpt lat="45.952" lon="4.87484">
        <ele>272</ele>
        <time>2017-08-25T09:57:06Z</time>
      </trkpt>
      <trkpt lat="45.95197" lon="4.87473">
        <ele>272</ele>
        <time>2017-08-25T09:57:07Z</time>
      </trkpt>
      <trkpt lat="45.95195" lon="4.87462">
        <ele>272</ele>
        <time>2017-08-25T09:57:08Z</time>
      </trkpt>
      <trkpt lat="45.95192" lon="4.87451">
        <ele>272</ele>
        <time>2017-08-25T09:57:09Z</time>
      </trkpt>
      <trkpt lat="45.9519" lon="4.87441">
        <ele>272</ele>
        <time>2017-08-25T09:57:10Z</time>
      </trkpt>
      <trkpt lat="45.95187" lon="4.87431">
        <ele>271</ele>
        <time>2017-08-25T09:57:11Z</time>
      </trkpt>
      <trkpt lat="45.95185" lon="4.87422">
        <ele>271</ele>
        <time>2017-08-25T09:57:12Z</time>
      </trkpt>
      <trkpt lat="45.95183" lon="4.87413">
        <ele>271</ele>
        <time>2017-08-25T09:57:13Z</time>
      </trkpt>
      <trkpt lat="45.95181" lon="4.87404">
        <ele>271</ele>
        <time>2017-08-25T09:57:14Z</time>
      </trkpt>
      <trkpt lat="45.95178" lon="4.87397">
        <ele>271</ele>
        <time>2017-08-25T09:57:15Z</time>
      </trkpt>
      <trkpt lat="45.95176" lon="4.87389">
        <ele>271</ele>
        <time>2017-08-25T09:57:16Z</time>
      </trkpt>
      <trkpt lat="45.95174" lon="4.87381">
        <ele>271</ele>
        <time>2017-08-25T09:57:17Z</time>
      </trkpt>
      <trkpt lat="45.95172" lon="4.87373">
        <ele>271</ele>
        <time>2017-08-25T09:57:18Z</time>
      </trkpt>
      <trkpt lat="45.95169" lon="4.87366">
        <ele>271</ele>
        <time>2017-08-25T09:57:19Z</time>
      </trkpt>
      <trkpt lat="45.95167" lon="4.87359">
        <ele>272</ele>
        <time>2017-08-25T09:57:20Z</time>
      </trkpt>
      <trkpt lat="45.95165" lon="4.87352">
        <ele>272</ele>
        <time>2017-08-25T09:57:21Z</time>
      </trkpt>
      <trkpt lat="45.95164" lon="4.87344">
        <ele>272</ele>
        <time>2017-08-25T09:57:22Z</time>
      </trkpt>
      <trkpt lat="45.95163" lon="4.87337">
        <ele>271</ele>
        <time>2017-08-25T09:57:23Z</time>
      </trkpt>
      <trkpt lat="45.95162" lon="4.8733">
        <ele>272</ele>
        <time>2017-08-25T09:57:24Z</time>
      </trkpt>
      <trkpt lat="45.95161" lon="4.87323">
        <ele>272</ele>
        <time>2017-08-25T09:57:25Z</time>
      </trkpt>
      <trkpt lat="45.95159" lon="4.87315">
        <ele>273</ele>
        <time>2017-08-25T09:57:26Z</time>
      </trkpt>
      <trkpt lat="45.95157" lon="4.87308">
        <ele>273</ele>
        <time>2017-08-25T09:57:27Z</time>
      </trkpt>
      <trkpt lat="45.95156" lon="4.873">
        <ele>274</ele>
        <time>2017-08-25T09:57:28Z</time>
      </trkpt>
      <trkpt lat="45.95154" lon="4.87291">
        <ele>274</ele>
        <time>2017-08-25T09:57:29Z</time>
      </trkpt>
      <trkpt lat="45.95153" lon="4.87283">
        <ele>274</ele>
        <time>2017-08-25T09:57:30Z</time>
      </trkpt>
      <trkpt lat="45.95151" lon="4.87275">
        <ele>274</ele>
        <time>2017-08-25T09:57:31Z</time>
      </trkpt>
      <trkpt lat="45.95149" lon="4.87267">
        <ele>274</ele>
        <time>2017-08-25T09:57:32Z</time>
      </trkpt>
      <trkpt lat="45.95147" lon="4.87258">
        <ele>274</ele>
        <time>2017-08-25T09:57:33Z</time>
      </trkpt>
      <trkpt lat="45.95145" lon="4.8725">
        <ele>274</ele>
        <time>2017-08-25T09:57:34Z</time>
      </trkpt>
      <trkpt lat="45.95143" lon="4.87242">
        <ele>275</ele>
        <time>2017-08-25T09:57:35Z</time>
      </trkpt>
      <trkpt lat="45.95142" lon="4.87234">
        <ele>275</ele>
        <time>2017-08-25T09:57:36Z</time>
      </trkpt>
      <trkpt lat="45.9514" lon="4.87225">
        <ele>276</ele>
        <time>2017-08-25T09:57:37Z</time>
      </trkpt>
      <trkpt lat="45.95138" lon="4.87216">
        <ele>276</ele>
        <time>2017-08-25T09:57:38Z</time>
      </trkpt>
      <trkpt lat="45.95136" lon="4.87207">
        <ele>276</ele>
        <time>2017-08-25T09:57:39Z</time>
      </trkpt>
      <trkpt lat="45.95134" lon="4.87199">
        <ele>276</ele>
        <time>2017-08-25T09:57:40Z</time>
      </trkpt>
      <trkpt lat="45.95132" lon="4.87191">
        <ele>276</ele>
        <time>2017-08-25T09:57:41Z</time>
      </trkpt>
      <trkpt lat="45.95131" lon="4.87183">
        <ele>276</ele>
        <time>2017-08-25T09:57:42Z</time>
      </trkpt>
      <trkpt lat="45.9513" lon="4.87175">
        <ele>276</ele>
        <time>2017-08-25T09:57:43Z</time>
      </trkpt>
      <trkpt lat="45.95128" lon="4.87167">
        <ele>276</ele>
        <time>2017-08-25T09:57:44Z</time>
      </trkpt>
      <trkpt lat="45.95127" lon="4.87159">
        <ele>276</ele>
        <time>2017-08-25T09:57:45Z</time>
      </trkpt>
      <trkpt lat="45.95125" lon="4.8715">
        <ele>276</ele>
        <time>2017-08-25T09:57:46Z</time>
      </trkpt>
      <trkpt lat="45.95124" lon="4.87142">
        <ele>276</ele>
        <time>2017-08-25T09:57:47Z</time>
      </trkpt>
      <trkpt lat="45.95122" lon="4.87135">
        <ele>276</ele>
        <time>2017-08-25T09:57:48Z</time>
      </trkpt>
      <trkpt lat="45.95121" lon="4.87128">
        <ele>276</ele>
        <time>2017-08-25T09:57:49Z</time>
      </trkpt>
      <trkpt lat="45.95119" lon="4.87122">
        <ele>276</ele>
        <time>2017-08-25T09:57:50Z</time>
      </trkpt>
      <trkpt lat="45.95115" lon="4.87111">
        <ele>276</ele>
        <time>2017-08-25T09:57:52Z</time>
      </trkpt>
      <trkpt lat="45.95113" lon="4.87105">
        <ele>277</ele>
        <time>2017-08-25T09:57:53Z</time>
      </trkpt>
      <trkpt lat="45.95111" lon="4.87099">
        <ele>277</ele>
        <time>2017-08-25T09:57:54Z</time>
      </trkpt>
      <trkpt lat="45.95109" lon="4.87092">
        <ele>277</ele>
        <time>2017-08-25T09:57:55Z</time>
      </trkpt>
      <trkpt lat="45.95107" lon="4.87085">
        <ele>277</ele>
        <time>2017-08-25T09:57:56Z</time>
      </trkpt>
      <trkpt lat="45.95105" lon="4.87079">
        <ele>277</ele>
        <time>2017-08-25T09:57:57Z</time>
      </trkpt>
      <trkpt lat="45.951" lon="4.87069">
        <ele>277</ele>
        <time>2017-08-25T09:57:59Z</time>
      </trkpt>
      <trkpt lat="45.95099" lon="4.87065">
        <ele>277</ele>
        <time>2017-08-25T09:58:00Z</time>
      </trkpt>
      <trkpt lat="45.95094" lon="4.87055">
        <ele>277</ele>
        <time>2017-08-25T09:58:02Z</time>
      </trkpt>
      <trkpt lat="45.95093" lon="4.87051">
        <ele>277</ele>
        <time>2017-08-25T09:58:03Z</time>
      </trkpt>
      <trkpt lat="45.95088" lon="4.87041">
        <ele>277</ele>
        <time>2017-08-25T09:58:05Z</time>
      </trkpt>
      <trkpt lat="45.95085" lon="4.87036">
        <ele>277</ele>
        <time>2017-08-25T09:58:06Z</time>
      </trkpt>
      <trkpt lat="45.95082" lon="4.87031">
        <ele>277</ele>
        <time>2017-08-25T09:58:07Z</time>
      </trkpt>
      <trkpt lat="45.95079" lon="4.87026">
        <ele>277</ele>
        <time>2017-08-25T09:58:08Z</time>
      </trkpt>
      <trkpt lat="45.95075" lon="4.87015">
        <ele>277</ele>
        <time>2017-08-25T09:58:10Z</time>
      </trkpt>
      <trkpt lat="45.95072" lon="4.87009">
        <ele>277</ele>
        <time>2017-08-25T09:58:11Z</time>
      </trkpt>
      <trkpt lat="45.95068" lon="4.87003">
        <ele>277</ele>
        <time>2017-08-25T09:58:12Z</time>
      </trkpt>
      <trkpt lat="45.95064" lon="4.86996">
        <ele>277</ele>
        <time>2017-08-25T09:58:13Z</time>
      </trkpt>
      <trkpt lat="45.95062" lon="4.8699">
        <ele>276</ele>
        <time>2017-08-25T09:58:14Z</time>
      </trkpt>
      <trkpt lat="45.9506" lon="4.86983">
        <ele>276</ele>
        <time>2017-08-25T09:58:15Z</time>
      </trkpt>
      <trkpt lat="45.95057" lon="4.86975">
        <ele>276</ele>
        <time>2017-08-25T09:58:16Z</time>
      </trkpt>
      <trkpt lat="45.95054" lon="4.86968">
        <ele>276</ele>
        <time>2017-08-25T09:58:17Z</time>
      </trkpt>
      <trkpt lat="45.9505" lon="4.8696">
        <ele>276</ele>
        <time>2017-08-25T09:58:18Z</time>
      </trkpt>
      <trkpt lat="45.95048" lon="4.86953">
        <ele>276</ele>
        <time>2017-08-25T09:58:19Z</time>
      </trkpt>
      <trkpt lat="45.95047" lon="4.86947">
        <ele>276</ele>
        <time>2017-08-25T09:58:20Z</time>
      </trkpt>
      <trkpt lat="45.95045" lon="4.86941">
        <ele>276</ele>
        <time>2017-08-25T09:58:21Z</time>
      </trkpt>
      <trkpt lat="45.95044" lon="4.86935">
        <ele>276</ele>
        <time>2017-08-25T09:58:22Z</time>
      </trkpt>
      <trkpt lat="45.95041" lon="4.86929">
        <ele>276</ele>
        <time>2017-08-25T09:58:23Z</time>
      </trkpt>
      <trkpt lat="45.95039" lon="4.86923">
        <ele>276</ele>
        <time>2017-08-25T09:58:24Z</time>
      </trkpt>
      <trkpt lat="45.95037" lon="4.86917">
        <ele>275</ele>
        <time>2017-08-25T09:58:25Z</time>
      </trkpt>
      <trkpt lat="45.95035" lon="4.86905">
        <ele>275</ele>
        <time>2017-08-25T09:58:27Z</time>
      </trkpt>
      <trkpt lat="45.95033" lon="4.86899">
        <ele>275</ele>
        <time>2017-08-25T09:58:28Z</time>
      </trkpt>
      <trkpt lat="45.95028" lon="4.86888">
        <ele>275</ele>
        <time>2017-08-25T09:58:30Z</time>
      </trkpt>
      <trkpt lat="45.95026" lon="4.86881">
        <ele>275</ele>
        <time>2017-08-25T09:58:31Z</time>
      </trkpt>
      <trkpt lat="45.95024" lon="4.86874">
        <ele>275</ele>
        <time>2017-08-25T09:58:32Z</time>
      </trkpt>
      <trkpt lat="45.95022" lon="4.86867">
        <ele>275</ele>
        <time>2017-08-25T09:58:33Z</time>
      </trkpt>
      <trkpt lat="45.9502" lon="4.8686">
        <ele>275</ele>
        <time>2017-08-25T09:58:34Z</time>
      </trkpt>
      <trkpt lat="45.95018" lon="4.86853">
        <ele>275</ele>
        <time>2017-08-25T09:58:35Z</time>
      </trkpt>
      <trkpt lat="45.95016" lon="4.86847">
        <ele>275</ele>
        <time>2017-08-25T09:58:36Z</time>
      </trkpt>
      <trkpt lat="45.95014" lon="4.86841">
        <ele>275</ele>
        <time>2017-08-25T09:58:37Z</time>
      </trkpt>
      <trkpt lat="45.9501" lon="4.86831">
        <ele>275</ele>
        <time>2017-08-25T09:58:39Z</time>
      </trkpt>
      <trkpt lat="45.95008" lon="4.86825">
        <ele>275</ele>
        <time>2017-08-25T09:58:40Z</time>
      </trkpt>
      <trkpt lat="45.95005" lon="4.8682">
        <ele>275</ele>
        <time>2017-08-25T09:58:41Z</time>
      </trkpt>
      <trkpt lat="45.95002" lon="4.86815">
        <ele>275</ele>
        <time>2017-08-25T09:58:42Z</time>
      </trkpt>
      <trkpt lat="45.94999" lon="4.86809">
        <ele>276</ele>
        <time>2017-08-25T09:58:43Z</time>
      </trkpt>
      <trkpt lat="45.94997" lon="4.86804">
        <ele>276</ele>
        <time>2017-08-25T09:58:44Z</time>
      </trkpt>
      <trkpt lat="45.94994" lon="4.86798">
        <ele>276</ele>
        <time>2017-08-25T09:58:45Z</time>
      </trkpt>
      <trkpt lat="45.94991" lon="4.86792">
        <ele>276</ele>
        <time>2017-08-25T09:58:46Z</time>
      </trkpt>
      <trkpt lat="45.94987" lon="4.86787">
        <ele>275</ele>
        <time>2017-08-25T09:58:47Z</time>
      </trkpt>
      <trkpt lat="45.94985" lon="4.86781">
        <ele>275</ele>
        <time>2017-08-25T09:58:48Z</time>
      </trkpt>
      <trkpt lat="45.94982" lon="4.86775">
        <ele>275</ele>
        <time>2017-08-25T09:58:49Z</time>
      </trkpt>
      <trkpt lat="45.94978" lon="4.86769">
        <ele>275</ele>
        <time>2017-08-25T09:58:50Z</time>
      </trkpt>
      <trkpt lat="45.94975" lon="4.86763">
        <ele>275</ele>
        <time>2017-08-25T09:58:51Z</time>
      </trkpt>
      <trkpt lat="45.94972" lon="4.86757">
        <ele>275</ele>
        <time>2017-08-25T09:58:52Z</time>
      </trkpt>
      <trkpt lat="45.94968" lon="4.86752">
        <ele>275</ele>
        <time>2017-08-25T09:58:53Z</time>
      </trkpt>
      <trkpt lat="45.94965" lon="4.86746">
        <ele>275</ele>
        <time>2017-08-25T09:58:54Z</time>
      </trkpt>
      <trkpt lat="45.94963" lon="4.86741">
        <ele>275</ele>
        <time>2017-08-25T09:58:55Z</time>
      </trkpt>
      <trkpt lat="45.9496" lon="4.86735">
        <ele>275</ele>
        <time>2017-08-25T09:58:56Z</time>
      </trkpt>
      <trkpt lat="45.94958" lon="4.86729">
        <ele>275</ele>
        <time>2017-08-25T09:58:57Z</time>
      </trkpt>
      <trkpt lat="45.94956" lon="4.86722">
        <ele>275</ele>
        <time>2017-08-25T09:58:58Z</time>
      </trkpt>
      <trkpt lat="45.94954" lon="4.86715">
        <ele>275</ele>
        <time>2017-08-25T09:58:59Z</time>
      </trkpt>
      <trkpt lat="45.94953" lon="4.86709">
        <ele>275</ele>
        <time>2017-08-25T09:59:00Z</time>
      </trkpt>
      <trkpt lat="45.94951" lon="4.86703">
        <ele>275</ele>
        <time>2017-08-25T09:59:01Z</time>
      </trkpt>
      <trkpt lat="45.9495" lon="4.86696">
        <ele>275</ele>
        <time>2017-08-25T09:59:02Z</time>
      </trkpt>
      <trkpt lat="45.94948" lon="4.86684">
        <ele>276</ele>
        <time>2017-08-25T09:59:04Z</time>
      </trkpt>
      <trkpt lat="45.94948" lon="4.86677">
        <ele>276</ele>
        <time>2017-08-25T09:59:05Z</time>
      </trkpt>
      <trkpt lat="45.94948" lon="4.8667">
        <ele>276</ele>
        <time>2017-08-25T09:59:06Z</time>
      </trkpt>
      <trkpt lat="45.94948" lon="4.86664">
        <ele>276</ele>
        <time>2017-08-25T09:59:07Z</time>
      </trkpt>
      <trkpt lat="45.9495" lon="4.86652">
        <ele>276</ele>
        <time>2017-08-25T09:59:09Z</time>
      </trkpt>
      <trkpt lat="45.94952" lon="4.86646">
        <ele>276</ele>
        <time>2017-08-25T09:59:10Z</time>
      </trkpt>
      <trkpt lat="45.94957" lon="4.86636">
        <ele>276</ele>
        <time>2017-08-25T09:59:12Z</time>
      </trkpt>
      <trkpt lat="45.9496" lon="4.86631">
        <ele>275</ele>
        <time>2017-08-25T09:59:13Z</time>
      </trkpt>
      <trkpt lat="45.94967" lon="4.86625">
        <ele>275</ele>
        <time>2017-08-25T09:59:15Z</time>
      </trkpt>
      <trkpt lat="45.94971" lon="4.86624">
        <ele>275</ele>
        <time>2017-08-25T09:59:16Z</time>
      </trkpt>
      <trkpt lat="45.94976" lon="4.86623">
        <ele>275</ele>
        <time>2017-08-25T09:59:17Z</time>
      </trkpt>
      <trkpt lat="45.9498" lon="4.86622">
        <ele>275</ele>
        <time>2017-08-25T09:59:18Z</time>
      </trkpt>
      <trkpt lat="45.94985" lon="4.86621">
        <ele>275</ele>
        <time>2017-08-25T09:59:19Z</time>
      </trkpt>
      <trkpt lat="45.9499" lon="4.86619">
        <ele>275</ele>
        <time>2017-08-25T09:59:20Z</time>
      </trkpt>
      <trkpt lat="45.94995" lon="4.86619">
        <ele>275</ele>
        <time>2017-08-25T09:59:21Z</time>
      </trkpt>
      <trkpt lat="45.95001" lon="4.86618">
        <ele>273</ele>
        <time>2017-08-25T09:59:22Z</time>
      </trkpt>
      <trkpt lat="45.95006" lon="4.86617">
        <ele>273</ele>
        <time>2017-08-25T09:59:23Z</time>
      </trkpt>
      <trkpt lat="45.95012" lon="4.86615">
        <ele>273</ele>
        <time>2017-08-25T09:59:24Z</time>
      </trkpt>
      <trkpt lat="45.95018" lon="4.86614">
        <ele>273</ele>
        <time>2017-08-25T09:59:25Z</time>
      </trkpt>
      <trkpt lat="45.95024" lon="4.86612">
        <ele>273</ele>
        <time>2017-08-25T09:59:26Z</time>
      </trkpt>
      <trkpt lat="45.9503" lon="4.86611">
        <ele>273</ele>
        <time>2017-08-25T09:59:27Z</time>
      </trkpt>
      <trkpt lat="45.95037" lon="4.86609">
        <ele>273</ele>
        <time>2017-08-25T09:59:28Z</time>
      </trkpt>
      <trkpt lat="45.95043" lon="4.86608">
        <ele>272</ele>
        <time>2017-08-25T09:59:29Z</time>
      </trkpt>
      <trkpt lat="45.9505" lon="4.86606">
        <ele>272</ele>
        <time>2017-08-25T09:59:30Z</time>
      </trkpt>
      <trkpt lat="45.95056" lon="4.86604">
        <ele>272</ele>
        <time>2017-08-25T09:59:31Z</time>
      </trkpt>
      <trkpt lat="45.95063" lon="4.86602">
        <ele>272</ele>
        <time>2017-08-25T09:59:32Z</time>
      </trkpt>
      <trkpt lat="45.95071" lon="4.86599">
        <ele>272</ele>
        <time>2017-08-25T09:59:33Z</time>
      </trkpt>
      <trkpt lat="45.95078" lon="4.86596">
        <ele>272</ele>
        <time>2017-08-25T09:59:34Z</time>
      </trkpt>
      <trkpt lat="45.95086" lon="4.86594">
        <ele>271</ele>
        <time>2017-08-25T09:59:35Z</time>
      </trkpt>
      <trkpt lat="45.95093" lon="4.86593">
        <ele>271</ele>
        <time>2017-08-25T09:59:36Z</time>
      </trkpt>
      <trkpt lat="45.95101" lon="4.86592">
        <ele>271</ele>
        <time>2017-08-25T09:59:37Z</time>
      </trkpt>
      <trkpt lat="45.9511" lon="4.8659">
        <ele>271</ele>
        <time>2017-08-25T09:59:38Z</time>
      </trkpt>
      <trkpt lat="45.95118" lon="4.86589">
        <ele>270</ele>
        <time>2017-08-25T09:59:39Z</time>
      </trkpt>
      <trkpt lat="45.95126" lon="4.86587">
        <ele>270</ele>
        <time>2017-08-25T09:59:40Z</time>
      </trkpt>
      <trkpt lat="45.95135" lon="4.86585">
        <ele>270</ele>
        <time>2017-08-25T09:59:41Z</time>
      </trkpt>
      <trkpt lat="45.95144" lon="4.86584">
        <ele>270</ele>
        <time>2017-08-25T09:59:42Z</time>
      </trkpt>
      <trkpt lat="45.95152" lon="4.86583">
        <ele>269</ele>
        <time>2017-08-25T09:59:43Z</time>
      </trkpt>
      <trkpt lat="45.95161" lon="4.86583">
        <ele>269</ele>
        <time>2017-08-25T09:59:44Z</time>
      </trkpt>
      <trkpt lat="45.9517" lon="4.86582">
        <ele>269</ele>
        <time>2017-08-25T09:59:45Z</time>
      </trkpt>
      <trkpt lat="45.95179" lon="4.86581">
        <ele>269</ele>
        <time>2017-08-25T09:59:46Z</time>
      </trkpt>
      <trkpt lat="45.95188" lon="4.86581">
        <ele>269</ele>
        <time>2017-08-25T09:59:47Z</time>
      </trkpt>
      <trkpt lat="45.95196" lon="4.86581">
        <ele>268</ele>
        <time>2017-08-25T09:59:48Z</time>
      </trkpt>
      <trkpt lat="45.95204" lon="4.86581">
        <ele>268</ele>
        <time>2017-08-25T09:59:49Z</time>
      </trkpt>
      <trkpt lat="45.95212" lon="4.86582">
        <ele>268</ele>
        <time>2017-08-25T09:59:50Z</time>
      </trkpt>
      <trkpt lat="45.95221" lon="4.86583">
        <ele>268</ele>
        <time>2017-08-25T09:59:51Z</time>
      </trkpt>
      <trkpt lat="45.95228" lon="4.86585">
        <ele>269</ele>
        <time>2017-08-25T09:59:52Z</time>
      </trkpt>
      <trkpt lat="45.95235" lon="4.86586">
        <ele>269</ele>
        <time>2017-08-25T09:59:53Z</time>
      </trkpt>
      <trkpt lat="45.95241" lon="4.86586">
        <ele>268</ele>
        <time>2017-08-25T09:59:54Z</time>
      </trkpt>
      <trkpt lat="45.95246" lon="4.86586">
        <ele>268</ele>
        <time>2017-08-25T09:59:55Z</time>
      </trkpt>
      <trkpt lat="45.95251" lon="4.86585">
        <ele>268</ele>
        <time>2017-08-25T09:59:56Z</time>
      </trkpt>
      <trkpt lat="45.95255" lon="4.86585">
        <ele>268</ele>
        <time>2017-08-25T09:59:57Z</time>
      </trkpt>
      <trkpt lat="45.95263" lon="4.86582">
        <ele>267</ele>
        <time>2017-08-25T09:59:59Z</time>
      </trkpt>
      <trkpt lat="45.95265" lon="4.86578">
        <ele>267</ele>
        <time>2017-08-25T10:00:00Z</time>
      </trkpt>
      <trkpt lat="45.95266" lon="4.86568">
        <ele>267</ele>
        <time>2017-08-25T10:00:02Z</time>
      </trkpt>
      <trkpt lat="45.95264" lon="4.86564">
        <ele>267</ele>
        <time>2017-08-25T10:00:03Z</time>
      </trkpt>
      <trkpt lat="45.95258" lon="4.86554">
        <ele>267</ele>
        <time>2017-08-25T10:00:05Z</time>
      </trkpt>
      <trkpt lat="45.95254" lon="4.86549">
        <ele>267</ele>
        <time>2017-08-25T10:00:06Z</time>
      </trkpt>
      <trkpt lat="45.95251" lon="4.86543">
        <ele>267</ele>
        <time>2017-08-25T10:00:07Z</time>
      </trkpt>
      <trkpt lat="45.95248" lon="4.86537">
        <ele>268</ele>
        <time>2017-08-25T10:00:08Z</time>
      </trkpt>
      <trkpt lat="45.95245" lon="4.86532">
        <ele>268</ele>
        <time>2017-08-25T10:00:09Z</time>
      </trkpt>
      <trkpt lat="45.95241" lon="4.86527">
        <ele>268</ele>
        <time>2017-08-25T10:00:10Z</time>
      </trkpt>
      <trkpt lat="45.95238" lon="4.86522">
        <ele>268</ele>
        <time>2017-08-25T10:00:11Z</time>
      </trkpt>
      <trkpt lat="45.95235" lon="4.86517">
        <ele>268</ele>
        <time>2017-08-25T10:00:12Z</time>
      </trkpt>
      <trkpt lat="45.95231" lon="4.86514">
        <ele>268</ele>
        <time>2017-08-25T10:00:13Z</time>
      </trkpt>
      <trkpt lat="45.95227" lon="4.86509">
        <ele>268</ele>
        <time>2017-08-25T10:00:14Z</time>
      </trkpt>
      <trkpt lat="45.95223" lon="4.86505">
        <ele>268</ele>
        <time>2017-08-25T10:00:15Z</time>
      </trkpt>
      <trkpt lat="45.95219" lon="4.865">
        <ele>268</ele>
        <time>2017-08-25T10:00:16Z</time>
      </trkpt>
      <trkpt lat="45.95214" lon="4.86495">
        <ele>268</ele>
        <time>2017-08-25T10:00:17Z</time>
      </trkpt>
      <trkpt lat="45.9521" lon="4.8649">
        <ele>268</ele>
        <time>2017-08-25T10:00:18Z</time>
      </trkpt>
      <trkpt lat="45.95205" lon="4.86485">
        <ele>268</ele>
        <time>2017-08-25T10:00:19Z</time>
      </trkpt>
      <trkpt lat="45.95201" lon="4.8648">
        <ele>268</ele>
        <time>2017-08-25T10:00:20Z</time>
      </trkpt>
      <trkpt lat="45.95197" lon="4.86475">
        <ele>268</ele>
        <time>2017-08-25T10:00:21Z</time>
      </trkpt>
      <trkpt lat="45.95191" lon="4.86469">
        <ele>268</ele>
        <time>2017-08-25T10:00:22Z</time>
      </trkpt>
      <trkpt lat="45.95187" lon="4.86465">
        <ele>268</ele>
        <time>2017-08-25T10:00:23Z</time>
      </trkpt>
      <trkpt lat="45.95183" lon="4.8646">
        <ele>268</ele>
        <time>2017-08-25T10:00:24Z</time>
      </trkpt>
      <trkpt lat="45.95179" lon="4.86456">
        <ele>268</ele>
        <time>2017-08-25T10:00:25Z</time>
      </trkpt>
      <trkpt lat="45.95175" lon="4.86451">
        <ele>268</ele>
        <time>2017-08-25T10:00:26Z</time>
      </trkpt>
      <trkpt lat="45.95171" lon="4.86447">
        <ele>268</ele>
        <time>2017-08-25T10:00:27Z</time>
      </trkpt>
      <trkpt lat="45.95167" lon="4.86442">
        <ele>267</ele>
        <time>2017-08-25T10:00:28Z</time>
      </trkpt>
      <trkpt lat="45.95163" lon="4.86438">
        <ele>268</ele>
        <time>2017-08-25T10:00:29Z</time>
      </trkpt>
      <trkpt lat="45.95159" lon="4.86433">
        <ele>268</ele>
        <time>2017-08-25T10:00:30Z</time>
      </trkpt>
      <trkpt lat="45.95156" lon="4.86428">
        <ele>268</ele>
        <time>2017-08-25T10:00:31Z</time>
      </trkpt>
      <trkpt lat="45.95152" lon="4.86424">
        <ele>268</ele>
        <time>2017-08-25T10:00:32Z</time>
      </trkpt>
      <trkpt lat="45.95146" lon="4.86415">
        <ele>268</ele>
        <time>2017-08-25T10:00:34Z</time>
      </trkpt>
      <trkpt lat="45.95144" lon="4.86411">
        <ele>268</ele>
        <time>2017-08-25T10:00:35Z</time>
      </trkpt>
      <trkpt lat="45.95138" lon="4.86403">
        <ele>268</ele>
        <time>2017-08-25T10:00:37Z</time>
      </trkpt>
      <trkpt lat="45.95135" lon="4.86399">
        <ele>268</ele>
        <time>2017-08-25T10:00:38Z</time>
      </trkpt>
      <trkpt lat="45.95129" lon="4.86391">
        <ele>268</ele>
        <time>2017-08-25T10:00:40Z</time>
      </trkpt>
      <trkpt lat="45.95125" lon="4.86386">
        <ele>268</ele>
        <time>2017-08-25T10:00:41Z</time>
      </trkpt>
      <trkpt lat="45.95122" lon="4.86382">
        <ele>269</ele>
        <time>2017-08-25T10:00:42Z</time>
      </trkpt>
      <trkpt lat="45.95118" lon="4.86377">
        <ele>269</ele>
        <time>2017-08-25T10:00:43Z</time>
      </trkpt>
      <trkpt lat="45.95114" lon="4.86372">
        <ele>269</ele>
        <time>2017-08-25T10:00:44Z</time>
      </trkpt>
      <trkpt lat="45.95111" lon="4.86368">
        <ele>269</ele>
        <time>2017-08-25T10:00:45Z</time>
      </trkpt>
      <trkpt lat="45.95106" lon="4.8636">
        <ele>269</ele>
        <time>2017-08-25T10:00:47Z</time>
      </trkpt>
      <trkpt lat="45.95103" lon="4.86356">
        <ele>269</ele>
        <time>2017-08-25T10:00:48Z</time>
      </trkpt>
      <trkpt lat="45.95099" lon="4.86352">
        <ele>269</ele>
        <time>2017-08-25T10:00:49Z</time>
      </trkpt>
      <trkpt lat="45.95096" lon="4.86348">
        <ele>269</ele>
        <time>2017-08-25T10:00:50Z</time>
      </trkpt>
      <trkpt lat="45.95092" lon="4.86343">
        <ele>269</ele>
        <time>2017-08-25T10:00:51Z</time>
      </trkpt>
      <trkpt lat="45.95088" lon="4.86339">
        <ele>269</ele>
        <time>2017-08-25T10:00:52Z</time>
      </trkpt>
      <trkpt lat="45.95085" lon="4.86335">
        <ele>269</ele>
        <time>2017-08-25T10:00:53Z</time>
      </trkpt>
      <trkpt lat="45.95081" lon="4.86331">
        <ele>269</ele>
        <time>2017-08-25T10:00:54Z</time>
      </trkpt>
      <trkpt lat="45.95077" lon="4.86326">
        <ele>270</ele>
        <time>2017-08-25T10:00:55Z</time>
      </trkpt>
      <trkpt lat="45.95073" lon="4.86322">
        <ele>270</ele>
        <time>2017-08-25T10:00:56Z</time>
      </trkpt>
      <trkpt lat="45.95069" lon="4.86318">
        <ele>270</ele>
        <time>2017-08-25T10:00:57Z</time>
      </trkpt>
      <trkpt lat="45.95065" lon="4.86313">
        <ele>270</ele>
        <time>2017-08-25T10:00:58Z</time>
      </trkpt>
      <trkpt lat="45.9506" lon="4.86309">
        <ele>271</ele>
        <time>2017-08-25T10:00:59Z</time>
      </trkpt>
      <trkpt lat="45.95056" lon="4.86304">
        <ele>271</ele>
        <time>2017-08-25T10:01:00Z</time>
      </trkpt>
      <trkpt lat="45.95052" lon="4.863">
        <ele>271</ele>
        <time>2017-08-25T10:01:01Z</time>
      </trkpt>
      <trkpt lat="45.95049" lon="4.86296">
        <ele>271</ele>
        <time>2017-08-25T10:01:02Z</time>
      </trkpt>
      <trkpt lat="45.95042" lon="4.86287">
        <ele>271</ele>
        <time>2017-08-25T10:01:04Z</time>
      </trkpt>
      <trkpt lat="45.95039" lon="4.86283">
        <ele>271</ele>
        <time>2017-08-25T10:01:05Z</time>
      </trkpt>
      <trkpt lat="45.95033" lon="4.86275">
        <ele>271</ele>
        <time>2017-08-25T10:01:07Z</time>
      </trkpt>
      <trkpt lat="45.9503" lon="4.86271">
        <ele>271</ele>
        <time>2017-08-25T10:01:08Z</time>
      </trkpt>
      <trkpt lat="45.95023" lon="4.86262">
        <ele>271</ele>
        <time>2017-08-25T10:01:10Z</time>
      </trkpt>
      <trkpt lat="45.9502" lon="4.86258">
        <ele>271</ele>
        <time>2017-08-25T10:01:11Z</time>
      </trkpt>
      <trkpt lat="45.95015" lon="4.86251">
        <ele>272</ele>
        <time>2017-08-25T10:01:13Z</time>
      </trkpt>
      <trkpt lat="45.95012" lon="4.86248">
        <ele>272</ele>
        <time>2017-08-25T10:01:14Z</time>
      </trkpt>
      <trkpt lat="45.95005" lon="4.8624">
        <ele>272</ele>
        <time>2017-08-25T10:01:16Z</time>
      </trkpt>
      <trkpt lat="45.95002" lon="4.86236">
        <ele>272</ele>
        <time>2017-08-25T10:01:17Z</time>
      </trkpt>
      <trkpt lat="45.94996" lon="4.86228">
        <ele>272</ele>
        <time>2017-08-25T10:01:19Z</time>
      </trkpt>
      <trkpt lat="45.94994" lon="4.86224">
        <ele>272</ele>
        <time>2017-08-25T10:01:20Z</time>
      </trkpt>
      <trkpt lat="45.94988" lon="4.86217">
        <ele>272</ele>
        <time>2017-08-25T10:01:22Z</time>
      </trkpt>
      <trkpt lat="45.94985" lon="4.86213">
        <ele>272</ele>
        <time>2017-08-25T10:01:23Z</time>
      </trkpt>
      <trkpt lat="45.94979" lon="4.86207">
        <ele>272</ele>
        <time>2017-08-25T10:01:25Z</time>
      </trkpt>
      <trkpt lat="45.94976" lon="4.86203">
        <ele>272</ele>
        <time>2017-08-25T10:01:26Z</time>
      </trkpt>
      <trkpt lat="45.9497" lon="4.86196">
        <ele>272</ele>
        <time>2017-08-25T10:01:28Z</time>
      </trkpt>
      <trkpt lat="45.94968" lon="4.86193">
        <ele>272</ele>
        <time>2017-08-25T10:01:29Z</time>
      </trkpt>
      <trkpt lat="45.94963" lon="4.86185">
        <ele>272</ele>
        <time>2017-08-25T10:01:31Z</time>
      </trkpt>
      <trkpt lat="45.9496" lon="4.86181">
        <ele>272</ele>
        <time>2017-08-25T10:01:32Z</time>
      </trkpt>
      <trkpt lat="45.94954" lon="4.86174">
        <ele>273</ele>
        <time>2017-08-25T10:01:34Z</time>
      </trkpt>
      <trkpt lat="45.94951" lon="4.8617">
        <ele>273</ele>
        <time>2017-08-25T10:01:35Z</time>
      </trkpt>
      <trkpt lat="45.94944" lon="4.86163">
        <ele>273</ele>
        <time>2017-08-25T10:01:37Z</time>
      </trkpt>
      <trkpt lat="45.94941" lon="4.86159">
        <ele>273</ele>
        <time>2017-08-25T10:01:38Z</time>
      </trkpt>
      <trkpt lat="45.94936" lon="4.86151">
        <ele>273</ele>
        <time>2017-08-25T10:01:40Z</time>
      </trkpt>
      <trkpt lat="45.94933" lon="4.86147">
        <ele>273</ele>
        <time>2017-08-25T10:01:41Z</time>
      </trkpt>
      <trkpt lat="45.94927" lon="4.86138">
        <ele>273</ele>
        <time>2017-08-25T10:01:43Z</time>
      </trkpt>
      <trkpt lat="45.94924" lon="4.86134">
        <ele>273</ele>
        <time>2017-08-25T10:01:44Z</time>
      </trkpt>
      <trkpt lat="45.94918" lon="4.86125">
        <ele>273</ele>
        <time>2017-08-25T10:01:46Z</time>
      </trkpt>
      <trkpt lat="45.94915" lon="4.8612">
        <ele>274</ele>
        <time>2017-08-25T10:01:47Z</time>
      </trkpt>
      <trkpt lat="45.94911" lon="4.86111">
        <ele>274</ele>
        <time>2017-08-25T10:01:49Z</time>
      </trkpt>
      <trkpt lat="45.9491" lon="4.86107">
        <ele>274</ele>
        <time>2017-08-25T10:01:50Z</time>
      </trkpt>
      <trkpt lat="45.94906" lon="4.86097">
        <ele>274</ele>
        <time>2017-08-25T10:01:52Z</time>
      </trkpt>
      <trkpt lat="45.94904" lon="4.86092">
        <ele>274</ele>
        <time>2017-08-25T10:01:53Z</time>
      </trkpt>
      <trkpt lat="45.94899" lon="4.86081">
        <ele>274</ele>
        <time>2017-08-25T10:01:55Z</time>
      </trkpt>
      <trkpt lat="45.94897" lon="4.86076">
        <ele>274</ele>
        <time>2017-08-25T10:01:56Z</time>
      </trkpt>
      <trkpt lat="45.94895" lon="4.8607">
        <ele>274</ele>
        <time>2017-08-25T10:01:57Z</time>
      </trkpt>
      <trkpt lat="45.94893" lon="4.86064">
        <ele>274</ele>
        <time>2017-08-25T10:01:58Z</time>
      </trkpt>
      <trkpt lat="45.9489" lon="4.86054">
        <ele>274</ele>
        <time>2017-08-25T10:02:00Z</time>
      </trkpt>
      <trkpt lat="45.94889" lon="4.86049">
        <ele>274</ele>
        <time>2017-08-25T10:02:01Z</time>
      </trkpt>
      <trkpt lat="45.94886" lon="4.86039">
        <ele>274</ele>
        <time>2017-08-25T10:02:03Z</time>
      </trkpt>
      <trkpt lat="45.94884" lon="4.86033">
        <ele>274</ele>
        <time>2017-08-25T10:02:04Z</time>
      </trkpt>
      <trkpt lat="45.94881" lon="4.86021">
        <ele>274</ele>
        <time>2017-08-25T10:02:06Z</time>
      </trkpt>
      <trkpt lat="45.9488" lon="4.86015">
        <ele>274</ele>
        <time>2017-08-25T10:02:07Z</time>
      </trkpt>
      <trkpt lat="45.94877" lon="4.86003">
        <ele>274</ele>
        <time>2017-08-25T10:02:09Z</time>
      </trkpt>
      <trkpt lat="45.94876" lon="4.85997">
        <ele>275</ele>
        <time>2017-08-25T10:02:10Z</time>
      </trkpt>
      <trkpt lat="45.94873" lon="4.85988">
        <ele>275</ele>
        <time>2017-08-25T10:02:12Z</time>
      </trkpt>
      <trkpt lat="45.94872" lon="4.85982">
        <ele>275</ele>
        <time>2017-08-25T10:02:13Z</time>
      </trkpt>
      <trkpt lat="45.94869" lon="4.85971">
        <ele>275</ele>
        <time>2017-08-25T10:02:15Z</time>
      </trkpt>
      <trkpt lat="45.94867" lon="4.85965">
        <ele>275</ele>
        <time>2017-08-25T10:02:16Z</time>
      </trkpt>
      <trkpt lat="45.94865" lon="4.85958">
        <ele>275</ele>
        <time>2017-08-25T10:02:17Z</time>
      </trkpt>
      <trkpt lat="45.94864" lon="4.85952">
        <ele>275</ele>
        <time>2017-08-25T10:02:18Z</time>
      </trkpt>
      <trkpt lat="45.94861" lon="4.8594">
        <ele>275</ele>
        <time>2017-08-25T10:02:20Z</time>
      </trkpt>
      <trkpt lat="45.94859" lon="4.85934">
        <ele>275</ele>
        <time>2017-08-25T10:02:21Z</time>
      </trkpt>
      <trkpt lat="45.94857" lon="4.85924">
        <ele>275</ele>
        <time>2017-08-25T10:02:23Z</time>
      </trkpt>
      <trkpt lat="45.94855" lon="4.85919">
        <ele>275</ele>
        <time>2017-08-25T10:02:24Z</time>
      </trkpt>
      <trkpt lat="45.94852" lon="4.85909">
        <ele>276</ele>
        <time>2017-08-25T10:02:26Z</time>
      </trkpt>
      <trkpt lat="45.94851" lon="4.85903">
        <ele>276</ele>
        <time>2017-08-25T10:02:27Z</time>
      </trkpt>
      <trkpt lat="45.94849" lon="4.85897">
        <ele>276</ele>
        <time>2017-08-25T10:02:28Z</time>
      </trkpt>
      <trkpt lat="45.94848" lon="4.8589">
        <ele>276</ele>
        <time>2017-08-25T10:02:29Z</time>
      </trkpt>
      <trkpt lat="45.94846" lon="4.85884">
        <ele>276</ele>
        <time>2017-08-25T10:02:30Z</time>
      </trkpt>
      <trkpt lat="45.94844" lon="4.85877">
        <ele>276</ele>
        <time>2017-08-25T10:02:31Z</time>
      </trkpt>
      <trkpt lat="45.94841" lon="4.85867">
        <ele>276</ele>
        <time>2017-08-25T10:02:33Z</time>
      </trkpt>
      <trkpt lat="45.9484" lon="4.85862">
        <ele>276</ele>
        <time>2017-08-25T10:02:34Z</time>
      </trkpt>
      <trkpt lat="45.94838" lon="4.85851">
        <ele>276</ele>
        <time>2017-08-25T10:02:36Z</time>
      </trkpt>
      <trkpt lat="45.94837" lon="4.85845">
        <ele>277</ele>
        <time>2017-08-25T10:02:37Z</time>
      </trkpt>
      <trkpt lat="45.94834" lon="4.85834">
        <ele>277</ele>
        <time>2017-08-25T10:02:39Z</time>
      </trkpt>
      <trkpt lat="45.94833" lon="4.85827">
        <ele>277</ele>
        <time>2017-08-25T10:02:40Z</time>
      </trkpt>
      <trkpt lat="45.94831" lon="4.85821">
        <ele>277</ele>
        <time>2017-08-25T10:02:41Z</time>
      </trkpt>
      <trkpt lat="45.9483" lon="4.85815">
        <ele>278</ele>
        <time>2017-08-25T10:02:42Z</time>
      </trkpt>
      <trkpt lat="45.94826" lon="4.85804">
        <ele>278</ele>
        <time>2017-08-25T10:02:44Z</time>
      </trkpt>
      <trkpt lat="45.94825" lon="4.858">
        <ele>278</ele>
        <time>2017-08-25T10:02:45Z</time>
      </trkpt>
      <trkpt lat="45.94821" lon="4.85789">
        <ele>278</ele>
        <time>2017-08-25T10:02:47Z</time>
      </trkpt>
      <trkpt lat="45.9482" lon="4.85783">
        <ele>278</ele>
        <time>2017-08-25T10:02:48Z</time>
      </trkpt>
      <trkpt lat="45.94819" lon="4.85777">
        <ele>278</ele>
        <time>2017-08-25T10:02:49Z</time>
      </trkpt>
      <trkpt lat="45.94817" lon="4.85771">
        <ele>278</ele>
        <time>2017-08-25T10:02:50Z</time>
      </trkpt>
      <trkpt lat="45.94816" lon="4.85764">
        <ele>278</ele>
        <time>2017-08-25T10:02:51Z</time>
      </trkpt>
      <trkpt lat="45.94814" lon="4.85757">
        <ele>278</ele>
        <time>2017-08-25T10:02:52Z</time>
      </trkpt>
      <trkpt lat="45.94813" lon="4.8575">
        <ele>278</ele>
        <time>2017-08-25T10:02:53Z</time>
      </trkpt>
      <trkpt lat="45.94811" lon="4.85744">
        <ele>279</ele>
        <time>2017-08-25T10:02:54Z</time>
      </trkpt>
      <trkpt lat="45.94809" lon="4.85733">
        <ele>279</ele>
        <time>2017-08-25T10:02:56Z</time>
      </trkpt>
      <trkpt lat="45.94808" lon="4.85729">
        <ele>280</ele>
        <time>2017-08-25T10:02:57Z</time>
      </trkpt>
      <trkpt lat="45.94804" lon="4.85719">
        <ele>280</ele>
        <time>2017-08-25T10:02:59Z</time>
      </trkpt>
      <trkpt lat="45.94803" lon="4.85714">
        <ele>280</ele>
        <time>2017-08-25T10:03:00Z</time>
      </trkpt>
      <trkpt lat="45.948" lon="4.85703">
        <ele>280</ele>
        <time>2017-08-25T10:03:02Z</time>
      </trkpt>
      <trkpt lat="45.94798" lon="4.85697">
        <ele>280</ele>
        <time>2017-08-25T10:03:03Z</time>
      </trkpt>
      <trkpt lat="45.94795" lon="4.85686">
        <ele>280</ele>
        <time>2017-08-25T10:03:05Z</time>
      </trkpt>
      <trkpt lat="45.94794" lon="4.85681">
        <ele>280</ele>
        <time>2017-08-25T10:03:06Z</time>
      </trkpt>
      <trkpt lat="45.94791" lon="4.85671">
        <ele>280</ele>
        <time>2017-08-25T10:03:08Z</time>
      </trkpt>
      <trkpt lat="45.94789" lon="4.85665">
        <ele>281</ele>
        <time>2017-08-25T10:03:09Z</time>
      </trkpt>
      <trkpt lat="45.94786" lon="4.85654">
        <ele>281</ele>
        <time>2017-08-25T10:03:11Z</time>
      </trkpt>
      <trkpt lat="45.94785" lon="4.85648">
        <ele>281</ele>
        <time>2017-08-25T10:03:12Z</time>
      </trkpt>
      <trkpt lat="45.94783" lon="4.85642">
        <ele>281</ele>
        <time>2017-08-25T10:03:13Z</time>
      </trkpt>
      <trkpt lat="45.94782" lon="4.85636">
        <ele>281</ele>
        <time>2017-08-25T10:03:14Z</time>
      </trkpt>
      <trkpt lat="45.94781" lon="4.85629">
        <ele>280</ele>
        <time>2017-08-25T10:03:15Z</time>
      </trkpt>
      <trkpt lat="45.94779" lon="4.85623">
        <ele>280</ele>
        <time>2017-08-25T10:03:16Z</time>
      </trkpt>
      <trkpt lat="45.94778" lon="4.85617">
        <ele>280</ele>
        <time>2017-08-25T10:03:17Z</time>
      </trkpt>
      <trkpt lat="45.94776" lon="4.8561">
        <ele>280</ele>
        <time>2017-08-25T10:03:18Z</time>
      </trkpt>
      <trkpt lat="45.94774" lon="4.85602">
        <ele>280</ele>
        <time>2017-08-25T10:03:19Z</time>
      </trkpt>
      <trkpt lat="45.94772" lon="4.85595">
        <ele>280</ele>
        <time>2017-08-25T10:03:20Z</time>
      </trkpt>
      <trkpt lat="45.94771" lon="4.85587">
        <ele>280</ele>
        <time>2017-08-25T10:03:21Z</time>
      </trkpt>
      <trkpt lat="45.94769" lon="4.85579">
        <ele>279</ele>
        <time>2017-08-25T10:03:22Z</time>
      </trkpt>
      <trkpt lat="45.94768" lon="4.8557">
        <ele>279</ele>
        <time>2017-08-25T10:03:23Z</time>
      </trkpt>
      <trkpt lat="45.94765" lon="4.85561">
        <ele>278</ele>
        <time>2017-08-25T10:03:24Z</time>
      </trkpt>
      <trkpt lat="45.94764" lon="4.85551">
        <ele>278</ele>
        <time>2017-08-25T10:03:25Z</time>
      </trkpt>
      <trkpt lat="45.94762" lon="4.85542">
        <ele>278</ele>
        <time>2017-08-25T10:03:26Z</time>
      </trkpt>
      <trkpt lat="45.94761" lon="4.85532">
        <ele>278</ele>
        <time>2017-08-25T10:03:27Z</time>
      </trkpt>
      <trkpt lat="45.9476" lon="4.85521">
        <ele>277</ele>
        <time>2017-08-25T10:03:28Z</time>
      </trkpt>
      <trkpt lat="45.94758" lon="4.8551">
        <ele>277</ele>
        <time>2017-08-25T10:03:29Z</time>
      </trkpt>
      <trkpt lat="45.94756" lon="4.85499">
        <ele>276</ele>
        <time>2017-08-25T10:03:30Z</time>
      </trkpt>
      <trkpt lat="45.94754" lon="4.85488">
        <ele>276</ele>
        <time>2017-08-25T10:03:31Z</time>
      </trkpt>
      <trkpt lat="45.94753" lon="4.85476">
        <ele>275</ele>
        <time>2017-08-25T10:03:32Z</time>
      </trkpt>
      <trkpt lat="45.94752" lon="4.85465">
        <ele>275</ele>
        <time>2017-08-25T10:03:33Z</time>
      </trkpt>
      <trkpt lat="45.94751" lon="4.85453">
        <ele>275</ele>
        <time>2017-08-25T10:03:34Z</time>
      </trkpt>
      <trkpt lat="45.94749" lon="4.85441">
        <ele>274</ele>
        <time>2017-08-25T10:03:35Z</time>
      </trkpt>
      <trkpt lat="45.94748" lon="4.85429">
        <ele>273</ele>
        <time>2017-08-25T10:03:36Z</time>
      </trkpt>
      <trkpt lat="45.94746" lon="4.85418">
        <ele>273</ele>
        <time>2017-08-25T10:03:37Z</time>
      </trkpt>
      <trkpt lat="45.94745" lon="4.85406">
        <ele>272</ele>
        <time>2017-08-25T10:03:38Z</time>
      </trkpt>
      <trkpt lat="45.94745" lon="4.85395">
        <ele>272</ele>
        <time>2017-08-25T10:03:39Z</time>
      </trkpt>
      <trkpt lat="45.94743" lon="4.85384">
        <ele>272</ele>
        <time>2017-08-25T10:03:40Z</time>
      </trkpt>
      <trkpt lat="45.94742" lon="4.85373">
        <ele>271</ele>
        <time>2017-08-25T10:03:41Z</time>
      </trkpt>
      <trkpt lat="45.94741" lon="4.85362">
        <ele>271</ele>
        <time>2017-08-25T10:03:42Z</time>
      </trkpt>
      <trkpt lat="45.94739" lon="4.85352">
        <ele>271</ele>
        <time>2017-08-25T10:03:43Z</time>
      </trkpt>
      <trkpt lat="45.94738" lon="4.85342">
        <ele>271</ele>
        <time>2017-08-25T10:03:44Z</time>
      </trkpt>
      <trkpt lat="45.94737" lon="4.85332">
        <ele>270</ele>
        <time>2017-08-25T10:03:45Z</time>
      </trkpt>
      <trkpt lat="45.94736" lon="4.85322">
        <ele>270</ele>
        <time>2017-08-25T10:03:46Z</time>
      </trkpt>
      <trkpt lat="45.94735" lon="4.85313">
        <ele>270</ele>
        <time>2017-08-25T10:03:47Z</time>
      </trkpt>
      <trkpt lat="45.94733" lon="4.85304">
        <ele>270</ele>
        <time>2017-08-25T10:03:48Z</time>
      </trkpt>
      <trkpt lat="45.94732" lon="4.85295">
        <ele>270</ele>
        <time>2017-08-25T10:03:49Z</time>
      </trkpt>
      <trkpt lat="45.94732" lon="4.85286">
        <ele>269</ele>
        <time>2017-08-25T10:03:50Z</time>
      </trkpt>
      <trkpt lat="45.94731" lon="4.85278">
        <ele>269</ele>
        <time>2017-08-25T10:03:51Z</time>
      </trkpt>
      <trkpt lat="45.9473" lon="4.85269">
        <ele>269</ele>
        <time>2017-08-25T10:03:52Z</time>
      </trkpt>
      <trkpt lat="45.94729" lon="4.85261">
        <ele>269</ele>
        <time>2017-08-25T10:03:53Z</time>
      </trkpt>
      <trkpt lat="45.94728" lon="4.85253">
        <ele>269</ele>
        <time>2017-08-25T10:03:54Z</time>
      </trkpt>
      <trkpt lat="45.94727" lon="4.85245">
        <ele>269</ele>
        <time>2017-08-25T10:03:55Z</time>
      </trkpt>
      <trkpt lat="45.94727" lon="4.85238">
        <ele>269</ele>
        <time>2017-08-25T10:03:56Z</time>
      </trkpt>
      <trkpt lat="45.94726" lon="4.8523">
        <ele>269</ele>
        <time>2017-08-25T10:03:57Z</time>
      </trkpt>
      <trkpt lat="45.94725" lon="4.85222">
        <ele>269</ele>
        <time>2017-08-25T10:03:58Z</time>
      </trkpt>
      <trkpt lat="45.94725" lon="4.85215">
        <ele>269</ele>
        <time>2017-08-25T10:03:59Z</time>
      </trkpt>
      <trkpt lat="45.94724" lon="4.85208">
        <ele>269</ele>
        <time>2017-08-25T10:04:00Z</time>
      </trkpt>
      <trkpt lat="45.94722" lon="4.85201">
        <ele>269</ele>
        <time>2017-08-25T10:04:01Z</time>
      </trkpt>
      <trkpt lat="45.94721" lon="4.85192">
        <ele>269</ele>
        <time>2017-08-25T10:04:02Z</time>
      </trkpt>
      <trkpt lat="45.9472" lon="4.85184">
        <ele>269</ele>
        <time>2017-08-25T10:04:03Z</time>
      </trkpt>
      <trkpt lat="45.94719" lon="4.85175">
        <ele>269</ele>
        <time>2017-08-25T10:04:04Z</time>
      </trkpt>
      <trkpt lat="45.94719" lon="4.85167">
        <ele>269</ele>
        <time>2017-08-25T10:04:05Z</time>
      </trkpt>
      <trkpt lat="45.94718" lon="4.85159">
        <ele>269</ele>
        <time>2017-08-25T10:04:06Z</time>
      </trkpt>
      <trkpt lat="45.94717" lon="4.85152">
        <ele>269</ele>
        <time>2017-08-25T10:04:07Z</time>
      </trkpt>
      <trkpt lat="45.94717" lon="4.85145">
        <ele>269</ele>
        <time>2017-08-25T10:04:08Z</time>
      </trkpt>
      <trkpt lat="45.94716" lon="4.85138">
        <ele>269</ele>
        <time>2017-08-25T10:04:09Z</time>
      </trkpt>
      <trkpt lat="45.94715" lon="4.85131">
        <ele>269</ele>
        <time>2017-08-25T10:04:10Z</time>
      </trkpt>
      <trkpt lat="45.94714" lon="4.85124">
        <ele>269</ele>
        <time>2017-08-25T10:04:11Z</time>
      </trkpt>
      <trkpt lat="45.94713" lon="4.85117">
        <ele>269</ele>
        <time>2017-08-25T10:04:12Z</time>
      </trkpt>
      <trkpt lat="45.94712" lon="4.85109">
        <ele>269</ele>
        <time>2017-08-25T10:04:13Z</time>
      </trkpt>
      <trkpt lat="45.94711" lon="4.85101">
        <ele>269</ele>
        <time>2017-08-25T10:04:14Z</time>
      </trkpt>
      <trkpt lat="45.9471" lon="4.85094">
        <ele>269</ele>
        <time>2017-08-25T10:04:15Z</time>
      </trkpt>
      <trkpt lat="45.94709" lon="4.85086">
        <ele>269</ele>
        <time>2017-08-25T10:04:16Z</time>
      </trkpt>
      <trkpt lat="45.94708" lon="4.85079">
        <ele>269</ele>
        <time>2017-08-25T10:04:17Z</time>
      </trkpt>
      <trkpt lat="45.94708" lon="4.85072">
        <ele>269</ele>
        <time>2017-08-25T10:04:18Z</time>
      </trkpt>
      <trkpt lat="45.94707" lon="4.85065">
        <ele>269</ele>
        <time>2017-08-25T10:04:19Z</time>
      </trkpt>
      <trkpt lat="45.94706" lon="4.85058">
        <ele>269</ele>
        <time>2017-08-25T10:04:20Z</time>
      </trkpt>
      <trkpt lat="45.94705" lon="4.85051">
        <ele>269</ele>
        <time>2017-08-25T10:04:21Z</time>
      </trkpt>
      <trkpt lat="45.94704" lon="4.85044">
        <ele>269</ele>
        <time>2017-08-25T10:04:22Z</time>
      </trkpt>
      <trkpt lat="45.94704" lon="4.85037">
        <ele>269</ele>
        <time>2017-08-25T10:04:23Z</time>
      </trkpt>
      <trkpt lat="45.94703" lon="4.8503">
        <ele>269</ele>
        <time>2017-08-25T10:04:24Z</time>
      </trkpt>
      <trkpt lat="45.94702" lon="4.85022">
        <ele>269</ele>
        <time>2017-08-25T10:04:25Z</time>
      </trkpt>
      <trkpt lat="45.94701" lon="4.85014">
        <ele>269</ele>
        <time>2017-08-25T10:04:26Z</time>
      </trkpt>
      <trkpt lat="45.947" lon="4.85007">
        <ele>269</ele>
        <time>2017-08-25T10:04:27Z</time>
      </trkpt>
      <trkpt lat="45.94699" lon="4.84999">
        <ele>269</ele>
        <time>2017-08-25T10:04:28Z</time>
      </trkpt>
      <trkpt lat="45.94699" lon="4.84992">
        <ele>269</ele>
        <time>2017-08-25T10:04:29Z</time>
      </trkpt>
      <trkpt lat="45.94697" lon="4.84986">
        <ele>269</ele>
        <time>2017-08-25T10:04:30Z</time>
      </trkpt>
      <trkpt lat="45.94696" lon="4.84979">
        <ele>269</ele>
        <time>2017-08-25T10:04:31Z</time>
      </trkpt>
      <trkpt lat="45.94695" lon="4.84973">
        <ele>269</ele>
        <time>2017-08-25T10:04:32Z</time>
      </trkpt>
      <trkpt lat="45.94695" lon="4.84966">
        <ele>269</ele>
        <time>2017-08-25T10:04:33Z</time>
      </trkpt>
      <trkpt lat="45.94694" lon="4.84959">
        <ele>269</ele>
        <time>2017-08-25T10:04:34Z</time>
      </trkpt>
      <trkpt lat="45.94694" lon="4.84952">
        <ele>269</ele>
        <time>2017-08-25T10:04:35Z</time>
      </trkpt>
      <trkpt lat="45.94693" lon="4.84944">
        <ele>269</ele>
        <time>2017-08-25T10:04:36Z</time>
      </trkpt>
      <trkpt lat="45.94692" lon="4.84937">
        <ele>269</ele>
        <time>2017-08-25T10:04:37Z</time>
      </trkpt>
      <trkpt lat="45.94691" lon="4.84929">
        <ele>269</ele>
        <time>2017-08-25T10:04:38Z</time>
      </trkpt>
      <trkpt lat="45.94691" lon="4.8492">
        <ele>269</ele>
        <time>2017-08-25T10:04:39Z</time>
      </trkpt>
      <trkpt lat="45.9469" lon="4.84912">
        <ele>269</ele>
        <time>2017-08-25T10:04:40Z</time>
      </trkpt>
      <trkpt lat="45.94689" lon="4.84902">
        <ele>268</ele>
        <time>2017-08-25T10:04:41Z</time>
      </trkpt>
      <trkpt lat="45.94688" lon="4.84894">
        <ele>268</ele>
        <time>2017-08-25T10:04:42Z</time>
      </trkpt>
      <trkpt lat="45.94688" lon="4.84885">
        <ele>268</ele>
        <time>2017-08-25T10:04:43Z</time>
      </trkpt>
      <trkpt lat="45.94687" lon="4.84876">
        <ele>268</ele>
        <time>2017-08-25T10:04:44Z</time>
      </trkpt>
      <trkpt lat="45.94686" lon="4.84868">
        <ele>268</ele>
        <time>2017-08-25T10:04:45Z</time>
      </trkpt>
      <trkpt lat="45.94686" lon="4.8486">
        <ele>268</ele>
        <time>2017-08-25T10:04:46Z</time>
      </trkpt>
      <trkpt lat="45.94685" lon="4.84852">
        <ele>268</ele>
        <time>2017-08-25T10:04:47Z</time>
      </trkpt>
      <trkpt lat="45.94684" lon="4.84845">
        <ele>268</ele>
        <time>2017-08-25T10:04:48Z</time>
      </trkpt>
      <trkpt lat="45.94683" lon="4.84837">
        <ele>268</ele>
        <time>2017-08-25T10:04:49Z</time>
      </trkpt>
      <trkpt lat="45.94682" lon="4.8483">
        <ele>268</ele>
        <time>2017-08-25T10:04:50Z</time>
      </trkpt>
      <trkpt lat="45.94681" lon="4.84823">
        <ele>268</ele>
        <time>2017-08-25T10:04:51Z</time>
      </trkpt>
      <trkpt lat="45.94681" lon="4.84815">
        <ele>268</ele>
        <time>2017-08-25T10:04:52Z</time>
      </trkpt>
      <trkpt lat="45.9468" lon="4.84808">
        <ele>268</ele>
        <time>2017-08-25T10:04:53Z</time>
      </trkpt>
      <trkpt lat="45.9468" lon="4.84799">
        <ele>268</ele>
        <time>2017-08-25T10:04:54Z</time>
      </trkpt>
      <trkpt lat="45.94679" lon="4.84791">
        <ele>269</ele>
        <time>2017-08-25T10:04:55Z</time>
      </trkpt>
      <trkpt lat="45.94679" lon="4.84783">
        <ele>269</ele>
        <time>2017-08-25T10:04:56Z</time>
      </trkpt>
      <trkpt lat="45.94678" lon="4.84775">
        <ele>269</ele>
        <time>2017-08-25T10:04:57Z</time>
      </trkpt>
      <trkpt lat="45.94678" lon="4.84767">
        <ele>269</ele>
        <time>2017-08-25T10:04:58Z</time>
      </trkpt>
      <trkpt lat="45.94677" lon="4.8476">
        <ele>269</ele>
        <time>2017-08-25T10:04:59Z</time>
      </trkpt>
      <trkpt lat="45.94677" lon="4.84753">
        <ele>269</ele>
        <time>2017-08-25T10:05:00Z</time>
      </trkpt>
      <trkpt lat="45.94677" lon="4.84746">
        <ele>269</ele>
        <time>2017-08-25T10:05:01Z</time>
      </trkpt>
      <trkpt lat="45.94676" lon="4.84738">
        <ele>269</ele>
        <time>2017-08-25T10:05:02Z</time>
      </trkpt>
      <trkpt lat="45.94676" lon="4.84726">
        <ele>269</ele>
        <time>2017-08-25T10:05:04Z</time>
      </trkpt>
      <trkpt lat="45.94675" lon="4.84719">
        <ele>269</ele>
        <time>2017-08-25T10:05:05Z</time>
      </trkpt>
      <trkpt lat="45.94675" lon="4.84711">
        <ele>269</ele>
        <time>2017-08-25T10:05:06Z</time>
      </trkpt>
      <trkpt lat="45.94675" lon="4.84703">
        <ele>268</ele>
        <time>2017-08-25T10:05:07Z</time>
      </trkpt>
      <trkpt lat="45.94675" lon="4.84694">
        <ele>269</ele>
        <time>2017-08-25T10:05:08Z</time>
      </trkpt>
      <trkpt lat="45.94675" lon="4.84685">
        <ele>269</ele>
        <time>2017-08-25T10:05:09Z</time>
      </trkpt>
      <trkpt lat="45.94675" lon="4.84675">
        <ele>269</ele>
        <time>2017-08-25T10:05:10Z</time>
      </trkpt>
      <trkpt lat="45.94675" lon="4.84667">
        <ele>269</ele>
        <time>2017-08-25T10:05:11Z</time>
      </trkpt>
      <trkpt lat="45.94674" lon="4.84658">
        <ele>268</ele>
        <time>2017-08-25T10:05:12Z</time>
      </trkpt>
      <trkpt lat="45.94674" lon="4.8465">
        <ele>268</ele>
        <time>2017-08-25T10:05:13Z</time>
      </trkpt>
      <trkpt lat="45.94674" lon="4.84642">
        <ele>268</ele>
        <time>2017-08-25T10:05:14Z</time>
      </trkpt>
      <trkpt lat="45.94674" lon="4.84634">
        <ele>268</ele>
        <time>2017-08-25T10:05:15Z</time>
      </trkpt>
      <trkpt lat="45.94673" lon="4.84627">
        <ele>268</ele>
        <time>2017-08-25T10:05:16Z</time>
      </trkpt>
      <trkpt lat="45.94673" lon="4.8462">
        <ele>268</ele>
        <time>2017-08-25T10:05:17Z</time>
      </trkpt>
      <trkpt lat="45.94673" lon="4.84612">
        <ele>268</ele>
        <time>2017-08-25T10:05:18Z</time>
      </trkpt>
      <trkpt lat="45.94673" lon="4.84606">
        <ele>268</ele>
        <time>2017-08-25T10:05:19Z</time>
      </trkpt>
      <trkpt lat="45.94673" lon="4.84599">
        <ele>268</ele>
        <time>2017-08-25T10:05:20Z</time>
      </trkpt>
      <trkpt lat="45.94672" lon="4.84591">
        <ele>268</ele>
        <time>2017-08-25T10:05:21Z</time>
      </trkpt>
      <trkpt lat="45.94672" lon="4.84584">
        <ele>268</ele>
        <time>2017-08-25T10:05:22Z</time>
      </trkpt>
      <trkpt lat="45.94672" lon="4.84576">
        <ele>268</ele>
        <time>2017-08-25T10:05:23Z</time>
      </trkpt>
      <trkpt lat="45.94671" lon="4.84567">
        <ele>268</ele>
        <time>2017-08-25T10:05:24Z</time>
      </trkpt>
      <trkpt lat="45.94671" lon="4.84558">
        <ele>268</ele>
        <time>2017-08-25T10:05:25Z</time>
      </trkpt>
      <trkpt lat="45.9467" lon="4.84549">
        <ele>268</ele>
        <time>2017-08-25T10:05:26Z</time>
      </trkpt>
      <trkpt lat="45.94669" lon="4.84541">
        <ele>268</ele>
        <time>2017-08-25T10:05:27Z</time>
      </trkpt>
      <trkpt lat="45.94668" lon="4.84533">
        <ele>268</ele>
        <time>2017-08-25T10:05:28Z</time>
      </trkpt>
      <trkpt lat="45.94668" lon="4.84525">
        <ele>268</ele>
        <time>2017-08-25T10:05:29Z</time>
      </trkpt>
      <trkpt lat="45.94667" lon="4.84518">
        <ele>268</ele>
        <time>2017-08-25T10:05:30Z</time>
      </trkpt>
      <trkpt lat="45.94667" lon="4.84511">
        <ele>268</ele>
        <time>2017-08-25T10:05:31Z</time>
      </trkpt>
      <trkpt lat="45.94666" lon="4.84503">
        <ele>268</ele>
        <time>2017-08-25T10:05:32Z</time>
      </trkpt>
      <trkpt lat="45.94665" lon="4.84495">
        <ele>268</ele>
        <time>2017-08-25T10:05:33Z</time>
      </trkpt>
      <trkpt lat="45.94664" lon="4.84488">
        <ele>268</ele>
        <time>2017-08-25T10:05:34Z</time>
      </trkpt>
      <trkpt lat="45.94664" lon="4.84481">
        <ele>268</ele>
        <time>2017-08-25T10:05:35Z</time>
      </trkpt>
      <trkpt lat="45.94663" lon="4.84473">
        <ele>268</ele>
        <time>2017-08-25T10:05:36Z</time>
      </trkpt>
      <trkpt lat="45.94662" lon="4.84466">
        <ele>268</ele>
        <time>2017-08-25T10:05:37Z</time>
      </trkpt>
      <trkpt lat="45.94661" lon="4.84459">
        <ele>268</ele>
        <time>2017-08-25T10:05:38Z</time>
      </trkpt>
      <trkpt lat="45.9466" lon="4.84452">
        <ele>268</ele>
        <time>2017-08-25T10:05:39Z</time>
      </trkpt>
      <trkpt lat="45.9466" lon="4.84445">
        <ele>268</ele>
        <time>2017-08-25T10:05:40Z</time>
      </trkpt>
      <trkpt lat="45.94659" lon="4.84438">
        <ele>268</ele>
        <time>2017-08-25T10:05:41Z</time>
      </trkpt>
      <trkpt lat="45.94658" lon="4.84425">
        <ele>268</ele>
        <time>2017-08-25T10:05:43Z</time>
      </trkpt>
      <trkpt lat="45.94658" lon="4.84419">
        <ele>268</ele>
        <time>2017-08-25T10:05:44Z</time>
      </trkpt>
      <trkpt lat="45.94657" lon="4.84412">
        <ele>268</ele>
        <time>2017-08-25T10:05:45Z</time>
      </trkpt>
      <trkpt lat="45.94656" lon="4.84404">
        <ele>268</ele>
        <time>2017-08-25T10:05:46Z</time>
      </trkpt>
      <trkpt lat="45.94655" lon="4.84396">
        <ele>268</ele>
        <time>2017-08-25T10:05:47Z</time>
      </trkpt>
      <trkpt lat="45.94654" lon="4.84389">
        <ele>268</ele>
        <time>2017-08-25T10:05:48Z</time>
      </trkpt>
      <trkpt lat="45.94653" lon="4.84382">
        <ele>268</ele>
        <time>2017-08-25T10:05:49Z</time>
      </trkpt>
      <trkpt lat="45.94652" lon="4.84375">
        <ele>268</ele>
        <time>2017-08-25T10:05:50Z</time>
      </trkpt>
      <trkpt lat="45.94651" lon="4.84368">
        <ele>268</ele>
        <time>2017-08-25T10:05:51Z</time>
      </trkpt>
      <trkpt lat="45.9465" lon="4.84361">
        <ele>268</ele>
        <time>2017-08-25T10:05:52Z</time>
      </trkpt>
      <trkpt lat="45.94649" lon="4.84354">
        <ele>268</ele>
        <time>2017-08-25T10:05:53Z</time>
      </trkpt>
      <trkpt lat="45.94649" lon="4.84347">
        <ele>268</ele>
        <time>2017-08-25T10:05:54Z</time>
      </trkpt>
      <trkpt lat="45.94648" lon="4.8434">
        <ele>268</ele>
        <time>2017-08-25T10:05:55Z</time>
      </trkpt>
      <trkpt lat="45.94647" lon="4.84332">
        <ele>268</ele>
        <time>2017-08-25T10:05:56Z</time>
      </trkpt>
      <trkpt lat="45.94646" lon="4.84324">
        <ele>268</ele>
        <time>2017-08-25T10:05:57Z</time>
      </trkpt>
      <trkpt lat="45.94645" lon="4.84315">
        <ele>268</ele>
        <time>2017-08-25T10:05:58Z</time>
      </trkpt>
      <trkpt lat="45.94644" lon="4.84307">
        <ele>269</ele>
        <time>2017-08-25T10:05:59Z</time>
      </trkpt>
      <trkpt lat="45.94643" lon="4.84298">
        <ele>269</ele>
        <time>2017-08-25T10:06:00Z</time>
      </trkpt>
      <trkpt lat="45.94643" lon="4.8429">
        <ele>269</ele>
        <time>2017-08-25T10:06:01Z</time>
      </trkpt>
      <trkpt lat="45.94642" lon="4.84282">
        <ele>269</ele>
        <time>2017-08-25T10:06:02Z</time>
      </trkpt>
      <trkpt lat="45.94641" lon="4.84274">
        <ele>269</ele>
        <time>2017-08-25T10:06:03Z</time>
      </trkpt>
      <trkpt lat="45.9464" lon="4.84266">
        <ele>269</ele>
        <time>2017-08-25T10:06:04Z</time>
      </trkpt>
      <trkpt lat="45.94638" lon="4.84259">
        <ele>269</ele>
        <time>2017-08-25T10:06:05Z</time>
      </trkpt>
      <trkpt lat="45.94638" lon="4.84252">
        <ele>269</ele>
        <time>2017-08-25T10:06:06Z</time>
      </trkpt>
      <trkpt lat="45.94636" lon="4.84245">
        <ele>269</ele>
        <time>2017-08-25T10:06:07Z</time>
      </trkpt>
      <trkpt lat="45.94635" lon="4.84237">
        <ele>269</ele>
        <time>2017-08-25T10:06:08Z</time>
      </trkpt>
      <trkpt lat="45.94634" lon="4.8423">
        <ele>269</ele>
        <time>2017-08-25T10:06:09Z</time>
      </trkpt>
      <trkpt lat="45.94633" lon="4.84222">
        <ele>269</ele>
        <time>2017-08-25T10:06:10Z</time>
      </trkpt>
      <trkpt lat="45.94632" lon="4.84214">
        <ele>269</ele>
        <time>2017-08-25T10:06:11Z</time>
      </trkpt>
      <trkpt lat="45.94631" lon="4.84205">
        <ele>269</ele>
        <time>2017-08-25T10:06:12Z</time>
      </trkpt>
      <trkpt lat="45.94629" lon="4.84196">
        <ele>269</ele>
        <time>2017-08-25T10:06:13Z</time>
      </trkpt>
      <trkpt lat="45.94628" lon="4.84186">
        <ele>269</ele>
        <time>2017-08-25T10:06:14Z</time>
      </trkpt>
      <trkpt lat="45.94626" lon="4.84177">
        <ele>269</ele>
        <time>2017-08-25T10:06:15Z</time>
      </trkpt>
      <trkpt lat="45.94625" lon="4.84168">
        <ele>269</ele>
        <time>2017-08-25T10:06:16Z</time>
      </trkpt>
      <trkpt lat="45.94624" lon="4.84158">
        <ele>269</ele>
        <time>2017-08-25T10:06:17Z</time>
      </trkpt>
      <trkpt lat="45.94622" lon="4.8415">
        <ele>269</ele>
        <time>2017-08-25T10:06:18Z</time>
      </trkpt>
      <trkpt lat="45.94621" lon="4.84141">
        <ele>269</ele>
        <time>2017-08-25T10:06:19Z</time>
      </trkpt>
      <trkpt lat="45.94619" lon="4.84133">
        <ele>269</ele>
        <time>2017-08-25T10:06:20Z</time>
      </trkpt>
      <trkpt lat="45.94617" lon="4.84125">
        <ele>269</ele>
        <time>2017-08-25T10:06:21Z</time>
      </trkpt>
      <trkpt lat="45.94616" lon="4.84117">
        <ele>269</ele>
        <time>2017-08-25T10:06:22Z</time>
      </trkpt>
      <trkpt lat="45.94615" lon="4.8411">
        <ele>269</ele>
        <time>2017-08-25T10:06:23Z</time>
      </trkpt>
      <trkpt lat="45.94614" lon="4.84104">
        <ele>269</ele>
        <time>2017-08-25T10:06:24Z</time>
      </trkpt>
      <trkpt lat="45.94613" lon="4.84097">
        <ele>269</ele>
        <time>2017-08-25T10:06:25Z</time>
      </trkpt>
      <trkpt lat="45.94612" lon="4.8409">
        <ele>269</ele>
        <time>2017-08-25T10:06:26Z</time>
      </trkpt>
      <trkpt lat="45.94611" lon="4.84083">
        <ele>269</ele>
        <time>2017-08-25T10:06:27Z</time>
      </trkpt>
      <trkpt lat="45.94609" lon="4.84076">
        <ele>269</ele>
        <time>2017-08-25T10:06:28Z</time>
      </trkpt>
      <trkpt lat="45.94608" lon="4.84068">
        <ele>269</ele>
        <time>2017-08-25T10:06:29Z</time>
      </trkpt>
      <trkpt lat="45.94606" lon="4.8406">
        <ele>269</ele>
        <time>2017-08-25T10:06:30Z</time>
      </trkpt>
      <trkpt lat="45.94605" lon="4.84052">
        <ele>269</ele>
        <time>2017-08-25T10:06:31Z</time>
      </trkpt>
      <trkpt lat="45.94604" lon="4.84044">
        <ele>269</ele>
        <time>2017-08-25T10:06:32Z</time>
      </trkpt>
      <trkpt lat="45.94603" lon="4.84037">
        <ele>269</ele>
        <time>2017-08-25T10:06:33Z</time>
      </trkpt>
      <trkpt lat="45.94601" lon="4.8403">
        <ele>269</ele>
        <time>2017-08-25T10:06:34Z</time>
      </trkpt>
      <trkpt lat="45.94599" lon="4.84023">
        <ele>269</ele>
        <time>2017-08-25T10:06:35Z</time>
      </trkpt>
      <trkpt lat="45.94598" lon="4.84017">
        <ele>269</ele>
        <time>2017-08-25T10:06:36Z</time>
      </trkpt>
      <trkpt lat="45.94596" lon="4.8401">
        <ele>269</ele>
        <time>2017-08-25T10:06:37Z</time>
      </trkpt>
      <trkpt lat="45.94595" lon="4.84003">
        <ele>269</ele>
        <time>2017-08-25T10:06:38Z</time>
      </trkpt>
      <trkpt lat="45.94594" lon="4.83996">
        <ele>269</ele>
        <time>2017-08-25T10:06:39Z</time>
      </trkpt>
      <trkpt lat="45.94593" lon="4.83988">
        <ele>269</ele>
        <time>2017-08-25T10:06:40Z</time>
      </trkpt>
      <trkpt lat="45.94592" lon="4.8398">
        <ele>268</ele>
        <time>2017-08-25T10:06:41Z</time>
      </trkpt>
      <trkpt lat="45.94591" lon="4.83971">
        <ele>268</ele>
        <time>2017-08-25T10:06:42Z</time>
      </trkpt>
      <trkpt lat="45.9459" lon="4.83963">
        <ele>268</ele>
        <time>2017-08-25T10:06:43Z</time>
      </trkpt>
      <trkpt lat="45.94588" lon="4.83954">
        <ele>268</ele>
        <time>2017-08-25T10:06:44Z</time>
      </trkpt>
      <trkpt lat="45.94587" lon="4.83945">
        <ele>268</ele>
        <time>2017-08-25T10:06:45Z</time>
      </trkpt>
      <trkpt lat="45.94586" lon="4.83936">
        <ele>268</ele>
        <time>2017-08-25T10:06:46Z</time>
      </trkpt>
      <trkpt lat="45.94584" lon="4.83927">
        <ele>268</ele>
        <time>2017-08-25T10:06:47Z</time>
      </trkpt>
      <trkpt lat="45.94582" lon="4.83918">
        <ele>268</ele>
        <time>2017-08-25T10:06:48Z</time>
      </trkpt>
      <trkpt lat="45.94581" lon="4.83909">
        <ele>268</ele>
        <time>2017-08-25T10:06:49Z</time>
      </trkpt>
      <trkpt lat="45.94579" lon="4.83899">
        <ele>268</ele>
        <time>2017-08-25T10:06:50Z</time>
      </trkpt>
      <trkpt lat="45.94577" lon="4.83889">
        <ele>267</ele>
        <time>2017-08-25T10:06:51Z</time>
      </trkpt>
      <trkpt lat="45.94575" lon="4.83879">
        <ele>267</ele>
        <time>2017-08-25T10:06:52Z</time>
      </trkpt>
      <trkpt lat="45.94574" lon="4.83868">
        <ele>267</ele>
        <time>2017-08-25T10:06:53Z</time>
      </trkpt>
      <trkpt lat="45.94572" lon="4.83858">
        <ele>266</ele>
        <time>2017-08-25T10:06:54Z</time>
      </trkpt>
      <trkpt lat="45.94571" lon="4.83847">
        <ele>266</ele>
        <time>2017-08-25T10:06:55Z</time>
      </trkpt>
      <trkpt lat="45.94569" lon="4.83836">
        <ele>266</ele>
        <time>2017-08-25T10:06:56Z</time>
      </trkpt>
      <trkpt lat="45.94567" lon="4.83825">
        <ele>265</ele>
        <time>2017-08-25T10:06:57Z</time>
      </trkpt>
      <trkpt lat="45.94565" lon="4.83814">
        <ele>264</ele>
        <time>2017-08-25T10:06:58Z</time>
      </trkpt>
      <trkpt lat="45.94564" lon="4.83803">
        <ele>264</ele>
        <time>2017-08-25T10:06:59Z</time>
      </trkpt>
      <trkpt lat="45.94562" lon="4.83792">
        <ele>264</ele>
        <time>2017-08-25T10:07:00Z</time>
      </trkpt>
      <trkpt lat="45.94561" lon="4.83781">
        <ele>264</ele>
        <time>2017-08-25T10:07:01Z</time>
      </trkpt>
      <trkpt lat="45.9456" lon="4.83771">
        <ele>263</ele>
        <time>2017-08-25T10:07:02Z</time>
      </trkpt>
      <trkpt lat="45.94558" lon="4.8376">
        <ele>263</ele>
        <time>2017-08-25T10:07:03Z</time>
      </trkpt>
      <trkpt lat="45.94557" lon="4.8375">
        <ele>263</ele>
        <time>2017-08-25T10:07:04Z</time>
      </trkpt>
      <trkpt lat="45.94555" lon="4.8374">
        <ele>262</ele>
        <time>2017-08-25T10:07:05Z</time>
      </trkpt>
      <trkpt lat="45.94553" lon="4.83729">
        <ele>262</ele>
        <time>2017-08-25T10:07:06Z</time>
      </trkpt>
      <trkpt lat="45.94552" lon="4.83719">
        <ele>262</ele>
        <time>2017-08-25T10:07:07Z</time>
      </trkpt>
      <trkpt lat="45.9455" lon="4.83709">
        <ele>262</ele>
        <time>2017-08-25T10:07:08Z</time>
      </trkpt>
      <trkpt lat="45.94549" lon="4.83699">
        <ele>262</ele>
        <time>2017-08-25T10:07:09Z</time>
      </trkpt>
      <trkpt lat="45.94547" lon="4.8369">
        <ele>262</ele>
        <time>2017-08-25T10:07:10Z</time>
      </trkpt>
      <trkpt lat="45.94546" lon="4.83681">
        <ele>262</ele>
        <time>2017-08-25T10:07:11Z</time>
      </trkpt>
      <trkpt lat="45.94544" lon="4.83672">
        <ele>262</ele>
        <time>2017-08-25T10:07:12Z</time>
      </trkpt>
      <trkpt lat="45.94543" lon="4.83664">
        <ele>261</ele>
        <time>2017-08-25T10:07:13Z</time>
      </trkpt>
      <trkpt lat="45.94542" lon="4.83656">
        <ele>261</ele>
        <time>2017-08-25T10:07:14Z</time>
      </trkpt>
      <trkpt lat="45.9454" lon="4.83649">
        <ele>261</ele>
        <time>2017-08-25T10:07:15Z</time>
      </trkpt>
      <trkpt lat="45.9454" lon="4.83641">
        <ele>261</ele>
        <time>2017-08-25T10:07:16Z</time>
      </trkpt>
      <trkpt lat="45.94539" lon="4.83634">
        <ele>261</ele>
        <time>2017-08-25T10:07:17Z</time>
      </trkpt>
      <trkpt lat="45.94538" lon="4.83627">
        <ele>261</ele>
        <time>2017-08-25T10:07:18Z</time>
      </trkpt>
      <trkpt lat="45.94537" lon="4.83621">
        <ele>261</ele>
        <time>2017-08-25T10:07:19Z</time>
      </trkpt>
      <trkpt lat="45.94536" lon="4.83614">
        <ele>261</ele>
        <time>2017-08-25T10:07:20Z</time>
      </trkpt>
      <trkpt lat="45.94534" lon="4.83607">
        <ele>261</ele>
        <time>2017-08-25T10:07:21Z</time>
      </trkpt>
      <trkpt lat="45.94533" lon="4.83599">
        <ele>261</ele>
        <time>2017-08-25T10:07:22Z</time>
      </trkpt>
      <trkpt lat="45.94531" lon="4.83591">
        <ele>261</ele>
        <time>2017-08-25T10:07:23Z</time>
      </trkpt>
      <trkpt lat="45.94529" lon="4.83583">
        <ele>261</ele>
        <time>2017-08-25T10:07:24Z</time>
      </trkpt>
      <trkpt lat="45.94526" lon="4.83575">
        <ele>261</ele>
        <time>2017-08-25T10:07:25Z</time>
      </trkpt>
      <trkpt lat="45.94524" lon="4.83568">
        <ele>261</ele>
        <time>2017-08-25T10:07:26Z</time>
      </trkpt>
      <trkpt lat="45.94521" lon="4.83562">
        <ele>261</ele>
        <time>2017-08-25T10:07:27Z</time>
      </trkpt>
      <trkpt lat="45.94518" lon="4.83556">
        <ele>261</ele>
        <time>2017-08-25T10:07:28Z</time>
      </trkpt>
      <trkpt lat="45.94515" lon="4.83551">
        <ele>261</ele>
        <time>2017-08-25T10:07:29Z</time>
      </trkpt>
      <trkpt lat="45.94513" lon="4.83546">
        <ele>261</ele>
        <time>2017-08-25T10:07:30Z</time>
      </trkpt>
      <trkpt lat="45.94507" lon="4.83536">
        <ele>262</ele>
        <time>2017-08-25T10:07:32Z</time>
      </trkpt>
      <trkpt lat="45.94503" lon="4.83531">
        <ele>262</ele>
        <time>2017-08-25T10:07:33Z</time>
      </trkpt>
      <trkpt lat="45.945" lon="4.83525">
        <ele>262</ele>
        <time>2017-08-25T10:07:34Z</time>
      </trkpt>
      <trkpt lat="45.94496" lon="4.83519">
        <ele>262</ele>
        <time>2017-08-25T10:07:35Z</time>
      </trkpt>
      <trkpt lat="45.94492" lon="4.83513">
        <ele>262</ele>
        <time>2017-08-25T10:07:36Z</time>
      </trkpt>
      <trkpt lat="45.94487" lon="4.83506">
        <ele>262</ele>
        <time>2017-08-25T10:07:37Z</time>
      </trkpt>
      <trkpt lat="45.94483" lon="4.835">
        <ele>263</ele>
        <time>2017-08-25T10:07:38Z</time>
      </trkpt>
      <trkpt lat="45.94479" lon="4.83494">
        <ele>263</ele>
        <time>2017-08-25T10:07:39Z</time>
      </trkpt>
      <trkpt lat="45.94475" lon="4.83488">
        <ele>263</ele>
        <time>2017-08-25T10:07:40Z</time>
      </trkpt>
      <trkpt lat="45.94471" lon="4.83483">
        <ele>263</ele>
        <time>2017-08-25T10:07:41Z</time>
      </trkpt>
      <trkpt lat="45.94468" lon="4.83478">
        <ele>263</ele>
        <time>2017-08-25T10:07:42Z</time>
      </trkpt>
      <trkpt lat="45.94464" lon="4.83472">
        <ele>263</ele>
        <time>2017-08-25T10:07:43Z</time>
      </trkpt>
      <trkpt lat="45.94461" lon="4.83466">
        <ele>263</ele>
        <time>2017-08-25T10:07:44Z</time>
      </trkpt>
      <trkpt lat="45.94458" lon="4.83461">
        <ele>263</ele>
        <time>2017-08-25T10:07:45Z</time>
      </trkpt>
      <trkpt lat="45.94455" lon="4.83455">
        <ele>263</ele>
        <time>2017-08-25T10:07:46Z</time>
      </trkpt>
      <trkpt lat="45.94452" lon="4.83449">
        <ele>263</ele>
        <time>2017-08-25T10:07:47Z</time>
      </trkpt>
      <trkpt lat="45.94449" lon="4.83442">
        <ele>263</ele>
        <time>2017-08-25T10:07:48Z</time>
      </trkpt>
      <trkpt lat="45.94445" lon="4.83436">
        <ele>263</ele>
        <time>2017-08-25T10:07:49Z</time>
      </trkpt>
      <trkpt lat="45.94441" lon="4.8343">
        <ele>264</ele>
        <time>2017-08-25T10:07:50Z</time>
      </trkpt>
      <trkpt lat="45.94438" lon="4.83423">
        <ele>264</ele>
        <time>2017-08-25T10:07:51Z</time>
      </trkpt>
      <trkpt lat="45.94435" lon="4.83416">
        <ele>264</ele>
        <time>2017-08-25T10:07:52Z</time>
      </trkpt>
      <trkpt lat="45.94431" lon="4.83409">
        <ele>264</ele>
        <time>2017-08-25T10:07:53Z</time>
      </trkpt>
      <trkpt lat="45.94427" lon="4.83402">
        <ele>264</ele>
        <time>2017-08-25T10:07:54Z</time>
      </trkpt>
      <trkpt lat="45.94424" lon="4.83394">
        <ele>264</ele>
        <time>2017-08-25T10:07:55Z</time>
      </trkpt>
      <trkpt lat="45.94421" lon="4.83387">
        <ele>264</ele>
        <time>2017-08-25T10:07:56Z</time>
      </trkpt>
      <trkpt lat="45.94417" lon="4.83381">
        <ele>264</ele>
        <time>2017-08-25T10:07:57Z</time>
      </trkpt>
      <trkpt lat="45.94415" lon="4.83374">
        <ele>264</ele>
        <time>2017-08-25T10:07:58Z</time>
      </trkpt>
      <trkpt lat="45.94412" lon="4.83368">
        <ele>264</ele>
        <time>2017-08-25T10:07:59Z</time>
      </trkpt>
      <trkpt lat="45.9441" lon="4.83362">
        <ele>264</ele>
        <time>2017-08-25T10:08:00Z</time>
      </trkpt>
      <trkpt lat="45.94407" lon="4.83356">
        <ele>263</ele>
        <time>2017-08-25T10:08:01Z</time>
      </trkpt>
      <trkpt lat="45.94403" lon="4.83345">
        <ele>263</ele>
        <time>2017-08-25T10:08:03Z</time>
      </trkpt>
      <trkpt lat="45.94401" lon="4.8334">
        <ele>263</ele>
        <time>2017-08-25T10:08:04Z</time>
      </trkpt>
      <trkpt lat="45.94398" lon="4.83334">
        <ele>263</ele>
        <time>2017-08-25T10:08:05Z</time>
      </trkpt>
      <trkpt lat="45.94396" lon="4.83328">
        <ele>264</ele>
        <time>2017-08-25T10:08:06Z</time>
      </trkpt>
      <trkpt lat="45.94394" lon="4.83321">
        <ele>264</ele>
        <time>2017-08-25T10:08:07Z</time>
      </trkpt>
      <trkpt lat="45.94391" lon="4.83315">
        <ele>264</ele>
        <time>2017-08-25T10:08:08Z</time>
      </trkpt>
      <trkpt lat="45.94389" lon="4.83307">
        <ele>264</ele>
        <time>2017-08-25T10:08:09Z</time>
      </trkpt>
      <trkpt lat="45.94386" lon="4.833">
        <ele>264</ele>
        <time>2017-08-25T10:08:10Z</time>
      </trkpt>
      <trkpt lat="45.94383" lon="4.83293">
        <ele>264</ele>
        <time>2017-08-25T10:08:11Z</time>
      </trkpt>
      <trkpt lat="45.9438" lon="4.83285">
        <ele>264</ele>
        <time>2017-08-25T10:08:12Z</time>
      </trkpt>
      <trkpt lat="45.94378" lon="4.83277">
        <ele>264</ele>
        <time>2017-08-25T10:08:13Z</time>
      </trkpt>
      <trkpt lat="45.94375" lon="4.83269">
        <ele>264</ele>
        <time>2017-08-25T10:08:14Z</time>
      </trkpt>
      <trkpt lat="45.94372" lon="4.83262">
        <ele>264</ele>
        <time>2017-08-25T10:08:15Z</time>
      </trkpt>
      <trkpt lat="45.9437" lon="4.83255">
        <ele>265</ele>
        <time>2017-08-25T10:08:16Z</time>
      </trkpt>
      <trkpt lat="45.94368" lon="4.83248">
        <ele>265</ele>
        <time>2017-08-25T10:08:17Z</time>
      </trkpt>
      <trkpt lat="45.94366" lon="4.83243">
        <ele>265</ele>
        <time>2017-08-25T10:08:18Z</time>
      </trkpt>
      <trkpt lat="45.94361" lon="4.83232">
        <ele>266</ele>
        <time>2017-08-25T10:08:20Z</time>
      </trkpt>
      <trkpt lat="45.94359" lon="4.83227">
        <ele>266</ele>
        <time>2017-08-25T10:08:21Z</time>
      </trkpt>
      <trkpt lat="45.94356" lon="4.83215">
        <ele>266</ele>
        <time>2017-08-25T10:08:23Z</time>
      </trkpt>
      <trkpt lat="45.94354" lon="4.83208">
        <ele>266</ele>
        <time>2017-08-25T10:08:24Z</time>
      </trkpt>
      <trkpt lat="45.94352" lon="4.83201">
        <ele>266</ele>
        <time>2017-08-25T10:08:25Z</time>
      </trkpt>
      <trkpt lat="45.94349" lon="4.83194">
        <ele>266</ele>
        <time>2017-08-25T10:08:26Z</time>
      </trkpt>
      <trkpt lat="45.94347" lon="4.83188">
        <ele>266</ele>
        <time>2017-08-25T10:08:27Z</time>
      </trkpt>
      <trkpt lat="45.94346" lon="4.83181">
        <ele>266</ele>
        <time>2017-08-25T10:08:28Z</time>
      </trkpt>
      <trkpt lat="45.94344" lon="4.83175">
        <ele>266</ele>
        <time>2017-08-25T10:08:29Z</time>
      </trkpt>
      <trkpt lat="45.94341" lon="4.83169">
        <ele>266</ele>
        <time>2017-08-25T10:08:30Z</time>
      </trkpt>
      <trkpt lat="45.94337" lon="4.83158">
        <ele>266</ele>
        <time>2017-08-25T10:08:32Z</time>
      </trkpt>
      <trkpt lat="45.94336" lon="4.83153">
        <ele>266</ele>
        <time>2017-08-25T10:08:33Z</time>
      </trkpt>
      <trkpt lat="45.94333" lon="4.8314">
        <ele>266</ele>
        <time>2017-08-25T10:08:35Z</time>
      </trkpt>
      <trkpt lat="45.94331" lon="4.83135">
        <ele>266</ele>
        <time>2017-08-25T10:08:36Z</time>
      </trkpt>
      <trkpt lat="45.94328" lon="4.83124">
        <ele>266</ele>
        <time>2017-08-25T10:08:38Z</time>
      </trkpt>
      <trkpt lat="45.94326" lon="4.83118">
        <ele>266</ele>
        <time>2017-08-25T10:08:39Z</time>
      </trkpt>
      <trkpt lat="45.94324" lon="4.83112">
        <ele>266</ele>
        <time>2017-08-25T10:08:40Z</time>
      </trkpt>
      <trkpt lat="45.94322" lon="4.83106">
        <ele>266</ele>
        <time>2017-08-25T10:08:41Z</time>
      </trkpt>
      <trkpt lat="45.9432" lon="4.83099">
        <ele>266</ele>
        <time>2017-08-25T10:08:42Z</time>
      </trkpt>
      <trkpt lat="45.94318" lon="4.83092">
        <ele>266</ele>
        <time>2017-08-25T10:08:43Z</time>
      </trkpt>
      <trkpt lat="45.94316" lon="4.83086">
        <ele>266</ele>
        <time>2017-08-25T10:08:44Z</time>
      </trkpt>
      <trkpt lat="45.94314" lon="4.8308">
        <ele>266</ele>
        <time>2017-08-25T10:08:45Z</time>
      </trkpt>
      <trkpt lat="45.94311" lon="4.83067">
        <ele>266</ele>
        <time>2017-08-25T10:08:47Z</time>
      </trkpt>
      <trkpt lat="45.94309" lon="4.83062">
        <ele>266</ele>
        <time>2017-08-25T10:08:48Z</time>
      </trkpt>
      <trkpt lat="45.94307" lon="4.83051">
        <ele>266</ele>
        <time>2017-08-25T10:08:50Z</time>
      </trkpt>
      <trkpt lat="45.94306" lon="4.83045">
        <ele>266</ele>
        <time>2017-08-25T10:08:51Z</time>
      </trkpt>
      <trkpt lat="45.94305" lon="4.83038">
        <ele>266</ele>
        <time>2017-08-25T10:08:52Z</time>
      </trkpt>
      <trkpt lat="45.94303" lon="4.83032">
        <ele>266</ele>
        <time>2017-08-25T10:08:53Z</time>
      </trkpt>
      <trkpt lat="45.943" lon="4.83019">
        <ele>266</ele>
        <time>2017-08-25T10:08:55Z</time>
      </trkpt>
      <trkpt lat="45.94299" lon="4.83014">
        <ele>266</ele>
        <time>2017-08-25T10:08:56Z</time>
      </trkpt>
      <trkpt lat="45.94297" lon="4.83002">
        <ele>266</ele>
        <time>2017-08-25T10:08:58Z</time>
      </trkpt>
      <trkpt lat="45.94296" lon="4.82997">
        <ele>265</ele>
        <time>2017-08-25T10:08:59Z</time>
      </trkpt>
      <trkpt lat="45.94294" lon="4.82986">
        <ele>265</ele>
        <time>2017-08-25T10:09:01Z</time>
      </trkpt>
      <trkpt lat="45.94292" lon="4.82981">
        <ele>265</ele>
        <time>2017-08-25T10:09:02Z</time>
      </trkpt>
      <trkpt lat="45.94289" lon="4.82971">
        <ele>265</ele>
        <time>2017-08-25T10:09:04Z</time>
      </trkpt>
      <trkpt lat="45.94287" lon="4.82966">
        <ele>265</ele>
        <time>2017-08-25T10:09:05Z</time>
      </trkpt>
      <trkpt lat="45.94285" lon="4.82956">
        <ele>265</ele>
        <time>2017-08-25T10:09:07Z</time>
      </trkpt>
      <trkpt lat="45.94284" lon="4.8295">
        <ele>265</ele>
        <time>2017-08-25T10:09:08Z</time>
      </trkpt>
      <trkpt lat="45.94284" lon="4.82943">
        <ele>265</ele>
        <time>2017-08-25T10:09:09Z</time>
      </trkpt>
      <trkpt lat="45.94286" lon="4.82936">
        <ele>265</ele>
        <time>2017-08-25T10:09:10Z</time>
      </trkpt>
      <trkpt lat="45.94288" lon="4.82924">
        <ele>265</ele>
        <time>2017-08-25T10:09:12Z</time>
      </trkpt>
      <trkpt lat="45.94289" lon="4.82918">
        <ele>265</ele>
        <time>2017-08-25T10:09:13Z</time>
      </trkpt>
      <trkpt lat="45.9429" lon="4.82906">
        <ele>265</ele>
        <time>2017-08-25T10:09:15Z</time>
      </trkpt>
      <trkpt lat="45.94291" lon="4.82899">
        <ele>265</ele>
        <time>2017-08-25T10:09:16Z</time>
      </trkpt>
      <trkpt lat="45.94292" lon="4.82892">
        <ele>265</ele>
        <time>2017-08-25T10:09:17Z</time>
      </trkpt>
      <trkpt lat="45.94292" lon="4.82884">
        <ele>265</ele>
        <time>2017-08-25T10:09:18Z</time>
      </trkpt>
      <trkpt lat="45.94293" lon="4.82876">
        <ele>265</ele>
        <time>2017-08-25T10:09:19Z</time>
      </trkpt>
      <trkpt lat="45.94293" lon="4.82868">
        <ele>265</ele>
        <time>2017-08-25T10:09:20Z</time>
      </trkpt>
      <trkpt lat="45.94293" lon="4.82859">
        <ele>265</ele>
        <time>2017-08-25T10:09:21Z</time>
      </trkpt>
      <trkpt lat="45.94293" lon="4.82851">
        <ele>265</ele>
        <time>2017-08-25T10:09:22Z</time>
      </trkpt>
      <trkpt lat="45.94294" lon="4.82843">
        <ele>265</ele>
        <time>2017-08-25T10:09:23Z</time>
      </trkpt>
      <trkpt lat="45.94294" lon="4.82836">
        <ele>265</ele>
        <time>2017-08-25T10:09:24Z</time>
      </trkpt>
      <trkpt lat="45.94294" lon="4.82828">
        <ele>265</ele>
        <time>2017-08-25T10:09:25Z</time>
      </trkpt>
      <trkpt lat="45.94294" lon="4.8282">
        <ele>265</ele>
        <time>2017-08-25T10:09:26Z</time>
      </trkpt>
      <trkpt lat="45.94294" lon="4.82813">
        <ele>265</ele>
        <time>2017-08-25T10:09:27Z</time>
      </trkpt>
      <trkpt lat="45.94294" lon="4.82806">
        <ele>265</ele>
        <time>2017-08-25T10:09:28Z</time>
      </trkpt>
      <trkpt lat="45.94294" lon="4.82799">
        <ele>265</ele>
        <time>2017-08-25T10:09:29Z</time>
      </trkpt>
      <trkpt lat="45.94295" lon="4.82791">
        <ele>265</ele>
        <time>2017-08-25T10:09:30Z</time>
      </trkpt>
      <trkpt lat="45.94295" lon="4.82784">
        <ele>265</ele>
        <time>2017-08-25T10:09:31Z</time>
      </trkpt>
      <trkpt lat="45.94295" lon="4.82777">
        <ele>265</ele>
        <time>2017-08-25T10:09:32Z</time>
      </trkpt>
      <trkpt lat="45.94295" lon="4.8277">
        <ele>265</ele>
        <time>2017-08-25T10:09:33Z</time>
      </trkpt>
      <trkpt lat="45.94295" lon="4.82762">
        <ele>265</ele>
        <time>2017-08-25T10:09:34Z</time>
      </trkpt>
      <trkpt lat="45.94295" lon="4.82752">
        <ele>265</ele>
        <time>2017-08-25T10:09:35Z</time>
      </trkpt>
      <trkpt lat="45.94295" lon="4.82743">
        <ele>265</ele>
        <time>2017-08-25T10:09:36Z</time>
      </trkpt>
      <trkpt lat="45.94295" lon="4.82733">
        <ele>265</ele>
        <time>2017-08-25T10:09:37Z</time>
      </trkpt>
      <trkpt lat="45.94295" lon="4.82724">
        <ele>265</ele>
        <time>2017-08-25T10:09:38Z</time>
      </trkpt>
      <trkpt lat="45.94296" lon="4.82715">
        <ele>265</ele>
        <time>2017-08-25T10:09:39Z</time>
      </trkpt>
      <trkpt lat="45.94297" lon="4.82706">
        <ele>265</ele>
        <time>2017-08-25T10:09:40Z</time>
      </trkpt>
      <trkpt lat="45.94297" lon="4.82697">
        <ele>265</ele>
        <time>2017-08-25T10:09:41Z</time>
      </trkpt>
      <trkpt lat="45.94297" lon="4.82688">
        <ele>265</ele>
        <time>2017-08-25T10:09:42Z</time>
      </trkpt>
      <trkpt lat="45.94298" lon="4.8268">
        <ele>265</ele>
        <time>2017-08-25T10:09:43Z</time>
      </trkpt>
      <trkpt lat="45.94297" lon="4.82672">
        <ele>265</ele>
        <time>2017-08-25T10:09:44Z</time>
      </trkpt>
      <trkpt lat="45.94297" lon="4.82664">
        <ele>265</ele>
        <time>2017-08-25T10:09:45Z</time>
      </trkpt>
      <trkpt lat="45.94297" lon="4.82657">
        <ele>265</ele>
        <time>2017-08-25T10:09:46Z</time>
      </trkpt>
      <trkpt lat="45.94297" lon="4.8265">
        <ele>265</ele>
        <time>2017-08-25T10:09:47Z</time>
      </trkpt>
      <trkpt lat="45.94297" lon="4.82642">
        <ele>265</ele>
        <time>2017-08-25T10:09:48Z</time>
      </trkpt>
      <trkpt lat="45.94297" lon="4.82634">
        <ele>265</ele>
        <time>2017-08-25T10:09:49Z</time>
      </trkpt>
      <trkpt lat="45.94297" lon="4.82626">
        <ele>265</ele>
        <time>2017-08-25T10:09:50Z</time>
      </trkpt>
      <trkpt lat="45.94297" lon="4.82617">
        <ele>265</ele>
        <time>2017-08-25T10:09:51Z</time>
      </trkpt>
      <trkpt lat="45.94297" lon="4.82608">
        <ele>265</ele>
        <time>2017-08-25T10:09:52Z</time>
      </trkpt>
      <trkpt lat="45.94297" lon="4.82599">
        <ele>265</ele>
        <time>2017-08-25T10:09:53Z</time>
      </trkpt>
      <trkpt lat="45.94297" lon="4.82591">
        <ele>265</ele>
        <time>2017-08-25T10:09:54Z</time>
      </trkpt>
      <trkpt lat="45.94297" lon="4.82582">
        <ele>264</ele>
        <time>2017-08-25T10:09:55Z</time>
      </trkpt>
      <trkpt lat="45.94297" lon="4.82574">
        <ele>264</ele>
        <time>2017-08-25T10:09:56Z</time>
      </trkpt>
      <trkpt lat="45.94297" lon="4.82566">
        <ele>264</ele>
        <time>2017-08-25T10:09:57Z</time>
      </trkpt>
      <trkpt lat="45.94297" lon="4.82559">
        <ele>264</ele>
        <time>2017-08-25T10:09:58Z</time>
      </trkpt>
      <trkpt lat="45.94297" lon="4.82551">
        <ele>264</ele>
        <time>2017-08-25T10:09:59Z</time>
      </trkpt>
      <trkpt lat="45.94297" lon="4.82543">
        <ele>264</ele>
        <time>2017-08-25T10:10:00Z</time>
      </trkpt>
      <trkpt lat="45.94297" lon="4.82535">
        <ele>264</ele>
        <time>2017-08-25T10:10:01Z</time>
      </trkpt>
      <trkpt lat="45.94298" lon="4.82527">
        <ele>264</ele>
        <time>2017-08-25T10:10:02Z</time>
      </trkpt>
      <trkpt lat="45.94298" lon="4.82518">
        <ele>264</ele>
        <time>2017-08-25T10:10:03Z</time>
      </trkpt>
      <trkpt lat="45.94298" lon="4.8251">
        <ele>264</ele>
        <time>2017-08-25T10:10:04Z</time>
      </trkpt>
      <trkpt lat="45.94299" lon="4.82501">
        <ele>264</ele>
        <time>2017-08-25T10:10:05Z</time>
      </trkpt>
      <trkpt lat="45.94299" lon="4.82493">
        <ele>264</ele>
        <time>2017-08-25T10:10:06Z</time>
      </trkpt>
      <trkpt lat="45.94298" lon="4.82485">
        <ele>264</ele>
        <time>2017-08-25T10:10:07Z</time>
      </trkpt>
      <trkpt lat="45.94298" lon="4.82476">
        <ele>264</ele>
        <time>2017-08-25T10:10:08Z</time>
      </trkpt>
      <trkpt lat="45.94298" lon="4.82468">
        <ele>264</ele>
        <time>2017-08-25T10:10:09Z</time>
      </trkpt>
      <trkpt lat="45.94297" lon="4.82459">
        <ele>264</ele>
        <time>2017-08-25T10:10:10Z</time>
      </trkpt>
      <trkpt lat="45.94297" lon="4.8245">
        <ele>264</ele>
        <time>2017-08-25T10:10:11Z</time>
      </trkpt>
      <trkpt lat="45.94297" lon="4.82442">
        <ele>264</ele>
        <time>2017-08-25T10:10:12Z</time>
      </trkpt>
      <trkpt lat="45.94296" lon="4.82434">
        <ele>264</ele>
        <time>2017-08-25T10:10:13Z</time>
      </trkpt>
      <trkpt lat="45.94296" lon="4.82425">
        <ele>264</ele>
        <time>2017-08-25T10:10:14Z</time>
      </trkpt>
      <trkpt lat="45.94295" lon="4.82417">
        <ele>264</ele>
        <time>2017-08-25T10:10:15Z</time>
      </trkpt>
      <trkpt lat="45.94295" lon="4.82409">
        <ele>264</ele>
        <time>2017-08-25T10:10:16Z</time>
      </trkpt>
      <trkpt lat="45.94294" lon="4.82401">
        <ele>264</ele>
        <time>2017-08-25T10:10:17Z</time>
      </trkpt>
      <trkpt lat="45.94294" lon="4.82393">
        <ele>264</ele>
        <time>2017-08-25T10:10:18Z</time>
      </trkpt>
      <trkpt lat="45.94293" lon="4.82385">
        <ele>264</ele>
        <time>2017-08-25T10:10:19Z</time>
      </trkpt>
      <trkpt lat="45.94293" lon="4.82377">
        <ele>264</ele>
        <time>2017-08-25T10:10:20Z</time>
      </trkpt>
      <trkpt lat="45.94292" lon="4.82369">
        <ele>264</ele>
        <time>2017-08-25T10:10:21Z</time>
      </trkpt>
      <trkpt lat="45.94291" lon="4.82361">
        <ele>264</ele>
        <time>2017-08-25T10:10:22Z</time>
      </trkpt>
      <trkpt lat="45.9429" lon="4.82353">
        <ele>264</ele>
        <time>2017-08-25T10:10:23Z</time>
      </trkpt>
      <trkpt lat="45.9429" lon="4.82345">
        <ele>264</ele>
        <time>2017-08-25T10:10:24Z</time>
      </trkpt>
      <trkpt lat="45.9429" lon="4.82337">
        <ele>264</ele>
        <time>2017-08-25T10:10:25Z</time>
      </trkpt>
      <trkpt lat="45.9429" lon="4.82329">
        <ele>265</ele>
        <time>2017-08-25T10:10:26Z</time>
      </trkpt>
      <trkpt lat="45.94289" lon="4.82322">
        <ele>265</ele>
        <time>2017-08-25T10:10:27Z</time>
      </trkpt>
      <trkpt lat="45.94289" lon="4.82314">
        <ele>265</ele>
        <time>2017-08-25T10:10:28Z</time>
      </trkpt>
      <trkpt lat="45.94288" lon="4.82307">
        <ele>265</ele>
        <time>2017-08-25T10:10:29Z</time>
      </trkpt>
      <trkpt lat="45.94287" lon="4.82298">
        <ele>265</ele>
        <time>2017-08-25T10:10:30Z</time>
      </trkpt>
      <trkpt lat="45.94286" lon="4.82289">
        <ele>265</ele>
        <time>2017-08-25T10:10:31Z</time>
      </trkpt>
      <trkpt lat="45.94285" lon="4.8228">
        <ele>265</ele>
        <time>2017-08-25T10:10:32Z</time>
      </trkpt>
      <trkpt lat="45.94284" lon="4.82271">
        <ele>265</ele>
        <time>2017-08-25T10:10:33Z</time>
      </trkpt>
      <trkpt lat="45.94284" lon="4.82262">
        <ele>265</ele>
        <time>2017-08-25T10:10:34Z</time>
      </trkpt>
      <trkpt lat="45.94284" lon="4.82254">
        <ele>265</ele>
        <time>2017-08-25T10:10:35Z</time>
      </trkpt>
      <trkpt lat="45.94284" lon="4.82245">
        <ele>264</ele>
        <time>2017-08-25T10:10:36Z</time>
      </trkpt>
      <trkpt lat="45.94283" lon="4.82236">
        <ele>264</ele>
        <time>2017-08-25T10:10:37Z</time>
      </trkpt>
      <trkpt lat="45.94283" lon="4.82228">
        <ele>264</ele>
        <time>2017-08-25T10:10:38Z</time>
      </trkpt>
      <trkpt lat="45.94282" lon="4.82219">
        <ele>264</ele>
        <time>2017-08-25T10:10:39Z</time>
      </trkpt>
      <trkpt lat="45.94282" lon="4.82211">
        <ele>264</ele>
        <time>2017-08-25T10:10:40Z</time>
      </trkpt>
      <trkpt lat="45.94281" lon="4.82203">
        <ele>264</ele>
        <time>2017-08-25T10:10:41Z</time>
      </trkpt>
      <trkpt lat="45.9428" lon="4.82195">
        <ele>264</ele>
        <time>2017-08-25T10:10:42Z</time>
      </trkpt>
      <trkpt lat="45.94278" lon="4.82187">
        <ele>264</ele>
        <time>2017-08-25T10:10:43Z</time>
      </trkpt>
      <trkpt lat="45.94277" lon="4.8218">
        <ele>264</ele>
        <time>2017-08-25T10:10:44Z</time>
      </trkpt>
      <trkpt lat="45.94275" lon="4.82172">
        <ele>264</ele>
        <time>2017-08-25T10:10:45Z</time>
      </trkpt>
      <trkpt lat="45.94274" lon="4.82164">
        <ele>263</ele>
        <time>2017-08-25T10:10:46Z</time>
      </trkpt>
      <trkpt lat="45.94273" lon="4.82156">
        <ele>263</ele>
        <time>2017-08-25T10:10:47Z</time>
      </trkpt>
      <trkpt lat="45.94271" lon="4.82147">
        <ele>263</ele>
        <time>2017-08-25T10:10:48Z</time>
      </trkpt>
      <trkpt lat="45.94269" lon="4.82139">
        <ele>263</ele>
        <time>2017-08-25T10:10:49Z</time>
      </trkpt>
      <trkpt lat="45.94267" lon="4.82129">
        <ele>263</ele>
        <time>2017-08-25T10:10:50Z</time>
      </trkpt>
      <trkpt lat="45.94265" lon="4.82119">
        <ele>263</ele>
        <time>2017-08-25T10:10:51Z</time>
      </trkpt>
      <trkpt lat="45.94263" lon="4.8211">
        <ele>263</ele>
        <time>2017-08-25T10:10:52Z</time>
      </trkpt>
      <trkpt lat="45.94261" lon="4.821">
        <ele>262</ele>
        <time>2017-08-25T10:10:53Z</time>
      </trkpt>
      <trkpt lat="45.9426" lon="4.82091">
        <ele>262</ele>
        <time>2017-08-25T10:10:54Z</time>
      </trkpt>
      <trkpt lat="45.94258" lon="4.82082">
        <ele>262</ele>
        <time>2017-08-25T10:10:55Z</time>
      </trkpt>
      <trkpt lat="45.94256" lon="4.82074">
        <ele>262</ele>
        <time>2017-08-25T10:10:56Z</time>
      </trkpt>
      <trkpt lat="45.94255" lon="4.82065">
        <ele>262</ele>
        <time>2017-08-25T10:10:57Z</time>
      </trkpt>
      <trkpt lat="45.94254" lon="4.82057">
        <ele>262</ele>
        <time>2017-08-25T10:10:58Z</time>
      </trkpt>
      <trkpt lat="45.94253" lon="4.82048">
        <ele>262</ele>
        <time>2017-08-25T10:10:59Z</time>
      </trkpt>
      <trkpt lat="45.94252" lon="4.82041">
        <ele>262</ele>
        <time>2017-08-25T10:11:00Z</time>
      </trkpt>
      <trkpt lat="45.94251" lon="4.82033">
        <ele>262</ele>
        <time>2017-08-25T10:11:01Z</time>
      </trkpt>
      <trkpt lat="45.9425" lon="4.82024">
        <ele>263</ele>
        <time>2017-08-25T10:11:02Z</time>
      </trkpt>
      <trkpt lat="45.94248" lon="4.82016">
        <ele>263</ele>
        <time>2017-08-25T10:11:03Z</time>
      </trkpt>
      <trkpt lat="45.94246" lon="4.82006">
        <ele>263</ele>
        <time>2017-08-25T10:11:04Z</time>
      </trkpt>
      <trkpt lat="45.94245" lon="4.81998">
        <ele>262</ele>
        <time>2017-08-25T10:11:05Z</time>
      </trkpt>
      <trkpt lat="45.94243" lon="4.81989">
        <ele>263</ele>
        <time>2017-08-25T10:11:06Z</time>
      </trkpt>
      <trkpt lat="45.94241" lon="4.81981">
        <ele>263</ele>
        <time>2017-08-25T10:11:07Z</time>
      </trkpt>
      <trkpt lat="45.9424" lon="4.81973">
        <ele>263</ele>
        <time>2017-08-25T10:11:08Z</time>
      </trkpt>
      <trkpt lat="45.94238" lon="4.81964">
        <ele>264</ele>
        <time>2017-08-25T10:11:09Z</time>
      </trkpt>
      <trkpt lat="45.94236" lon="4.81956">
        <ele>264</ele>
        <time>2017-08-25T10:11:10Z</time>
      </trkpt>
      <trkpt lat="45.94234" lon="4.81948">
        <ele>264</ele>
        <time>2017-08-25T10:11:11Z</time>
      </trkpt>
      <trkpt lat="45.94232" lon="4.8194">
        <ele>264</ele>
        <time>2017-08-25T10:11:12Z</time>
      </trkpt>
      <trkpt lat="45.9423" lon="4.81932">
        <ele>264</ele>
        <time>2017-08-25T10:11:13Z</time>
      </trkpt>
      <trkpt lat="45.94228" lon="4.81925">
        <ele>264</ele>
        <time>2017-08-25T10:11:14Z</time>
      </trkpt>
      <trkpt lat="45.94226" lon="4.81917">
        <ele>264</ele>
        <time>2017-08-25T10:11:15Z</time>
      </trkpt>
      <trkpt lat="45.94225" lon="4.81909">
        <ele>264</ele>
        <time>2017-08-25T10:11:16Z</time>
      </trkpt>
      <trkpt lat="45.94223" lon="4.81901">
        <ele>264</ele>
        <time>2017-08-25T10:11:17Z</time>
      </trkpt>
      <trkpt lat="45.94221" lon="4.81893">
        <ele>265</ele>
        <time>2017-08-25T10:11:18Z</time>
      </trkpt>
      <trkpt lat="45.9422" lon="4.81885">
        <ele>265</ele>
        <time>2017-08-25T10:11:19Z</time>
      </trkpt>
      <trkpt lat="45.94218" lon="4.81877">
        <ele>265</ele>
        <time>2017-08-25T10:11:20Z</time>
      </trkpt>
      <trkpt lat="45.94217" lon="4.8187">
        <ele>265</ele>
        <time>2017-08-25T10:11:21Z</time>
      </trkpt>
      <trkpt lat="45.94215" lon="4.81863">
        <ele>265</ele>
        <time>2017-08-25T10:11:22Z</time>
      </trkpt>
      <trkpt lat="45.94214" lon="4.81856">
        <ele>265</ele>
        <time>2017-08-25T10:11:23Z</time>
      </trkpt>
      <trkpt lat="45.94213" lon="4.81849">
        <ele>265</ele>
        <time>2017-08-25T10:11:24Z</time>
      </trkpt>
      <trkpt lat="45.94212" lon="4.81843">
        <ele>265</ele>
        <time>2017-08-25T10:11:25Z</time>
      </trkpt>
      <trkpt lat="45.9421" lon="4.81836">
        <ele>265</ele>
        <time>2017-08-25T10:11:26Z</time>
      </trkpt>
      <trkpt lat="45.94208" lon="4.81828">
        <ele>266</ele>
        <time>2017-08-25T10:11:27Z</time>
      </trkpt>
      <trkpt lat="45.94207" lon="4.81821">
        <ele>266</ele>
        <time>2017-08-25T10:11:28Z</time>
      </trkpt>
      <trkpt lat="45.94206" lon="4.81814">
        <ele>266</ele>
        <time>2017-08-25T10:11:29Z</time>
      </trkpt>
      <trkpt lat="45.94206" lon="4.81807">
        <ele>266</ele>
        <time>2017-08-25T10:11:30Z</time>
      </trkpt>
      <trkpt lat="45.94206" lon="4.81799">
        <ele>266</ele>
        <time>2017-08-25T10:11:31Z</time>
      </trkpt>
      <trkpt lat="45.94207" lon="4.81792">
        <ele>266</ele>
        <time>2017-08-25T10:11:32Z</time>
      </trkpt>
      <trkpt lat="45.94208" lon="4.81785">
        <ele>265</ele>
        <time>2017-08-25T10:11:33Z</time>
      </trkpt>
      <trkpt lat="45.94209" lon="4.81779">
        <ele>265</ele>
        <time>2017-08-25T10:11:34Z</time>
      </trkpt>
      <trkpt lat="45.94211" lon="4.81769">
        <ele>265</ele>
        <time>2017-08-25T10:11:37Z</time>
      </trkpt>
      <trkpt lat="45.94213" lon="4.81766">
        <ele>265</ele>
        <time>2017-08-25T10:11:38Z</time>
      </trkpt>
      <trkpt lat="45.94217" lon="4.8176">
        <ele>265</ele>
        <time>2017-08-25T10:11:40Z</time>
      </trkpt>
      <trkpt lat="45.9422" lon="4.81756">
        <ele>265</ele>
        <time>2017-08-25T10:11:41Z</time>
      </trkpt>
      <trkpt lat="45.94223" lon="4.81745">
        <ele>265</ele>
        <time>2017-08-25T10:11:43Z</time>
      </trkpt>
      <trkpt lat="45.94225" lon="4.81738">
        <ele>265</ele>
        <time>2017-08-25T10:11:44Z</time>
      </trkpt>
      <trkpt lat="45.94225" lon="4.8173">
        <ele>265</ele>
        <time>2017-08-25T10:11:45Z</time>
      </trkpt>
      <trkpt lat="45.94224" lon="4.81723">
        <ele>265</ele>
        <time>2017-08-25T10:11:46Z</time>
      </trkpt>
      <trkpt lat="45.94219" lon="4.81714">
        <ele>266</ele>
        <time>2017-08-25T10:11:48Z</time>
      </trkpt>
      <trkpt lat="45.94217" lon="4.81711">
        <ele>266</ele>
        <time>2017-08-25T10:11:49Z</time>
      </trkpt>
      <trkpt lat="45.94209" lon="4.81709">
        <ele>266</ele>
        <time>2017-08-25T10:11:51Z</time>
      </trkpt>
      <trkpt lat="45.94203" lon="4.81706">
        <ele>266</ele>
        <time>2017-08-25T10:11:52Z</time>
      </trkpt>
      <trkpt lat="45.94199" lon="4.81703">
        <ele>267</ele>
        <time>2017-08-25T10:11:53Z</time>
      </trkpt>
      <trkpt lat="45.94195" lon="4.81696">
        <ele>267</ele>
        <time>2017-08-25T10:11:54Z</time>
      </trkpt>
      <trkpt lat="45.9419" lon="4.81689">
        <ele>267</ele>
        <time>2017-08-25T10:11:55Z</time>
      </trkpt>
      <trkpt lat="45.94187" lon="4.8168">
        <ele>267</ele>
        <time>2017-08-25T10:11:56Z</time>
      </trkpt>
      <trkpt lat="45.94184" lon="4.81671">
        <ele>268</ele>
        <time>2017-08-25T10:11:57Z</time>
      </trkpt>
      <trkpt lat="45.94182" lon="4.81661">
        <ele>268</ele>
        <time>2017-08-25T10:11:58Z</time>
      </trkpt>
      <trkpt lat="45.94179" lon="4.81651">
        <ele>268</ele>
        <time>2017-08-25T10:11:59Z</time>
      </trkpt>
      <trkpt lat="45.94176" lon="4.81641">
        <ele>268</ele>
        <time>2017-08-25T10:12:00Z</time>
      </trkpt>
      <trkpt lat="45.94174" lon="4.81631">
        <ele>267</ele>
        <time>2017-08-25T10:12:01Z</time>
      </trkpt>
      <trkpt lat="45.94172" lon="4.81621">
        <ele>267</ele>
        <time>2017-08-25T10:12:02Z</time>
      </trkpt>
      <trkpt lat="45.9417" lon="4.81611">
        <ele>267</ele>
        <time>2017-08-25T10:12:03Z</time>
      </trkpt>
      <trkpt lat="45.94169" lon="4.816">
        <ele>267</ele>
        <time>2017-08-25T10:12:04Z</time>
      </trkpt>
      <trkpt lat="45.94167" lon="4.81591">
        <ele>267</ele>
        <time>2017-08-25T10:12:05Z</time>
      </trkpt>
      <trkpt lat="45.94167" lon="4.81581">
        <ele>267</ele>
        <time>2017-08-25T10:12:06Z</time>
      </trkpt>
      <trkpt lat="45.94166" lon="4.8157">
        <ele>266</ele>
        <time>2017-08-25T10:12:07Z</time>
      </trkpt>
      <trkpt lat="45.94166" lon="4.81559">
        <ele>265</ele>
        <time>2017-08-25T10:12:08Z</time>
      </trkpt>
      <trkpt lat="45.94165" lon="4.81549">
        <ele>264</ele>
        <time>2017-08-25T10:12:09Z</time>
      </trkpt>
      <trkpt lat="45.94166" lon="4.81538">
        <ele>264</ele>
        <time>2017-08-25T10:12:10Z</time>
      </trkpt>
      <trkpt lat="45.94166" lon="4.81526">
        <ele>264</ele>
        <time>2017-08-25T10:12:11Z</time>
      </trkpt>
      <trkpt lat="45.94168" lon="4.81514">
        <ele>264</ele>
        <time>2017-08-25T10:12:12Z</time>
      </trkpt>
      <trkpt lat="45.94169" lon="4.81503">
        <ele>263</ele>
        <time>2017-08-25T10:12:13Z</time>
      </trkpt>
      <trkpt lat="45.94172" lon="4.8149">
        <ele>263</ele>
        <time>2017-08-25T10:12:14Z</time>
      </trkpt>
      <trkpt lat="45.94172" lon="4.81476">
        <ele>262</ele>
        <time>2017-08-25T10:12:15Z</time>
      </trkpt>
      <trkpt lat="45.94172" lon="4.81462">
        <ele>262</ele>
        <time>2017-08-25T10:12:16Z</time>
      </trkpt>
      <trkpt lat="45.94172" lon="4.81447">
        <ele>261</ele>
        <time>2017-08-25T10:12:17Z</time>
      </trkpt>
      <trkpt lat="45.94173" lon="4.81433">
        <ele>259</ele>
        <time>2017-08-25T10:12:18Z</time>
      </trkpt>
      <trkpt lat="45.94171" lon="4.81418">
        <ele>257</ele>
        <time>2017-08-25T10:12:19Z</time>
      </trkpt>
      <trkpt lat="45.94173" lon="4.81405">
        <ele>257</ele>
        <time>2017-08-25T10:12:20Z</time>
      </trkpt>
      <trkpt lat="45.94173" lon="4.8139">
        <ele>258</ele>
        <time>2017-08-25T10:12:21Z</time>
      </trkpt>
      <trkpt lat="45.94172" lon="4.81375">
        <ele>258</ele>
        <time>2017-08-25T10:12:22Z</time>
      </trkpt>
      <trkpt lat="45.94172" lon="4.81361">
        <ele>257</ele>
        <time>2017-08-25T10:12:23Z</time>
      </trkpt>
      <trkpt lat="45.94173" lon="4.81346">
        <ele>255</ele>
        <time>2017-08-25T10:12:24Z</time>
      </trkpt>
      <trkpt lat="45.94173" lon="4.8133">
        <ele>254</ele>
        <time>2017-08-25T10:12:25Z</time>
      </trkpt>
      <trkpt lat="45.94173" lon="4.81313">
        <ele>255</ele>
        <time>2017-08-25T10:12:26Z</time>
      </trkpt>
      <trkpt lat="45.94173" lon="4.81297">
        <ele>256</ele>
        <time>2017-08-25T10:12:27Z</time>
      </trkpt>
      <trkpt lat="45.94171" lon="4.81281">
        <ele>255</ele>
        <time>2017-08-25T10:12:28Z</time>
      </trkpt>
      <trkpt lat="45.9417" lon="4.81265">
        <ele>253</ele>
        <time>2017-08-25T10:12:29Z</time>
      </trkpt>
      <trkpt lat="45.94168" lon="4.81248">
        <ele>251</ele>
        <time>2017-08-25T10:12:30Z</time>
      </trkpt>
      <trkpt lat="45.94166" lon="4.81231">
        <ele>246</ele>
        <time>2017-08-25T10:12:31Z</time>
      </trkpt>
      <trkpt lat="45.94163" lon="4.81214">
        <ele>245</ele>
        <time>2017-08-25T10:12:32Z</time>
      </trkpt>
      <trkpt lat="45.9416" lon="4.81198">
        <ele>245</ele>
        <time>2017-08-25T10:12:33Z</time>
      </trkpt>
      <trkpt lat="45.94155" lon="4.81181">
        <ele>245</ele>
        <time>2017-08-25T10:12:34Z</time>
      </trkpt>
      <trkpt lat="45.9415" lon="4.81165">
        <ele>246</ele>
        <time>2017-08-25T10:12:35Z</time>
      </trkpt>
      <trkpt lat="45.94144" lon="4.81149">
        <ele>245</ele>
        <time>2017-08-25T10:12:36Z</time>
      </trkpt>
      <trkpt lat="45.94137" lon="4.81134">
        <ele>244</ele>
        <time>2017-08-25T10:12:37Z</time>
      </trkpt>
      <trkpt lat="45.94131" lon="4.81119">
        <ele>244</ele>
        <time>2017-08-25T10:12:38Z</time>
      </trkpt>
      <trkpt lat="45.94124" lon="4.81106">
        <ele>244</ele>
        <time>2017-08-25T10:12:39Z</time>
      </trkpt>
      <trkpt lat="45.94116" lon="4.81093">
        <ele>243</ele>
        <time>2017-08-25T10:12:40Z</time>
      </trkpt>
      <trkpt lat="45.94109" lon="4.8108">
        <ele>243</ele>
        <time>2017-08-25T10:12:41Z</time>
      </trkpt>
      <trkpt lat="45.94103" lon="4.81066">
        <ele>243</ele>
        <time>2017-08-25T10:12:42Z</time>
      </trkpt>
      <trkpt lat="45.94097" lon="4.81052">
        <ele>244</ele>
        <time>2017-08-25T10:12:43Z</time>
      </trkpt>
      <trkpt lat="45.94093" lon="4.81037">
        <ele>244</ele>
        <time>2017-08-25T10:12:44Z</time>
      </trkpt>
      <trkpt lat="45.94089" lon="4.81022">
        <ele>243</ele>
        <time>2017-08-25T10:12:45Z</time>
      </trkpt>
      <trkpt lat="45.94086" lon="4.81006">
        <ele>241</ele>
        <time>2017-08-25T10:12:46Z</time>
      </trkpt>
      <trkpt lat="45.94083" lon="4.8099">
        <ele>237</ele>
        <time>2017-08-25T10:12:47Z</time>
      </trkpt>
      <trkpt lat="45.94081" lon="4.80975">
        <ele>234</ele>
        <time>2017-08-25T10:12:48Z</time>
      </trkpt>
      <trkpt lat="45.94079" lon="4.80959">
        <ele>233</ele>
        <time>2017-08-25T10:12:49Z</time>
      </trkpt>
      <trkpt lat="45.94076" lon="4.80944">
        <ele>233</ele>
        <time>2017-08-25T10:12:50Z</time>
      </trkpt>
      <trkpt lat="45.94074" lon="4.80928">
        <ele>235</ele>
        <time>2017-08-25T10:12:51Z</time>
      </trkpt>
      <trkpt lat="45.94072" lon="4.80913">
        <ele>235</ele>
        <time>2017-08-25T10:12:52Z</time>
      </trkpt>
      <trkpt lat="45.94068" lon="4.80898">
        <ele>233</ele>
        <time>2017-08-25T10:12:53Z</time>
      </trkpt>
      <trkpt lat="45.94066" lon="4.80882">
        <ele>231</ele>
        <time>2017-08-25T10:12:54Z</time>
      </trkpt>
      <trkpt lat="45.94064" lon="4.80867">
        <ele>231</ele>
        <time>2017-08-25T10:12:55Z</time>
      </trkpt>
      <trkpt lat="45.94062" lon="4.8085">
        <ele>232</ele>
        <time>2017-08-25T10:12:56Z</time>
      </trkpt>
      <trkpt lat="45.94061" lon="4.80834">
        <ele>233</ele>
        <time>2017-08-25T10:12:57Z</time>
      </trkpt>
      <trkpt lat="45.94059" lon="4.80819">
        <ele>231</ele>
        <time>2017-08-25T10:12:58Z</time>
      </trkpt>
      <trkpt lat="45.94057" lon="4.80804">
        <ele>230</ele>
        <time>2017-08-25T10:12:59Z</time>
      </trkpt>
      <trkpt lat="45.94054" lon="4.80788">
        <ele>230</ele>
        <time>2017-08-25T10:13:00Z</time>
      </trkpt>
      <trkpt lat="45.94052" lon="4.80773">
        <ele>229</ele>
        <time>2017-08-25T10:13:01Z</time>
      </trkpt>
      <trkpt lat="45.9405" lon="4.80759">
        <ele>229</ele>
        <time>2017-08-25T10:13:02Z</time>
      </trkpt>
      <trkpt lat="45.94049" lon="4.80745">
        <ele>228</ele>
        <time>2017-08-25T10:13:03Z</time>
      </trkpt>
      <trkpt lat="45.94047" lon="4.8073">
        <ele>228</ele>
        <time>2017-08-25T10:13:04Z</time>
      </trkpt>
      <trkpt lat="45.94045" lon="4.80715">
        <ele>227</ele>
        <time>2017-08-25T10:13:05Z</time>
      </trkpt>
      <trkpt lat="45.94044" lon="4.807">
        <ele>227</ele>
        <time>2017-08-25T10:13:06Z</time>
      </trkpt>
      <trkpt lat="45.94043" lon="4.80684">
        <ele>227</ele>
        <time>2017-08-25T10:13:07Z</time>
      </trkpt>
      <trkpt lat="45.94042" lon="4.80669">
        <ele>226</ele>
        <time>2017-08-25T10:13:08Z</time>
      </trkpt>
      <trkpt lat="45.9404" lon="4.80653">
        <ele>226</ele>
        <time>2017-08-25T10:13:09Z</time>
      </trkpt>
      <trkpt lat="45.94038" lon="4.80638">
        <ele>226</ele>
        <time>2017-08-25T10:13:10Z</time>
      </trkpt>
      <trkpt lat="45.94036" lon="4.80623">
        <ele>226</ele>
        <time>2017-08-25T10:13:11Z</time>
      </trkpt>
      <trkpt lat="45.94035" lon="4.80608">
        <ele>226</ele>
        <time>2017-08-25T10:13:12Z</time>
      </trkpt>
      <trkpt lat="45.94034" lon="4.80592">
        <ele>226</ele>
        <time>2017-08-25T10:13:13Z</time>
      </trkpt>
      <trkpt lat="45.94034" lon="4.80576">
        <ele>226</ele>
        <time>2017-08-25T10:13:14Z</time>
      </trkpt>
      <trkpt lat="45.94033" lon="4.80561">
        <ele>226</ele>
        <time>2017-08-25T10:13:15Z</time>
      </trkpt>
      <trkpt lat="45.94033" lon="4.80546">
        <ele>226</ele>
        <time>2017-08-25T10:13:16Z</time>
      </trkpt>
      <trkpt lat="45.94032" lon="4.80531">
        <ele>226</ele>
        <time>2017-08-25T10:13:17Z</time>
      </trkpt>
      <trkpt lat="45.94032" lon="4.80516">
        <ele>225</ele>
        <time>2017-08-25T10:13:18Z</time>
      </trkpt>
      <trkpt lat="45.94032" lon="4.80501">
        <ele>225</ele>
        <time>2017-08-25T10:13:19Z</time>
      </trkpt>
      <trkpt lat="45.94031" lon="4.80486">
        <ele>224</ele>
        <time>2017-08-25T10:13:20Z</time>
      </trkpt>
      <trkpt lat="45.94029" lon="4.80472">
        <ele>224</ele>
        <time>2017-08-25T10:13:21Z</time>
      </trkpt>
      <trkpt lat="45.94027" lon="4.80457">
        <ele>224</ele>
        <time>2017-08-25T10:13:22Z</time>
      </trkpt>
      <trkpt lat="45.94025" lon="4.80441">
        <ele>223</ele>
        <time>2017-08-25T10:13:23Z</time>
      </trkpt>
      <trkpt lat="45.94022" lon="4.80426">
        <ele>222</ele>
        <time>2017-08-25T10:13:24Z</time>
      </trkpt>
      <trkpt lat="45.94018" lon="4.80412">
        <ele>218</ele>
        <time>2017-08-25T10:13:25Z</time>
      </trkpt>
      <trkpt lat="45.94014" lon="4.80399">
        <ele>217</ele>
        <time>2017-08-25T10:13:26Z</time>
      </trkpt>
      <trkpt lat="45.9401" lon="4.80385">
        <ele>217</ele>
        <time>2017-08-25T10:13:27Z</time>
      </trkpt>
      <trkpt lat="45.94005" lon="4.80369">
        <ele>215</ele>
        <time>2017-08-25T10:13:28Z</time>
      </trkpt>
      <trkpt lat="45.94001" lon="4.80354">
        <ele>213</ele>
        <time>2017-08-25T10:13:29Z</time>
      </trkpt>
      <trkpt lat="45.93996" lon="4.80337">
        <ele>206</ele>
        <time>2017-08-25T10:13:30Z</time>
      </trkpt>
      <trkpt lat="45.93991" lon="4.80322">
        <ele>204</ele>
        <time>2017-08-25T10:13:31Z</time>
      </trkpt>
      <trkpt lat="45.93987" lon="4.80306">
        <ele>203</ele>
        <time>2017-08-25T10:13:32Z</time>
      </trkpt>
      <trkpt lat="45.93983" lon="4.80291">
        <ele>203</ele>
        <time>2017-08-25T10:13:33Z</time>
      </trkpt>
      <trkpt lat="45.93979" lon="4.80277">
        <ele>203</ele>
        <time>2017-08-25T10:13:34Z</time>
      </trkpt>
      <trkpt lat="45.93974" lon="4.80262">
        <ele>203</ele>
        <time>2017-08-25T10:13:35Z</time>
      </trkpt>
      <trkpt lat="45.93971" lon="4.80249">
        <ele>204</ele>
        <time>2017-08-25T10:13:36Z</time>
      </trkpt>
      <trkpt lat="45.93967" lon="4.80235">
        <ele>205</ele>
        <time>2017-08-25T10:13:37Z</time>
      </trkpt>
      <trkpt lat="45.93964" lon="4.80222">
        <ele>205</ele>
        <time>2017-08-25T10:13:38Z</time>
      </trkpt>
      <trkpt lat="45.9396" lon="4.8021">
        <ele>205</ele>
        <time>2017-08-25T10:13:39Z</time>
      </trkpt>
      <trkpt lat="45.93957" lon="4.80197">
        <ele>206</ele>
        <time>2017-08-25T10:13:40Z</time>
      </trkpt>
      <trkpt lat="45.93954" lon="4.80185">
        <ele>206</ele>
        <time>2017-08-25T10:13:41Z</time>
      </trkpt>
      <trkpt lat="45.93952" lon="4.80174">
        <ele>206</ele>
        <time>2017-08-25T10:13:42Z</time>
      </trkpt>
      <trkpt lat="45.9395" lon="4.80162">
        <ele>208</ele>
        <time>2017-08-25T10:13:43Z</time>
      </trkpt>
      <trkpt lat="45.93949" lon="4.80152">
        <ele>208</ele>
        <time>2017-08-25T10:13:44Z</time>
      </trkpt>
      <trkpt lat="45.93948" lon="4.80142">
        <ele>209</ele>
        <time>2017-08-25T10:13:45Z</time>
      </trkpt>
      <trkpt lat="45.93947" lon="4.80132">
        <ele>209</ele>
        <time>2017-08-25T10:13:46Z</time>
      </trkpt>
      <trkpt lat="45.93946" lon="4.80122">
        <ele>209</ele>
        <time>2017-08-25T10:13:47Z</time>
      </trkpt>
      <trkpt lat="45.93946" lon="4.80112">
        <ele>209</ele>
        <time>2017-08-25T10:13:48Z</time>
      </trkpt>
      <trkpt lat="45.93945" lon="4.80102">
        <ele>209</ele>
        <time>2017-08-25T10:13:49Z</time>
      </trkpt>
      <trkpt lat="45.93945" lon="4.80093">
        <ele>209</ele>
        <time>2017-08-25T10:13:50Z</time>
      </trkpt>
      <trkpt lat="45.93945" lon="4.80083">
        <ele>208</ele>
        <time>2017-08-25T10:13:51Z</time>
      </trkpt>
      <trkpt lat="45.93945" lon="4.80074">
        <ele>208</ele>
        <time>2017-08-25T10:13:52Z</time>
      </trkpt>
      <trkpt lat="45.93945" lon="4.80065">
        <ele>208</ele>
        <time>2017-08-25T10:13:53Z</time>
      </trkpt>
      <trkpt lat="45.93945" lon="4.80056">
        <ele>208</ele>
        <time>2017-08-25T10:13:54Z</time>
      </trkpt>
      <trkpt lat="45.93946" lon="4.80046">
        <ele>208</ele>
        <time>2017-08-25T10:13:55Z</time>
      </trkpt>
      <trkpt lat="45.93947" lon="4.80037">
        <ele>207</ele>
        <time>2017-08-25T10:13:56Z</time>
      </trkpt>
      <trkpt lat="45.93948" lon="4.80027">
        <ele>207</ele>
        <time>2017-08-25T10:13:57Z</time>
      </trkpt>
      <trkpt lat="45.93949" lon="4.80017">
        <ele>207</ele>
        <time>2017-08-25T10:13:58Z</time>
      </trkpt>
      <trkpt lat="45.9395" lon="4.80007">
        <ele>207</ele>
        <time>2017-08-25T10:13:59Z</time>
      </trkpt>
      <trkpt lat="45.93952" lon="4.79996">
        <ele>205</ele>
        <time>2017-08-25T10:14:00Z</time>
      </trkpt>
      <trkpt lat="45.93953" lon="4.79985">
        <ele>205</ele>
        <time>2017-08-25T10:14:01Z</time>
      </trkpt>
      <trkpt lat="45.93954" lon="4.79974">
        <ele>205</ele>
        <time>2017-08-25T10:14:02Z</time>
      </trkpt>
      <trkpt lat="45.93956" lon="4.79963">
        <ele>205</ele>
        <time>2017-08-25T10:14:03Z</time>
      </trkpt>
      <trkpt lat="45.93957" lon="4.79951">
        <ele>205</ele>
        <time>2017-08-25T10:14:04Z</time>
      </trkpt>
      <trkpt lat="45.93958" lon="4.79939">
        <ele>205</ele>
        <time>2017-08-25T10:14:05Z</time>
      </trkpt>
      <trkpt lat="45.93959" lon="4.79927">
        <ele>205</ele>
        <time>2017-08-25T10:14:06Z</time>
      </trkpt>
      <trkpt lat="45.93961" lon="4.79916">
        <ele>206</ele>
        <time>2017-08-25T10:14:07Z</time>
      </trkpt>
      <trkpt lat="45.93962" lon="4.79905">
        <ele>206</ele>
        <time>2017-08-25T10:14:08Z</time>
      </trkpt>
      <trkpt lat="45.93964" lon="4.79894">
        <ele>206</ele>
        <time>2017-08-25T10:14:09Z</time>
      </trkpt>
      <trkpt lat="45.93965" lon="4.79883">
        <ele>206</ele>
        <time>2017-08-25T10:14:10Z</time>
      </trkpt>
      <trkpt lat="45.93967" lon="4.79873">
        <ele>206</ele>
        <time>2017-08-25T10:14:11Z</time>
      </trkpt>
      <trkpt lat="45.93968" lon="4.79863">
        <ele>206</ele>
        <time>2017-08-25T10:14:12Z</time>
      </trkpt>
      <trkpt lat="45.93969" lon="4.79854">
        <ele>206</ele>
        <time>2017-08-25T10:14:13Z</time>
      </trkpt>
      <trkpt lat="45.9397" lon="4.79845">
        <ele>207</ele>
        <time>2017-08-25T10:14:14Z</time>
      </trkpt>
      <trkpt lat="45.93972" lon="4.79836">
        <ele>207</ele>
        <time>2017-08-25T10:14:15Z</time>
      </trkpt>
      <trkpt lat="45.93973" lon="4.79828">
        <ele>207</ele>
        <time>2017-08-25T10:14:16Z</time>
      </trkpt>
      <trkpt lat="45.93976" lon="4.7982">
        <ele>207</ele>
        <time>2017-08-25T10:14:17Z</time>
      </trkpt>
      <trkpt lat="45.93977" lon="4.79811">
        <ele>207</ele>
        <time>2017-08-25T10:14:18Z</time>
      </trkpt>
      <trkpt lat="45.93978" lon="4.79801">
        <ele>207</ele>
        <time>2017-08-25T10:14:19Z</time>
      </trkpt>
      <trkpt lat="45.93979" lon="4.79791">
        <ele>207</ele>
        <time>2017-08-25T10:14:20Z</time>
      </trkpt>
      <trkpt lat="45.93979" lon="4.79781">
        <ele>207</ele>
        <time>2017-08-25T10:14:21Z</time>
      </trkpt>
      <trkpt lat="45.93979" lon="4.79771">
        <ele>207</ele>
        <time>2017-08-25T10:14:22Z</time>
      </trkpt>
      <trkpt lat="45.93978" lon="4.7976">
        <ele>207</ele>
        <time>2017-08-25T10:14:23Z</time>
      </trkpt>
      <trkpt lat="45.93977" lon="4.7975">
        <ele>207</ele>
        <time>2017-08-25T10:14:24Z</time>
      </trkpt>
      <trkpt lat="45.93976" lon="4.79741">
        <ele>207</ele>
        <time>2017-08-25T10:14:25Z</time>
      </trkpt>
      <trkpt lat="45.93974" lon="4.79731">
        <ele>207</ele>
        <time>2017-08-25T10:14:26Z</time>
      </trkpt>
      <trkpt lat="45.93973" lon="4.79721">
        <ele>207</ele>
        <time>2017-08-25T10:14:27Z</time>
      </trkpt>
      <trkpt lat="45.93972" lon="4.79712">
        <ele>207</ele>
        <time>2017-08-25T10:14:28Z</time>
      </trkpt>
      <trkpt lat="45.93971" lon="4.79703">
        <ele>207</ele>
        <time>2017-08-25T10:14:29Z</time>
      </trkpt>
      <trkpt lat="45.9397" lon="4.79693">
        <ele>207</ele>
        <time>2017-08-25T10:14:30Z</time>
      </trkpt>
      <trkpt lat="45.9397" lon="4.79684">
        <ele>207</ele>
        <time>2017-08-25T10:14:31Z</time>
      </trkpt>
      <trkpt lat="45.93969" lon="4.79674">
        <ele>207</ele>
        <time>2017-08-25T10:14:32Z</time>
      </trkpt>
      <trkpt lat="45.93968" lon="4.79664">
        <ele>208</ele>
        <time>2017-08-25T10:14:33Z</time>
      </trkpt>
      <trkpt lat="45.93967" lon="4.79655">
        <ele>208</ele>
        <time>2017-08-25T10:14:34Z</time>
      </trkpt>
      <trkpt lat="45.93966" lon="4.79646">
        <ele>207</ele>
        <time>2017-08-25T10:14:35Z</time>
      </trkpt>
      <trkpt lat="45.93966" lon="4.79636">
        <ele>207</ele>
        <time>2017-08-25T10:14:36Z</time>
      </trkpt>
      <trkpt lat="45.93965" lon="4.79627">
        <ele>207</ele>
        <time>2017-08-25T10:14:37Z</time>
      </trkpt>
      <trkpt lat="45.93964" lon="4.79618">
        <ele>207</ele>
        <time>2017-08-25T10:14:38Z</time>
      </trkpt>
      <trkpt lat="45.93964" lon="4.79609">
        <ele>207</ele>
        <time>2017-08-25T10:14:39Z</time>
      </trkpt>
      <trkpt lat="45.93963" lon="4.796">
        <ele>207</ele>
        <time>2017-08-25T10:14:40Z</time>
      </trkpt>
      <trkpt lat="45.93963" lon="4.7959">
        <ele>207</ele>
        <time>2017-08-25T10:14:41Z</time>
      </trkpt>
      <trkpt lat="45.93963" lon="4.79581">
        <ele>206</ele>
        <time>2017-08-25T10:14:42Z</time>
      </trkpt>
      <trkpt lat="45.93962" lon="4.79572">
        <ele>206</ele>
        <time>2017-08-25T10:14:43Z</time>
      </trkpt>
      <trkpt lat="45.93962" lon="4.79562">
        <ele>206</ele>
        <time>2017-08-25T10:14:44Z</time>
      </trkpt>
      <trkpt lat="45.93961" lon="4.79553">
        <ele>205</ele>
        <time>2017-08-25T10:14:45Z</time>
      </trkpt>
      <trkpt lat="45.93961" lon="4.79543">
        <ele>205</ele>
        <time>2017-08-25T10:14:46Z</time>
      </trkpt>
      <trkpt lat="45.93961" lon="4.79533">
        <ele>205</ele>
        <time>2017-08-25T10:14:47Z</time>
      </trkpt>
      <trkpt lat="45.93961" lon="4.79523">
        <ele>205</ele>
        <time>2017-08-25T10:14:48Z</time>
      </trkpt>
      <trkpt lat="45.93962" lon="4.79513">
        <ele>205</ele>
        <time>2017-08-25T10:14:49Z</time>
      </trkpt>
      <trkpt lat="45.93961" lon="4.79503">
        <ele>205</ele>
        <time>2017-08-25T10:14:50Z</time>
      </trkpt>
      <trkpt lat="45.93961" lon="4.79493">
        <ele>203</ele>
        <time>2017-08-25T10:14:51Z</time>
      </trkpt>
      <trkpt lat="45.93961" lon="4.79483">
        <ele>203</ele>
        <time>2017-08-25T10:14:52Z</time>
      </trkpt>
      <trkpt lat="45.93961" lon="4.79472">
        <ele>203</ele>
        <time>2017-08-25T10:14:53Z</time>
      </trkpt>
      <trkpt lat="45.9396" lon="4.79462">
        <ele>203</ele>
        <time>2017-08-25T10:14:54Z</time>
      </trkpt>
      <trkpt lat="45.9396" lon="4.79451">
        <ele>203</ele>
        <time>2017-08-25T10:14:55Z</time>
      </trkpt>
      <trkpt lat="45.9396" lon="4.79441">
        <ele>203</ele>
        <time>2017-08-25T10:14:56Z</time>
      </trkpt>
      <trkpt lat="45.9396" lon="4.79431">
        <ele>203</ele>
        <time>2017-08-25T10:14:57Z</time>
      </trkpt>
      <trkpt lat="45.9396" lon="4.79421">
        <ele>203</ele>
        <time>2017-08-25T10:14:58Z</time>
      </trkpt>
      <trkpt lat="45.9396" lon="4.7941">
        <ele>202</ele>
        <time>2017-08-25T10:14:59Z</time>
      </trkpt>
      <trkpt lat="45.9396" lon="4.79399">
        <ele>202</ele>
        <time>2017-08-25T10:15:00Z</time>
      </trkpt>
      <trkpt lat="45.9396" lon="4.79387">
        <ele>202</ele>
        <time>2017-08-25T10:15:01Z</time>
      </trkpt>
      <trkpt lat="45.9396" lon="4.79376">
        <ele>201</ele>
        <time>2017-08-25T10:15:02Z</time>
      </trkpt>
      <trkpt lat="45.93959" lon="4.79365">
        <ele>201</ele>
        <time>2017-08-25T10:15:03Z</time>
      </trkpt>
      <trkpt lat="45.93959" lon="4.79354">
        <ele>201</ele>
        <time>2017-08-25T10:15:04Z</time>
      </trkpt>
      <trkpt lat="45.93959" lon="4.79343">
        <ele>201</ele>
        <time>2017-08-25T10:15:05Z</time>
      </trkpt>
      <trkpt lat="45.93959" lon="4.79331">
        <ele>199</ele>
        <time>2017-08-25T10:15:06Z</time>
      </trkpt>
      <trkpt lat="45.93959" lon="4.7932">
        <ele>199</ele>
        <time>2017-08-25T10:15:07Z</time>
      </trkpt>
      <trkpt lat="45.93958" lon="4.79308">
        <ele>199</ele>
        <time>2017-08-25T10:15:08Z</time>
      </trkpt>
      <trkpt lat="45.93957" lon="4.79296">
        <ele>199</ele>
        <time>2017-08-25T10:15:09Z</time>
      </trkpt>
      <trkpt lat="45.93957" lon="4.79286">
        <ele>199</ele>
        <time>2017-08-25T10:15:10Z</time>
      </trkpt>
      <trkpt lat="45.93957" lon="4.79275">
        <ele>198</ele>
        <time>2017-08-25T10:15:11Z</time>
      </trkpt>
      <trkpt lat="45.93957" lon="4.79264">
        <ele>198</ele>
        <time>2017-08-25T10:15:12Z</time>
      </trkpt>
      <trkpt lat="45.93957" lon="4.79253">
        <ele>198</ele>
        <time>2017-08-25T10:15:13Z</time>
      </trkpt>
      <trkpt lat="45.93957" lon="4.79243">
        <ele>197</ele>
        <time>2017-08-25T10:15:14Z</time>
      </trkpt>
      <trkpt lat="45.93957" lon="4.79233">
        <ele>197</ele>
        <time>2017-08-25T10:15:15Z</time>
      </trkpt>
      <trkpt lat="45.93957" lon="4.79224">
        <ele>197</ele>
        <time>2017-08-25T10:15:16Z</time>
      </trkpt>
      <trkpt lat="45.93956" lon="4.79214">
        <ele>197</ele>
        <time>2017-08-25T10:15:17Z</time>
      </trkpt>
      <trkpt lat="45.93956" lon="4.79202">
        <ele>197</ele>
        <time>2017-08-25T10:15:18Z</time>
      </trkpt>
      <trkpt lat="45.93956" lon="4.79191">
        <ele>197</ele>
        <time>2017-08-25T10:15:19Z</time>
      </trkpt>
      <trkpt lat="45.93955" lon="4.79179">
        <ele>197</ele>
        <time>2017-08-25T10:15:20Z</time>
      </trkpt>
      <trkpt lat="45.93956" lon="4.79167">
        <ele>197</ele>
        <time>2017-08-25T10:15:21Z</time>
      </trkpt>
      <trkpt lat="45.93956" lon="4.79154">
        <ele>197</ele>
        <time>2017-08-25T10:15:22Z</time>
      </trkpt>
      <trkpt lat="45.93956" lon="4.79142">
        <ele>197</ele>
        <time>2017-08-25T10:15:23Z</time>
      </trkpt>
      <trkpt lat="45.93955" lon="4.7913">
        <ele>197</ele>
        <time>2017-08-25T10:15:24Z</time>
      </trkpt>
      <trkpt lat="45.93954" lon="4.79117">
        <ele>197</ele>
        <time>2017-08-25T10:15:25Z</time>
      </trkpt>
      <trkpt lat="45.93954" lon="4.79105">
        <ele>197</ele>
        <time>2017-08-25T10:15:26Z</time>
      </trkpt>
      <trkpt lat="45.93954" lon="4.79093">
        <ele>197</ele>
        <time>2017-08-25T10:15:27Z</time>
      </trkpt>
      <trkpt lat="45.93954" lon="4.79081">
        <ele>196</ele>
        <time>2017-08-25T10:15:28Z</time>
      </trkpt>
      <trkpt lat="45.93953" lon="4.79069">
        <ele>196</ele>
        <time>2017-08-25T10:15:29Z</time>
      </trkpt>
      <trkpt lat="45.93952" lon="4.79057">
        <ele>196</ele>
        <time>2017-08-25T10:15:30Z</time>
      </trkpt>
      <trkpt lat="45.93951" lon="4.79045">
        <ele>196</ele>
        <time>2017-08-25T10:15:31Z</time>
      </trkpt>
      <trkpt lat="45.9395" lon="4.79034">
        <ele>196</ele>
        <time>2017-08-25T10:15:32Z</time>
      </trkpt>
      <trkpt lat="45.93949" lon="4.79022">
        <ele>195</ele>
        <time>2017-08-25T10:15:33Z</time>
      </trkpt>
      <trkpt lat="45.93949" lon="4.79011">
        <ele>195</ele>
        <time>2017-08-25T10:15:34Z</time>
      </trkpt>
      <trkpt lat="45.93948" lon="4.78999">
        <ele>194</ele>
        <time>2017-08-25T10:15:35Z</time>
      </trkpt>
      <trkpt lat="45.93948" lon="4.78988">
        <ele>194</ele>
        <time>2017-08-25T10:15:36Z</time>
      </trkpt>
      <trkpt lat="45.93947" lon="4.78978">
        <ele>194</ele>
        <time>2017-08-25T10:15:37Z</time>
      </trkpt>
      <trkpt lat="45.93947" lon="4.78968">
        <ele>194</ele>
        <time>2017-08-25T10:15:38Z</time>
      </trkpt>
      <trkpt lat="45.93947" lon="4.78958">
        <ele>194</ele>
        <time>2017-08-25T10:15:39Z</time>
      </trkpt>
      <trkpt lat="45.93947" lon="4.78948">
        <ele>194</ele>
        <time>2017-08-25T10:15:40Z</time>
      </trkpt>
      <trkpt lat="45.93947" lon="4.78937">
        <ele>194</ele>
        <time>2017-08-25T10:15:41Z</time>
      </trkpt>
      <trkpt lat="45.93947" lon="4.78927">
        <ele>194</ele>
        <time>2017-08-25T10:15:42Z</time>
      </trkpt>
      <trkpt lat="45.93947" lon="4.78917">
        <ele>194</ele>
        <time>2017-08-25T10:15:43Z</time>
      </trkpt>
      <trkpt lat="45.93946" lon="4.78907">
        <ele>193</ele>
        <time>2017-08-25T10:15:44Z</time>
      </trkpt>
      <trkpt lat="45.93946" lon="4.78897">
        <ele>194</ele>
        <time>2017-08-25T10:15:45Z</time>
      </trkpt>
      <trkpt lat="45.93945" lon="4.78886">
        <ele>194</ele>
        <time>2017-08-25T10:15:46Z</time>
      </trkpt>
      <trkpt lat="45.93945" lon="4.78876">
        <ele>194</ele>
        <time>2017-08-25T10:15:47Z</time>
      </trkpt>
      <trkpt lat="45.93944" lon="4.78866">
        <ele>194</ele>
        <time>2017-08-25T10:15:48Z</time>
      </trkpt>
      <trkpt lat="45.93945" lon="4.78856">
        <ele>194</ele>
        <time>2017-08-25T10:15:49Z</time>
      </trkpt>
      <trkpt lat="45.93945" lon="4.78847">
        <ele>194</ele>
        <time>2017-08-25T10:15:50Z</time>
      </trkpt>
      <trkpt lat="45.93944" lon="4.78837">
        <ele>194</ele>
        <time>2017-08-25T10:15:51Z</time>
      </trkpt>
      <trkpt lat="45.93944" lon="4.78828">
        <ele>194</ele>
        <time>2017-08-25T10:15:52Z</time>
      </trkpt>
      <trkpt lat="45.93943" lon="4.78819">
        <ele>194</ele>
        <time>2017-08-25T10:15:53Z</time>
      </trkpt>
      <trkpt lat="45.93942" lon="4.78809">
        <ele>194</ele>
        <time>2017-08-25T10:15:54Z</time>
      </trkpt>
      <trkpt lat="45.93942" lon="4.788">
        <ele>194</ele>
        <time>2017-08-25T10:15:55Z</time>
      </trkpt>
      <trkpt lat="45.93942" lon="4.78791">
        <ele>194</ele>
        <time>2017-08-25T10:15:56Z</time>
      </trkpt>
      <trkpt lat="45.93942" lon="4.78782">
        <ele>194</ele>
        <time>2017-08-25T10:15:57Z</time>
      </trkpt>
      <trkpt lat="45.93941" lon="4.78773">
        <ele>194</ele>
        <time>2017-08-25T10:15:58Z</time>
      </trkpt>
      <trkpt lat="45.93941" lon="4.78764">
        <ele>194</ele>
        <time>2017-08-25T10:15:59Z</time>
      </trkpt>
      <trkpt lat="45.93942" lon="4.78755">
        <ele>194</ele>
        <time>2017-08-25T10:16:00Z</time>
      </trkpt>
      <trkpt lat="45.93942" lon="4.78747">
        <ele>194</ele>
        <time>2017-08-25T10:16:01Z</time>
      </trkpt>
      <trkpt lat="45.93942" lon="4.78739">
        <ele>194</ele>
        <time>2017-08-25T10:16:02Z</time>
      </trkpt>
      <trkpt lat="45.93942" lon="4.78731">
        <ele>194</ele>
        <time>2017-08-25T10:16:03Z</time>
      </trkpt>
      <trkpt lat="45.93942" lon="4.78722">
        <ele>194</ele>
        <time>2017-08-25T10:16:04Z</time>
      </trkpt>
      <trkpt lat="45.93942" lon="4.78714">
        <ele>194</ele>
        <time>2017-08-25T10:16:05Z</time>
      </trkpt>
      <trkpt lat="45.93942" lon="4.78705">
        <ele>194</ele>
        <time>2017-08-25T10:16:06Z</time>
      </trkpt>
      <trkpt lat="45.93942" lon="4.78696">
        <ele>194</ele>
        <time>2017-08-25T10:16:07Z</time>
      </trkpt>
      <trkpt lat="45.93941" lon="4.78687">
        <ele>194</ele>
        <time>2017-08-25T10:16:08Z</time>
      </trkpt>
      <trkpt lat="45.93941" lon="4.78677">
        <ele>194</ele>
        <time>2017-08-25T10:16:09Z</time>
      </trkpt>
      <trkpt lat="45.9394" lon="4.78667">
        <ele>194</ele>
        <time>2017-08-25T10:16:10Z</time>
      </trkpt>
      <trkpt lat="45.9394" lon="4.78658">
        <ele>194</ele>
        <time>2017-08-25T10:16:11Z</time>
      </trkpt>
      <trkpt lat="45.9394" lon="4.7865">
        <ele>195</ele>
        <time>2017-08-25T10:16:12Z</time>
      </trkpt>
      <trkpt lat="45.93941" lon="4.78641">
        <ele>195</ele>
        <time>2017-08-25T10:16:13Z</time>
      </trkpt>
      <trkpt lat="45.9394" lon="4.78633">
        <ele>195</ele>
        <time>2017-08-25T10:16:14Z</time>
      </trkpt>
      <trkpt lat="45.9394" lon="4.78625">
        <ele>196</ele>
        <time>2017-08-25T10:16:15Z</time>
      </trkpt>
      <trkpt lat="45.93939" lon="4.78617">
        <ele>196</ele>
        <time>2017-08-25T10:16:16Z</time>
      </trkpt>
      <trkpt lat="45.93939" lon="4.7861">
        <ele>196</ele>
        <time>2017-08-25T10:16:17Z</time>
      </trkpt>
      <trkpt lat="45.93939" lon="4.78602">
        <ele>196</ele>
        <time>2017-08-25T10:16:18Z</time>
      </trkpt>
      <trkpt lat="45.93939" lon="4.7859">
        <ele>196</ele>
        <time>2017-08-25T10:16:20Z</time>
      </trkpt>
      <trkpt lat="45.93941" lon="4.78584">
        <ele>196</ele>
        <time>2017-08-25T10:16:21Z</time>
      </trkpt>
      <trkpt lat="45.93941" lon="4.78573">
        <ele>197</ele>
        <time>2017-08-25T10:16:23Z</time>
      </trkpt>
      <trkpt lat="45.93941" lon="4.78568">
        <ele>197</ele>
        <time>2017-08-25T10:16:24Z</time>
      </trkpt>
      <trkpt lat="45.9394" lon="4.78556">
        <ele>197</ele>
        <time>2017-08-25T10:16:26Z</time>
      </trkpt>
      <trkpt lat="45.9394" lon="4.78549">
        <ele>197</ele>
        <time>2017-08-25T10:16:27Z</time>
      </trkpt>
      <trkpt lat="45.9394" lon="4.78542">
        <ele>197</ele>
        <time>2017-08-25T10:16:28Z</time>
      </trkpt>
      <trkpt lat="45.9394" lon="4.78534">
        <ele>197</ele>
        <time>2017-08-25T10:16:29Z</time>
      </trkpt>
      <trkpt lat="45.93941" lon="4.78526">
        <ele>197</ele>
        <time>2017-08-25T10:16:30Z</time>
      </trkpt>
      <trkpt lat="45.93941" lon="4.78518">
        <ele>197</ele>
        <time>2017-08-25T10:16:31Z</time>
      </trkpt>
      <trkpt lat="45.93941" lon="4.7851">
        <ele>197</ele>
        <time>2017-08-25T10:16:32Z</time>
      </trkpt>
      <trkpt lat="45.93942" lon="4.78503">
        <ele>197</ele>
        <time>2017-08-25T10:16:33Z</time>
      </trkpt>
      <trkpt lat="45.93943" lon="4.78496">
        <ele>197</ele>
        <time>2017-08-25T10:16:34Z</time>
      </trkpt>
      <trkpt lat="45.93944" lon="4.78489">
        <ele>197</ele>
        <time>2017-08-25T10:16:35Z</time>
      </trkpt>
      <trkpt lat="45.93946" lon="4.78482">
        <ele>197</ele>
        <time>2017-08-25T10:16:36Z</time>
      </trkpt>
      <trkpt lat="45.93947" lon="4.78475">
        <ele>197</ele>
        <time>2017-08-25T10:16:37Z</time>
      </trkpt>
      <trkpt lat="45.93948" lon="4.78467">
        <ele>198</ele>
        <time>2017-08-25T10:16:38Z</time>
      </trkpt>
      <trkpt lat="45.93949" lon="4.7846">
        <ele>197</ele>
        <time>2017-08-25T10:16:39Z</time>
      </trkpt>
      <trkpt lat="45.93949" lon="4.78452">
        <ele>197</ele>
        <time>2017-08-25T10:16:40Z</time>
      </trkpt>
      <trkpt lat="45.93951" lon="4.78445">
        <ele>197</ele>
        <time>2017-08-25T10:16:41Z</time>
      </trkpt>
      <trkpt lat="45.93952" lon="4.78437">
        <ele>197</ele>
        <time>2017-08-25T10:16:42Z</time>
      </trkpt>
      <trkpt lat="45.93953" lon="4.7843">
        <ele>197</ele>
        <time>2017-08-25T10:16:43Z</time>
      </trkpt>
      <trkpt lat="45.93955" lon="4.78422">
        <ele>197</ele>
        <time>2017-08-25T10:16:44Z</time>
      </trkpt>
      <trkpt lat="45.93956" lon="4.78415">
        <ele>197</ele>
        <time>2017-08-25T10:16:45Z</time>
      </trkpt>
      <trkpt lat="45.93957" lon="4.78408">
        <ele>197</ele>
        <time>2017-08-25T10:16:46Z</time>
      </trkpt>
      <trkpt lat="45.93958" lon="4.78402">
        <ele>197</ele>
        <time>2017-08-25T10:16:47Z</time>
      </trkpt>
      <trkpt lat="45.93959" lon="4.78394">
        <ele>197</ele>
        <time>2017-08-25T10:16:48Z</time>
      </trkpt>
      <trkpt lat="45.9396" lon="4.78388">
        <ele>197</ele>
        <time>2017-08-25T10:16:49Z</time>
      </trkpt>
      <trkpt lat="45.93961" lon="4.78375">
        <ele>197</ele>
        <time>2017-08-25T10:16:51Z</time>
      </trkpt>
      <trkpt lat="45.93962" lon="4.78369">
        <ele>197</ele>
        <time>2017-08-25T10:16:52Z</time>
      </trkpt>
      <trkpt lat="45.93964" lon="4.78362">
        <ele>197</ele>
        <time>2017-08-25T10:16:53Z</time>
      </trkpt>
      <trkpt lat="45.93965" lon="4.78354">
        <ele>197</ele>
        <time>2017-08-25T10:16:54Z</time>
      </trkpt>
      <trkpt lat="45.93966" lon="4.78347">
        <ele>197</ele>
        <time>2017-08-25T10:16:55Z</time>
      </trkpt>
      <trkpt lat="45.93967" lon="4.7834">
        <ele>197</ele>
        <time>2017-08-25T10:16:56Z</time>
      </trkpt>
      <trkpt lat="45.93969" lon="4.78328">
        <ele>196</ele>
        <time>2017-08-25T10:16:58Z</time>
      </trkpt>
      <trkpt lat="45.9397" lon="4.78323">
        <ele>196</ele>
        <time>2017-08-25T10:16:59Z</time>
      </trkpt>
      <trkpt lat="45.93972" lon="4.78317">
        <ele>196</ele>
        <time>2017-08-25T10:17:00Z</time>
      </trkpt>
      <trkpt lat="45.93972" lon="4.7831">
        <ele>196</ele>
        <time>2017-08-25T10:17:01Z</time>
      </trkpt>
      <trkpt lat="45.93973" lon="4.78303">
        <ele>196</ele>
        <time>2017-08-25T10:17:02Z</time>
      </trkpt>
      <trkpt lat="45.93974" lon="4.78296">
        <ele>196</ele>
        <time>2017-08-25T10:17:03Z</time>
      </trkpt>
      <trkpt lat="45.93975" lon="4.78288">
        <ele>196</ele>
        <time>2017-08-25T10:17:04Z</time>
      </trkpt>
      <trkpt lat="45.93976" lon="4.78279">
        <ele>196</ele>
        <time>2017-08-25T10:17:05Z</time>
      </trkpt>
      <trkpt lat="45.93978" lon="4.78271">
        <ele>196</ele>
        <time>2017-08-25T10:17:06Z</time>
      </trkpt>
      <trkpt lat="45.9398" lon="4.78263">
        <ele>196</ele>
        <time>2017-08-25T10:17:07Z</time>
      </trkpt>
      <trkpt lat="45.9398" lon="4.78255">
        <ele>197</ele>
        <time>2017-08-25T10:17:08Z</time>
      </trkpt>
      <trkpt lat="45.93981" lon="4.78246">
        <ele>197</ele>
        <time>2017-08-25T10:17:09Z</time>
      </trkpt>
      <trkpt lat="45.93981" lon="4.78239">
        <ele>197</ele>
        <time>2017-08-25T10:17:10Z</time>
      </trkpt>
      <trkpt lat="45.93982" lon="4.78233">
        <ele>197</ele>
        <time>2017-08-25T10:17:11Z</time>
      </trkpt>
      <trkpt lat="45.93984" lon="4.7822">
        <ele>197</ele>
        <time>2017-08-25T10:17:13Z</time>
      </trkpt>
      <trkpt lat="45.93984" lon="4.78213">
        <ele>197</ele>
        <time>2017-08-25T10:17:14Z</time>
      </trkpt>
      <trkpt lat="45.93985" lon="4.78207">
        <ele>197</ele>
        <time>2017-08-25T10:17:15Z</time>
      </trkpt>
      <trkpt lat="45.93986" lon="4.782">
        <ele>197</ele>
        <time>2017-08-25T10:17:16Z</time>
      </trkpt>
      <trkpt lat="45.93988" lon="4.78189">
        <ele>198</ele>
        <time>2017-08-25T10:17:18Z</time>
      </trkpt>
      <trkpt lat="45.9399" lon="4.78183">
        <ele>198</ele>
        <time>2017-08-25T10:17:19Z</time>
      </trkpt>
      <trkpt lat="45.93993" lon="4.78172">
        <ele>199</ele>
        <time>2017-08-25T10:17:21Z</time>
      </trkpt>
      <trkpt lat="45.93995" lon="4.78167">
        <ele>200</ele>
        <time>2017-08-25T10:17:22Z</time>
      </trkpt>
      <trkpt lat="45.93997" lon="4.78163">
        <ele>200</ele>
        <time>2017-08-25T10:17:23Z</time>
      </trkpt>
      <trkpt lat="45.93993" lon="4.78154">
        <ele>199</ele>
        <time>2017-08-25T10:17:24Z</time>
      </trkpt>
      <trkpt lat="45.93992" lon="4.78141">
        <ele>198</ele>
        <time>2017-08-25T10:17:26Z</time>
      </trkpt>
      <trkpt lat="45.93992" lon="4.78136">
        <ele>198</ele>
        <time>2017-08-25T10:17:27Z</time>
      </trkpt>
      <trkpt lat="45.93995" lon="4.78125">
        <ele>197</ele>
        <time>2017-08-25T10:17:29Z</time>
      </trkpt>
      <trkpt lat="45.93996" lon="4.78118">
        <ele>197</ele>
        <time>2017-08-25T10:17:30Z</time>
      </trkpt>
      <trkpt lat="45.93997" lon="4.78111">
        <ele>197</ele>
        <time>2017-08-25T10:17:31Z</time>
      </trkpt>
      <trkpt lat="45.93998" lon="4.78105">
        <ele>197</ele>
        <time>2017-08-25T10:17:32Z</time>
      </trkpt>
      <trkpt lat="45.94" lon="4.78098">
        <ele>198</ele>
        <time>2017-08-25T10:17:33Z</time>
      </trkpt>
      <trkpt lat="45.94001" lon="4.78091">
        <ele>200</ele>
        <time>2017-08-25T10:17:34Z</time>
      </trkpt>
      <trkpt lat="45.94002" lon="4.78085">
        <ele>200</ele>
        <time>2017-08-25T10:17:35Z</time>
      </trkpt>
      <trkpt lat="45.94004" lon="4.78078">
        <ele>200</ele>
        <time>2017-08-25T10:17:36Z</time>
      </trkpt>
      <trkpt lat="45.94005" lon="4.78071">
        <ele>201</ele>
        <time>2017-08-25T10:17:37Z</time>
      </trkpt>
      <trkpt lat="45.94007" lon="4.78064">
        <ele>201</ele>
        <time>2017-08-25T10:17:38Z</time>
      </trkpt>
      <trkpt lat="45.94008" lon="4.78057">
        <ele>201</ele>
        <time>2017-08-25T10:17:39Z</time>
      </trkpt>
      <trkpt lat="45.9401" lon="4.78051">
        <ele>201</ele>
        <time>2017-08-25T10:17:40Z</time>
      </trkpt>
      <trkpt lat="45.94011" lon="4.78044">
        <ele>201</ele>
        <time>2017-08-25T10:17:41Z</time>
      </trkpt>
      <trkpt lat="45.94013" lon="4.78037">
        <ele>201</ele>
        <time>2017-08-25T10:17:42Z</time>
      </trkpt>
      <trkpt lat="45.94014" lon="4.78031">
        <ele>201</ele>
        <time>2017-08-25T10:17:43Z</time>
      </trkpt>
      <trkpt lat="45.94015" lon="4.78023">
        <ele>201</ele>
        <time>2017-08-25T10:17:44Z</time>
      </trkpt>
      <trkpt lat="45.94016" lon="4.78016">
        <ele>200</ele>
        <time>2017-08-25T10:17:45Z</time>
      </trkpt>
      <trkpt lat="45.94017" lon="4.78009">
        <ele>200</ele>
        <time>2017-08-25T10:17:46Z</time>
      </trkpt>
      <trkpt lat="45.94018" lon="4.78001">
        <ele>200</ele>
        <time>2017-08-25T10:17:47Z</time>
      </trkpt>
      <trkpt lat="45.94019" lon="4.77993">
        <ele>199</ele>
        <time>2017-08-25T10:17:48Z</time>
      </trkpt>
      <trkpt lat="45.94021" lon="4.77986">
        <ele>200</ele>
        <time>2017-08-25T10:17:49Z</time>
      </trkpt>
      <trkpt lat="45.94022" lon="4.77978">
        <ele>200</ele>
        <time>2017-08-25T10:17:50Z</time>
      </trkpt>
      <trkpt lat="45.94023" lon="4.77969">
        <ele>200</ele>
        <time>2017-08-25T10:17:51Z</time>
      </trkpt>
      <trkpt lat="45.94024" lon="4.77962">
        <ele>200</ele>
        <time>2017-08-25T10:17:52Z</time>
      </trkpt>
      <trkpt lat="45.94027" lon="4.77954">
        <ele>200</ele>
        <time>2017-08-25T10:17:53Z</time>
      </trkpt>
      <trkpt lat="45.9403" lon="4.77947">
        <ele>200</ele>
        <time>2017-08-25T10:17:54Z</time>
      </trkpt>
      <trkpt lat="45.94032" lon="4.77939">
        <ele>200</ele>
        <time>2017-08-25T10:17:55Z</time>
      </trkpt>
      <trkpt lat="45.94033" lon="4.77933">
        <ele>200</ele>
        <time>2017-08-25T10:17:56Z</time>
      </trkpt>
      <trkpt lat="45.94026" lon="4.77925">
        <ele>199</ele>
        <time>2017-08-25T10:17:58Z</time>
      </trkpt>
      <trkpt lat="45.94022" lon="4.77923">
        <ele>199</ele>
        <time>2017-08-25T10:17:59Z</time>
      </trkpt>
      <trkpt lat="45.94017" lon="4.77921">
        <ele>198</ele>
        <time>2017-08-25T10:18:00Z</time>
      </trkpt>
      <trkpt lat="45.94011" lon="4.7792">
        <ele>197</ele>
        <time>2017-08-25T10:18:01Z</time>
      </trkpt>
      <trkpt lat="45.94006" lon="4.77921">
        <ele>196</ele>
        <time>2017-08-25T10:18:02Z</time>
      </trkpt>
      <trkpt lat="45.93998" lon="4.77925">
        <ele>193</ele>
        <time>2017-08-25T10:18:03Z</time>
      </trkpt>
      <trkpt lat="45.9399" lon="4.7793">
        <ele>192</ele>
        <time>2017-08-25T10:18:04Z</time>
      </trkpt>
      <trkpt lat="45.93981" lon="4.77936">
        <ele>191</ele>
        <time>2017-08-25T10:18:05Z</time>
      </trkpt>
      <trkpt lat="45.93971" lon="4.77945">
        <ele>191</ele>
        <time>2017-08-25T10:18:06Z</time>
      </trkpt>
      <trkpt lat="45.93962" lon="4.77951">
        <ele>190</ele>
        <time>2017-08-25T10:18:07Z</time>
      </trkpt>
      <trkpt lat="45.93955" lon="4.77957">
        <ele>190</ele>
        <time>2017-08-25T10:18:08Z</time>
      </trkpt>
      <trkpt lat="45.93945" lon="4.77964">
        <ele>189</ele>
        <time>2017-08-25T10:18:09Z</time>
      </trkpt>
      <trkpt lat="45.93934" lon="4.7797">
        <ele>189</ele>
        <time>2017-08-25T10:18:10Z</time>
      </trkpt>
      <trkpt lat="45.93924" lon="4.77975">
        <ele>188</ele>
        <time>2017-08-25T10:18:11Z</time>
      </trkpt>
      <trkpt lat="45.93915" lon="4.77982">
        <ele>183</ele>
        <time>2017-08-25T10:18:12Z</time>
      </trkpt>
      <trkpt lat="45.93906" lon="4.77988">
        <ele>183</ele>
        <time>2017-08-25T10:18:13Z</time>
      </trkpt>
      <trkpt lat="45.93898" lon="4.77995">
        <ele>182</ele>
        <time>2017-08-25T10:18:14Z</time>
      </trkpt>
      <trkpt lat="45.93891" lon="4.78001">
        <ele>184</ele>
        <time>2017-08-25T10:18:15Z</time>
      </trkpt>
      <trkpt lat="45.93887" lon="4.78008">
        <ele>184</ele>
        <time>2017-08-25T10:18:16Z</time>
      </trkpt>
      <trkpt lat="45.93883" lon="4.78012">
        <ele>184</ele>
        <time>2017-08-25T10:18:17Z</time>
      </trkpt>
      <trkpt lat="45.93879" lon="4.78015">
        <ele>184</ele>
        <time>2017-08-25T10:18:18Z</time>
      </trkpt>
      <trkpt lat="45.93872" lon="4.78016">
        <ele>183</ele>
        <time>2017-08-25T10:18:21Z</time>
      </trkpt>
      <trkpt lat="45.9387" lon="4.78014">
        <ele>183</ele>
        <time>2017-08-25T10:18:22Z</time>
      </trkpt>
      <trkpt lat="45.93867" lon="4.78003">
        <ele>183</ele>
        <time>2017-08-25T10:18:24Z</time>
      </trkpt>
      <trkpt lat="45.93864" lon="4.77998">
        <ele>179</ele>
        <time>2017-08-25T10:18:25Z</time>
      </trkpt>
      <trkpt lat="45.9386" lon="4.77995">
        <ele>179</ele>
        <time>2017-08-25T10:18:26Z</time>
      </trkpt>
      <trkpt lat="45.93855" lon="4.77992">
        <ele>179</ele>
        <time>2017-08-25T10:18:27Z</time>
      </trkpt>
      <trkpt lat="45.93848" lon="4.77986">
        <ele>179</ele>
        <time>2017-08-25T10:18:29Z</time>
      </trkpt>
      <trkpt lat="45.93845" lon="4.77981">
        <ele>178</ele>
        <time>2017-08-25T10:18:30Z</time>
      </trkpt>
      <trkpt lat="45.93839" lon="4.77973">
        <ele>178</ele>
        <time>2017-08-25T10:18:32Z</time>
      </trkpt>
      <trkpt lat="45.93836" lon="4.77969">
        <ele>177</ele>
        <time>2017-08-25T10:18:33Z</time>
      </trkpt>
      <trkpt lat="45.93831" lon="4.77962">
        <ele>171</ele>
        <time>2017-08-25T10:18:35Z</time>
      </trkpt>
      <trkpt lat="45.93828" lon="4.77958">
        <ele>170</ele>
        <time>2017-08-25T10:18:36Z</time>
      </trkpt>
      <trkpt lat="45.93824" lon="4.77954">
        <ele>170</ele>
        <time>2017-08-25T10:18:37Z</time>
      </trkpt>
      <trkpt lat="45.9382" lon="4.77949">
        <ele>169</ele>
        <time>2017-08-25T10:18:38Z</time>
      </trkpt>
      <trkpt lat="45.93817" lon="4.77944">
        <ele>169</ele>
        <time>2017-08-25T10:18:39Z</time>
      </trkpt>
      <trkpt lat="45.93812" lon="4.77939">
        <ele>169</ele>
        <time>2017-08-25T10:18:40Z</time>
      </trkpt>
      <trkpt lat="45.93808" lon="4.77934">
        <ele>168</ele>
        <time>2017-08-25T10:18:41Z</time>
      </trkpt>
      <trkpt lat="45.93804" lon="4.77929">
        <ele>168</ele>
        <time>2017-08-25T10:18:42Z</time>
      </trkpt>
      <trkpt lat="45.93799" lon="4.77924">
        <ele>168</ele>
        <time>2017-08-25T10:18:43Z</time>
      </trkpt>
      <trkpt lat="45.93796" lon="4.77919">
        <ele>168</ele>
        <time>2017-08-25T10:18:44Z</time>
      </trkpt>
      <trkpt lat="45.93792" lon="4.77914">
        <ele>166</ele>
        <time>2017-08-25T10:18:45Z</time>
      </trkpt>
      <trkpt lat="45.93789" lon="4.7791">
        <ele>166</ele>
        <time>2017-08-25T10:18:46Z</time>
      </trkpt>
      <trkpt lat="45.93785" lon="4.77906">
        <ele>166</ele>
        <time>2017-08-25T10:18:47Z</time>
      </trkpt>
      <trkpt lat="45.93782" lon="4.77902">
        <ele>166</ele>
        <time>2017-08-25T10:18:48Z</time>
      </trkpt>
      <trkpt lat="45.93776" lon="4.77894">
        <ele>166</ele>
        <time>2017-08-25T10:18:50Z</time>
      </trkpt>
      <trkpt lat="45.93773" lon="4.77889">
        <ele>166</ele>
        <time>2017-08-25T10:18:51Z</time>
      </trkpt>
      <trkpt lat="45.9377" lon="4.77885">
        <ele>166</ele>
        <time>2017-08-25T10:18:52Z</time>
      </trkpt>
      <trkpt lat="45.93766" lon="4.7788">
        <ele>166</ele>
        <time>2017-08-25T10:18:53Z</time>
      </trkpt>
      <trkpt lat="45.93762" lon="4.77876">
        <ele>166</ele>
        <time>2017-08-25T10:18:54Z</time>
      </trkpt>
      <trkpt lat="45.93759" lon="4.77871">
        <ele>166</ele>
        <time>2017-08-25T10:18:55Z</time>
      </trkpt>
      <trkpt lat="45.93755" lon="4.77866">
        <ele>166</ele>
        <time>2017-08-25T10:18:56Z</time>
      </trkpt>
      <trkpt lat="45.93751" lon="4.77861">
        <ele>166</ele>
        <time>2017-08-25T10:18:57Z</time>
      </trkpt>
      <trkpt lat="45.93748" lon="4.77856">
        <ele>167</ele>
        <time>2017-08-25T10:18:58Z</time>
      </trkpt>
      <trkpt lat="45.93744" lon="4.77852">
        <ele>167</ele>
        <time>2017-08-25T10:18:59Z</time>
      </trkpt>
      <trkpt lat="45.9374" lon="4.77847">
        <ele>167</ele>
        <time>2017-08-25T10:19:00Z</time>
      </trkpt>
      <trkpt lat="45.93737" lon="4.77843">
        <ele>167</ele>
        <time>2017-08-25T10:19:01Z</time>
      </trkpt>
      <trkpt lat="45.93734" lon="4.77837">
        <ele>167</ele>
        <time>2017-08-25T10:19:02Z</time>
      </trkpt>
      <trkpt lat="45.9373" lon="4.77832">
        <ele>168</ele>
        <time>2017-08-25T10:19:03Z</time>
      </trkpt>
      <trkpt lat="45.93727" lon="4.77827">
        <ele>168</ele>
        <time>2017-08-25T10:19:04Z</time>
      </trkpt>
      <trkpt lat="45.93723" lon="4.77822">
        <ele>168</ele>
        <time>2017-08-25T10:19:05Z</time>
      </trkpt>
      <trkpt lat="45.93719" lon="4.77818">
        <ele>169</ele>
        <time>2017-08-25T10:19:06Z</time>
      </trkpt>
      <trkpt lat="45.93715" lon="4.77813">
        <ele>169</ele>
        <time>2017-08-25T10:19:07Z</time>
      </trkpt>
      <trkpt lat="45.93711" lon="4.77807">
        <ele>169</ele>
        <time>2017-08-25T10:19:08Z</time>
      </trkpt>
      <trkpt lat="45.93707" lon="4.77802">
        <ele>169</ele>
        <time>2017-08-25T10:19:09Z</time>
      </trkpt>
      <trkpt lat="45.93704" lon="4.77796">
        <ele>169</ele>
        <time>2017-08-25T10:19:10Z</time>
      </trkpt>
      <trkpt lat="45.937" lon="4.77791">
        <ele>169</ele>
        <time>2017-08-25T10:19:11Z</time>
      </trkpt>
      <trkpt lat="45.93696" lon="4.77786">
        <ele>170</ele>
        <time>2017-08-25T10:19:12Z</time>
      </trkpt>
      <trkpt lat="45.93691" lon="4.77781">
        <ele>170</ele>
        <time>2017-08-25T10:19:13Z</time>
      </trkpt>
      <trkpt lat="45.93687" lon="4.77775">
        <ele>170</ele>
        <time>2017-08-25T10:19:14Z</time>
      </trkpt>
      <trkpt lat="45.93683" lon="4.77768">
        <ele>170</ele>
        <time>2017-08-25T10:19:15Z</time>
      </trkpt>
      <trkpt lat="45.93678" lon="4.77762">
        <ele>170</ele>
        <time>2017-08-25T10:19:16Z</time>
      </trkpt>
      <trkpt lat="45.93673" lon="4.77755">
        <ele>171</ele>
        <time>2017-08-25T10:19:17Z</time>
      </trkpt>
      <trkpt lat="45.93668" lon="4.77747">
        <ele>171</ele>
        <time>2017-08-25T10:19:18Z</time>
      </trkpt>
      <trkpt lat="45.93663" lon="4.7774">
        <ele>170</ele>
        <time>2017-08-25T10:19:19Z</time>
      </trkpt>
      <trkpt lat="45.93659" lon="4.77732">
        <ele>170</ele>
        <time>2017-08-25T10:19:20Z</time>
      </trkpt>
      <trkpt lat="45.93654" lon="4.77724">
        <ele>170</ele>
        <time>2017-08-25T10:19:21Z</time>
      </trkpt>
      <trkpt lat="45.93649" lon="4.77716">
        <ele>170</ele>
        <time>2017-08-25T10:19:22Z</time>
      </trkpt>
      <trkpt lat="45.93644" lon="4.77707">
        <ele>170</ele>
        <time>2017-08-25T10:19:23Z</time>
      </trkpt>
      <trkpt lat="45.93639" lon="4.77698">
        <ele>169</ele>
        <time>2017-08-25T10:19:24Z</time>
      </trkpt>
      <trkpt lat="45.93635" lon="4.77688">
        <ele>169</ele>
        <time>2017-08-25T10:19:25Z</time>
      </trkpt>
      <trkpt lat="45.9363" lon="4.77679">
        <ele>169</ele>
        <time>2017-08-25T10:19:26Z</time>
      </trkpt>
      <trkpt lat="45.93625" lon="4.77669">
        <ele>169</ele>
        <time>2017-08-25T10:19:27Z</time>
      </trkpt>
      <trkpt lat="45.93621" lon="4.7766">
        <ele>169</ele>
        <time>2017-08-25T10:19:28Z</time>
      </trkpt>
      <trkpt lat="45.93617" lon="4.77651">
        <ele>169</ele>
        <time>2017-08-25T10:19:29Z</time>
      </trkpt>
      <trkpt lat="45.93612" lon="4.77642">
        <ele>169</ele>
        <time>2017-08-25T10:19:30Z</time>
      </trkpt>
      <trkpt lat="45.93608" lon="4.77633">
        <ele>169</ele>
        <time>2017-08-25T10:19:31Z</time>
      </trkpt>
      <trkpt lat="45.93605" lon="4.77625">
        <ele>170</ele>
        <time>2017-08-25T10:19:32Z</time>
      </trkpt>
      <trkpt lat="45.93602" lon="4.77617">
        <ele>170</ele>
        <time>2017-08-25T10:19:33Z</time>
      </trkpt>
      <trkpt lat="45.936" lon="4.77608">
        <ele>170</ele>
        <time>2017-08-25T10:19:34Z</time>
      </trkpt>
      <trkpt lat="45.93597" lon="4.77601">
        <ele>170</ele>
        <time>2017-08-25T10:19:35Z</time>
      </trkpt>
      <trkpt lat="45.93594" lon="4.77593">
        <ele>170</ele>
        <time>2017-08-25T10:19:36Z</time>
      </trkpt>
      <trkpt lat="45.93592" lon="4.77586">
        <ele>170</ele>
        <time>2017-08-25T10:19:37Z</time>
      </trkpt>
      <trkpt lat="45.93589" lon="4.77578">
        <ele>170</ele>
        <time>2017-08-25T10:19:38Z</time>
      </trkpt>
      <trkpt lat="45.93587" lon="4.77569">
        <ele>170</ele>
        <time>2017-08-25T10:19:39Z</time>
      </trkpt>
      <trkpt lat="45.93585" lon="4.77561">
        <ele>170</ele>
        <time>2017-08-25T10:19:40Z</time>
      </trkpt>
      <trkpt lat="45.93583" lon="4.77552">
        <ele>169</ele>
        <time>2017-08-25T10:19:41Z</time>
      </trkpt>
      <trkpt lat="45.93581" lon="4.77543">
        <ele>169</ele>
        <time>2017-08-25T10:19:42Z</time>
      </trkpt>
      <trkpt lat="45.93579" lon="4.77534">
        <ele>169</ele>
        <time>2017-08-25T10:19:43Z</time>
      </trkpt>
      <trkpt lat="45.93577" lon="4.77525">
        <ele>169</ele>
        <time>2017-08-25T10:19:44Z</time>
      </trkpt>
      <trkpt lat="45.93575" lon="4.77516">
        <ele>169</ele>
        <time>2017-08-25T10:19:45Z</time>
      </trkpt>
      <trkpt lat="45.93573" lon="4.77508">
        <ele>169</ele>
        <time>2017-08-25T10:19:46Z</time>
      </trkpt>
      <trkpt lat="45.93572" lon="4.77501">
        <ele>169</ele>
        <time>2017-08-25T10:19:47Z</time>
      </trkpt>
      <trkpt lat="45.9357" lon="4.77493">
        <ele>169</ele>
        <time>2017-08-25T10:19:48Z</time>
      </trkpt>
      <trkpt lat="45.93569" lon="4.77485">
        <ele>169</ele>
        <time>2017-08-25T10:19:49Z</time>
      </trkpt>
      <trkpt lat="45.93567" lon="4.77478">
        <ele>169</ele>
        <time>2017-08-25T10:19:50Z</time>
      </trkpt>
      <trkpt lat="45.93565" lon="4.77471">
        <ele>169</ele>
        <time>2017-08-25T10:19:51Z</time>
      </trkpt>
      <trkpt lat="45.93563" lon="4.77464">
        <ele>169</ele>
        <time>2017-08-25T10:19:52Z</time>
      </trkpt>
      <trkpt lat="45.93562" lon="4.77456">
        <ele>169</ele>
        <time>2017-08-25T10:19:53Z</time>
      </trkpt>
      <trkpt lat="45.9356" lon="4.77448">
        <ele>169</ele>
        <time>2017-08-25T10:19:54Z</time>
      </trkpt>
      <trkpt lat="45.93558" lon="4.7744">
        <ele>169</ele>
        <time>2017-08-25T10:19:55Z</time>
      </trkpt>
      <trkpt lat="45.93557" lon="4.77432">
        <ele>170</ele>
        <time>2017-08-25T10:19:56Z</time>
      </trkpt>
      <trkpt lat="45.93555" lon="4.77426">
        <ele>170</ele>
        <time>2017-08-25T10:19:57Z</time>
      </trkpt>
      <trkpt lat="45.93553" lon="4.77419">
        <ele>170</ele>
        <time>2017-08-25T10:19:58Z</time>
      </trkpt>
      <trkpt lat="45.93551" lon="4.77412">
        <ele>170</ele>
        <time>2017-08-25T10:19:59Z</time>
      </trkpt>
      <trkpt lat="45.9355" lon="4.77406">
        <ele>170</ele>
        <time>2017-08-25T10:20:00Z</time>
      </trkpt>
      <trkpt lat="45.93548" lon="4.77399">
        <ele>170</ele>
        <time>2017-08-25T10:20:01Z</time>
      </trkpt>
      <trkpt lat="45.93548" lon="4.77392">
        <ele>170</ele>
        <time>2017-08-25T10:20:02Z</time>
      </trkpt>
      <trkpt lat="45.93546" lon="4.77385">
        <ele>170</ele>
        <time>2017-08-25T10:20:03Z</time>
      </trkpt>
      <trkpt lat="45.93545" lon="4.77377">
        <ele>170</ele>
        <time>2017-08-25T10:20:04Z</time>
      </trkpt>
      <trkpt lat="45.93543" lon="4.77369">
        <ele>170</ele>
        <time>2017-08-25T10:20:05Z</time>
      </trkpt>
      <trkpt lat="45.93541" lon="4.77361">
        <ele>170</ele>
        <time>2017-08-25T10:20:06Z</time>
      </trkpt>
      <trkpt lat="45.9354" lon="4.77353">
        <ele>170</ele>
        <time>2017-08-25T10:20:07Z</time>
      </trkpt>
      <trkpt lat="45.93538" lon="4.77346">
        <ele>170</ele>
        <time>2017-08-25T10:20:08Z</time>
      </trkpt>
      <trkpt lat="45.93536" lon="4.77339">
        <ele>170</ele>
        <time>2017-08-25T10:20:09Z</time>
      </trkpt>
      <trkpt lat="45.93535" lon="4.77332">
        <ele>170</ele>
        <time>2017-08-25T10:20:10Z</time>
      </trkpt>
      <trkpt lat="45.93533" lon="4.77325">
        <ele>170</ele>
        <time>2017-08-25T10:20:11Z</time>
      </trkpt>
      <trkpt lat="45.93531" lon="4.77318">
        <ele>170</ele>
        <time>2017-08-25T10:20:12Z</time>
      </trkpt>
      <trkpt lat="45.93529" lon="4.77312">
        <ele>170</ele>
        <time>2017-08-25T10:20:13Z</time>
      </trkpt>
      <trkpt lat="45.93528" lon="4.77305">
        <ele>170</ele>
        <time>2017-08-25T10:20:14Z</time>
      </trkpt>
      <trkpt lat="45.93526" lon="4.77299">
        <ele>170</ele>
        <time>2017-08-25T10:20:15Z</time>
      </trkpt>
      <trkpt lat="45.93525" lon="4.77292">
        <ele>170</ele>
        <time>2017-08-25T10:20:16Z</time>
      </trkpt>
      <trkpt lat="45.93523" lon="4.77285">
        <ele>170</ele>
        <time>2017-08-25T10:20:17Z</time>
      </trkpt>
      <trkpt lat="45.93521" lon="4.77277">
        <ele>170</ele>
        <time>2017-08-25T10:20:18Z</time>
      </trkpt>
      <trkpt lat="45.93519" lon="4.77268">
        <ele>170</ele>
        <time>2017-08-25T10:20:19Z</time>
      </trkpt>
      <trkpt lat="45.93517" lon="4.7726">
        <ele>170</ele>
        <time>2017-08-25T10:20:20Z</time>
      </trkpt>
      <trkpt lat="45.93515" lon="4.77252">
        <ele>170</ele>
        <time>2017-08-25T10:20:21Z</time>
      </trkpt>
      <trkpt lat="45.93514" lon="4.77243">
        <ele>169</ele>
        <time>2017-08-25T10:20:22Z</time>
      </trkpt>
      <trkpt lat="45.93512" lon="4.77235">
        <ele>169</ele>
        <time>2017-08-25T10:20:23Z</time>
      </trkpt>
      <trkpt lat="45.93511" lon="4.77228">
        <ele>169</ele>
        <time>2017-08-25T10:20:24Z</time>
      </trkpt>
      <trkpt lat="45.93509" lon="4.77221">
        <ele>169</ele>
        <time>2017-08-25T10:20:25Z</time>
      </trkpt>
      <trkpt lat="45.93508" lon="4.77214">
        <ele>169</ele>
        <time>2017-08-25T10:20:26Z</time>
      </trkpt>
      <trkpt lat="45.93506" lon="4.77207">
        <ele>169</ele>
        <time>2017-08-25T10:20:27Z</time>
      </trkpt>
      <trkpt lat="45.93504" lon="4.772">
        <ele>169</ele>
        <time>2017-08-25T10:20:28Z</time>
      </trkpt>
      <trkpt lat="45.93503" lon="4.77194">
        <ele>169</ele>
        <time>2017-08-25T10:20:29Z</time>
      </trkpt>
      <trkpt lat="45.93501" lon="4.77187">
        <ele>169</ele>
        <time>2017-08-25T10:20:30Z</time>
      </trkpt>
      <trkpt lat="45.935" lon="4.7718">
        <ele>169</ele>
        <time>2017-08-25T10:20:31Z</time>
      </trkpt>
      <trkpt lat="45.93499" lon="4.77173">
        <ele>169</ele>
        <time>2017-08-25T10:20:32Z</time>
      </trkpt>
      <trkpt lat="45.93497" lon="4.77165">
        <ele>169</ele>
        <time>2017-08-25T10:20:33Z</time>
      </trkpt>
      <trkpt lat="45.93495" lon="4.77157">
        <ele>169</ele>
        <time>2017-08-25T10:20:34Z</time>
      </trkpt>
      <trkpt lat="45.93494" lon="4.77148">
        <ele>169</ele>
        <time>2017-08-25T10:20:35Z</time>
      </trkpt>
      <trkpt lat="45.93492" lon="4.77139">
        <ele>169</ele>
        <time>2017-08-25T10:20:36Z</time>
      </trkpt>
      <trkpt lat="45.9349" lon="4.77131">
        <ele>169</ele>
        <time>2017-08-25T10:20:37Z</time>
      </trkpt>
      <trkpt lat="45.93489" lon="4.77123">
        <ele>169</ele>
        <time>2017-08-25T10:20:38Z</time>
      </trkpt>
      <trkpt lat="45.93487" lon="4.77116">
        <ele>169</ele>
        <time>2017-08-25T10:20:39Z</time>
      </trkpt>
      <trkpt lat="45.93486" lon="4.77109">
        <ele>169</ele>
        <time>2017-08-25T10:20:40Z</time>
      </trkpt>
      <trkpt lat="45.93484" lon="4.77101">
        <ele>169</ele>
        <time>2017-08-25T10:20:41Z</time>
      </trkpt>
      <trkpt lat="45.93483" lon="4.77094">
        <ele>169</ele>
        <time>2017-08-25T10:20:42Z</time>
      </trkpt>
      <trkpt lat="45.93482" lon="4.77088">
        <ele>169</ele>
        <time>2017-08-25T10:20:43Z</time>
      </trkpt>
      <trkpt lat="45.9348" lon="4.77081">
        <ele>170</ele>
        <time>2017-08-25T10:20:44Z</time>
      </trkpt>
      <trkpt lat="45.93479" lon="4.77075">
        <ele>170</ele>
        <time>2017-08-25T10:20:45Z</time>
      </trkpt>
      <trkpt lat="45.93478" lon="4.77068">
        <ele>170</ele>
        <time>2017-08-25T10:20:46Z</time>
      </trkpt>
      <trkpt lat="45.93476" lon="4.77061">
        <ele>170</ele>
        <time>2017-08-25T10:20:47Z</time>
      </trkpt>
      <trkpt lat="45.93475" lon="4.77053">
        <ele>170</ele>
        <time>2017-08-25T10:20:48Z</time>
      </trkpt>
      <trkpt lat="45.93473" lon="4.77046">
        <ele>170</ele>
        <time>2017-08-25T10:20:49Z</time>
      </trkpt>
      <trkpt lat="45.93472" lon="4.77038">
        <ele>170</ele>
        <time>2017-08-25T10:20:50Z</time>
      </trkpt>
      <trkpt lat="45.93471" lon="4.77031">
        <ele>170</ele>
        <time>2017-08-25T10:20:51Z</time>
      </trkpt>
      <trkpt lat="45.9347" lon="4.77024">
        <ele>170</ele>
        <time>2017-08-25T10:20:52Z</time>
      </trkpt>
      <trkpt lat="45.93469" lon="4.77016">
        <ele>170</ele>
        <time>2017-08-25T10:20:53Z</time>
      </trkpt>
      <trkpt lat="45.93468" lon="4.77009">
        <ele>170</ele>
        <time>2017-08-25T10:20:54Z</time>
      </trkpt>
      <trkpt lat="45.93466" lon="4.77002">
        <ele>170</ele>
        <time>2017-08-25T10:20:55Z</time>
      </trkpt>
      <trkpt lat="45.93465" lon="4.76996">
        <ele>170</ele>
        <time>2017-08-25T10:20:56Z</time>
      </trkpt>
      <trkpt lat="45.93464" lon="4.7699">
        <ele>170</ele>
        <time>2017-08-25T10:20:57Z</time>
      </trkpt>
      <trkpt lat="45.93464" lon="4.76983">
        <ele>170</ele>
        <time>2017-08-25T10:20:58Z</time>
      </trkpt>
      <trkpt lat="45.93463" lon="4.76975">
        <ele>170</ele>
        <time>2017-08-25T10:20:59Z</time>
      </trkpt>
      <trkpt lat="45.93462" lon="4.76967">
        <ele>170</ele>
        <time>2017-08-25T10:21:00Z</time>
      </trkpt>
      <trkpt lat="45.93461" lon="4.76959">
        <ele>170</ele>
        <time>2017-08-25T10:21:01Z</time>
      </trkpt>
      <trkpt lat="45.9346" lon="4.76951">
        <ele>170</ele>
        <time>2017-08-25T10:21:02Z</time>
      </trkpt>
      <trkpt lat="45.93459" lon="4.76943">
        <ele>170</ele>
        <time>2017-08-25T10:21:03Z</time>
      </trkpt>
      <trkpt lat="45.93458" lon="4.76936">
        <ele>170</ele>
        <time>2017-08-25T10:21:04Z</time>
      </trkpt>
      <trkpt lat="45.93456" lon="4.76929">
        <ele>170</ele>
        <time>2017-08-25T10:21:05Z</time>
      </trkpt>
      <trkpt lat="45.93455" lon="4.76922">
        <ele>170</ele>
        <time>2017-08-25T10:21:06Z</time>
      </trkpt>
      <trkpt lat="45.93453" lon="4.76915">
        <ele>170</ele>
        <time>2017-08-25T10:21:07Z</time>
      </trkpt>
      <trkpt lat="45.93451" lon="4.76908">
        <ele>170</ele>
        <time>2017-08-25T10:21:08Z</time>
      </trkpt>
      <trkpt lat="45.93449" lon="4.769">
        <ele>170</ele>
        <time>2017-08-25T10:21:09Z</time>
      </trkpt>
      <trkpt lat="45.93447" lon="4.76893">
        <ele>170</ele>
        <time>2017-08-25T10:21:10Z</time>
      </trkpt>
      <trkpt lat="45.93445" lon="4.76885">
        <ele>170</ele>
        <time>2017-08-25T10:21:11Z</time>
      </trkpt>
      <trkpt lat="45.93442" lon="4.76877">
        <ele>170</ele>
        <time>2017-08-25T10:21:12Z</time>
      </trkpt>
      <trkpt lat="45.93439" lon="4.7687">
        <ele>171</ele>
        <time>2017-08-25T10:21:13Z</time>
      </trkpt>
      <trkpt lat="45.93437" lon="4.76864">
        <ele>171</ele>
        <time>2017-08-25T10:21:14Z</time>
      </trkpt>
      <trkpt lat="45.93434" lon="4.76858">
        <ele>171</ele>
        <time>2017-08-25T10:21:15Z</time>
      </trkpt>
      <trkpt lat="45.93431" lon="4.76852">
        <ele>171</ele>
        <time>2017-08-25T10:21:16Z</time>
      </trkpt>
      <trkpt lat="45.93428" lon="4.76847">
        <ele>171</ele>
        <time>2017-08-25T10:21:17Z</time>
      </trkpt>
      <trkpt lat="45.93423" lon="4.76836">
        <ele>172</ele>
        <time>2017-08-25T10:21:19Z</time>
      </trkpt>
      <trkpt lat="45.9342" lon="4.76831">
        <ele>172</ele>
        <time>2017-08-25T10:21:20Z</time>
      </trkpt>
      <trkpt lat="45.93417" lon="4.76826">
        <ele>172</ele>
        <time>2017-08-25T10:21:21Z</time>
      </trkpt>
      <trkpt lat="45.93414" lon="4.7682">
        <ele>172</ele>
        <time>2017-08-25T10:21:22Z</time>
      </trkpt>
      <trkpt lat="45.93411" lon="4.76815">
        <ele>172</ele>
        <time>2017-08-25T10:21:23Z</time>
      </trkpt>
      <trkpt lat="45.93407" lon="4.76809">
        <ele>172</ele>
        <time>2017-08-25T10:21:24Z</time>
      </trkpt>
      <trkpt lat="45.93402" lon="4.76803">
        <ele>172</ele>
        <time>2017-08-25T10:21:25Z</time>
      </trkpt>
      <trkpt lat="45.93397" lon="4.76797">
        <ele>172</ele>
        <time>2017-08-25T10:21:26Z</time>
      </trkpt>
      <trkpt lat="45.93392" lon="4.76791">
        <ele>172</ele>
        <time>2017-08-25T10:21:27Z</time>
      </trkpt>
      <trkpt lat="45.93387" lon="4.76786">
        <ele>172</ele>
        <time>2017-08-25T10:21:28Z</time>
      </trkpt>
      <trkpt lat="45.93381" lon="4.76781">
        <ele>172</ele>
        <time>2017-08-25T10:21:29Z</time>
      </trkpt>
      <trkpt lat="45.93376" lon="4.76776">
        <ele>172</ele>
        <time>2017-08-25T10:21:30Z</time>
      </trkpt>
      <trkpt lat="45.93371" lon="4.76771">
        <ele>172</ele>
        <time>2017-08-25T10:21:31Z</time>
      </trkpt>
      <trkpt lat="45.93366" lon="4.76766">
        <ele>172</ele>
        <time>2017-08-25T10:21:32Z</time>
      </trkpt>
      <trkpt lat="45.93361" lon="4.7676">
        <ele>172</ele>
        <time>2017-08-25T10:21:33Z</time>
      </trkpt>
      <trkpt lat="45.93356" lon="4.76755">
        <ele>172</ele>
        <time>2017-08-25T10:21:34Z</time>
      </trkpt>
      <trkpt lat="45.93352" lon="4.76751">
        <ele>172</ele>
        <time>2017-08-25T10:21:35Z</time>
      </trkpt>
      <trkpt lat="45.93347" lon="4.76746">
        <ele>172</ele>
        <time>2017-08-25T10:21:36Z</time>
      </trkpt>
      <trkpt lat="45.93343" lon="4.76742">
        <ele>172</ele>
        <time>2017-08-25T10:21:37Z</time>
      </trkpt>
      <trkpt lat="45.93339" lon="4.76738">
        <ele>172</ele>
        <time>2017-08-25T10:21:38Z</time>
      </trkpt>
      <trkpt lat="45.93335" lon="4.76734">
        <ele>172</ele>
        <time>2017-08-25T10:21:39Z</time>
      </trkpt>
      <trkpt lat="45.93331" lon="4.7673">
        <ele>172</ele>
        <time>2017-08-25T10:21:40Z</time>
      </trkpt>
      <trkpt lat="45.93328" lon="4.76725">
        <ele>172</ele>
        <time>2017-08-25T10:21:41Z</time>
      </trkpt>
      <trkpt lat="45.93323" lon="4.76721">
        <ele>172</ele>
        <time>2017-08-25T10:21:42Z</time>
      </trkpt>
      <trkpt lat="45.93318" lon="4.76716">
        <ele>172</ele>
        <time>2017-08-25T10:21:43Z</time>
      </trkpt>
      <trkpt lat="45.93313" lon="4.76712">
        <ele>172</ele>
        <time>2017-08-25T10:21:44Z</time>
      </trkpt>
      <trkpt lat="45.93308" lon="4.76707">
        <ele>172</ele>
        <time>2017-08-25T10:21:45Z</time>
      </trkpt>
      <trkpt lat="45.93304" lon="4.76702">
        <ele>172</ele>
        <time>2017-08-25T10:21:46Z</time>
      </trkpt>
      <trkpt lat="45.93299" lon="4.76698">
        <ele>172</ele>
        <time>2017-08-25T10:21:47Z</time>
      </trkpt>
      <trkpt lat="45.93295" lon="4.76693">
        <ele>172</ele>
        <time>2017-08-25T10:21:48Z</time>
      </trkpt>
      <trkpt lat="45.93291" lon="4.76689">
        <ele>172</ele>
        <time>2017-08-25T10:21:49Z</time>
      </trkpt>
      <trkpt lat="45.93288" lon="4.76685">
        <ele>172</ele>
        <time>2017-08-25T10:21:50Z</time>
      </trkpt>
      <trkpt lat="45.93281" lon="4.76678">
        <ele>172</ele>
        <time>2017-08-25T10:21:52Z</time>
      </trkpt>
      <trkpt lat="45.93277" lon="4.76674">
        <ele>172</ele>
        <time>2017-08-25T10:21:53Z</time>
      </trkpt>
      <trkpt lat="45.93274" lon="4.7667">
        <ele>172</ele>
        <time>2017-08-25T10:21:54Z</time>
      </trkpt>
      <trkpt lat="45.93269" lon="4.76667">
        <ele>172</ele>
        <time>2017-08-25T10:21:55Z</time>
      </trkpt>
      <trkpt lat="45.93265" lon="4.76664">
        <ele>171</ele>
        <time>2017-08-25T10:21:56Z</time>
      </trkpt>
      <trkpt lat="45.93261" lon="4.7666">
        <ele>171</ele>
        <time>2017-08-25T10:21:57Z</time>
      </trkpt>
      <trkpt lat="45.93257" lon="4.76656">
        <ele>171</ele>
        <time>2017-08-25T10:21:58Z</time>
      </trkpt>
      <trkpt lat="45.93252" lon="4.76653">
        <ele>171</ele>
        <time>2017-08-25T10:21:59Z</time>
      </trkpt>
      <trkpt lat="45.93249" lon="4.76649">
        <ele>171</ele>
        <time>2017-08-25T10:22:00Z</time>
      </trkpt>
      <trkpt lat="45.93244" lon="4.76645">
        <ele>171</ele>
        <time>2017-08-25T10:22:01Z</time>
      </trkpt>
      <trkpt lat="45.9324" lon="4.76639">
        <ele>171</ele>
        <time>2017-08-25T10:22:02Z</time>
      </trkpt>
      <trkpt lat="45.93236" lon="4.76634">
        <ele>171</ele>
        <time>2017-08-25T10:22:03Z</time>
      </trkpt>
      <trkpt lat="45.93232" lon="4.7663">
        <ele>170</ele>
        <time>2017-08-25T10:22:04Z</time>
      </trkpt>
      <trkpt lat="45.93228" lon="4.76626">
        <ele>170</ele>
        <time>2017-08-25T10:22:05Z</time>
      </trkpt>
      <trkpt lat="45.93224" lon="4.76621">
        <ele>170</ele>
        <time>2017-08-25T10:22:06Z</time>
      </trkpt>
      <trkpt lat="45.93219" lon="4.76616">
        <ele>170</ele>
        <time>2017-08-25T10:22:07Z</time>
      </trkpt>
      <trkpt lat="45.93214" lon="4.76611">
        <ele>170</ele>
        <time>2017-08-25T10:22:08Z</time>
      </trkpt>
      <trkpt lat="45.93209" lon="4.76605">
        <ele>170</ele>
        <time>2017-08-25T10:22:09Z</time>
      </trkpt>
      <trkpt lat="45.93204" lon="4.766">
        <ele>170</ele>
        <time>2017-08-25T10:22:10Z</time>
      </trkpt>
      <trkpt lat="45.932" lon="4.76595">
        <ele>170</ele>
        <time>2017-08-25T10:22:11Z</time>
      </trkpt>
      <trkpt lat="45.93195" lon="4.7659">
        <ele>170</ele>
        <time>2017-08-25T10:22:12Z</time>
      </trkpt>
      <trkpt lat="45.9319" lon="4.76585">
        <ele>170</ele>
        <time>2017-08-25T10:22:13Z</time>
      </trkpt>
      <trkpt lat="45.93186" lon="4.76581">
        <ele>170</ele>
        <time>2017-08-25T10:22:14Z</time>
      </trkpt>
      <trkpt lat="45.93182" lon="4.76576">
        <ele>170</ele>
        <time>2017-08-25T10:22:15Z</time>
      </trkpt>
      <trkpt lat="45.93178" lon="4.76572">
        <ele>170</ele>
        <time>2017-08-25T10:22:16Z</time>
      </trkpt>
      <trkpt lat="45.93174" lon="4.76568">
        <ele>170</ele>
        <time>2017-08-25T10:22:17Z</time>
      </trkpt>
      <trkpt lat="45.9317" lon="4.76563">
        <ele>170</ele>
        <time>2017-08-25T10:22:18Z</time>
      </trkpt>
      <trkpt lat="45.93165" lon="4.76559">
        <ele>170</ele>
        <time>2017-08-25T10:22:19Z</time>
      </trkpt>
      <trkpt lat="45.93161" lon="4.76555">
        <ele>170</ele>
        <time>2017-08-25T10:22:20Z</time>
      </trkpt>
      <trkpt lat="45.93157" lon="4.76551">
        <ele>170</ele>
        <time>2017-08-25T10:22:21Z</time>
      </trkpt>
      <trkpt lat="45.93152" lon="4.76547">
        <ele>170</ele>
        <time>2017-08-25T10:22:22Z</time>
      </trkpt>
      <trkpt lat="45.93148" lon="4.76542">
        <ele>170</ele>
        <time>2017-08-25T10:22:23Z</time>
      </trkpt>
      <trkpt lat="45.93144" lon="4.76537">
        <ele>170</ele>
        <time>2017-08-25T10:22:24Z</time>
      </trkpt>
      <trkpt lat="45.9314" lon="4.76534">
        <ele>170</ele>
        <time>2017-08-25T10:22:25Z</time>
      </trkpt>
      <trkpt lat="45.93133" lon="4.76526">
        <ele>170</ele>
        <time>2017-08-25T10:22:27Z</time>
      </trkpt>
      <trkpt lat="45.93129" lon="4.76522">
        <ele>170</ele>
        <time>2017-08-25T10:22:28Z</time>
      </trkpt>
      <trkpt lat="45.93125" lon="4.76518">
        <ele>170</ele>
        <time>2017-08-25T10:22:29Z</time>
      </trkpt>
      <trkpt lat="45.93121" lon="4.76514">
        <ele>170</ele>
        <time>2017-08-25T10:22:30Z</time>
      </trkpt>
      <trkpt lat="45.93116" lon="4.7651">
        <ele>170</ele>
        <time>2017-08-25T10:22:31Z</time>
      </trkpt>
      <trkpt lat="45.93111" lon="4.76505">
        <ele>170</ele>
        <time>2017-08-25T10:22:32Z</time>
      </trkpt>
      <trkpt lat="45.93107" lon="4.765">
        <ele>169</ele>
        <time>2017-08-25T10:22:33Z</time>
      </trkpt>
      <trkpt lat="45.93102" lon="4.76496">
        <ele>169</ele>
        <time>2017-08-25T10:22:34Z</time>
      </trkpt>
      <trkpt lat="45.93097" lon="4.76491">
        <ele>170</ele>
        <time>2017-08-25T10:22:35Z</time>
      </trkpt>
      <trkpt lat="45.93092" lon="4.76485">
        <ele>169</ele>
        <time>2017-08-25T10:22:36Z</time>
      </trkpt>
      <trkpt lat="45.93088" lon="4.7648">
        <ele>169</ele>
        <time>2017-08-25T10:22:37Z</time>
      </trkpt>
      <trkpt lat="45.93083" lon="4.76476">
        <ele>169</ele>
        <time>2017-08-25T10:22:38Z</time>
      </trkpt>
      <trkpt lat="45.93079" lon="4.76473">
        <ele>169</ele>
        <time>2017-08-25T10:22:39Z</time>
      </trkpt>
      <trkpt lat="45.93075" lon="4.76469">
        <ele>169</ele>
        <time>2017-08-25T10:22:40Z</time>
      </trkpt>
      <trkpt lat="45.93071" lon="4.76465">
        <ele>169</ele>
        <time>2017-08-25T10:22:41Z</time>
      </trkpt>
      <trkpt lat="45.93067" lon="4.76461">
        <ele>169</ele>
        <time>2017-08-25T10:22:42Z</time>
      </trkpt>
      <trkpt lat="45.93062" lon="4.76458">
        <ele>169</ele>
        <time>2017-08-25T10:22:43Z</time>
      </trkpt>
      <trkpt lat="45.93057" lon="4.76454">
        <ele>169</ele>
        <time>2017-08-25T10:22:44Z</time>
      </trkpt>
      <trkpt lat="45.93053" lon="4.7645">
        <ele>169</ele>
        <time>2017-08-25T10:22:45Z</time>
      </trkpt>
      <trkpt lat="45.93048" lon="4.76445">
        <ele>169</ele>
        <time>2017-08-25T10:22:46Z</time>
      </trkpt>
      <trkpt lat="45.93043" lon="4.7644">
        <ele>169</ele>
        <time>2017-08-25T10:22:47Z</time>
      </trkpt>
      <trkpt lat="45.93038" lon="4.76436">
        <ele>169</ele>
        <time>2017-08-25T10:22:48Z</time>
      </trkpt>
      <trkpt lat="45.93033" lon="4.76431">
        <ele>169</ele>
        <time>2017-08-25T10:22:49Z</time>
      </trkpt>
      <trkpt lat="45.93028" lon="4.76427">
        <ele>169</ele>
        <time>2017-08-25T10:22:50Z</time>
      </trkpt>
      <trkpt lat="45.93024" lon="4.76422">
        <ele>169</ele>
        <time>2017-08-25T10:22:51Z</time>
      </trkpt>
      <trkpt lat="45.93019" lon="4.76418">
        <ele>169</ele>
        <time>2017-08-25T10:22:52Z</time>
      </trkpt>
      <trkpt lat="45.93015" lon="4.76414">
        <ele>169</ele>
        <time>2017-08-25T10:22:53Z</time>
      </trkpt>
      <trkpt lat="45.93012" lon="4.7641">
        <ele>169</ele>
        <time>2017-08-25T10:22:54Z</time>
      </trkpt>
      <trkpt lat="45.93008" lon="4.76407">
        <ele>169</ele>
        <time>2017-08-25T10:22:55Z</time>
      </trkpt>
      <trkpt lat="45.93004" lon="4.76402">
        <ele>169</ele>
        <time>2017-08-25T10:22:56Z</time>
      </trkpt>
      <trkpt lat="45.93" lon="4.76398">
        <ele>169</ele>
        <time>2017-08-25T10:22:57Z</time>
      </trkpt>
      <trkpt lat="45.92995" lon="4.76394">
        <ele>169</ele>
        <time>2017-08-25T10:22:58Z</time>
      </trkpt>
      <trkpt lat="45.92991" lon="4.7639">
        <ele>169</ele>
        <time>2017-08-25T10:22:59Z</time>
      </trkpt>
      <trkpt lat="45.92987" lon="4.76385">
        <ele>169</ele>
        <time>2017-08-25T10:23:00Z</time>
      </trkpt>
      <trkpt lat="45.92982" lon="4.7638">
        <ele>169</ele>
        <time>2017-08-25T10:23:01Z</time>
      </trkpt>
      <trkpt lat="45.92978" lon="4.76375">
        <ele>169</ele>
        <time>2017-08-25T10:23:02Z</time>
      </trkpt>
      <trkpt lat="45.92974" lon="4.76369">
        <ele>169</ele>
        <time>2017-08-25T10:23:03Z</time>
      </trkpt>
      <trkpt lat="45.9297" lon="4.76365">
        <ele>169</ele>
        <time>2017-08-25T10:23:04Z</time>
      </trkpt>
      <trkpt lat="45.92963" lon="4.76357">
        <ele>169</ele>
        <time>2017-08-25T10:23:06Z</time>
      </trkpt>
      <trkpt lat="45.92959" lon="4.76353">
        <ele>169</ele>
        <time>2017-08-25T10:23:07Z</time>
      </trkpt>
      <trkpt lat="45.92955" lon="4.76349">
        <ele>169</ele>
        <time>2017-08-25T10:23:08Z</time>
      </trkpt>
      <trkpt lat="45.92952" lon="4.76345">
        <ele>169</ele>
        <time>2017-08-25T10:23:09Z</time>
      </trkpt>
      <trkpt lat="45.92948" lon="4.76341">
        <ele>169</ele>
        <time>2017-08-25T10:23:10Z</time>
      </trkpt>
      <trkpt lat="45.92944" lon="4.76337">
        <ele>169</ele>
        <time>2017-08-25T10:23:11Z</time>
      </trkpt>
      <trkpt lat="45.9294" lon="4.76334">
        <ele>169</ele>
        <time>2017-08-25T10:23:12Z</time>
      </trkpt>
      <trkpt lat="45.92936" lon="4.7633">
        <ele>169</ele>
        <time>2017-08-25T10:23:13Z</time>
      </trkpt>
      <trkpt lat="45.92929" lon="4.76324">
        <ele>169</ele>
        <time>2017-08-25T10:23:15Z</time>
      </trkpt>
      <trkpt lat="45.92925" lon="4.7632">
        <ele>169</ele>
        <time>2017-08-25T10:23:16Z</time>
      </trkpt>
      <trkpt lat="45.92918" lon="4.76313">
        <ele>169</ele>
        <time>2017-08-25T10:23:18Z</time>
      </trkpt>
      <trkpt lat="45.92913" lon="4.76309">
        <ele>169</ele>
        <time>2017-08-25T10:23:19Z</time>
      </trkpt>
      <trkpt lat="45.92909" lon="4.76305">
        <ele>169</ele>
        <time>2017-08-25T10:23:20Z</time>
      </trkpt>
      <trkpt lat="45.92904" lon="4.763">
        <ele>169</ele>
        <time>2017-08-25T10:23:21Z</time>
      </trkpt>
      <trkpt lat="45.92899" lon="4.76295">
        <ele>169</ele>
        <time>2017-08-25T10:23:22Z</time>
      </trkpt>
      <trkpt lat="45.92894" lon="4.76291">
        <ele>169</ele>
        <time>2017-08-25T10:23:23Z</time>
      </trkpt>
      <trkpt lat="45.9289" lon="4.76286">
        <ele>169</ele>
        <time>2017-08-25T10:23:24Z</time>
      </trkpt>
      <trkpt lat="45.92885" lon="4.76281">
        <ele>169</ele>
        <time>2017-08-25T10:23:25Z</time>
      </trkpt>
      <trkpt lat="45.92881" lon="4.76275">
        <ele>169</ele>
        <time>2017-08-25T10:23:26Z</time>
      </trkpt>
      <trkpt lat="45.92877" lon="4.7627">
        <ele>169</ele>
        <time>2017-08-25T10:23:27Z</time>
      </trkpt>
      <trkpt lat="45.92873" lon="4.76266">
        <ele>169</ele>
        <time>2017-08-25T10:23:28Z</time>
      </trkpt>
      <trkpt lat="45.92869" lon="4.76261">
        <ele>169</ele>
        <time>2017-08-25T10:23:29Z</time>
      </trkpt>
      <trkpt lat="45.92865" lon="4.76257">
        <ele>169</ele>
        <time>2017-08-25T10:23:30Z</time>
      </trkpt>
      <trkpt lat="45.92861" lon="4.76253">
        <ele>169</ele>
        <time>2017-08-25T10:23:31Z</time>
      </trkpt>
      <trkpt lat="45.92858" lon="4.76249">
        <ele>168</ele>
        <time>2017-08-25T10:23:32Z</time>
      </trkpt>
      <trkpt lat="45.92854" lon="4.76246">
        <ele>169</ele>
        <time>2017-08-25T10:23:33Z</time>
      </trkpt>
      <trkpt lat="45.9285" lon="4.76242">
        <ele>169</ele>
        <time>2017-08-25T10:23:34Z</time>
      </trkpt>
      <trkpt lat="45.92846" lon="4.76238">
        <ele>169</ele>
        <time>2017-08-25T10:23:35Z</time>
      </trkpt>
      <trkpt lat="45.92841" lon="4.76234">
        <ele>169</ele>
        <time>2017-08-25T10:23:36Z</time>
      </trkpt>
      <trkpt lat="45.92837" lon="4.7623">
        <ele>168</ele>
        <time>2017-08-25T10:23:37Z</time>
      </trkpt>
      <trkpt lat="45.92832" lon="4.76226">
        <ele>168</ele>
        <time>2017-08-25T10:23:38Z</time>
      </trkpt>
      <trkpt lat="45.92828" lon="4.76222">
        <ele>168</ele>
        <time>2017-08-25T10:23:39Z</time>
      </trkpt>
      <trkpt lat="45.92823" lon="4.76218">
        <ele>168</ele>
        <time>2017-08-25T10:23:40Z</time>
      </trkpt>
      <trkpt lat="45.92818" lon="4.76213">
        <ele>168</ele>
        <time>2017-08-25T10:23:41Z</time>
      </trkpt>
      <trkpt lat="45.92813" lon="4.7621">
        <ele>168</ele>
        <time>2017-08-25T10:23:42Z</time>
      </trkpt>
      <trkpt lat="45.92809" lon="4.76206">
        <ele>168</ele>
        <time>2017-08-25T10:23:43Z</time>
      </trkpt>
      <trkpt lat="45.92805" lon="4.76202">
        <ele>168</ele>
        <time>2017-08-25T10:23:44Z</time>
      </trkpt>
      <trkpt lat="45.928" lon="4.76198">
        <ele>168</ele>
        <time>2017-08-25T10:23:45Z</time>
      </trkpt>
      <trkpt lat="45.92796" lon="4.76194">
        <ele>168</ele>
        <time>2017-08-25T10:23:46Z</time>
      </trkpt>
      <trkpt lat="45.92793" lon="4.7619">
        <ele>168</ele>
        <time>2017-08-25T10:23:47Z</time>
      </trkpt>
      <trkpt lat="45.92789" lon="4.76187">
        <ele>168</ele>
        <time>2017-08-25T10:23:48Z</time>
      </trkpt>
      <trkpt lat="45.92784" lon="4.76183">
        <ele>168</ele>
        <time>2017-08-25T10:23:49Z</time>
      </trkpt>
      <trkpt lat="45.92779" lon="4.76179">
        <ele>167</ele>
        <time>2017-08-25T10:23:50Z</time>
      </trkpt>
      <trkpt lat="45.92774" lon="4.76175">
        <ele>167</ele>
        <time>2017-08-25T10:23:51Z</time>
      </trkpt>
      <trkpt lat="45.92769" lon="4.76171">
        <ele>167</ele>
        <time>2017-08-25T10:23:52Z</time>
      </trkpt>
      <trkpt lat="45.92764" lon="4.76167">
        <ele>167</ele>
        <time>2017-08-25T10:23:53Z</time>
      </trkpt>
      <trkpt lat="45.92759" lon="4.76163">
        <ele>167</ele>
        <time>2017-08-25T10:23:54Z</time>
      </trkpt>
      <trkpt lat="45.92754" lon="4.76158">
        <ele>167</ele>
        <time>2017-08-25T10:23:55Z</time>
      </trkpt>
      <trkpt lat="45.92748" lon="4.76154">
        <ele>168</ele>
        <time>2017-08-25T10:23:56Z</time>
      </trkpt>
      <trkpt lat="45.92744" lon="4.7615">
        <ele>168</ele>
        <time>2017-08-25T10:23:57Z</time>
      </trkpt>
      <trkpt lat="45.9274" lon="4.76147">
        <ele>168</ele>
        <time>2017-08-25T10:23:58Z</time>
      </trkpt>
      <trkpt lat="45.92735" lon="4.76143">
        <ele>168</ele>
        <time>2017-08-25T10:23:59Z</time>
      </trkpt>
      <trkpt lat="45.92728" lon="4.76138">
        <ele>168</ele>
        <time>2017-08-25T10:24:01Z</time>
      </trkpt>
      <trkpt lat="45.92724" lon="4.76135">
        <ele>168</ele>
        <time>2017-08-25T10:24:02Z</time>
      </trkpt>
      <trkpt lat="45.92717" lon="4.7613">
        <ele>168</ele>
        <time>2017-08-25T10:24:04Z</time>
      </trkpt>
      <trkpt lat="45.92712" lon="4.76127">
        <ele>168</ele>
        <time>2017-08-25T10:24:05Z</time>
      </trkpt>
      <trkpt lat="45.92708" lon="4.76123">
        <ele>169</ele>
        <time>2017-08-25T10:24:06Z</time>
      </trkpt>
      <trkpt lat="45.92703" lon="4.7612">
        <ele>169</ele>
        <time>2017-08-25T10:24:07Z</time>
      </trkpt>
      <trkpt lat="45.92699" lon="4.76116">
        <ele>169</ele>
        <time>2017-08-25T10:24:08Z</time>
      </trkpt>
      <trkpt lat="45.92694" lon="4.76112">
        <ele>169</ele>
        <time>2017-08-25T10:24:09Z</time>
      </trkpt>
      <trkpt lat="45.9269" lon="4.76108">
        <ele>169</ele>
        <time>2017-08-25T10:24:10Z</time>
      </trkpt>
      <trkpt lat="45.92685" lon="4.76104">
        <ele>169</ele>
        <time>2017-08-25T10:24:11Z</time>
      </trkpt>
      <trkpt lat="45.9268" lon="4.761">
        <ele>169</ele>
        <time>2017-08-25T10:24:12Z</time>
      </trkpt>
      <trkpt lat="45.92676" lon="4.76096">
        <ele>169</ele>
        <time>2017-08-25T10:24:13Z</time>
      </trkpt>
      <trkpt lat="45.92671" lon="4.76092">
        <ele>170</ele>
        <time>2017-08-25T10:24:14Z</time>
      </trkpt>
      <trkpt lat="45.92667" lon="4.76089">
        <ele>170</ele>
        <time>2017-08-25T10:24:15Z</time>
      </trkpt>
      <trkpt lat="45.92662" lon="4.76085">
        <ele>170</ele>
        <time>2017-08-25T10:24:16Z</time>
      </trkpt>
      <trkpt lat="45.92657" lon="4.76081">
        <ele>170</ele>
        <time>2017-08-25T10:24:17Z</time>
      </trkpt>
      <trkpt lat="45.92653" lon="4.76077">
        <ele>170</ele>
        <time>2017-08-25T10:24:18Z</time>
      </trkpt>
      <trkpt lat="45.92648" lon="4.76074">
        <ele>170</ele>
        <time>2017-08-25T10:24:19Z</time>
      </trkpt>
      <trkpt lat="45.92643" lon="4.76071">
        <ele>170</ele>
        <time>2017-08-25T10:24:20Z</time>
      </trkpt>
      <trkpt lat="45.92638" lon="4.76067">
        <ele>170</ele>
        <time>2017-08-25T10:24:21Z</time>
      </trkpt>
      <trkpt lat="45.92633" lon="4.76063">
        <ele>170</ele>
        <time>2017-08-25T10:24:22Z</time>
      </trkpt>
      <trkpt lat="45.92629" lon="4.7606">
        <ele>170</ele>
        <time>2017-08-25T10:24:23Z</time>
      </trkpt>
      <trkpt lat="45.92625" lon="4.76056">
        <ele>171</ele>
        <time>2017-08-25T10:24:24Z</time>
      </trkpt>
      <trkpt lat="45.9262" lon="4.76053">
        <ele>171</ele>
        <time>2017-08-25T10:24:25Z</time>
      </trkpt>
      <trkpt lat="45.92615" lon="4.76049">
        <ele>171</ele>
        <time>2017-08-25T10:24:26Z</time>
      </trkpt>
      <trkpt lat="45.92611" lon="4.76046">
        <ele>171</ele>
        <time>2017-08-25T10:24:27Z</time>
      </trkpt>
      <trkpt lat="45.92606" lon="4.76042">
        <ele>171</ele>
        <time>2017-08-25T10:24:28Z</time>
      </trkpt>
      <trkpt lat="45.92602" lon="4.7604">
        <ele>171</ele>
        <time>2017-08-25T10:24:29Z</time>
      </trkpt>
      <trkpt lat="45.92597" lon="4.76037">
        <ele>171</ele>
        <time>2017-08-25T10:24:30Z</time>
      </trkpt>
      <trkpt lat="45.92592" lon="4.76034">
        <ele>171</ele>
        <time>2017-08-25T10:24:31Z</time>
      </trkpt>
      <trkpt lat="45.92588" lon="4.76031">
        <ele>171</ele>
        <time>2017-08-25T10:24:32Z</time>
      </trkpt>
      <trkpt lat="45.92584" lon="4.76028">
        <ele>171</ele>
        <time>2017-08-25T10:24:33Z</time>
      </trkpt>
      <trkpt lat="45.92577" lon="4.76023">
        <ele>172</ele>
        <time>2017-08-25T10:24:35Z</time>
      </trkpt>
      <trkpt lat="45.92573" lon="4.76022">
        <ele>172</ele>
        <time>2017-08-25T10:24:36Z</time>
      </trkpt>
      <trkpt lat="45.92565" lon="4.76017">
        <ele>172</ele>
        <time>2017-08-25T10:24:38Z</time>
      </trkpt>
      <trkpt lat="45.92561" lon="4.76015">
        <ele>172</ele>
        <time>2017-08-25T10:24:39Z</time>
      </trkpt>
      <trkpt lat="45.92555" lon="4.7601">
        <ele>172</ele>
        <time>2017-08-25T10:24:41Z</time>
      </trkpt>
      <trkpt lat="45.92552" lon="4.76008">
        <ele>172</ele>
        <time>2017-08-25T10:24:42Z</time>
      </trkpt>
      <trkpt lat="45.92545" lon="4.76004">
        <ele>172</ele>
        <time>2017-08-25T10:24:44Z</time>
      </trkpt>
      <trkpt lat="45.92541" lon="4.76001">
        <ele>172</ele>
        <time>2017-08-25T10:24:45Z</time>
      </trkpt>
      <trkpt lat="45.92534" lon="4.75996">
        <ele>172</ele>
        <time>2017-08-25T10:24:47Z</time>
      </trkpt>
      <trkpt lat="45.9253" lon="4.75994">
        <ele>172</ele>
        <time>2017-08-25T10:24:48Z</time>
      </trkpt>
      <trkpt lat="45.92524" lon="4.75989">
        <ele>172</ele>
        <time>2017-08-25T10:24:50Z</time>
      </trkpt>
      <trkpt lat="45.92521" lon="4.75986">
        <ele>172</ele>
        <time>2017-08-25T10:24:51Z</time>
      </trkpt>
      <trkpt lat="45.92514" lon="4.75982">
        <ele>172</ele>
        <time>2017-08-25T10:24:53Z</time>
      </trkpt>
      <trkpt lat="45.92511" lon="4.7598">
        <ele>172</ele>
        <time>2017-08-25T10:24:54Z</time>
      </trkpt>
      <trkpt lat="45.92504" lon="4.75976">
        <ele>172</ele>
        <time>2017-08-25T10:24:56Z</time>
      </trkpt>
      <trkpt lat="45.92501" lon="4.75974">
        <ele>172</ele>
        <time>2017-08-25T10:24:57Z</time>
      </trkpt>
      <trkpt lat="45.92494" lon="4.75969">
        <ele>172</ele>
        <time>2017-08-25T10:24:59Z</time>
      </trkpt>
      <trkpt lat="45.9249" lon="4.75966">
        <ele>172</ele>
        <time>2017-08-25T10:25:00Z</time>
      </trkpt>
      <trkpt lat="45.92482" lon="4.75961">
        <ele>172</ele>
        <time>2017-08-25T10:25:02Z</time>
      </trkpt>
      <trkpt lat="45.92478" lon="4.75959">
        <ele>172</ele>
        <time>2017-08-25T10:25:03Z</time>
      </trkpt>
      <trkpt lat="45.92474" lon="4.75956">
        <ele>172</ele>
        <time>2017-08-25T10:25:04Z</time>
      </trkpt>
      <trkpt lat="45.9247" lon="4.75953">
        <ele>172</ele>
        <time>2017-08-25T10:25:05Z</time>
      </trkpt>
      <trkpt lat="45.92465" lon="4.7595">
        <ele>172</ele>
        <time>2017-08-25T10:25:06Z</time>
      </trkpt>
      <trkpt lat="45.92461" lon="4.75948">
        <ele>172</ele>
        <time>2017-08-25T10:25:07Z</time>
      </trkpt>
      <trkpt lat="45.92456" lon="4.75945">
        <ele>172</ele>
        <time>2017-08-25T10:25:08Z</time>
      </trkpt>
      <trkpt lat="45.92452" lon="4.75942">
        <ele>172</ele>
        <time>2017-08-25T10:25:09Z</time>
      </trkpt>
      <trkpt lat="45.92447" lon="4.75939">
        <ele>172</ele>
        <time>2017-08-25T10:25:10Z</time>
      </trkpt>
      <trkpt lat="45.92443" lon="4.75936">
        <ele>172</ele>
        <time>2017-08-25T10:25:11Z</time>
      </trkpt>
      <trkpt lat="45.92438" lon="4.75933">
        <ele>172</ele>
        <time>2017-08-25T10:25:12Z</time>
      </trkpt>
      <trkpt lat="45.92434" lon="4.75931">
        <ele>172</ele>
        <time>2017-08-25T10:25:13Z</time>
      </trkpt>
      <trkpt lat="45.92429" lon="4.75928">
        <ele>172</ele>
        <time>2017-08-25T10:25:14Z</time>
      </trkpt>
      <trkpt lat="45.92424" lon="4.75924">
        <ele>172</ele>
        <time>2017-08-25T10:25:15Z</time>
      </trkpt>
      <trkpt lat="45.92419" lon="4.75921">
        <ele>172</ele>
        <time>2017-08-25T10:25:16Z</time>
      </trkpt>
      <trkpt lat="45.92415" lon="4.75917">
        <ele>172</ele>
        <time>2017-08-25T10:25:17Z</time>
      </trkpt>
      <trkpt lat="45.92411" lon="4.75913">
        <ele>172</ele>
        <time>2017-08-25T10:25:18Z</time>
      </trkpt>
      <trkpt lat="45.92406" lon="4.75909">
        <ele>172</ele>
        <time>2017-08-25T10:25:19Z</time>
      </trkpt>
      <trkpt lat="45.92401" lon="4.75906">
        <ele>173</ele>
        <time>2017-08-25T10:25:20Z</time>
      </trkpt>
      <trkpt lat="45.92396" lon="4.75903">
        <ele>173</ele>
        <time>2017-08-25T10:25:21Z</time>
      </trkpt>
      <trkpt lat="45.92391" lon="4.759">
        <ele>173</ele>
        <time>2017-08-25T10:25:22Z</time>
      </trkpt>
      <trkpt lat="45.92387" lon="4.75897">
        <ele>173</ele>
        <time>2017-08-25T10:25:23Z</time>
      </trkpt>
      <trkpt lat="45.92383" lon="4.75893">
        <ele>173</ele>
        <time>2017-08-25T10:25:24Z</time>
      </trkpt>
      <trkpt lat="45.92378" lon="4.7589">
        <ele>173</ele>
        <time>2017-08-25T10:25:25Z</time>
      </trkpt>
      <trkpt lat="45.9237" lon="4.75885">
        <ele>173</ele>
        <time>2017-08-25T10:25:27Z</time>
      </trkpt>
      <trkpt lat="45.92366" lon="4.75883">
        <ele>173</ele>
        <time>2017-08-25T10:25:28Z</time>
      </trkpt>
      <trkpt lat="45.92358" lon="4.75877">
        <ele>173</ele>
        <time>2017-08-25T10:25:30Z</time>
      </trkpt>
      <trkpt lat="45.92354" lon="4.75874">
        <ele>173</ele>
        <time>2017-08-25T10:25:31Z</time>
      </trkpt>
      <trkpt lat="45.92349" lon="4.75871">
        <ele>173</ele>
        <time>2017-08-25T10:25:32Z</time>
      </trkpt>
      <trkpt lat="45.92344" lon="4.75868">
        <ele>173</ele>
        <time>2017-08-25T10:25:33Z</time>
      </trkpt>
      <trkpt lat="45.9234" lon="4.75865">
        <ele>173</ele>
        <time>2017-08-25T10:25:34Z</time>
      </trkpt>
      <trkpt lat="45.92335" lon="4.75862">
        <ele>173</ele>
        <time>2017-08-25T10:25:35Z</time>
      </trkpt>
      <trkpt lat="45.92327" lon="4.75857">
        <ele>174</ele>
        <time>2017-08-25T10:25:37Z</time>
      </trkpt>
      <trkpt lat="45.92323" lon="4.75854">
        <ele>174</ele>
        <time>2017-08-25T10:25:38Z</time>
      </trkpt>
      <trkpt lat="45.92318" lon="4.75851">
        <ele>174</ele>
        <time>2017-08-25T10:25:39Z</time>
      </trkpt>
      <trkpt lat="45.92314" lon="4.75848">
        <ele>174</ele>
        <time>2017-08-25T10:25:40Z</time>
      </trkpt>
      <trkpt lat="45.92309" lon="4.75845">
        <ele>173</ele>
        <time>2017-08-25T10:25:41Z</time>
      </trkpt>
      <trkpt lat="45.92305" lon="4.75843">
        <ele>173</ele>
        <time>2017-08-25T10:25:42Z</time>
      </trkpt>
      <trkpt lat="45.923" lon="4.7584">
        <ele>173</ele>
        <time>2017-08-25T10:25:43Z</time>
      </trkpt>
      <trkpt lat="45.92295" lon="4.75837">
        <ele>173</ele>
        <time>2017-08-25T10:25:44Z</time>
      </trkpt>
      <trkpt lat="45.92287" lon="4.75832">
        <ele>174</ele>
        <time>2017-08-25T10:25:46Z</time>
      </trkpt>
      <trkpt lat="45.92283" lon="4.75829">
        <ele>174</ele>
        <time>2017-08-25T10:25:47Z</time>
      </trkpt>
      <trkpt lat="45.92279" lon="4.75825">
        <ele>174</ele>
        <time>2017-08-25T10:25:48Z</time>
      </trkpt>
      <trkpt lat="45.92275" lon="4.75821">
        <ele>174</ele>
        <time>2017-08-25T10:25:49Z</time>
      </trkpt>
      <trkpt lat="45.92271" lon="4.75816">
        <ele>174</ele>
        <time>2017-08-25T10:25:50Z</time>
      </trkpt>
      <trkpt lat="45.92267" lon="4.75811">
        <ele>174</ele>
        <time>2017-08-25T10:25:51Z</time>
      </trkpt>
      <trkpt lat="45.92263" lon="4.75801">
        <ele>174</ele>
        <time>2017-08-25T10:25:53Z</time>
      </trkpt>
      <trkpt lat="45.92261" lon="4.75796">
        <ele>174</ele>
        <time>2017-08-25T10:25:54Z</time>
      </trkpt>
      <trkpt lat="45.92259" lon="4.75785">
        <ele>174</ele>
        <time>2017-08-25T10:25:56Z</time>
      </trkpt>
      <trkpt lat="45.92258" lon="4.75779">
        <ele>174</ele>
        <time>2017-08-25T10:25:57Z</time>
      </trkpt>
      <trkpt lat="45.92256" lon="4.75768">
        <ele>174</ele>
        <time>2017-08-25T10:25:59Z</time>
      </trkpt>
      <trkpt lat="45.92256" lon="4.75763">
        <ele>174</ele>
        <time>2017-08-25T10:26:00Z</time>
      </trkpt>
      <trkpt lat="45.92254" lon="4.75751">
        <ele>174</ele>
        <time>2017-08-25T10:26:02Z</time>
      </trkpt>
      <trkpt lat="45.92253" lon="4.75746">
        <ele>174</ele>
        <time>2017-08-25T10:26:03Z</time>
      </trkpt>
      <trkpt lat="45.9225" lon="4.75735">
        <ele>174</ele>
        <time>2017-08-25T10:26:05Z</time>
      </trkpt>
      <trkpt lat="45.92249" lon="4.7573">
        <ele>174</ele>
        <time>2017-08-25T10:26:06Z</time>
      </trkpt>
      <trkpt lat="45.92245" lon="4.75718">
        <ele>174</ele>
        <time>2017-08-25T10:26:08Z</time>
      </trkpt>
      <trkpt lat="45.92242" lon="4.75713">
        <ele>174</ele>
        <time>2017-08-25T10:26:09Z</time>
      </trkpt>
      <trkpt lat="45.92239" lon="4.75708">
        <ele>174</ele>
        <time>2017-08-25T10:26:10Z</time>
      </trkpt>
      <trkpt lat="45.92235" lon="4.75703">
        <ele>174</ele>
        <time>2017-08-25T10:26:11Z</time>
      </trkpt>
      <trkpt lat="45.92231" lon="4.75699">
        <ele>174</ele>
        <time>2017-08-25T10:26:12Z</time>
      </trkpt>
      <trkpt lat="45.92227" lon="4.75694">
        <ele>174</ele>
        <time>2017-08-25T10:26:13Z</time>
      </trkpt>
      <trkpt lat="45.92222" lon="4.7569">
        <ele>174</ele>
        <time>2017-08-25T10:26:14Z</time>
      </trkpt>
      <trkpt lat="45.92218" lon="4.75686">
        <ele>174</ele>
        <time>2017-08-25T10:26:15Z</time>
      </trkpt>
      <trkpt lat="45.92214" lon="4.75682">
        <ele>174</ele>
        <time>2017-08-25T10:26:16Z</time>
      </trkpt>
      <trkpt lat="45.9221" lon="4.75678">
        <ele>174</ele>
        <time>2017-08-25T10:26:17Z</time>
      </trkpt>
      <trkpt lat="45.92206" lon="4.75673">
        <ele>174</ele>
        <time>2017-08-25T10:26:18Z</time>
      </trkpt>
      <trkpt lat="45.92202" lon="4.75669">
        <ele>174</ele>
        <time>2017-08-25T10:26:19Z</time>
      </trkpt>
      <trkpt lat="45.92198" lon="4.75665">
        <ele>174</ele>
        <time>2017-08-25T10:26:20Z</time>
      </trkpt>
      <trkpt lat="45.92194" lon="4.7566">
        <ele>174</ele>
        <time>2017-08-25T10:26:21Z</time>
      </trkpt>
      <trkpt lat="45.92186" lon="4.75653">
        <ele>174</ele>
        <time>2017-08-25T10:26:23Z</time>
      </trkpt>
      <trkpt lat="45.92182" lon="4.75649">
        <ele>174</ele>
        <time>2017-08-25T10:26:24Z</time>
      </trkpt>
      <trkpt lat="45.92178" lon="4.75645">
        <ele>174</ele>
        <time>2017-08-25T10:26:25Z</time>
      </trkpt>
      <trkpt lat="45.92174" lon="4.7564">
        <ele>174</ele>
        <time>2017-08-25T10:26:26Z</time>
      </trkpt>
      <trkpt lat="45.9217" lon="4.75636">
        <ele>174</ele>
        <time>2017-08-25T10:26:27Z</time>
      </trkpt>
      <trkpt lat="45.92166" lon="4.75631">
        <ele>174</ele>
        <time>2017-08-25T10:26:28Z</time>
      </trkpt>
      <trkpt lat="45.92162" lon="4.75627">
        <ele>174</ele>
        <time>2017-08-25T10:26:29Z</time>
      </trkpt>
      <trkpt lat="45.92158" lon="4.75623">
        <ele>174</ele>
        <time>2017-08-25T10:26:30Z</time>
      </trkpt>
      <trkpt lat="45.92155" lon="4.75619">
        <ele>174</ele>
        <time>2017-08-25T10:26:31Z</time>
      </trkpt>
      <trkpt lat="45.92151" lon="4.75615">
        <ele>174</ele>
        <time>2017-08-25T10:26:32Z</time>
      </trkpt>
      <trkpt lat="45.92147" lon="4.75611">
        <ele>174</ele>
        <time>2017-08-25T10:26:33Z</time>
      </trkpt>
      <trkpt lat="45.92143" lon="4.75607">
        <ele>174</ele>
        <time>2017-08-25T10:26:34Z</time>
      </trkpt>
      <trkpt lat="45.92139" lon="4.75604">
        <ele>174</ele>
        <time>2017-08-25T10:26:35Z</time>
      </trkpt>
      <trkpt lat="45.92135" lon="4.756">
        <ele>174</ele>
        <time>2017-08-25T10:26:36Z</time>
      </trkpt>
      <trkpt lat="45.92131" lon="4.75596">
        <ele>174</ele>
        <time>2017-08-25T10:26:37Z</time>
      </trkpt>
      <trkpt lat="45.92127" lon="4.75592">
        <ele>174</ele>
        <time>2017-08-25T10:26:38Z</time>
      </trkpt>
      <trkpt lat="45.92121" lon="4.75583">
        <ele>174</ele>
        <time>2017-08-25T10:26:40Z</time>
      </trkpt>
      <trkpt lat="45.92119" lon="4.75578">
        <ele>174</ele>
        <time>2017-08-25T10:26:41Z</time>
      </trkpt>
      <trkpt lat="45.92119" lon="4.75569">
        <ele>174</ele>
        <time>2017-08-25T10:26:43Z</time>
      </trkpt>
      <trkpt lat="45.92121" lon="4.75564">
        <ele>174</ele>
        <time>2017-08-25T10:26:44Z</time>
      </trkpt>
      <trkpt lat="45.92124" lon="4.75559">
        <ele>174</ele>
        <time>2017-08-25T10:26:45Z</time>
      </trkpt>
      <trkpt lat="45.92127" lon="4.75553">
        <ele>174</ele>
        <time>2017-08-25T10:26:46Z</time>
      </trkpt>
      <trkpt lat="45.92131" lon="4.75547">
        <ele>174</ele>
        <time>2017-08-25T10:26:47Z</time>
      </trkpt>
      <trkpt lat="45.92134" lon="4.75541">
        <ele>174</ele>
        <time>2017-08-25T10:26:48Z</time>
      </trkpt>
      <trkpt lat="45.92138" lon="4.75535">
        <ele>174</ele>
        <time>2017-08-25T10:26:49Z</time>
      </trkpt>
      <trkpt lat="45.92141" lon="4.75528">
        <ele>174</ele>
        <time>2017-08-25T10:26:50Z</time>
      </trkpt>
      <trkpt lat="45.92144" lon="4.75522">
        <ele>174</ele>
        <time>2017-08-25T10:26:51Z</time>
      </trkpt>
      <trkpt lat="45.92147" lon="4.75515">
        <ele>175</ele>
        <time>2017-08-25T10:26:52Z</time>
      </trkpt>
      <trkpt lat="45.9215" lon="4.75508">
        <ele>175</ele>
        <time>2017-08-25T10:26:53Z</time>
      </trkpt>
      <trkpt lat="45.92153" lon="4.75501">
        <ele>175</ele>
        <time>2017-08-25T10:26:54Z</time>
      </trkpt>
      <trkpt lat="45.92155" lon="4.75495">
        <ele>175</ele>
        <time>2017-08-25T10:26:55Z</time>
      </trkpt>
      <trkpt lat="45.92158" lon="4.7549">
        <ele>175</ele>
        <time>2017-08-25T10:26:56Z</time>
      </trkpt>
      <trkpt lat="45.9216" lon="4.75484">
        <ele>176</ele>
        <time>2017-08-25T10:26:57Z</time>
      </trkpt>
      <trkpt lat="45.92163" lon="4.75478">
        <ele>176</ele>
        <time>2017-08-25T10:26:58Z</time>
      </trkpt>
      <trkpt lat="45.92165" lon="4.75473">
        <ele>176</ele>
        <time>2017-08-25T10:26:59Z</time>
      </trkpt>
      <trkpt lat="45.92167" lon="4.75467">
        <ele>176</ele>
        <time>2017-08-25T10:27:00Z</time>
      </trkpt>
      <trkpt lat="45.9217" lon="4.75461">
        <ele>176</ele>
        <time>2017-08-25T10:27:01Z</time>
      </trkpt>
      <trkpt lat="45.92172" lon="4.75455">
        <ele>176</ele>
        <time>2017-08-25T10:27:02Z</time>
      </trkpt>
      <trkpt lat="45.92175" lon="4.75448">
        <ele>176</ele>
        <time>2017-08-25T10:27:03Z</time>
      </trkpt>
      <trkpt lat="45.92177" lon="4.75441">
        <ele>176</ele>
        <time>2017-08-25T10:27:04Z</time>
      </trkpt>
      <trkpt lat="45.92179" lon="4.75435">
        <ele>177</ele>
        <time>2017-08-25T10:27:05Z</time>
      </trkpt>
      <trkpt lat="45.92181" lon="4.75429">
        <ele>177</ele>
        <time>2017-08-25T10:27:06Z</time>
      </trkpt>
      <trkpt lat="45.92183" lon="4.75423">
        <ele>177</ele>
        <time>2017-08-25T10:27:07Z</time>
      </trkpt>
      <trkpt lat="45.92186" lon="4.75417">
        <ele>177</ele>
        <time>2017-08-25T10:27:08Z</time>
      </trkpt>
      <trkpt lat="45.92189" lon="4.75411">
        <ele>177</ele>
        <time>2017-08-25T10:27:09Z</time>
      </trkpt>
      <trkpt lat="45.92191" lon="4.75405">
        <ele>177</ele>
        <time>2017-08-25T10:27:10Z</time>
      </trkpt>
      <trkpt lat="45.92193" lon="4.75398">
        <ele>177</ele>
        <time>2017-08-25T10:27:11Z</time>
      </trkpt>
      <trkpt lat="45.92194" lon="4.75391">
        <ele>177</ele>
        <time>2017-08-25T10:27:12Z</time>
      </trkpt>
      <trkpt lat="45.92196" lon="4.75385">
        <ele>177</ele>
        <time>2017-08-25T10:27:13Z</time>
      </trkpt>
      <trkpt lat="45.92199" lon="4.75378">
        <ele>177</ele>
        <time>2017-08-25T10:27:14Z</time>
      </trkpt>
      <trkpt lat="45.92202" lon="4.75367">
        <ele>177</ele>
        <time>2017-08-25T10:27:16Z</time>
      </trkpt>
      <trkpt lat="45.92203" lon="4.7536">
        <ele>177</ele>
        <time>2017-08-25T10:27:17Z</time>
      </trkpt>
      <trkpt lat="45.92205" lon="4.75354">
        <ele>177</ele>
        <time>2017-08-25T10:27:18Z</time>
      </trkpt>
      <trkpt lat="45.92207" lon="4.75347">
        <ele>177</ele>
        <time>2017-08-25T10:27:19Z</time>
      </trkpt>
      <trkpt lat="45.92209" lon="4.7534">
        <ele>177</ele>
        <time>2017-08-25T10:27:20Z</time>
      </trkpt>
      <trkpt lat="45.9221" lon="4.75333">
        <ele>176</ele>
        <time>2017-08-25T10:27:21Z</time>
      </trkpt>
      <trkpt lat="45.92212" lon="4.75325">
        <ele>176</ele>
        <time>2017-08-25T10:27:22Z</time>
      </trkpt>
      <trkpt lat="45.92213" lon="4.75317">
        <ele>176</ele>
        <time>2017-08-25T10:27:23Z</time>
      </trkpt>
      <trkpt lat="45.92214" lon="4.7531">
        <ele>176</ele>
        <time>2017-08-25T10:27:24Z</time>
      </trkpt>
      <trkpt lat="45.92215" lon="4.75302">
        <ele>176</ele>
        <time>2017-08-25T10:27:25Z</time>
      </trkpt>
      <trkpt lat="45.92215" lon="4.75294">
        <ele>176</ele>
        <time>2017-08-25T10:27:26Z</time>
      </trkpt>
      <trkpt lat="45.92215" lon="4.75286">
        <ele>176</ele>
        <time>2017-08-25T10:27:27Z</time>
      </trkpt>
      <trkpt lat="45.92215" lon="4.75278">
        <ele>176</ele>
        <time>2017-08-25T10:27:28Z</time>
      </trkpt>
      <trkpt lat="45.92215" lon="4.7527">
        <ele>176</ele>
        <time>2017-08-25T10:27:29Z</time>
      </trkpt>
      <trkpt lat="45.92215" lon="4.75262">
        <ele>176</ele>
        <time>2017-08-25T10:27:30Z</time>
      </trkpt>
      <trkpt lat="45.92215" lon="4.75254">
        <ele>175</ele>
        <time>2017-08-25T10:27:31Z</time>
      </trkpt>
      <trkpt lat="45.92216" lon="4.75245">
        <ele>175</ele>
        <time>2017-08-25T10:27:32Z</time>
      </trkpt>
      <trkpt lat="45.92216" lon="4.75237">
        <ele>175</ele>
        <time>2017-08-25T10:27:33Z</time>
      </trkpt>
      <trkpt lat="45.92218" lon="4.75228">
        <ele>175</ele>
        <time>2017-08-25T10:27:34Z</time>
      </trkpt>
      <trkpt lat="45.92219" lon="4.75219">
        <ele>175</ele>
        <time>2017-08-25T10:27:35Z</time>
      </trkpt>
      <trkpt lat="45.92222" lon="4.7521">
        <ele>175</ele>
        <time>2017-08-25T10:27:36Z</time>
      </trkpt>
      <trkpt lat="45.92224" lon="4.75202">
        <ele>175</ele>
        <time>2017-08-25T10:27:37Z</time>
      </trkpt>
      <trkpt lat="45.92226" lon="4.75193">
        <ele>175</ele>
        <time>2017-08-25T10:27:38Z</time>
      </trkpt>
      <trkpt lat="45.92229" lon="4.75185">
        <ele>175</ele>
        <time>2017-08-25T10:27:39Z</time>
      </trkpt>
      <trkpt lat="45.92232" lon="4.75177">
        <ele>175</ele>
        <time>2017-08-25T10:27:40Z</time>
      </trkpt>
      <trkpt lat="45.92235" lon="4.75169">
        <ele>175</ele>
        <time>2017-08-25T10:27:41Z</time>
      </trkpt>
      <trkpt lat="45.92238" lon="4.75161">
        <ele>174</ele>
        <time>2017-08-25T10:27:42Z</time>
      </trkpt>
      <trkpt lat="45.92242" lon="4.75154">
        <ele>174</ele>
        <time>2017-08-25T10:27:43Z</time>
      </trkpt>
      <trkpt lat="45.92246" lon="4.75146">
        <ele>174</ele>
        <time>2017-08-25T10:27:44Z</time>
      </trkpt>
      <trkpt lat="45.9225" lon="4.7514">
        <ele>174</ele>
        <time>2017-08-25T10:27:45Z</time>
      </trkpt>
      <trkpt lat="45.92255" lon="4.75135">
        <ele>174</ele>
        <time>2017-08-25T10:27:46Z</time>
      </trkpt>
      <trkpt lat="45.92259" lon="4.75129">
        <ele>174</ele>
        <time>2017-08-25T10:27:47Z</time>
      </trkpt>
      <trkpt lat="45.92264" lon="4.75124">
        <ele>174</ele>
        <time>2017-08-25T10:27:48Z</time>
      </trkpt>
      <trkpt lat="45.92269" lon="4.75118">
        <ele>174</ele>
        <time>2017-08-25T10:27:49Z</time>
      </trkpt>
      <trkpt lat="45.92274" lon="4.75113">
        <ele>174</ele>
        <time>2017-08-25T10:27:50Z</time>
      </trkpt>
      <trkpt lat="45.92278" lon="4.75108">
        <ele>174</ele>
        <time>2017-08-25T10:27:51Z</time>
      </trkpt>
      <trkpt lat="45.92283" lon="4.75103">
        <ele>173</ele>
        <time>2017-08-25T10:27:52Z</time>
      </trkpt>
      <trkpt lat="45.92287" lon="4.75098">
        <ele>173</ele>
        <time>2017-08-25T10:27:53Z</time>
      </trkpt>
      <trkpt lat="45.92291" lon="4.75094">
        <ele>173</ele>
        <time>2017-08-25T10:27:54Z</time>
      </trkpt>
      <trkpt lat="45.92296" lon="4.75089">
        <ele>173</ele>
        <time>2017-08-25T10:27:55Z</time>
      </trkpt>
      <trkpt lat="45.923" lon="4.75085">
        <ele>173</ele>
        <time>2017-08-25T10:27:56Z</time>
      </trkpt>
      <trkpt lat="45.92304" lon="4.7508">
        <ele>172</ele>
        <time>2017-08-25T10:27:57Z</time>
      </trkpt>
      <trkpt lat="45.92308" lon="4.75075">
        <ele>172</ele>
        <time>2017-08-25T10:27:58Z</time>
      </trkpt>
      <trkpt lat="45.92313" lon="4.75069">
        <ele>172</ele>
        <time>2017-08-25T10:27:59Z</time>
      </trkpt>
      <trkpt lat="45.92317" lon="4.75063">
        <ele>172</ele>
        <time>2017-08-25T10:28:00Z</time>
      </trkpt>
      <trkpt lat="45.92321" lon="4.75056">
        <ele>172</ele>
        <time>2017-08-25T10:28:01Z</time>
      </trkpt>
      <trkpt lat="45.92325" lon="4.75049">
        <ele>172</ele>
        <time>2017-08-25T10:28:02Z</time>
      </trkpt>
      <trkpt lat="45.92329" lon="4.75043">
        <ele>171</ele>
        <time>2017-08-25T10:28:03Z</time>
      </trkpt>
      <trkpt lat="45.92332" lon="4.75036">
        <ele>171</ele>
        <time>2017-08-25T10:28:04Z</time>
      </trkpt>
      <trkpt lat="45.92335" lon="4.75029">
        <ele>170</ele>
        <time>2017-08-25T10:28:05Z</time>
      </trkpt>
      <trkpt lat="45.92338" lon="4.75022">
        <ele>170</ele>
        <time>2017-08-25T10:28:06Z</time>
      </trkpt>
      <trkpt lat="45.92341" lon="4.75014">
        <ele>170</ele>
        <time>2017-08-25T10:28:07Z</time>
      </trkpt>
      <trkpt lat="45.92345" lon="4.75008">
        <ele>170</ele>
        <time>2017-08-25T10:28:08Z</time>
      </trkpt>
      <trkpt lat="45.92348" lon="4.75001">
        <ele>170</ele>
        <time>2017-08-25T10:28:09Z</time>
      </trkpt>
      <trkpt lat="45.9235" lon="4.74994">
        <ele>170</ele>
        <time>2017-08-25T10:28:10Z</time>
      </trkpt>
      <trkpt lat="45.92353" lon="4.74986">
        <ele>170</ele>
        <time>2017-08-25T10:28:11Z</time>
      </trkpt>
      <trkpt lat="45.92357" lon="4.74978">
        <ele>170</ele>
        <time>2017-08-25T10:28:12Z</time>
      </trkpt>
      <trkpt lat="45.92359" lon="4.7497">
        <ele>170</ele>
        <time>2017-08-25T10:28:13Z</time>
      </trkpt>
      <trkpt lat="45.92362" lon="4.74961">
        <ele>170</ele>
        <time>2017-08-25T10:28:14Z</time>
      </trkpt>
      <trkpt lat="45.92366" lon="4.74953">
        <ele>170</ele>
        <time>2017-08-25T10:28:15Z</time>
      </trkpt>
      <trkpt lat="45.92369" lon="4.74945">
        <ele>170</ele>
        <time>2017-08-25T10:28:16Z</time>
      </trkpt>
      <trkpt lat="45.92372" lon="4.74937">
        <ele>170</ele>
        <time>2017-08-25T10:28:17Z</time>
      </trkpt>
      <trkpt lat="45.92375" lon="4.74929">
        <ele>170</ele>
        <time>2017-08-25T10:28:18Z</time>
      </trkpt>
      <trkpt lat="45.92378" lon="4.74921">
        <ele>170</ele>
        <time>2017-08-25T10:28:19Z</time>
      </trkpt>
      <trkpt lat="45.92382" lon="4.74914">
        <ele>171</ele>
        <time>2017-08-25T10:28:20Z</time>
      </trkpt>
      <trkpt lat="45.92384" lon="4.74907">
        <ele>171</ele>
        <time>2017-08-25T10:28:21Z</time>
      </trkpt>
      <trkpt lat="45.92387" lon="4.749">
        <ele>171</ele>
        <time>2017-08-25T10:28:22Z</time>
      </trkpt>
      <trkpt lat="45.92389" lon="4.74893">
        <ele>171</ele>
        <time>2017-08-25T10:28:23Z</time>
      </trkpt>
      <trkpt lat="45.92391" lon="4.74887">
        <ele>171</ele>
        <time>2017-08-25T10:28:24Z</time>
      </trkpt>
      <trkpt lat="45.92394" lon="4.7488">
        <ele>171</ele>
        <time>2017-08-25T10:28:25Z</time>
      </trkpt>
      <trkpt lat="45.92396" lon="4.74873">
        <ele>171</ele>
        <time>2017-08-25T10:28:26Z</time>
      </trkpt>
      <trkpt lat="45.92398" lon="4.74866">
        <ele>171</ele>
        <time>2017-08-25T10:28:27Z</time>
      </trkpt>
      <trkpt lat="45.924" lon="4.74859">
        <ele>171</ele>
        <time>2017-08-25T10:28:28Z</time>
      </trkpt>
      <trkpt lat="45.92402" lon="4.74851">
        <ele>171</ele>
        <time>2017-08-25T10:28:29Z</time>
      </trkpt>
      <trkpt lat="45.92404" lon="4.74842">
        <ele>171</ele>
        <time>2017-08-25T10:28:30Z</time>
      </trkpt>
      <trkpt lat="45.92405" lon="4.74834">
        <ele>171</ele>
        <time>2017-08-25T10:28:31Z</time>
      </trkpt>
      <trkpt lat="45.92407" lon="4.74826">
        <ele>171</ele>
        <time>2017-08-25T10:28:32Z</time>
      </trkpt>
      <trkpt lat="45.92409" lon="4.74818">
        <ele>171</ele>
        <time>2017-08-25T10:28:33Z</time>
      </trkpt>
      <trkpt lat="45.92411" lon="4.7481">
        <ele>171</ele>
        <time>2017-08-25T10:28:34Z</time>
      </trkpt>
      <trkpt lat="45.92412" lon="4.74803">
        <ele>171</ele>
        <time>2017-08-25T10:28:35Z</time>
      </trkpt>
      <trkpt lat="45.92414" lon="4.74796">
        <ele>171</ele>
        <time>2017-08-25T10:28:36Z</time>
      </trkpt>
      <trkpt lat="45.92416" lon="4.74789">
        <ele>171</ele>
        <time>2017-08-25T10:28:37Z</time>
      </trkpt>
      <trkpt lat="45.92417" lon="4.74782">
        <ele>171</ele>
        <time>2017-08-25T10:28:38Z</time>
      </trkpt>
      <trkpt lat="45.92419" lon="4.74776">
        <ele>171</ele>
        <time>2017-08-25T10:28:39Z</time>
      </trkpt>
      <trkpt lat="45.92421" lon="4.74769">
        <ele>171</ele>
        <time>2017-08-25T10:28:40Z</time>
      </trkpt>
      <trkpt lat="45.92423" lon="4.74762">
        <ele>171</ele>
        <time>2017-08-25T10:28:41Z</time>
      </trkpt>
      <trkpt lat="45.92425" lon="4.74755">
        <ele>172</ele>
        <time>2017-08-25T10:28:42Z</time>
      </trkpt>
      <trkpt lat="45.92427" lon="4.74747">
        <ele>172</ele>
        <time>2017-08-25T10:28:43Z</time>
      </trkpt>
      <trkpt lat="45.92429" lon="4.74739">
        <ele>171</ele>
        <time>2017-08-25T10:28:44Z</time>
      </trkpt>
      <trkpt lat="45.92431" lon="4.74732">
        <ele>171</ele>
        <time>2017-08-25T10:28:45Z</time>
      </trkpt>
      <trkpt lat="45.92434" lon="4.74725">
        <ele>171</ele>
        <time>2017-08-25T10:28:46Z</time>
      </trkpt>
      <trkpt lat="45.92436" lon="4.74718">
        <ele>171</ele>
        <time>2017-08-25T10:28:47Z</time>
      </trkpt>
      <trkpt lat="45.92439" lon="4.74711">
        <ele>171</ele>
        <time>2017-08-25T10:28:48Z</time>
      </trkpt>
      <trkpt lat="45.92441" lon="4.74705">
        <ele>171</ele>
        <time>2017-08-25T10:28:49Z</time>
      </trkpt>
      <trkpt lat="45.92444" lon="4.74699">
        <ele>171</ele>
        <time>2017-08-25T10:28:50Z</time>
      </trkpt>
      <trkpt lat="45.92447" lon="4.74694">
        <ele>171</ele>
        <time>2017-08-25T10:28:51Z</time>
      </trkpt>
      <trkpt lat="45.92449" lon="4.74688">
        <ele>171</ele>
        <time>2017-08-25T10:28:52Z</time>
      </trkpt>
      <trkpt lat="45.92452" lon="4.74683">
        <ele>171</ele>
        <time>2017-08-25T10:28:53Z</time>
      </trkpt>
      <trkpt lat="45.92455" lon="4.74677">
        <ele>171</ele>
        <time>2017-08-25T10:28:54Z</time>
      </trkpt>
      <trkpt lat="45.92458" lon="4.74672">
        <ele>171</ele>
        <time>2017-08-25T10:28:55Z</time>
      </trkpt>
      <trkpt lat="45.9246" lon="4.74666">
        <ele>171</ele>
        <time>2017-08-25T10:28:56Z</time>
      </trkpt>
      <trkpt lat="45.92463" lon="4.74661">
        <ele>171</ele>
        <time>2017-08-25T10:28:57Z</time>
      </trkpt>
      <trkpt lat="45.92466" lon="4.74655">
        <ele>171</ele>
        <time>2017-08-25T10:28:58Z</time>
      </trkpt>
      <trkpt lat="45.92471" lon="4.74649">
        <ele>171</ele>
        <time>2017-08-25T10:28:59Z</time>
      </trkpt>
      <trkpt lat="45.92475" lon="4.74642">
        <ele>171</ele>
        <time>2017-08-25T10:29:00Z</time>
      </trkpt>
      <trkpt lat="45.92479" lon="4.74635">
        <ele>171</ele>
        <time>2017-08-25T10:29:01Z</time>
      </trkpt>
      <trkpt lat="45.92483" lon="4.74627">
        <ele>171</ele>
        <time>2017-08-25T10:29:02Z</time>
      </trkpt>
      <trkpt lat="45.92487" lon="4.74621">
        <ele>171</ele>
        <time>2017-08-25T10:29:03Z</time>
      </trkpt>
      <trkpt lat="45.92492" lon="4.74614">
        <ele>171</ele>
        <time>2017-08-25T10:29:04Z</time>
      </trkpt>
      <trkpt lat="45.92497" lon="4.74608">
        <ele>171</ele>
        <time>2017-08-25T10:29:05Z</time>
      </trkpt>
      <trkpt lat="45.92502" lon="4.74602">
        <ele>171</ele>
        <time>2017-08-25T10:29:06Z</time>
      </trkpt>
      <trkpt lat="45.92507" lon="4.74597">
        <ele>171</ele>
        <time>2017-08-25T10:29:07Z</time>
      </trkpt>
      <trkpt lat="45.92511" lon="4.74592">
        <ele>171</ele>
        <time>2017-08-25T10:29:08Z</time>
      </trkpt>
      <trkpt lat="45.92516" lon="4.74587">
        <ele>171</ele>
        <time>2017-08-25T10:29:09Z</time>
      </trkpt>
      <trkpt lat="45.9252" lon="4.74582">
        <ele>171</ele>
        <time>2017-08-25T10:29:10Z</time>
      </trkpt>
      <trkpt lat="45.92524" lon="4.74577">
        <ele>171</ele>
        <time>2017-08-25T10:29:11Z</time>
      </trkpt>
      <trkpt lat="45.92528" lon="4.74572">
        <ele>171</ele>
        <time>2017-08-25T10:29:12Z</time>
      </trkpt>
      <trkpt lat="45.92532" lon="4.74567">
        <ele>171</ele>
        <time>2017-08-25T10:29:13Z</time>
      </trkpt>
      <trkpt lat="45.92536" lon="4.74561">
        <ele>171</ele>
        <time>2017-08-25T10:29:14Z</time>
      </trkpt>
      <trkpt lat="45.9254" lon="4.74556">
        <ele>171</ele>
        <time>2017-08-25T10:29:15Z</time>
      </trkpt>
      <trkpt lat="45.92544" lon="4.74551">
        <ele>170</ele>
        <time>2017-08-25T10:29:16Z</time>
      </trkpt>
      <trkpt lat="45.92547" lon="4.74545">
        <ele>170</ele>
        <time>2017-08-25T10:29:17Z</time>
      </trkpt>
      <trkpt lat="45.92551" lon="4.7454">
        <ele>170</ele>
        <time>2017-08-25T10:29:18Z</time>
      </trkpt>
      <trkpt lat="45.92554" lon="4.74534">
        <ele>170</ele>
        <time>2017-08-25T10:29:19Z</time>
      </trkpt>
      <trkpt lat="45.92558" lon="4.74527">
        <ele>170</ele>
        <time>2017-08-25T10:29:20Z</time>
      </trkpt>
      <trkpt lat="45.92562" lon="4.7452">
        <ele>170</ele>
        <time>2017-08-25T10:29:21Z</time>
      </trkpt>
      <trkpt lat="45.92566" lon="4.74512">
        <ele>170</ele>
        <time>2017-08-25T10:29:22Z</time>
      </trkpt>
      <trkpt lat="45.92571" lon="4.74505">
        <ele>170</ele>
        <time>2017-08-25T10:29:23Z</time>
      </trkpt>
      <trkpt lat="45.92575" lon="4.74497">
        <ele>170</ele>
        <time>2017-08-25T10:29:24Z</time>
      </trkpt>
      <trkpt lat="45.92579" lon="4.7449">
        <ele>170</ele>
        <time>2017-08-25T10:29:25Z</time>
      </trkpt>
      <trkpt lat="45.92583" lon="4.74483">
        <ele>170</ele>
        <time>2017-08-25T10:29:26Z</time>
      </trkpt>
      <trkpt lat="45.92587" lon="4.74476">
        <ele>170</ele>
        <time>2017-08-25T10:29:27Z</time>
      </trkpt>
      <trkpt lat="45.92591" lon="4.7447">
        <ele>170</ele>
        <time>2017-08-25T10:29:28Z</time>
      </trkpt>
      <trkpt lat="45.92595" lon="4.74463">
        <ele>170</ele>
        <time>2017-08-25T10:29:29Z</time>
      </trkpt>
      <trkpt lat="45.92598" lon="4.74457">
        <ele>170</ele>
        <time>2017-08-25T10:29:30Z</time>
      </trkpt>
      <trkpt lat="45.92602" lon="4.74451">
        <ele>170</ele>
        <time>2017-08-25T10:29:31Z</time>
      </trkpt>
      <trkpt lat="45.92605" lon="4.74445">
        <ele>170</ele>
        <time>2017-08-25T10:29:32Z</time>
      </trkpt>
      <trkpt lat="45.92608" lon="4.74438">
        <ele>170</ele>
        <time>2017-08-25T10:29:33Z</time>
      </trkpt>
      <trkpt lat="45.92611" lon="4.74432">
        <ele>170</ele>
        <time>2017-08-25T10:29:34Z</time>
      </trkpt>
      <trkpt lat="45.92615" lon="4.74426">
        <ele>170</ele>
        <time>2017-08-25T10:29:35Z</time>
      </trkpt>
      <trkpt lat="45.92619" lon="4.74419">
        <ele>170</ele>
        <time>2017-08-25T10:29:36Z</time>
      </trkpt>
      <trkpt lat="45.92623" lon="4.74412">
        <ele>170</ele>
        <time>2017-08-25T10:29:37Z</time>
      </trkpt>
      <trkpt lat="45.92628" lon="4.74404">
        <ele>170</ele>
        <time>2017-08-25T10:29:38Z</time>
      </trkpt>
      <trkpt lat="45.92632" lon="4.74396">
        <ele>170</ele>
        <time>2017-08-25T10:29:39Z</time>
      </trkpt>
      <trkpt lat="45.92636" lon="4.74388">
        <ele>170</ele>
        <time>2017-08-25T10:29:40Z</time>
      </trkpt>
      <trkpt lat="45.9264" lon="4.74381">
        <ele>170</ele>
        <time>2017-08-25T10:29:41Z</time>
      </trkpt>
      <trkpt lat="45.92644" lon="4.74374">
        <ele>171</ele>
        <time>2017-08-25T10:29:42Z</time>
      </trkpt>
      <trkpt lat="45.92647" lon="4.74367">
        <ele>171</ele>
        <time>2017-08-25T10:29:43Z</time>
      </trkpt>
      <trkpt lat="45.92651" lon="4.7436">
        <ele>171</ele>
        <time>2017-08-25T10:29:44Z</time>
      </trkpt>
      <trkpt lat="45.92654" lon="4.74354">
        <ele>171</ele>
        <time>2017-08-25T10:29:45Z</time>
      </trkpt>
      <trkpt lat="45.92658" lon="4.74347">
        <ele>171</ele>
        <time>2017-08-25T10:29:46Z</time>
      </trkpt>
      <trkpt lat="45.92661" lon="4.74341">
        <ele>171</ele>
        <time>2017-08-25T10:29:47Z</time>
      </trkpt>
      <trkpt lat="45.92664" lon="4.74335">
        <ele>171</ele>
        <time>2017-08-25T10:29:48Z</time>
      </trkpt>
      <trkpt lat="45.92667" lon="4.74329">
        <ele>171</ele>
        <time>2017-08-25T10:29:49Z</time>
      </trkpt>
      <trkpt lat="45.9267" lon="4.74323">
        <ele>171</ele>
        <time>2017-08-25T10:29:50Z</time>
      </trkpt>
      <trkpt lat="45.92673" lon="4.74316">
        <ele>171</ele>
        <time>2017-08-25T10:29:51Z</time>
      </trkpt>
      <trkpt lat="45.92676" lon="4.7431">
        <ele>171</ele>
        <time>2017-08-25T10:29:52Z</time>
      </trkpt>
      <trkpt lat="45.92679" lon="4.74305">
        <ele>171</ele>
        <time>2017-08-25T10:29:53Z</time>
      </trkpt>
      <trkpt lat="45.92682" lon="4.74299">
        <ele>171</ele>
        <time>2017-08-25T10:29:54Z</time>
      </trkpt>
      <trkpt lat="45.92685" lon="4.74294">
        <ele>171</ele>
        <time>2017-08-25T10:29:55Z</time>
      </trkpt>
      <trkpt lat="45.92688" lon="4.74289">
        <ele>171</ele>
        <time>2017-08-25T10:29:56Z</time>
      </trkpt>
      <trkpt lat="45.92691" lon="4.74284">
        <ele>171</ele>
        <time>2017-08-25T10:29:57Z</time>
      </trkpt>
      <trkpt lat="45.92696" lon="4.74274">
        <ele>171</ele>
        <time>2017-08-25T10:29:59Z</time>
      </trkpt>
      <trkpt lat="45.92699" lon="4.74269">
        <ele>171</ele>
        <time>2017-08-25T10:30:00Z</time>
      </trkpt>
      <trkpt lat="45.92705" lon="4.7426">
        <ele>171</ele>
        <time>2017-08-25T10:30:02Z</time>
      </trkpt>
      <trkpt lat="45.92708" lon="4.74255">
        <ele>171</ele>
        <time>2017-08-25T10:30:03Z</time>
      </trkpt>
      <trkpt lat="45.92711" lon="4.74251">
        <ele>171</ele>
        <time>2017-08-25T10:30:04Z</time>
      </trkpt>
      <trkpt lat="45.92714" lon="4.74245">
        <ele>171</ele>
        <time>2017-08-25T10:30:05Z</time>
      </trkpt>
      <trkpt lat="45.92718" lon="4.74239">
        <ele>171</ele>
        <time>2017-08-25T10:30:06Z</time>
      </trkpt>
      <trkpt lat="45.92722" lon="4.74233">
        <ele>171</ele>
        <time>2017-08-25T10:30:07Z</time>
      </trkpt>
      <trkpt lat="45.92726" lon="4.74227">
        <ele>171</ele>
        <time>2017-08-25T10:30:08Z</time>
      </trkpt>
      <trkpt lat="45.9273" lon="4.74221">
        <ele>171</ele>
        <time>2017-08-25T10:30:09Z</time>
      </trkpt>
      <trkpt lat="45.92734" lon="4.74215">
        <ele>171</ele>
        <time>2017-08-25T10:30:10Z</time>
      </trkpt>
      <trkpt lat="45.92738" lon="4.74209">
        <ele>171</ele>
        <time>2017-08-25T10:30:11Z</time>
      </trkpt>
      <trkpt lat="45.92743" lon="4.74203">
        <ele>171</ele>
        <time>2017-08-25T10:30:12Z</time>
      </trkpt>
      <trkpt lat="45.92747" lon="4.74197">
        <ele>171</ele>
        <time>2017-08-25T10:30:13Z</time>
      </trkpt>
      <trkpt lat="45.92751" lon="4.74192">
        <ele>172</ele>
        <time>2017-08-25T10:30:14Z</time>
      </trkpt>
      <trkpt lat="45.92755" lon="4.74187">
        <ele>172</ele>
        <time>2017-08-25T10:30:15Z</time>
      </trkpt>
      <trkpt lat="45.9276" lon="4.74182">
        <ele>172</ele>
        <time>2017-08-25T10:30:16Z</time>
      </trkpt>
      <trkpt lat="45.92764" lon="4.74177">
        <ele>172</ele>
        <time>2017-08-25T10:30:17Z</time>
      </trkpt>
      <trkpt lat="45.92769" lon="4.74173">
        <ele>172</ele>
        <time>2017-08-25T10:30:18Z</time>
      </trkpt>
      <trkpt lat="45.92774" lon="4.74168">
        <ele>172</ele>
        <time>2017-08-25T10:30:19Z</time>
      </trkpt>
      <trkpt lat="45.92778" lon="4.74164">
        <ele>172</ele>
        <time>2017-08-25T10:30:20Z</time>
      </trkpt>
      <trkpt lat="45.92783" lon="4.74159">
        <ele>172</ele>
        <time>2017-08-25T10:30:21Z</time>
      </trkpt>
      <trkpt lat="45.92787" lon="4.74155">
        <ele>172</ele>
        <time>2017-08-25T10:30:22Z</time>
      </trkpt>
      <trkpt lat="45.92791" lon="4.74151">
        <ele>172</ele>
        <time>2017-08-25T10:30:23Z</time>
      </trkpt>
      <trkpt lat="45.92796" lon="4.74147">
        <ele>172</ele>
        <time>2017-08-25T10:30:24Z</time>
      </trkpt>
      <trkpt lat="45.92801" lon="4.74141">
        <ele>172</ele>
        <time>2017-08-25T10:30:25Z</time>
      </trkpt>
      <trkpt lat="45.92806" lon="4.74135">
        <ele>172</ele>
        <time>2017-08-25T10:30:26Z</time>
      </trkpt>
      <trkpt lat="45.9281" lon="4.74129">
        <ele>172</ele>
        <time>2017-08-25T10:30:27Z</time>
      </trkpt>
      <trkpt lat="45.92815" lon="4.74123">
        <ele>172</ele>
        <time>2017-08-25T10:30:28Z</time>
      </trkpt>
      <trkpt lat="45.9282" lon="4.74118">
        <ele>172</ele>
        <time>2017-08-25T10:30:29Z</time>
      </trkpt>
      <trkpt lat="45.92825" lon="4.74112">
        <ele>171</ele>
        <time>2017-08-25T10:30:30Z</time>
      </trkpt>
      <trkpt lat="45.9283" lon="4.74107">
        <ele>171</ele>
        <time>2017-08-25T10:30:31Z</time>
      </trkpt>
      <trkpt lat="45.92834" lon="4.74102">
        <ele>171</ele>
        <time>2017-08-25T10:30:32Z</time>
      </trkpt>
      <trkpt lat="45.92839" lon="4.74097">
        <ele>171</ele>
        <time>2017-08-25T10:30:33Z</time>
      </trkpt>
      <trkpt lat="45.92843" lon="4.74092">
        <ele>171</ele>
        <time>2017-08-25T10:30:34Z</time>
      </trkpt>
      <trkpt lat="45.92847" lon="4.74087">
        <ele>171</ele>
        <time>2017-08-25T10:30:35Z</time>
      </trkpt>
      <trkpt lat="45.92851" lon="4.74082">
        <ele>172</ele>
        <time>2017-08-25T10:30:36Z</time>
      </trkpt>
      <trkpt lat="45.92855" lon="4.74077">
        <ele>172</ele>
        <time>2017-08-25T10:30:37Z</time>
      </trkpt>
      <trkpt lat="45.92859" lon="4.74073">
        <ele>172</ele>
        <time>2017-08-25T10:30:38Z</time>
      </trkpt>
      <trkpt lat="45.92863" lon="4.74068">
        <ele>172</ele>
        <time>2017-08-25T10:30:39Z</time>
      </trkpt>
      <trkpt lat="45.92867" lon="4.74063">
        <ele>172</ele>
        <time>2017-08-25T10:30:40Z</time>
      </trkpt>
      <trkpt lat="45.92871" lon="4.74058">
        <ele>172</ele>
        <time>2017-08-25T10:30:41Z</time>
      </trkpt>
      <trkpt lat="45.92876" lon="4.74053">
        <ele>172</ele>
        <time>2017-08-25T10:30:42Z</time>
      </trkpt>
      <trkpt lat="45.92882" lon="4.74051">
        <ele>172</ele>
        <time>2017-08-25T10:30:43Z</time>
      </trkpt>
      <trkpt lat="45.92887" lon="4.7405">
        <ele>172</ele>
        <time>2017-08-25T10:30:44Z</time>
      </trkpt>
      <trkpt lat="45.92893" lon="4.7405">
        <ele>172</ele>
        <time>2017-08-25T10:30:45Z</time>
      </trkpt>
      <trkpt lat="45.92898" lon="4.7405">
        <ele>172</ele>
        <time>2017-08-25T10:30:46Z</time>
      </trkpt>
      <trkpt lat="45.92902" lon="4.74049">
        <ele>172</ele>
        <time>2017-08-25T10:30:47Z</time>
      </trkpt>
      <trkpt lat="45.92907" lon="4.74046">
        <ele>172</ele>
        <time>2017-08-25T10:30:48Z</time>
      </trkpt>
      <trkpt lat="45.92911" lon="4.74043">
        <ele>172</ele>
        <time>2017-08-25T10:30:49Z</time>
      </trkpt>
      <trkpt lat="45.92915" lon="4.74038">
        <ele>172</ele>
        <time>2017-08-25T10:30:50Z</time>
      </trkpt>
      <trkpt lat="45.92918" lon="4.74033">
        <ele>172</ele>
        <time>2017-08-25T10:30:51Z</time>
      </trkpt>
      <trkpt lat="45.9292" lon="4.74027">
        <ele>172</ele>
        <time>2017-08-25T10:30:52Z</time>
      </trkpt>
      <trkpt lat="45.92921" lon="4.7402">
        <ele>172</ele>
        <time>2017-08-25T10:30:53Z</time>
      </trkpt>
      <trkpt lat="45.92921" lon="4.74014">
        <ele>172</ele>
        <time>2017-08-25T10:30:54Z</time>
      </trkpt>
      <trkpt lat="45.92919" lon="4.74007">
        <ele>172</ele>
        <time>2017-08-25T10:30:55Z</time>
      </trkpt>
      <trkpt lat="45.92916" lon="4.74001">
        <ele>172</ele>
        <time>2017-08-25T10:30:56Z</time>
      </trkpt>
      <trkpt lat="45.92912" lon="4.73996">
        <ele>172</ele>
        <time>2017-08-25T10:30:57Z</time>
      </trkpt>
      <trkpt lat="45.92908" lon="4.73992">
        <ele>172</ele>
        <time>2017-08-25T10:30:58Z</time>
      </trkpt>
      <trkpt lat="45.92903" lon="4.73988">
        <ele>172</ele>
        <time>2017-08-25T10:30:59Z</time>
      </trkpt>
      <trkpt lat="45.92899" lon="4.73984">
        <ele>172</ele>
        <time>2017-08-25T10:31:00Z</time>
      </trkpt>
      <trkpt lat="45.92895" lon="4.7398">
        <ele>172</ele>
        <time>2017-08-25T10:31:01Z</time>
      </trkpt>
      <trkpt lat="45.92892" lon="4.73974">
        <ele>172</ele>
        <time>2017-08-25T10:31:02Z</time>
      </trkpt>
      <trkpt lat="45.9289" lon="4.73968">
        <ele>172</ele>
        <time>2017-08-25T10:31:03Z</time>
      </trkpt>
      <trkpt lat="45.92889" lon="4.7396">
        <ele>172</ele>
        <time>2017-08-25T10:31:04Z</time>
      </trkpt>
      <trkpt lat="45.9289" lon="4.73952">
        <ele>172</ele>
        <time>2017-08-25T10:31:05Z</time>
      </trkpt>
      <trkpt lat="45.92889" lon="4.73945">
        <ele>172</ele>
        <time>2017-08-25T10:31:06Z</time>
      </trkpt>
      <trkpt lat="45.92888" lon="4.73937">
        <ele>172</ele>
        <time>2017-08-25T10:31:07Z</time>
      </trkpt>
      <trkpt lat="45.92887" lon="4.73929">
        <ele>172</ele>
        <time>2017-08-25T10:31:08Z</time>
      </trkpt>
      <trkpt lat="45.92886" lon="4.7392">
        <ele>172</ele>
        <time>2017-08-25T10:31:09Z</time>
      </trkpt>
      <trkpt lat="45.92885" lon="4.7391">
        <ele>173</ele>
        <time>2017-08-25T10:31:10Z</time>
      </trkpt>
      <trkpt lat="45.92883" lon="4.73901">
        <ele>173</ele>
        <time>2017-08-25T10:31:11Z</time>
      </trkpt>
      <trkpt lat="45.92882" lon="4.73891">
        <ele>173</ele>
        <time>2017-08-25T10:31:12Z</time>
      </trkpt>
      <trkpt lat="45.92881" lon="4.73882">
        <ele>173</ele>
        <time>2017-08-25T10:31:13Z</time>
      </trkpt>
      <trkpt lat="45.92879" lon="4.73873">
        <ele>173</ele>
        <time>2017-08-25T10:31:14Z</time>
      </trkpt>
      <trkpt lat="45.92877" lon="4.73864">
        <ele>173</ele>
        <time>2017-08-25T10:31:15Z</time>
      </trkpt>
      <trkpt lat="45.92875" lon="4.73855">
        <ele>173</ele>
        <time>2017-08-25T10:31:16Z</time>
      </trkpt>
      <trkpt lat="45.92874" lon="4.73847">
        <ele>173</ele>
        <time>2017-08-25T10:31:17Z</time>
      </trkpt>
      <trkpt lat="45.92871" lon="4.73839">
        <ele>173</ele>
        <time>2017-08-25T10:31:18Z</time>
      </trkpt>
      <trkpt lat="45.92868" lon="4.73832">
        <ele>173</ele>
        <time>2017-08-25T10:31:19Z</time>
      </trkpt>
      <trkpt lat="45.92866" lon="4.73824">
        <ele>173</ele>
        <time>2017-08-25T10:31:20Z</time>
      </trkpt>
      <trkpt lat="45.92863" lon="4.73817">
        <ele>173</ele>
        <time>2017-08-25T10:31:21Z</time>
      </trkpt>
      <trkpt lat="45.9286" lon="4.73811">
        <ele>173</ele>
        <time>2017-08-25T10:31:22Z</time>
      </trkpt>
      <trkpt lat="45.92857" lon="4.73805">
        <ele>173</ele>
        <time>2017-08-25T10:31:23Z</time>
      </trkpt>
      <trkpt lat="45.92854" lon="4.738">
        <ele>173</ele>
        <time>2017-08-25T10:31:24Z</time>
      </trkpt>
      <trkpt lat="45.92851" lon="4.73795">
        <ele>173</ele>
        <time>2017-08-25T10:31:25Z</time>
      </trkpt>
      <trkpt lat="45.92848" lon="4.7379">
        <ele>173</ele>
        <time>2017-08-25T10:31:26Z</time>
      </trkpt>
      <trkpt lat="45.92845" lon="4.73785">
        <ele>173</ele>
        <time>2017-08-25T10:31:27Z</time>
      </trkpt>
      <trkpt lat="45.9284" lon="4.73782">
        <ele>173</ele>
        <time>2017-08-25T10:31:28Z</time>
      </trkpt>
      <trkpt lat="45.92835" lon="4.73779">
        <ele>172</ele>
        <time>2017-08-25T10:31:29Z</time>
      </trkpt>
      <trkpt lat="45.92831" lon="4.73777">
        <ele>173</ele>
        <time>2017-08-25T10:31:30Z</time>
      </trkpt>
      <trkpt lat="45.92827" lon="4.73775">
        <ele>173</ele>
        <time>2017-08-25T10:31:31Z</time>
      </trkpt>
      <trkpt lat="45.92822" lon="4.73772">
        <ele>173</ele>
        <time>2017-08-25T10:31:32Z</time>
      </trkpt>
      <trkpt lat="45.92817" lon="4.7377">
        <ele>173</ele>
        <time>2017-08-25T10:31:33Z</time>
      </trkpt>
      <trkpt lat="45.92812" lon="4.73767">
        <ele>173</ele>
        <time>2017-08-25T10:31:34Z</time>
      </trkpt>
      <trkpt lat="45.92808" lon="4.73765">
        <ele>173</ele>
        <time>2017-08-25T10:31:35Z</time>
      </trkpt>
      <trkpt lat="45.928" lon="4.73761">
        <ele>173</ele>
        <time>2017-08-25T10:31:37Z</time>
      </trkpt>
      <trkpt lat="45.92796" lon="4.73758">
        <ele>173</ele>
        <time>2017-08-25T10:31:38Z</time>
      </trkpt>
      <trkpt lat="45.9279" lon="4.73752">
        <ele>173</ele>
        <time>2017-08-25T10:31:40Z</time>
      </trkpt>
      <trkpt lat="45.92787" lon="4.73747">
        <ele>172</ele>
        <time>2017-08-25T10:31:41Z</time>
      </trkpt>
      <trkpt lat="45.92782" lon="4.73737">
        <ele>172</ele>
        <time>2017-08-25T10:31:43Z</time>
      </trkpt>
      <trkpt lat="45.92779" lon="4.73732">
        <ele>172</ele>
        <time>2017-08-25T10:31:44Z</time>
      </trkpt>
      <trkpt lat="45.92771" lon="4.73729">
        <ele>172</ele>
        <time>2017-08-25T10:31:46Z</time>
      </trkpt>
      <trkpt lat="45.92766" lon="4.73728">
        <ele>172</ele>
        <time>2017-08-25T10:31:47Z</time>
      </trkpt>
      <trkpt lat="45.92758" lon="4.73724">
        <ele>172</ele>
        <time>2017-08-25T10:31:49Z</time>
      </trkpt>
      <trkpt lat="45.92754" lon="4.73723">
        <ele>172</ele>
        <time>2017-08-25T10:31:50Z</time>
      </trkpt>
      <trkpt lat="45.92746" lon="4.73721">
        <ele>173</ele>
        <time>2017-08-25T10:31:52Z</time>
      </trkpt>
      <trkpt lat="45.92742" lon="4.7372">
        <ele>173</ele>
        <time>2017-08-25T10:31:53Z</time>
      </trkpt>
      <trkpt lat="45.92737" lon="4.7372">
        <ele>173</ele>
        <time>2017-08-25T10:31:54Z</time>
      </trkpt>
      <trkpt lat="45.92732" lon="4.7372">
        <ele>173</ele>
        <time>2017-08-25T10:31:55Z</time>
      </trkpt>
      <trkpt lat="45.92727" lon="4.73719">
        <ele>173</ele>
        <time>2017-08-25T10:31:56Z</time>
      </trkpt>
      <trkpt lat="45.92722" lon="4.73719">
        <ele>173</ele>
        <time>2017-08-25T10:31:57Z</time>
      </trkpt>
      <trkpt lat="45.92716" lon="4.73718">
        <ele>173</ele>
        <time>2017-08-25T10:31:58Z</time>
      </trkpt>
      <trkpt lat="45.9271" lon="4.73716">
        <ele>173</ele>
        <time>2017-08-25T10:31:59Z</time>
      </trkpt>
      <trkpt lat="45.92705" lon="4.73715">
        <ele>173</ele>
        <time>2017-08-25T10:32:00Z</time>
      </trkpt>
      <trkpt lat="45.927" lon="4.73714">
        <ele>173</ele>
        <time>2017-08-25T10:32:01Z</time>
      </trkpt>
      <trkpt lat="45.92691" lon="4.73713">
        <ele>173</ele>
        <time>2017-08-25T10:32:03Z</time>
      </trkpt>
      <trkpt lat="45.92687" lon="4.73712">
        <ele>173</ele>
        <time>2017-08-25T10:32:04Z</time>
      </trkpt>
      <trkpt lat="45.9268" lon="4.73708">
        <ele>173</ele>
        <time>2017-08-25T10:32:06Z</time>
      </trkpt>
      <trkpt lat="45.92676" lon="4.73706">
        <ele>173</ele>
        <time>2017-08-25T10:32:07Z</time>
      </trkpt>
      <trkpt lat="45.92669" lon="4.73702">
        <ele>174</ele>
        <time>2017-08-25T10:32:09Z</time>
      </trkpt>
      <trkpt lat="45.92666" lon="4.737">
        <ele>173</ele>
        <time>2017-08-25T10:32:10Z</time>
      </trkpt>
      <trkpt lat="45.92661" lon="4.73697">
        <ele>173</ele>
        <time>2017-08-25T10:32:11Z</time>
      </trkpt>
      <trkpt lat="45.92657" lon="4.73694">
        <ele>173</ele>
        <time>2017-08-25T10:32:12Z</time>
      </trkpt>
      <trkpt lat="45.92653" lon="4.73689">
        <ele>173</ele>
        <time>2017-08-25T10:32:13Z</time>
      </trkpt>
      <trkpt lat="45.92649" lon="4.73684">
        <ele>173</ele>
        <time>2017-08-25T10:32:14Z</time>
      </trkpt>
      <trkpt lat="45.92646" lon="4.73679">
        <ele>173</ele>
        <time>2017-08-25T10:32:15Z</time>
      </trkpt>
      <trkpt lat="45.92643" lon="4.73674">
        <ele>173</ele>
        <time>2017-08-25T10:32:16Z</time>
      </trkpt>
      <trkpt lat="45.92637" lon="4.73664">
        <ele>173</ele>
        <time>2017-08-25T10:32:18Z</time>
      </trkpt>
      <trkpt lat="45.92635" lon="4.73659">
        <ele>173</ele>
        <time>2017-08-25T10:32:19Z</time>
      </trkpt>
      <trkpt lat="45.92632" lon="4.73654">
        <ele>173</ele>
        <time>2017-08-25T10:32:20Z</time>
      </trkpt>
      <trkpt lat="45.9263" lon="4.73648">
        <ele>173</ele>
        <time>2017-08-25T10:32:21Z</time>
      </trkpt>
      <trkpt lat="45.92625" lon="4.7364">
        <ele>173</ele>
        <time>2017-08-25T10:32:22Z</time>
      </trkpt>
      <trkpt lat="45.92621" lon="4.73635">
        <ele>173</ele>
        <time>2017-08-25T10:32:23Z</time>
      </trkpt>
      <trkpt lat="45.92617" lon="4.73631">
        <ele>173</ele>
        <time>2017-08-25T10:32:24Z</time>
      </trkpt>
      <trkpt lat="45.92612" lon="4.73629">
        <ele>173</ele>
        <time>2017-08-25T10:32:25Z</time>
      </trkpt>
      <trkpt lat="45.92607" lon="4.73627">
        <ele>173</ele>
        <time>2017-08-25T10:32:26Z</time>
      </trkpt>
      <trkpt lat="45.92602" lon="4.73625">
        <ele>173</ele>
        <time>2017-08-25T10:32:27Z</time>
      </trkpt>
      <trkpt lat="45.92597" lon="4.73625">
        <ele>173</ele>
        <time>2017-08-25T10:32:28Z</time>
      </trkpt>
      <trkpt lat="45.92592" lon="4.73626">
        <ele>172</ele>
        <time>2017-08-25T10:32:29Z</time>
      </trkpt>
      <trkpt lat="45.92583" lon="4.73627">
        <ele>173</ele>
        <time>2017-08-25T10:32:31Z</time>
      </trkpt>
      <trkpt lat="45.92578" lon="4.73628">
        <ele>173</ele>
        <time>2017-08-25T10:32:32Z</time>
      </trkpt>
      <trkpt lat="45.92574" lon="4.73629">
        <ele>173</ele>
        <time>2017-08-25T10:32:33Z</time>
      </trkpt>
      <trkpt lat="45.92569" lon="4.7363">
        <ele>173</ele>
        <time>2017-08-25T10:32:34Z</time>
      </trkpt>
      <trkpt lat="45.92564" lon="4.73632">
        <ele>173</ele>
        <time>2017-08-25T10:32:35Z</time>
      </trkpt>
      <trkpt lat="45.92559" lon="4.73633">
        <ele>173</ele>
        <time>2017-08-25T10:32:36Z</time>
      </trkpt>
      <trkpt lat="45.92554" lon="4.73634">
        <ele>173</ele>
        <time>2017-08-25T10:32:37Z</time>
      </trkpt>
      <trkpt lat="45.92549" lon="4.73635">
        <ele>173</ele>
        <time>2017-08-25T10:32:38Z</time>
      </trkpt>
      <trkpt lat="45.92545" lon="4.73634">
        <ele>173</ele>
        <time>2017-08-25T10:32:39Z</time>
      </trkpt>
      <trkpt lat="45.9254" lon="4.73634">
        <ele>173</ele>
        <time>2017-08-25T10:32:40Z</time>
      </trkpt>
      <trkpt lat="45.92532" lon="4.73635">
        <ele>173</ele>
        <time>2017-08-25T10:32:42Z</time>
      </trkpt>
      <trkpt lat="45.92528" lon="4.73635">
        <ele>173</ele>
        <time>2017-08-25T10:32:43Z</time>
      </trkpt>
      <trkpt lat="45.92523" lon="4.73636">
        <ele>173</ele>
        <time>2017-08-25T10:32:44Z</time>
      </trkpt>
      <trkpt lat="45.92519" lon="4.73636">
        <ele>173</ele>
        <time>2017-08-25T10:32:45Z</time>
      </trkpt>
      <trkpt lat="45.9251" lon="4.73637">
        <ele>174</ele>
        <time>2017-08-25T10:32:47Z</time>
      </trkpt>
      <trkpt lat="45.92506" lon="4.73637">
        <ele>174</ele>
        <time>2017-08-25T10:32:48Z</time>
      </trkpt>
      <trkpt lat="45.92499" lon="4.73638">
        <ele>174</ele>
        <time>2017-08-25T10:32:50Z</time>
      </trkpt>
      <trkpt lat="45.92495" lon="4.73638">
        <ele>174</ele>
        <time>2017-08-25T10:32:51Z</time>
      </trkpt>
      <trkpt lat="45.92487" lon="4.73637">
        <ele>174</ele>
        <time>2017-08-25T10:32:53Z</time>
      </trkpt>
      <trkpt lat="45.92484" lon="4.73638">
        <ele>174</ele>
        <time>2017-08-25T10:32:54Z</time>
      </trkpt>
      <trkpt lat="45.92477" lon="4.73642">
        <ele>174</ele>
        <time>2017-08-25T10:32:56Z</time>
      </trkpt>
      <trkpt lat="45.92474" lon="4.73647">
        <ele>174</ele>
        <time>2017-08-25T10:32:57Z</time>
      </trkpt>
      <trkpt lat="45.92471" lon="4.73656">
        <ele>174</ele>
        <time>2017-08-25T10:32:59Z</time>
      </trkpt>
      <trkpt lat="45.92471" lon="4.73662">
        <ele>174</ele>
        <time>2017-08-25T10:33:00Z</time>
      </trkpt>
      <trkpt lat="45.92469" lon="4.73673">
        <ele>174</ele>
        <time>2017-08-25T10:33:02Z</time>
      </trkpt>
      <trkpt lat="45.92469" lon="4.73678">
        <ele>174</ele>
        <time>2017-08-25T10:33:03Z</time>
      </trkpt>
      <trkpt lat="45.92467" lon="4.73688">
        <ele>174</ele>
        <time>2017-08-25T10:33:05Z</time>
      </trkpt>
      <trkpt lat="45.92466" lon="4.73693">
        <ele>174</ele>
        <time>2017-08-25T10:33:06Z</time>
      </trkpt>
      <trkpt lat="45.92464" lon="4.73706">
        <ele>174</ele>
        <time>2017-08-25T10:33:09Z</time>
      </trkpt>
      <trkpt lat="45.92465" lon="4.73708">
        <ele>174</ele>
        <time>2017-08-25T10:33:10Z</time>
      </trkpt>
      <trkpt lat="45.92464" lon="4.73709">
        <ele>174</ele>
        <time>2017-08-25T10:33:17Z</time>
      </trkpt>
      <trkpt lat="45.92463" lon="4.73711">
        <ele>174</ele>
        <time>2017-08-25T10:33:18Z</time>
      </trkpt>
      <trkpt lat="45.92462" lon="4.73713">
        <ele>174</ele>
        <time>2017-08-25T10:33:41.327Z</time>
      </trkpt>
    </trkseg>
  </trk>
</gpx>